<?xml version="1.0" encoding="UTF-8" standalone="no" ?>
<gpx xmlns="http://www.topografix.com/GPX/1/1" xmlns:xsi="http://www.w3.org/2001/XMLSchema-instance" xsi:schemaLocation="http://www.topografix.com/GPX/1/1 http://www.topografix.com/GPX/1/1/gpx.xsd" version="1.1" creator="VisuGPX - https://www.visugpx.com">
  <metadata>
    <name>09 Tour de Bretagne 2025</name>
    <desc><![CDATA[Etape 9 de Loquirec à Trévou-Tréguignec]]></desc>
  </metadata>
  <trk>
    <name><![CDATA[09 Tour de Bretagne 2025_1]]></name>
    <trkseg>
      <trkpt lat="48.67871" lon="-3.64926">
        <ele>7</ele>
        <time>2025-09-26T07:43:12Z</time>
      </trkpt>
      <trkpt lat="48.67873" lon="-3.64925">
        <ele>7</ele>
        <time>2025-09-26T07:43:14Z</time>
      </trkpt>
      <trkpt lat="48.67873" lon="-3.64926">
        <ele>7</ele>
        <time>2025-09-26T07:43:16Z</time>
      </trkpt>
      <trkpt lat="48.67873" lon="-3.64931">
        <ele>6.8</ele>
        <time>2025-09-26T07:43:18Z</time>
      </trkpt>
      <trkpt lat="48.67875" lon="-3.64936">
        <ele>6.8</ele>
        <time>2025-09-26T07:43:23Z</time>
      </trkpt>
      <trkpt lat="48.67875" lon="-3.64937">
        <ele>6.8</ele>
        <time>2025-09-26T07:43:24Z</time>
      </trkpt>
      <trkpt lat="48.67873" lon="-3.6494">
        <ele>6.8</ele>
        <time>2025-09-26T07:43:27Z</time>
      </trkpt>
      <trkpt lat="48.67874" lon="-3.6494">
        <ele>6.8</ele>
        <time>2025-09-26T07:43:30Z</time>
      </trkpt>
      <trkpt lat="48.67876" lon="-3.6494">
        <ele>7</ele>
        <time>2025-09-26T07:43:39Z</time>
      </trkpt>
      <trkpt lat="48.67879" lon="-3.64942">
        <ele>7</ele>
        <time>2025-09-26T07:43:44Z</time>
      </trkpt>
      <trkpt lat="48.67882" lon="-3.64945">
        <ele>7</ele>
        <time>2025-09-26T07:43:46Z</time>
      </trkpt>
      <trkpt lat="48.67889" lon="-3.64967">
        <ele>7</ele>
        <time>2025-09-26T07:43:53Z</time>
      </trkpt>
      <trkpt lat="48.67893" lon="-3.64975">
        <ele>7</ele>
        <time>2025-09-26T07:43:56Z</time>
      </trkpt>
      <trkpt lat="48.67897" lon="-3.64986">
        <ele>7.2</ele>
        <time>2025-09-26T07:44:00Z</time>
      </trkpt>
      <trkpt lat="48.67903" lon="-3.65">
        <ele>7</ele>
        <time>2025-09-26T07:44:09Z</time>
      </trkpt>
      <trkpt lat="48.67904" lon="-3.65003">
        <ele>7</ele>
        <time>2025-09-26T07:44:11Z</time>
      </trkpt>
      <trkpt lat="48.67905" lon="-3.65006">
        <ele>7.2</ele>
        <time>2025-09-26T07:44:15Z</time>
      </trkpt>
      <trkpt lat="48.67905" lon="-3.65004">
        <ele>7</ele>
        <time>2025-09-26T07:44:25Z</time>
      </trkpt>
      <trkpt lat="48.67905" lon="-3.65004">
        <ele>7</ele>
        <time>2025-09-26T07:44:38Z</time>
      </trkpt>
      <trkpt lat="48.67907" lon="-3.65013">
        <ele>7</ele>
        <time>2025-09-26T07:44:43Z</time>
      </trkpt>
      <trkpt lat="48.67914" lon="-3.65038">
        <ele>7</ele>
        <time>2025-09-26T07:44:50Z</time>
      </trkpt>
      <trkpt lat="48.67919" lon="-3.65062">
        <ele>7.2</ele>
        <time>2025-09-26T07:44:56Z</time>
      </trkpt>
      <trkpt lat="48.67922" lon="-3.65075">
        <ele>7.2</ele>
        <time>2025-09-26T07:44:59Z</time>
      </trkpt>
      <trkpt lat="48.67931" lon="-3.65109">
        <ele>7.6</ele>
        <time>2025-09-26T07:45:07Z</time>
      </trkpt>
      <trkpt lat="48.67938" lon="-3.65142">
        <ele>7.4</ele>
        <time>2025-09-26T07:45:14Z</time>
      </trkpt>
      <trkpt lat="48.67943" lon="-3.65159">
        <ele>7.6</ele>
        <time>2025-09-26T07:45:18Z</time>
      </trkpt>
      <trkpt lat="48.67951" lon="-3.65174">
        <ele>7.6</ele>
        <time>2025-09-26T07:45:22Z</time>
      </trkpt>
      <trkpt lat="48.67975" lon="-3.65214">
        <ele>7.6</ele>
        <time>2025-09-26T07:45:33Z</time>
      </trkpt>
      <trkpt lat="48.67993" lon="-3.65244">
        <ele>7.6</ele>
        <time>2025-09-26T07:45:41Z</time>
      </trkpt>
      <trkpt lat="48.67999" lon="-3.65256">
        <ele>7.4</ele>
        <time>2025-09-26T07:45:44Z</time>
      </trkpt>
      <trkpt lat="48.68016" lon="-3.65283">
        <ele>7.6</ele>
        <time>2025-09-26T07:45:53Z</time>
      </trkpt>
      <trkpt lat="48.68027" lon="-3.65299">
        <ele>7.4</ele>
        <time>2025-09-26T07:45:59Z</time>
      </trkpt>
      <trkpt lat="48.6803" lon="-3.65305">
        <ele>7.6</ele>
        <time>2025-09-26T07:46:01Z</time>
      </trkpt>
      <trkpt lat="48.68035" lon="-3.65313">
        <ele>7.6</ele>
        <time>2025-09-26T07:46:05Z</time>
      </trkpt>
      <trkpt lat="48.68039" lon="-3.65319">
        <ele>7.6</ele>
        <time>2025-09-26T07:46:07Z</time>
      </trkpt>
      <trkpt lat="48.68056" lon="-3.65347">
        <ele>7.4</ele>
        <time>2025-09-26T07:46:17Z</time>
      </trkpt>
      <trkpt lat="48.68072" lon="-3.65374">
        <ele>7</ele>
        <time>2025-09-26T07:46:26Z</time>
      </trkpt>
      <trkpt lat="48.68078" lon="-3.65388">
        <ele>7.2</ele>
        <time>2025-09-26T07:46:31Z</time>
      </trkpt>
      <trkpt lat="48.6808" lon="-3.65393">
        <ele>7.2</ele>
        <time>2025-09-26T07:46:34Z</time>
      </trkpt>
      <trkpt lat="48.68081" lon="-3.654">
        <ele>7.2</ele>
        <time>2025-09-26T07:46:39Z</time>
      </trkpt>
      <trkpt lat="48.6808" lon="-3.65399">
        <ele>7.4</ele>
        <time>2025-09-26T07:46:49Z</time>
      </trkpt>
      <trkpt lat="48.68082" lon="-3.65406">
        <ele>7.4</ele>
        <time>2025-09-26T07:47:41Z</time>
      </trkpt>
      <trkpt lat="48.68085" lon="-3.65403">
        <ele>7.4</ele>
        <time>2025-09-26T07:47:42Z</time>
      </trkpt>
      <trkpt lat="48.68086" lon="-3.65401">
        <ele>7.4</ele>
        <time>2025-09-26T07:47:43Z</time>
      </trkpt>
      <trkpt lat="48.68087" lon="-3.6541">
        <ele>7.4</ele>
        <time>2025-09-26T07:47:49Z</time>
      </trkpt>
      <trkpt lat="48.68087" lon="-3.65412">
        <ele>7.4</ele>
        <time>2025-09-26T07:47:50Z</time>
      </trkpt>
      <trkpt lat="48.68089" lon="-3.65414">
        <ele>7.4</ele>
        <time>2025-09-26T07:47:52Z</time>
      </trkpt>
      <trkpt lat="48.68091" lon="-3.65422">
        <ele>7.2</ele>
        <time>2025-09-26T07:47:57Z</time>
      </trkpt>
      <trkpt lat="48.68092" lon="-3.65423">
        <ele>7.4</ele>
        <time>2025-09-26T07:47:59Z</time>
      </trkpt>
      <trkpt lat="48.68097" lon="-3.65427">
        <ele>7.2</ele>
        <time>2025-09-26T07:48:03Z</time>
      </trkpt>
      <trkpt lat="48.68098" lon="-3.65428">
        <ele>7.2</ele>
        <time>2025-09-26T07:48:05Z</time>
      </trkpt>
      <trkpt lat="48.68098" lon="-3.65434">
        <ele>7.2</ele>
        <time>2025-09-26T07:48:14Z</time>
      </trkpt>
      <trkpt lat="48.68097" lon="-3.65437">
        <ele>7.2</ele>
        <time>2025-09-26T07:48:19Z</time>
      </trkpt>
      <trkpt lat="48.68095" lon="-3.6544">
        <ele>7.2</ele>
        <time>2025-09-26T07:48:20Z</time>
      </trkpt>
      <trkpt lat="48.68083" lon="-3.65446">
        <ele>7.6</ele>
        <time>2025-09-26T07:48:23Z</time>
      </trkpt>
      <trkpt lat="48.68083" lon="-3.65446">
        <ele>8</ele>
        <time>2025-09-26T07:48:24Z</time>
      </trkpt>
      <trkpt lat="48.68079" lon="-3.65444">
        <ele>8.2</ele>
        <time>2025-09-26T07:48:25Z</time>
      </trkpt>
      <trkpt lat="48.68069" lon="-3.65439">
        <ele>10.2</ele>
        <time>2025-09-26T07:48:28Z</time>
      </trkpt>
      <trkpt lat="48.68062" lon="-3.65439">
        <ele>10.8</ele>
        <time>2025-09-26T07:48:30Z</time>
      </trkpt>
      <trkpt lat="48.68055" lon="-3.65442">
        <ele>12</ele>
        <time>2025-09-26T07:48:32Z</time>
      </trkpt>
      <trkpt lat="48.68046" lon="-3.65447">
        <ele>13.4</ele>
        <time>2025-09-26T07:48:35Z</time>
      </trkpt>
      <trkpt lat="48.68041" lon="-3.6545">
        <ele>14.2</ele>
        <time>2025-09-26T07:48:37Z</time>
      </trkpt>
      <trkpt lat="48.68039" lon="-3.65452">
        <ele>14.4</ele>
        <time>2025-09-26T07:48:38Z</time>
      </trkpt>
      <trkpt lat="48.68038" lon="-3.65452">
        <ele>14.8</ele>
        <time>2025-09-26T07:48:41Z</time>
      </trkpt>
      <trkpt lat="48.68038" lon="-3.65452">
        <ele>14.8</ele>
        <time>2025-09-26T07:48:45Z</time>
      </trkpt>
      <trkpt lat="48.68035" lon="-3.65455">
        <ele>15.2</ele>
        <time>2025-09-26T07:48:48Z</time>
      </trkpt>
      <trkpt lat="48.68033" lon="-3.65454">
        <ele>15.2</ele>
        <time>2025-09-26T07:48:49Z</time>
      </trkpt>
      <trkpt lat="48.68024" lon="-3.65443">
        <ele>15.2</ele>
        <time>2025-09-26T07:48:53Z</time>
      </trkpt>
      <trkpt lat="48.68019" lon="-3.65433">
        <ele>15.4</ele>
        <time>2025-09-26T07:48:56Z</time>
      </trkpt>
      <trkpt lat="48.68016" lon="-3.65429">
        <ele>15.6</ele>
        <time>2025-09-26T07:48:57Z</time>
      </trkpt>
      <trkpt lat="48.68014" lon="-3.65425">
        <ele>15.4</ele>
        <time>2025-09-26T07:48:58Z</time>
      </trkpt>
      <trkpt lat="48.68" lon="-3.65398">
        <ele>15.8</ele>
        <time>2025-09-26T07:49:05Z</time>
      </trkpt>
      <trkpt lat="48.67995" lon="-3.6539">
        <ele>16</ele>
        <time>2025-09-26T07:49:07Z</time>
      </trkpt>
      <trkpt lat="48.67985" lon="-3.65376">
        <ele>16.6</ele>
        <time>2025-09-26T07:49:12Z</time>
      </trkpt>
      <trkpt lat="48.67983" lon="-3.65374">
        <ele>16.6</ele>
        <time>2025-09-26T07:49:14Z</time>
      </trkpt>
      <trkpt lat="48.67982" lon="-3.65373">
        <ele>16.6</ele>
        <time>2025-09-26T07:49:17Z</time>
      </trkpt>
      <trkpt lat="48.67981" lon="-3.65373">
        <ele>16.6</ele>
        <time>2025-09-26T07:49:26Z</time>
      </trkpt>
      <trkpt lat="48.67981" lon="-3.65373">
        <ele>16.6</ele>
        <time>2025-09-26T07:49:38Z</time>
      </trkpt>
      <trkpt lat="48.67982" lon="-3.65371">
        <ele>16.8</ele>
        <time>2025-09-26T07:49:53Z</time>
      </trkpt>
      <trkpt lat="48.67979" lon="-3.65365">
        <ele>17</ele>
        <time>2025-09-26T07:49:55Z</time>
      </trkpt>
      <trkpt lat="48.67975" lon="-3.65356">
        <ele>17</ele>
        <time>2025-09-26T07:49:57Z</time>
      </trkpt>
      <trkpt lat="48.67969" lon="-3.65344">
        <ele>17</ele>
        <time>2025-09-26T07:50:00Z</time>
      </trkpt>
      <trkpt lat="48.6796" lon="-3.65329">
        <ele>17</ele>
        <time>2025-09-26T07:50:04Z</time>
      </trkpt>
      <trkpt lat="48.67948" lon="-3.65307">
        <ele>17</ele>
        <time>2025-09-26T07:50:09Z</time>
      </trkpt>
      <trkpt lat="48.67939" lon="-3.65291">
        <ele>17.8</ele>
        <time>2025-09-26T07:50:13Z</time>
      </trkpt>
      <trkpt lat="48.67933" lon="-3.65281">
        <ele>18</ele>
        <time>2025-09-26T07:50:15Z</time>
      </trkpt>
      <trkpt lat="48.6793" lon="-3.65276">
        <ele>18</ele>
        <time>2025-09-26T07:50:16Z</time>
      </trkpt>
      <trkpt lat="48.67923" lon="-3.65263">
        <ele>18.8</ele>
        <time>2025-09-26T07:50:19Z</time>
      </trkpt>
      <trkpt lat="48.67916" lon="-3.6525">
        <ele>18.8</ele>
        <time>2025-09-26T07:50:22Z</time>
      </trkpt>
      <trkpt lat="48.67888" lon="-3.65202">
        <ele>19.2</ele>
        <time>2025-09-26T07:50:32Z</time>
      </trkpt>
      <trkpt lat="48.67867" lon="-3.65165">
        <ele>19.8</ele>
        <time>2025-09-26T07:50:40Z</time>
      </trkpt>
      <trkpt lat="48.67864" lon="-3.6516">
        <ele>19.8</ele>
        <time>2025-09-26T07:50:41Z</time>
      </trkpt>
      <trkpt lat="48.67834" lon="-3.65107">
        <ele>19.8</ele>
        <time>2025-09-26T07:50:51Z</time>
      </trkpt>
      <trkpt lat="48.67809" lon="-3.65061">
        <ele>19.6</ele>
        <time>2025-09-26T07:51:00Z</time>
      </trkpt>
      <trkpt lat="48.67807" lon="-3.65039">
        <ele>19.6</ele>
        <time>2025-09-26T07:51:04Z</time>
      </trkpt>
      <trkpt lat="48.6782" lon="-3.65018">
        <ele>18.2</ele>
        <time>2025-09-26T07:51:09Z</time>
      </trkpt>
      <trkpt lat="48.67824" lon="-3.65011">
        <ele>17.4</ele>
        <time>2025-09-26T07:51:10Z</time>
      </trkpt>
      <trkpt lat="48.67827" lon="-3.65004">
        <ele>16.6</ele>
        <time>2025-09-26T07:51:11Z</time>
      </trkpt>
      <trkpt lat="48.67828" lon="-3.64997">
        <ele>16.4</ele>
        <time>2025-09-26T07:51:12Z</time>
      </trkpt>
      <trkpt lat="48.67827" lon="-3.64984">
        <ele>16</ele>
        <time>2025-09-26T07:51:14Z</time>
      </trkpt>
      <trkpt lat="48.67826" lon="-3.64978">
        <ele>15.8</ele>
        <time>2025-09-26T07:51:15Z</time>
      </trkpt>
      <trkpt lat="48.67816" lon="-3.64951">
        <ele>15.8</ele>
        <time>2025-09-26T07:51:20Z</time>
      </trkpt>
      <trkpt lat="48.67794" lon="-3.64886">
        <ele>15.8</ele>
        <time>2025-09-26T07:51:31Z</time>
      </trkpt>
      <trkpt lat="48.67778" lon="-3.64834">
        <ele>15.6</ele>
        <time>2025-09-26T07:51:40Z</time>
      </trkpt>
      <trkpt lat="48.67776" lon="-3.64828">
        <ele>15.6</ele>
        <time>2025-09-26T07:51:41Z</time>
      </trkpt>
      <trkpt lat="48.67762" lon="-3.64783">
        <ele>14.4</ele>
        <time>2025-09-26T07:51:48Z</time>
      </trkpt>
      <trkpt lat="48.67759" lon="-3.64775">
        <ele>14.2</ele>
        <time>2025-09-26T07:51:49Z</time>
      </trkpt>
      <trkpt lat="48.67746" lon="-3.64738">
        <ele>13.2</ele>
        <time>2025-09-26T07:51:54Z</time>
      </trkpt>
      <trkpt lat="48.67737" lon="-3.64715">
        <ele>12.8</ele>
        <time>2025-09-26T07:51:57Z</time>
      </trkpt>
      <trkpt lat="48.6772" lon="-3.64682">
        <ele>12</ele>
        <time>2025-09-26T07:52:02Z</time>
      </trkpt>
      <trkpt lat="48.67716" lon="-3.64677">
        <ele>12</ele>
        <time>2025-09-26T07:52:03Z</time>
      </trkpt>
      <trkpt lat="48.67713" lon="-3.64671">
        <ele>12</ele>
        <time>2025-09-26T07:52:04Z</time>
      </trkpt>
      <trkpt lat="48.6771" lon="-3.64655">
        <ele>12</ele>
        <time>2025-09-26T07:52:07Z</time>
      </trkpt>
      <trkpt lat="48.67715" lon="-3.64646">
        <ele>11.8</ele>
        <time>2025-09-26T07:52:09Z</time>
      </trkpt>
      <trkpt lat="48.67719" lon="-3.64643">
        <ele>11.6</ele>
        <time>2025-09-26T07:52:10Z</time>
      </trkpt>
      <trkpt lat="48.67723" lon="-3.64642">
        <ele>11.4</ele>
        <time>2025-09-26T07:52:11Z</time>
      </trkpt>
      <trkpt lat="48.67738" lon="-3.64643">
        <ele>10.8</ele>
        <time>2025-09-26T07:52:14Z</time>
      </trkpt>
      <trkpt lat="48.67752" lon="-3.64643">
        <ele>10</ele>
        <time>2025-09-26T07:52:17Z</time>
      </trkpt>
      <trkpt lat="48.67758" lon="-3.64639">
        <ele>9.6</ele>
        <time>2025-09-26T07:52:19Z</time>
      </trkpt>
      <trkpt lat="48.67761" lon="-3.64632">
        <ele>9</ele>
        <time>2025-09-26T07:52:21Z</time>
      </trkpt>
      <trkpt lat="48.6776" lon="-3.64628">
        <ele>8.6</ele>
        <time>2025-09-26T07:52:22Z</time>
      </trkpt>
      <trkpt lat="48.67759" lon="-3.64624">
        <ele>8.4</ele>
        <time>2025-09-26T07:52:23Z</time>
      </trkpt>
      <trkpt lat="48.67753" lon="-3.64616">
        <ele>8.2</ele>
        <time>2025-09-26T07:52:26Z</time>
      </trkpt>
      <trkpt lat="48.67732" lon="-3.64591">
        <ele>7.8</ele>
        <time>2025-09-26T07:52:34Z</time>
      </trkpt>
      <trkpt lat="48.67725" lon="-3.64584">
        <ele>7.8</ele>
        <time>2025-09-26T07:52:36Z</time>
      </trkpt>
      <trkpt lat="48.67706" lon="-3.6456">
        <ele>7.6</ele>
        <time>2025-09-26T07:52:42Z</time>
      </trkpt>
      <trkpt lat="48.67682" lon="-3.64526">
        <ele>7.2</ele>
        <time>2025-09-26T07:52:50Z</time>
      </trkpt>
      <trkpt lat="48.67675" lon="-3.64518">
        <ele>7.2</ele>
        <time>2025-09-26T07:52:52Z</time>
      </trkpt>
      <trkpt lat="48.67665" lon="-3.64502">
        <ele>7</ele>
        <time>2025-09-26T07:52:57Z</time>
      </trkpt>
      <trkpt lat="48.67659" lon="-3.64489">
        <ele>6.6</ele>
        <time>2025-09-26T07:53:02Z</time>
      </trkpt>
      <trkpt lat="48.67658" lon="-3.64488">
        <ele>6.6</ele>
        <time>2025-09-26T07:53:04Z</time>
      </trkpt>
      <trkpt lat="48.67658" lon="-3.64488">
        <ele>6.4</ele>
        <time>2025-09-26T07:53:07Z</time>
      </trkpt>
      <trkpt lat="48.67659" lon="-3.64487">
        <ele>6.6</ele>
        <time>2025-09-26T07:53:12Z</time>
      </trkpt>
      <trkpt lat="48.67659" lon="-3.64487">
        <ele>6.6</ele>
        <time>2025-09-26T07:53:14Z</time>
      </trkpt>
      <trkpt lat="48.67659" lon="-3.64487">
        <ele>6.6</ele>
        <time>2025-09-26T07:53:24Z</time>
      </trkpt>
      <trkpt lat="48.67659" lon="-3.64487">
        <ele>6.6</ele>
        <time>2025-09-26T07:53:36Z</time>
      </trkpt>
      <trkpt lat="48.67659" lon="-3.64487">
        <ele>6.6</ele>
        <time>2025-09-26T07:53:44Z</time>
      </trkpt>
      <trkpt lat="48.67659" lon="-3.64487">
        <ele>6.6</ele>
        <time>2025-09-26T07:53:46Z</time>
      </trkpt>
      <trkpt lat="48.67659" lon="-3.64488">
        <ele>6.6</ele>
        <time>2025-09-26T07:53:52Z</time>
      </trkpt>
      <trkpt lat="48.67659" lon="-3.64488">
        <ele>6.6</ele>
        <time>2025-09-26T07:53:55Z</time>
      </trkpt>
      <trkpt lat="48.67658" lon="-3.64489">
        <ele>6.6</ele>
        <time>2025-09-26T07:54:04Z</time>
      </trkpt>
      <trkpt lat="48.67659" lon="-3.6449">
        <ele>6.6</ele>
        <time>2025-09-26T07:54:05Z</time>
      </trkpt>
      <trkpt lat="48.67659" lon="-3.6449">
        <ele>6.4</ele>
        <time>2025-09-26T07:54:10Z</time>
      </trkpt>
      <trkpt lat="48.67659" lon="-3.6449">
        <ele>6.6</ele>
        <time>2025-09-26T07:54:17Z</time>
      </trkpt>
      <trkpt lat="48.67659" lon="-3.6449">
        <ele>6.6</ele>
        <time>2025-09-26T07:54:18Z</time>
      </trkpt>
      <trkpt lat="48.67658" lon="-3.64491">
        <ele>6.8</ele>
        <time>2025-09-26T07:54:23Z</time>
      </trkpt>
      <trkpt lat="48.67658" lon="-3.64491">
        <ele>6.8</ele>
        <time>2025-09-26T07:54:31Z</time>
      </trkpt>
      <trkpt lat="48.67658" lon="-3.64491">
        <ele>6.8</ele>
        <time>2025-09-26T07:54:43Z</time>
      </trkpt>
      <trkpt lat="48.67658" lon="-3.64491">
        <ele>6.6</ele>
        <time>2025-09-26T07:54:58Z</time>
      </trkpt>
      <trkpt lat="48.67658" lon="-3.64491">
        <ele>6.6</ele>
        <time>2025-09-26T07:55:12Z</time>
      </trkpt>
      <trkpt lat="48.67656" lon="-3.6449">
        <ele>6.6</ele>
        <time>2025-09-26T07:55:14Z</time>
      </trkpt>
      <trkpt lat="48.67652" lon="-3.64485">
        <ele>6.4</ele>
        <time>2025-09-26T07:55:16Z</time>
      </trkpt>
      <trkpt lat="48.67636" lon="-3.64464">
        <ele>6.4</ele>
        <time>2025-09-26T07:55:21Z</time>
      </trkpt>
      <trkpt lat="48.67618" lon="-3.64424">
        <ele>6.4</ele>
        <time>2025-09-26T07:55:28Z</time>
      </trkpt>
      <trkpt lat="48.67614" lon="-3.64413">
        <ele>6.2</ele>
        <time>2025-09-26T07:55:30Z</time>
      </trkpt>
      <trkpt lat="48.67604" lon="-3.64387">
        <ele>6</ele>
        <time>2025-09-26T07:55:35Z</time>
      </trkpt>
      <trkpt lat="48.67602" lon="-3.64375">
        <ele>6</ele>
        <time>2025-09-26T07:55:37Z</time>
      </trkpt>
      <trkpt lat="48.67596" lon="-3.64343">
        <ele>6</ele>
        <time>2025-09-26T07:55:44Z</time>
      </trkpt>
      <trkpt lat="48.67598" lon="-3.6431">
        <ele>5.8</ele>
        <time>2025-09-26T07:55:52Z</time>
      </trkpt>
      <trkpt lat="48.67597" lon="-3.64282">
        <ele>5.8</ele>
        <time>2025-09-26T07:55:59Z</time>
      </trkpt>
      <trkpt lat="48.67586" lon="-3.64266">
        <ele>5.8</ele>
        <time>2025-09-26T07:56:05Z</time>
      </trkpt>
      <trkpt lat="48.67566" lon="-3.6425">
        <ele>5.8</ele>
        <time>2025-09-26T07:56:14Z</time>
      </trkpt>
      <trkpt lat="48.67551" lon="-3.64241">
        <ele>6</ele>
        <time>2025-09-26T07:56:22Z</time>
      </trkpt>
      <trkpt lat="48.67536" lon="-3.64238">
        <ele>7</ele>
        <time>2025-09-26T07:56:30Z</time>
      </trkpt>
      <trkpt lat="48.67536" lon="-3.64238">
        <ele>7.2</ele>
        <time>2025-09-26T07:56:34Z</time>
      </trkpt>
      <trkpt lat="48.67533" lon="-3.64239">
        <ele>7.2</ele>
        <time>2025-09-26T07:56:43Z</time>
      </trkpt>
      <trkpt lat="48.6753" lon="-3.64238">
        <ele>7</ele>
        <time>2025-09-26T07:56:49Z</time>
      </trkpt>
      <trkpt lat="48.67528" lon="-3.64233">
        <ele>7</ele>
        <time>2025-09-26T07:56:57Z</time>
      </trkpt>
      <trkpt lat="48.67527" lon="-3.6423">
        <ele>7</ele>
        <time>2025-09-26T07:56:58Z</time>
      </trkpt>
      <trkpt lat="48.67522" lon="-3.6422">
        <ele>6.8</ele>
        <time>2025-09-26T07:57:02Z</time>
      </trkpt>
      <trkpt lat="48.67519" lon="-3.64215">
        <ele>6.8</ele>
        <time>2025-09-26T07:57:04Z</time>
      </trkpt>
      <trkpt lat="48.67518" lon="-3.64212">
        <ele>6.8</ele>
        <time>2025-09-26T07:57:05Z</time>
      </trkpt>
      <trkpt lat="48.6751" lon="-3.64197">
        <ele>6.6</ele>
        <time>2025-09-26T07:57:12Z</time>
      </trkpt>
      <trkpt lat="48.67506" lon="-3.64186">
        <ele>6.6</ele>
        <time>2025-09-26T07:57:18Z</time>
      </trkpt>
      <trkpt lat="48.67506" lon="-3.64186">
        <ele>6.6</ele>
        <time>2025-09-26T07:57:20Z</time>
      </trkpt>
      <trkpt lat="48.67505" lon="-3.64184">
        <ele>6.8</ele>
        <time>2025-09-26T07:57:25Z</time>
      </trkpt>
      <trkpt lat="48.67504" lon="-3.64179">
        <ele>6.8</ele>
        <time>2025-09-26T07:57:27Z</time>
      </trkpt>
      <trkpt lat="48.67503" lon="-3.64175">
        <ele>6.8</ele>
        <time>2025-09-26T07:57:28Z</time>
      </trkpt>
      <trkpt lat="48.67494" lon="-3.64147">
        <ele>6.8</ele>
        <time>2025-09-26T07:57:35Z</time>
      </trkpt>
      <trkpt lat="48.6748" lon="-3.64115">
        <ele>6.8</ele>
        <time>2025-09-26T07:57:43Z</time>
      </trkpt>
      <trkpt lat="48.67462" lon="-3.64082">
        <ele>6.8</ele>
        <time>2025-09-26T07:57:51Z</time>
      </trkpt>
      <trkpt lat="48.67445" lon="-3.64061">
        <ele>6.8</ele>
        <time>2025-09-26T07:57:57Z</time>
      </trkpt>
      <trkpt lat="48.67422" lon="-3.64021">
        <ele>6.8</ele>
        <time>2025-09-26T07:58:06Z</time>
      </trkpt>
      <trkpt lat="48.67404" lon="-3.63979">
        <ele>6.8</ele>
        <time>2025-09-26T07:58:14Z</time>
      </trkpt>
      <trkpt lat="48.67389" lon="-3.63939">
        <ele>6.8</ele>
        <time>2025-09-26T07:58:21Z</time>
      </trkpt>
      <trkpt lat="48.67384" lon="-3.63933">
        <ele>6.6</ele>
        <time>2025-09-26T07:58:23Z</time>
      </trkpt>
      <trkpt lat="48.67381" lon="-3.63932">
        <ele>6.6</ele>
        <time>2025-09-26T07:58:24Z</time>
      </trkpt>
      <trkpt lat="48.6736" lon="-3.63931">
        <ele>7</ele>
        <time>2025-09-26T07:58:30Z</time>
      </trkpt>
      <trkpt lat="48.67339" lon="-3.63942">
        <ele>6.6</ele>
        <time>2025-09-26T07:58:36Z</time>
      </trkpt>
      <trkpt lat="48.67333" lon="-3.63949">
        <ele>6.8</ele>
        <time>2025-09-26T07:58:37Z</time>
      </trkpt>
      <trkpt lat="48.67325" lon="-3.63965">
        <ele>6.4</ele>
        <time>2025-09-26T07:58:42Z</time>
      </trkpt>
      <trkpt lat="48.67323" lon="-3.63972">
        <ele>6.2</ele>
        <time>2025-09-26T07:58:44Z</time>
      </trkpt>
      <trkpt lat="48.6732" lon="-3.63979">
        <ele>6.2</ele>
        <time>2025-09-26T07:58:46Z</time>
      </trkpt>
      <trkpt lat="48.67317" lon="-3.63995">
        <ele>6.2</ele>
        <time>2025-09-26T07:58:49Z</time>
      </trkpt>
      <trkpt lat="48.67317" lon="-3.64001">
        <ele>6</ele>
        <time>2025-09-26T07:58:50Z</time>
      </trkpt>
      <trkpt lat="48.67321" lon="-3.64032">
        <ele>5.8</ele>
        <time>2025-09-26T07:58:56Z</time>
      </trkpt>
      <trkpt lat="48.67321" lon="-3.64042">
        <ele>6</ele>
        <time>2025-09-26T07:58:58Z</time>
      </trkpt>
      <trkpt lat="48.67319" lon="-3.64046">
        <ele>6</ele>
        <time>2025-09-26T07:58:59Z</time>
      </trkpt>
      <trkpt lat="48.67305" lon="-3.64057">
        <ele>5.6</ele>
        <time>2025-09-26T07:59:03Z</time>
      </trkpt>
      <trkpt lat="48.67301" lon="-3.64058">
        <ele>5.6</ele>
        <time>2025-09-26T07:59:04Z</time>
      </trkpt>
      <trkpt lat="48.67283" lon="-3.6407">
        <ele>5.2</ele>
        <time>2025-09-26T07:59:09Z</time>
      </trkpt>
      <trkpt lat="48.67265" lon="-3.64103">
        <ele>4.8</ele>
        <time>2025-09-26T07:59:17Z</time>
      </trkpt>
      <trkpt lat="48.67247" lon="-3.64139">
        <ele>5</ele>
        <time>2025-09-26T07:59:25Z</time>
      </trkpt>
      <trkpt lat="48.67245" lon="-3.64151">
        <ele>4.6</ele>
        <time>2025-09-26T07:59:29Z</time>
      </trkpt>
      <trkpt lat="48.67244" lon="-3.64171">
        <ele>4.8</ele>
        <time>2025-09-26T07:59:35Z</time>
      </trkpt>
      <trkpt lat="48.67241" lon="-3.64193">
        <ele>4.6</ele>
        <time>2025-09-26T07:59:42Z</time>
      </trkpt>
      <trkpt lat="48.67239" lon="-3.642">
        <ele>4.4</ele>
        <time>2025-09-26T07:59:45Z</time>
      </trkpt>
      <trkpt lat="48.67237" lon="-3.64206">
        <ele>4.4</ele>
        <time>2025-09-26T07:59:47Z</time>
      </trkpt>
      <trkpt lat="48.67234" lon="-3.64221">
        <ele>4.2</ele>
        <time>2025-09-26T07:59:51Z</time>
      </trkpt>
      <trkpt lat="48.67234" lon="-3.64225">
        <ele>4.2</ele>
        <time>2025-09-26T07:59:52Z</time>
      </trkpt>
      <trkpt lat="48.67231" lon="-3.64254">
        <ele>4.6</ele>
        <time>2025-09-26T07:59:59Z</time>
      </trkpt>
      <trkpt lat="48.67222" lon="-3.64288">
        <ele>5</ele>
        <time>2025-09-26T08:00:07Z</time>
      </trkpt>
      <trkpt lat="48.6722" lon="-3.64293">
        <ele>4.8</ele>
        <time>2025-09-26T08:00:11Z</time>
      </trkpt>
      <trkpt lat="48.6722" lon="-3.64297">
        <ele>5.2</ele>
        <time>2025-09-26T08:00:19Z</time>
      </trkpt>
      <trkpt lat="48.67221" lon="-3.64299">
        <ele>5.4</ele>
        <time>2025-09-26T08:00:20Z</time>
      </trkpt>
      <trkpt lat="48.67222" lon="-3.64301">
        <ele>5.6</ele>
        <time>2025-09-26T08:00:22Z</time>
      </trkpt>
      <trkpt lat="48.67223" lon="-3.64305">
        <ele>6.2</ele>
        <time>2025-09-26T08:00:26Z</time>
      </trkpt>
      <trkpt lat="48.67223" lon="-3.64309">
        <ele>6.2</ele>
        <time>2025-09-26T08:00:28Z</time>
      </trkpt>
      <trkpt lat="48.67223" lon="-3.64312">
        <ele>6.6</ele>
        <time>2025-09-26T08:00:31Z</time>
      </trkpt>
      <trkpt lat="48.67223" lon="-3.64312">
        <ele>6.6</ele>
        <time>2025-09-26T08:00:33Z</time>
      </trkpt>
      <trkpt lat="48.67223" lon="-3.64312">
        <ele>6.6</ele>
        <time>2025-09-26T08:00:35Z</time>
      </trkpt>
      <trkpt lat="48.67223" lon="-3.64312">
        <ele>6.6</ele>
        <time>2025-09-26T08:00:37Z</time>
      </trkpt>
      <trkpt lat="48.67223" lon="-3.64315">
        <ele>6.8</ele>
        <time>2025-09-26T08:00:41Z</time>
      </trkpt>
      <trkpt lat="48.67224" lon="-3.64318">
        <ele>6.8</ele>
        <time>2025-09-26T08:00:42Z</time>
      </trkpt>
      <trkpt lat="48.67223" lon="-3.6434">
        <ele>7.6</ele>
        <time>2025-09-26T08:00:48Z</time>
      </trkpt>
      <trkpt lat="48.67222" lon="-3.64355">
        <ele>8.8</ele>
        <time>2025-09-26T08:00:51Z</time>
      </trkpt>
      <trkpt lat="48.67219" lon="-3.64379">
        <ele>9.4</ele>
        <time>2025-09-26T08:00:56Z</time>
      </trkpt>
      <trkpt lat="48.67216" lon="-3.644">
        <ele>10</ele>
        <time>2025-09-26T08:01:00Z</time>
      </trkpt>
      <trkpt lat="48.67216" lon="-3.64411">
        <ele>10.4</ele>
        <time>2025-09-26T08:01:02Z</time>
      </trkpt>
      <trkpt lat="48.67215" lon="-3.64428">
        <ele>11</ele>
        <time>2025-09-26T08:01:05Z</time>
      </trkpt>
      <trkpt lat="48.67216" lon="-3.64433">
        <ele>11.2</ele>
        <time>2025-09-26T08:01:06Z</time>
      </trkpt>
      <trkpt lat="48.67217" lon="-3.64451">
        <ele>12</ele>
        <time>2025-09-26T08:01:09Z</time>
      </trkpt>
      <trkpt lat="48.67217" lon="-3.64457">
        <ele>12.4</ele>
        <time>2025-09-26T08:01:10Z</time>
      </trkpt>
      <trkpt lat="48.67217" lon="-3.64475">
        <ele>13.4</ele>
        <time>2025-09-26T08:01:13Z</time>
      </trkpt>
      <trkpt lat="48.67218" lon="-3.64485">
        <ele>14</ele>
        <time>2025-09-26T08:01:15Z</time>
      </trkpt>
      <trkpt lat="48.67219" lon="-3.64492">
        <ele>14.6</ele>
        <time>2025-09-26T08:01:17Z</time>
      </trkpt>
      <trkpt lat="48.67217" lon="-3.64497">
        <ele>14.8</ele>
        <time>2025-09-26T08:01:19Z</time>
      </trkpt>
      <trkpt lat="48.67213" lon="-3.64502">
        <ele>15.2</ele>
        <time>2025-09-26T08:01:21Z</time>
      </trkpt>
      <trkpt lat="48.6721" lon="-3.64504">
        <ele>15</ele>
        <time>2025-09-26T08:01:22Z</time>
      </trkpt>
      <trkpt lat="48.67189" lon="-3.645">
        <ele>14.2</ele>
        <time>2025-09-26T08:01:27Z</time>
      </trkpt>
      <trkpt lat="48.67178" lon="-3.64496">
        <ele>13.4</ele>
        <time>2025-09-26T08:01:29Z</time>
      </trkpt>
      <trkpt lat="48.67173" lon="-3.64492">
        <ele>13</ele>
        <time>2025-09-26T08:01:30Z</time>
      </trkpt>
      <trkpt lat="48.67162" lon="-3.64484">
        <ele>12.4</ele>
        <time>2025-09-26T08:01:32Z</time>
      </trkpt>
      <trkpt lat="48.67144" lon="-3.64471">
        <ele>11.2</ele>
        <time>2025-09-26T08:01:35Z</time>
      </trkpt>
      <trkpt lat="48.67122" lon="-3.64454">
        <ele>10.8</ele>
        <time>2025-09-26T08:01:39Z</time>
      </trkpt>
      <trkpt lat="48.67092" lon="-3.64432">
        <ele>10.4</ele>
        <time>2025-09-26T08:01:45Z</time>
      </trkpt>
      <trkpt lat="48.67082" lon="-3.64424">
        <ele>10.4</ele>
        <time>2025-09-26T08:01:47Z</time>
      </trkpt>
      <trkpt lat="48.67078" lon="-3.6442">
        <ele>10.2</ele>
        <time>2025-09-26T08:01:48Z</time>
      </trkpt>
      <trkpt lat="48.67054" lon="-3.64403">
        <ele>10</ele>
        <time>2025-09-26T08:01:53Z</time>
      </trkpt>
      <trkpt lat="48.67046" lon="-3.64397">
        <ele>9.6</ele>
        <time>2025-09-26T08:01:55Z</time>
      </trkpt>
      <trkpt lat="48.67043" lon="-3.64395">
        <ele>9.6</ele>
        <time>2025-09-26T08:01:56Z</time>
      </trkpt>
      <trkpt lat="48.6703" lon="-3.64386">
        <ele>9</ele>
        <time>2025-09-26T08:02:01Z</time>
      </trkpt>
      <trkpt lat="48.67015" lon="-3.64376">
        <ele>8.8</ele>
        <time>2025-09-26T08:02:08Z</time>
      </trkpt>
      <trkpt lat="48.67014" lon="-3.64375">
        <ele>8.8</ele>
        <time>2025-09-26T08:02:12Z</time>
      </trkpt>
      <trkpt lat="48.67014" lon="-3.64375">
        <ele>8.4</ele>
        <time>2025-09-26T08:02:22Z</time>
      </trkpt>
      <trkpt lat="48.67014" lon="-3.64375">
        <ele>8.4</ele>
        <time>2025-09-26T08:02:28Z</time>
      </trkpt>
      <trkpt lat="48.67015" lon="-3.64375">
        <ele>8.4</ele>
        <time>2025-09-26T08:02:32Z</time>
      </trkpt>
      <trkpt lat="48.67015" lon="-3.64375">
        <ele>8.4</ele>
        <time>2025-09-26T08:02:33Z</time>
      </trkpt>
      <trkpt lat="48.67015" lon="-3.64376">
        <ele>9</ele>
        <time>2025-09-26T08:02:45Z</time>
      </trkpt>
      <trkpt lat="48.67015" lon="-3.64376">
        <ele>8.8</ele>
        <time>2025-09-26T08:02:53Z</time>
      </trkpt>
      <trkpt lat="48.67015" lon="-3.64376">
        <ele>8.6</ele>
        <time>2025-09-26T08:02:55Z</time>
      </trkpt>
      <trkpt lat="48.67015" lon="-3.64376">
        <ele>8.6</ele>
        <time>2025-09-26T08:03:08Z</time>
      </trkpt>
      <trkpt lat="48.67015" lon="-3.64376">
        <ele>8.8</ele>
        <time>2025-09-26T08:03:11Z</time>
      </trkpt>
      <trkpt lat="48.67015" lon="-3.64376">
        <ele>9.2</ele>
        <time>2025-09-26T08:03:12Z</time>
      </trkpt>
      <trkpt lat="48.67014" lon="-3.64376">
        <ele>9.2</ele>
        <time>2025-09-26T08:03:13Z</time>
      </trkpt>
      <trkpt lat="48.67012" lon="-3.64371">
        <ele>9.2</ele>
        <time>2025-09-26T08:03:16Z</time>
      </trkpt>
      <trkpt lat="48.6701" lon="-3.64368">
        <ele>9.2</ele>
        <time>2025-09-26T08:03:17Z</time>
      </trkpt>
      <trkpt lat="48.66993" lon="-3.64344">
        <ele>9</ele>
        <time>2025-09-26T08:03:23Z</time>
      </trkpt>
      <trkpt lat="48.66975" lon="-3.64308">
        <ele>8.4</ele>
        <time>2025-09-26T08:03:29Z</time>
      </trkpt>
      <trkpt lat="48.66969" lon="-3.64287">
        <ele>8.2</ele>
        <time>2025-09-26T08:03:32Z</time>
      </trkpt>
      <trkpt lat="48.66964" lon="-3.64259">
        <ele>8.2</ele>
        <time>2025-09-26T08:03:36Z</time>
      </trkpt>
      <trkpt lat="48.66962" lon="-3.64236">
        <ele>8</ele>
        <time>2025-09-26T08:03:39Z</time>
      </trkpt>
      <trkpt lat="48.66962" lon="-3.64205">
        <ele>8</ele>
        <time>2025-09-26T08:03:43Z</time>
      </trkpt>
      <trkpt lat="48.66965" lon="-3.64151">
        <ele>8</ele>
        <time>2025-09-26T08:03:50Z</time>
      </trkpt>
      <trkpt lat="48.66967" lon="-3.64135">
        <ele>8</ele>
        <time>2025-09-26T08:03:52Z</time>
      </trkpt>
      <trkpt lat="48.66967" lon="-3.64128">
        <ele>8</ele>
        <time>2025-09-26T08:03:53Z</time>
      </trkpt>
      <trkpt lat="48.66972" lon="-3.64081">
        <ele>7.8</ele>
        <time>2025-09-26T08:03:59Z</time>
      </trkpt>
      <trkpt lat="48.66979" lon="-3.6401">
        <ele>8</ele>
        <time>2025-09-26T08:04:08Z</time>
      </trkpt>
      <trkpt lat="48.6699" lon="-3.63952">
        <ele>7.8</ele>
        <time>2025-09-26T08:04:16Z</time>
      </trkpt>
      <trkpt lat="48.67007" lon="-3.63874">
        <ele>7.8</ele>
        <time>2025-09-26T08:04:27Z</time>
      </trkpt>
      <trkpt lat="48.67023" lon="-3.63806">
        <ele>7.6</ele>
        <time>2025-09-26T08:04:36Z</time>
      </trkpt>
      <trkpt lat="48.67039" lon="-3.63748">
        <ele>7.6</ele>
        <time>2025-09-26T08:04:44Z</time>
      </trkpt>
      <trkpt lat="48.67059" lon="-3.63678">
        <ele>7.6</ele>
        <time>2025-09-26T08:04:54Z</time>
      </trkpt>
      <trkpt lat="48.67074" lon="-3.63615">
        <ele>7.6</ele>
        <time>2025-09-26T08:05:03Z</time>
      </trkpt>
      <trkpt lat="48.67085" lon="-3.63533">
        <ele>7.6</ele>
        <time>2025-09-26T08:05:14Z</time>
      </trkpt>
      <trkpt lat="48.67086" lon="-3.63525">
        <ele>7.4</ele>
        <time>2025-09-26T08:05:15Z</time>
      </trkpt>
      <trkpt lat="48.67094" lon="-3.63489">
        <ele>7.6</ele>
        <time>2025-09-26T08:05:20Z</time>
      </trkpt>
      <trkpt lat="48.67097" lon="-3.63483">
        <ele>7.6</ele>
        <time>2025-09-26T08:05:21Z</time>
      </trkpt>
      <trkpt lat="48.671" lon="-3.63477">
        <ele>7.8</ele>
        <time>2025-09-26T08:05:22Z</time>
      </trkpt>
      <trkpt lat="48.67108" lon="-3.63467">
        <ele>7.6</ele>
        <time>2025-09-26T08:05:24Z</time>
      </trkpt>
      <trkpt lat="48.67112" lon="-3.63464">
        <ele>7.8</ele>
        <time>2025-09-26T08:05:25Z</time>
      </trkpt>
      <trkpt lat="48.67117" lon="-3.6346">
        <ele>7.8</ele>
        <time>2025-09-26T08:05:26Z</time>
      </trkpt>
      <trkpt lat="48.67131" lon="-3.63454">
        <ele>8.2</ele>
        <time>2025-09-26T08:05:29Z</time>
      </trkpt>
      <trkpt lat="48.67136" lon="-3.63453">
        <ele>8.4</ele>
        <time>2025-09-26T08:05:30Z</time>
      </trkpt>
      <trkpt lat="48.67149" lon="-3.63451">
        <ele>8.8</ele>
        <time>2025-09-26T08:05:33Z</time>
      </trkpt>
      <trkpt lat="48.67154" lon="-3.6345">
        <ele>9</ele>
        <time>2025-09-26T08:05:34Z</time>
      </trkpt>
      <trkpt lat="48.67166" lon="-3.63449">
        <ele>10</ele>
        <time>2025-09-26T08:05:37Z</time>
      </trkpt>
      <trkpt lat="48.67171" lon="-3.63448">
        <ele>10</ele>
        <time>2025-09-26T08:05:38Z</time>
      </trkpt>
      <trkpt lat="48.67179" lon="-3.63447">
        <ele>10.8</ele>
        <time>2025-09-26T08:05:40Z</time>
      </trkpt>
      <trkpt lat="48.67188" lon="-3.63446">
        <ele>11.6</ele>
        <time>2025-09-26T08:05:42Z</time>
      </trkpt>
      <trkpt lat="48.67193" lon="-3.63445">
        <ele>11.8</ele>
        <time>2025-09-26T08:05:43Z</time>
      </trkpt>
      <trkpt lat="48.67206" lon="-3.63444">
        <ele>12.8</ele>
        <time>2025-09-26T08:05:46Z</time>
      </trkpt>
      <trkpt lat="48.67219" lon="-3.63443">
        <ele>14</ele>
        <time>2025-09-26T08:05:49Z</time>
      </trkpt>
      <trkpt lat="48.67224" lon="-3.63443">
        <ele>14.2</ele>
        <time>2025-09-26T08:05:50Z</time>
      </trkpt>
      <trkpt lat="48.67232" lon="-3.63443">
        <ele>15</ele>
        <time>2025-09-26T08:05:52Z</time>
      </trkpt>
      <trkpt lat="48.6725" lon="-3.63448">
        <ele>16</ele>
        <time>2025-09-26T08:05:56Z</time>
      </trkpt>
      <trkpt lat="48.67254" lon="-3.63449">
        <ele>16.4</ele>
        <time>2025-09-26T08:05:57Z</time>
      </trkpt>
      <trkpt lat="48.67267" lon="-3.63453">
        <ele>17.2</ele>
        <time>2025-09-26T08:06:00Z</time>
      </trkpt>
      <trkpt lat="48.67289" lon="-3.6346">
        <ele>18.2</ele>
        <time>2025-09-26T08:06:05Z</time>
      </trkpt>
      <trkpt lat="48.67293" lon="-3.63462">
        <ele>18.6</ele>
        <time>2025-09-26T08:06:06Z</time>
      </trkpt>
      <trkpt lat="48.67306" lon="-3.63465">
        <ele>19.2</ele>
        <time>2025-09-26T08:06:09Z</time>
      </trkpt>
      <trkpt lat="48.67328" lon="-3.63472">
        <ele>20.4</ele>
        <time>2025-09-26T08:06:14Z</time>
      </trkpt>
      <trkpt lat="48.67341" lon="-3.63476">
        <ele>21.2</ele>
        <time>2025-09-26T08:06:17Z</time>
      </trkpt>
      <trkpt lat="48.67346" lon="-3.63478">
        <ele>21.4</ele>
        <time>2025-09-26T08:06:18Z</time>
      </trkpt>
      <trkpt lat="48.6735" lon="-3.63479">
        <ele>21.6</ele>
        <time>2025-09-26T08:06:19Z</time>
      </trkpt>
      <trkpt lat="48.67368" lon="-3.63485">
        <ele>22.6</ele>
        <time>2025-09-26T08:06:23Z</time>
      </trkpt>
      <trkpt lat="48.67376" lon="-3.63488">
        <ele>23</ele>
        <time>2025-09-26T08:06:25Z</time>
      </trkpt>
      <trkpt lat="48.67396" lon="-3.63503">
        <ele>23.8</ele>
        <time>2025-09-26T08:06:30Z</time>
      </trkpt>
      <trkpt lat="48.67405" lon="-3.6351">
        <ele>23.8</ele>
        <time>2025-09-26T08:06:32Z</time>
      </trkpt>
      <trkpt lat="48.67415" lon="-3.63518">
        <ele>23.6</ele>
        <time>2025-09-26T08:06:34Z</time>
      </trkpt>
      <trkpt lat="48.67431" lon="-3.63532">
        <ele>23.4</ele>
        <time>2025-09-26T08:06:37Z</time>
      </trkpt>
      <trkpt lat="48.67453" lon="-3.63551">
        <ele>22.8</ele>
        <time>2025-09-26T08:06:41Z</time>
      </trkpt>
      <trkpt lat="48.67483" lon="-3.63576">
        <ele>22</ele>
        <time>2025-09-26T08:06:46Z</time>
      </trkpt>
      <trkpt lat="48.67499" lon="-3.63592">
        <ele>21.4</ele>
        <time>2025-09-26T08:06:49Z</time>
      </trkpt>
      <trkpt lat="48.67537" lon="-3.63624">
        <ele>20.4</ele>
        <time>2025-09-26T08:06:55Z</time>
      </trkpt>
      <trkpt lat="48.67549" lon="-3.63634">
        <ele>20.2</ele>
        <time>2025-09-26T08:06:57Z</time>
      </trkpt>
      <trkpt lat="48.67595" lon="-3.63665">
        <ele>20.4</ele>
        <time>2025-09-26T08:07:05Z</time>
      </trkpt>
      <trkpt lat="48.67639" lon="-3.63679">
        <ele>20.8</ele>
        <time>2025-09-26T08:07:12Z</time>
      </trkpt>
      <trkpt lat="48.67645" lon="-3.63681">
        <ele>20.8</ele>
        <time>2025-09-26T08:07:13Z</time>
      </trkpt>
      <trkpt lat="48.677" lon="-3.63698">
        <ele>20.8</ele>
        <time>2025-09-26T08:07:22Z</time>
      </trkpt>
      <trkpt lat="48.67738" lon="-3.63695">
        <ele>20.8</ele>
        <time>2025-09-26T08:07:28Z</time>
      </trkpt>
      <trkpt lat="48.67787" lon="-3.63681">
        <ele>21</ele>
        <time>2025-09-26T08:07:36Z</time>
      </trkpt>
      <trkpt lat="48.67837" lon="-3.63667">
        <ele>21.4</ele>
        <time>2025-09-26T08:07:44Z</time>
      </trkpt>
      <trkpt lat="48.67848" lon="-3.63662">
        <ele>21.6</ele>
        <time>2025-09-26T08:07:46Z</time>
      </trkpt>
      <trkpt lat="48.67884" lon="-3.63653">
        <ele>22.6</ele>
        <time>2025-09-26T08:07:52Z</time>
      </trkpt>
      <trkpt lat="48.67891" lon="-3.63651">
        <ele>22.8</ele>
        <time>2025-09-26T08:07:53Z</time>
      </trkpt>
      <trkpt lat="48.67913" lon="-3.63644">
        <ele>23.6</ele>
        <time>2025-09-26T08:07:57Z</time>
      </trkpt>
      <trkpt lat="48.67946" lon="-3.63635">
        <ele>25</ele>
        <time>2025-09-26T08:08:03Z</time>
      </trkpt>
      <trkpt lat="48.67973" lon="-3.63627">
        <ele>26.2</ele>
        <time>2025-09-26T08:08:08Z</time>
      </trkpt>
      <trkpt lat="48.68001" lon="-3.63617">
        <ele>27.2</ele>
        <time>2025-09-26T08:08:13Z</time>
      </trkpt>
      <trkpt lat="48.68005" lon="-3.63616">
        <ele>27.6</ele>
        <time>2025-09-26T08:08:14Z</time>
      </trkpt>
      <trkpt lat="48.68032" lon="-3.636">
        <ele>28.4</ele>
        <time>2025-09-26T08:08:19Z</time>
      </trkpt>
      <trkpt lat="48.68037" lon="-3.63594">
        <ele>28.6</ele>
        <time>2025-09-26T08:08:20Z</time>
      </trkpt>
      <trkpt lat="48.68046" lon="-3.63583">
        <ele>29.2</ele>
        <time>2025-09-26T08:08:22Z</time>
      </trkpt>
      <trkpt lat="48.68053" lon="-3.6357">
        <ele>29.8</ele>
        <time>2025-09-26T08:08:24Z</time>
      </trkpt>
      <trkpt lat="48.68065" lon="-3.63543">
        <ele>31</ele>
        <time>2025-09-26T08:08:28Z</time>
      </trkpt>
      <trkpt lat="48.6807" lon="-3.63528">
        <ele>31.6</ele>
        <time>2025-09-26T08:08:30Z</time>
      </trkpt>
      <trkpt lat="48.68073" lon="-3.63512">
        <ele>32.2</ele>
        <time>2025-09-26T08:08:32Z</time>
      </trkpt>
      <trkpt lat="48.68076" lon="-3.63488">
        <ele>33.2</ele>
        <time>2025-09-26T08:08:35Z</time>
      </trkpt>
      <trkpt lat="48.68072" lon="-3.63441">
        <ele>34.4</ele>
        <time>2025-09-26T08:08:41Z</time>
      </trkpt>
      <trkpt lat="48.68071" lon="-3.63433">
        <ele>34.8</ele>
        <time>2025-09-26T08:08:42Z</time>
      </trkpt>
      <trkpt lat="48.68066" lon="-3.63403">
        <ele>35.6</ele>
        <time>2025-09-26T08:08:46Z</time>
      </trkpt>
      <trkpt lat="48.6806" lon="-3.63355">
        <ele>36.6</ele>
        <time>2025-09-26T08:08:52Z</time>
      </trkpt>
      <trkpt lat="48.68059" lon="-3.63347">
        <ele>36.8</ele>
        <time>2025-09-26T08:08:53Z</time>
      </trkpt>
      <trkpt lat="48.68056" lon="-3.63321">
        <ele>37.6</ele>
        <time>2025-09-26T08:08:56Z</time>
      </trkpt>
      <trkpt lat="48.68052" lon="-3.63289">
        <ele>38.8</ele>
        <time>2025-09-26T08:09:00Z</time>
      </trkpt>
      <trkpt lat="48.6805" lon="-3.63265">
        <ele>39.2</ele>
        <time>2025-09-26T08:09:03Z</time>
      </trkpt>
      <trkpt lat="48.68049" lon="-3.63249">
        <ele>40.2</ele>
        <time>2025-09-26T08:09:05Z</time>
      </trkpt>
      <trkpt lat="48.68049" lon="-3.63241">
        <ele>40.2</ele>
        <time>2025-09-26T08:09:06Z</time>
      </trkpt>
      <trkpt lat="48.68049" lon="-3.63216">
        <ele>41.2</ele>
        <time>2025-09-26T08:09:09Z</time>
      </trkpt>
      <trkpt lat="48.6805" lon="-3.63185">
        <ele>42.4</ele>
        <time>2025-09-26T08:09:13Z</time>
      </trkpt>
      <trkpt lat="48.68052" lon="-3.63137">
        <ele>43</ele>
        <time>2025-09-26T08:09:19Z</time>
      </trkpt>
      <trkpt lat="48.68052" lon="-3.63127">
        <ele>43.2</ele>
        <time>2025-09-26T08:09:20Z</time>
      </trkpt>
      <trkpt lat="48.68053" lon="-3.63112">
        <ele>43.4</ele>
        <time>2025-09-26T08:09:22Z</time>
      </trkpt>
      <trkpt lat="48.68054" lon="-3.63079">
        <ele>43.8</ele>
        <time>2025-09-26T08:09:26Z</time>
      </trkpt>
      <trkpt lat="48.68054" lon="-3.63071">
        <ele>43.6</ele>
        <time>2025-09-26T08:09:27Z</time>
      </trkpt>
      <trkpt lat="48.68056" lon="-3.62991">
        <ele>43.4</ele>
        <time>2025-09-26T08:09:36Z</time>
      </trkpt>
      <trkpt lat="48.68058" lon="-3.62924">
        <ele>42.8</ele>
        <time>2025-09-26T08:09:43Z</time>
      </trkpt>
      <trkpt lat="48.6806" lon="-3.62912">
        <ele>42.8</ele>
        <time>2025-09-26T08:09:44Z</time>
      </trkpt>
      <trkpt lat="48.68073" lon="-3.62871">
        <ele>42.6</ele>
        <time>2025-09-26T08:09:49Z</time>
      </trkpt>
      <trkpt lat="48.68083" lon="-3.6282">
        <ele>42.8</ele>
        <time>2025-09-26T08:09:55Z</time>
      </trkpt>
      <trkpt lat="48.6809" lon="-3.62758">
        <ele>44</ele>
        <time>2025-09-26T08:10:02Z</time>
      </trkpt>
      <trkpt lat="48.68092" lon="-3.62739">
        <ele>44.6</ele>
        <time>2025-09-26T08:10:04Z</time>
      </trkpt>
      <trkpt lat="48.68097" lon="-3.62695">
        <ele>45.4</ele>
        <time>2025-09-26T08:10:09Z</time>
      </trkpt>
      <trkpt lat="48.68098" lon="-3.62686">
        <ele>45.8</ele>
        <time>2025-09-26T08:10:10Z</time>
      </trkpt>
      <trkpt lat="48.68102" lon="-3.62661">
        <ele>46.2</ele>
        <time>2025-09-26T08:10:13Z</time>
      </trkpt>
      <trkpt lat="48.68103" lon="-3.62647">
        <ele>46.8</ele>
        <time>2025-09-26T08:10:15Z</time>
      </trkpt>
      <trkpt lat="48.68107" lon="-3.62615">
        <ele>48.2</ele>
        <time>2025-09-26T08:10:19Z</time>
      </trkpt>
      <trkpt lat="48.68109" lon="-3.626">
        <ele>48.8</ele>
        <time>2025-09-26T08:10:21Z</time>
      </trkpt>
      <trkpt lat="48.6811" lon="-3.62591">
        <ele>49.2</ele>
        <time>2025-09-26T08:10:22Z</time>
      </trkpt>
      <trkpt lat="48.68111" lon="-3.62585">
        <ele>49.8</ele>
        <time>2025-09-26T08:10:23Z</time>
      </trkpt>
      <trkpt lat="48.68112" lon="-3.62569">
        <ele>50.4</ele>
        <time>2025-09-26T08:10:25Z</time>
      </trkpt>
      <trkpt lat="48.68115" lon="-3.62544">
        <ele>51.4</ele>
        <time>2025-09-26T08:10:28Z</time>
      </trkpt>
      <trkpt lat="48.68117" lon="-3.6253">
        <ele>52.2</ele>
        <time>2025-09-26T08:10:30Z</time>
      </trkpt>
      <trkpt lat="48.68118" lon="-3.62521">
        <ele>52.6</ele>
        <time>2025-09-26T08:10:31Z</time>
      </trkpt>
      <trkpt lat="48.6812" lon="-3.62497">
        <ele>53.6</ele>
        <time>2025-09-26T08:10:34Z</time>
      </trkpt>
      <trkpt lat="48.68123" lon="-3.62474">
        <ele>54.6</ele>
        <time>2025-09-26T08:10:37Z</time>
      </trkpt>
      <trkpt lat="48.68125" lon="-3.62458">
        <ele>55.4</ele>
        <time>2025-09-26T08:10:39Z</time>
      </trkpt>
      <trkpt lat="48.68126" lon="-3.62452">
        <ele>55.8</ele>
        <time>2025-09-26T08:10:40Z</time>
      </trkpt>
      <trkpt lat="48.68131" lon="-3.62406">
        <ele>57</ele>
        <time>2025-09-26T08:10:46Z</time>
      </trkpt>
      <trkpt lat="48.68133" lon="-3.62381">
        <ele>57.2</ele>
        <time>2025-09-26T08:10:49Z</time>
      </trkpt>
      <trkpt lat="48.68133" lon="-3.62374">
        <ele>57.6</ele>
        <time>2025-09-26T08:10:50Z</time>
      </trkpt>
      <trkpt lat="48.68134" lon="-3.6236">
        <ele>57.6</ele>
        <time>2025-09-26T08:10:52Z</time>
      </trkpt>
      <trkpt lat="48.68133" lon="-3.62344">
        <ele>58</ele>
        <time>2025-09-26T08:10:54Z</time>
      </trkpt>
      <trkpt lat="48.68132" lon="-3.62329">
        <ele>58.2</ele>
        <time>2025-09-26T08:10:56Z</time>
      </trkpt>
      <trkpt lat="48.68117" lon="-3.6224">
        <ele>59</ele>
        <time>2025-09-26T08:11:06Z</time>
      </trkpt>
      <trkpt lat="48.68105" lon="-3.62173">
        <ele>59</ele>
        <time>2025-09-26T08:11:15Z</time>
      </trkpt>
      <trkpt lat="48.68103" lon="-3.62131">
        <ele>60</ele>
        <time>2025-09-26T08:11:20Z</time>
      </trkpt>
      <trkpt lat="48.68104" lon="-3.62114">
        <ele>60.6</ele>
        <time>2025-09-26T08:11:22Z</time>
      </trkpt>
      <trkpt lat="48.68106" lon="-3.62098">
        <ele>61.2</ele>
        <time>2025-09-26T08:11:24Z</time>
      </trkpt>
      <trkpt lat="48.68106" lon="-3.62047">
        <ele>62</ele>
        <time>2025-09-26T08:11:30Z</time>
      </trkpt>
      <trkpt lat="48.68105" lon="-3.62039">
        <ele>62.2</ele>
        <time>2025-09-26T08:11:31Z</time>
      </trkpt>
      <trkpt lat="48.68101" lon="-3.61994">
        <ele>63</ele>
        <time>2025-09-26T08:11:37Z</time>
      </trkpt>
      <trkpt lat="48.681" lon="-3.61988">
        <ele>63</ele>
        <time>2025-09-26T08:11:38Z</time>
      </trkpt>
      <trkpt lat="48.68098" lon="-3.61981">
        <ele>63.4</ele>
        <time>2025-09-26T08:11:39Z</time>
      </trkpt>
      <trkpt lat="48.68095" lon="-3.61967">
        <ele>63.8</ele>
        <time>2025-09-26T08:11:41Z</time>
      </trkpt>
      <trkpt lat="48.6809" lon="-3.61954">
        <ele>64.2</ele>
        <time>2025-09-26T08:11:43Z</time>
      </trkpt>
      <trkpt lat="48.68087" lon="-3.61948">
        <ele>64.4</ele>
        <time>2025-09-26T08:11:44Z</time>
      </trkpt>
      <trkpt lat="48.68084" lon="-3.61942">
        <ele>64.8</ele>
        <time>2025-09-26T08:11:45Z</time>
      </trkpt>
      <trkpt lat="48.68072" lon="-3.6193">
        <ele>65.2</ele>
        <time>2025-09-26T08:11:48Z</time>
      </trkpt>
      <trkpt lat="48.68064" lon="-3.61926">
        <ele>65.6</ele>
        <time>2025-09-26T08:11:50Z</time>
      </trkpt>
      <trkpt lat="48.68056" lon="-3.61924">
        <ele>65.6</ele>
        <time>2025-09-26T08:11:52Z</time>
      </trkpt>
      <trkpt lat="48.68051" lon="-3.61924">
        <ele>65.6</ele>
        <time>2025-09-26T08:11:53Z</time>
      </trkpt>
      <trkpt lat="48.68047" lon="-3.61924">
        <ele>65.6</ele>
        <time>2025-09-26T08:11:54Z</time>
      </trkpt>
      <trkpt lat="48.6803" lon="-3.6193">
        <ele>65.4</ele>
        <time>2025-09-26T08:11:58Z</time>
      </trkpt>
      <trkpt lat="48.68025" lon="-3.61932">
        <ele>65</ele>
        <time>2025-09-26T08:11:59Z</time>
      </trkpt>
      <trkpt lat="48.68004" lon="-3.61946">
        <ele>64.2</ele>
        <time>2025-09-26T08:12:03Z</time>
      </trkpt>
      <trkpt lat="48.67998" lon="-3.6195">
        <ele>64</ele>
        <time>2025-09-26T08:12:04Z</time>
      </trkpt>
      <trkpt lat="48.6798" lon="-3.61962">
        <ele>63</ele>
        <time>2025-09-26T08:12:07Z</time>
      </trkpt>
      <trkpt lat="48.67966" lon="-3.61972">
        <ele>62.4</ele>
        <time>2025-09-26T08:12:09Z</time>
      </trkpt>
      <trkpt lat="48.67959" lon="-3.61976">
        <ele>61.8</ele>
        <time>2025-09-26T08:12:10Z</time>
      </trkpt>
      <trkpt lat="48.67937" lon="-3.61986">
        <ele>60.6</ele>
        <time>2025-09-26T08:12:13Z</time>
      </trkpt>
      <trkpt lat="48.67929" lon="-3.61987">
        <ele>60.2</ele>
        <time>2025-09-26T08:12:14Z</time>
      </trkpt>
      <trkpt lat="48.67913" lon="-3.61991">
        <ele>59.4</ele>
        <time>2025-09-26T08:12:16Z</time>
      </trkpt>
      <trkpt lat="48.67889" lon="-3.61996">
        <ele>58.2</ele>
        <time>2025-09-26T08:12:19Z</time>
      </trkpt>
      <trkpt lat="48.67882" lon="-3.61997">
        <ele>57.8</ele>
        <time>2025-09-26T08:12:20Z</time>
      </trkpt>
      <trkpt lat="48.67876" lon="-3.61997">
        <ele>57.6</ele>
        <time>2025-09-26T08:12:21Z</time>
      </trkpt>
      <trkpt lat="48.6787" lon="-3.61998">
        <ele>57.4</ele>
        <time>2025-09-26T08:12:22Z</time>
      </trkpt>
      <trkpt lat="48.67847" lon="-3.62005">
        <ele>57.2</ele>
        <time>2025-09-26T08:12:26Z</time>
      </trkpt>
      <trkpt lat="48.67819" lon="-3.62021">
        <ele>57.6</ele>
        <time>2025-09-26T08:12:31Z</time>
      </trkpt>
      <trkpt lat="48.67804" lon="-3.62034">
        <ele>57</ele>
        <time>2025-09-26T08:12:34Z</time>
      </trkpt>
      <trkpt lat="48.67782" lon="-3.62048">
        <ele>56</ele>
        <time>2025-09-26T08:12:38Z</time>
      </trkpt>
      <trkpt lat="48.67767" lon="-3.62049">
        <ele>55.4</ele>
        <time>2025-09-26T08:12:40Z</time>
      </trkpt>
      <trkpt lat="48.6775" lon="-3.62044">
        <ele>54.8</ele>
        <time>2025-09-26T08:12:42Z</time>
      </trkpt>
      <trkpt lat="48.67736" lon="-3.62037">
        <ele>53.8</ele>
        <time>2025-09-26T08:12:44Z</time>
      </trkpt>
      <trkpt lat="48.67717" lon="-3.62029">
        <ele>52.6</ele>
        <time>2025-09-26T08:12:46Z</time>
      </trkpt>
      <trkpt lat="48.67709" lon="-3.62023">
        <ele>52.2</ele>
        <time>2025-09-26T08:12:47Z</time>
      </trkpt>
      <trkpt lat="48.67701" lon="-3.62017">
        <ele>51.8</ele>
        <time>2025-09-26T08:12:48Z</time>
      </trkpt>
      <trkpt lat="48.67694" lon="-3.62009">
        <ele>51</ele>
        <time>2025-09-26T08:12:49Z</time>
      </trkpt>
      <trkpt lat="48.67687" lon="-3.62">
        <ele>50.4</ele>
        <time>2025-09-26T08:12:50Z</time>
      </trkpt>
      <trkpt lat="48.67664" lon="-3.6196">
        <ele>49.8</ele>
        <time>2025-09-26T08:12:54Z</time>
      </trkpt>
      <trkpt lat="48.67657" lon="-3.61952">
        <ele>49.2</ele>
        <time>2025-09-26T08:12:55Z</time>
      </trkpt>
      <trkpt lat="48.67635" lon="-3.61932">
        <ele>48.8</ele>
        <time>2025-09-26T08:12:58Z</time>
      </trkpt>
      <trkpt lat="48.67613" lon="-3.61914">
        <ele>48.4</ele>
        <time>2025-09-26T08:13:01Z</time>
      </trkpt>
      <trkpt lat="48.67586" lon="-3.61891">
        <ele>47.8</ele>
        <time>2025-09-26T08:13:05Z</time>
      </trkpt>
      <trkpt lat="48.67574" lon="-3.6188">
        <ele>47.6</ele>
        <time>2025-09-26T08:13:07Z</time>
      </trkpt>
      <trkpt lat="48.67533" lon="-3.61847">
        <ele>47.4</ele>
        <time>2025-09-26T08:13:14Z</time>
      </trkpt>
      <trkpt lat="48.67496" lon="-3.61816">
        <ele>47.8</ele>
        <time>2025-09-26T08:13:21Z</time>
      </trkpt>
      <trkpt lat="48.6745" lon="-3.61786">
        <ele>47.8</ele>
        <time>2025-09-26T08:13:29Z</time>
      </trkpt>
      <trkpt lat="48.67411" lon="-3.61755">
        <ele>46.6</ele>
        <time>2025-09-26T08:13:36Z</time>
      </trkpt>
      <trkpt lat="48.67376" lon="-3.61731">
        <ele>46</ele>
        <time>2025-09-26T08:13:42Z</time>
      </trkpt>
      <trkpt lat="48.67328" lon="-3.61715">
        <ele>46</ele>
        <time>2025-09-26T08:13:50Z</time>
      </trkpt>
      <trkpt lat="48.67285" lon="-3.61708">
        <ele>45.8</ele>
        <time>2025-09-26T08:13:57Z</time>
      </trkpt>
      <trkpt lat="48.67243" lon="-3.61715">
        <ele>46.2</ele>
        <time>2025-09-26T08:14:04Z</time>
      </trkpt>
      <trkpt lat="48.67214" lon="-3.61721">
        <ele>47</ele>
        <time>2025-09-26T08:14:09Z</time>
      </trkpt>
      <trkpt lat="48.67192" lon="-3.61727">
        <ele>47.4</ele>
        <time>2025-09-26T08:14:13Z</time>
      </trkpt>
      <trkpt lat="48.6718" lon="-3.6173">
        <ele>48</ele>
        <time>2025-09-26T08:14:15Z</time>
      </trkpt>
      <trkpt lat="48.67144" lon="-3.61737">
        <ele>48.6</ele>
        <time>2025-09-26T08:14:21Z</time>
      </trkpt>
      <trkpt lat="48.67097" lon="-3.61736">
        <ele>47</ele>
        <time>2025-09-26T08:14:28Z</time>
      </trkpt>
      <trkpt lat="48.6709" lon="-3.61735">
        <ele>46.8</ele>
        <time>2025-09-26T08:14:29Z</time>
      </trkpt>
      <trkpt lat="48.67061" lon="-3.61728">
        <ele>45.8</ele>
        <time>2025-09-26T08:14:33Z</time>
      </trkpt>
      <trkpt lat="48.67042" lon="-3.61723">
        <ele>45</ele>
        <time>2025-09-26T08:14:36Z</time>
      </trkpt>
      <trkpt lat="48.67035" lon="-3.61721">
        <ele>44.8</ele>
        <time>2025-09-26T08:14:37Z</time>
      </trkpt>
      <trkpt lat="48.66976" lon="-3.61708">
        <ele>44</ele>
        <time>2025-09-26T08:14:46Z</time>
      </trkpt>
      <trkpt lat="48.6697" lon="-3.61706">
        <ele>44</ele>
        <time>2025-09-26T08:14:47Z</time>
      </trkpt>
      <trkpt lat="48.66946" lon="-3.61702">
        <ele>43.8</ele>
        <time>2025-09-26T08:14:51Z</time>
      </trkpt>
      <trkpt lat="48.6694" lon="-3.617">
        <ele>43.8</ele>
        <time>2025-09-26T08:14:52Z</time>
      </trkpt>
      <trkpt lat="48.66934" lon="-3.61699">
        <ele>43.6</ele>
        <time>2025-09-26T08:14:53Z</time>
      </trkpt>
      <trkpt lat="48.66906" lon="-3.61693">
        <ele>43.4</ele>
        <time>2025-09-26T08:14:58Z</time>
      </trkpt>
      <trkpt lat="48.66897" lon="-3.61691">
        <ele>43.4</ele>
        <time>2025-09-26T08:15:00Z</time>
      </trkpt>
      <trkpt lat="48.6688" lon="-3.61692">
        <ele>43</ele>
        <time>2025-09-26T08:15:05Z</time>
      </trkpt>
      <trkpt lat="48.66878" lon="-3.61693">
        <ele>43</ele>
        <time>2025-09-26T08:15:08Z</time>
      </trkpt>
      <trkpt lat="48.66876" lon="-3.61695">
        <ele>43</ele>
        <time>2025-09-26T08:15:11Z</time>
      </trkpt>
      <trkpt lat="48.66873" lon="-3.61704">
        <ele>43.2</ele>
        <time>2025-09-26T08:15:13Z</time>
      </trkpt>
      <trkpt lat="48.66864" lon="-3.61736">
        <ele>43.4</ele>
        <time>2025-09-26T08:15:18Z</time>
      </trkpt>
      <trkpt lat="48.66857" lon="-3.61761">
        <ele>43.4</ele>
        <time>2025-09-26T08:15:22Z</time>
      </trkpt>
      <trkpt lat="48.6685" lon="-3.61787">
        <ele>43</ele>
        <time>2025-09-26T08:15:26Z</time>
      </trkpt>
      <trkpt lat="48.66843" lon="-3.6181">
        <ele>42.6</ele>
        <time>2025-09-26T08:15:31Z</time>
      </trkpt>
      <trkpt lat="48.66842" lon="-3.61811">
        <ele>42.2</ele>
        <time>2025-09-26T08:15:35Z</time>
      </trkpt>
      <trkpt lat="48.66843" lon="-3.61806">
        <ele>42.4</ele>
        <time>2025-09-26T08:15:42Z</time>
      </trkpt>
      <trkpt lat="48.66849" lon="-3.61795">
        <ele>42.8</ele>
        <time>2025-09-26T08:15:46Z</time>
      </trkpt>
      <trkpt lat="48.66855" lon="-3.61772">
        <ele>42.8</ele>
        <time>2025-09-26T08:15:50Z</time>
      </trkpt>
      <trkpt lat="48.66862" lon="-3.61743">
        <ele>43</ele>
        <time>2025-09-26T08:15:56Z</time>
      </trkpt>
      <trkpt lat="48.66861" lon="-3.61736">
        <ele>43</ele>
        <time>2025-09-26T08:15:58Z</time>
      </trkpt>
      <trkpt lat="48.66862" lon="-3.61731">
        <ele>43</ele>
        <time>2025-09-26T08:15:59Z</time>
      </trkpt>
      <trkpt lat="48.66863" lon="-3.61725">
        <ele>43</ele>
        <time>2025-09-26T08:16:00Z</time>
      </trkpt>
      <trkpt lat="48.66867" lon="-3.61708">
        <ele>43.2</ele>
        <time>2025-09-26T08:16:03Z</time>
      </trkpt>
      <trkpt lat="48.66872" lon="-3.61692">
        <ele>42.8</ele>
        <time>2025-09-26T08:16:06Z</time>
      </trkpt>
      <trkpt lat="48.66879" lon="-3.61658">
        <ele>42.2</ele>
        <time>2025-09-26T08:16:13Z</time>
      </trkpt>
      <trkpt lat="48.6689" lon="-3.61621">
        <ele>41.8</ele>
        <time>2025-09-26T08:16:19Z</time>
      </trkpt>
      <trkpt lat="48.66892" lon="-3.61615">
        <ele>41.6</ele>
        <time>2025-09-26T08:16:20Z</time>
      </trkpt>
      <trkpt lat="48.669" lon="-3.61586">
        <ele>41.2</ele>
        <time>2025-09-26T08:16:25Z</time>
      </trkpt>
      <trkpt lat="48.66905" lon="-3.61569">
        <ele>41</ele>
        <time>2025-09-26T08:16:28Z</time>
      </trkpt>
      <trkpt lat="48.66909" lon="-3.61554">
        <ele>40.6</ele>
        <time>2025-09-26T08:16:31Z</time>
      </trkpt>
      <trkpt lat="48.66912" lon="-3.61523">
        <ele>39.8</ele>
        <time>2025-09-26T08:16:36Z</time>
      </trkpt>
      <trkpt lat="48.66918" lon="-3.61482">
        <ele>39.4</ele>
        <time>2025-09-26T08:16:42Z</time>
      </trkpt>
      <trkpt lat="48.66919" lon="-3.61467">
        <ele>39.2</ele>
        <time>2025-09-26T08:16:44Z</time>
      </trkpt>
      <trkpt lat="48.66919" lon="-3.61428">
        <ele>38.6</ele>
        <time>2025-09-26T08:16:49Z</time>
      </trkpt>
      <trkpt lat="48.66919" lon="-3.61406">
        <ele>38.4</ele>
        <time>2025-09-26T08:16:52Z</time>
      </trkpt>
      <trkpt lat="48.66918" lon="-3.61389">
        <ele>38.2</ele>
        <time>2025-09-26T08:16:54Z</time>
      </trkpt>
      <trkpt lat="48.66918" lon="-3.61384">
        <ele>38</ele>
        <time>2025-09-26T08:16:55Z</time>
      </trkpt>
      <trkpt lat="48.66917" lon="-3.61376">
        <ele>38</ele>
        <time>2025-09-26T08:16:56Z</time>
      </trkpt>
      <trkpt lat="48.66912" lon="-3.61346">
        <ele>37.4</ele>
        <time>2025-09-26T08:17:00Z</time>
      </trkpt>
      <trkpt lat="48.66911" lon="-3.61338">
        <ele>37.4</ele>
        <time>2025-09-26T08:17:01Z</time>
      </trkpt>
      <trkpt lat="48.66909" lon="-3.61331">
        <ele>37.2</ele>
        <time>2025-09-26T08:17:02Z</time>
      </trkpt>
      <trkpt lat="48.66902" lon="-3.61289">
        <ele>36.4</ele>
        <time>2025-09-26T08:17:07Z</time>
      </trkpt>
      <trkpt lat="48.66898" lon="-3.61271">
        <ele>35.8</ele>
        <time>2025-09-26T08:17:09Z</time>
      </trkpt>
      <trkpt lat="48.66893" lon="-3.61244">
        <ele>35.4</ele>
        <time>2025-09-26T08:17:12Z</time>
      </trkpt>
      <trkpt lat="48.6689" lon="-3.61216">
        <ele>34.6</ele>
        <time>2025-09-26T08:17:15Z</time>
      </trkpt>
      <trkpt lat="48.66886" lon="-3.61187">
        <ele>34.2</ele>
        <time>2025-09-26T08:17:18Z</time>
      </trkpt>
      <trkpt lat="48.66886" lon="-3.61178">
        <ele>34</ele>
        <time>2025-09-26T08:17:19Z</time>
      </trkpt>
      <trkpt lat="48.66887" lon="-3.61158">
        <ele>33.6</ele>
        <time>2025-09-26T08:17:21Z</time>
      </trkpt>
      <trkpt lat="48.6689" lon="-3.61119">
        <ele>32.8</ele>
        <time>2025-09-26T08:17:25Z</time>
      </trkpt>
      <trkpt lat="48.66892" lon="-3.61091">
        <ele>32.6</ele>
        <time>2025-09-26T08:17:28Z</time>
      </trkpt>
      <trkpt lat="48.66897" lon="-3.61049">
        <ele>31.4</ele>
        <time>2025-09-26T08:17:32Z</time>
      </trkpt>
      <trkpt lat="48.66899" lon="-3.6102">
        <ele>30.8</ele>
        <time>2025-09-26T08:17:35Z</time>
      </trkpt>
      <trkpt lat="48.66902" lon="-3.6099">
        <ele>30.4</ele>
        <time>2025-09-26T08:17:38Z</time>
      </trkpt>
      <trkpt lat="48.66902" lon="-3.6097">
        <ele>29.8</ele>
        <time>2025-09-26T08:17:40Z</time>
      </trkpt>
      <trkpt lat="48.66902" lon="-3.60957">
        <ele>29.4</ele>
        <time>2025-09-26T08:17:41Z</time>
      </trkpt>
      <trkpt lat="48.66902" lon="-3.60947">
        <ele>29.2</ele>
        <time>2025-09-26T08:17:42Z</time>
      </trkpt>
      <trkpt lat="48.66899" lon="-3.60911">
        <ele>28.6</ele>
        <time>2025-09-26T08:17:46Z</time>
      </trkpt>
      <trkpt lat="48.66891" lon="-3.60883">
        <ele>28</ele>
        <time>2025-09-26T08:17:49Z</time>
      </trkpt>
      <trkpt lat="48.66889" lon="-3.60872">
        <ele>27.6</ele>
        <time>2025-09-26T08:17:50Z</time>
      </trkpt>
      <trkpt lat="48.66886" lon="-3.60846">
        <ele>27.4</ele>
        <time>2025-09-26T08:17:53Z</time>
      </trkpt>
      <trkpt lat="48.66885" lon="-3.60837">
        <ele>26.8</ele>
        <time>2025-09-26T08:17:54Z</time>
      </trkpt>
      <trkpt lat="48.66883" lon="-3.60817">
        <ele>26.4</ele>
        <time>2025-09-26T08:17:56Z</time>
      </trkpt>
      <trkpt lat="48.66882" lon="-3.60801">
        <ele>25.6</ele>
        <time>2025-09-26T08:17:58Z</time>
      </trkpt>
      <trkpt lat="48.6688" lon="-3.60772">
        <ele>25.2</ele>
        <time>2025-09-26T08:18:02Z</time>
      </trkpt>
      <trkpt lat="48.66878" lon="-3.60728">
        <ele>24.4</ele>
        <time>2025-09-26T08:18:08Z</time>
      </trkpt>
      <trkpt lat="48.66881" lon="-3.60698">
        <ele>23.8</ele>
        <time>2025-09-26T08:18:12Z</time>
      </trkpt>
      <trkpt lat="48.66881" lon="-3.60689">
        <ele>23.6</ele>
        <time>2025-09-26T08:18:13Z</time>
      </trkpt>
      <trkpt lat="48.66881" lon="-3.60672">
        <ele>23.4</ele>
        <time>2025-09-26T08:18:15Z</time>
      </trkpt>
      <trkpt lat="48.6688" lon="-3.60663">
        <ele>23.4</ele>
        <time>2025-09-26T08:18:16Z</time>
      </trkpt>
      <trkpt lat="48.6688" lon="-3.60637">
        <ele>22.6</ele>
        <time>2025-09-26T08:18:19Z</time>
      </trkpt>
      <trkpt lat="48.6688" lon="-3.60617">
        <ele>22.4</ele>
        <time>2025-09-26T08:18:21Z</time>
      </trkpt>
      <trkpt lat="48.66875" lon="-3.60581">
        <ele>21.6</ele>
        <time>2025-09-26T08:18:25Z</time>
      </trkpt>
      <trkpt lat="48.66871" lon="-3.60563">
        <ele>21.4</ele>
        <time>2025-09-26T08:18:27Z</time>
      </trkpt>
      <trkpt lat="48.66869" lon="-3.60555">
        <ele>21</ele>
        <time>2025-09-26T08:18:28Z</time>
      </trkpt>
      <trkpt lat="48.66865" lon="-3.60542">
        <ele>20.8</ele>
        <time>2025-09-26T08:18:30Z</time>
      </trkpt>
      <trkpt lat="48.66863" lon="-3.60536">
        <ele>20.6</ele>
        <time>2025-09-26T08:18:31Z</time>
      </trkpt>
      <trkpt lat="48.66859" lon="-3.60523">
        <ele>20</ele>
        <time>2025-09-26T08:18:34Z</time>
      </trkpt>
      <trkpt lat="48.66858" lon="-3.6052">
        <ele>20</ele>
        <time>2025-09-26T08:18:35Z</time>
      </trkpt>
      <trkpt lat="48.66852" lon="-3.60508">
        <ele>19.6</ele>
        <time>2025-09-26T08:18:38Z</time>
      </trkpt>
      <trkpt lat="48.66849" lon="-3.60501">
        <ele>19.4</ele>
        <time>2025-09-26T08:18:42Z</time>
      </trkpt>
      <trkpt lat="48.66849" lon="-3.60501">
        <ele>19.2</ele>
        <time>2025-09-26T08:18:48Z</time>
      </trkpt>
      <trkpt lat="48.66849" lon="-3.60501">
        <ele>19.2</ele>
        <time>2025-09-26T08:19:03Z</time>
      </trkpt>
      <trkpt lat="48.66849" lon="-3.60501">
        <ele>19.2</ele>
        <time>2025-09-26T08:19:12Z</time>
      </trkpt>
      <trkpt lat="48.66849" lon="-3.60501">
        <ele>19.2</ele>
        <time>2025-09-26T08:19:23Z</time>
      </trkpt>
      <trkpt lat="48.66849" lon="-3.60501">
        <ele>19.2</ele>
        <time>2025-09-26T08:19:36Z</time>
      </trkpt>
      <trkpt lat="48.66849" lon="-3.60501">
        <ele>19</ele>
        <time>2025-09-26T08:19:45Z</time>
      </trkpt>
      <trkpt lat="48.66849" lon="-3.60501">
        <ele>19</ele>
        <time>2025-09-26T08:19:54Z</time>
      </trkpt>
      <trkpt lat="48.66849" lon="-3.60501">
        <ele>19</ele>
        <time>2025-09-26T08:19:55Z</time>
      </trkpt>
      <trkpt lat="48.66847" lon="-3.60493">
        <ele>19.2</ele>
        <time>2025-09-26T08:20:02Z</time>
      </trkpt>
      <trkpt lat="48.66842" lon="-3.6048">
        <ele>18.8</ele>
        <time>2025-09-26T08:20:07Z</time>
      </trkpt>
      <trkpt lat="48.6684" lon="-3.60474">
        <ele>18.8</ele>
        <time>2025-09-26T08:20:09Z</time>
      </trkpt>
      <trkpt lat="48.66835" lon="-3.60457">
        <ele>18.6</ele>
        <time>2025-09-26T08:20:15Z</time>
      </trkpt>
      <trkpt lat="48.66833" lon="-3.60451">
        <ele>18.4</ele>
        <time>2025-09-26T08:20:17Z</time>
      </trkpt>
      <trkpt lat="48.66829" lon="-3.60443">
        <ele>18.2</ele>
        <time>2025-09-26T08:20:20Z</time>
      </trkpt>
      <trkpt lat="48.66826" lon="-3.60431">
        <ele>18</ele>
        <time>2025-09-26T08:20:24Z</time>
      </trkpt>
      <trkpt lat="48.66825" lon="-3.60428">
        <ele>18</ele>
        <time>2025-09-26T08:20:25Z</time>
      </trkpt>
      <trkpt lat="48.66824" lon="-3.60425">
        <ele>17.8</ele>
        <time>2025-09-26T08:20:26Z</time>
      </trkpt>
      <trkpt lat="48.6682" lon="-3.60419">
        <ele>17.4</ele>
        <time>2025-09-26T08:20:30Z</time>
      </trkpt>
      <trkpt lat="48.6682" lon="-3.60418">
        <ele>17.2</ele>
        <time>2025-09-26T08:20:37Z</time>
      </trkpt>
      <trkpt lat="48.6682" lon="-3.60418">
        <ele>17.2</ele>
        <time>2025-09-26T08:20:39Z</time>
      </trkpt>
      <trkpt lat="48.6682" lon="-3.60419">
        <ele>17.2</ele>
        <time>2025-09-26T08:20:41Z</time>
      </trkpt>
      <trkpt lat="48.66819" lon="-3.60419">
        <ele>17.4</ele>
        <time>2025-09-26T08:20:46Z</time>
      </trkpt>
      <trkpt lat="48.6682" lon="-3.60418">
        <ele>17.4</ele>
        <time>2025-09-26T08:20:52Z</time>
      </trkpt>
      <trkpt lat="48.6682" lon="-3.60417">
        <ele>17.4</ele>
        <time>2025-09-26T08:20:53Z</time>
      </trkpt>
      <trkpt lat="48.6682" lon="-3.60414">
        <ele>17.4</ele>
        <time>2025-09-26T08:20:54Z</time>
      </trkpt>
      <trkpt lat="48.66818" lon="-3.60394">
        <ele>17</ele>
        <time>2025-09-26T08:20:59Z</time>
      </trkpt>
      <trkpt lat="48.66818" lon="-3.60378">
        <ele>16.6</ele>
        <time>2025-09-26T08:21:03Z</time>
      </trkpt>
      <trkpt lat="48.66818" lon="-3.60371">
        <ele>16.6</ele>
        <time>2025-09-26T08:21:05Z</time>
      </trkpt>
      <trkpt lat="48.66821" lon="-3.60355">
        <ele>16.4</ele>
        <time>2025-09-26T08:21:11Z</time>
      </trkpt>
      <trkpt lat="48.66821" lon="-3.60354">
        <ele>16.4</ele>
        <time>2025-09-26T08:21:17Z</time>
      </trkpt>
      <trkpt lat="48.66821" lon="-3.60354">
        <ele>16.4</ele>
        <time>2025-09-26T08:21:27Z</time>
      </trkpt>
      <trkpt lat="48.6682" lon="-3.60354">
        <ele>16.4</ele>
        <time>2025-09-26T08:21:30Z</time>
      </trkpt>
      <trkpt lat="48.6682" lon="-3.60354">
        <ele>16.4</ele>
        <time>2025-09-26T08:21:34Z</time>
      </trkpt>
      <trkpt lat="48.6682" lon="-3.60354">
        <ele>16.4</ele>
        <time>2025-09-26T08:21:45Z</time>
      </trkpt>
      <trkpt lat="48.6682" lon="-3.60354">
        <ele>16.4</ele>
        <time>2025-09-26T08:21:54Z</time>
      </trkpt>
      <trkpt lat="48.6682" lon="-3.60354">
        <ele>16.4</ele>
        <time>2025-09-26T08:22:04Z</time>
      </trkpt>
      <trkpt lat="48.6682" lon="-3.60354">
        <ele>16.4</ele>
        <time>2025-09-26T08:22:13Z</time>
      </trkpt>
      <trkpt lat="48.6682" lon="-3.60354">
        <ele>16.6</ele>
        <time>2025-09-26T08:22:20Z</time>
      </trkpt>
      <trkpt lat="48.6682" lon="-3.60354">
        <ele>16.6</ele>
        <time>2025-09-26T08:22:21Z</time>
      </trkpt>
      <trkpt lat="48.6682" lon="-3.60354">
        <ele>16.6</ele>
        <time>2025-09-26T08:22:22Z</time>
      </trkpt>
      <trkpt lat="48.6682" lon="-3.60354">
        <ele>16.6</ele>
        <time>2025-09-26T08:22:23Z</time>
      </trkpt>
      <trkpt lat="48.6682" lon="-3.60354">
        <ele>16.4</ele>
        <time>2025-09-26T08:22:35Z</time>
      </trkpt>
      <trkpt lat="48.6682" lon="-3.60353">
        <ele>16.4</ele>
        <time>2025-09-26T08:22:37Z</time>
      </trkpt>
      <trkpt lat="48.6682" lon="-3.60352">
        <ele>16.4</ele>
        <time>2025-09-26T08:22:38Z</time>
      </trkpt>
      <trkpt lat="48.66819" lon="-3.6035">
        <ele>16.4</ele>
        <time>2025-09-26T08:22:39Z</time>
      </trkpt>
      <trkpt lat="48.66819" lon="-3.60345">
        <ele>16.4</ele>
        <time>2025-09-26T08:22:41Z</time>
      </trkpt>
      <trkpt lat="48.6682" lon="-3.60316">
        <ele>16.2</ele>
        <time>2025-09-26T08:22:47Z</time>
      </trkpt>
      <trkpt lat="48.6682" lon="-3.603">
        <ele>15.6</ele>
        <time>2025-09-26T08:22:50Z</time>
      </trkpt>
      <trkpt lat="48.6682" lon="-3.60289">
        <ele>15.4</ele>
        <time>2025-09-26T08:22:52Z</time>
      </trkpt>
      <trkpt lat="48.66826" lon="-3.60248">
        <ele>14.8</ele>
        <time>2025-09-26T08:22:58Z</time>
      </trkpt>
      <trkpt lat="48.66826" lon="-3.60239">
        <ele>14.6</ele>
        <time>2025-09-26T08:22:59Z</time>
      </trkpt>
      <trkpt lat="48.66828" lon="-3.60216">
        <ele>14.2</ele>
        <time>2025-09-26T08:23:02Z</time>
      </trkpt>
      <trkpt lat="48.6683" lon="-3.60197">
        <ele>14</ele>
        <time>2025-09-26T08:23:05Z</time>
      </trkpt>
      <trkpt lat="48.66831" lon="-3.60161">
        <ele>13.6</ele>
        <time>2025-09-26T08:23:11Z</time>
      </trkpt>
      <trkpt lat="48.66831" lon="-3.60154">
        <ele>13.6</ele>
        <time>2025-09-26T08:23:12Z</time>
      </trkpt>
      <trkpt lat="48.66837" lon="-3.60094">
        <ele>12.6</ele>
        <time>2025-09-26T08:23:20Z</time>
      </trkpt>
      <trkpt lat="48.66837" lon="-3.60087">
        <ele>12.4</ele>
        <time>2025-09-26T08:23:21Z</time>
      </trkpt>
      <trkpt lat="48.66843" lon="-3.60015">
        <ele>11.4</ele>
        <time>2025-09-26T08:23:30Z</time>
      </trkpt>
      <trkpt lat="48.66844" lon="-3.60006">
        <ele>11.2</ele>
        <time>2025-09-26T08:23:31Z</time>
      </trkpt>
      <trkpt lat="48.66846" lon="-3.59947">
        <ele>11.2</ele>
        <time>2025-09-26T08:23:39Z</time>
      </trkpt>
      <trkpt lat="48.66846" lon="-3.5994">
        <ele>11.2</ele>
        <time>2025-09-26T08:23:40Z</time>
      </trkpt>
      <trkpt lat="48.66849" lon="-3.59891">
        <ele>11.2</ele>
        <time>2025-09-26T08:23:47Z</time>
      </trkpt>
      <trkpt lat="48.66851" lon="-3.59861">
        <ele>11.2</ele>
        <time>2025-09-26T08:23:51Z</time>
      </trkpt>
      <trkpt lat="48.66855" lon="-3.59833">
        <ele>11.4</ele>
        <time>2025-09-26T08:23:55Z</time>
      </trkpt>
      <trkpt lat="48.66856" lon="-3.59827">
        <ele>11.6</ele>
        <time>2025-09-26T08:23:56Z</time>
      </trkpt>
      <trkpt lat="48.66862" lon="-3.59804">
        <ele>11.8</ele>
        <time>2025-09-26T08:24:00Z</time>
      </trkpt>
      <trkpt lat="48.66862" lon="-3.59791">
        <ele>11.8</ele>
        <time>2025-09-26T08:24:02Z</time>
      </trkpt>
      <trkpt lat="48.6686" lon="-3.59747">
        <ele>11.8</ele>
        <time>2025-09-26T08:24:08Z</time>
      </trkpt>
      <trkpt lat="48.66858" lon="-3.59723">
        <ele>12</ele>
        <time>2025-09-26T08:24:11Z</time>
      </trkpt>
      <trkpt lat="48.66853" lon="-3.5966">
        <ele>11.6</ele>
        <time>2025-09-26T08:24:19Z</time>
      </trkpt>
      <trkpt lat="48.6685" lon="-3.59604">
        <ele>11.6</ele>
        <time>2025-09-26T08:24:26Z</time>
      </trkpt>
      <trkpt lat="48.66857" lon="-3.59554">
        <ele>11</ele>
        <time>2025-09-26T08:24:32Z</time>
      </trkpt>
      <trkpt lat="48.66876" lon="-3.59489">
        <ele>10.6</ele>
        <time>2025-09-26T08:24:40Z</time>
      </trkpt>
      <trkpt lat="48.66894" lon="-3.59432">
        <ele>10.4</ele>
        <time>2025-09-26T08:24:47Z</time>
      </trkpt>
      <trkpt lat="48.669" lon="-3.59417">
        <ele>10.4</ele>
        <time>2025-09-26T08:24:49Z</time>
      </trkpt>
      <trkpt lat="48.66917" lon="-3.5938">
        <ele>10.2</ele>
        <time>2025-09-26T08:24:54Z</time>
      </trkpt>
      <trkpt lat="48.66924" lon="-3.59366">
        <ele>10.2</ele>
        <time>2025-09-26T08:24:56Z</time>
      </trkpt>
      <trkpt lat="48.66956" lon="-3.59302">
        <ele>9.6</ele>
        <time>2025-09-26T08:25:05Z</time>
      </trkpt>
      <trkpt lat="48.66994" lon="-3.59234">
        <ele>9.6</ele>
        <time>2025-09-26T08:25:15Z</time>
      </trkpt>
      <trkpt lat="48.66997" lon="-3.59227">
        <ele>9.6</ele>
        <time>2025-09-26T08:25:16Z</time>
      </trkpt>
      <trkpt lat="48.67034" lon="-3.59161">
        <ele>9.6</ele>
        <time>2025-09-26T08:25:26Z</time>
      </trkpt>
      <trkpt lat="48.67042" lon="-3.59148">
        <ele>9.6</ele>
        <time>2025-09-26T08:25:28Z</time>
      </trkpt>
      <trkpt lat="48.67074" lon="-3.59087">
        <ele>9.8</ele>
        <time>2025-09-26T08:25:37Z</time>
      </trkpt>
      <trkpt lat="48.67111" lon="-3.59019">
        <ele>10</ele>
        <time>2025-09-26T08:25:47Z</time>
      </trkpt>
      <trkpt lat="48.67114" lon="-3.59013">
        <ele>10</ele>
        <time>2025-09-26T08:25:48Z</time>
      </trkpt>
      <trkpt lat="48.67139" lon="-3.58952">
        <ele>10.4</ele>
        <time>2025-09-26T08:25:56Z</time>
      </trkpt>
      <trkpt lat="48.6715" lon="-3.58894">
        <ele>10.6</ele>
        <time>2025-09-26T08:26:03Z</time>
      </trkpt>
      <trkpt lat="48.67151" lon="-3.58867">
        <ele>10.8</ele>
        <time>2025-09-26T08:26:06Z</time>
      </trkpt>
      <trkpt lat="48.6715" lon="-3.58847">
        <ele>10.8</ele>
        <time>2025-09-26T08:26:08Z</time>
      </trkpt>
      <trkpt lat="48.67139" lon="-3.58803">
        <ele>10.8</ele>
        <time>2025-09-26T08:26:13Z</time>
      </trkpt>
      <trkpt lat="48.67113" lon="-3.58749">
        <ele>10.8</ele>
        <time>2025-09-26T08:26:20Z</time>
      </trkpt>
      <trkpt lat="48.67082" lon="-3.5868">
        <ele>10.4</ele>
        <time>2025-09-26T08:26:29Z</time>
      </trkpt>
      <trkpt lat="48.67066" lon="-3.58618">
        <ele>10</ele>
        <time>2025-09-26T08:26:36Z</time>
      </trkpt>
      <trkpt lat="48.67054" lon="-3.58533">
        <ele>10</ele>
        <time>2025-09-26T08:26:46Z</time>
      </trkpt>
      <trkpt lat="48.67053" lon="-3.58525">
        <ele>10</ele>
        <time>2025-09-26T08:26:47Z</time>
      </trkpt>
      <trkpt lat="48.67041" lon="-3.58449">
        <ele>10</ele>
        <time>2025-09-26T08:26:55Z</time>
      </trkpt>
      <trkpt lat="48.67029" lon="-3.58366">
        <ele>9.6</ele>
        <time>2025-09-26T08:27:04Z</time>
      </trkpt>
      <trkpt lat="48.67025" lon="-3.58332">
        <ele>9.6</ele>
        <time>2025-09-26T08:27:08Z</time>
      </trkpt>
      <trkpt lat="48.6702" lon="-3.58269">
        <ele>9.4</ele>
        <time>2025-09-26T08:27:15Z</time>
      </trkpt>
      <trkpt lat="48.67023" lon="-3.5818">
        <ele>9.4</ele>
        <time>2025-09-26T08:27:25Z</time>
      </trkpt>
      <trkpt lat="48.67038" lon="-3.58101">
        <ele>9.6</ele>
        <time>2025-09-26T08:27:34Z</time>
      </trkpt>
      <trkpt lat="48.67063" lon="-3.58025">
        <ele>9.6</ele>
        <time>2025-09-26T08:27:43Z</time>
      </trkpt>
      <trkpt lat="48.67096" lon="-3.57955">
        <ele>9.8</ele>
        <time>2025-09-26T08:27:52Z</time>
      </trkpt>
      <trkpt lat="48.67129" lon="-3.57904">
        <ele>9.8</ele>
        <time>2025-09-26T08:28:00Z</time>
      </trkpt>
      <trkpt lat="48.67171" lon="-3.57845">
        <ele>9.4</ele>
        <time>2025-09-26T08:28:10Z</time>
      </trkpt>
      <trkpt lat="48.67175" lon="-3.57839">
        <ele>9.4</ele>
        <time>2025-09-26T08:28:11Z</time>
      </trkpt>
      <trkpt lat="48.67206" lon="-3.5779">
        <ele>9.6</ele>
        <time>2025-09-26T08:28:19Z</time>
      </trkpt>
      <trkpt lat="48.67248" lon="-3.57726">
        <ele>9.2</ele>
        <time>2025-09-26T08:28:29Z</time>
      </trkpt>
      <trkpt lat="48.67252" lon="-3.57719">
        <ele>9.2</ele>
        <time>2025-09-26T08:28:30Z</time>
      </trkpt>
      <trkpt lat="48.67289" lon="-3.57656">
        <ele>9.2</ele>
        <time>2025-09-26T08:28:39Z</time>
      </trkpt>
      <trkpt lat="48.67293" lon="-3.57649">
        <ele>9</ele>
        <time>2025-09-26T08:28:40Z</time>
      </trkpt>
      <trkpt lat="48.67306" lon="-3.57628">
        <ele>9</ele>
        <time>2025-09-26T08:28:43Z</time>
      </trkpt>
      <trkpt lat="48.67327" lon="-3.57592">
        <ele>9</ele>
        <time>2025-09-26T08:28:48Z</time>
      </trkpt>
      <trkpt lat="48.67336" lon="-3.57579">
        <ele>9.2</ele>
        <time>2025-09-26T08:28:50Z</time>
      </trkpt>
      <trkpt lat="48.67374" lon="-3.57515">
        <ele>9.2</ele>
        <time>2025-09-26T08:28:59Z</time>
      </trkpt>
      <trkpt lat="48.67382" lon="-3.575">
        <ele>9.2</ele>
        <time>2025-09-26T08:29:01Z</time>
      </trkpt>
      <trkpt lat="48.67417" lon="-3.57444">
        <ele>9</ele>
        <time>2025-09-26T08:29:09Z</time>
      </trkpt>
      <trkpt lat="48.67448" lon="-3.5739">
        <ele>8.8</ele>
        <time>2025-09-26T08:29:17Z</time>
      </trkpt>
      <trkpt lat="48.67469" lon="-3.57336">
        <ele>9</ele>
        <time>2025-09-26T08:29:24Z</time>
      </trkpt>
      <trkpt lat="48.67491" lon="-3.57299">
        <ele>9</ele>
        <time>2025-09-26T08:29:30Z</time>
      </trkpt>
      <trkpt lat="48.6752" lon="-3.57259">
        <ele>8.6</ele>
        <time>2025-09-26T08:29:38Z</time>
      </trkpt>
      <trkpt lat="48.67524" lon="-3.57252">
        <ele>8.6</ele>
        <time>2025-09-26T08:29:40Z</time>
      </trkpt>
      <trkpt lat="48.67523" lon="-3.57248">
        <ele>8.6</ele>
        <time>2025-09-26T08:29:41Z</time>
      </trkpt>
      <trkpt lat="48.67522" lon="-3.57244">
        <ele>8.8</ele>
        <time>2025-09-26T08:29:42Z</time>
      </trkpt>
      <trkpt lat="48.67514" lon="-3.5723">
        <ele>9.2</ele>
        <time>2025-09-26T08:29:45Z</time>
      </trkpt>
      <trkpt lat="48.67511" lon="-3.57217">
        <ele>9.6</ele>
        <time>2025-09-26T08:29:47Z</time>
      </trkpt>
      <trkpt lat="48.67512" lon="-3.5721">
        <ele>9.8</ele>
        <time>2025-09-26T08:29:48Z</time>
      </trkpt>
      <trkpt lat="48.67513" lon="-3.57203">
        <ele>10</ele>
        <time>2025-09-26T08:29:49Z</time>
      </trkpt>
      <trkpt lat="48.67521" lon="-3.57183">
        <ele>10.4</ele>
        <time>2025-09-26T08:29:52Z</time>
      </trkpt>
      <trkpt lat="48.67524" lon="-3.57178">
        <ele>10.6</ele>
        <time>2025-09-26T08:29:53Z</time>
      </trkpt>
      <trkpt lat="48.67542" lon="-3.57153">
        <ele>11.2</ele>
        <time>2025-09-26T08:29:58Z</time>
      </trkpt>
      <trkpt lat="48.67546" lon="-3.57148">
        <ele>11.4</ele>
        <time>2025-09-26T08:29:59Z</time>
      </trkpt>
      <trkpt lat="48.67568" lon="-3.5713">
        <ele>12</ele>
        <time>2025-09-26T08:30:04Z</time>
      </trkpt>
      <trkpt lat="48.67577" lon="-3.57126">
        <ele>12.4</ele>
        <time>2025-09-26T08:30:06Z</time>
      </trkpt>
      <trkpt lat="48.67593" lon="-3.57123">
        <ele>13</ele>
        <time>2025-09-26T08:30:09Z</time>
      </trkpt>
      <trkpt lat="48.67612" lon="-3.57121">
        <ele>13.6</ele>
        <time>2025-09-26T08:30:13Z</time>
      </trkpt>
      <trkpt lat="48.67641" lon="-3.57114">
        <ele>14.4</ele>
        <time>2025-09-26T08:30:19Z</time>
      </trkpt>
      <trkpt lat="48.6765" lon="-3.57111">
        <ele>14.6</ele>
        <time>2025-09-26T08:30:21Z</time>
      </trkpt>
      <trkpt lat="48.67676" lon="-3.57097">
        <ele>15.4</ele>
        <time>2025-09-26T08:30:27Z</time>
      </trkpt>
      <trkpt lat="48.67684" lon="-3.57091">
        <ele>15.6</ele>
        <time>2025-09-26T08:30:29Z</time>
      </trkpt>
      <trkpt lat="48.67706" lon="-3.57072">
        <ele>16.4</ele>
        <time>2025-09-26T08:30:35Z</time>
      </trkpt>
      <trkpt lat="48.67716" lon="-3.57061">
        <ele>16.8</ele>
        <time>2025-09-26T08:30:38Z</time>
      </trkpt>
      <trkpt lat="48.67732" lon="-3.57044">
        <ele>17.8</ele>
        <time>2025-09-26T08:30:43Z</time>
      </trkpt>
      <trkpt lat="48.67735" lon="-3.5704">
        <ele>18</ele>
        <time>2025-09-26T08:30:44Z</time>
      </trkpt>
      <trkpt lat="48.67764" lon="-3.57008">
        <ele>19</ele>
        <time>2025-09-26T08:30:53Z</time>
      </trkpt>
      <trkpt lat="48.67791" lon="-3.5698">
        <ele>20</ele>
        <time>2025-09-26T08:31:01Z</time>
      </trkpt>
      <trkpt lat="48.67794" lon="-3.56978">
        <ele>20</ele>
        <time>2025-09-26T08:31:02Z</time>
      </trkpt>
      <trkpt lat="48.67798" lon="-3.56975">
        <ele>20.2</ele>
        <time>2025-09-26T08:31:03Z</time>
      </trkpt>
      <trkpt lat="48.67807" lon="-3.56964">
        <ele>20.6</ele>
        <time>2025-09-26T08:31:06Z</time>
      </trkpt>
      <trkpt lat="48.67811" lon="-3.56961">
        <ele>20.8</ele>
        <time>2025-09-26T08:31:07Z</time>
      </trkpt>
      <trkpt lat="48.67821" lon="-3.56953">
        <ele>21.2</ele>
        <time>2025-09-26T08:31:10Z</time>
      </trkpt>
      <trkpt lat="48.67847" lon="-3.56935">
        <ele>22</ele>
        <time>2025-09-26T08:31:17Z</time>
      </trkpt>
      <trkpt lat="48.67855" lon="-3.56931">
        <ele>22.4</ele>
        <time>2025-09-26T08:31:19Z</time>
      </trkpt>
      <trkpt lat="48.6788" lon="-3.56919">
        <ele>23</ele>
        <time>2025-09-26T08:31:25Z</time>
      </trkpt>
      <trkpt lat="48.67897" lon="-3.56911">
        <ele>23.6</ele>
        <time>2025-09-26T08:31:29Z</time>
      </trkpt>
      <trkpt lat="48.67923" lon="-3.56898">
        <ele>24.6</ele>
        <time>2025-09-26T08:31:35Z</time>
      </trkpt>
      <trkpt lat="48.67927" lon="-3.56895">
        <ele>24.8</ele>
        <time>2025-09-26T08:31:36Z</time>
      </trkpt>
      <trkpt lat="48.67955" lon="-3.56881">
        <ele>25.4</ele>
        <time>2025-09-26T08:31:43Z</time>
      </trkpt>
      <trkpt lat="48.67959" lon="-3.56879">
        <ele>25.8</ele>
        <time>2025-09-26T08:31:44Z</time>
      </trkpt>
      <trkpt lat="48.67985" lon="-3.56858">
        <ele>26.8</ele>
        <time>2025-09-26T08:31:50Z</time>
      </trkpt>
      <trkpt lat="48.67989" lon="-3.56855">
        <ele>27</ele>
        <time>2025-09-26T08:31:51Z</time>
      </trkpt>
      <trkpt lat="48.68001" lon="-3.56843">
        <ele>27.4</ele>
        <time>2025-09-26T08:31:54Z</time>
      </trkpt>
      <trkpt lat="48.68014" lon="-3.56831">
        <ele>27.8</ele>
        <time>2025-09-26T08:31:57Z</time>
      </trkpt>
      <trkpt lat="48.68018" lon="-3.56828">
        <ele>27.8</ele>
        <time>2025-09-26T08:31:58Z</time>
      </trkpt>
      <trkpt lat="48.68032" lon="-3.56818">
        <ele>28.2</ele>
        <time>2025-09-26T08:32:01Z</time>
      </trkpt>
      <trkpt lat="48.68048" lon="-3.56815">
        <ele>28.4</ele>
        <time>2025-09-26T08:32:05Z</time>
      </trkpt>
      <trkpt lat="48.68056" lon="-3.56814">
        <ele>28.2</ele>
        <time>2025-09-26T08:32:10Z</time>
      </trkpt>
      <trkpt lat="48.68056" lon="-3.56814">
        <ele>27.8</ele>
        <time>2025-09-26T08:32:15Z</time>
      </trkpt>
      <trkpt lat="48.68056" lon="-3.56815">
        <ele>27.8</ele>
        <time>2025-09-26T08:32:18Z</time>
      </trkpt>
      <trkpt lat="48.68056" lon="-3.56815">
        <ele>27.8</ele>
        <time>2025-09-26T08:32:19Z</time>
      </trkpt>
      <trkpt lat="48.68056" lon="-3.56815">
        <ele>27.6</ele>
        <time>2025-09-26T08:32:22Z</time>
      </trkpt>
      <trkpt lat="48.68057" lon="-3.56816">
        <ele>27.6</ele>
        <time>2025-09-26T08:32:32Z</time>
      </trkpt>
      <trkpt lat="48.68057" lon="-3.56815">
        <ele>27.6</ele>
        <time>2025-09-26T08:32:36Z</time>
      </trkpt>
      <trkpt lat="48.68057" lon="-3.56815">
        <ele>28.4</ele>
        <time>2025-09-26T08:32:43Z</time>
      </trkpt>
      <trkpt lat="48.68057" lon="-3.56815">
        <ele>28.4</ele>
        <time>2025-09-26T08:32:44Z</time>
      </trkpt>
      <trkpt lat="48.68057" lon="-3.56815">
        <ele>28.2</ele>
        <time>2025-09-26T08:32:45Z</time>
      </trkpt>
      <trkpt lat="48.68057" lon="-3.56815">
        <ele>28</ele>
        <time>2025-09-26T08:32:46Z</time>
      </trkpt>
      <trkpt lat="48.68057" lon="-3.56815">
        <ele>27.8</ele>
        <time>2025-09-26T08:32:47Z</time>
      </trkpt>
      <trkpt lat="48.68058" lon="-3.56815">
        <ele>27.8</ele>
        <time>2025-09-26T08:32:48Z</time>
      </trkpt>
      <trkpt lat="48.6806" lon="-3.56815">
        <ele>27.8</ele>
        <time>2025-09-26T08:32:50Z</time>
      </trkpt>
      <trkpt lat="48.6806" lon="-3.56815">
        <ele>28</ele>
        <time>2025-09-26T08:32:53Z</time>
      </trkpt>
      <trkpt lat="48.68057" lon="-3.56815">
        <ele>27.6</ele>
        <time>2025-09-26T08:33:02Z</time>
      </trkpt>
      <trkpt lat="48.68056" lon="-3.56816">
        <ele>27.8</ele>
        <time>2025-09-26T08:33:09Z</time>
      </trkpt>
      <trkpt lat="48.68056" lon="-3.56815">
        <ele>27.6</ele>
        <time>2025-09-26T08:33:16Z</time>
      </trkpt>
      <trkpt lat="48.68055" lon="-3.56816">
        <ele>27.6</ele>
        <time>2025-09-26T08:33:25Z</time>
      </trkpt>
      <trkpt lat="48.68055" lon="-3.56816">
        <ele>27.6</ele>
        <time>2025-09-26T08:33:32Z</time>
      </trkpt>
      <trkpt lat="48.68055" lon="-3.56816">
        <ele>27.6</ele>
        <time>2025-09-26T08:33:42Z</time>
      </trkpt>
      <trkpt lat="48.68054" lon="-3.56817">
        <ele>27.6</ele>
        <time>2025-09-26T08:33:47Z</time>
      </trkpt>
      <trkpt lat="48.68054" lon="-3.56817">
        <ele>27.6</ele>
        <time>2025-09-26T08:33:53Z</time>
      </trkpt>
      <trkpt lat="48.68054" lon="-3.56817">
        <ele>27.6</ele>
        <time>2025-09-26T08:33:58Z</time>
      </trkpt>
      <trkpt lat="48.68054" lon="-3.56817">
        <ele>27.6</ele>
        <time>2025-09-26T08:34:08Z</time>
      </trkpt>
      <trkpt lat="48.68054" lon="-3.56817">
        <ele>27.6</ele>
        <time>2025-09-26T08:34:20Z</time>
      </trkpt>
      <trkpt lat="48.68054" lon="-3.56817">
        <ele>27.6</ele>
        <time>2025-09-26T08:34:27Z</time>
      </trkpt>
      <trkpt lat="48.68054" lon="-3.56816">
        <ele>27.6</ele>
        <time>2025-09-26T08:34:31Z</time>
      </trkpt>
      <trkpt lat="48.68054" lon="-3.56816">
        <ele>27.6</ele>
        <time>2025-09-26T08:34:34Z</time>
      </trkpt>
      <trkpt lat="48.68054" lon="-3.56816">
        <ele>27.6</ele>
        <time>2025-09-26T08:34:35Z</time>
      </trkpt>
      <trkpt lat="48.68054" lon="-3.56816">
        <ele>27.6</ele>
        <time>2025-09-26T08:34:41Z</time>
      </trkpt>
      <trkpt lat="48.68054" lon="-3.56816">
        <ele>27.6</ele>
        <time>2025-09-26T08:34:46Z</time>
      </trkpt>
      <trkpt lat="48.68054" lon="-3.56816">
        <ele>27.6</ele>
        <time>2025-09-26T08:34:48Z</time>
      </trkpt>
      <trkpt lat="48.68057" lon="-3.56813">
        <ele>27.6</ele>
        <time>2025-09-26T08:35:04Z</time>
      </trkpt>
      <trkpt lat="48.68058" lon="-3.56811">
        <ele>27.6</ele>
        <time>2025-09-26T08:35:05Z</time>
      </trkpt>
      <trkpt lat="48.68071" lon="-3.56804">
        <ele>27.6</ele>
        <time>2025-09-26T08:35:10Z</time>
      </trkpt>
      <trkpt lat="48.68098" lon="-3.56798">
        <ele>27.8</ele>
        <time>2025-09-26T08:35:17Z</time>
      </trkpt>
      <trkpt lat="48.68129" lon="-3.56782">
        <ele>27.6</ele>
        <time>2025-09-26T08:35:24Z</time>
      </trkpt>
      <trkpt lat="48.68145" lon="-3.5677">
        <ele>27.8</ele>
        <time>2025-09-26T08:35:28Z</time>
      </trkpt>
      <trkpt lat="48.68161" lon="-3.56757">
        <ele>28</ele>
        <time>2025-09-26T08:35:32Z</time>
      </trkpt>
      <trkpt lat="48.68165" lon="-3.56754">
        <ele>28.4</ele>
        <time>2025-09-26T08:35:33Z</time>
      </trkpt>
      <trkpt lat="48.6819" lon="-3.56732">
        <ele>28.8</ele>
        <time>2025-09-26T08:35:39Z</time>
      </trkpt>
      <trkpt lat="48.68199" lon="-3.56724">
        <ele>28.8</ele>
        <time>2025-09-26T08:35:41Z</time>
      </trkpt>
      <trkpt lat="48.68244" lon="-3.56689">
        <ele>29.4</ele>
        <time>2025-09-26T08:35:52Z</time>
      </trkpt>
      <trkpt lat="48.68282" lon="-3.56674">
        <ele>29.6</ele>
        <time>2025-09-26T08:36:00Z</time>
      </trkpt>
      <trkpt lat="48.68296" lon="-3.56672">
        <ele>29.6</ele>
        <time>2025-09-26T08:36:03Z</time>
      </trkpt>
      <trkpt lat="48.68319" lon="-3.56668">
        <ele>29.8</ele>
        <time>2025-09-26T08:36:08Z</time>
      </trkpt>
      <trkpt lat="48.68324" lon="-3.56668">
        <ele>29.8</ele>
        <time>2025-09-26T08:36:09Z</time>
      </trkpt>
      <trkpt lat="48.68338" lon="-3.56665">
        <ele>30</ele>
        <time>2025-09-26T08:36:12Z</time>
      </trkpt>
      <trkpt lat="48.68352" lon="-3.56663">
        <ele>30.2</ele>
        <time>2025-09-26T08:36:15Z</time>
      </trkpt>
      <trkpt lat="48.68361" lon="-3.56658">
        <ele>30.4</ele>
        <time>2025-09-26T08:36:17Z</time>
      </trkpt>
      <trkpt lat="48.68383" lon="-3.56643">
        <ele>31</ele>
        <time>2025-09-26T08:36:22Z</time>
      </trkpt>
      <trkpt lat="48.68387" lon="-3.56639">
        <ele>31</ele>
        <time>2025-09-26T08:36:23Z</time>
      </trkpt>
      <trkpt lat="48.68408" lon="-3.56608">
        <ele>31</ele>
        <time>2025-09-26T08:36:29Z</time>
      </trkpt>
      <trkpt lat="48.68419" lon="-3.56573">
        <ele>30.6</ele>
        <time>2025-09-26T08:36:34Z</time>
      </trkpt>
      <trkpt lat="48.6842" lon="-3.56567">
        <ele>30.4</ele>
        <time>2025-09-26T08:36:35Z</time>
      </trkpt>
      <trkpt lat="48.68424" lon="-3.56533">
        <ele>29.8</ele>
        <time>2025-09-26T08:36:39Z</time>
      </trkpt>
      <trkpt lat="48.68429" lon="-3.56496">
        <ele>29.4</ele>
        <time>2025-09-26T08:36:43Z</time>
      </trkpt>
      <trkpt lat="48.68433" lon="-3.56462">
        <ele>29.2</ele>
        <time>2025-09-26T08:36:47Z</time>
      </trkpt>
      <trkpt lat="48.68436" lon="-3.56428">
        <ele>29</ele>
        <time>2025-09-26T08:36:51Z</time>
      </trkpt>
      <trkpt lat="48.68439" lon="-3.56405">
        <ele>29.2</ele>
        <time>2025-09-26T08:36:54Z</time>
      </trkpt>
      <trkpt lat="48.68443" lon="-3.56368">
        <ele>30</ele>
        <time>2025-09-26T08:36:59Z</time>
      </trkpt>
      <trkpt lat="48.68444" lon="-3.56339">
        <ele>30.4</ele>
        <time>2025-09-26T08:37:04Z</time>
      </trkpt>
      <trkpt lat="48.68442" lon="-3.56322">
        <ele>30.8</ele>
        <time>2025-09-26T08:37:07Z</time>
      </trkpt>
      <trkpt lat="48.68437" lon="-3.56302">
        <ele>31.2</ele>
        <time>2025-09-26T08:37:11Z</time>
      </trkpt>
      <trkpt lat="48.68423" lon="-3.56254">
        <ele>31.6</ele>
        <time>2025-09-26T08:37:19Z</time>
      </trkpt>
      <trkpt lat="48.68408" lon="-3.562">
        <ele>31.4</ele>
        <time>2025-09-26T08:37:27Z</time>
      </trkpt>
      <trkpt lat="48.68402" lon="-3.56176">
        <ele>30.6</ele>
        <time>2025-09-26T08:37:31Z</time>
      </trkpt>
      <trkpt lat="48.68401" lon="-3.56167">
        <ele>30.4</ele>
        <time>2025-09-26T08:37:33Z</time>
      </trkpt>
      <trkpt lat="48.68396" lon="-3.56146">
        <ele>30.2</ele>
        <time>2025-09-26T08:37:38Z</time>
      </trkpt>
      <trkpt lat="48.68377" lon="-3.56119">
        <ele>30.6</ele>
        <time>2025-09-26T08:37:44Z</time>
      </trkpt>
      <trkpt lat="48.68352" lon="-3.56084">
        <ele>31</ele>
        <time>2025-09-26T08:37:51Z</time>
      </trkpt>
      <trkpt lat="48.68343" lon="-3.5607">
        <ele>32</ele>
        <time>2025-09-26T08:37:54Z</time>
      </trkpt>
      <trkpt lat="48.68327" lon="-3.56047">
        <ele>32.4</ele>
        <time>2025-09-26T08:38:00Z</time>
      </trkpt>
      <trkpt lat="48.68325" lon="-3.56044">
        <ele>32.6</ele>
        <time>2025-09-26T08:38:04Z</time>
      </trkpt>
      <trkpt lat="48.68325" lon="-3.56044">
        <ele>32.6</ele>
        <time>2025-09-26T08:38:12Z</time>
      </trkpt>
      <trkpt lat="48.68325" lon="-3.56044">
        <ele>32.4</ele>
        <time>2025-09-26T08:38:15Z</time>
      </trkpt>
      <trkpt lat="48.68325" lon="-3.56044">
        <ele>32.2</ele>
        <time>2025-09-26T08:38:23Z</time>
      </trkpt>
      <trkpt lat="48.68328" lon="-3.56045">
        <ele>32.4</ele>
        <time>2025-09-26T08:38:32Z</time>
      </trkpt>
      <trkpt lat="48.68329" lon="-3.56046">
        <ele>32.2</ele>
        <time>2025-09-26T08:38:33Z</time>
      </trkpt>
      <trkpt lat="48.68335" lon="-3.56057">
        <ele>32</ele>
        <time>2025-09-26T08:38:37Z</time>
      </trkpt>
      <trkpt lat="48.68341" lon="-3.56066">
        <ele>32</ele>
        <time>2025-09-26T08:38:40Z</time>
      </trkpt>
      <trkpt lat="48.6836" lon="-3.56092">
        <ele>31</ele>
        <time>2025-09-26T08:38:46Z</time>
      </trkpt>
      <trkpt lat="48.68363" lon="-3.56096">
        <ele>30.6</ele>
        <time>2025-09-26T08:38:47Z</time>
      </trkpt>
      <trkpt lat="48.68384" lon="-3.56126">
        <ele>30</ele>
        <time>2025-09-26T08:38:53Z</time>
      </trkpt>
      <trkpt lat="48.68406" lon="-3.56161">
        <ele>29.8</ele>
        <time>2025-09-26T08:39:00Z</time>
      </trkpt>
      <trkpt lat="48.68409" lon="-3.56165">
        <ele>29.6</ele>
        <time>2025-09-26T08:39:01Z</time>
      </trkpt>
      <trkpt lat="48.68414" lon="-3.56173">
        <ele>29.2</ele>
        <time>2025-09-26T08:39:03Z</time>
      </trkpt>
      <trkpt lat="48.68418" lon="-3.56179">
        <ele>28.8</ele>
        <time>2025-09-26T08:39:05Z</time>
      </trkpt>
      <trkpt lat="48.68421" lon="-3.56179">
        <ele>28.6</ele>
        <time>2025-09-26T08:39:06Z</time>
      </trkpt>
      <trkpt lat="48.68423" lon="-3.56177">
        <ele>28.4</ele>
        <time>2025-09-26T08:39:07Z</time>
      </trkpt>
      <trkpt lat="48.68423" lon="-3.56174">
        <ele>28.4</ele>
        <time>2025-09-26T08:39:08Z</time>
      </trkpt>
      <trkpt lat="48.68415" lon="-3.56161">
        <ele>28</ele>
        <time>2025-09-26T08:39:12Z</time>
      </trkpt>
      <trkpt lat="48.68405" lon="-3.56145">
        <ele>27.4</ele>
        <time>2025-09-26T08:39:16Z</time>
      </trkpt>
      <trkpt lat="48.68395" lon="-3.56124">
        <ele>27.4</ele>
        <time>2025-09-26T08:39:20Z</time>
      </trkpt>
      <trkpt lat="48.6838" lon="-3.56087">
        <ele>26.8</ele>
        <time>2025-09-26T08:39:26Z</time>
      </trkpt>
      <trkpt lat="48.68372" lon="-3.56067">
        <ele>26.4</ele>
        <time>2025-09-26T08:39:29Z</time>
      </trkpt>
      <trkpt lat="48.68358" lon="-3.56035">
        <ele>26.2</ele>
        <time>2025-09-26T08:39:34Z</time>
      </trkpt>
      <trkpt lat="48.68355" lon="-3.56028">
        <ele>26.2</ele>
        <time>2025-09-26T08:39:35Z</time>
      </trkpt>
      <trkpt lat="48.6834" lon="-3.55999">
        <ele>26.6</ele>
        <time>2025-09-26T08:39:40Z</time>
      </trkpt>
      <trkpt lat="48.68336" lon="-3.55993">
        <ele>26.8</ele>
        <time>2025-09-26T08:39:41Z</time>
      </trkpt>
      <trkpt lat="48.68317" lon="-3.55971">
        <ele>27.2</ele>
        <time>2025-09-26T08:39:46Z</time>
      </trkpt>
      <trkpt lat="48.68312" lon="-3.55966">
        <ele>27.8</ele>
        <time>2025-09-26T08:39:47Z</time>
      </trkpt>
      <trkpt lat="48.68308" lon="-3.55962">
        <ele>28.2</ele>
        <time>2025-09-26T08:39:48Z</time>
      </trkpt>
      <trkpt lat="48.68301" lon="-3.55953">
        <ele>28.8</ele>
        <time>2025-09-26T08:39:50Z</time>
      </trkpt>
      <trkpt lat="48.68297" lon="-3.55948">
        <ele>29</ele>
        <time>2025-09-26T08:39:51Z</time>
      </trkpt>
      <trkpt lat="48.68283" lon="-3.55923">
        <ele>29</ele>
        <time>2025-09-26T08:39:55Z</time>
      </trkpt>
      <trkpt lat="48.68275" lon="-3.55903">
        <ele>28.8</ele>
        <time>2025-09-26T08:39:58Z</time>
      </trkpt>
      <trkpt lat="48.6827" lon="-3.55889">
        <ele>28.8</ele>
        <time>2025-09-26T08:40:00Z</time>
      </trkpt>
      <trkpt lat="48.68265" lon="-3.55861">
        <ele>28.8</ele>
        <time>2025-09-26T08:40:04Z</time>
      </trkpt>
      <trkpt lat="48.68264" lon="-3.55849">
        <ele>28.8</ele>
        <time>2025-09-26T08:40:06Z</time>
      </trkpt>
      <trkpt lat="48.68263" lon="-3.55835">
        <ele>29</ele>
        <time>2025-09-26T08:40:08Z</time>
      </trkpt>
      <trkpt lat="48.68264" lon="-3.55813">
        <ele>29.2</ele>
        <time>2025-09-26T08:40:11Z</time>
      </trkpt>
      <trkpt lat="48.68265" lon="-3.55806">
        <ele>29.4</ele>
        <time>2025-09-26T08:40:12Z</time>
      </trkpt>
      <trkpt lat="48.68274" lon="-3.55743">
        <ele>29.8</ele>
        <time>2025-09-26T08:40:21Z</time>
      </trkpt>
      <trkpt lat="48.68276" lon="-3.55736">
        <ele>29.8</ele>
        <time>2025-09-26T08:40:22Z</time>
      </trkpt>
      <trkpt lat="48.68292" lon="-3.55676">
        <ele>29.4</ele>
        <time>2025-09-26T08:40:31Z</time>
      </trkpt>
      <trkpt lat="48.68314" lon="-3.556">
        <ele>29.8</ele>
        <time>2025-09-26T08:40:42Z</time>
      </trkpt>
      <trkpt lat="48.6832" lon="-3.5558">
        <ele>30</ele>
        <time>2025-09-26T08:40:45Z</time>
      </trkpt>
      <trkpt lat="48.68329" lon="-3.55555">
        <ele>30.6</ele>
        <time>2025-09-26T08:40:49Z</time>
      </trkpt>
      <trkpt lat="48.68336" lon="-3.55532">
        <ele>31.2</ele>
        <time>2025-09-26T08:40:53Z</time>
      </trkpt>
      <trkpt lat="48.68338" lon="-3.55518">
        <ele>31.4</ele>
        <time>2025-09-26T08:40:55Z</time>
      </trkpt>
      <trkpt lat="48.68339" lon="-3.55503">
        <ele>31.8</ele>
        <time>2025-09-26T08:40:57Z</time>
      </trkpt>
      <trkpt lat="48.68339" lon="-3.55474">
        <ele>32.2</ele>
        <time>2025-09-26T08:41:01Z</time>
      </trkpt>
      <trkpt lat="48.68336" lon="-3.55458">
        <ele>32.8</ele>
        <time>2025-09-26T08:41:04Z</time>
      </trkpt>
      <trkpt lat="48.68335" lon="-3.55454">
        <ele>32.8</ele>
        <time>2025-09-26T08:41:05Z</time>
      </trkpt>
      <trkpt lat="48.68333" lon="-3.55445">
        <ele>33.2</ele>
        <time>2025-09-26T08:41:07Z</time>
      </trkpt>
      <trkpt lat="48.68332" lon="-3.55439">
        <ele>33.4</ele>
        <time>2025-09-26T08:41:08Z</time>
      </trkpt>
      <trkpt lat="48.68328" lon="-3.55417">
        <ele>33.6</ele>
        <time>2025-09-26T08:41:11Z</time>
      </trkpt>
      <trkpt lat="48.68321" lon="-3.554">
        <ele>34</ele>
        <time>2025-09-26T08:41:14Z</time>
      </trkpt>
      <trkpt lat="48.68315" lon="-3.55383">
        <ele>34.6</ele>
        <time>2025-09-26T08:41:17Z</time>
      </trkpt>
      <trkpt lat="48.68298" lon="-3.55346">
        <ele>35.6</ele>
        <time>2025-09-26T08:41:24Z</time>
      </trkpt>
      <trkpt lat="48.68289" lon="-3.55332">
        <ele>36</ele>
        <time>2025-09-26T08:41:27Z</time>
      </trkpt>
      <trkpt lat="48.68274" lon="-3.55313">
        <ele>36.6</ele>
        <time>2025-09-26T08:41:31Z</time>
      </trkpt>
      <trkpt lat="48.68271" lon="-3.55307">
        <ele>36.8</ele>
        <time>2025-09-26T08:41:32Z</time>
      </trkpt>
      <trkpt lat="48.68264" lon="-3.55297">
        <ele>37.2</ele>
        <time>2025-09-26T08:41:34Z</time>
      </trkpt>
      <trkpt lat="48.68253" lon="-3.55279">
        <ele>37.6</ele>
        <time>2025-09-26T08:41:37Z</time>
      </trkpt>
      <trkpt lat="48.6825" lon="-3.55273">
        <ele>37.8</ele>
        <time>2025-09-26T08:41:38Z</time>
      </trkpt>
      <trkpt lat="48.68248" lon="-3.55267">
        <ele>38</ele>
        <time>2025-09-26T08:41:39Z</time>
      </trkpt>
      <trkpt lat="48.68238" lon="-3.55235">
        <ele>38.8</ele>
        <time>2025-09-26T08:41:44Z</time>
      </trkpt>
      <trkpt lat="48.68236" lon="-3.55219">
        <ele>39.2</ele>
        <time>2025-09-26T08:41:46Z</time>
      </trkpt>
      <trkpt lat="48.68235" lon="-3.55189">
        <ele>40</ele>
        <time>2025-09-26T08:41:50Z</time>
      </trkpt>
      <trkpt lat="48.68236" lon="-3.55183">
        <ele>40.2</ele>
        <time>2025-09-26T08:41:51Z</time>
      </trkpt>
      <trkpt lat="48.68237" lon="-3.55175">
        <ele>40.2</ele>
        <time>2025-09-26T08:41:52Z</time>
      </trkpt>
      <trkpt lat="48.68238" lon="-3.55168">
        <ele>40.2</ele>
        <time>2025-09-26T08:41:53Z</time>
      </trkpt>
      <trkpt lat="48.68243" lon="-3.55146">
        <ele>40.8</ele>
        <time>2025-09-26T08:41:56Z</time>
      </trkpt>
      <trkpt lat="48.68245" lon="-3.55141">
        <ele>40.8</ele>
        <time>2025-09-26T08:41:57Z</time>
      </trkpt>
      <trkpt lat="48.68248" lon="-3.55134">
        <ele>40.8</ele>
        <time>2025-09-26T08:41:58Z</time>
      </trkpt>
      <trkpt lat="48.68253" lon="-3.55121">
        <ele>41</ele>
        <time>2025-09-26T08:42:00Z</time>
      </trkpt>
      <trkpt lat="48.68261" lon="-3.55103">
        <ele>41.4</ele>
        <time>2025-09-26T08:42:03Z</time>
      </trkpt>
      <trkpt lat="48.68264" lon="-3.55097">
        <ele>41.6</ele>
        <time>2025-09-26T08:42:04Z</time>
      </trkpt>
      <trkpt lat="48.68277" lon="-3.55075">
        <ele>42</ele>
        <time>2025-09-26T08:42:08Z</time>
      </trkpt>
      <trkpt lat="48.6828" lon="-3.55071">
        <ele>42</ele>
        <time>2025-09-26T08:42:09Z</time>
      </trkpt>
      <trkpt lat="48.68296" lon="-3.55028">
        <ele>43.2</ele>
        <time>2025-09-26T08:42:16Z</time>
      </trkpt>
      <trkpt lat="48.68298" lon="-3.55021">
        <ele>43.4</ele>
        <time>2025-09-26T08:42:17Z</time>
      </trkpt>
      <trkpt lat="48.68298" lon="-3.55013">
        <ele>43.6</ele>
        <time>2025-09-26T08:42:18Z</time>
      </trkpt>
      <trkpt lat="48.683" lon="-3.54984">
        <ele>44.2</ele>
        <time>2025-09-26T08:42:22Z</time>
      </trkpt>
      <trkpt lat="48.683" lon="-3.54977">
        <ele>44.4</ele>
        <time>2025-09-26T08:42:23Z</time>
      </trkpt>
      <trkpt lat="48.68299" lon="-3.54962">
        <ele>44.8</ele>
        <time>2025-09-26T08:42:25Z</time>
      </trkpt>
      <trkpt lat="48.68297" lon="-3.54949">
        <ele>45</ele>
        <time>2025-09-26T08:42:27Z</time>
      </trkpt>
      <trkpt lat="48.68296" lon="-3.54942">
        <ele>45.2</ele>
        <time>2025-09-26T08:42:28Z</time>
      </trkpt>
      <trkpt lat="48.68295" lon="-3.54935">
        <ele>45.2</ele>
        <time>2025-09-26T08:42:29Z</time>
      </trkpt>
      <trkpt lat="48.68294" lon="-3.54929">
        <ele>45.4</ele>
        <time>2025-09-26T08:42:30Z</time>
      </trkpt>
      <trkpt lat="48.68289" lon="-3.54902">
        <ele>46.2</ele>
        <time>2025-09-26T08:42:34Z</time>
      </trkpt>
      <trkpt lat="48.68288" lon="-3.54895">
        <ele>46.4</ele>
        <time>2025-09-26T08:42:35Z</time>
      </trkpt>
      <trkpt lat="48.6828" lon="-3.54864">
        <ele>47</ele>
        <time>2025-09-26T08:42:40Z</time>
      </trkpt>
      <trkpt lat="48.68275" lon="-3.54844">
        <ele>47.4</ele>
        <time>2025-09-26T08:42:43Z</time>
      </trkpt>
      <trkpt lat="48.68275" lon="-3.54836">
        <ele>47.6</ele>
        <time>2025-09-26T08:42:44Z</time>
      </trkpt>
      <trkpt lat="48.68274" lon="-3.5482">
        <ele>47.6</ele>
        <time>2025-09-26T08:42:46Z</time>
      </trkpt>
      <trkpt lat="48.68272" lon="-3.548">
        <ele>48.2</ele>
        <time>2025-09-26T08:42:49Z</time>
      </trkpt>
      <trkpt lat="48.6827" lon="-3.54786">
        <ele>48.4</ele>
        <time>2025-09-26T08:42:51Z</time>
      </trkpt>
      <trkpt lat="48.68268" lon="-3.54779">
        <ele>48.8</ele>
        <time>2025-09-26T08:42:52Z</time>
      </trkpt>
      <trkpt lat="48.6826" lon="-3.5475">
        <ele>49.4</ele>
        <time>2025-09-26T08:42:56Z</time>
      </trkpt>
      <trkpt lat="48.68258" lon="-3.54744">
        <ele>49.6</ele>
        <time>2025-09-26T08:42:57Z</time>
      </trkpt>
      <trkpt lat="48.68256" lon="-3.54738">
        <ele>49.8</ele>
        <time>2025-09-26T08:42:58Z</time>
      </trkpt>
      <trkpt lat="48.68252" lon="-3.54724">
        <ele>50.2</ele>
        <time>2025-09-26T08:43:00Z</time>
      </trkpt>
      <trkpt lat="48.68246" lon="-3.54705">
        <ele>50.4</ele>
        <time>2025-09-26T08:43:03Z</time>
      </trkpt>
      <trkpt lat="48.68241" lon="-3.54692">
        <ele>50.8</ele>
        <time>2025-09-26T08:43:05Z</time>
      </trkpt>
      <trkpt lat="48.68226" lon="-3.54653">
        <ele>51.6</ele>
        <time>2025-09-26T08:43:11Z</time>
      </trkpt>
      <trkpt lat="48.68223" lon="-3.54645">
        <ele>51.8</ele>
        <time>2025-09-26T08:43:12Z</time>
      </trkpt>
      <trkpt lat="48.68217" lon="-3.54632">
        <ele>52.2</ele>
        <time>2025-09-26T08:43:14Z</time>
      </trkpt>
      <trkpt lat="48.68211" lon="-3.5462">
        <ele>52.4</ele>
        <time>2025-09-26T08:43:16Z</time>
      </trkpt>
      <trkpt lat="48.68201" lon="-3.54602">
        <ele>53</ele>
        <time>2025-09-26T08:43:19Z</time>
      </trkpt>
      <trkpt lat="48.68196" lon="-3.54592">
        <ele>53.2</ele>
        <time>2025-09-26T08:43:21Z</time>
      </trkpt>
      <trkpt lat="48.68187" lon="-3.5458">
        <ele>53.8</ele>
        <time>2025-09-26T08:43:24Z</time>
      </trkpt>
      <trkpt lat="48.68179" lon="-3.54569">
        <ele>54</ele>
        <time>2025-09-26T08:43:26Z</time>
      </trkpt>
      <trkpt lat="48.68166" lon="-3.54555">
        <ele>54.4</ele>
        <time>2025-09-26T08:43:30Z</time>
      </trkpt>
      <trkpt lat="48.68147" lon="-3.54533">
        <ele>55.2</ele>
        <time>2025-09-26T08:43:35Z</time>
      </trkpt>
      <trkpt lat="48.68139" lon="-3.54524">
        <ele>55.4</ele>
        <time>2025-09-26T08:43:37Z</time>
      </trkpt>
      <trkpt lat="48.6813" lon="-3.54514">
        <ele>55.6</ele>
        <time>2025-09-26T08:43:39Z</time>
      </trkpt>
      <trkpt lat="48.68118" lon="-3.545">
        <ele>56</ele>
        <time>2025-09-26T08:43:42Z</time>
      </trkpt>
      <trkpt lat="48.68115" lon="-3.54495">
        <ele>56.4</ele>
        <time>2025-09-26T08:43:43Z</time>
      </trkpt>
      <trkpt lat="48.68111" lon="-3.54491">
        <ele>56.4</ele>
        <time>2025-09-26T08:43:44Z</time>
      </trkpt>
      <trkpt lat="48.6809" lon="-3.54469">
        <ele>57</ele>
        <time>2025-09-26T08:43:50Z</time>
      </trkpt>
      <trkpt lat="48.68083" lon="-3.54462">
        <ele>57.6</ele>
        <time>2025-09-26T08:43:52Z</time>
      </trkpt>
      <trkpt lat="48.68067" lon="-3.54446">
        <ele>58.6</ele>
        <time>2025-09-26T08:43:56Z</time>
      </trkpt>
      <trkpt lat="48.68062" lon="-3.54443">
        <ele>58.6</ele>
        <time>2025-09-26T08:43:57Z</time>
      </trkpt>
      <trkpt lat="48.68045" lon="-3.54425">
        <ele>59.2</ele>
        <time>2025-09-26T08:44:01Z</time>
      </trkpt>
      <trkpt lat="48.68041" lon="-3.5442">
        <ele>59.4</ele>
        <time>2025-09-26T08:44:02Z</time>
      </trkpt>
      <trkpt lat="48.68032" lon="-3.54412">
        <ele>59.6</ele>
        <time>2025-09-26T08:44:04Z</time>
      </trkpt>
      <trkpt lat="48.68017" lon="-3.544">
        <ele>60.2</ele>
        <time>2025-09-26T08:44:07Z</time>
      </trkpt>
      <trkpt lat="48.68012" lon="-3.54397">
        <ele>60.2</ele>
        <time>2025-09-26T08:44:08Z</time>
      </trkpt>
      <trkpt lat="48.67998" lon="-3.54389">
        <ele>60.6</ele>
        <time>2025-09-26T08:44:11Z</time>
      </trkpt>
      <trkpt lat="48.67987" lon="-3.54388">
        <ele>60.8</ele>
        <time>2025-09-26T08:44:13Z</time>
      </trkpt>
      <trkpt lat="48.67966" lon="-3.54387">
        <ele>61.2</ele>
        <time>2025-09-26T08:44:17Z</time>
      </trkpt>
      <trkpt lat="48.67956" lon="-3.54391">
        <ele>61.4</ele>
        <time>2025-09-26T08:44:19Z</time>
      </trkpt>
      <trkpt lat="48.67943" lon="-3.54401">
        <ele>62</ele>
        <time>2025-09-26T08:44:22Z</time>
      </trkpt>
      <trkpt lat="48.6793" lon="-3.5441">
        <ele>63.2</ele>
        <time>2025-09-26T08:44:25Z</time>
      </trkpt>
      <trkpt lat="48.67922" lon="-3.54416">
        <ele>63.4</ele>
        <time>2025-09-26T08:44:27Z</time>
      </trkpt>
      <trkpt lat="48.67908" lon="-3.5443">
        <ele>63.8</ele>
        <time>2025-09-26T08:44:31Z</time>
      </trkpt>
      <trkpt lat="48.67901" lon="-3.54439">
        <ele>63.4</ele>
        <time>2025-09-26T08:44:33Z</time>
      </trkpt>
      <trkpt lat="48.6789" lon="-3.54454">
        <ele>63.6</ele>
        <time>2025-09-26T08:44:36Z</time>
      </trkpt>
      <trkpt lat="48.6788" lon="-3.54469">
        <ele>64.2</ele>
        <time>2025-09-26T08:44:39Z</time>
      </trkpt>
      <trkpt lat="48.67877" lon="-3.54475">
        <ele>64.2</ele>
        <time>2025-09-26T08:44:40Z</time>
      </trkpt>
      <trkpt lat="48.67863" lon="-3.54495">
        <ele>65.6</ele>
        <time>2025-09-26T08:44:44Z</time>
      </trkpt>
      <trkpt lat="48.67854" lon="-3.54503">
        <ele>65.8</ele>
        <time>2025-09-26T08:44:46Z</time>
      </trkpt>
      <trkpt lat="48.67833" lon="-3.54518">
        <ele>66.2</ele>
        <time>2025-09-26T08:44:51Z</time>
      </trkpt>
      <trkpt lat="48.67824" lon="-3.54521">
        <ele>66.4</ele>
        <time>2025-09-26T08:44:53Z</time>
      </trkpt>
      <trkpt lat="48.67819" lon="-3.54522">
        <ele>66.8</ele>
        <time>2025-09-26T08:44:54Z</time>
      </trkpt>
      <trkpt lat="48.6781" lon="-3.54523">
        <ele>67</ele>
        <time>2025-09-26T08:44:56Z</time>
      </trkpt>
      <trkpt lat="48.678" lon="-3.54522">
        <ele>67.2</ele>
        <time>2025-09-26T08:44:58Z</time>
      </trkpt>
      <trkpt lat="48.67795" lon="-3.54521">
        <ele>67.4</ele>
        <time>2025-09-26T08:44:59Z</time>
      </trkpt>
      <trkpt lat="48.67765" lon="-3.54505">
        <ele>68</ele>
        <time>2025-09-26T08:45:05Z</time>
      </trkpt>
      <trkpt lat="48.67757" lon="-3.54498">
        <ele>68.4</ele>
        <time>2025-09-26T08:45:07Z</time>
      </trkpt>
      <trkpt lat="48.67745" lon="-3.54483">
        <ele>69</ele>
        <time>2025-09-26T08:45:10Z</time>
      </trkpt>
      <trkpt lat="48.67741" lon="-3.54477">
        <ele>69.2</ele>
        <time>2025-09-26T08:45:11Z</time>
      </trkpt>
      <trkpt lat="48.67729" lon="-3.54452">
        <ele>69.6</ele>
        <time>2025-09-26T08:45:15Z</time>
      </trkpt>
      <trkpt lat="48.67724" lon="-3.54437">
        <ele>69.8</ele>
        <time>2025-09-26T08:45:17Z</time>
      </trkpt>
      <trkpt lat="48.67721" lon="-3.54423">
        <ele>70</ele>
        <time>2025-09-26T08:45:19Z</time>
      </trkpt>
      <trkpt lat="48.67717" lon="-3.54392">
        <ele>70.6</ele>
        <time>2025-09-26T08:45:23Z</time>
      </trkpt>
      <trkpt lat="48.67717" lon="-3.54369">
        <ele>71.2</ele>
        <time>2025-09-26T08:45:26Z</time>
      </trkpt>
      <trkpt lat="48.67717" lon="-3.5433">
        <ele>72.2</ele>
        <time>2025-09-26T08:45:31Z</time>
      </trkpt>
      <trkpt lat="48.67717" lon="-3.54322">
        <ele>72.2</ele>
        <time>2025-09-26T08:45:32Z</time>
      </trkpt>
      <trkpt lat="48.67716" lon="-3.54279">
        <ele>73</ele>
        <time>2025-09-26T08:45:38Z</time>
      </trkpt>
      <trkpt lat="48.67716" lon="-3.54264">
        <ele>73.4</ele>
        <time>2025-09-26T08:45:40Z</time>
      </trkpt>
      <trkpt lat="48.67716" lon="-3.54241">
        <ele>74</ele>
        <time>2025-09-26T08:45:43Z</time>
      </trkpt>
      <trkpt lat="48.67716" lon="-3.54227">
        <ele>74.4</ele>
        <time>2025-09-26T08:45:45Z</time>
      </trkpt>
      <trkpt lat="48.67716" lon="-3.5422">
        <ele>74.6</ele>
        <time>2025-09-26T08:45:46Z</time>
      </trkpt>
      <trkpt lat="48.67716" lon="-3.54181">
        <ele>75.2</ele>
        <time>2025-09-26T08:45:51Z</time>
      </trkpt>
      <trkpt lat="48.67716" lon="-3.54168">
        <ele>75.6</ele>
        <time>2025-09-26T08:45:53Z</time>
      </trkpt>
      <trkpt lat="48.67716" lon="-3.54152">
        <ele>75.8</ele>
        <time>2025-09-26T08:45:55Z</time>
      </trkpt>
      <trkpt lat="48.67717" lon="-3.54137">
        <ele>76.2</ele>
        <time>2025-09-26T08:45:57Z</time>
      </trkpt>
      <trkpt lat="48.67716" lon="-3.54108">
        <ele>76.8</ele>
        <time>2025-09-26T08:46:01Z</time>
      </trkpt>
      <trkpt lat="48.67717" lon="-3.54075">
        <ele>77</ele>
        <time>2025-09-26T08:46:05Z</time>
      </trkpt>
      <trkpt lat="48.67717" lon="-3.54006">
        <ele>77.4</ele>
        <time>2025-09-26T08:46:14Z</time>
      </trkpt>
      <trkpt lat="48.67717" lon="-3.53996">
        <ele>77.4</ele>
        <time>2025-09-26T08:46:15Z</time>
      </trkpt>
      <trkpt lat="48.67717" lon="-3.5399">
        <ele>77.4</ele>
        <time>2025-09-26T08:46:16Z</time>
      </trkpt>
      <trkpt lat="48.67717" lon="-3.5398">
        <ele>77.6</ele>
        <time>2025-09-26T08:46:17Z</time>
      </trkpt>
      <trkpt lat="48.67717" lon="-3.53974">
        <ele>77.4</ele>
        <time>2025-09-26T08:46:18Z</time>
      </trkpt>
      <trkpt lat="48.67717" lon="-3.53926">
        <ele>77.4</ele>
        <time>2025-09-26T08:46:24Z</time>
      </trkpt>
      <trkpt lat="48.67715" lon="-3.53853">
        <ele>77.6</ele>
        <time>2025-09-26T08:46:33Z</time>
      </trkpt>
      <trkpt lat="48.67715" lon="-3.53823">
        <ele>77.6</ele>
        <time>2025-09-26T08:46:37Z</time>
      </trkpt>
      <trkpt lat="48.67716" lon="-3.53807">
        <ele>77.6</ele>
        <time>2025-09-26T08:46:39Z</time>
      </trkpt>
      <trkpt lat="48.67715" lon="-3.53784">
        <ele>77.6</ele>
        <time>2025-09-26T08:46:42Z</time>
      </trkpt>
      <trkpt lat="48.67714" lon="-3.53776">
        <ele>77.8</ele>
        <time>2025-09-26T08:46:43Z</time>
      </trkpt>
      <trkpt lat="48.67714" lon="-3.53739">
        <ele>78.4</ele>
        <time>2025-09-26T08:46:48Z</time>
      </trkpt>
      <trkpt lat="48.67714" lon="-3.53724">
        <ele>78.8</ele>
        <time>2025-09-26T08:46:50Z</time>
      </trkpt>
      <trkpt lat="48.67715" lon="-3.53693">
        <ele>79.2</ele>
        <time>2025-09-26T08:46:54Z</time>
      </trkpt>
      <trkpt lat="48.67715" lon="-3.53686">
        <ele>79.4</ele>
        <time>2025-09-26T08:46:55Z</time>
      </trkpt>
      <trkpt lat="48.67716" lon="-3.53656">
        <ele>80</ele>
        <time>2025-09-26T08:46:59Z</time>
      </trkpt>
      <trkpt lat="48.67718" lon="-3.53621">
        <ele>80.8</ele>
        <time>2025-09-26T08:47:04Z</time>
      </trkpt>
      <trkpt lat="48.67718" lon="-3.53615">
        <ele>81</ele>
        <time>2025-09-26T08:47:05Z</time>
      </trkpt>
      <trkpt lat="48.67719" lon="-3.53601">
        <ele>81.2</ele>
        <time>2025-09-26T08:47:07Z</time>
      </trkpt>
      <trkpt lat="48.67722" lon="-3.53591">
        <ele>81.6</ele>
        <time>2025-09-26T08:47:09Z</time>
      </trkpt>
      <trkpt lat="48.67725" lon="-3.53566">
        <ele>82</ele>
        <time>2025-09-26T08:47:15Z</time>
      </trkpt>
      <trkpt lat="48.67729" lon="-3.53549">
        <ele>82.8</ele>
        <time>2025-09-26T08:47:18Z</time>
      </trkpt>
      <trkpt lat="48.67732" lon="-3.53544">
        <ele>83</ele>
        <time>2025-09-26T08:47:19Z</time>
      </trkpt>
      <trkpt lat="48.67734" lon="-3.53537">
        <ele>83.2</ele>
        <time>2025-09-26T08:47:20Z</time>
      </trkpt>
      <trkpt lat="48.6774" lon="-3.53523">
        <ele>83.6</ele>
        <time>2025-09-26T08:47:22Z</time>
      </trkpt>
      <trkpt lat="48.67746" lon="-3.53511">
        <ele>84</ele>
        <time>2025-09-26T08:47:24Z</time>
      </trkpt>
      <trkpt lat="48.67756" lon="-3.53491">
        <ele>84.2</ele>
        <time>2025-09-26T08:47:27Z</time>
      </trkpt>
      <trkpt lat="48.6776" lon="-3.53485">
        <ele>84.4</ele>
        <time>2025-09-26T08:47:28Z</time>
      </trkpt>
      <trkpt lat="48.67771" lon="-3.53467">
        <ele>84.8</ele>
        <time>2025-09-26T08:47:31Z</time>
      </trkpt>
      <trkpt lat="48.67784" lon="-3.53453">
        <ele>85.2</ele>
        <time>2025-09-26T08:47:34Z</time>
      </trkpt>
      <trkpt lat="48.67789" lon="-3.53448">
        <ele>85.4</ele>
        <time>2025-09-26T08:47:35Z</time>
      </trkpt>
      <trkpt lat="48.67806" lon="-3.53426">
        <ele>85.8</ele>
        <time>2025-09-26T08:47:39Z</time>
      </trkpt>
      <trkpt lat="48.67827" lon="-3.53406">
        <ele>86.6</ele>
        <time>2025-09-26T08:47:44Z</time>
      </trkpt>
      <trkpt lat="48.6783" lon="-3.53402">
        <ele>86.8</ele>
        <time>2025-09-26T08:47:45Z</time>
      </trkpt>
      <trkpt lat="48.67841" lon="-3.53393">
        <ele>87.2</ele>
        <time>2025-09-26T08:47:48Z</time>
      </trkpt>
      <trkpt lat="48.67846" lon="-3.5339">
        <ele>87.4</ele>
        <time>2025-09-26T08:47:50Z</time>
      </trkpt>
      <trkpt lat="48.67852" lon="-3.53384">
        <ele>87.6</ele>
        <time>2025-09-26T08:47:53Z</time>
      </trkpt>
      <trkpt lat="48.67864" lon="-3.53371">
        <ele>88.4</ele>
        <time>2025-09-26T08:47:58Z</time>
      </trkpt>
      <trkpt lat="48.67878" lon="-3.53358">
        <ele>88.6</ele>
        <time>2025-09-26T08:48:03Z</time>
      </trkpt>
      <trkpt lat="48.67888" lon="-3.5335">
        <ele>89</ele>
        <time>2025-09-26T08:48:06Z</time>
      </trkpt>
      <trkpt lat="48.67901" lon="-3.5334">
        <ele>89.6</ele>
        <time>2025-09-26T08:48:10Z</time>
      </trkpt>
      <trkpt lat="48.67905" lon="-3.53337">
        <ele>89.8</ele>
        <time>2025-09-26T08:48:11Z</time>
      </trkpt>
      <trkpt lat="48.67909" lon="-3.53334">
        <ele>90</ele>
        <time>2025-09-26T08:48:12Z</time>
      </trkpt>
      <trkpt lat="48.67924" lon="-3.53322">
        <ele>90.4</ele>
        <time>2025-09-26T08:48:16Z</time>
      </trkpt>
      <trkpt lat="48.67932" lon="-3.53314">
        <ele>90.6</ele>
        <time>2025-09-26T08:48:18Z</time>
      </trkpt>
      <trkpt lat="48.67935" lon="-3.53311">
        <ele>90.8</ele>
        <time>2025-09-26T08:48:19Z</time>
      </trkpt>
      <trkpt lat="48.67939" lon="-3.53307">
        <ele>90.8</ele>
        <time>2025-09-26T08:48:20Z</time>
      </trkpt>
      <trkpt lat="48.67943" lon="-3.53303">
        <ele>91</ele>
        <time>2025-09-26T08:48:21Z</time>
      </trkpt>
      <trkpt lat="48.67947" lon="-3.533">
        <ele>91.2</ele>
        <time>2025-09-26T08:48:22Z</time>
      </trkpt>
      <trkpt lat="48.67966" lon="-3.53281">
        <ele>91.8</ele>
        <time>2025-09-26T08:48:27Z</time>
      </trkpt>
      <trkpt lat="48.6797" lon="-3.53277">
        <ele>91.8</ele>
        <time>2025-09-26T08:48:28Z</time>
      </trkpt>
      <trkpt lat="48.67995" lon="-3.53253">
        <ele>93</ele>
        <time>2025-09-26T08:48:34Z</time>
      </trkpt>
      <trkpt lat="48.67998" lon="-3.53248">
        <ele>93</ele>
        <time>2025-09-26T08:48:35Z</time>
      </trkpt>
      <trkpt lat="48.68017" lon="-3.53222">
        <ele>94</ele>
        <time>2025-09-26T08:48:40Z</time>
      </trkpt>
      <trkpt lat="48.68024" lon="-3.53211">
        <ele>94.6</ele>
        <time>2025-09-26T08:48:42Z</time>
      </trkpt>
      <trkpt lat="48.6803" lon="-3.53199">
        <ele>95</ele>
        <time>2025-09-26T08:48:44Z</time>
      </trkpt>
      <trkpt lat="48.68045" lon="-3.53163">
        <ele>96</ele>
        <time>2025-09-26T08:48:50Z</time>
      </trkpt>
      <trkpt lat="48.6805" lon="-3.53151">
        <ele>96.4</ele>
        <time>2025-09-26T08:48:52Z</time>
      </trkpt>
      <trkpt lat="48.68058" lon="-3.5312">
        <ele>97</ele>
        <time>2025-09-26T08:48:57Z</time>
      </trkpt>
      <trkpt lat="48.68063" lon="-3.5309">
        <ele>97.4</ele>
        <time>2025-09-26T08:49:02Z</time>
      </trkpt>
      <trkpt lat="48.68064" lon="-3.53084">
        <ele>97.4</ele>
        <time>2025-09-26T08:49:03Z</time>
      </trkpt>
      <trkpt lat="48.68069" lon="-3.53064">
        <ele>98</ele>
        <time>2025-09-26T08:49:07Z</time>
      </trkpt>
      <trkpt lat="48.68071" lon="-3.53055">
        <ele>98.2</ele>
        <time>2025-09-26T08:49:09Z</time>
      </trkpt>
      <trkpt lat="48.68073" lon="-3.5305">
        <ele>98.4</ele>
        <time>2025-09-26T08:49:10Z</time>
      </trkpt>
      <trkpt lat="48.68074" lon="-3.53045">
        <ele>98.4</ele>
        <time>2025-09-26T08:49:11Z</time>
      </trkpt>
      <trkpt lat="48.68079" lon="-3.53017">
        <ele>99.2</ele>
        <time>2025-09-26T08:49:16Z</time>
      </trkpt>
      <trkpt lat="48.68082" lon="-3.53004">
        <ele>99.4</ele>
        <time>2025-09-26T08:49:18Z</time>
      </trkpt>
      <trkpt lat="48.68087" lon="-3.52976">
        <ele>100</ele>
        <time>2025-09-26T08:49:22Z</time>
      </trkpt>
      <trkpt lat="48.68094" lon="-3.52946">
        <ele>100.4</ele>
        <time>2025-09-26T08:49:26Z</time>
      </trkpt>
      <trkpt lat="48.68099" lon="-3.52924">
        <ele>101.2</ele>
        <time>2025-09-26T08:49:29Z</time>
      </trkpt>
      <trkpt lat="48.68103" lon="-3.5291">
        <ele>101.6</ele>
        <time>2025-09-26T08:49:31Z</time>
      </trkpt>
      <trkpt lat="48.68112" lon="-3.52873">
        <ele>101.8</ele>
        <time>2025-09-26T08:49:36Z</time>
      </trkpt>
      <trkpt lat="48.68121" lon="-3.5284">
        <ele>102.6</ele>
        <time>2025-09-26T08:49:41Z</time>
      </trkpt>
      <trkpt lat="48.68124" lon="-3.52822">
        <ele>102.8</ele>
        <time>2025-09-26T08:49:44Z</time>
      </trkpt>
      <trkpt lat="48.68127" lon="-3.5281">
        <ele>102.8</ele>
        <time>2025-09-26T08:49:48Z</time>
      </trkpt>
      <trkpt lat="48.68131" lon="-3.52792">
        <ele>103</ele>
        <time>2025-09-26T08:49:53Z</time>
      </trkpt>
      <trkpt lat="48.68137" lon="-3.52766">
        <ele>103.6</ele>
        <time>2025-09-26T08:49:57Z</time>
      </trkpt>
      <trkpt lat="48.68139" lon="-3.5275">
        <ele>103.8</ele>
        <time>2025-09-26T08:49:59Z</time>
      </trkpt>
      <trkpt lat="48.68147" lon="-3.5272">
        <ele>104.8</ele>
        <time>2025-09-26T08:50:03Z</time>
      </trkpt>
      <trkpt lat="48.68153" lon="-3.52698">
        <ele>105.2</ele>
        <time>2025-09-26T08:50:06Z</time>
      </trkpt>
      <trkpt lat="48.68161" lon="-3.52662">
        <ele>105.8</ele>
        <time>2025-09-26T08:50:11Z</time>
      </trkpt>
      <trkpt lat="48.68167" lon="-3.52633">
        <ele>106.8</ele>
        <time>2025-09-26T08:50:15Z</time>
      </trkpt>
      <trkpt lat="48.68169" lon="-3.52626">
        <ele>107</ele>
        <time>2025-09-26T08:50:16Z</time>
      </trkpt>
      <trkpt lat="48.68179" lon="-3.52585">
        <ele>108</ele>
        <time>2025-09-26T08:50:22Z</time>
      </trkpt>
      <trkpt lat="48.6818" lon="-3.52578">
        <ele>108</ele>
        <time>2025-09-26T08:50:23Z</time>
      </trkpt>
      <trkpt lat="48.6819" lon="-3.52535">
        <ele>108.6</ele>
        <time>2025-09-26T08:50:30Z</time>
      </trkpt>
      <trkpt lat="48.68196" lon="-3.5251">
        <ele>109</ele>
        <time>2025-09-26T08:50:34Z</time>
      </trkpt>
      <trkpt lat="48.68201" lon="-3.5249">
        <ele>109.2</ele>
        <time>2025-09-26T08:50:37Z</time>
      </trkpt>
      <trkpt lat="48.68202" lon="-3.52484">
        <ele>109.2</ele>
        <time>2025-09-26T08:50:38Z</time>
      </trkpt>
      <trkpt lat="48.68203" lon="-3.52478">
        <ele>109.4</ele>
        <time>2025-09-26T08:50:39Z</time>
      </trkpt>
      <trkpt lat="48.68212" lon="-3.52443">
        <ele>109.6</ele>
        <time>2025-09-26T08:50:45Z</time>
      </trkpt>
      <trkpt lat="48.68222" lon="-3.52402">
        <ele>109.4</ele>
        <time>2025-09-26T08:50:52Z</time>
      </trkpt>
      <trkpt lat="48.68223" lon="-3.52396">
        <ele>109.4</ele>
        <time>2025-09-26T08:50:53Z</time>
      </trkpt>
      <trkpt lat="48.68227" lon="-3.52372">
        <ele>109.6</ele>
        <time>2025-09-26T08:50:58Z</time>
      </trkpt>
      <trkpt lat="48.68226" lon="-3.52361">
        <ele>109.6</ele>
        <time>2025-09-26T08:51:01Z</time>
      </trkpt>
      <trkpt lat="48.68225" lon="-3.52357">
        <ele>109.6</ele>
        <time>2025-09-26T08:51:03Z</time>
      </trkpt>
      <trkpt lat="48.68223" lon="-3.52339">
        <ele>109.8</ele>
        <time>2025-09-26T08:51:08Z</time>
      </trkpt>
      <trkpt lat="48.68223" lon="-3.52317">
        <ele>110.2</ele>
        <time>2025-09-26T08:51:12Z</time>
      </trkpt>
      <trkpt lat="48.68223" lon="-3.52295">
        <ele>110.4</ele>
        <time>2025-09-26T08:51:16Z</time>
      </trkpt>
      <trkpt lat="48.68231" lon="-3.5227">
        <ele>110.8</ele>
        <time>2025-09-26T08:51:21Z</time>
      </trkpt>
      <trkpt lat="48.68246" lon="-3.52255">
        <ele>111</ele>
        <time>2025-09-26T08:51:26Z</time>
      </trkpt>
      <trkpt lat="48.6827" lon="-3.52234">
        <ele>111</ele>
        <time>2025-09-26T08:51:33Z</time>
      </trkpt>
      <trkpt lat="48.68274" lon="-3.52231">
        <ele>111.2</ele>
        <time>2025-09-26T08:51:34Z</time>
      </trkpt>
      <trkpt lat="48.68296" lon="-3.52214">
        <ele>111.4</ele>
        <time>2025-09-26T08:51:40Z</time>
      </trkpt>
      <trkpt lat="48.68308" lon="-3.52207">
        <ele>112</ele>
        <time>2025-09-26T08:51:43Z</time>
      </trkpt>
      <trkpt lat="48.68325" lon="-3.52194">
        <ele>112.2</ele>
        <time>2025-09-26T08:51:47Z</time>
      </trkpt>
      <trkpt lat="48.68333" lon="-3.52189">
        <ele>112.2</ele>
        <time>2025-09-26T08:51:49Z</time>
      </trkpt>
      <trkpt lat="48.68377" lon="-3.52157">
        <ele>112</ele>
        <time>2025-09-26T08:51:59Z</time>
      </trkpt>
      <trkpt lat="48.68395" lon="-3.52144">
        <ele>112.2</ele>
        <time>2025-09-26T08:52:03Z</time>
      </trkpt>
      <trkpt lat="48.68409" lon="-3.52134">
        <ele>112.6</ele>
        <time>2025-09-26T08:52:06Z</time>
      </trkpt>
      <trkpt lat="48.68432" lon="-3.52116">
        <ele>112.8</ele>
        <time>2025-09-26T08:52:11Z</time>
      </trkpt>
      <trkpt lat="48.68457" lon="-3.52088">
        <ele>112.6</ele>
        <time>2025-09-26T08:52:17Z</time>
      </trkpt>
      <trkpt lat="48.68461" lon="-3.52083">
        <ele>112.8</ele>
        <time>2025-09-26T08:52:18Z</time>
      </trkpt>
      <trkpt lat="48.68495" lon="-3.52051">
        <ele>113.4</ele>
        <time>2025-09-26T08:52:26Z</time>
      </trkpt>
      <trkpt lat="48.68504" lon="-3.52043">
        <ele>113.4</ele>
        <time>2025-09-26T08:52:28Z</time>
      </trkpt>
      <trkpt lat="48.68542" lon="-3.52014">
        <ele>113.4</ele>
        <time>2025-09-26T08:52:36Z</time>
      </trkpt>
      <trkpt lat="48.68568" lon="-3.52002">
        <ele>113.4</ele>
        <time>2025-09-26T08:52:41Z</time>
      </trkpt>
      <trkpt lat="48.68589" lon="-3.51993">
        <ele>113.4</ele>
        <time>2025-09-26T08:52:45Z</time>
      </trkpt>
      <trkpt lat="48.68619" lon="-3.51978">
        <ele>113</ele>
        <time>2025-09-26T08:52:51Z</time>
      </trkpt>
      <trkpt lat="48.6864" lon="-3.51967">
        <ele>113</ele>
        <time>2025-09-26T08:52:55Z</time>
      </trkpt>
      <trkpt lat="48.68655" lon="-3.51959">
        <ele>112.8</ele>
        <time>2025-09-26T08:52:58Z</time>
      </trkpt>
      <trkpt lat="48.68698" lon="-3.51941">
        <ele>113</ele>
        <time>2025-09-26T08:53:06Z</time>
      </trkpt>
      <trkpt lat="48.68744" lon="-3.51915">
        <ele>112.8</ele>
        <time>2025-09-26T08:53:15Z</time>
      </trkpt>
      <trkpt lat="48.68781" lon="-3.51895">
        <ele>112.4</ele>
        <time>2025-09-26T08:53:22Z</time>
      </trkpt>
      <trkpt lat="48.68792" lon="-3.5189">
        <ele>112.4</ele>
        <time>2025-09-26T08:53:24Z</time>
      </trkpt>
      <trkpt lat="48.68802" lon="-3.51884">
        <ele>112.4</ele>
        <time>2025-09-26T08:53:26Z</time>
      </trkpt>
      <trkpt lat="48.68819" lon="-3.51876">
        <ele>112.6</ele>
        <time>2025-09-26T08:53:29Z</time>
      </trkpt>
      <trkpt lat="48.68857" lon="-3.5186">
        <ele>112.6</ele>
        <time>2025-09-26T08:53:36Z</time>
      </trkpt>
      <trkpt lat="48.68878" lon="-3.51851">
        <ele>113</ele>
        <time>2025-09-26T08:53:40Z</time>
      </trkpt>
      <trkpt lat="48.68883" lon="-3.51848">
        <ele>113</ele>
        <time>2025-09-26T08:53:41Z</time>
      </trkpt>
      <trkpt lat="48.68888" lon="-3.51843">
        <ele>112.8</ele>
        <time>2025-09-26T08:53:42Z</time>
      </trkpt>
      <trkpt lat="48.68892" lon="-3.51837">
        <ele>112.8</ele>
        <time>2025-09-26T08:53:43Z</time>
      </trkpt>
      <trkpt lat="48.68899" lon="-3.51824">
        <ele>112.6</ele>
        <time>2025-09-26T08:53:45Z</time>
      </trkpt>
      <trkpt lat="48.68901" lon="-3.51817">
        <ele>112.6</ele>
        <time>2025-09-26T08:53:46Z</time>
      </trkpt>
      <trkpt lat="48.68903" lon="-3.5181">
        <ele>112.6</ele>
        <time>2025-09-26T08:53:47Z</time>
      </trkpt>
      <trkpt lat="48.68906" lon="-3.51778">
        <ele>112.6</ele>
        <time>2025-09-26T08:53:51Z</time>
      </trkpt>
      <trkpt lat="48.68914" lon="-3.5169">
        <ele>113.2</ele>
        <time>2025-09-26T08:54:01Z</time>
      </trkpt>
      <trkpt lat="48.68925" lon="-3.51621">
        <ele>112.2</ele>
        <time>2025-09-26T08:54:09Z</time>
      </trkpt>
      <trkpt lat="48.68929" lon="-3.51603">
        <ele>111.6</ele>
        <time>2025-09-26T08:54:11Z</time>
      </trkpt>
      <trkpt lat="48.68941" lon="-3.51562">
        <ele>111</ele>
        <time>2025-09-26T08:54:16Z</time>
      </trkpt>
      <trkpt lat="48.68949" lon="-3.51536">
        <ele>110.6</ele>
        <time>2025-09-26T08:54:19Z</time>
      </trkpt>
      <trkpt lat="48.68958" lon="-3.51508">
        <ele>110</ele>
        <time>2025-09-26T08:54:22Z</time>
      </trkpt>
      <trkpt lat="48.68961" lon="-3.51499">
        <ele>109.6</ele>
        <time>2025-09-26T08:54:23Z</time>
      </trkpt>
      <trkpt lat="48.68972" lon="-3.5147">
        <ele>108.2</ele>
        <time>2025-09-26T08:54:26Z</time>
      </trkpt>
      <trkpt lat="48.68988" lon="-3.51432">
        <ele>107.8</ele>
        <time>2025-09-26T08:54:30Z</time>
      </trkpt>
      <trkpt lat="48.68994" lon="-3.51424">
        <ele>107.6</ele>
        <time>2025-09-26T08:54:31Z</time>
      </trkpt>
      <trkpt lat="48.69001" lon="-3.51418">
        <ele>107</ele>
        <time>2025-09-26T08:54:32Z</time>
      </trkpt>
      <trkpt lat="48.69015" lon="-3.51411">
        <ele>106.4</ele>
        <time>2025-09-26T08:54:34Z</time>
      </trkpt>
      <trkpt lat="48.69031" lon="-3.51409">
        <ele>105.8</ele>
        <time>2025-09-26T08:54:36Z</time>
      </trkpt>
      <trkpt lat="48.69056" lon="-3.51408">
        <ele>104.6</ele>
        <time>2025-09-26T08:54:39Z</time>
      </trkpt>
      <trkpt lat="48.69081" lon="-3.51405">
        <ele>103.6</ele>
        <time>2025-09-26T08:54:42Z</time>
      </trkpt>
      <trkpt lat="48.69106" lon="-3.51395">
        <ele>102.8</ele>
        <time>2025-09-26T08:54:45Z</time>
      </trkpt>
      <trkpt lat="48.69121" lon="-3.51385">
        <ele>102.6</ele>
        <time>2025-09-26T08:54:47Z</time>
      </trkpt>
      <trkpt lat="48.69151" lon="-3.5136">
        <ele>101.2</ele>
        <time>2025-09-26T08:54:51Z</time>
      </trkpt>
      <trkpt lat="48.69172" lon="-3.51338">
        <ele>100.8</ele>
        <time>2025-09-26T08:54:54Z</time>
      </trkpt>
      <trkpt lat="48.69179" lon="-3.51331">
        <ele>100.2</ele>
        <time>2025-09-26T08:54:55Z</time>
      </trkpt>
      <trkpt lat="48.69192" lon="-3.51314">
        <ele>99.2</ele>
        <time>2025-09-26T08:54:57Z</time>
      </trkpt>
      <trkpt lat="48.69231" lon="-3.51265">
        <ele>98</ele>
        <time>2025-09-26T08:55:03Z</time>
      </trkpt>
      <trkpt lat="48.69238" lon="-3.51258">
        <ele>97.6</ele>
        <time>2025-09-26T08:55:04Z</time>
      </trkpt>
      <trkpt lat="48.69263" lon="-3.51232">
        <ele>97</ele>
        <time>2025-09-26T08:55:08Z</time>
      </trkpt>
      <trkpt lat="48.69275" lon="-3.51218">
        <ele>96.6</ele>
        <time>2025-09-26T08:55:10Z</time>
      </trkpt>
      <trkpt lat="48.69302" lon="-3.51183">
        <ele>96</ele>
        <time>2025-09-26T08:55:15Z</time>
      </trkpt>
      <trkpt lat="48.69307" lon="-3.51176">
        <ele>95.8</ele>
        <time>2025-09-26T08:55:16Z</time>
      </trkpt>
      <trkpt lat="48.69334" lon="-3.51133">
        <ele>94.2</ele>
        <time>2025-09-26T08:55:21Z</time>
      </trkpt>
      <trkpt lat="48.69366" lon="-3.5108">
        <ele>93.2</ele>
        <time>2025-09-26T08:55:27Z</time>
      </trkpt>
      <trkpt lat="48.69381" lon="-3.51055">
        <ele>92.8</ele>
        <time>2025-09-26T08:55:30Z</time>
      </trkpt>
      <trkpt lat="48.69396" lon="-3.51033">
        <ele>92.4</ele>
        <time>2025-09-26T08:55:33Z</time>
      </trkpt>
      <trkpt lat="48.69401" lon="-3.51027">
        <ele>92.4</ele>
        <time>2025-09-26T08:55:34Z</time>
      </trkpt>
      <trkpt lat="48.69417" lon="-3.51012">
        <ele>92.2</ele>
        <time>2025-09-26T08:55:37Z</time>
      </trkpt>
      <trkpt lat="48.69442" lon="-3.50988">
        <ele>92</ele>
        <time>2025-09-26T08:55:42Z</time>
      </trkpt>
      <trkpt lat="48.69476" lon="-3.50949">
        <ele>91.6</ele>
        <time>2025-09-26T08:55:49Z</time>
      </trkpt>
      <trkpt lat="48.69498" lon="-3.50918">
        <ele>91.6</ele>
        <time>2025-09-26T08:55:54Z</time>
      </trkpt>
      <trkpt lat="48.69503" lon="-3.50912">
        <ele>91.4</ele>
        <time>2025-09-26T08:55:55Z</time>
      </trkpt>
      <trkpt lat="48.69521" lon="-3.50889">
        <ele>91</ele>
        <time>2025-09-26T08:55:59Z</time>
      </trkpt>
      <trkpt lat="48.69545" lon="-3.50862">
        <ele>91</ele>
        <time>2025-09-26T08:56:04Z</time>
      </trkpt>
      <trkpt lat="48.69578" lon="-3.50824">
        <ele>90.4</ele>
        <time>2025-09-26T08:56:11Z</time>
      </trkpt>
      <trkpt lat="48.69619" lon="-3.50771">
        <ele>90.4</ele>
        <time>2025-09-26T08:56:20Z</time>
      </trkpt>
      <trkpt lat="48.69623" lon="-3.50764">
        <ele>90.4</ele>
        <time>2025-09-26T08:56:21Z</time>
      </trkpt>
      <trkpt lat="48.69659" lon="-3.50712">
        <ele>90.6</ele>
        <time>2025-09-26T08:56:30Z</time>
      </trkpt>
      <trkpt lat="48.69681" lon="-3.50664">
        <ele>90.2</ele>
        <time>2025-09-26T08:56:37Z</time>
      </trkpt>
      <trkpt lat="48.69686" lon="-3.50642">
        <ele>90.4</ele>
        <time>2025-09-26T08:56:40Z</time>
      </trkpt>
      <trkpt lat="48.69694" lon="-3.50611">
        <ele>90.2</ele>
        <time>2025-09-26T08:56:44Z</time>
      </trkpt>
      <trkpt lat="48.69705" lon="-3.50547">
        <ele>90</ele>
        <time>2025-09-26T08:56:52Z</time>
      </trkpt>
      <trkpt lat="48.69716" lon="-3.50482">
        <ele>89.6</ele>
        <time>2025-09-26T08:57:00Z</time>
      </trkpt>
      <trkpt lat="48.6972" lon="-3.50449">
        <ele>89.6</ele>
        <time>2025-09-26T08:57:04Z</time>
      </trkpt>
      <trkpt lat="48.69731" lon="-3.50393">
        <ele>89.2</ele>
        <time>2025-09-26T08:57:11Z</time>
      </trkpt>
      <trkpt lat="48.69739" lon="-3.5037">
        <ele>88.8</ele>
        <time>2025-09-26T08:57:14Z</time>
      </trkpt>
      <trkpt lat="48.6975" lon="-3.50343">
        <ele>88.6</ele>
        <time>2025-09-26T08:57:18Z</time>
      </trkpt>
      <trkpt lat="48.6976" lon="-3.50325">
        <ele>88.6</ele>
        <time>2025-09-26T08:57:21Z</time>
      </trkpt>
      <trkpt lat="48.69775" lon="-3.50303">
        <ele>88.4</ele>
        <time>2025-09-26T08:57:25Z</time>
      </trkpt>
      <trkpt lat="48.69787" lon="-3.50286">
        <ele>88.4</ele>
        <time>2025-09-26T08:57:28Z</time>
      </trkpt>
      <trkpt lat="48.69803" lon="-3.50261">
        <ele>87.8</ele>
        <time>2025-09-26T08:57:32Z</time>
      </trkpt>
      <trkpt lat="48.69808" lon="-3.50252">
        <ele>87.8</ele>
        <time>2025-09-26T08:57:33Z</time>
      </trkpt>
      <trkpt lat="48.69826" lon="-3.50214">
        <ele>86.8</ele>
        <time>2025-09-26T08:57:38Z</time>
      </trkpt>
      <trkpt lat="48.69832" lon="-3.50198">
        <ele>86.6</ele>
        <time>2025-09-26T08:57:40Z</time>
      </trkpt>
      <trkpt lat="48.69839" lon="-3.50163">
        <ele>85.8</ele>
        <time>2025-09-26T08:57:44Z</time>
      </trkpt>
      <trkpt lat="48.69843" lon="-3.50146">
        <ele>85.6</ele>
        <time>2025-09-26T08:57:46Z</time>
      </trkpt>
      <trkpt lat="48.69845" lon="-3.50136">
        <ele>85.6</ele>
        <time>2025-09-26T08:57:47Z</time>
      </trkpt>
      <trkpt lat="48.69848" lon="-3.50127">
        <ele>85.4</ele>
        <time>2025-09-26T08:57:48Z</time>
      </trkpt>
      <trkpt lat="48.69852" lon="-3.50117">
        <ele>85.2</ele>
        <time>2025-09-26T08:57:49Z</time>
      </trkpt>
      <trkpt lat="48.69856" lon="-3.50107">
        <ele>84.4</ele>
        <time>2025-09-26T08:57:50Z</time>
      </trkpt>
      <trkpt lat="48.69879" lon="-3.50062">
        <ele>83.6</ele>
        <time>2025-09-26T08:57:55Z</time>
      </trkpt>
      <trkpt lat="48.69883" lon="-3.50054">
        <ele>83.6</ele>
        <time>2025-09-26T08:57:56Z</time>
      </trkpt>
      <trkpt lat="48.69893" lon="-3.5003">
        <ele>83.8</ele>
        <time>2025-09-26T08:57:59Z</time>
      </trkpt>
      <trkpt lat="48.69898" lon="-3.50014">
        <ele>84.2</ele>
        <time>2025-09-26T08:58:01Z</time>
      </trkpt>
      <trkpt lat="48.69901" lon="-3.49997">
        <ele>84.4</ele>
        <time>2025-09-26T08:58:03Z</time>
      </trkpt>
      <trkpt lat="48.69902" lon="-3.49987">
        <ele>84.8</ele>
        <time>2025-09-26T08:58:04Z</time>
      </trkpt>
      <trkpt lat="48.69905" lon="-3.49959">
        <ele>85.6</ele>
        <time>2025-09-26T08:58:07Z</time>
      </trkpt>
      <trkpt lat="48.69906" lon="-3.4994">
        <ele>85.8</ele>
        <time>2025-09-26T08:58:09Z</time>
      </trkpt>
      <trkpt lat="48.69909" lon="-3.49923">
        <ele>85.8</ele>
        <time>2025-09-26T08:58:11Z</time>
      </trkpt>
      <trkpt lat="48.69911" lon="-3.49905">
        <ele>85.8</ele>
        <time>2025-09-26T08:58:13Z</time>
      </trkpt>
      <trkpt lat="48.69922" lon="-3.4986">
        <ele>86.4</ele>
        <time>2025-09-26T08:58:19Z</time>
      </trkpt>
      <trkpt lat="48.69924" lon="-3.49851">
        <ele>86.6</ele>
        <time>2025-09-26T08:58:21Z</time>
      </trkpt>
      <trkpt lat="48.69924" lon="-3.49846">
        <ele>86.4</ele>
        <time>2025-09-26T08:58:23Z</time>
      </trkpt>
      <trkpt lat="48.69925" lon="-3.49846">
        <ele>86.6</ele>
        <time>2025-09-26T08:58:27Z</time>
      </trkpt>
      <trkpt lat="48.69926" lon="-3.49833">
        <ele>87.2</ele>
        <time>2025-09-26T08:58:32Z</time>
      </trkpt>
      <trkpt lat="48.69934" lon="-3.49796">
        <ele>86.6</ele>
        <time>2025-09-26T08:58:38Z</time>
      </trkpt>
      <trkpt lat="48.69947" lon="-3.49748">
        <ele>86.4</ele>
        <time>2025-09-26T08:58:45Z</time>
      </trkpt>
      <trkpt lat="48.6996" lon="-3.49691">
        <ele>86</ele>
        <time>2025-09-26T08:58:52Z</time>
      </trkpt>
      <trkpt lat="48.6997" lon="-3.4965">
        <ele>85.6</ele>
        <time>2025-09-26T08:58:57Z</time>
      </trkpt>
      <trkpt lat="48.69974" lon="-3.49635">
        <ele>85.4</ele>
        <time>2025-09-26T08:58:59Z</time>
      </trkpt>
      <trkpt lat="48.69986" lon="-3.49606">
        <ele>85</ele>
        <time>2025-09-26T08:59:03Z</time>
      </trkpt>
      <trkpt lat="48.7" lon="-3.4957">
        <ele>84.4</ele>
        <time>2025-09-26T08:59:08Z</time>
      </trkpt>
      <trkpt lat="48.7002" lon="-3.49522">
        <ele>84.2</ele>
        <time>2025-09-26T08:59:15Z</time>
      </trkpt>
      <trkpt lat="48.70026" lon="-3.49508">
        <ele>83.8</ele>
        <time>2025-09-26T08:59:17Z</time>
      </trkpt>
      <trkpt lat="48.70031" lon="-3.49494">
        <ele>83.4</ele>
        <time>2025-09-26T08:59:19Z</time>
      </trkpt>
      <trkpt lat="48.70039" lon="-3.49472">
        <ele>83.2</ele>
        <time>2025-09-26T08:59:22Z</time>
      </trkpt>
      <trkpt lat="48.70042" lon="-3.49465">
        <ele>83.2</ele>
        <time>2025-09-26T08:59:23Z</time>
      </trkpt>
      <trkpt lat="48.70052" lon="-3.49433">
        <ele>82.2</ele>
        <time>2025-09-26T08:59:27Z</time>
      </trkpt>
      <trkpt lat="48.70054" lon="-3.49424">
        <ele>82</ele>
        <time>2025-09-26T08:59:28Z</time>
      </trkpt>
      <trkpt lat="48.70058" lon="-3.49416">
        <ele>81.6</ele>
        <time>2025-09-26T08:59:29Z</time>
      </trkpt>
      <trkpt lat="48.70063" lon="-3.49398">
        <ele>81.2</ele>
        <time>2025-09-26T08:59:31Z</time>
      </trkpt>
      <trkpt lat="48.70066" lon="-3.49389">
        <ele>80.8</ele>
        <time>2025-09-26T08:59:32Z</time>
      </trkpt>
      <trkpt lat="48.70079" lon="-3.49352">
        <ele>79.8</ele>
        <time>2025-09-26T08:59:36Z</time>
      </trkpt>
      <trkpt lat="48.70086" lon="-3.49332">
        <ele>79.2</ele>
        <time>2025-09-26T08:59:38Z</time>
      </trkpt>
      <trkpt lat="48.70093" lon="-3.49313">
        <ele>78.6</ele>
        <time>2025-09-26T08:59:40Z</time>
      </trkpt>
      <trkpt lat="48.7011" lon="-3.49261">
        <ele>77.4</ele>
        <time>2025-09-26T08:59:45Z</time>
      </trkpt>
      <trkpt lat="48.70113" lon="-3.49251">
        <ele>77.2</ele>
        <time>2025-09-26T08:59:46Z</time>
      </trkpt>
      <trkpt lat="48.70119" lon="-3.49208">
        <ele>76.6</ele>
        <time>2025-09-26T08:59:50Z</time>
      </trkpt>
      <trkpt lat="48.70121" lon="-3.49199">
        <ele>76.6</ele>
        <time>2025-09-26T08:59:51Z</time>
      </trkpt>
      <trkpt lat="48.70123" lon="-3.4919">
        <ele>76.4</ele>
        <time>2025-09-26T08:59:52Z</time>
      </trkpt>
      <trkpt lat="48.70126" lon="-3.4918">
        <ele>76</ele>
        <time>2025-09-26T08:59:53Z</time>
      </trkpt>
      <trkpt lat="48.70133" lon="-3.49162">
        <ele>75.2</ele>
        <time>2025-09-26T08:59:55Z</time>
      </trkpt>
      <trkpt lat="48.70137" lon="-3.49153">
        <ele>75.2</ele>
        <time>2025-09-26T08:59:56Z</time>
      </trkpt>
      <trkpt lat="48.70164" lon="-3.49098">
        <ele>75.2</ele>
        <time>2025-09-26T09:00:03Z</time>
      </trkpt>
      <trkpt lat="48.7018" lon="-3.4906">
        <ele>75.4</ele>
        <time>2025-09-26T09:00:08Z</time>
      </trkpt>
      <trkpt lat="48.70183" lon="-3.49052">
        <ele>75.8</ele>
        <time>2025-09-26T09:00:09Z</time>
      </trkpt>
      <trkpt lat="48.70191" lon="-3.49028">
        <ele>76.4</ele>
        <time>2025-09-26T09:00:12Z</time>
      </trkpt>
      <trkpt lat="48.70209" lon="-3.48981">
        <ele>76.6</ele>
        <time>2025-09-26T09:00:18Z</time>
      </trkpt>
      <trkpt lat="48.70242" lon="-3.48914">
        <ele>76.2</ele>
        <time>2025-09-26T09:00:27Z</time>
      </trkpt>
      <trkpt lat="48.70274" lon="-3.48845">
        <ele>75.6</ele>
        <time>2025-09-26T09:00:36Z</time>
      </trkpt>
      <trkpt lat="48.70279" lon="-3.48828">
        <ele>75.4</ele>
        <time>2025-09-26T09:00:38Z</time>
      </trkpt>
      <trkpt lat="48.70286" lon="-3.48794">
        <ele>75.4</ele>
        <time>2025-09-26T09:00:42Z</time>
      </trkpt>
      <trkpt lat="48.70301" lon="-3.48734">
        <ele>75</ele>
        <time>2025-09-26T09:00:49Z</time>
      </trkpt>
      <trkpt lat="48.70311" lon="-3.48712">
        <ele>74.4</ele>
        <time>2025-09-26T09:00:52Z</time>
      </trkpt>
      <trkpt lat="48.70326" lon="-3.48684">
        <ele>73.8</ele>
        <time>2025-09-26T09:00:56Z</time>
      </trkpt>
      <trkpt lat="48.7034" lon="-3.48663">
        <ele>73.4</ele>
        <time>2025-09-26T09:00:59Z</time>
      </trkpt>
      <trkpt lat="48.70359" lon="-3.48635">
        <ele>72.6</ele>
        <time>2025-09-26T09:01:03Z</time>
      </trkpt>
      <trkpt lat="48.70368" lon="-3.48622">
        <ele>72.4</ele>
        <time>2025-09-26T09:01:05Z</time>
      </trkpt>
      <trkpt lat="48.70373" lon="-3.48616">
        <ele>72.2</ele>
        <time>2025-09-26T09:01:06Z</time>
      </trkpt>
      <trkpt lat="48.70403" lon="-3.48578">
        <ele>71.2</ele>
        <time>2025-09-26T09:01:12Z</time>
      </trkpt>
      <trkpt lat="48.70417" lon="-3.4856">
        <ele>70.4</ele>
        <time>2025-09-26T09:01:15Z</time>
      </trkpt>
      <trkpt lat="48.70436" lon="-3.48536">
        <ele>70.2</ele>
        <time>2025-09-26T09:01:19Z</time>
      </trkpt>
      <trkpt lat="48.70445" lon="-3.48523">
        <ele>70</ele>
        <time>2025-09-26T09:01:21Z</time>
      </trkpt>
      <trkpt lat="48.7046" lon="-3.48505">
        <ele>70</ele>
        <time>2025-09-26T09:01:24Z</time>
      </trkpt>
      <trkpt lat="48.70493" lon="-3.48447">
        <ele>69.2</ele>
        <time>2025-09-26T09:01:32Z</time>
      </trkpt>
      <trkpt lat="48.70522" lon="-3.48396">
        <ele>69</ele>
        <time>2025-09-26T09:01:39Z</time>
      </trkpt>
      <trkpt lat="48.70534" lon="-3.48375">
        <ele>69</ele>
        <time>2025-09-26T09:01:42Z</time>
      </trkpt>
      <trkpt lat="48.70568" lon="-3.4831">
        <ele>68.6</ele>
        <time>2025-09-26T09:01:51Z</time>
      </trkpt>
      <trkpt lat="48.70577" lon="-3.48296">
        <ele>68.4</ele>
        <time>2025-09-26T09:01:53Z</time>
      </trkpt>
      <trkpt lat="48.70616" lon="-3.48239">
        <ele>68.8</ele>
        <time>2025-09-26T09:02:02Z</time>
      </trkpt>
      <trkpt lat="48.70646" lon="-3.48191">
        <ele>68</ele>
        <time>2025-09-26T09:02:09Z</time>
      </trkpt>
      <trkpt lat="48.70685" lon="-3.48123">
        <ele>68.2</ele>
        <time>2025-09-26T09:02:19Z</time>
      </trkpt>
      <trkpt lat="48.70689" lon="-3.48116">
        <ele>68.2</ele>
        <time>2025-09-26T09:02:20Z</time>
      </trkpt>
      <trkpt lat="48.70712" lon="-3.48072">
        <ele>67.8</ele>
        <time>2025-09-26T09:02:26Z</time>
      </trkpt>
      <trkpt lat="48.70722" lon="-3.48049">
        <ele>67.8</ele>
        <time>2025-09-26T09:02:29Z</time>
      </trkpt>
      <trkpt lat="48.70745" lon="-3.47994">
        <ele>67.8</ele>
        <time>2025-09-26T09:02:36Z</time>
      </trkpt>
      <trkpt lat="48.7076" lon="-3.47957">
        <ele>68</ele>
        <time>2025-09-26T09:02:41Z</time>
      </trkpt>
      <trkpt lat="48.70767" lon="-3.47941">
        <ele>67.4</ele>
        <time>2025-09-26T09:02:43Z</time>
      </trkpt>
      <trkpt lat="48.70775" lon="-3.47925">
        <ele>66.8</ele>
        <time>2025-09-26T09:02:45Z</time>
      </trkpt>
      <trkpt lat="48.70784" lon="-3.47907">
        <ele>66</ele>
        <time>2025-09-26T09:02:47Z</time>
      </trkpt>
      <trkpt lat="48.70788" lon="-3.47897">
        <ele>65.4</ele>
        <time>2025-09-26T09:02:48Z</time>
      </trkpt>
      <trkpt lat="48.70793" lon="-3.47874">
        <ele>64</ele>
        <time>2025-09-26T09:02:50Z</time>
      </trkpt>
      <trkpt lat="48.70795" lon="-3.47848">
        <ele>63.4</ele>
        <time>2025-09-26T09:02:52Z</time>
      </trkpt>
      <trkpt lat="48.70798" lon="-3.47821">
        <ele>63</ele>
        <time>2025-09-26T09:02:54Z</time>
      </trkpt>
      <trkpt lat="48.70802" lon="-3.47797">
        <ele>62</ele>
        <time>2025-09-26T09:02:56Z</time>
      </trkpt>
      <trkpt lat="48.70805" lon="-3.47784">
        <ele>61.2</ele>
        <time>2025-09-26T09:02:57Z</time>
      </trkpt>
      <trkpt lat="48.70809" lon="-3.47771">
        <ele>60.8</ele>
        <time>2025-09-26T09:02:58Z</time>
      </trkpt>
      <trkpt lat="48.70817" lon="-3.47745">
        <ele>58.8</ele>
        <time>2025-09-26T09:03:00Z</time>
      </trkpt>
      <trkpt lat="48.70824" lon="-3.4772">
        <ele>57.6</ele>
        <time>2025-09-26T09:03:02Z</time>
      </trkpt>
      <trkpt lat="48.70833" lon="-3.47682">
        <ele>56.6</ele>
        <time>2025-09-26T09:03:05Z</time>
      </trkpt>
      <trkpt lat="48.70837" lon="-3.47657">
        <ele>55.2</ele>
        <time>2025-09-26T09:03:07Z</time>
      </trkpt>
      <trkpt lat="48.70841" lon="-3.47629">
        <ele>54.6</ele>
        <time>2025-09-26T09:03:09Z</time>
      </trkpt>
      <trkpt lat="48.70843" lon="-3.47615">
        <ele>53.8</ele>
        <time>2025-09-26T09:03:10Z</time>
      </trkpt>
      <trkpt lat="48.70845" lon="-3.47586">
        <ele>52.4</ele>
        <time>2025-09-26T09:03:12Z</time>
      </trkpt>
      <trkpt lat="48.70848" lon="-3.47541">
        <ele>51</ele>
        <time>2025-09-26T09:03:15Z</time>
      </trkpt>
      <trkpt lat="48.7085" lon="-3.47527">
        <ele>50.6</ele>
        <time>2025-09-26T09:03:16Z</time>
      </trkpt>
      <trkpt lat="48.70853" lon="-3.47498">
        <ele>50</ele>
        <time>2025-09-26T09:03:18Z</time>
      </trkpt>
      <trkpt lat="48.70854" lon="-3.47486">
        <ele>49.2</ele>
        <time>2025-09-26T09:03:19Z</time>
      </trkpt>
      <trkpt lat="48.70857" lon="-3.47469">
        <ele>48.4</ele>
        <time>2025-09-26T09:03:20Z</time>
      </trkpt>
      <trkpt lat="48.70864" lon="-3.47425">
        <ele>47.4</ele>
        <time>2025-09-26T09:03:23Z</time>
      </trkpt>
      <trkpt lat="48.70865" lon="-3.47411">
        <ele>45.8</ele>
        <time>2025-09-26T09:03:24Z</time>
      </trkpt>
      <trkpt lat="48.70867" lon="-3.47397">
        <ele>44.8</ele>
        <time>2025-09-26T09:03:25Z</time>
      </trkpt>
      <trkpt lat="48.7087" lon="-3.47383">
        <ele>44.4</ele>
        <time>2025-09-26T09:03:26Z</time>
      </trkpt>
      <trkpt lat="48.70873" lon="-3.4737">
        <ele>44.4</ele>
        <time>2025-09-26T09:03:27Z</time>
      </trkpt>
      <trkpt lat="48.70885" lon="-3.47331">
        <ele>43.4</ele>
        <time>2025-09-26T09:03:30Z</time>
      </trkpt>
      <trkpt lat="48.70889" lon="-3.47318">
        <ele>42.8</ele>
        <time>2025-09-26T09:03:31Z</time>
      </trkpt>
      <trkpt lat="48.70898" lon="-3.47278">
        <ele>41.2</ele>
        <time>2025-09-26T09:03:34Z</time>
      </trkpt>
      <trkpt lat="48.70903" lon="-3.4725">
        <ele>40.2</ele>
        <time>2025-09-26T09:03:36Z</time>
      </trkpt>
      <trkpt lat="48.70909" lon="-3.47211">
        <ele>39.2</ele>
        <time>2025-09-26T09:03:39Z</time>
      </trkpt>
      <trkpt lat="48.70914" lon="-3.47182">
        <ele>38</ele>
        <time>2025-09-26T09:03:41Z</time>
      </trkpt>
      <trkpt lat="48.70918" lon="-3.47152">
        <ele>36.8</ele>
        <time>2025-09-26T09:03:43Z</time>
      </trkpt>
      <trkpt lat="48.70923" lon="-3.47129">
        <ele>35.4</ele>
        <time>2025-09-26T09:03:45Z</time>
      </trkpt>
      <trkpt lat="48.70927" lon="-3.47109">
        <ele>34.6</ele>
        <time>2025-09-26T09:03:47Z</time>
      </trkpt>
      <trkpt lat="48.70928" lon="-3.471">
        <ele>33.8</ele>
        <time>2025-09-26T09:03:48Z</time>
      </trkpt>
      <trkpt lat="48.7093" lon="-3.47092">
        <ele>33.2</ele>
        <time>2025-09-26T09:03:49Z</time>
      </trkpt>
      <trkpt lat="48.70931" lon="-3.47085">
        <ele>32.8</ele>
        <time>2025-09-26T09:03:50Z</time>
      </trkpt>
      <trkpt lat="48.70933" lon="-3.4708">
        <ele>32.4</ele>
        <time>2025-09-26T09:03:51Z</time>
      </trkpt>
      <trkpt lat="48.70934" lon="-3.47071">
        <ele>31.6</ele>
        <time>2025-09-26T09:03:54Z</time>
      </trkpt>
      <trkpt lat="48.70934" lon="-3.47071">
        <ele>31.4</ele>
        <time>2025-09-26T09:03:55Z</time>
      </trkpt>
      <trkpt lat="48.70935" lon="-3.47068">
        <ele>31.2</ele>
        <time>2025-09-26T09:03:58Z</time>
      </trkpt>
      <trkpt lat="48.70936" lon="-3.47064">
        <ele>31.2</ele>
        <time>2025-09-26T09:03:59Z</time>
      </trkpt>
      <trkpt lat="48.70938" lon="-3.47053">
        <ele>31.2</ele>
        <time>2025-09-26T09:04:01Z</time>
      </trkpt>
      <trkpt lat="48.70943" lon="-3.47038">
        <ele>30.6</ele>
        <time>2025-09-26T09:04:03Z</time>
      </trkpt>
      <trkpt lat="48.70945" lon="-3.4703">
        <ele>30.2</ele>
        <time>2025-09-26T09:04:04Z</time>
      </trkpt>
      <trkpt lat="48.70948" lon="-3.47023">
        <ele>29.6</ele>
        <time>2025-09-26T09:04:05Z</time>
      </trkpt>
      <trkpt lat="48.70952" lon="-3.47017">
        <ele>29.4</ele>
        <time>2025-09-26T09:04:06Z</time>
      </trkpt>
      <trkpt lat="48.70963" lon="-3.47004">
        <ele>28.6</ele>
        <time>2025-09-26T09:04:08Z</time>
      </trkpt>
      <trkpt lat="48.70985" lon="-3.4699">
        <ele>27.2</ele>
        <time>2025-09-26T09:04:11Z</time>
      </trkpt>
      <trkpt lat="48.70997" lon="-3.46982">
        <ele>26</ele>
        <time>2025-09-26T09:04:13Z</time>
      </trkpt>
      <trkpt lat="48.71004" lon="-3.46979">
        <ele>25.2</ele>
        <time>2025-09-26T09:04:14Z</time>
      </trkpt>
      <trkpt lat="48.7101" lon="-3.46977">
        <ele>24.8</ele>
        <time>2025-09-26T09:04:15Z</time>
      </trkpt>
      <trkpt lat="48.71026" lon="-3.46972">
        <ele>24.4</ele>
        <time>2025-09-26T09:04:18Z</time>
      </trkpt>
      <trkpt lat="48.71036" lon="-3.46965">
        <ele>24.2</ele>
        <time>2025-09-26T09:04:20Z</time>
      </trkpt>
      <trkpt lat="48.71043" lon="-3.46955">
        <ele>24</ele>
        <time>2025-09-26T09:04:22Z</time>
      </trkpt>
      <trkpt lat="48.71059" lon="-3.46917">
        <ele>24.4</ele>
        <time>2025-09-26T09:04:28Z</time>
      </trkpt>
      <trkpt lat="48.71061" lon="-3.4691">
        <ele>24.4</ele>
        <time>2025-09-26T09:04:29Z</time>
      </trkpt>
      <trkpt lat="48.71061" lon="-3.46902">
        <ele>24.4</ele>
        <time>2025-09-26T09:04:30Z</time>
      </trkpt>
      <trkpt lat="48.71058" lon="-3.46885">
        <ele>24.2</ele>
        <time>2025-09-26T09:04:32Z</time>
      </trkpt>
      <trkpt lat="48.71056" lon="-3.46877">
        <ele>24.2</ele>
        <time>2025-09-26T09:04:33Z</time>
      </trkpt>
      <trkpt lat="48.71048" lon="-3.46844">
        <ele>24</ele>
        <time>2025-09-26T09:04:37Z</time>
      </trkpt>
      <trkpt lat="48.71042" lon="-3.46818">
        <ele>24.2</ele>
        <time>2025-09-26T09:04:40Z</time>
      </trkpt>
      <trkpt lat="48.7103" lon="-3.46771">
        <ele>25</ele>
        <time>2025-09-26T09:04:46Z</time>
      </trkpt>
      <trkpt lat="48.71028" lon="-3.46757">
        <ele>26.2</ele>
        <time>2025-09-26T09:04:48Z</time>
      </trkpt>
      <trkpt lat="48.71025" lon="-3.46743">
        <ele>27.4</ele>
        <time>2025-09-26T09:04:50Z</time>
      </trkpt>
      <trkpt lat="48.71024" lon="-3.46737">
        <ele>27.6</ele>
        <time>2025-09-26T09:04:51Z</time>
      </trkpt>
      <trkpt lat="48.71016" lon="-3.46723">
        <ele>28.8</ele>
        <time>2025-09-26T09:04:54Z</time>
      </trkpt>
      <trkpt lat="48.71012" lon="-3.46719">
        <ele>29.4</ele>
        <time>2025-09-26T09:04:55Z</time>
      </trkpt>
      <trkpt lat="48.71004" lon="-3.46713">
        <ele>30</ele>
        <time>2025-09-26T09:04:57Z</time>
      </trkpt>
      <trkpt lat="48.70991" lon="-3.46703">
        <ele>31</ele>
        <time>2025-09-26T09:05:00Z</time>
      </trkpt>
      <trkpt lat="48.70986" lon="-3.467">
        <ele>31.2</ele>
        <time>2025-09-26T09:05:01Z</time>
      </trkpt>
      <trkpt lat="48.70979" lon="-3.46693">
        <ele>31.8</ele>
        <time>2025-09-26T09:05:03Z</time>
      </trkpt>
      <trkpt lat="48.7097" lon="-3.46689">
        <ele>32.2</ele>
        <time>2025-09-26T09:05:05Z</time>
      </trkpt>
      <trkpt lat="48.70965" lon="-3.46686">
        <ele>32.4</ele>
        <time>2025-09-26T09:05:06Z</time>
      </trkpt>
      <trkpt lat="48.7096" lon="-3.46683">
        <ele>32.6</ele>
        <time>2025-09-26T09:05:07Z</time>
      </trkpt>
      <trkpt lat="48.70949" lon="-3.46675">
        <ele>33.4</ele>
        <time>2025-09-26T09:05:10Z</time>
      </trkpt>
      <trkpt lat="48.70945" lon="-3.46672">
        <ele>33.8</ele>
        <time>2025-09-26T09:05:11Z</time>
      </trkpt>
      <trkpt lat="48.70937" lon="-3.46669">
        <ele>35</ele>
        <time>2025-09-26T09:05:13Z</time>
      </trkpt>
      <trkpt lat="48.70934" lon="-3.46667">
        <ele>35.4</ele>
        <time>2025-09-26T09:05:14Z</time>
      </trkpt>
      <trkpt lat="48.70927" lon="-3.46663">
        <ele>36.4</ele>
        <time>2025-09-26T09:05:16Z</time>
      </trkpt>
      <trkpt lat="48.70919" lon="-3.46659">
        <ele>37</ele>
        <time>2025-09-26T09:05:18Z</time>
      </trkpt>
      <trkpt lat="48.70911" lon="-3.46656">
        <ele>37.8</ele>
        <time>2025-09-26T09:05:20Z</time>
      </trkpt>
      <trkpt lat="48.70905" lon="-3.46652">
        <ele>38.4</ele>
        <time>2025-09-26T09:05:22Z</time>
      </trkpt>
      <trkpt lat="48.70896" lon="-3.46646">
        <ele>39.2</ele>
        <time>2025-09-26T09:05:24Z</time>
      </trkpt>
      <trkpt lat="48.70892" lon="-3.46643">
        <ele>39.6</ele>
        <time>2025-09-26T09:05:25Z</time>
      </trkpt>
      <trkpt lat="48.70882" lon="-3.46637">
        <ele>40.4</ele>
        <time>2025-09-26T09:05:28Z</time>
      </trkpt>
      <trkpt lat="48.7087" lon="-3.46631">
        <ele>41.6</ele>
        <time>2025-09-26T09:05:31Z</time>
      </trkpt>
      <trkpt lat="48.70863" lon="-3.46628">
        <ele>42.4</ele>
        <time>2025-09-26T09:05:33Z</time>
      </trkpt>
      <trkpt lat="48.7086" lon="-3.46626">
        <ele>43.2</ele>
        <time>2025-09-26T09:05:34Z</time>
      </trkpt>
      <trkpt lat="48.70848" lon="-3.46623">
        <ele>44.4</ele>
        <time>2025-09-26T09:05:37Z</time>
      </trkpt>
      <trkpt lat="48.70837" lon="-3.4662">
        <ele>45.2</ele>
        <time>2025-09-26T09:05:40Z</time>
      </trkpt>
      <trkpt lat="48.70828" lon="-3.46616">
        <ele>45.4</ele>
        <time>2025-09-26T09:05:42Z</time>
      </trkpt>
      <trkpt lat="48.70812" lon="-3.46609">
        <ele>46.2</ele>
        <time>2025-09-26T09:05:46Z</time>
      </trkpt>
      <trkpt lat="48.70806" lon="-3.46603">
        <ele>46.8</ele>
        <time>2025-09-26T09:05:48Z</time>
      </trkpt>
      <trkpt lat="48.70796" lon="-3.46585">
        <ele>47.8</ele>
        <time>2025-09-26T09:05:52Z</time>
      </trkpt>
      <trkpt lat="48.70787" lon="-3.46563">
        <ele>49</ele>
        <time>2025-09-26T09:05:56Z</time>
      </trkpt>
      <trkpt lat="48.70782" lon="-3.46555">
        <ele>49.6</ele>
        <time>2025-09-26T09:05:58Z</time>
      </trkpt>
      <trkpt lat="48.7078" lon="-3.4655">
        <ele>49.8</ele>
        <time>2025-09-26T09:05:59Z</time>
      </trkpt>
      <trkpt lat="48.70777" lon="-3.46546">
        <ele>50.2</ele>
        <time>2025-09-26T09:06:00Z</time>
      </trkpt>
      <trkpt lat="48.70769" lon="-3.46534">
        <ele>51.4</ele>
        <time>2025-09-26T09:06:03Z</time>
      </trkpt>
      <trkpt lat="48.70764" lon="-3.46526">
        <ele>52.2</ele>
        <time>2025-09-26T09:06:05Z</time>
      </trkpt>
      <trkpt lat="48.70761" lon="-3.46521">
        <ele>53</ele>
        <time>2025-09-26T09:06:06Z</time>
      </trkpt>
      <trkpt lat="48.70755" lon="-3.46513">
        <ele>53.4</ele>
        <time>2025-09-26T09:06:08Z</time>
      </trkpt>
      <trkpt lat="48.70753" lon="-3.46509">
        <ele>54.2</ele>
        <time>2025-09-26T09:06:09Z</time>
      </trkpt>
      <trkpt lat="48.70746" lon="-3.46496">
        <ele>55.4</ele>
        <time>2025-09-26T09:06:12Z</time>
      </trkpt>
      <trkpt lat="48.70741" lon="-3.46486">
        <ele>56.2</ele>
        <time>2025-09-26T09:06:14Z</time>
      </trkpt>
      <trkpt lat="48.7074" lon="-3.46483">
        <ele>56.6</ele>
        <time>2025-09-26T09:06:15Z</time>
      </trkpt>
      <trkpt lat="48.70733" lon="-3.46468">
        <ele>57.6</ele>
        <time>2025-09-26T09:06:18Z</time>
      </trkpt>
      <trkpt lat="48.70724" lon="-3.4645">
        <ele>58.8</ele>
        <time>2025-09-26T09:06:22Z</time>
      </trkpt>
      <trkpt lat="48.70722" lon="-3.46445">
        <ele>59.2</ele>
        <time>2025-09-26T09:06:23Z</time>
      </trkpt>
      <trkpt lat="48.70718" lon="-3.46437">
        <ele>59.8</ele>
        <time>2025-09-26T09:06:25Z</time>
      </trkpt>
      <trkpt lat="48.70713" lon="-3.46419">
        <ele>61</ele>
        <time>2025-09-26T09:06:29Z</time>
      </trkpt>
      <trkpt lat="48.70712" lon="-3.46415">
        <ele>61.2</ele>
        <time>2025-09-26T09:06:30Z</time>
      </trkpt>
      <trkpt lat="48.70708" lon="-3.46403">
        <ele>62</ele>
        <time>2025-09-26T09:06:32Z</time>
      </trkpt>
      <trkpt lat="48.70703" lon="-3.46389">
        <ele>63</ele>
        <time>2025-09-26T09:06:35Z</time>
      </trkpt>
      <trkpt lat="48.707" lon="-3.46379">
        <ele>63.8</ele>
        <time>2025-09-26T09:06:37Z</time>
      </trkpt>
      <trkpt lat="48.70696" lon="-3.46369">
        <ele>64.2</ele>
        <time>2025-09-26T09:06:39Z</time>
      </trkpt>
      <trkpt lat="48.70691" lon="-3.46351">
        <ele>65.2</ele>
        <time>2025-09-26T09:06:42Z</time>
      </trkpt>
      <trkpt lat="48.70689" lon="-3.46346">
        <ele>65.4</ele>
        <time>2025-09-26T09:06:43Z</time>
      </trkpt>
      <trkpt lat="48.70684" lon="-3.4633">
        <ele>66.4</ele>
        <time>2025-09-26T09:06:46Z</time>
      </trkpt>
      <trkpt lat="48.70679" lon="-3.46314">
        <ele>67</ele>
        <time>2025-09-26T09:06:49Z</time>
      </trkpt>
      <trkpt lat="48.70677" lon="-3.46309">
        <ele>67</ele>
        <time>2025-09-26T09:06:50Z</time>
      </trkpt>
      <trkpt lat="48.70673" lon="-3.46293">
        <ele>67.4</ele>
        <time>2025-09-26T09:06:53Z</time>
      </trkpt>
      <trkpt lat="48.70666" lon="-3.4626">
        <ele>68</ele>
        <time>2025-09-26T09:06:59Z</time>
      </trkpt>
      <trkpt lat="48.70664" lon="-3.46244">
        <ele>68.4</ele>
        <time>2025-09-26T09:07:02Z</time>
      </trkpt>
      <trkpt lat="48.70664" lon="-3.46216">
        <ele>68.6</ele>
        <time>2025-09-26T09:07:07Z</time>
      </trkpt>
      <trkpt lat="48.70667" lon="-3.4617">
        <ele>68.6</ele>
        <time>2025-09-26T09:07:15Z</time>
      </trkpt>
      <trkpt lat="48.70667" lon="-3.46165">
        <ele>68.6</ele>
        <time>2025-09-26T09:07:16Z</time>
      </trkpt>
      <trkpt lat="48.70663" lon="-3.46109">
        <ele>68.4</ele>
        <time>2025-09-26T09:07:26Z</time>
      </trkpt>
      <trkpt lat="48.70662" lon="-3.46085">
        <ele>68</ele>
        <time>2025-09-26T09:07:30Z</time>
      </trkpt>
      <trkpt lat="48.70662" lon="-3.46073">
        <ele>68</ele>
        <time>2025-09-26T09:07:32Z</time>
      </trkpt>
      <trkpt lat="48.70662" lon="-3.46067">
        <ele>67.8</ele>
        <time>2025-09-26T09:07:33Z</time>
      </trkpt>
      <trkpt lat="48.70663" lon="-3.46054">
        <ele>67.8</ele>
        <time>2025-09-26T09:07:35Z</time>
      </trkpt>
      <trkpt lat="48.70664" lon="-3.46041">
        <ele>67.6</ele>
        <time>2025-09-26T09:07:37Z</time>
      </trkpt>
      <trkpt lat="48.70665" lon="-3.46035">
        <ele>67.4</ele>
        <time>2025-09-26T09:07:38Z</time>
      </trkpt>
      <trkpt lat="48.70668" lon="-3.46014">
        <ele>67.2</ele>
        <time>2025-09-26T09:07:42Z</time>
      </trkpt>
      <trkpt lat="48.7067" lon="-3.46003">
        <ele>66.8</ele>
        <time>2025-09-26T09:07:44Z</time>
      </trkpt>
      <trkpt lat="48.70675" lon="-3.45977">
        <ele>66.2</ele>
        <time>2025-09-26T09:07:48Z</time>
      </trkpt>
      <trkpt lat="48.70679" lon="-3.45963">
        <ele>66</ele>
        <time>2025-09-26T09:07:50Z</time>
      </trkpt>
      <trkpt lat="48.70683" lon="-3.45949">
        <ele>65.4</ele>
        <time>2025-09-26T09:07:52Z</time>
      </trkpt>
      <trkpt lat="48.70685" lon="-3.45944">
        <ele>65.2</ele>
        <time>2025-09-26T09:07:53Z</time>
      </trkpt>
      <trkpt lat="48.70688" lon="-3.45935">
        <ele>65</ele>
        <time>2025-09-26T09:07:55Z</time>
      </trkpt>
      <trkpt lat="48.7069" lon="-3.45931">
        <ele>64.8</ele>
        <time>2025-09-26T09:07:56Z</time>
      </trkpt>
      <trkpt lat="48.70691" lon="-3.45925">
        <ele>64.4</ele>
        <time>2025-09-26T09:08:00Z</time>
      </trkpt>
      <trkpt lat="48.70691" lon="-3.45926">
        <ele>64.6</ele>
        <time>2025-09-26T09:08:06Z</time>
      </trkpt>
      <trkpt lat="48.70691" lon="-3.45926">
        <ele>64.6</ele>
        <time>2025-09-26T09:08:07Z</time>
      </trkpt>
      <trkpt lat="48.70691" lon="-3.45926">
        <ele>64.2</ele>
        <time>2025-09-26T09:08:13Z</time>
      </trkpt>
      <trkpt lat="48.70691" lon="-3.45926">
        <ele>64.2</ele>
        <time>2025-09-26T09:08:15Z</time>
      </trkpt>
      <trkpt lat="48.7069" lon="-3.45926">
        <ele>64.2</ele>
        <time>2025-09-26T09:08:26Z</time>
      </trkpt>
      <trkpt lat="48.7069" lon="-3.45925">
        <ele>64</ele>
        <time>2025-09-26T09:08:39Z</time>
      </trkpt>
      <trkpt lat="48.7069" lon="-3.4592">
        <ele>64</ele>
        <time>2025-09-26T09:08:44Z</time>
      </trkpt>
      <trkpt lat="48.7069" lon="-3.4592">
        <ele>64</ele>
        <time>2025-09-26T09:08:45Z</time>
      </trkpt>
      <trkpt lat="48.7069" lon="-3.4592">
        <ele>64</ele>
        <time>2025-09-26T09:08:47Z</time>
      </trkpt>
      <trkpt lat="48.7069" lon="-3.45919">
        <ele>64.4</ele>
        <time>2025-09-26T09:08:54Z</time>
      </trkpt>
      <trkpt lat="48.7069" lon="-3.45919">
        <ele>64.2</ele>
        <time>2025-09-26T09:09:05Z</time>
      </trkpt>
      <trkpt lat="48.7069" lon="-3.45919">
        <ele>64.2</ele>
        <time>2025-09-26T09:09:18Z</time>
      </trkpt>
      <trkpt lat="48.7069" lon="-3.45919">
        <ele>64.2</ele>
        <time>2025-09-26T09:09:22Z</time>
      </trkpt>
      <trkpt lat="48.7069" lon="-3.45919">
        <ele>64.2</ele>
        <time>2025-09-26T09:09:26Z</time>
      </trkpt>
      <trkpt lat="48.7069" lon="-3.45919">
        <ele>64.2</ele>
        <time>2025-09-26T09:09:31Z</time>
      </trkpt>
      <trkpt lat="48.7069" lon="-3.45923">
        <ele>64.2</ele>
        <time>2025-09-26T09:09:38Z</time>
      </trkpt>
      <trkpt lat="48.7069" lon="-3.45923">
        <ele>64.2</ele>
        <time>2025-09-26T09:09:47Z</time>
      </trkpt>
      <trkpt lat="48.7069" lon="-3.45923">
        <ele>64.2</ele>
        <time>2025-09-26T09:09:50Z</time>
      </trkpt>
      <trkpt lat="48.7069" lon="-3.45923">
        <ele>64.2</ele>
        <time>2025-09-26T09:09:53Z</time>
      </trkpt>
      <trkpt lat="48.7069" lon="-3.45923">
        <ele>64.2</ele>
        <time>2025-09-26T09:09:58Z</time>
      </trkpt>
      <trkpt lat="48.70691" lon="-3.45923">
        <ele>64.2</ele>
        <time>2025-09-26T09:10:10Z</time>
      </trkpt>
      <trkpt lat="48.70691" lon="-3.45923">
        <ele>64.2</ele>
        <time>2025-09-26T09:10:14Z</time>
      </trkpt>
      <trkpt lat="48.70691" lon="-3.45923">
        <ele>64.2</ele>
        <time>2025-09-26T09:10:16Z</time>
      </trkpt>
      <trkpt lat="48.70691" lon="-3.45923">
        <ele>64.2</ele>
        <time>2025-09-26T09:10:17Z</time>
      </trkpt>
      <trkpt lat="48.70691" lon="-3.45923">
        <ele>64.2</ele>
        <time>2025-09-26T09:10:18Z</time>
      </trkpt>
      <trkpt lat="48.70691" lon="-3.45923">
        <ele>64.2</ele>
        <time>2025-09-26T09:10:26Z</time>
      </trkpt>
      <trkpt lat="48.70691" lon="-3.45923">
        <ele>64.2</ele>
        <time>2025-09-26T09:10:40Z</time>
      </trkpt>
      <trkpt lat="48.7069" lon="-3.45923">
        <ele>64.2</ele>
        <time>2025-09-26T09:10:49Z</time>
      </trkpt>
      <trkpt lat="48.70691" lon="-3.45924">
        <ele>64.2</ele>
        <time>2025-09-26T09:11:02Z</time>
      </trkpt>
      <trkpt lat="48.70691" lon="-3.45924">
        <ele>64.2</ele>
        <time>2025-09-26T09:11:17Z</time>
      </trkpt>
      <trkpt lat="48.70691" lon="-3.45924">
        <ele>64.2</ele>
        <time>2025-09-26T09:11:22Z</time>
      </trkpt>
      <trkpt lat="48.70691" lon="-3.45924">
        <ele>64.2</ele>
        <time>2025-09-26T09:11:34Z</time>
      </trkpt>
      <trkpt lat="48.70691" lon="-3.45924">
        <ele>64.2</ele>
        <time>2025-09-26T09:11:50Z</time>
      </trkpt>
      <trkpt lat="48.70691" lon="-3.45923">
        <ele>64.2</ele>
        <time>2025-09-26T09:12:01Z</time>
      </trkpt>
      <trkpt lat="48.70691" lon="-3.45923">
        <ele>64.2</ele>
        <time>2025-09-26T09:12:12Z</time>
      </trkpt>
      <trkpt lat="48.7069" lon="-3.45924">
        <ele>64.2</ele>
        <time>2025-09-26T09:12:24Z</time>
      </trkpt>
      <trkpt lat="48.7069" lon="-3.45924">
        <ele>64.2</ele>
        <time>2025-09-26T09:12:43Z</time>
      </trkpt>
      <trkpt lat="48.7069" lon="-3.45924">
        <ele>64.2</ele>
        <time>2025-09-26T09:13:00Z</time>
      </trkpt>
      <trkpt lat="48.7069" lon="-3.45924">
        <ele>64.2</ele>
        <time>2025-09-26T09:13:14Z</time>
      </trkpt>
      <trkpt lat="48.7069" lon="-3.45924">
        <ele>64.2</ele>
        <time>2025-09-26T09:13:23Z</time>
      </trkpt>
      <trkpt lat="48.7069" lon="-3.45924">
        <ele>64.2</ele>
        <time>2025-09-26T09:13:36Z</time>
      </trkpt>
      <trkpt lat="48.7069" lon="-3.45924">
        <ele>64.2</ele>
        <time>2025-09-26T09:13:50Z</time>
      </trkpt>
      <trkpt lat="48.7069" lon="-3.45924">
        <ele>64.2</ele>
        <time>2025-09-26T09:13:55Z</time>
      </trkpt>
      <trkpt lat="48.7069" lon="-3.45924">
        <ele>64.2</ele>
        <time>2025-09-26T09:13:59Z</time>
      </trkpt>
      <trkpt lat="48.7069" lon="-3.45924">
        <ele>64.2</ele>
        <time>2025-09-26T09:14:01Z</time>
      </trkpt>
      <trkpt lat="48.7069" lon="-3.45924">
        <ele>64.2</ele>
        <time>2025-09-26T09:14:05Z</time>
      </trkpt>
      <trkpt lat="48.7069" lon="-3.45924">
        <ele>64.2</ele>
        <time>2025-09-26T09:14:18Z</time>
      </trkpt>
      <trkpt lat="48.7069" lon="-3.45924">
        <ele>64.2</ele>
        <time>2025-09-26T09:14:28Z</time>
      </trkpt>
      <trkpt lat="48.7069" lon="-3.45924">
        <ele>64.2</ele>
        <time>2025-09-26T09:14:30Z</time>
      </trkpt>
      <trkpt lat="48.7069" lon="-3.45924">
        <ele>64.2</ele>
        <time>2025-09-26T09:14:45Z</time>
      </trkpt>
      <trkpt lat="48.70689" lon="-3.45923">
        <ele>64.2</ele>
        <time>2025-09-26T09:14:48Z</time>
      </trkpt>
      <trkpt lat="48.70687" lon="-3.45919">
        <ele>64</ele>
        <time>2025-09-26T09:14:51Z</time>
      </trkpt>
      <trkpt lat="48.7068" lon="-3.45907">
        <ele>64</ele>
        <time>2025-09-26T09:14:56Z</time>
      </trkpt>
      <trkpt lat="48.70669" lon="-3.45884">
        <ele>63.8</ele>
        <time>2025-09-26T09:15:02Z</time>
      </trkpt>
      <trkpt lat="48.70651" lon="-3.45868">
        <ele>64</ele>
        <time>2025-09-26T09:15:08Z</time>
      </trkpt>
      <trkpt lat="48.7063" lon="-3.45853">
        <ele>64.4</ele>
        <time>2025-09-26T09:15:15Z</time>
      </trkpt>
      <trkpt lat="48.70607" lon="-3.4583">
        <ele>64.8</ele>
        <time>2025-09-26T09:15:22Z</time>
      </trkpt>
      <trkpt lat="48.70604" lon="-3.45827">
        <ele>65</ele>
        <time>2025-09-26T09:15:23Z</time>
      </trkpt>
      <trkpt lat="48.70597" lon="-3.4582">
        <ele>65.4</ele>
        <time>2025-09-26T09:15:25Z</time>
      </trkpt>
      <trkpt lat="48.70588" lon="-3.45807">
        <ele>66.2</ele>
        <time>2025-09-26T09:15:28Z</time>
      </trkpt>
      <trkpt lat="48.70586" lon="-3.45802">
        <ele>66.4</ele>
        <time>2025-09-26T09:15:29Z</time>
      </trkpt>
      <trkpt lat="48.70585" lon="-3.4578">
        <ele>66.8</ele>
        <time>2025-09-26T09:15:33Z</time>
      </trkpt>
      <trkpt lat="48.70588" lon="-3.45766">
        <ele>67.4</ele>
        <time>2025-09-26T09:15:36Z</time>
      </trkpt>
      <trkpt lat="48.7059" lon="-3.45762">
        <ele>67.4</ele>
        <time>2025-09-26T09:15:37Z</time>
      </trkpt>
      <trkpt lat="48.70593" lon="-3.45752">
        <ele>67.4</ele>
        <time>2025-09-26T09:15:39Z</time>
      </trkpt>
      <trkpt lat="48.70606" lon="-3.45719">
        <ele>67.2</ele>
        <time>2025-09-26T09:15:46Z</time>
      </trkpt>
      <trkpt lat="48.70608" lon="-3.45714">
        <ele>67</ele>
        <time>2025-09-26T09:15:47Z</time>
      </trkpt>
      <trkpt lat="48.70614" lon="-3.45699">
        <ele>66.6</ele>
        <time>2025-09-26T09:15:50Z</time>
      </trkpt>
      <trkpt lat="48.70621" lon="-3.45686">
        <ele>66.4</ele>
        <time>2025-09-26T09:15:54Z</time>
      </trkpt>
      <trkpt lat="48.70627" lon="-3.45682">
        <ele>66.4</ele>
        <time>2025-09-26T09:15:57Z</time>
      </trkpt>
      <trkpt lat="48.70632" lon="-3.45684">
        <ele>66.2</ele>
        <time>2025-09-26T09:15:59Z</time>
      </trkpt>
      <trkpt lat="48.70648" lon="-3.45699">
        <ele>65.4</ele>
        <time>2025-09-26T09:16:04Z</time>
      </trkpt>
      <trkpt lat="48.70661" lon="-3.45712">
        <ele>64.2</ele>
        <time>2025-09-26T09:16:07Z</time>
      </trkpt>
      <trkpt lat="48.70676" lon="-3.45728">
        <ele>63</ele>
        <time>2025-09-26T09:16:10Z</time>
      </trkpt>
      <trkpt lat="48.70688" lon="-3.4574">
        <ele>61.8</ele>
        <time>2025-09-26T09:16:12Z</time>
      </trkpt>
      <trkpt lat="48.70701" lon="-3.45752">
        <ele>61</ele>
        <time>2025-09-26T09:16:14Z</time>
      </trkpt>
      <trkpt lat="48.70708" lon="-3.45755">
        <ele>60.8</ele>
        <time>2025-09-26T09:16:15Z</time>
      </trkpt>
      <trkpt lat="48.70715" lon="-3.45758">
        <ele>60.6</ele>
        <time>2025-09-26T09:16:16Z</time>
      </trkpt>
      <trkpt lat="48.70722" lon="-3.45758">
        <ele>59.6</ele>
        <time>2025-09-26T09:16:17Z</time>
      </trkpt>
      <trkpt lat="48.70729" lon="-3.45758">
        <ele>59.2</ele>
        <time>2025-09-26T09:16:18Z</time>
      </trkpt>
      <trkpt lat="48.70742" lon="-3.45752">
        <ele>58.8</ele>
        <time>2025-09-26T09:16:20Z</time>
      </trkpt>
      <trkpt lat="48.70747" lon="-3.45746">
        <ele>58.4</ele>
        <time>2025-09-26T09:16:21Z</time>
      </trkpt>
      <trkpt lat="48.70751" lon="-3.45738">
        <ele>58.2</ele>
        <time>2025-09-26T09:16:22Z</time>
      </trkpt>
      <trkpt lat="48.70766" lon="-3.45705">
        <ele>57.8</ele>
        <time>2025-09-26T09:16:26Z</time>
      </trkpt>
      <trkpt lat="48.7077" lon="-3.45697">
        <ele>57.6</ele>
        <time>2025-09-26T09:16:27Z</time>
      </trkpt>
      <trkpt lat="48.70775" lon="-3.4569">
        <ele>57.4</ele>
        <time>2025-09-26T09:16:28Z</time>
      </trkpt>
      <trkpt lat="48.7078" lon="-3.45685">
        <ele>57</ele>
        <time>2025-09-26T09:16:29Z</time>
      </trkpt>
      <trkpt lat="48.70786" lon="-3.4568">
        <ele>57</ele>
        <time>2025-09-26T09:16:30Z</time>
      </trkpt>
      <trkpt lat="48.708" lon="-3.45671">
        <ele>56</ele>
        <time>2025-09-26T09:16:32Z</time>
      </trkpt>
      <trkpt lat="48.70815" lon="-3.45661">
        <ele>55</ele>
        <time>2025-09-26T09:16:34Z</time>
      </trkpt>
      <trkpt lat="48.70822" lon="-3.45655">
        <ele>54.6</ele>
        <time>2025-09-26T09:16:35Z</time>
      </trkpt>
      <trkpt lat="48.70834" lon="-3.45637">
        <ele>53.8</ele>
        <time>2025-09-26T09:16:37Z</time>
      </trkpt>
      <trkpt lat="48.70839" lon="-3.45628">
        <ele>53.8</ele>
        <time>2025-09-26T09:16:38Z</time>
      </trkpt>
      <trkpt lat="48.70843" lon="-3.45618">
        <ele>53.8</ele>
        <time>2025-09-26T09:16:39Z</time>
      </trkpt>
      <trkpt lat="48.70849" lon="-3.45599">
        <ele>54</ele>
        <time>2025-09-26T09:16:41Z</time>
      </trkpt>
      <trkpt lat="48.70851" lon="-3.4559">
        <ele>54.2</ele>
        <time>2025-09-26T09:16:42Z</time>
      </trkpt>
      <trkpt lat="48.70855" lon="-3.45574">
        <ele>55.6</ele>
        <time>2025-09-26T09:16:44Z</time>
      </trkpt>
      <trkpt lat="48.70861" lon="-3.45551">
        <ele>56.8</ele>
        <time>2025-09-26T09:16:47Z</time>
      </trkpt>
      <trkpt lat="48.70864" lon="-3.45542">
        <ele>57.2</ele>
        <time>2025-09-26T09:16:48Z</time>
      </trkpt>
      <trkpt lat="48.70868" lon="-3.45525">
        <ele>57.8</ele>
        <time>2025-09-26T09:16:50Z</time>
      </trkpt>
      <trkpt lat="48.70881" lon="-3.45472">
        <ele>58.2</ele>
        <time>2025-09-26T09:16:57Z</time>
      </trkpt>
      <trkpt lat="48.70884" lon="-3.4546">
        <ele>57.8</ele>
        <time>2025-09-26T09:16:59Z</time>
      </trkpt>
      <trkpt lat="48.7089" lon="-3.45449">
        <ele>57.8</ele>
        <time>2025-09-26T09:17:02Z</time>
      </trkpt>
      <trkpt lat="48.70912" lon="-3.45444">
        <ele>57</ele>
        <time>2025-09-26T09:17:07Z</time>
      </trkpt>
      <trkpt lat="48.70917" lon="-3.45444">
        <ele>56.6</ele>
        <time>2025-09-26T09:17:08Z</time>
      </trkpt>
      <trkpt lat="48.70939" lon="-3.45444">
        <ele>56</ele>
        <time>2025-09-26T09:17:12Z</time>
      </trkpt>
      <trkpt lat="48.7095" lon="-3.45444">
        <ele>55.6</ele>
        <time>2025-09-26T09:17:14Z</time>
      </trkpt>
      <trkpt lat="48.70975" lon="-3.45442">
        <ele>54.8</ele>
        <time>2025-09-26T09:17:18Z</time>
      </trkpt>
      <trkpt lat="48.70992" lon="-3.45438">
        <ele>54.6</ele>
        <time>2025-09-26T09:17:21Z</time>
      </trkpt>
      <trkpt lat="48.71009" lon="-3.45433">
        <ele>54.4</ele>
        <time>2025-09-26T09:17:24Z</time>
      </trkpt>
      <trkpt lat="48.71025" lon="-3.45425">
        <ele>54.4</ele>
        <time>2025-09-26T09:17:28Z</time>
      </trkpt>
      <trkpt lat="48.71027" lon="-3.45422">
        <ele>54.4</ele>
        <time>2025-09-26T09:17:29Z</time>
      </trkpt>
      <trkpt lat="48.71027" lon="-3.45412">
        <ele>54.6</ele>
        <time>2025-09-26T09:17:31Z</time>
      </trkpt>
      <trkpt lat="48.7102" lon="-3.45382">
        <ele>55</ele>
        <time>2025-09-26T09:17:36Z</time>
      </trkpt>
      <trkpt lat="48.71018" lon="-3.45376">
        <ele>55.2</ele>
        <time>2025-09-26T09:17:37Z</time>
      </trkpt>
      <trkpt lat="48.71016" lon="-3.45364">
        <ele>55.6</ele>
        <time>2025-09-26T09:17:39Z</time>
      </trkpt>
      <trkpt lat="48.71013" lon="-3.45346">
        <ele>56</ele>
        <time>2025-09-26T09:17:42Z</time>
      </trkpt>
      <trkpt lat="48.71012" lon="-3.4534">
        <ele>56.2</ele>
        <time>2025-09-26T09:17:43Z</time>
      </trkpt>
      <trkpt lat="48.71012" lon="-3.45328">
        <ele>56.4</ele>
        <time>2025-09-26T09:17:45Z</time>
      </trkpt>
      <trkpt lat="48.71012" lon="-3.45317">
        <ele>56.8</ele>
        <time>2025-09-26T09:17:47Z</time>
      </trkpt>
      <trkpt lat="48.71012" lon="-3.45312">
        <ele>57</ele>
        <time>2025-09-26T09:17:48Z</time>
      </trkpt>
      <trkpt lat="48.71005" lon="-3.45289">
        <ele>58</ele>
        <time>2025-09-26T09:17:53Z</time>
      </trkpt>
      <trkpt lat="48.71002" lon="-3.45285">
        <ele>58.2</ele>
        <time>2025-09-26T09:17:54Z</time>
      </trkpt>
      <trkpt lat="48.70999" lon="-3.45282">
        <ele>58.4</ele>
        <time>2025-09-26T09:17:55Z</time>
      </trkpt>
      <trkpt lat="48.70995" lon="-3.45278">
        <ele>58.6</ele>
        <time>2025-09-26T09:17:56Z</time>
      </trkpt>
      <trkpt lat="48.70992" lon="-3.45269">
        <ele>59</ele>
        <time>2025-09-26T09:17:58Z</time>
      </trkpt>
      <trkpt lat="48.70992" lon="-3.45264">
        <ele>59.2</ele>
        <time>2025-09-26T09:17:59Z</time>
      </trkpt>
      <trkpt lat="48.70996" lon="-3.45247">
        <ele>59.6</ele>
        <time>2025-09-26T09:18:02Z</time>
      </trkpt>
      <trkpt lat="48.70999" lon="-3.45232">
        <ele>60.4</ele>
        <time>2025-09-26T09:18:04Z</time>
      </trkpt>
      <trkpt lat="48.71003" lon="-3.4521">
        <ele>61.4</ele>
        <time>2025-09-26T09:18:07Z</time>
      </trkpt>
      <trkpt lat="48.71003" lon="-3.45203">
        <ele>61.4</ele>
        <time>2025-09-26T09:18:08Z</time>
      </trkpt>
      <trkpt lat="48.71007" lon="-3.45167">
        <ele>62.4</ele>
        <time>2025-09-26T09:18:13Z</time>
      </trkpt>
      <trkpt lat="48.71008" lon="-3.45161">
        <ele>62.4</ele>
        <time>2025-09-26T09:18:14Z</time>
      </trkpt>
      <trkpt lat="48.7101" lon="-3.45148">
        <ele>62.6</ele>
        <time>2025-09-26T09:18:16Z</time>
      </trkpt>
      <trkpt lat="48.71014" lon="-3.45127">
        <ele>62.6</ele>
        <time>2025-09-26T09:18:19Z</time>
      </trkpt>
      <trkpt lat="48.71016" lon="-3.45114">
        <ele>62.6</ele>
        <time>2025-09-26T09:18:21Z</time>
      </trkpt>
      <trkpt lat="48.71018" lon="-3.45108">
        <ele>62.6</ele>
        <time>2025-09-26T09:18:22Z</time>
      </trkpt>
      <trkpt lat="48.71024" lon="-3.45074">
        <ele>62.8</ele>
        <time>2025-09-26T09:18:27Z</time>
      </trkpt>
      <trkpt lat="48.71025" lon="-3.45065">
        <ele>63</ele>
        <time>2025-09-26T09:18:28Z</time>
      </trkpt>
      <trkpt lat="48.71034" lon="-3.45017">
        <ele>63</ele>
        <time>2025-09-26T09:18:35Z</time>
      </trkpt>
      <trkpt lat="48.71037" lon="-3.45006">
        <ele>63.4</ele>
        <time>2025-09-26T09:18:39Z</time>
      </trkpt>
      <trkpt lat="48.71038" lon="-3.45004">
        <ele>63.6</ele>
        <time>2025-09-26T09:18:44Z</time>
      </trkpt>
      <trkpt lat="48.71038" lon="-3.45004">
        <ele>64</ele>
        <time>2025-09-26T09:18:46Z</time>
      </trkpt>
      <trkpt lat="48.71038" lon="-3.45004">
        <ele>64</ele>
        <time>2025-09-26T09:18:52Z</time>
      </trkpt>
      <trkpt lat="48.71038" lon="-3.45004">
        <ele>64</ele>
        <time>2025-09-26T09:18:55Z</time>
      </trkpt>
      <trkpt lat="48.71038" lon="-3.45004">
        <ele>63.8</ele>
        <time>2025-09-26T09:18:58Z</time>
      </trkpt>
      <trkpt lat="48.71036" lon="-3.45001">
        <ele>63.8</ele>
        <time>2025-09-26T09:19:01Z</time>
      </trkpt>
      <trkpt lat="48.71031" lon="-3.45002">
        <ele>63.6</ele>
        <time>2025-09-26T09:19:03Z</time>
      </trkpt>
      <trkpt lat="48.71017" lon="-3.45">
        <ele>63.4</ele>
        <time>2025-09-26T09:19:07Z</time>
      </trkpt>
      <trkpt lat="48.71013" lon="-3.44998">
        <ele>63.4</ele>
        <time>2025-09-26T09:19:08Z</time>
      </trkpt>
      <trkpt lat="48.70989" lon="-3.44985">
        <ele>63.6</ele>
        <time>2025-09-26T09:19:14Z</time>
      </trkpt>
      <trkpt lat="48.70976" lon="-3.44973">
        <ele>63.8</ele>
        <time>2025-09-26T09:19:19Z</time>
      </trkpt>
      <trkpt lat="48.70978" lon="-3.44957">
        <ele>63.6</ele>
        <time>2025-09-26T09:19:22Z</time>
      </trkpt>
      <trkpt lat="48.7098" lon="-3.44951">
        <ele>63.6</ele>
        <time>2025-09-26T09:19:23Z</time>
      </trkpt>
      <trkpt lat="48.70982" lon="-3.44945">
        <ele>63.2</ele>
        <time>2025-09-26T09:19:24Z</time>
      </trkpt>
      <trkpt lat="48.70983" lon="-3.44931">
        <ele>62.8</ele>
        <time>2025-09-26T09:19:26Z</time>
      </trkpt>
      <trkpt lat="48.70976" lon="-3.44901">
        <ele>62.6</ele>
        <time>2025-09-26T09:19:31Z</time>
      </trkpt>
      <trkpt lat="48.70972" lon="-3.44892">
        <ele>62.6</ele>
        <time>2025-09-26T09:19:33Z</time>
      </trkpt>
      <trkpt lat="48.70969" lon="-3.4489">
        <ele>62.6</ele>
        <time>2025-09-26T09:19:34Z</time>
      </trkpt>
      <trkpt lat="48.70965" lon="-3.44893">
        <ele>62.8</ele>
        <time>2025-09-26T09:19:36Z</time>
      </trkpt>
      <trkpt lat="48.70964" lon="-3.44897">
        <ele>62.8</ele>
        <time>2025-09-26T09:19:37Z</time>
      </trkpt>
      <trkpt lat="48.70966" lon="-3.44904">
        <ele>63.6</ele>
        <time>2025-09-26T09:19:39Z</time>
      </trkpt>
      <trkpt lat="48.70971" lon="-3.44925">
        <ele>63.6</ele>
        <time>2025-09-26T09:19:45Z</time>
      </trkpt>
      <trkpt lat="48.7097" lon="-3.44927">
        <ele>63.6</ele>
        <time>2025-09-26T09:19:46Z</time>
      </trkpt>
      <trkpt lat="48.70969" lon="-3.44926">
        <ele>63.6</ele>
        <time>2025-09-26T09:19:48Z</time>
      </trkpt>
      <trkpt lat="48.70969" lon="-3.44923">
        <ele>63.8</ele>
        <time>2025-09-26T09:19:50Z</time>
      </trkpt>
      <trkpt lat="48.70968" lon="-3.4491">
        <ele>63.6</ele>
        <time>2025-09-26T09:19:53Z</time>
      </trkpt>
      <trkpt lat="48.70967" lon="-3.44906">
        <ele>63.8</ele>
        <time>2025-09-26T09:19:54Z</time>
      </trkpt>
      <trkpt lat="48.70963" lon="-3.44902">
        <ele>63.6</ele>
        <time>2025-09-26T09:19:56Z</time>
      </trkpt>
      <trkpt lat="48.70962" lon="-3.44902">
        <ele>63.6</ele>
        <time>2025-09-26T09:20:00Z</time>
      </trkpt>
      <trkpt lat="48.70961" lon="-3.44904">
        <ele>63.6</ele>
        <time>2025-09-26T09:20:06Z</time>
      </trkpt>
      <trkpt lat="48.7096" lon="-3.44902">
        <ele>63.6</ele>
        <time>2025-09-26T09:20:13Z</time>
      </trkpt>
      <trkpt lat="48.7096" lon="-3.449">
        <ele>63.4</ele>
        <time>2025-09-26T09:20:18Z</time>
      </trkpt>
      <trkpt lat="48.7096" lon="-3.449">
        <ele>63.2</ele>
        <time>2025-09-26T09:20:24Z</time>
      </trkpt>
      <trkpt lat="48.7096" lon="-3.449">
        <ele>63.6</ele>
        <time>2025-09-26T09:20:28Z</time>
      </trkpt>
      <trkpt lat="48.70959" lon="-3.44901">
        <ele>63.4</ele>
        <time>2025-09-26T09:20:34Z</time>
      </trkpt>
      <trkpt lat="48.70959" lon="-3.44901">
        <ele>63.2</ele>
        <time>2025-09-26T09:20:49Z</time>
      </trkpt>
      <trkpt lat="48.70959" lon="-3.44901">
        <ele>63.2</ele>
        <time>2025-09-26T09:20:51Z</time>
      </trkpt>
      <trkpt lat="48.70959" lon="-3.44901">
        <ele>63.2</ele>
        <time>2025-09-26T09:21:05Z</time>
      </trkpt>
      <trkpt lat="48.70959" lon="-3.44901">
        <ele>63.2</ele>
        <time>2025-09-26T09:21:08Z</time>
      </trkpt>
      <trkpt lat="48.70959" lon="-3.44901">
        <ele>63.2</ele>
        <time>2025-09-26T09:21:12Z</time>
      </trkpt>
      <trkpt lat="48.70959" lon="-3.44902">
        <ele>63.2</ele>
        <time>2025-09-26T09:21:17Z</time>
      </trkpt>
      <trkpt lat="48.70959" lon="-3.44902">
        <ele>63.2</ele>
        <time>2025-09-26T09:21:18Z</time>
      </trkpt>
      <trkpt lat="48.70959" lon="-3.44902">
        <ele>63.2</ele>
        <time>2025-09-26T09:21:30Z</time>
      </trkpt>
      <trkpt lat="48.70959" lon="-3.44902">
        <ele>63.2</ele>
        <time>2025-09-26T09:21:35Z</time>
      </trkpt>
      <trkpt lat="48.70959" lon="-3.44902">
        <ele>63.2</ele>
        <time>2025-09-26T09:21:36Z</time>
      </trkpt>
      <trkpt lat="48.70959" lon="-3.44902">
        <ele>63.2</ele>
        <time>2025-09-26T09:21:37Z</time>
      </trkpt>
      <trkpt lat="48.70959" lon="-3.44902">
        <ele>63.2</ele>
        <time>2025-09-26T09:21:38Z</time>
      </trkpt>
      <trkpt lat="48.70959" lon="-3.44902">
        <ele>63.2</ele>
        <time>2025-09-26T09:21:48Z</time>
      </trkpt>
      <trkpt lat="48.70959" lon="-3.44902">
        <ele>63.2</ele>
        <time>2025-09-26T09:22:05Z</time>
      </trkpt>
      <trkpt lat="48.70959" lon="-3.44902">
        <ele>63.2</ele>
        <time>2025-09-26T09:22:26Z</time>
      </trkpt>
      <trkpt lat="48.70959" lon="-3.44902">
        <ele>63.2</ele>
        <time>2025-09-26T09:22:45Z</time>
      </trkpt>
      <trkpt lat="48.70959" lon="-3.44902">
        <ele>63.2</ele>
        <time>2025-09-26T09:23:12Z</time>
      </trkpt>
      <trkpt lat="48.70959" lon="-3.44902">
        <ele>63.2</ele>
        <time>2025-09-26T09:23:28Z</time>
      </trkpt>
      <trkpt lat="48.70959" lon="-3.44902">
        <ele>63.2</ele>
        <time>2025-09-26T09:23:52Z</time>
      </trkpt>
      <trkpt lat="48.70959" lon="-3.44902">
        <ele>63.2</ele>
        <time>2025-09-26T09:24:25Z</time>
      </trkpt>
      <trkpt lat="48.70959" lon="-3.44902">
        <ele>63.2</ele>
        <time>2025-09-26T09:24:39Z</time>
      </trkpt>
      <trkpt lat="48.70959" lon="-3.44902">
        <ele>63.2</ele>
        <time>2025-09-26T09:24:48Z</time>
      </trkpt>
      <trkpt lat="48.70959" lon="-3.44902">
        <ele>63.2</ele>
        <time>2025-09-26T09:24:53Z</time>
      </trkpt>
      <trkpt lat="48.70959" lon="-3.44902">
        <ele>63.2</ele>
        <time>2025-09-26T09:25:11Z</time>
      </trkpt>
      <trkpt lat="48.70959" lon="-3.44902">
        <ele>63.2</ele>
        <time>2025-09-26T09:25:26Z</time>
      </trkpt>
      <trkpt lat="48.70959" lon="-3.44902">
        <ele>63.2</ele>
        <time>2025-09-26T09:25:46Z</time>
      </trkpt>
      <trkpt lat="48.70959" lon="-3.44902">
        <ele>63.2</ele>
        <time>2025-09-26T09:26:02Z</time>
      </trkpt>
      <trkpt lat="48.70959" lon="-3.44902">
        <ele>63.2</ele>
        <time>2025-09-26T09:26:15Z</time>
      </trkpt>
      <trkpt lat="48.70959" lon="-3.44902">
        <ele>63.2</ele>
        <time>2025-09-26T09:26:24Z</time>
      </trkpt>
      <trkpt lat="48.70959" lon="-3.44902">
        <ele>63.2</ele>
        <time>2025-09-26T09:26:27Z</time>
      </trkpt>
      <trkpt lat="48.70959" lon="-3.44902">
        <ele>63.2</ele>
        <time>2025-09-26T09:26:35Z</time>
      </trkpt>
      <trkpt lat="48.70959" lon="-3.44902">
        <ele>63.2</ele>
        <time>2025-09-26T09:26:47Z</time>
      </trkpt>
      <trkpt lat="48.70959" lon="-3.44902">
        <ele>63.2</ele>
        <time>2025-09-26T09:26:52Z</time>
      </trkpt>
      <trkpt lat="48.70959" lon="-3.44902">
        <ele>63.2</ele>
        <time>2025-09-26T09:26:59Z</time>
      </trkpt>
      <trkpt lat="48.70958" lon="-3.44901">
        <ele>63.2</ele>
        <time>2025-09-26T09:27:06Z</time>
      </trkpt>
      <trkpt lat="48.70957" lon="-3.44899">
        <ele>63.2</ele>
        <time>2025-09-26T09:27:09Z</time>
      </trkpt>
      <trkpt lat="48.70952" lon="-3.44892">
        <ele>63.4</ele>
        <time>2025-09-26T09:27:15Z</time>
      </trkpt>
      <trkpt lat="48.70949" lon="-3.44885">
        <ele>63</ele>
        <time>2025-09-26T09:27:22Z</time>
      </trkpt>
      <trkpt lat="48.70949" lon="-3.44885">
        <ele>62.8</ele>
        <time>2025-09-26T09:27:25Z</time>
      </trkpt>
      <trkpt lat="48.70949" lon="-3.44885">
        <ele>62.8</ele>
        <time>2025-09-26T09:27:29Z</time>
      </trkpt>
      <trkpt lat="48.70949" lon="-3.44885">
        <ele>62.6</ele>
        <time>2025-09-26T09:27:34Z</time>
      </trkpt>
      <trkpt lat="48.70949" lon="-3.44885">
        <ele>63</ele>
        <time>2025-09-26T09:27:39Z</time>
      </trkpt>
      <trkpt lat="48.70947" lon="-3.44884">
        <ele>62.8</ele>
        <time>2025-09-26T09:27:48Z</time>
      </trkpt>
      <trkpt lat="48.70947" lon="-3.44884">
        <ele>62.8</ele>
        <time>2025-09-26T09:27:49Z</time>
      </trkpt>
      <trkpt lat="48.70946" lon="-3.44884">
        <ele>62.6</ele>
        <time>2025-09-26T09:27:55Z</time>
      </trkpt>
      <trkpt lat="48.70946" lon="-3.44884">
        <ele>62.4</ele>
        <time>2025-09-26T09:28:11Z</time>
      </trkpt>
      <trkpt lat="48.70946" lon="-3.44884">
        <ele>62.4</ele>
        <time>2025-09-26T09:28:13Z</time>
      </trkpt>
      <trkpt lat="48.70946" lon="-3.44884">
        <ele>62.4</ele>
        <time>2025-09-26T09:28:18Z</time>
      </trkpt>
      <trkpt lat="48.70946" lon="-3.44884">
        <ele>62.4</ele>
        <time>2025-09-26T09:28:26Z</time>
      </trkpt>
      <trkpt lat="48.70947" lon="-3.44884">
        <ele>62.4</ele>
        <time>2025-09-26T09:28:35Z</time>
      </trkpt>
      <trkpt lat="48.70947" lon="-3.44884">
        <ele>62.4</ele>
        <time>2025-09-26T09:28:37Z</time>
      </trkpt>
      <trkpt lat="48.70947" lon="-3.44884">
        <ele>62.4</ele>
        <time>2025-09-26T09:28:39Z</time>
      </trkpt>
      <trkpt lat="48.70947" lon="-3.44884">
        <ele>62.4</ele>
        <time>2025-09-26T09:28:52Z</time>
      </trkpt>
      <trkpt lat="48.70947" lon="-3.44884">
        <ele>62.4</ele>
        <time>2025-09-26T09:29:07Z</time>
      </trkpt>
      <trkpt lat="48.70947" lon="-3.44884">
        <ele>62.4</ele>
        <time>2025-09-26T09:29:22Z</time>
      </trkpt>
      <trkpt lat="48.70947" lon="-3.44884">
        <ele>62.4</ele>
        <time>2025-09-26T09:29:23Z</time>
      </trkpt>
      <trkpt lat="48.70947" lon="-3.44884">
        <ele>62.4</ele>
        <time>2025-09-26T09:29:29Z</time>
      </trkpt>
      <trkpt lat="48.70947" lon="-3.44884">
        <ele>62.4</ele>
        <time>2025-09-26T09:29:32Z</time>
      </trkpt>
      <trkpt lat="48.70947" lon="-3.44884">
        <ele>62.4</ele>
        <time>2025-09-26T09:29:50Z</time>
      </trkpt>
      <trkpt lat="48.70947" lon="-3.44884">
        <ele>62.4</ele>
        <time>2025-09-26T09:29:57Z</time>
      </trkpt>
      <trkpt lat="48.70947" lon="-3.44884">
        <ele>62.4</ele>
        <time>2025-09-26T09:30:09Z</time>
      </trkpt>
      <trkpt lat="48.70947" lon="-3.44884">
        <ele>62.4</ele>
        <time>2025-09-26T09:30:13Z</time>
      </trkpt>
      <trkpt lat="48.70947" lon="-3.44884">
        <ele>62.4</ele>
        <time>2025-09-26T09:30:19Z</time>
      </trkpt>
      <trkpt lat="48.70947" lon="-3.44884">
        <ele>62.4</ele>
        <time>2025-09-26T09:30:33Z</time>
      </trkpt>
      <trkpt lat="48.70947" lon="-3.44884">
        <ele>62.4</ele>
        <time>2025-09-26T09:30:49Z</time>
      </trkpt>
      <trkpt lat="48.70947" lon="-3.44884">
        <ele>62.4</ele>
        <time>2025-09-26T09:31:22Z</time>
      </trkpt>
      <trkpt lat="48.70947" lon="-3.44884">
        <ele>62.4</ele>
        <time>2025-09-26T09:31:41Z</time>
      </trkpt>
      <trkpt lat="48.70947" lon="-3.44884">
        <ele>62.4</ele>
        <time>2025-09-26T09:32:00Z</time>
      </trkpt>
      <trkpt lat="48.70947" lon="-3.44884">
        <ele>62.4</ele>
        <time>2025-09-26T09:32:43Z</time>
      </trkpt>
      <trkpt lat="48.70947" lon="-3.44884">
        <ele>62.4</ele>
        <time>2025-09-26T09:33:14Z</time>
      </trkpt>
      <trkpt lat="48.70947" lon="-3.44884">
        <ele>62.4</ele>
        <time>2025-09-26T09:33:18Z</time>
      </trkpt>
      <trkpt lat="48.70947" lon="-3.44884">
        <ele>62.4</ele>
        <time>2025-09-26T09:33:21Z</time>
      </trkpt>
      <trkpt lat="48.70949" lon="-3.44884">
        <ele>62.4</ele>
        <time>2025-09-26T09:33:31Z</time>
      </trkpt>
      <trkpt lat="48.70949" lon="-3.44884">
        <ele>62.4</ele>
        <time>2025-09-26T09:33:39Z</time>
      </trkpt>
      <trkpt lat="48.70949" lon="-3.44884">
        <ele>62.4</ele>
        <time>2025-09-26T09:33:45Z</time>
      </trkpt>
      <trkpt lat="48.70949" lon="-3.44884">
        <ele>62.4</ele>
        <time>2025-09-26T09:34:00Z</time>
      </trkpt>
      <trkpt lat="48.70949" lon="-3.44884">
        <ele>62.4</ele>
        <time>2025-09-26T09:34:12Z</time>
      </trkpt>
      <trkpt lat="48.70949" lon="-3.44884">
        <ele>62.4</ele>
        <time>2025-09-26T09:34:13Z</time>
      </trkpt>
      <trkpt lat="48.70949" lon="-3.44884">
        <ele>62.4</ele>
        <time>2025-09-26T09:34:14Z</time>
      </trkpt>
      <trkpt lat="48.70949" lon="-3.44884">
        <ele>62.4</ele>
        <time>2025-09-26T09:34:15Z</time>
      </trkpt>
      <trkpt lat="48.70949" lon="-3.44884">
        <ele>62.4</ele>
        <time>2025-09-26T09:34:27Z</time>
      </trkpt>
      <trkpt lat="48.70951" lon="-3.44887">
        <ele>62.4</ele>
        <time>2025-09-26T09:34:34Z</time>
      </trkpt>
      <trkpt lat="48.70951" lon="-3.44887">
        <ele>62.4</ele>
        <time>2025-09-26T09:34:41Z</time>
      </trkpt>
      <trkpt lat="48.70951" lon="-3.44887">
        <ele>62.4</ele>
        <time>2025-09-26T09:34:46Z</time>
      </trkpt>
      <trkpt lat="48.70951" lon="-3.44887">
        <ele>62.4</ele>
        <time>2025-09-26T09:34:47Z</time>
      </trkpt>
      <trkpt lat="48.70951" lon="-3.44887">
        <ele>62.4</ele>
        <time>2025-09-26T09:34:57Z</time>
      </trkpt>
      <trkpt lat="48.70951" lon="-3.44887">
        <ele>62.4</ele>
        <time>2025-09-26T09:35:01Z</time>
      </trkpt>
      <trkpt lat="48.70951" lon="-3.44887">
        <ele>62.4</ele>
        <time>2025-09-26T09:35:04Z</time>
      </trkpt>
      <trkpt lat="48.70952" lon="-3.44888">
        <ele>62.4</ele>
        <time>2025-09-26T09:35:20Z</time>
      </trkpt>
      <trkpt lat="48.70957" lon="-3.44887">
        <ele>62.6</ele>
        <time>2025-09-26T09:35:23Z</time>
      </trkpt>
      <trkpt lat="48.70965" lon="-3.44884">
        <ele>62.2</ele>
        <time>2025-09-26T09:35:29Z</time>
      </trkpt>
      <trkpt lat="48.70971" lon="-3.44885">
        <ele>62</ele>
        <time>2025-09-26T09:35:33Z</time>
      </trkpt>
      <trkpt lat="48.70976" lon="-3.44891">
        <ele>62</ele>
        <time>2025-09-26T09:35:35Z</time>
      </trkpt>
      <trkpt lat="48.70986" lon="-3.4492">
        <ele>62.6</ele>
        <time>2025-09-26T09:35:41Z</time>
      </trkpt>
      <trkpt lat="48.70988" lon="-3.44938">
        <ele>63.2</ele>
        <time>2025-09-26T09:35:47Z</time>
      </trkpt>
      <trkpt lat="48.70989" lon="-3.44946">
        <ele>63.4</ele>
        <time>2025-09-26T09:35:51Z</time>
      </trkpt>
      <trkpt lat="48.70991" lon="-3.44959">
        <ele>63.4</ele>
        <time>2025-09-26T09:35:54Z</time>
      </trkpt>
      <trkpt lat="48.70997" lon="-3.44975">
        <ele>63.2</ele>
        <time>2025-09-26T09:35:57Z</time>
      </trkpt>
      <trkpt lat="48.70999" lon="-3.44979">
        <ele>63.2</ele>
        <time>2025-09-26T09:35:58Z</time>
      </trkpt>
      <trkpt lat="48.71007" lon="-3.44986">
        <ele>63.2</ele>
        <time>2025-09-26T09:36:00Z</time>
      </trkpt>
      <trkpt lat="48.71016" lon="-3.4499">
        <ele>63</ele>
        <time>2025-09-26T09:36:02Z</time>
      </trkpt>
      <trkpt lat="48.71037" lon="-3.44991">
        <ele>62.8</ele>
        <time>2025-09-26T09:36:06Z</time>
      </trkpt>
      <trkpt lat="48.71052" lon="-3.44992">
        <ele>62.8</ele>
        <time>2025-09-26T09:36:09Z</time>
      </trkpt>
      <trkpt lat="48.71096" lon="-3.44992">
        <ele>62.4</ele>
        <time>2025-09-26T09:36:17Z</time>
      </trkpt>
      <trkpt lat="48.71152" lon="-3.44997">
        <ele>62.2</ele>
        <time>2025-09-26T09:36:27Z</time>
      </trkpt>
      <trkpt lat="48.71196" lon="-3.45014">
        <ele>61.8</ele>
        <time>2025-09-26T09:36:35Z</time>
      </trkpt>
      <trkpt lat="48.71201" lon="-3.45016">
        <ele>61.6</ele>
        <time>2025-09-26T09:36:36Z</time>
      </trkpt>
      <trkpt lat="48.71212" lon="-3.45021">
        <ele>61.6</ele>
        <time>2025-09-26T09:36:38Z</time>
      </trkpt>
      <trkpt lat="48.71261" lon="-3.45041">
        <ele>61</ele>
        <time>2025-09-26T09:36:47Z</time>
      </trkpt>
      <trkpt lat="48.71307" lon="-3.45065">
        <ele>60.8</ele>
        <time>2025-09-26T09:36:56Z</time>
      </trkpt>
      <trkpt lat="48.71356" lon="-3.45094">
        <ele>60.8</ele>
        <time>2025-09-26T09:37:06Z</time>
      </trkpt>
      <trkpt lat="48.71408" lon="-3.45126">
        <ele>60.8</ele>
        <time>2025-09-26T09:37:16Z</time>
      </trkpt>
      <trkpt lat="48.71424" lon="-3.45137">
        <ele>60.8</ele>
        <time>2025-09-26T09:37:19Z</time>
      </trkpt>
      <trkpt lat="48.7146" lon="-3.45162">
        <ele>60.4</ele>
        <time>2025-09-26T09:37:26Z</time>
      </trkpt>
      <trkpt lat="48.7148" lon="-3.45178">
        <ele>60.4</ele>
        <time>2025-09-26T09:37:30Z</time>
      </trkpt>
      <trkpt lat="48.7153" lon="-3.45214">
        <ele>60.4</ele>
        <time>2025-09-26T09:37:40Z</time>
      </trkpt>
      <trkpt lat="48.7154" lon="-3.45221">
        <ele>60.4</ele>
        <time>2025-09-26T09:37:42Z</time>
      </trkpt>
      <trkpt lat="48.71568" lon="-3.45242">
        <ele>60</ele>
        <time>2025-09-26T09:37:48Z</time>
      </trkpt>
      <trkpt lat="48.71573" lon="-3.45244">
        <ele>59.8</ele>
        <time>2025-09-26T09:37:49Z</time>
      </trkpt>
      <trkpt lat="48.71578" lon="-3.45246">
        <ele>59.8</ele>
        <time>2025-09-26T09:37:50Z</time>
      </trkpt>
      <trkpt lat="48.71588" lon="-3.45247">
        <ele>59.6</ele>
        <time>2025-09-26T09:37:52Z</time>
      </trkpt>
      <trkpt lat="48.71597" lon="-3.45247">
        <ele>59.6</ele>
        <time>2025-09-26T09:37:54Z</time>
      </trkpt>
      <trkpt lat="48.71628" lon="-3.45258">
        <ele>60.2</ele>
        <time>2025-09-26T09:38:02Z</time>
      </trkpt>
      <trkpt lat="48.7166" lon="-3.45266">
        <ele>60</ele>
        <time>2025-09-26T09:38:11Z</time>
      </trkpt>
      <trkpt lat="48.71704" lon="-3.45279">
        <ele>59.6</ele>
        <time>2025-09-26T09:38:21Z</time>
      </trkpt>
      <trkpt lat="48.71746" lon="-3.45294">
        <ele>60</ele>
        <time>2025-09-26T09:38:31Z</time>
      </trkpt>
      <trkpt lat="48.71768" lon="-3.45304">
        <ele>60.2</ele>
        <time>2025-09-26T09:38:37Z</time>
      </trkpt>
      <trkpt lat="48.71775" lon="-3.45309">
        <ele>60.2</ele>
        <time>2025-09-26T09:38:39Z</time>
      </trkpt>
      <trkpt lat="48.71784" lon="-3.45311">
        <ele>60.2</ele>
        <time>2025-09-26T09:38:42Z</time>
      </trkpt>
      <trkpt lat="48.71787" lon="-3.45308">
        <ele>60.2</ele>
        <time>2025-09-26T09:38:43Z</time>
      </trkpt>
      <trkpt lat="48.71789" lon="-3.45298">
        <ele>60</ele>
        <time>2025-09-26T09:38:45Z</time>
      </trkpt>
      <trkpt lat="48.71791" lon="-3.45285">
        <ele>60.2</ele>
        <time>2025-09-26T09:38:47Z</time>
      </trkpt>
      <trkpt lat="48.71802" lon="-3.45232">
        <ele>60.4</ele>
        <time>2025-09-26T09:38:54Z</time>
      </trkpt>
      <trkpt lat="48.71813" lon="-3.4518">
        <ele>61</ele>
        <time>2025-09-26T09:39:01Z</time>
      </trkpt>
      <trkpt lat="48.71815" lon="-3.45172">
        <ele>61</ele>
        <time>2025-09-26T09:39:02Z</time>
      </trkpt>
      <trkpt lat="48.71817" lon="-3.45157">
        <ele>61</ele>
        <time>2025-09-26T09:39:04Z</time>
      </trkpt>
      <trkpt lat="48.71817" lon="-3.45151">
        <ele>61</ele>
        <time>2025-09-26T09:39:05Z</time>
      </trkpt>
      <trkpt lat="48.71818" lon="-3.45141">
        <ele>61</ele>
        <time>2025-09-26T09:39:06Z</time>
      </trkpt>
      <trkpt lat="48.71818" lon="-3.45125">
        <ele>61</ele>
        <time>2025-09-26T09:39:08Z</time>
      </trkpt>
      <trkpt lat="48.71816" lon="-3.451">
        <ele>60.8</ele>
        <time>2025-09-26T09:39:11Z</time>
      </trkpt>
      <trkpt lat="48.7181" lon="-3.45045">
        <ele>61</ele>
        <time>2025-09-26T09:39:18Z</time>
      </trkpt>
      <trkpt lat="48.71805" lon="-3.44957">
        <ele>60.2</ele>
        <time>2025-09-26T09:39:29Z</time>
      </trkpt>
      <trkpt lat="48.71806" lon="-3.44948">
        <ele>60</ele>
        <time>2025-09-26T09:39:30Z</time>
      </trkpt>
      <trkpt lat="48.71806" lon="-3.44924">
        <ele>60.2</ele>
        <time>2025-09-26T09:39:33Z</time>
      </trkpt>
      <trkpt lat="48.71806" lon="-3.44916">
        <ele>60.4</ele>
        <time>2025-09-26T09:39:34Z</time>
      </trkpt>
      <trkpt lat="48.71808" lon="-3.44875">
        <ele>60.8</ele>
        <time>2025-09-26T09:39:39Z</time>
      </trkpt>
      <trkpt lat="48.71809" lon="-3.44867">
        <ele>60.6</ele>
        <time>2025-09-26T09:39:40Z</time>
      </trkpt>
      <trkpt lat="48.71811" lon="-3.44859">
        <ele>60.4</ele>
        <time>2025-09-26T09:39:41Z</time>
      </trkpt>
      <trkpt lat="48.71816" lon="-3.44844">
        <ele>60.2</ele>
        <time>2025-09-26T09:39:43Z</time>
      </trkpt>
      <trkpt lat="48.71821" lon="-3.44837">
        <ele>60</ele>
        <time>2025-09-26T09:39:44Z</time>
      </trkpt>
      <trkpt lat="48.71825" lon="-3.44832">
        <ele>60</ele>
        <time>2025-09-26T09:39:45Z</time>
      </trkpt>
      <trkpt lat="48.71836" lon="-3.44824">
        <ele>59.6</ele>
        <time>2025-09-26T09:39:47Z</time>
      </trkpt>
      <trkpt lat="48.71842" lon="-3.44821">
        <ele>59.4</ele>
        <time>2025-09-26T09:39:48Z</time>
      </trkpt>
      <trkpt lat="48.71848" lon="-3.44819">
        <ele>59.4</ele>
        <time>2025-09-26T09:39:49Z</time>
      </trkpt>
      <trkpt lat="48.71885" lon="-3.44814">
        <ele>58.6</ele>
        <time>2025-09-26T09:39:55Z</time>
      </trkpt>
      <trkpt lat="48.71898" lon="-3.44816">
        <ele>58.2</ele>
        <time>2025-09-26T09:39:57Z</time>
      </trkpt>
      <trkpt lat="48.71937" lon="-3.44823">
        <ele>57</ele>
        <time>2025-09-26T09:40:03Z</time>
      </trkpt>
      <trkpt lat="48.71982" lon="-3.44831">
        <ele>56</ele>
        <time>2025-09-26T09:40:10Z</time>
      </trkpt>
      <trkpt lat="48.71996" lon="-3.44834">
        <ele>55.6</ele>
        <time>2025-09-26T09:40:12Z</time>
      </trkpt>
      <trkpt lat="48.72002" lon="-3.44835">
        <ele>55.2</ele>
        <time>2025-09-26T09:40:13Z</time>
      </trkpt>
      <trkpt lat="48.72008" lon="-3.44835">
        <ele>55</ele>
        <time>2025-09-26T09:40:14Z</time>
      </trkpt>
      <trkpt lat="48.72019" lon="-3.4483">
        <ele>54.4</ele>
        <time>2025-09-26T09:40:16Z</time>
      </trkpt>
      <trkpt lat="48.72023" lon="-3.44825">
        <ele>54.2</ele>
        <time>2025-09-26T09:40:17Z</time>
      </trkpt>
      <trkpt lat="48.72025" lon="-3.44818">
        <ele>54</ele>
        <time>2025-09-26T09:40:18Z</time>
      </trkpt>
      <trkpt lat="48.72026" lon="-3.4481">
        <ele>53.8</ele>
        <time>2025-09-26T09:40:19Z</time>
      </trkpt>
      <trkpt lat="48.72026" lon="-3.44769">
        <ele>52.4</ele>
        <time>2025-09-26T09:40:23Z</time>
      </trkpt>
      <trkpt lat="48.72026" lon="-3.44758">
        <ele>52.2</ele>
        <time>2025-09-26T09:40:24Z</time>
      </trkpt>
      <trkpt lat="48.72026" lon="-3.44735">
        <ele>51</ele>
        <time>2025-09-26T09:40:26Z</time>
      </trkpt>
      <trkpt lat="48.72027" lon="-3.44689">
        <ele>49.8</ele>
        <time>2025-09-26T09:40:30Z</time>
      </trkpt>
      <trkpt lat="48.72027" lon="-3.44674">
        <ele>48.2</ele>
        <time>2025-09-26T09:40:31Z</time>
      </trkpt>
      <trkpt lat="48.72026" lon="-3.44661">
        <ele>46.4</ele>
        <time>2025-09-26T09:40:32Z</time>
      </trkpt>
      <trkpt lat="48.72025" lon="-3.44634">
        <ele>45.8</ele>
        <time>2025-09-26T09:40:34Z</time>
      </trkpt>
      <trkpt lat="48.72023" lon="-3.44581">
        <ele>44.6</ele>
        <time>2025-09-26T09:40:38Z</time>
      </trkpt>
      <trkpt lat="48.72021" lon="-3.44539">
        <ele>43.4</ele>
        <time>2025-09-26T09:40:41Z</time>
      </trkpt>
      <trkpt lat="48.7202" lon="-3.44513">
        <ele>41.2</ele>
        <time>2025-09-26T09:40:43Z</time>
      </trkpt>
      <trkpt lat="48.72019" lon="-3.44492">
        <ele>40</ele>
        <time>2025-09-26T09:40:45Z</time>
      </trkpt>
      <trkpt lat="48.72019" lon="-3.44483">
        <ele>38.8</ele>
        <time>2025-09-26T09:40:46Z</time>
      </trkpt>
      <trkpt lat="48.72019" lon="-3.44464">
        <ele>37.2</ele>
        <time>2025-09-26T09:40:49Z</time>
      </trkpt>
      <trkpt lat="48.72019" lon="-3.44461">
        <ele>36.6</ele>
        <time>2025-09-26T09:40:50Z</time>
      </trkpt>
      <trkpt lat="48.72019" lon="-3.44459">
        <ele>36</ele>
        <time>2025-09-26T09:40:51Z</time>
      </trkpt>
      <trkpt lat="48.72019" lon="-3.44459">
        <ele>35.8</ele>
        <time>2025-09-26T09:40:53Z</time>
      </trkpt>
      <trkpt lat="48.72019" lon="-3.44459">
        <ele>36</ele>
        <time>2025-09-26T09:41:01Z</time>
      </trkpt>
      <trkpt lat="48.72021" lon="-3.44456">
        <ele>35.8</ele>
        <time>2025-09-26T09:41:05Z</time>
      </trkpt>
      <trkpt lat="48.72027" lon="-3.44454">
        <ele>35.6</ele>
        <time>2025-09-26T09:41:07Z</time>
      </trkpt>
      <trkpt lat="48.72032" lon="-3.44455">
        <ele>35.6</ele>
        <time>2025-09-26T09:41:08Z</time>
      </trkpt>
      <trkpt lat="48.72044" lon="-3.44459">
        <ele>34.6</ele>
        <time>2025-09-26T09:41:10Z</time>
      </trkpt>
      <trkpt lat="48.72064" lon="-3.4447">
        <ele>33.6</ele>
        <time>2025-09-26T09:41:13Z</time>
      </trkpt>
      <trkpt lat="48.72072" lon="-3.44475">
        <ele>32.4</ele>
        <time>2025-09-26T09:41:14Z</time>
      </trkpt>
      <trkpt lat="48.7208" lon="-3.44481">
        <ele>32</ele>
        <time>2025-09-26T09:41:15Z</time>
      </trkpt>
      <trkpt lat="48.72088" lon="-3.44488">
        <ele>31.4</ele>
        <time>2025-09-26T09:41:16Z</time>
      </trkpt>
      <trkpt lat="48.72104" lon="-3.44507">
        <ele>30</ele>
        <time>2025-09-26T09:41:18Z</time>
      </trkpt>
      <trkpt lat="48.7211" lon="-3.44519">
        <ele>28.8</ele>
        <time>2025-09-26T09:41:19Z</time>
      </trkpt>
      <trkpt lat="48.72116" lon="-3.44534">
        <ele>28.2</ele>
        <time>2025-09-26T09:41:20Z</time>
      </trkpt>
      <trkpt lat="48.72123" lon="-3.44566">
        <ele>27</ele>
        <time>2025-09-26T09:41:22Z</time>
      </trkpt>
      <trkpt lat="48.72125" lon="-3.44583">
        <ele>25</ele>
        <time>2025-09-26T09:41:23Z</time>
      </trkpt>
      <trkpt lat="48.72127" lon="-3.44618">
        <ele>23.8</ele>
        <time>2025-09-26T09:41:25Z</time>
      </trkpt>
      <trkpt lat="48.72132" lon="-3.4468">
        <ele>23</ele>
        <time>2025-09-26T09:41:29Z</time>
      </trkpt>
      <trkpt lat="48.72134" lon="-3.44692">
        <ele>22.8</ele>
        <time>2025-09-26T09:41:30Z</time>
      </trkpt>
      <trkpt lat="48.72141" lon="-3.44713">
        <ele>22.4</ele>
        <time>2025-09-26T09:41:32Z</time>
      </trkpt>
      <trkpt lat="48.72144" lon="-3.44722">
        <ele>22.2</ele>
        <time>2025-09-26T09:41:33Z</time>
      </trkpt>
      <trkpt lat="48.72149" lon="-3.44731">
        <ele>21.8</ele>
        <time>2025-09-26T09:41:34Z</time>
      </trkpt>
      <trkpt lat="48.72156" lon="-3.44739">
        <ele>21.6</ele>
        <time>2025-09-26T09:41:35Z</time>
      </trkpt>
      <trkpt lat="48.72163" lon="-3.44746">
        <ele>20.4</ele>
        <time>2025-09-26T09:41:36Z</time>
      </trkpt>
      <trkpt lat="48.72171" lon="-3.44753">
        <ele>20</ele>
        <time>2025-09-26T09:41:37Z</time>
      </trkpt>
      <trkpt lat="48.7218" lon="-3.44757">
        <ele>19.2</ele>
        <time>2025-09-26T09:41:38Z</time>
      </trkpt>
      <trkpt lat="48.722" lon="-3.44759">
        <ele>17.4</ele>
        <time>2025-09-26T09:41:40Z</time>
      </trkpt>
      <trkpt lat="48.72211" lon="-3.44758">
        <ele>16.4</ele>
        <time>2025-09-26T09:41:41Z</time>
      </trkpt>
      <trkpt lat="48.72233" lon="-3.4476">
        <ele>14.4</ele>
        <time>2025-09-26T09:41:43Z</time>
      </trkpt>
      <trkpt lat="48.7224" lon="-3.44763">
        <ele>13.4</ele>
        <time>2025-09-26T09:41:44Z</time>
      </trkpt>
      <trkpt lat="48.72251" lon="-3.4477">
        <ele>11.8</ele>
        <time>2025-09-26T09:41:45Z</time>
      </trkpt>
      <trkpt lat="48.72258" lon="-3.44778">
        <ele>10.6</ele>
        <time>2025-09-26T09:41:46Z</time>
      </trkpt>
      <trkpt lat="48.72265" lon="-3.44789">
        <ele>9.2</ele>
        <time>2025-09-26T09:41:47Z</time>
      </trkpt>
      <trkpt lat="48.72273" lon="-3.44814">
        <ele>8.4</ele>
        <time>2025-09-26T09:41:49Z</time>
      </trkpt>
      <trkpt lat="48.72276" lon="-3.44827">
        <ele>8.2</ele>
        <time>2025-09-26T09:41:50Z</time>
      </trkpt>
      <trkpt lat="48.72284" lon="-3.44888">
        <ele>7.4</ele>
        <time>2025-09-26T09:41:55Z</time>
      </trkpt>
      <trkpt lat="48.72292" lon="-3.44937">
        <ele>7.4</ele>
        <time>2025-09-26T09:42:00Z</time>
      </trkpt>
      <trkpt lat="48.72294" lon="-3.44946">
        <ele>7.4</ele>
        <time>2025-09-26T09:42:01Z</time>
      </trkpt>
      <trkpt lat="48.72305" lon="-3.4497">
        <ele>7.4</ele>
        <time>2025-09-26T09:42:04Z</time>
      </trkpt>
      <trkpt lat="48.72309" lon="-3.44975">
        <ele>7.4</ele>
        <time>2025-09-26T09:42:05Z</time>
      </trkpt>
      <trkpt lat="48.72314" lon="-3.44984">
        <ele>7.4</ele>
        <time>2025-09-26T09:42:06Z</time>
      </trkpt>
      <trkpt lat="48.72318" lon="-3.44991">
        <ele>7.2</ele>
        <time>2025-09-26T09:42:07Z</time>
      </trkpt>
      <trkpt lat="48.72321" lon="-3.44998">
        <ele>7.4</ele>
        <time>2025-09-26T09:42:08Z</time>
      </trkpt>
      <trkpt lat="48.72342" lon="-3.45037">
        <ele>7.6</ele>
        <time>2025-09-26T09:42:13Z</time>
      </trkpt>
      <trkpt lat="48.72367" lon="-3.45091">
        <ele>7.4</ele>
        <time>2025-09-26T09:42:20Z</time>
      </trkpt>
      <trkpt lat="48.72383" lon="-3.45132">
        <ele>7.6</ele>
        <time>2025-09-26T09:42:25Z</time>
      </trkpt>
      <trkpt lat="48.72387" lon="-3.45139">
        <ele>7.4</ele>
        <time>2025-09-26T09:42:26Z</time>
      </trkpt>
      <trkpt lat="48.72406" lon="-3.45189">
        <ele>7.4</ele>
        <time>2025-09-26T09:42:32Z</time>
      </trkpt>
      <trkpt lat="48.72423" lon="-3.45228">
        <ele>8</ele>
        <time>2025-09-26T09:42:37Z</time>
      </trkpt>
      <trkpt lat="48.72426" lon="-3.45236">
        <ele>8.2</ele>
        <time>2025-09-26T09:42:38Z</time>
      </trkpt>
      <trkpt lat="48.72443" lon="-3.45295">
        <ele>8.8</ele>
        <time>2025-09-26T09:42:45Z</time>
      </trkpt>
      <trkpt lat="48.72461" lon="-3.45361">
        <ele>9</ele>
        <time>2025-09-26T09:42:53Z</time>
      </trkpt>
      <trkpt lat="48.72463" lon="-3.45369">
        <ele>9.2</ele>
        <time>2025-09-26T09:42:54Z</time>
      </trkpt>
      <trkpt lat="48.72484" lon="-3.45431">
        <ele>9.6</ele>
        <time>2025-09-26T09:43:02Z</time>
      </trkpt>
      <trkpt lat="48.72503" lon="-3.45466">
        <ele>10</ele>
        <time>2025-09-26T09:43:07Z</time>
      </trkpt>
      <trkpt lat="48.72511" lon="-3.45479">
        <ele>10</ele>
        <time>2025-09-26T09:43:09Z</time>
      </trkpt>
      <trkpt lat="48.72537" lon="-3.45527">
        <ele>9.4</ele>
        <time>2025-09-26T09:43:16Z</time>
      </trkpt>
      <trkpt lat="48.72564" lon="-3.45582">
        <ele>10.4</ele>
        <time>2025-09-26T09:43:24Z</time>
      </trkpt>
      <trkpt lat="48.72568" lon="-3.45589">
        <ele>10.4</ele>
        <time>2025-09-26T09:43:25Z</time>
      </trkpt>
      <trkpt lat="48.72593" lon="-3.45653">
        <ele>11.2</ele>
        <time>2025-09-26T09:43:33Z</time>
      </trkpt>
      <trkpt lat="48.72624" lon="-3.45698">
        <ele>10.4</ele>
        <time>2025-09-26T09:43:40Z</time>
      </trkpt>
      <trkpt lat="48.72629" lon="-3.45703">
        <ele>10.2</ele>
        <time>2025-09-26T09:43:41Z</time>
      </trkpt>
      <trkpt lat="48.72646" lon="-3.4572">
        <ele>9.2</ele>
        <time>2025-09-26T09:43:44Z</time>
      </trkpt>
      <trkpt lat="48.72664" lon="-3.45737">
        <ele>8.6</ele>
        <time>2025-09-26T09:43:47Z</time>
      </trkpt>
      <trkpt lat="48.72676" lon="-3.45748">
        <ele>8.2</ele>
        <time>2025-09-26T09:43:49Z</time>
      </trkpt>
      <trkpt lat="48.72692" lon="-3.4577">
        <ele>7.6</ele>
        <time>2025-09-26T09:43:52Z</time>
      </trkpt>
      <trkpt lat="48.72705" lon="-3.45794">
        <ele>7</ele>
        <time>2025-09-26T09:43:55Z</time>
      </trkpt>
      <trkpt lat="48.72714" lon="-3.45807">
        <ele>6.4</ele>
        <time>2025-09-26T09:43:57Z</time>
      </trkpt>
      <trkpt lat="48.72718" lon="-3.45813">
        <ele>6.2</ele>
        <time>2025-09-26T09:43:58Z</time>
      </trkpt>
      <trkpt lat="48.72726" lon="-3.45826">
        <ele>6.4</ele>
        <time>2025-09-26T09:44:00Z</time>
      </trkpt>
      <trkpt lat="48.7273" lon="-3.45832">
        <ele>6.4</ele>
        <time>2025-09-26T09:44:01Z</time>
      </trkpt>
      <trkpt lat="48.72739" lon="-3.4584">
        <ele>6.4</ele>
        <time>2025-09-26T09:44:03Z</time>
      </trkpt>
      <trkpt lat="48.72757" lon="-3.45851">
        <ele>6.4</ele>
        <time>2025-09-26T09:44:08Z</time>
      </trkpt>
      <trkpt lat="48.72765" lon="-3.45854">
        <ele>6.6</ele>
        <time>2025-09-26T09:44:11Z</time>
      </trkpt>
      <trkpt lat="48.7277" lon="-3.45857">
        <ele>6.6</ele>
        <time>2025-09-26T09:44:13Z</time>
      </trkpt>
      <trkpt lat="48.72781" lon="-3.45862">
        <ele>6.4</ele>
        <time>2025-09-26T09:44:19Z</time>
      </trkpt>
      <trkpt lat="48.72782" lon="-3.45861">
        <ele>6.4</ele>
        <time>2025-09-26T09:44:20Z</time>
      </trkpt>
      <trkpt lat="48.72783" lon="-3.4586">
        <ele>6.2</ele>
        <time>2025-09-26T09:44:24Z</time>
      </trkpt>
      <trkpt lat="48.72785" lon="-3.45858">
        <ele>6.4</ele>
        <time>2025-09-26T09:44:29Z</time>
      </trkpt>
      <trkpt lat="48.72787" lon="-3.45856">
        <ele>6.6</ele>
        <time>2025-09-26T09:44:30Z</time>
      </trkpt>
      <trkpt lat="48.72795" lon="-3.45849">
        <ele>6.6</ele>
        <time>2025-09-26T09:44:33Z</time>
      </trkpt>
      <trkpt lat="48.72808" lon="-3.45857">
        <ele>6.6</ele>
        <time>2025-09-26T09:44:37Z</time>
      </trkpt>
      <trkpt lat="48.72822" lon="-3.45866">
        <ele>6.2</ele>
        <time>2025-09-26T09:44:42Z</time>
      </trkpt>
      <trkpt lat="48.72831" lon="-3.45875">
        <ele>6</ele>
        <time>2025-09-26T09:44:45Z</time>
      </trkpt>
      <trkpt lat="48.72844" lon="-3.45882">
        <ele>6.2</ele>
        <time>2025-09-26T09:44:49Z</time>
      </trkpt>
      <trkpt lat="48.7285" lon="-3.45887">
        <ele>6.2</ele>
        <time>2025-09-26T09:44:51Z</time>
      </trkpt>
      <trkpt lat="48.72854" lon="-3.4589">
        <ele>6.2</ele>
        <time>2025-09-26T09:44:52Z</time>
      </trkpt>
      <trkpt lat="48.72861" lon="-3.45896">
        <ele>6.2</ele>
        <time>2025-09-26T09:44:54Z</time>
      </trkpt>
      <trkpt lat="48.72865" lon="-3.45899">
        <ele>6.2</ele>
        <time>2025-09-26T09:44:55Z</time>
      </trkpt>
      <trkpt lat="48.72887" lon="-3.45914">
        <ele>6</ele>
        <time>2025-09-26T09:45:01Z</time>
      </trkpt>
      <trkpt lat="48.72894" lon="-3.45919">
        <ele>6</ele>
        <time>2025-09-26T09:45:03Z</time>
      </trkpt>
      <trkpt lat="48.72898" lon="-3.45922">
        <ele>6</ele>
        <time>2025-09-26T09:45:04Z</time>
      </trkpt>
      <trkpt lat="48.72901" lon="-3.45925">
        <ele>6</ele>
        <time>2025-09-26T09:45:05Z</time>
      </trkpt>
      <trkpt lat="48.72908" lon="-3.45933">
        <ele>6</ele>
        <time>2025-09-26T09:45:07Z</time>
      </trkpt>
      <trkpt lat="48.72928" lon="-3.45946">
        <ele>6</ele>
        <time>2025-09-26T09:45:12Z</time>
      </trkpt>
      <trkpt lat="48.72947" lon="-3.45963">
        <ele>5.8</ele>
        <time>2025-09-26T09:45:19Z</time>
      </trkpt>
      <trkpt lat="48.72965" lon="-3.4598">
        <ele>5.8</ele>
        <time>2025-09-26T09:45:27Z</time>
      </trkpt>
      <trkpt lat="48.72991" lon="-3.45999">
        <ele>6.2</ele>
        <time>2025-09-26T09:45:34Z</time>
      </trkpt>
      <trkpt lat="48.73023" lon="-3.4602">
        <ele>6.8</ele>
        <time>2025-09-26T09:45:42Z</time>
      </trkpt>
      <trkpt lat="48.73035" lon="-3.46029">
        <ele>6.8</ele>
        <time>2025-09-26T09:45:47Z</time>
      </trkpt>
      <trkpt lat="48.73046" lon="-3.46033">
        <ele>7</ele>
        <time>2025-09-26T09:45:52Z</time>
      </trkpt>
      <trkpt lat="48.73047" lon="-3.46033">
        <ele>7</ele>
        <time>2025-09-26T09:45:53Z</time>
      </trkpt>
      <trkpt lat="48.7305" lon="-3.46035">
        <ele>7.2</ele>
        <time>2025-09-26T09:45:56Z</time>
      </trkpt>
      <trkpt lat="48.73051" lon="-3.46037">
        <ele>7.4</ele>
        <time>2025-09-26T09:45:57Z</time>
      </trkpt>
      <trkpt lat="48.73057" lon="-3.46043">
        <ele>7.4</ele>
        <time>2025-09-26T09:46:01Z</time>
      </trkpt>
      <trkpt lat="48.73057" lon="-3.46043">
        <ele>7.2</ele>
        <time>2025-09-26T09:46:03Z</time>
      </trkpt>
      <trkpt lat="48.73059" lon="-3.46042">
        <ele>7</ele>
        <time>2025-09-26T09:46:16Z</time>
      </trkpt>
      <trkpt lat="48.73062" lon="-3.46036">
        <ele>7.2</ele>
        <time>2025-09-26T09:46:18Z</time>
      </trkpt>
      <trkpt lat="48.7307" lon="-3.46018">
        <ele>7.2</ele>
        <time>2025-09-26T09:46:22Z</time>
      </trkpt>
      <trkpt lat="48.73076" lon="-3.46007">
        <ele>7.2</ele>
        <time>2025-09-26T09:46:26Z</time>
      </trkpt>
      <trkpt lat="48.73083" lon="-3.46005">
        <ele>7</ele>
        <time>2025-09-26T09:46:30Z</time>
      </trkpt>
      <trkpt lat="48.73091" lon="-3.46006">
        <ele>6.6</ele>
        <time>2025-09-26T09:46:33Z</time>
      </trkpt>
      <trkpt lat="48.73102" lon="-3.46013">
        <ele>6.2</ele>
        <time>2025-09-26T09:46:37Z</time>
      </trkpt>
      <trkpt lat="48.73116" lon="-3.46031">
        <ele>6</ele>
        <time>2025-09-26T09:46:42Z</time>
      </trkpt>
      <trkpt lat="48.73125" lon="-3.46043">
        <ele>6</ele>
        <time>2025-09-26T09:46:45Z</time>
      </trkpt>
      <trkpt lat="48.73145" lon="-3.46069">
        <ele>6</ele>
        <time>2025-09-26T09:46:52Z</time>
      </trkpt>
      <trkpt lat="48.7316" lon="-3.4609">
        <ele>6.2</ele>
        <time>2025-09-26T09:46:57Z</time>
      </trkpt>
      <trkpt lat="48.73163" lon="-3.46094">
        <ele>6.2</ele>
        <time>2025-09-26T09:46:58Z</time>
      </trkpt>
      <trkpt lat="48.73187" lon="-3.46133">
        <ele>6.4</ele>
        <time>2025-09-26T09:47:07Z</time>
      </trkpt>
      <trkpt lat="48.73195" lon="-3.46148">
        <ele>6.6</ele>
        <time>2025-09-26T09:47:11Z</time>
      </trkpt>
      <trkpt lat="48.73203" lon="-3.46158">
        <ele>6.8</ele>
        <time>2025-09-26T09:47:14Z</time>
      </trkpt>
      <trkpt lat="48.7321" lon="-3.46171">
        <ele>6.8</ele>
        <time>2025-09-26T09:47:18Z</time>
      </trkpt>
      <trkpt lat="48.73214" lon="-3.46174">
        <ele>6.8</ele>
        <time>2025-09-26T09:47:22Z</time>
      </trkpt>
      <trkpt lat="48.73214" lon="-3.46175">
        <ele>7.2</ele>
        <time>2025-09-26T09:47:23Z</time>
      </trkpt>
      <trkpt lat="48.73216" lon="-3.46173">
        <ele>7.2</ele>
        <time>2025-09-26T09:47:28Z</time>
      </trkpt>
      <trkpt lat="48.73218" lon="-3.4617">
        <ele>7.2</ele>
        <time>2025-09-26T09:47:29Z</time>
      </trkpt>
      <trkpt lat="48.73221" lon="-3.46169">
        <ele>7.2</ele>
        <time>2025-09-26T09:47:30Z</time>
      </trkpt>
      <trkpt lat="48.73226" lon="-3.46174">
        <ele>7.2</ele>
        <time>2025-09-26T09:47:33Z</time>
      </trkpt>
      <trkpt lat="48.73228" lon="-3.46174">
        <ele>7.2</ele>
        <time>2025-09-26T09:47:34Z</time>
      </trkpt>
      <trkpt lat="48.73234" lon="-3.4617">
        <ele>7.4</ele>
        <time>2025-09-26T09:47:36Z</time>
      </trkpt>
      <trkpt lat="48.73242" lon="-3.46149">
        <ele>8</ele>
        <time>2025-09-26T09:47:40Z</time>
      </trkpt>
      <trkpt lat="48.73243" lon="-3.46143">
        <ele>8.2</ele>
        <time>2025-09-26T09:47:41Z</time>
      </trkpt>
      <trkpt lat="48.73251" lon="-3.4612">
        <ele>9.2</ele>
        <time>2025-09-26T09:47:45Z</time>
      </trkpt>
      <trkpt lat="48.73258" lon="-3.46098">
        <ele>10.4</ele>
        <time>2025-09-26T09:47:49Z</time>
      </trkpt>
      <trkpt lat="48.7326" lon="-3.46092">
        <ele>10.6</ele>
        <time>2025-09-26T09:47:50Z</time>
      </trkpt>
      <trkpt lat="48.73267" lon="-3.46069">
        <ele>11.8</ele>
        <time>2025-09-26T09:47:54Z</time>
      </trkpt>
      <trkpt lat="48.73276" lon="-3.4604">
        <ele>12.8</ele>
        <time>2025-09-26T09:47:59Z</time>
      </trkpt>
      <trkpt lat="48.73279" lon="-3.46029">
        <ele>13.4</ele>
        <time>2025-09-26T09:48:01Z</time>
      </trkpt>
      <trkpt lat="48.73283" lon="-3.46017">
        <ele>13.8</ele>
        <time>2025-09-26T09:48:03Z</time>
      </trkpt>
      <trkpt lat="48.73288" lon="-3.46">
        <ele>14.6</ele>
        <time>2025-09-26T09:48:06Z</time>
      </trkpt>
      <trkpt lat="48.73289" lon="-3.45994">
        <ele>15</ele>
        <time>2025-09-26T09:48:07Z</time>
      </trkpt>
      <trkpt lat="48.7329" lon="-3.45989">
        <ele>15.2</ele>
        <time>2025-09-26T09:48:08Z</time>
      </trkpt>
      <trkpt lat="48.73294" lon="-3.45959">
        <ele>16</ele>
        <time>2025-09-26T09:48:13Z</time>
      </trkpt>
      <trkpt lat="48.73295" lon="-3.45953">
        <ele>16</ele>
        <time>2025-09-26T09:48:14Z</time>
      </trkpt>
      <trkpt lat="48.73297" lon="-3.45935">
        <ele>17.2</ele>
        <time>2025-09-26T09:48:17Z</time>
      </trkpt>
      <trkpt lat="48.73298" lon="-3.45925">
        <ele>17.4</ele>
        <time>2025-09-26T09:48:19Z</time>
      </trkpt>
      <trkpt lat="48.73298" lon="-3.45922">
        <ele>17.6</ele>
        <time>2025-09-26T09:48:20Z</time>
      </trkpt>
      <trkpt lat="48.73298" lon="-3.4592">
        <ele>17.6</ele>
        <time>2025-09-26T09:48:21Z</time>
      </trkpt>
      <trkpt lat="48.73298" lon="-3.45919">
        <ele>17.8</ele>
        <time>2025-09-26T09:48:23Z</time>
      </trkpt>
      <trkpt lat="48.73298" lon="-3.45919">
        <ele>17.8</ele>
        <time>2025-09-26T09:48:24Z</time>
      </trkpt>
      <trkpt lat="48.73298" lon="-3.45919">
        <ele>17.8</ele>
        <time>2025-09-26T09:48:25Z</time>
      </trkpt>
      <trkpt lat="48.73298" lon="-3.45919">
        <ele>18</ele>
        <time>2025-09-26T09:48:37Z</time>
      </trkpt>
      <trkpt lat="48.73298" lon="-3.45919">
        <ele>18</ele>
        <time>2025-09-26T09:48:40Z</time>
      </trkpt>
      <trkpt lat="48.73298" lon="-3.45919">
        <ele>18</ele>
        <time>2025-09-26T09:48:41Z</time>
      </trkpt>
      <trkpt lat="48.73298" lon="-3.45919">
        <ele>17.8</ele>
        <time>2025-09-26T09:48:51Z</time>
      </trkpt>
      <trkpt lat="48.733" lon="-3.45913">
        <ele>18.2</ele>
        <time>2025-09-26T09:48:58Z</time>
      </trkpt>
      <trkpt lat="48.73301" lon="-3.4591">
        <ele>18.2</ele>
        <time>2025-09-26T09:48:59Z</time>
      </trkpt>
      <trkpt lat="48.73305" lon="-3.45878">
        <ele>19.2</ele>
        <time>2025-09-26T09:49:04Z</time>
      </trkpt>
      <trkpt lat="48.73307" lon="-3.45872">
        <ele>19.4</ele>
        <time>2025-09-26T09:49:05Z</time>
      </trkpt>
      <trkpt lat="48.73309" lon="-3.45867">
        <ele>20</ele>
        <time>2025-09-26T09:49:06Z</time>
      </trkpt>
      <trkpt lat="48.73316" lon="-3.45859">
        <ele>20.8</ele>
        <time>2025-09-26T09:49:08Z</time>
      </trkpt>
      <trkpt lat="48.73319" lon="-3.45855">
        <ele>21.2</ele>
        <time>2025-09-26T09:49:09Z</time>
      </trkpt>
      <trkpt lat="48.73324" lon="-3.45845">
        <ele>22</ele>
        <time>2025-09-26T09:49:11Z</time>
      </trkpt>
      <trkpt lat="48.73329" lon="-3.45836">
        <ele>23.2</ele>
        <time>2025-09-26T09:49:13Z</time>
      </trkpt>
      <trkpt lat="48.73335" lon="-3.45828">
        <ele>23.8</ele>
        <time>2025-09-26T09:49:15Z</time>
      </trkpt>
      <trkpt lat="48.73338" lon="-3.45823">
        <ele>24.4</ele>
        <time>2025-09-26T09:49:16Z</time>
      </trkpt>
      <trkpt lat="48.73355" lon="-3.45794">
        <ele>25.4</ele>
        <time>2025-09-26T09:49:23Z</time>
      </trkpt>
      <trkpt lat="48.73361" lon="-3.45785">
        <ele>25.6</ele>
        <time>2025-09-26T09:49:25Z</time>
      </trkpt>
      <trkpt lat="48.73377" lon="-3.45759">
        <ele>25.6</ele>
        <time>2025-09-26T09:49:31Z</time>
      </trkpt>
      <trkpt lat="48.73382" lon="-3.45748">
        <ele>25.6</ele>
        <time>2025-09-26T09:49:33Z</time>
      </trkpt>
      <trkpt lat="48.73389" lon="-3.45733">
        <ele>24.4</ele>
        <time>2025-09-26T09:49:36Z</time>
      </trkpt>
      <trkpt lat="48.73392" lon="-3.45727">
        <ele>23.2</ele>
        <time>2025-09-26T09:49:37Z</time>
      </trkpt>
      <trkpt lat="48.73394" lon="-3.45721">
        <ele>22.6</ele>
        <time>2025-09-26T09:49:38Z</time>
      </trkpt>
      <trkpt lat="48.73395" lon="-3.45715">
        <ele>21.8</ele>
        <time>2025-09-26T09:49:39Z</time>
      </trkpt>
      <trkpt lat="48.73397" lon="-3.45704">
        <ele>20.6</ele>
        <time>2025-09-26T09:49:41Z</time>
      </trkpt>
      <trkpt lat="48.734" lon="-3.45685">
        <ele>19.6</ele>
        <time>2025-09-26T09:49:44Z</time>
      </trkpt>
      <trkpt lat="48.73404" lon="-3.45678">
        <ele>18.8</ele>
        <time>2025-09-26T09:49:46Z</time>
      </trkpt>
      <trkpt lat="48.73407" lon="-3.45676">
        <ele>18.6</ele>
        <time>2025-09-26T09:49:47Z</time>
      </trkpt>
      <trkpt lat="48.7341" lon="-3.45675">
        <ele>18</ele>
        <time>2025-09-26T09:49:48Z</time>
      </trkpt>
      <trkpt lat="48.73419" lon="-3.45674">
        <ele>17.4</ele>
        <time>2025-09-26T09:49:50Z</time>
      </trkpt>
      <trkpt lat="48.73422" lon="-3.45674">
        <ele>17</ele>
        <time>2025-09-26T09:49:51Z</time>
      </trkpt>
      <trkpt lat="48.73433" lon="-3.45672">
        <ele>15.4</ele>
        <time>2025-09-26T09:49:53Z</time>
      </trkpt>
      <trkpt lat="48.73441" lon="-3.45674">
        <ele>14.2</ele>
        <time>2025-09-26T09:49:55Z</time>
      </trkpt>
      <trkpt lat="48.73448" lon="-3.45679">
        <ele>12.8</ele>
        <time>2025-09-26T09:49:57Z</time>
      </trkpt>
      <trkpt lat="48.73456" lon="-3.45677">
        <ele>12.2</ele>
        <time>2025-09-26T09:49:59Z</time>
      </trkpt>
      <trkpt lat="48.73467" lon="-3.45659">
        <ele>11.8</ele>
        <time>2025-09-26T09:50:03Z</time>
      </trkpt>
      <trkpt lat="48.73472" lon="-3.45646">
        <ele>11.8</ele>
        <time>2025-09-26T09:50:05Z</time>
      </trkpt>
      <trkpt lat="48.73478" lon="-3.45624">
        <ele>12</ele>
        <time>2025-09-26T09:50:08Z</time>
      </trkpt>
      <trkpt lat="48.73492" lon="-3.45566">
        <ele>12</ele>
        <time>2025-09-26T09:50:16Z</time>
      </trkpt>
      <trkpt lat="48.73496" lon="-3.45554">
        <ele>12.4</ele>
        <time>2025-09-26T09:50:18Z</time>
      </trkpt>
      <trkpt lat="48.73503" lon="-3.4554">
        <ele>12.4</ele>
        <time>2025-09-26T09:50:21Z</time>
      </trkpt>
      <trkpt lat="48.73512" lon="-3.45529">
        <ele>12.6</ele>
        <time>2025-09-26T09:50:25Z</time>
      </trkpt>
      <trkpt lat="48.73533" lon="-3.45526">
        <ele>13</ele>
        <time>2025-09-26T09:50:30Z</time>
      </trkpt>
      <trkpt lat="48.73541" lon="-3.45525">
        <ele>13.2</ele>
        <time>2025-09-26T09:50:32Z</time>
      </trkpt>
      <trkpt lat="48.73553" lon="-3.4552">
        <ele>13.8</ele>
        <time>2025-09-26T09:50:35Z</time>
      </trkpt>
      <trkpt lat="48.73557" lon="-3.45518">
        <ele>14</ele>
        <time>2025-09-26T09:50:36Z</time>
      </trkpt>
      <trkpt lat="48.73569" lon="-3.45512">
        <ele>14.8</ele>
        <time>2025-09-26T09:50:39Z</time>
      </trkpt>
      <trkpt lat="48.73587" lon="-3.45503">
        <ele>15.4</ele>
        <time>2025-09-26T09:50:44Z</time>
      </trkpt>
      <trkpt lat="48.73596" lon="-3.45501">
        <ele>15.8</ele>
        <time>2025-09-26T09:50:46Z</time>
      </trkpt>
      <trkpt lat="48.73608" lon="-3.455">
        <ele>16.6</ele>
        <time>2025-09-26T09:50:49Z</time>
      </trkpt>
      <trkpt lat="48.73616" lon="-3.45501">
        <ele>17</ele>
        <time>2025-09-26T09:50:51Z</time>
      </trkpt>
      <trkpt lat="48.73636" lon="-3.45509">
        <ele>18.2</ele>
        <time>2025-09-26T09:50:56Z</time>
      </trkpt>
      <trkpt lat="48.73649" lon="-3.45514">
        <ele>18.8</ele>
        <time>2025-09-26T09:50:59Z</time>
      </trkpt>
      <trkpt lat="48.73657" lon="-3.45517">
        <ele>19.2</ele>
        <time>2025-09-26T09:51:01Z</time>
      </trkpt>
      <trkpt lat="48.73676" lon="-3.45522">
        <ele>20.6</ele>
        <time>2025-09-26T09:51:06Z</time>
      </trkpt>
      <trkpt lat="48.73688" lon="-3.45524">
        <ele>21.2</ele>
        <time>2025-09-26T09:51:09Z</time>
      </trkpt>
      <trkpt lat="48.73695" lon="-3.45522">
        <ele>21.8</ele>
        <time>2025-09-26T09:51:11Z</time>
      </trkpt>
      <trkpt lat="48.73713" lon="-3.45516">
        <ele>22.8</ele>
        <time>2025-09-26T09:51:16Z</time>
      </trkpt>
      <trkpt lat="48.73717" lon="-3.45515">
        <ele>23</ele>
        <time>2025-09-26T09:51:17Z</time>
      </trkpt>
      <trkpt lat="48.73733" lon="-3.4551">
        <ele>24.6</ele>
        <time>2025-09-26T09:51:21Z</time>
      </trkpt>
      <trkpt lat="48.7374" lon="-3.45509">
        <ele>25</ele>
        <time>2025-09-26T09:51:23Z</time>
      </trkpt>
      <trkpt lat="48.73754" lon="-3.45507">
        <ele>25.6</ele>
        <time>2025-09-26T09:51:27Z</time>
      </trkpt>
      <trkpt lat="48.73773" lon="-3.45503">
        <ele>26.6</ele>
        <time>2025-09-26T09:51:32Z</time>
      </trkpt>
      <trkpt lat="48.73776" lon="-3.45503">
        <ele>26.8</ele>
        <time>2025-09-26T09:51:33Z</time>
      </trkpt>
      <trkpt lat="48.73794" lon="-3.45499">
        <ele>27.8</ele>
        <time>2025-09-26T09:51:38Z</time>
      </trkpt>
      <trkpt lat="48.7381" lon="-3.45499">
        <ele>28.2</ele>
        <time>2025-09-26T09:51:42Z</time>
      </trkpt>
      <trkpt lat="48.7383" lon="-3.45496">
        <ele>29</ele>
        <time>2025-09-26T09:51:47Z</time>
      </trkpt>
      <trkpt lat="48.73849" lon="-3.45494">
        <ele>30</ele>
        <time>2025-09-26T09:51:52Z</time>
      </trkpt>
      <trkpt lat="48.73854" lon="-3.45493">
        <ele>30.2</ele>
        <time>2025-09-26T09:51:53Z</time>
      </trkpt>
      <trkpt lat="48.73882" lon="-3.4549">
        <ele>31.2</ele>
        <time>2025-09-26T09:52:00Z</time>
      </trkpt>
      <trkpt lat="48.7389" lon="-3.45491">
        <ele>31.6</ele>
        <time>2025-09-26T09:52:02Z</time>
      </trkpt>
      <trkpt lat="48.73906" lon="-3.45495">
        <ele>32.4</ele>
        <time>2025-09-26T09:52:06Z</time>
      </trkpt>
      <trkpt lat="48.73921" lon="-3.45503">
        <ele>33.2</ele>
        <time>2025-09-26T09:52:10Z</time>
      </trkpt>
      <trkpt lat="48.73925" lon="-3.45505">
        <ele>33.4</ele>
        <time>2025-09-26T09:52:11Z</time>
      </trkpt>
      <trkpt lat="48.73947" lon="-3.45518">
        <ele>34.4</ele>
        <time>2025-09-26T09:52:17Z</time>
      </trkpt>
      <trkpt lat="48.73966" lon="-3.45528">
        <ele>35.2</ele>
        <time>2025-09-26T09:52:22Z</time>
      </trkpt>
      <trkpt lat="48.73978" lon="-3.45533">
        <ele>35.6</ele>
        <time>2025-09-26T09:52:25Z</time>
      </trkpt>
      <trkpt lat="48.74001" lon="-3.45538">
        <ele>36.8</ele>
        <time>2025-09-26T09:52:31Z</time>
      </trkpt>
      <trkpt lat="48.74023" lon="-3.45544">
        <ele>37.8</ele>
        <time>2025-09-26T09:52:37Z</time>
      </trkpt>
      <trkpt lat="48.74029" lon="-3.45546">
        <ele>38.2</ele>
        <time>2025-09-26T09:52:39Z</time>
      </trkpt>
      <trkpt lat="48.74042" lon="-3.45549">
        <ele>38.8</ele>
        <time>2025-09-26T09:52:43Z</time>
      </trkpt>
      <trkpt lat="48.74045" lon="-3.45552">
        <ele>38.8</ele>
        <time>2025-09-26T09:52:45Z</time>
      </trkpt>
      <trkpt lat="48.74046" lon="-3.45554">
        <ele>38.8</ele>
        <time>2025-09-26T09:52:46Z</time>
      </trkpt>
      <trkpt lat="48.74043" lon="-3.45562">
        <ele>38.8</ele>
        <time>2025-09-26T09:52:49Z</time>
      </trkpt>
      <trkpt lat="48.74033" lon="-3.45568">
        <ele>37.8</ele>
        <time>2025-09-26T09:52:53Z</time>
      </trkpt>
      <trkpt lat="48.7403" lon="-3.45569">
        <ele>37.4</ele>
        <time>2025-09-26T09:52:54Z</time>
      </trkpt>
      <trkpt lat="48.74024" lon="-3.45572">
        <ele>36.6</ele>
        <time>2025-09-26T09:52:56Z</time>
      </trkpt>
      <trkpt lat="48.74018" lon="-3.45576">
        <ele>36</ele>
        <time>2025-09-26T09:52:58Z</time>
      </trkpt>
      <trkpt lat="48.74013" lon="-3.4558">
        <ele>35.4</ele>
        <time>2025-09-26T09:53:00Z</time>
      </trkpt>
      <trkpt lat="48.74008" lon="-3.45582">
        <ele>35</ele>
        <time>2025-09-26T09:53:02Z</time>
      </trkpt>
      <trkpt lat="48.74005" lon="-3.45581">
        <ele>34.8</ele>
        <time>2025-09-26T09:53:04Z</time>
      </trkpt>
      <trkpt lat="48.73998" lon="-3.45588">
        <ele>34.4</ele>
        <time>2025-09-26T09:53:08Z</time>
      </trkpt>
      <trkpt lat="48.73997" lon="-3.45591">
        <ele>34.4</ele>
        <time>2025-09-26T09:53:09Z</time>
      </trkpt>
      <trkpt lat="48.73994" lon="-3.45597">
        <ele>34.2</ele>
        <time>2025-09-26T09:53:12Z</time>
      </trkpt>
      <trkpt lat="48.73992" lon="-3.45599">
        <ele>34.2</ele>
        <time>2025-09-26T09:53:13Z</time>
      </trkpt>
      <trkpt lat="48.73979" lon="-3.45615">
        <ele>34.6</ele>
        <time>2025-09-26T09:53:18Z</time>
      </trkpt>
      <trkpt lat="48.73972" lon="-3.4563">
        <ele>35.6</ele>
        <time>2025-09-26T09:53:21Z</time>
      </trkpt>
      <trkpt lat="48.73968" lon="-3.45638">
        <ele>36.6</ele>
        <time>2025-09-26T09:53:23Z</time>
      </trkpt>
      <trkpt lat="48.73962" lon="-3.4565">
        <ele>37.8</ele>
        <time>2025-09-26T09:53:26Z</time>
      </trkpt>
      <trkpt lat="48.73959" lon="-3.4566">
        <ele>38.8</ele>
        <time>2025-09-26T09:53:29Z</time>
      </trkpt>
      <trkpt lat="48.73958" lon="-3.45661">
        <ele>39.4</ele>
        <time>2025-09-26T09:53:32Z</time>
      </trkpt>
      <trkpt lat="48.73958" lon="-3.45661">
        <ele>39.4</ele>
        <time>2025-09-26T09:53:37Z</time>
      </trkpt>
      <trkpt lat="48.73959" lon="-3.45663">
        <ele>39.4</ele>
        <time>2025-09-26T09:53:39Z</time>
      </trkpt>
      <trkpt lat="48.73957" lon="-3.45668">
        <ele>39.6</ele>
        <time>2025-09-26T09:53:41Z</time>
      </trkpt>
      <trkpt lat="48.73954" lon="-3.45676">
        <ele>39.8</ele>
        <time>2025-09-26T09:53:43Z</time>
      </trkpt>
      <trkpt lat="48.73947" lon="-3.45691">
        <ele>40.8</ele>
        <time>2025-09-26T09:53:46Z</time>
      </trkpt>
      <trkpt lat="48.73945" lon="-3.45697">
        <ele>41.4</ele>
        <time>2025-09-26T09:53:47Z</time>
      </trkpt>
      <trkpt lat="48.73938" lon="-3.45714">
        <ele>42.6</ele>
        <time>2025-09-26T09:53:50Z</time>
      </trkpt>
      <trkpt lat="48.73932" lon="-3.45724">
        <ele>43.2</ele>
        <time>2025-09-26T09:53:52Z</time>
      </trkpt>
      <trkpt lat="48.73927" lon="-3.45733">
        <ele>43.4</ele>
        <time>2025-09-26T09:53:54Z</time>
      </trkpt>
      <trkpt lat="48.73925" lon="-3.45737">
        <ele>43.8</ele>
        <time>2025-09-26T09:53:55Z</time>
      </trkpt>
      <trkpt lat="48.73913" lon="-3.45756">
        <ele>44.4</ele>
        <time>2025-09-26T09:53:59Z</time>
      </trkpt>
      <trkpt lat="48.7391" lon="-3.4576">
        <ele>44.6</ele>
        <time>2025-09-26T09:54:00Z</time>
      </trkpt>
      <trkpt lat="48.73902" lon="-3.45767">
        <ele>44.6</ele>
        <time>2025-09-26T09:54:02Z</time>
      </trkpt>
      <trkpt lat="48.73895" lon="-3.45772">
        <ele>44.8</ele>
        <time>2025-09-26T09:54:04Z</time>
      </trkpt>
      <trkpt lat="48.7389" lon="-3.45776">
        <ele>44.8</ele>
        <time>2025-09-26T09:54:05Z</time>
      </trkpt>
      <trkpt lat="48.73872" lon="-3.45789">
        <ele>45</ele>
        <time>2025-09-26T09:54:10Z</time>
      </trkpt>
      <trkpt lat="48.73859" lon="-3.458">
        <ele>45</ele>
        <time>2025-09-26T09:54:14Z</time>
      </trkpt>
      <trkpt lat="48.73845" lon="-3.45811">
        <ele>45.2</ele>
        <time>2025-09-26T09:54:18Z</time>
      </trkpt>
      <trkpt lat="48.73834" lon="-3.4582">
        <ele>45.4</ele>
        <time>2025-09-26T09:54:21Z</time>
      </trkpt>
      <trkpt lat="48.73831" lon="-3.45824">
        <ele>45.4</ele>
        <time>2025-09-26T09:54:22Z</time>
      </trkpt>
      <trkpt lat="48.7381" lon="-3.45855">
        <ele>45.8</ele>
        <time>2025-09-26T09:54:30Z</time>
      </trkpt>
      <trkpt lat="48.73805" lon="-3.45865">
        <ele>46</ele>
        <time>2025-09-26T09:54:32Z</time>
      </trkpt>
      <trkpt lat="48.73788" lon="-3.45891">
        <ele>46.6</ele>
        <time>2025-09-26T09:54:38Z</time>
      </trkpt>
      <trkpt lat="48.73766" lon="-3.45914">
        <ele>47</ele>
        <time>2025-09-26T09:54:44Z</time>
      </trkpt>
      <trkpt lat="48.73759" lon="-3.45922">
        <ele>47</ele>
        <time>2025-09-26T09:54:46Z</time>
      </trkpt>
      <trkpt lat="48.73748" lon="-3.45936">
        <ele>47.2</ele>
        <time>2025-09-26T09:54:49Z</time>
      </trkpt>
      <trkpt lat="48.73742" lon="-3.45944">
        <ele>47.6</ele>
        <time>2025-09-26T09:54:51Z</time>
      </trkpt>
      <trkpt lat="48.73726" lon="-3.45968">
        <ele>48</ele>
        <time>2025-09-26T09:54:56Z</time>
      </trkpt>
      <trkpt lat="48.73722" lon="-3.4598">
        <ele>48.4</ele>
        <time>2025-09-26T09:54:58Z</time>
      </trkpt>
      <trkpt lat="48.73715" lon="-3.46013">
        <ele>49.2</ele>
        <time>2025-09-26T09:55:03Z</time>
      </trkpt>
      <trkpt lat="48.73712" lon="-3.46022">
        <ele>49.2</ele>
        <time>2025-09-26T09:55:04Z</time>
      </trkpt>
      <trkpt lat="48.73708" lon="-3.46044">
        <ele>49.4</ele>
        <time>2025-09-26T09:55:07Z</time>
      </trkpt>
      <trkpt lat="48.7369" lon="-3.46101">
        <ele>50</ele>
        <time>2025-09-26T09:55:16Z</time>
      </trkpt>
      <trkpt lat="48.73674" lon="-3.46134">
        <ele>49.2</ele>
        <time>2025-09-26T09:55:22Z</time>
      </trkpt>
      <trkpt lat="48.73673" lon="-3.4614">
        <ele>49.2</ele>
        <time>2025-09-26T09:55:23Z</time>
      </trkpt>
      <trkpt lat="48.73675" lon="-3.46147">
        <ele>49</ele>
        <time>2025-09-26T09:55:24Z</time>
      </trkpt>
      <trkpt lat="48.73677" lon="-3.4615">
        <ele>48.8</ele>
        <time>2025-09-26T09:55:25Z</time>
      </trkpt>
      <trkpt lat="48.73695" lon="-3.46164">
        <ele>48.6</ele>
        <time>2025-09-26T09:55:29Z</time>
      </trkpt>
      <trkpt lat="48.73711" lon="-3.46174">
        <ele>48.6</ele>
        <time>2025-09-26T09:55:32Z</time>
      </trkpt>
      <trkpt lat="48.73736" lon="-3.4619">
        <ele>48</ele>
        <time>2025-09-26T09:55:37Z</time>
      </trkpt>
      <trkpt lat="48.73752" lon="-3.46199">
        <ele>47.6</ele>
        <time>2025-09-26T09:55:40Z</time>
      </trkpt>
      <trkpt lat="48.73793" lon="-3.46223">
        <ele>47.6</ele>
        <time>2025-09-26T09:55:48Z</time>
      </trkpt>
      <trkpt lat="48.73808" lon="-3.46232">
        <ele>47.2</ele>
        <time>2025-09-26T09:55:51Z</time>
      </trkpt>
      <trkpt lat="48.73818" lon="-3.46238">
        <ele>47</ele>
        <time>2025-09-26T09:55:53Z</time>
      </trkpt>
      <trkpt lat="48.73828" lon="-3.46244">
        <ele>47</ele>
        <time>2025-09-26T09:55:55Z</time>
      </trkpt>
      <trkpt lat="48.73833" lon="-3.46247">
        <ele>47</ele>
        <time>2025-09-26T09:55:56Z</time>
      </trkpt>
      <trkpt lat="48.73847" lon="-3.46253">
        <ele>47</ele>
        <time>2025-09-26T09:55:59Z</time>
      </trkpt>
      <trkpt lat="48.73862" lon="-3.4626">
        <ele>47</ele>
        <time>2025-09-26T09:56:02Z</time>
      </trkpt>
      <trkpt lat="48.73876" lon="-3.46269">
        <ele>46.8</ele>
        <time>2025-09-26T09:56:05Z</time>
      </trkpt>
      <trkpt lat="48.73885" lon="-3.46273">
        <ele>46.8</ele>
        <time>2025-09-26T09:56:07Z</time>
      </trkpt>
      <trkpt lat="48.73889" lon="-3.46276">
        <ele>46.8</ele>
        <time>2025-09-26T09:56:08Z</time>
      </trkpt>
      <trkpt lat="48.73894" lon="-3.46278">
        <ele>47</ele>
        <time>2025-09-26T09:56:09Z</time>
      </trkpt>
      <trkpt lat="48.73904" lon="-3.46284">
        <ele>46.8</ele>
        <time>2025-09-26T09:56:11Z</time>
      </trkpt>
      <trkpt lat="48.73917" lon="-3.46291">
        <ele>46.8</ele>
        <time>2025-09-26T09:56:14Z</time>
      </trkpt>
      <trkpt lat="48.73928" lon="-3.46302">
        <ele>47</ele>
        <time>2025-09-26T09:56:17Z</time>
      </trkpt>
      <trkpt lat="48.73937" lon="-3.46323">
        <ele>47.2</ele>
        <time>2025-09-26T09:56:22Z</time>
      </trkpt>
      <trkpt lat="48.7394" lon="-3.46339">
        <ele>47</ele>
        <time>2025-09-26T09:56:27Z</time>
      </trkpt>
      <trkpt lat="48.73947" lon="-3.46367">
        <ele>46.2</ele>
        <time>2025-09-26T09:56:31Z</time>
      </trkpt>
      <trkpt lat="48.73949" lon="-3.46375">
        <ele>46</ele>
        <time>2025-09-26T09:56:32Z</time>
      </trkpt>
      <trkpt lat="48.73952" lon="-3.46383">
        <ele>45.6</ele>
        <time>2025-09-26T09:56:33Z</time>
      </trkpt>
      <trkpt lat="48.73959" lon="-3.46395">
        <ele>45.2</ele>
        <time>2025-09-26T09:56:35Z</time>
      </trkpt>
      <trkpt lat="48.73967" lon="-3.46405">
        <ele>45.2</ele>
        <time>2025-09-26T09:56:37Z</time>
      </trkpt>
      <trkpt lat="48.73977" lon="-3.46409">
        <ele>45.2</ele>
        <time>2025-09-26T09:56:39Z</time>
      </trkpt>
      <trkpt lat="48.74009" lon="-3.46419">
        <ele>45.8</ele>
        <time>2025-09-26T09:56:46Z</time>
      </trkpt>
      <trkpt lat="48.7404" lon="-3.46426">
        <ele>47</ele>
        <time>2025-09-26T09:56:52Z</time>
      </trkpt>
      <trkpt lat="48.74049" lon="-3.46428">
        <ele>47.4</ele>
        <time>2025-09-26T09:56:54Z</time>
      </trkpt>
      <trkpt lat="48.74058" lon="-3.4643">
        <ele>47.6</ele>
        <time>2025-09-26T09:56:56Z</time>
      </trkpt>
      <trkpt lat="48.74073" lon="-3.46436">
        <ele>48.4</ele>
        <time>2025-09-26T09:56:59Z</time>
      </trkpt>
      <trkpt lat="48.74092" lon="-3.46439">
        <ele>49</ele>
        <time>2025-09-26T09:57:03Z</time>
      </trkpt>
      <trkpt lat="48.74102" lon="-3.46442">
        <ele>49.6</ele>
        <time>2025-09-26T09:57:05Z</time>
      </trkpt>
      <trkpt lat="48.74125" lon="-3.46447">
        <ele>50.6</ele>
        <time>2025-09-26T09:57:10Z</time>
      </trkpt>
      <trkpt lat="48.74139" lon="-3.46451">
        <ele>51</ele>
        <time>2025-09-26T09:57:13Z</time>
      </trkpt>
      <trkpt lat="48.74161" lon="-3.46456">
        <ele>52</ele>
        <time>2025-09-26T09:57:18Z</time>
      </trkpt>
      <trkpt lat="48.74175" lon="-3.46459">
        <ele>52.6</ele>
        <time>2025-09-26T09:57:21Z</time>
      </trkpt>
      <trkpt lat="48.74179" lon="-3.4646">
        <ele>52.8</ele>
        <time>2025-09-26T09:57:22Z</time>
      </trkpt>
      <trkpt lat="48.74188" lon="-3.46463">
        <ele>53.2</ele>
        <time>2025-09-26T09:57:24Z</time>
      </trkpt>
      <trkpt lat="48.74206" lon="-3.46468">
        <ele>54.2</ele>
        <time>2025-09-26T09:57:28Z</time>
      </trkpt>
      <trkpt lat="48.74228" lon="-3.46473">
        <ele>55.6</ele>
        <time>2025-09-26T09:57:33Z</time>
      </trkpt>
      <trkpt lat="48.74246" lon="-3.46477">
        <ele>57</ele>
        <time>2025-09-26T09:57:37Z</time>
      </trkpt>
      <trkpt lat="48.74264" lon="-3.46482">
        <ele>58</ele>
        <time>2025-09-26T09:57:41Z</time>
      </trkpt>
      <trkpt lat="48.74277" lon="-3.46485">
        <ele>58.4</ele>
        <time>2025-09-26T09:57:44Z</time>
      </trkpt>
      <trkpt lat="48.74285" lon="-3.46488">
        <ele>59.2</ele>
        <time>2025-09-26T09:57:46Z</time>
      </trkpt>
      <trkpt lat="48.74309" lon="-3.46493">
        <ele>60.2</ele>
        <time>2025-09-26T09:57:51Z</time>
      </trkpt>
      <trkpt lat="48.74331" lon="-3.46499">
        <ele>61.4</ele>
        <time>2025-09-26T09:57:56Z</time>
      </trkpt>
      <trkpt lat="48.7434" lon="-3.46501">
        <ele>61.6</ele>
        <time>2025-09-26T09:57:58Z</time>
      </trkpt>
      <trkpt lat="48.74366" lon="-3.46508">
        <ele>62.4</ele>
        <time>2025-09-26T09:58:04Z</time>
      </trkpt>
      <trkpt lat="48.74393" lon="-3.4652">
        <ele>63</ele>
        <time>2025-09-26T09:58:10Z</time>
      </trkpt>
      <trkpt lat="48.74407" lon="-3.46525">
        <ele>63.4</ele>
        <time>2025-09-26T09:58:13Z</time>
      </trkpt>
      <trkpt lat="48.74411" lon="-3.46527">
        <ele>63.4</ele>
        <time>2025-09-26T09:58:14Z</time>
      </trkpt>
      <trkpt lat="48.74445" lon="-3.46543">
        <ele>64.6</ele>
        <time>2025-09-26T09:58:23Z</time>
      </trkpt>
      <trkpt lat="48.74459" lon="-3.46549">
        <ele>65.2</ele>
        <time>2025-09-26T09:58:27Z</time>
      </trkpt>
      <trkpt lat="48.74466" lon="-3.46553">
        <ele>65.6</ele>
        <time>2025-09-26T09:58:29Z</time>
      </trkpt>
      <trkpt lat="48.7447" lon="-3.46554">
        <ele>65.6</ele>
        <time>2025-09-26T09:58:30Z</time>
      </trkpt>
      <trkpt lat="48.74477" lon="-3.46558">
        <ele>66</ele>
        <time>2025-09-26T09:58:32Z</time>
      </trkpt>
      <trkpt lat="48.74485" lon="-3.46561">
        <ele>66.8</ele>
        <time>2025-09-26T09:58:34Z</time>
      </trkpt>
      <trkpt lat="48.74503" lon="-3.46569">
        <ele>67.2</ele>
        <time>2025-09-26T09:58:39Z</time>
      </trkpt>
      <trkpt lat="48.74515" lon="-3.46576">
        <ele>67.2</ele>
        <time>2025-09-26T09:58:42Z</time>
      </trkpt>
      <trkpt lat="48.74529" lon="-3.46584">
        <ele>67.8</ele>
        <time>2025-09-26T09:58:46Z</time>
      </trkpt>
      <trkpt lat="48.74547" lon="-3.46597">
        <ele>68.8</ele>
        <time>2025-09-26T09:58:51Z</time>
      </trkpt>
      <trkpt lat="48.74575" lon="-3.46619">
        <ele>70</ele>
        <time>2025-09-26T09:58:59Z</time>
      </trkpt>
      <trkpt lat="48.74592" lon="-3.46634">
        <ele>70.6</ele>
        <time>2025-09-26T09:59:04Z</time>
      </trkpt>
      <trkpt lat="48.74607" lon="-3.46647">
        <ele>71</ele>
        <time>2025-09-26T09:59:09Z</time>
      </trkpt>
      <trkpt lat="48.74619" lon="-3.46652">
        <ele>71.6</ele>
        <time>2025-09-26T09:59:13Z</time>
      </trkpt>
      <trkpt lat="48.74632" lon="-3.46656">
        <ele>72</ele>
        <time>2025-09-26T09:59:18Z</time>
      </trkpt>
      <trkpt lat="48.74637" lon="-3.46651">
        <ele>72</ele>
        <time>2025-09-26T09:59:20Z</time>
      </trkpt>
      <trkpt lat="48.74638" lon="-3.46646">
        <ele>72.2</ele>
        <time>2025-09-26T09:59:22Z</time>
      </trkpt>
      <trkpt lat="48.74641" lon="-3.4664">
        <ele>72.4</ele>
        <time>2025-09-26T09:59:27Z</time>
      </trkpt>
      <trkpt lat="48.74643" lon="-3.4664">
        <ele>72.4</ele>
        <time>2025-09-26T09:59:29Z</time>
      </trkpt>
      <trkpt lat="48.74648" lon="-3.46642">
        <ele>72.2</ele>
        <time>2025-09-26T09:59:31Z</time>
      </trkpt>
      <trkpt lat="48.74649" lon="-3.46644">
        <ele>72.2</ele>
        <time>2025-09-26T09:59:32Z</time>
      </trkpt>
      <trkpt lat="48.74649" lon="-3.46649">
        <ele>72.2</ele>
        <time>2025-09-26T09:59:34Z</time>
      </trkpt>
      <trkpt lat="48.74647" lon="-3.4667">
        <ele>72.2</ele>
        <time>2025-09-26T09:59:38Z</time>
      </trkpt>
      <trkpt lat="48.74646" lon="-3.46702">
        <ele>72.2</ele>
        <time>2025-09-26T09:59:43Z</time>
      </trkpt>
      <trkpt lat="48.74646" lon="-3.46714">
        <ele>72.4</ele>
        <time>2025-09-26T09:59:45Z</time>
      </trkpt>
      <trkpt lat="48.74645" lon="-3.46721">
        <ele>72.4</ele>
        <time>2025-09-26T09:59:46Z</time>
      </trkpt>
      <trkpt lat="48.74643" lon="-3.46757">
        <ele>73</ele>
        <time>2025-09-26T09:59:52Z</time>
      </trkpt>
      <trkpt lat="48.74643" lon="-3.46762">
        <ele>73</ele>
        <time>2025-09-26T09:59:53Z</time>
      </trkpt>
      <trkpt lat="48.74643" lon="-3.46767">
        <ele>73.2</ele>
        <time>2025-09-26T09:59:54Z</time>
      </trkpt>
      <trkpt lat="48.74639" lon="-3.46796">
        <ele>73.8</ele>
        <time>2025-09-26T09:59:59Z</time>
      </trkpt>
      <trkpt lat="48.74637" lon="-3.46813">
        <ele>74.2</ele>
        <time>2025-09-26T10:00:02Z</time>
      </trkpt>
      <trkpt lat="48.74634" lon="-3.46856">
        <ele>75.2</ele>
        <time>2025-09-26T10:00:08Z</time>
      </trkpt>
      <trkpt lat="48.74631" lon="-3.46876">
        <ele>75.2</ele>
        <time>2025-09-26T10:00:11Z</time>
      </trkpt>
      <trkpt lat="48.74621" lon="-3.46922">
        <ele>75.8</ele>
        <time>2025-09-26T10:00:18Z</time>
      </trkpt>
      <trkpt lat="48.7461" lon="-3.46964">
        <ele>76.2</ele>
        <time>2025-09-26T10:00:25Z</time>
      </trkpt>
      <trkpt lat="48.74606" lon="-3.46969">
        <ele>76.2</ele>
        <time>2025-09-26T10:00:26Z</time>
      </trkpt>
      <trkpt lat="48.74601" lon="-3.46978">
        <ele>76.4</ele>
        <time>2025-09-26T10:00:28Z</time>
      </trkpt>
      <trkpt lat="48.74589" lon="-3.47005">
        <ele>76.4</ele>
        <time>2025-09-26T10:00:33Z</time>
      </trkpt>
      <trkpt lat="48.74585" lon="-3.47016">
        <ele>76.4</ele>
        <time>2025-09-26T10:00:35Z</time>
      </trkpt>
      <trkpt lat="48.74582" lon="-3.47021">
        <ele>76.4</ele>
        <time>2025-09-26T10:00:36Z</time>
      </trkpt>
      <trkpt lat="48.74569" lon="-3.47043">
        <ele>76.4</ele>
        <time>2025-09-26T10:00:40Z</time>
      </trkpt>
      <trkpt lat="48.74546" lon="-3.47071">
        <ele>76</ele>
        <time>2025-09-26T10:00:46Z</time>
      </trkpt>
      <trkpt lat="48.74542" lon="-3.47074">
        <ele>75.8</ele>
        <time>2025-09-26T10:00:47Z</time>
      </trkpt>
      <trkpt lat="48.74515" lon="-3.47102">
        <ele>75.2</ele>
        <time>2025-09-26T10:00:53Z</time>
      </trkpt>
      <trkpt lat="48.74508" lon="-3.47111">
        <ele>75.2</ele>
        <time>2025-09-26T10:00:55Z</time>
      </trkpt>
      <trkpt lat="48.74479" lon="-3.4714">
        <ele>74.4</ele>
        <time>2025-09-26T10:01:01Z</time>
      </trkpt>
      <trkpt lat="48.74475" lon="-3.47144">
        <ele>74.4</ele>
        <time>2025-09-26T10:01:02Z</time>
      </trkpt>
      <trkpt lat="48.74461" lon="-3.47157">
        <ele>74.2</ele>
        <time>2025-09-26T10:01:05Z</time>
      </trkpt>
      <trkpt lat="48.74446" lon="-3.47171">
        <ele>73.6</ele>
        <time>2025-09-26T10:01:08Z</time>
      </trkpt>
      <trkpt lat="48.74423" lon="-3.47194">
        <ele>73.2</ele>
        <time>2025-09-26T10:01:13Z</time>
      </trkpt>
      <trkpt lat="48.74404" lon="-3.47213">
        <ele>72.6</ele>
        <time>2025-09-26T10:01:17Z</time>
      </trkpt>
      <trkpt lat="48.74398" lon="-3.47219">
        <ele>72.8</ele>
        <time>2025-09-26T10:01:18Z</time>
      </trkpt>
      <trkpt lat="48.7439" lon="-3.47227">
        <ele>72.6</ele>
        <time>2025-09-26T10:01:20Z</time>
      </trkpt>
      <trkpt lat="48.74376" lon="-3.47239">
        <ele>72.8</ele>
        <time>2025-09-26T10:01:23Z</time>
      </trkpt>
      <trkpt lat="48.74351" lon="-3.47262">
        <ele>72.8</ele>
        <time>2025-09-26T10:01:29Z</time>
      </trkpt>
      <trkpt lat="48.74347" lon="-3.47265">
        <ele>73</ele>
        <time>2025-09-26T10:01:30Z</time>
      </trkpt>
      <trkpt lat="48.74336" lon="-3.47273">
        <ele>72.8</ele>
        <time>2025-09-26T10:01:33Z</time>
      </trkpt>
      <trkpt lat="48.74311" lon="-3.47296">
        <ele>73</ele>
        <time>2025-09-26T10:01:39Z</time>
      </trkpt>
      <trkpt lat="48.74295" lon="-3.47311">
        <ele>72.8</ele>
        <time>2025-09-26T10:01:43Z</time>
      </trkpt>
      <trkpt lat="48.74291" lon="-3.47322">
        <ele>72.8</ele>
        <time>2025-09-26T10:01:45Z</time>
      </trkpt>
      <trkpt lat="48.74288" lon="-3.47335">
        <ele>72.6</ele>
        <time>2025-09-26T10:01:47Z</time>
      </trkpt>
      <trkpt lat="48.74282" lon="-3.47345">
        <ele>72.4</ele>
        <time>2025-09-26T10:01:49Z</time>
      </trkpt>
      <trkpt lat="48.74273" lon="-3.47348">
        <ele>72.4</ele>
        <time>2025-09-26T10:01:51Z</time>
      </trkpt>
      <trkpt lat="48.74268" lon="-3.47347">
        <ele>72.2</ele>
        <time>2025-09-26T10:01:52Z</time>
      </trkpt>
      <trkpt lat="48.74262" lon="-3.47346">
        <ele>72.2</ele>
        <time>2025-09-26T10:01:53Z</time>
      </trkpt>
      <trkpt lat="48.74257" lon="-3.47346">
        <ele>72</ele>
        <time>2025-09-26T10:01:54Z</time>
      </trkpt>
      <trkpt lat="48.74252" lon="-3.47349">
        <ele>71.8</ele>
        <time>2025-09-26T10:01:55Z</time>
      </trkpt>
      <trkpt lat="48.74241" lon="-3.47359">
        <ele>71.2</ele>
        <time>2025-09-26T10:01:57Z</time>
      </trkpt>
      <trkpt lat="48.74235" lon="-3.47365">
        <ele>70.8</ele>
        <time>2025-09-26T10:01:58Z</time>
      </trkpt>
      <trkpt lat="48.74221" lon="-3.47382">
        <ele>70.6</ele>
        <time>2025-09-26T10:02:01Z</time>
      </trkpt>
      <trkpt lat="48.74209" lon="-3.47405">
        <ele>70.2</ele>
        <time>2025-09-26T10:02:04Z</time>
      </trkpt>
      <trkpt lat="48.74203" lon="-3.47425">
        <ele>69.6</ele>
        <time>2025-09-26T10:02:06Z</time>
      </trkpt>
      <trkpt lat="48.74201" lon="-3.47433">
        <ele>69.4</ele>
        <time>2025-09-26T10:02:07Z</time>
      </trkpt>
      <trkpt lat="48.74197" lon="-3.47465">
        <ele>69</ele>
        <time>2025-09-26T10:02:10Z</time>
      </trkpt>
      <trkpt lat="48.74197" lon="-3.47473">
        <ele>69</ele>
        <time>2025-09-26T10:02:11Z</time>
      </trkpt>
      <trkpt lat="48.74198" lon="-3.47483">
        <ele>68.8</ele>
        <time>2025-09-26T10:02:12Z</time>
      </trkpt>
      <trkpt lat="48.74199" lon="-3.47493">
        <ele>68.8</ele>
        <time>2025-09-26T10:02:13Z</time>
      </trkpt>
      <trkpt lat="48.74203" lon="-3.47513">
        <ele>68.4</ele>
        <time>2025-09-26T10:02:15Z</time>
      </trkpt>
      <trkpt lat="48.74205" lon="-3.47525">
        <ele>68.2</ele>
        <time>2025-09-26T10:02:16Z</time>
      </trkpt>
      <trkpt lat="48.74211" lon="-3.47553">
        <ele>67.2</ele>
        <time>2025-09-26T10:02:19Z</time>
      </trkpt>
      <trkpt lat="48.74222" lon="-3.47606">
        <ele>66.4</ele>
        <time>2025-09-26T10:02:24Z</time>
      </trkpt>
      <trkpt lat="48.74224" lon="-3.47614">
        <ele>66.2</ele>
        <time>2025-09-26T10:02:25Z</time>
      </trkpt>
      <trkpt lat="48.74235" lon="-3.47664">
        <ele>65</ele>
        <time>2025-09-26T10:02:30Z</time>
      </trkpt>
      <trkpt lat="48.74239" lon="-3.4768">
        <ele>63.8</ele>
        <time>2025-09-26T10:02:32Z</time>
      </trkpt>
      <trkpt lat="48.74242" lon="-3.47696">
        <ele>63.4</ele>
        <time>2025-09-26T10:02:34Z</time>
      </trkpt>
      <trkpt lat="48.74244" lon="-3.47705">
        <ele>63.2</ele>
        <time>2025-09-26T10:02:35Z</time>
      </trkpt>
      <trkpt lat="48.74245" lon="-3.47723">
        <ele>63</ele>
        <time>2025-09-26T10:02:37Z</time>
      </trkpt>
      <trkpt lat="48.74247" lon="-3.47741">
        <ele>62.6</ele>
        <time>2025-09-26T10:02:39Z</time>
      </trkpt>
      <trkpt lat="48.74252" lon="-3.47763">
        <ele>62.4</ele>
        <time>2025-09-26T10:02:43Z</time>
      </trkpt>
      <trkpt lat="48.7426" lon="-3.4777">
        <ele>62.4</ele>
        <time>2025-09-26T10:02:46Z</time>
      </trkpt>
      <trkpt lat="48.74265" lon="-3.47778">
        <ele>62.6</ele>
        <time>2025-09-26T10:02:48Z</time>
      </trkpt>
      <trkpt lat="48.74271" lon="-3.47788">
        <ele>63</ele>
        <time>2025-09-26T10:02:50Z</time>
      </trkpt>
      <trkpt lat="48.74279" lon="-3.478">
        <ele>63.4</ele>
        <time>2025-09-26T10:02:53Z</time>
      </trkpt>
      <trkpt lat="48.74289" lon="-3.47817">
        <ele>63.8</ele>
        <time>2025-09-26T10:02:56Z</time>
      </trkpt>
      <trkpt lat="48.74299" lon="-3.47835">
        <ele>64.2</ele>
        <time>2025-09-26T10:02:59Z</time>
      </trkpt>
      <trkpt lat="48.74315" lon="-3.47871">
        <ele>64.6</ele>
        <time>2025-09-26T10:03:05Z</time>
      </trkpt>
      <trkpt lat="48.74325" lon="-3.47897">
        <ele>64.8</ele>
        <time>2025-09-26T10:03:09Z</time>
      </trkpt>
      <trkpt lat="48.74326" lon="-3.4791">
        <ele>65</ele>
        <time>2025-09-26T10:03:11Z</time>
      </trkpt>
      <trkpt lat="48.74325" lon="-3.47938">
        <ele>65.4</ele>
        <time>2025-09-26T10:03:15Z</time>
      </trkpt>
      <trkpt lat="48.74323" lon="-3.4795">
        <ele>65.6</ele>
        <time>2025-09-26T10:03:17Z</time>
      </trkpt>
      <trkpt lat="48.74318" lon="-3.47972">
        <ele>65.4</ele>
        <time>2025-09-26T10:03:22Z</time>
      </trkpt>
      <trkpt lat="48.74315" lon="-3.47988">
        <ele>64.6</ele>
        <time>2025-09-26T10:03:27Z</time>
      </trkpt>
      <trkpt lat="48.74315" lon="-3.48011">
        <ele>65.2</ele>
        <time>2025-09-26T10:03:32Z</time>
      </trkpt>
      <trkpt lat="48.74311" lon="-3.48031">
        <ele>65.2</ele>
        <time>2025-09-26T10:03:35Z</time>
      </trkpt>
      <trkpt lat="48.74307" lon="-3.48045">
        <ele>65</ele>
        <time>2025-09-26T10:03:37Z</time>
      </trkpt>
      <trkpt lat="48.74294" lon="-3.48081">
        <ele>64</ele>
        <time>2025-09-26T10:03:42Z</time>
      </trkpt>
      <trkpt lat="48.74291" lon="-3.48087">
        <ele>63.6</ele>
        <time>2025-09-26T10:03:43Z</time>
      </trkpt>
      <trkpt lat="48.74283" lon="-3.48107">
        <ele>62.8</ele>
        <time>2025-09-26T10:03:46Z</time>
      </trkpt>
      <trkpt lat="48.74278" lon="-3.48117">
        <ele>62.4</ele>
        <time>2025-09-26T10:03:48Z</time>
      </trkpt>
      <trkpt lat="48.74276" lon="-3.48129">
        <ele>62</ele>
        <time>2025-09-26T10:03:50Z</time>
      </trkpt>
      <trkpt lat="48.74277" lon="-3.48134">
        <ele>61.8</ele>
        <time>2025-09-26T10:03:51Z</time>
      </trkpt>
      <trkpt lat="48.74279" lon="-3.48139">
        <ele>61.4</ele>
        <time>2025-09-26T10:03:52Z</time>
      </trkpt>
      <trkpt lat="48.74286" lon="-3.48154">
        <ele>61.2</ele>
        <time>2025-09-26T10:03:55Z</time>
      </trkpt>
      <trkpt lat="48.74298" lon="-3.48184">
        <ele>59.8</ele>
        <time>2025-09-26T10:04:00Z</time>
      </trkpt>
      <trkpt lat="48.74303" lon="-3.48196">
        <ele>59.4</ele>
        <time>2025-09-26T10:04:02Z</time>
      </trkpt>
      <trkpt lat="48.74304" lon="-3.48201">
        <ele>58.8</ele>
        <time>2025-09-26T10:04:03Z</time>
      </trkpt>
      <trkpt lat="48.7431" lon="-3.48212">
        <ele>58</ele>
        <time>2025-09-26T10:04:05Z</time>
      </trkpt>
      <trkpt lat="48.74314" lon="-3.48216">
        <ele>57.6</ele>
        <time>2025-09-26T10:04:06Z</time>
      </trkpt>
      <trkpt lat="48.74318" lon="-3.48218">
        <ele>57</ele>
        <time>2025-09-26T10:04:07Z</time>
      </trkpt>
      <trkpt lat="48.74323" lon="-3.4822">
        <ele>56.6</ele>
        <time>2025-09-26T10:04:08Z</time>
      </trkpt>
      <trkpt lat="48.74329" lon="-3.48221">
        <ele>56.2</ele>
        <time>2025-09-26T10:04:09Z</time>
      </trkpt>
      <trkpt lat="48.74337" lon="-3.48221">
        <ele>55.6</ele>
        <time>2025-09-26T10:04:10Z</time>
      </trkpt>
      <trkpt lat="48.74343" lon="-3.4822">
        <ele>55.2</ele>
        <time>2025-09-26T10:04:11Z</time>
      </trkpt>
      <trkpt lat="48.74362" lon="-3.48215">
        <ele>54.6</ele>
        <time>2025-09-26T10:04:14Z</time>
      </trkpt>
      <trkpt lat="48.74365" lon="-3.48214">
        <ele>54.6</ele>
        <time>2025-09-26T10:04:15Z</time>
      </trkpt>
      <trkpt lat="48.74373" lon="-3.48214">
        <ele>54.6</ele>
        <time>2025-09-26T10:04:17Z</time>
      </trkpt>
      <trkpt lat="48.74385" lon="-3.48221">
        <ele>54.8</ele>
        <time>2025-09-26T10:04:21Z</time>
      </trkpt>
      <trkpt lat="48.74402" lon="-3.48242">
        <ele>56</ele>
        <time>2025-09-26T10:04:26Z</time>
      </trkpt>
      <trkpt lat="48.74405" lon="-3.48246">
        <ele>56.4</ele>
        <time>2025-09-26T10:04:27Z</time>
      </trkpt>
      <trkpt lat="48.74414" lon="-3.48258">
        <ele>58</ele>
        <time>2025-09-26T10:04:30Z</time>
      </trkpt>
      <trkpt lat="48.74421" lon="-3.48268">
        <ele>59</ele>
        <time>2025-09-26T10:04:33Z</time>
      </trkpt>
      <trkpt lat="48.74424" lon="-3.48272">
        <ele>59.4</ele>
        <time>2025-09-26T10:04:34Z</time>
      </trkpt>
      <trkpt lat="48.74435" lon="-3.48276">
        <ele>60.4</ele>
        <time>2025-09-26T10:04:37Z</time>
      </trkpt>
      <trkpt lat="48.74438" lon="-3.48276">
        <ele>61.6</ele>
        <time>2025-09-26T10:04:38Z</time>
      </trkpt>
      <trkpt lat="48.74441" lon="-3.48275">
        <ele>61.8</ele>
        <time>2025-09-26T10:04:39Z</time>
      </trkpt>
      <trkpt lat="48.74448" lon="-3.48274">
        <ele>62.6</ele>
        <time>2025-09-26T10:04:41Z</time>
      </trkpt>
      <trkpt lat="48.74451" lon="-3.48274">
        <ele>63</ele>
        <time>2025-09-26T10:04:42Z</time>
      </trkpt>
      <trkpt lat="48.74454" lon="-3.48274">
        <ele>63.4</ele>
        <time>2025-09-26T10:04:43Z</time>
      </trkpt>
      <trkpt lat="48.74457" lon="-3.48273">
        <ele>63.6</ele>
        <time>2025-09-26T10:04:44Z</time>
      </trkpt>
      <trkpt lat="48.7446" lon="-3.48272">
        <ele>64.6</ele>
        <time>2025-09-26T10:04:45Z</time>
      </trkpt>
      <trkpt lat="48.74464" lon="-3.48271">
        <ele>64.8</ele>
        <time>2025-09-26T10:04:46Z</time>
      </trkpt>
      <trkpt lat="48.74473" lon="-3.48267">
        <ele>66</ele>
        <time>2025-09-26T10:04:49Z</time>
      </trkpt>
      <trkpt lat="48.74483" lon="-3.48263">
        <ele>67</ele>
        <time>2025-09-26T10:04:52Z</time>
      </trkpt>
      <trkpt lat="48.74503" lon="-3.48264">
        <ele>68.4</ele>
        <time>2025-09-26T10:04:58Z</time>
      </trkpt>
      <trkpt lat="48.74507" lon="-3.48264">
        <ele>68.4</ele>
        <time>2025-09-26T10:04:59Z</time>
      </trkpt>
      <trkpt lat="48.74517" lon="-3.48265">
        <ele>69.4</ele>
        <time>2025-09-26T10:05:02Z</time>
      </trkpt>
      <trkpt lat="48.74536" lon="-3.48267">
        <ele>70.2</ele>
        <time>2025-09-26T10:05:07Z</time>
      </trkpt>
      <trkpt lat="48.7454" lon="-3.48267">
        <ele>70.6</ele>
        <time>2025-09-26T10:05:08Z</time>
      </trkpt>
      <trkpt lat="48.74555" lon="-3.4827">
        <ele>71.8</ele>
        <time>2025-09-26T10:05:12Z</time>
      </trkpt>
      <trkpt lat="48.7457" lon="-3.48274">
        <ele>72.6</ele>
        <time>2025-09-26T10:05:16Z</time>
      </trkpt>
      <trkpt lat="48.74573" lon="-3.48275">
        <ele>73</ele>
        <time>2025-09-26T10:05:17Z</time>
      </trkpt>
      <trkpt lat="48.74591" lon="-3.48285">
        <ele>74</ele>
        <time>2025-09-26T10:05:22Z</time>
      </trkpt>
      <trkpt lat="48.74596" lon="-3.48288">
        <ele>74</ele>
        <time>2025-09-26T10:05:24Z</time>
      </trkpt>
      <trkpt lat="48.74608" lon="-3.48294">
        <ele>74.6</ele>
        <time>2025-09-26T10:05:30Z</time>
      </trkpt>
      <trkpt lat="48.7461" lon="-3.48301">
        <ele>74.6</ele>
        <time>2025-09-26T10:05:32Z</time>
      </trkpt>
      <trkpt lat="48.74609" lon="-3.48307">
        <ele>74.8</ele>
        <time>2025-09-26T10:05:34Z</time>
      </trkpt>
      <trkpt lat="48.74604" lon="-3.48338">
        <ele>74.6</ele>
        <time>2025-09-26T10:05:40Z</time>
      </trkpt>
      <trkpt lat="48.74598" lon="-3.4837">
        <ele>74.4</ele>
        <time>2025-09-26T10:05:46Z</time>
      </trkpt>
      <trkpt lat="48.74596" lon="-3.48386">
        <ele>74.2</ele>
        <time>2025-09-26T10:05:48Z</time>
      </trkpt>
      <trkpt lat="48.74591" lon="-3.48422">
        <ele>74.2</ele>
        <time>2025-09-26T10:05:53Z</time>
      </trkpt>
      <trkpt lat="48.74591" lon="-3.4843">
        <ele>74.2</ele>
        <time>2025-09-26T10:05:54Z</time>
      </trkpt>
      <trkpt lat="48.74595" lon="-3.48474">
        <ele>74.8</ele>
        <time>2025-09-26T10:06:00Z</time>
      </trkpt>
      <trkpt lat="48.74595" lon="-3.48481">
        <ele>75</ele>
        <time>2025-09-26T10:06:01Z</time>
      </trkpt>
      <trkpt lat="48.74595" lon="-3.48493">
        <ele>75.4</ele>
        <time>2025-09-26T10:06:03Z</time>
      </trkpt>
      <trkpt lat="48.74594" lon="-3.48506">
        <ele>76</ele>
        <time>2025-09-26T10:06:05Z</time>
      </trkpt>
      <trkpt lat="48.74594" lon="-3.48512">
        <ele>76.6</ele>
        <time>2025-09-26T10:06:06Z</time>
      </trkpt>
      <trkpt lat="48.74592" lon="-3.48529">
        <ele>77.2</ele>
        <time>2025-09-26T10:06:09Z</time>
      </trkpt>
      <trkpt lat="48.74592" lon="-3.48536">
        <ele>77.4</ele>
        <time>2025-09-26T10:06:10Z</time>
      </trkpt>
      <trkpt lat="48.74592" lon="-3.48549">
        <ele>78.6</ele>
        <time>2025-09-26T10:06:12Z</time>
      </trkpt>
      <trkpt lat="48.74593" lon="-3.48568">
        <ele>79.8</ele>
        <time>2025-09-26T10:06:15Z</time>
      </trkpt>
      <trkpt lat="48.74596" lon="-3.48587">
        <ele>81.2</ele>
        <time>2025-09-26T10:06:18Z</time>
      </trkpt>
      <trkpt lat="48.74597" lon="-3.48593">
        <ele>81.6</ele>
        <time>2025-09-26T10:06:19Z</time>
      </trkpt>
      <trkpt lat="48.74598" lon="-3.48604">
        <ele>82.4</ele>
        <time>2025-09-26T10:06:21Z</time>
      </trkpt>
      <trkpt lat="48.746" lon="-3.48615">
        <ele>83.6</ele>
        <time>2025-09-26T10:06:23Z</time>
      </trkpt>
      <trkpt lat="48.74604" lon="-3.48637">
        <ele>85</ele>
        <time>2025-09-26T10:06:27Z</time>
      </trkpt>
      <trkpt lat="48.74605" lon="-3.48647">
        <ele>85.8</ele>
        <time>2025-09-26T10:06:29Z</time>
      </trkpt>
      <trkpt lat="48.74606" lon="-3.48653">
        <ele>86</ele>
        <time>2025-09-26T10:06:30Z</time>
      </trkpt>
      <trkpt lat="48.74607" lon="-3.4867">
        <ele>87</ele>
        <time>2025-09-26T10:06:33Z</time>
      </trkpt>
      <trkpt lat="48.74609" lon="-3.48683">
        <ele>87.8</ele>
        <time>2025-09-26T10:06:35Z</time>
      </trkpt>
      <trkpt lat="48.74609" lon="-3.48689">
        <ele>88.4</ele>
        <time>2025-09-26T10:06:36Z</time>
      </trkpt>
      <trkpt lat="48.7461" lon="-3.48705">
        <ele>89.6</ele>
        <time>2025-09-26T10:06:39Z</time>
      </trkpt>
      <trkpt lat="48.74611" lon="-3.48721">
        <ele>90.6</ele>
        <time>2025-09-26T10:06:42Z</time>
      </trkpt>
      <trkpt lat="48.7461" lon="-3.48733">
        <ele>91.4</ele>
        <time>2025-09-26T10:06:44Z</time>
      </trkpt>
      <trkpt lat="48.74609" lon="-3.48739">
        <ele>91.8</ele>
        <time>2025-09-26T10:06:45Z</time>
      </trkpt>
      <trkpt lat="48.74607" lon="-3.4876">
        <ele>92.8</ele>
        <time>2025-09-26T10:06:49Z</time>
      </trkpt>
      <trkpt lat="48.74606" lon="-3.48783">
        <ele>93.6</ele>
        <time>2025-09-26T10:06:53Z</time>
      </trkpt>
      <trkpt lat="48.74604" lon="-3.48789">
        <ele>93.8</ele>
        <time>2025-09-26T10:06:54Z</time>
      </trkpt>
      <trkpt lat="48.74597" lon="-3.48809">
        <ele>95</ele>
        <time>2025-09-26T10:06:59Z</time>
      </trkpt>
      <trkpt lat="48.74583" lon="-3.48818">
        <ele>96</ele>
        <time>2025-09-26T10:07:04Z</time>
      </trkpt>
      <trkpt lat="48.7458" lon="-3.48819">
        <ele>96.2</ele>
        <time>2025-09-26T10:07:05Z</time>
      </trkpt>
      <trkpt lat="48.74572" lon="-3.48831">
        <ele>96.4</ele>
        <time>2025-09-26T10:07:09Z</time>
      </trkpt>
      <trkpt lat="48.74571" lon="-3.48857">
        <ele>97</ele>
        <time>2025-09-26T10:07:15Z</time>
      </trkpt>
      <trkpt lat="48.74572" lon="-3.48862">
        <ele>97.2</ele>
        <time>2025-09-26T10:07:16Z</time>
      </trkpt>
      <trkpt lat="48.74579" lon="-3.48882">
        <ele>97.4</ele>
        <time>2025-09-26T10:07:21Z</time>
      </trkpt>
      <trkpt lat="48.74589" lon="-3.48895">
        <ele>97.4</ele>
        <time>2025-09-26T10:07:26Z</time>
      </trkpt>
      <trkpt lat="48.74592" lon="-3.48923">
        <ele>97.2</ele>
        <time>2025-09-26T10:07:31Z</time>
      </trkpt>
      <trkpt lat="48.74593" lon="-3.4893">
        <ele>97</ele>
        <time>2025-09-26T10:07:32Z</time>
      </trkpt>
      <trkpt lat="48.74594" lon="-3.48936">
        <ele>97</ele>
        <time>2025-09-26T10:07:33Z</time>
      </trkpt>
      <trkpt lat="48.74594" lon="-3.48942">
        <ele>97</ele>
        <time>2025-09-26T10:07:34Z</time>
      </trkpt>
      <trkpt lat="48.74595" lon="-3.48953">
        <ele>97</ele>
        <time>2025-09-26T10:07:36Z</time>
      </trkpt>
      <trkpt lat="48.74596" lon="-3.48969">
        <ele>97</ele>
        <time>2025-09-26T10:07:39Z</time>
      </trkpt>
      <trkpt lat="48.74596" lon="-3.4898">
        <ele>97</ele>
        <time>2025-09-26T10:07:41Z</time>
      </trkpt>
      <trkpt lat="48.74598" lon="-3.49005">
        <ele>97</ele>
        <time>2025-09-26T10:07:46Z</time>
      </trkpt>
      <trkpt lat="48.74599" lon="-3.49023">
        <ele>97</ele>
        <time>2025-09-26T10:07:49Z</time>
      </trkpt>
      <trkpt lat="48.74597" lon="-3.49056">
        <ele>97.2</ele>
        <time>2025-09-26T10:07:54Z</time>
      </trkpt>
      <trkpt lat="48.74593" lon="-3.49125">
        <ele>97.4</ele>
        <time>2025-09-26T10:08:04Z</time>
      </trkpt>
      <trkpt lat="48.74588" lon="-3.49186">
        <ele>97.4</ele>
        <time>2025-09-26T10:08:13Z</time>
      </trkpt>
      <trkpt lat="48.74587" lon="-3.49193">
        <ele>97.4</ele>
        <time>2025-09-26T10:08:14Z</time>
      </trkpt>
      <trkpt lat="48.74587" lon="-3.492">
        <ele>97.4</ele>
        <time>2025-09-26T10:08:15Z</time>
      </trkpt>
      <trkpt lat="48.74586" lon="-3.49213">
        <ele>97.4</ele>
        <time>2025-09-26T10:08:17Z</time>
      </trkpt>
      <trkpt lat="48.74583" lon="-3.49258">
        <ele>97.4</ele>
        <time>2025-09-26T10:08:23Z</time>
      </trkpt>
      <trkpt lat="48.74583" lon="-3.49265">
        <ele>97.4</ele>
        <time>2025-09-26T10:08:24Z</time>
      </trkpt>
      <trkpt lat="48.74584" lon="-3.4927">
        <ele>97.4</ele>
        <time>2025-09-26T10:08:25Z</time>
      </trkpt>
      <trkpt lat="48.74585" lon="-3.49278">
        <ele>97.4</ele>
        <time>2025-09-26T10:08:26Z</time>
      </trkpt>
      <trkpt lat="48.74585" lon="-3.49284">
        <ele>97.4</ele>
        <time>2025-09-26T10:08:27Z</time>
      </trkpt>
      <trkpt lat="48.74586" lon="-3.49291">
        <ele>97.4</ele>
        <time>2025-09-26T10:08:28Z</time>
      </trkpt>
      <trkpt lat="48.74586" lon="-3.49297">
        <ele>97.6</ele>
        <time>2025-09-26T10:08:29Z</time>
      </trkpt>
      <trkpt lat="48.74581" lon="-3.49335">
        <ele>98</ele>
        <time>2025-09-26T10:08:35Z</time>
      </trkpt>
      <trkpt lat="48.74567" lon="-3.49376">
        <ele>96.6</ele>
        <time>2025-09-26T10:08:41Z</time>
      </trkpt>
      <trkpt lat="48.7456" lon="-3.49392">
        <ele>96</ele>
        <time>2025-09-26T10:08:43Z</time>
      </trkpt>
      <trkpt lat="48.74546" lon="-3.49427">
        <ele>95</ele>
        <time>2025-09-26T10:08:47Z</time>
      </trkpt>
      <trkpt lat="48.74531" lon="-3.49461">
        <ele>93.4</ele>
        <time>2025-09-26T10:08:51Z</time>
      </trkpt>
      <trkpt lat="48.74522" lon="-3.49485">
        <ele>92</ele>
        <time>2025-09-26T10:08:54Z</time>
      </trkpt>
      <trkpt lat="48.74517" lon="-3.49503">
        <ele>91.8</ele>
        <time>2025-09-26T10:08:56Z</time>
      </trkpt>
      <trkpt lat="48.74514" lon="-3.49523">
        <ele>91</ele>
        <time>2025-09-26T10:08:58Z</time>
      </trkpt>
      <trkpt lat="48.74513" lon="-3.49534">
        <ele>90.6</ele>
        <time>2025-09-26T10:08:59Z</time>
      </trkpt>
      <trkpt lat="48.74512" lon="-3.49545">
        <ele>90.2</ele>
        <time>2025-09-26T10:09:00Z</time>
      </trkpt>
      <trkpt lat="48.74514" lon="-3.49579">
        <ele>89.6</ele>
        <time>2025-09-26T10:09:03Z</time>
      </trkpt>
      <trkpt lat="48.74516" lon="-3.49603">
        <ele>89</ele>
        <time>2025-09-26T10:09:05Z</time>
      </trkpt>
      <trkpt lat="48.74518" lon="-3.49627">
        <ele>88.2</ele>
        <time>2025-09-26T10:09:07Z</time>
      </trkpt>
      <trkpt lat="48.7452" lon="-3.49652">
        <ele>87.8</ele>
        <time>2025-09-26T10:09:09Z</time>
      </trkpt>
      <trkpt lat="48.7452" lon="-3.49677">
        <ele>87.2</ele>
        <time>2025-09-26T10:09:11Z</time>
      </trkpt>
      <trkpt lat="48.74517" lon="-3.49701">
        <ele>86</ele>
        <time>2025-09-26T10:09:13Z</time>
      </trkpt>
      <trkpt lat="48.74512" lon="-3.49734">
        <ele>85.8</ele>
        <time>2025-09-26T10:09:16Z</time>
      </trkpt>
      <trkpt lat="48.74502" lon="-3.49791">
        <ele>86</ele>
        <time>2025-09-26T10:09:22Z</time>
      </trkpt>
      <trkpt lat="48.74493" lon="-3.49843">
        <ele>86.6</ele>
        <time>2025-09-26T10:09:28Z</time>
      </trkpt>
      <trkpt lat="48.74492" lon="-3.49852">
        <ele>87</ele>
        <time>2025-09-26T10:09:29Z</time>
      </trkpt>
      <trkpt lat="48.74487" lon="-3.49881">
        <ele>87.6</ele>
        <time>2025-09-26T10:09:33Z</time>
      </trkpt>
      <trkpt lat="48.7448" lon="-3.49904">
        <ele>88.2</ele>
        <time>2025-09-26T10:09:36Z</time>
      </trkpt>
      <trkpt lat="48.74473" lon="-3.4993">
        <ele>88.6</ele>
        <time>2025-09-26T10:09:39Z</time>
      </trkpt>
      <trkpt lat="48.7446" lon="-3.49983">
        <ele>89.2</ele>
        <time>2025-09-26T10:09:45Z</time>
      </trkpt>
      <trkpt lat="48.74454" lon="-3.50036">
        <ele>90</ele>
        <time>2025-09-26T10:09:51Z</time>
      </trkpt>
      <trkpt lat="48.74453" lon="-3.50045">
        <ele>90</ele>
        <time>2025-09-26T10:09:52Z</time>
      </trkpt>
      <trkpt lat="48.74453" lon="-3.50053">
        <ele>90.4</ele>
        <time>2025-09-26T10:09:53Z</time>
      </trkpt>
      <trkpt lat="48.74454" lon="-3.50067">
        <ele>90.6</ele>
        <time>2025-09-26T10:09:55Z</time>
      </trkpt>
      <trkpt lat="48.74459" lon="-3.50082">
        <ele>90.8</ele>
        <time>2025-09-26T10:09:57Z</time>
      </trkpt>
      <trkpt lat="48.74477" lon="-3.50101">
        <ele>91.4</ele>
        <time>2025-09-26T10:10:01Z</time>
      </trkpt>
      <trkpt lat="48.74481" lon="-3.50106">
        <ele>91.6</ele>
        <time>2025-09-26T10:10:02Z</time>
      </trkpt>
      <trkpt lat="48.74494" lon="-3.50125">
        <ele>92.4</ele>
        <time>2025-09-26T10:10:05Z</time>
      </trkpt>
      <trkpt lat="48.74515" lon="-3.50157">
        <ele>93</ele>
        <time>2025-09-26T10:10:10Z</time>
      </trkpt>
      <trkpt lat="48.74523" lon="-3.50169">
        <ele>93.6</ele>
        <time>2025-09-26T10:10:12Z</time>
      </trkpt>
      <trkpt lat="48.74549" lon="-3.5021">
        <ele>93.8</ele>
        <time>2025-09-26T10:10:19Z</time>
      </trkpt>
      <trkpt lat="48.74578" lon="-3.50257">
        <ele>94.6</ele>
        <time>2025-09-26T10:10:27Z</time>
      </trkpt>
      <trkpt lat="48.746" lon="-3.50291">
        <ele>95.6</ele>
        <time>2025-09-26T10:10:33Z</time>
      </trkpt>
      <trkpt lat="48.74608" lon="-3.50304">
        <ele>96</ele>
        <time>2025-09-26T10:10:35Z</time>
      </trkpt>
      <trkpt lat="48.7463" lon="-3.50337">
        <ele>96.8</ele>
        <time>2025-09-26T10:10:41Z</time>
      </trkpt>
      <trkpt lat="48.74641" lon="-3.50355">
        <ele>97</ele>
        <time>2025-09-26T10:10:44Z</time>
      </trkpt>
      <trkpt lat="48.7467" lon="-3.50404">
        <ele>97.6</ele>
        <time>2025-09-26T10:10:52Z</time>
      </trkpt>
      <trkpt lat="48.74674" lon="-3.5041">
        <ele>97.6</ele>
        <time>2025-09-26T10:10:53Z</time>
      </trkpt>
      <trkpt lat="48.74681" lon="-3.50421">
        <ele>97.6</ele>
        <time>2025-09-26T10:10:55Z</time>
      </trkpt>
      <trkpt lat="48.74689" lon="-3.50435">
        <ele>97.6</ele>
        <time>2025-09-26T10:10:57Z</time>
      </trkpt>
      <trkpt lat="48.74696" lon="-3.50447">
        <ele>97.4</ele>
        <time>2025-09-26T10:10:59Z</time>
      </trkpt>
      <trkpt lat="48.74708" lon="-3.50465">
        <ele>98</ele>
        <time>2025-09-26T10:11:02Z</time>
      </trkpt>
      <trkpt lat="48.74723" lon="-3.50488">
        <ele>98.8</ele>
        <time>2025-09-26T10:11:06Z</time>
      </trkpt>
      <trkpt lat="48.74746" lon="-3.50524">
        <ele>99.2</ele>
        <time>2025-09-26T10:11:12Z</time>
      </trkpt>
      <trkpt lat="48.74762" lon="-3.50547">
        <ele>99.8</ele>
        <time>2025-09-26T10:11:16Z</time>
      </trkpt>
      <trkpt lat="48.74765" lon="-3.50553">
        <ele>100.4</ele>
        <time>2025-09-26T10:11:17Z</time>
      </trkpt>
      <trkpt lat="48.74784" lon="-3.5059">
        <ele>100.6</ele>
        <time>2025-09-26T10:11:23Z</time>
      </trkpt>
      <trkpt lat="48.74793" lon="-3.5062">
        <ele>100.6</ele>
        <time>2025-09-26T10:11:27Z</time>
      </trkpt>
      <trkpt lat="48.74795" lon="-3.50636">
        <ele>100.4</ele>
        <time>2025-09-26T10:11:29Z</time>
      </trkpt>
      <trkpt lat="48.74796" lon="-3.50689">
        <ele>100.4</ele>
        <time>2025-09-26T10:11:36Z</time>
      </trkpt>
      <trkpt lat="48.748" lon="-3.50766">
        <ele>100.2</ele>
        <time>2025-09-26T10:11:46Z</time>
      </trkpt>
      <trkpt lat="48.74802" lon="-3.50801">
        <ele>100.2</ele>
        <time>2025-09-26T10:11:50Z</time>
      </trkpt>
      <trkpt lat="48.74806" lon="-3.50825">
        <ele>99.8</ele>
        <time>2025-09-26T10:11:53Z</time>
      </trkpt>
      <trkpt lat="48.74816" lon="-3.50856">
        <ele>99.4</ele>
        <time>2025-09-26T10:11:57Z</time>
      </trkpt>
      <trkpt lat="48.74821" lon="-3.5087">
        <ele>99.2</ele>
        <time>2025-09-26T10:11:59Z</time>
      </trkpt>
      <trkpt lat="48.74825" lon="-3.50879">
        <ele>99.2</ele>
        <time>2025-09-26T10:12:00Z</time>
      </trkpt>
      <trkpt lat="48.74837" lon="-3.50904">
        <ele>99.2</ele>
        <time>2025-09-26T10:12:04Z</time>
      </trkpt>
      <trkpt lat="48.74846" lon="-3.50926">
        <ele>99</ele>
        <time>2025-09-26T10:12:07Z</time>
      </trkpt>
      <trkpt lat="48.74851" lon="-3.50942">
        <ele>98.8</ele>
        <time>2025-09-26T10:12:09Z</time>
      </trkpt>
      <trkpt lat="48.74852" lon="-3.5095">
        <ele>98.6</ele>
        <time>2025-09-26T10:12:10Z</time>
      </trkpt>
      <trkpt lat="48.74854" lon="-3.50967">
        <ele>98.6</ele>
        <time>2025-09-26T10:12:12Z</time>
      </trkpt>
      <trkpt lat="48.74854" lon="-3.51029">
        <ele>98.4</ele>
        <time>2025-09-26T10:12:19Z</time>
      </trkpt>
      <trkpt lat="48.74851" lon="-3.51108">
        <ele>98.4</ele>
        <time>2025-09-26T10:12:28Z</time>
      </trkpt>
      <trkpt lat="48.74851" lon="-3.51117">
        <ele>98.4</ele>
        <time>2025-09-26T10:12:29Z</time>
      </trkpt>
      <trkpt lat="48.7485" lon="-3.51186">
        <ele>98.8</ele>
        <time>2025-09-26T10:12:37Z</time>
      </trkpt>
      <trkpt lat="48.74851" lon="-3.51227">
        <ele>98.8</ele>
        <time>2025-09-26T10:12:42Z</time>
      </trkpt>
      <trkpt lat="48.74853" lon="-3.51241">
        <ele>99.2</ele>
        <time>2025-09-26T10:12:44Z</time>
      </trkpt>
      <trkpt lat="48.74864" lon="-3.51314">
        <ele>100.4</ele>
        <time>2025-09-26T10:12:53Z</time>
      </trkpt>
      <trkpt lat="48.74866" lon="-3.5133">
        <ele>100.6</ele>
        <time>2025-09-26T10:12:55Z</time>
      </trkpt>
      <trkpt lat="48.74882" lon="-3.51404">
        <ele>101</ele>
        <time>2025-09-26T10:13:05Z</time>
      </trkpt>
      <trkpt lat="48.74888" lon="-3.51427">
        <ele>101.4</ele>
        <time>2025-09-26T10:13:08Z</time>
      </trkpt>
      <trkpt lat="48.74899" lon="-3.51472">
        <ele>102</ele>
        <time>2025-09-26T10:13:14Z</time>
      </trkpt>
      <trkpt lat="48.74901" lon="-3.5153">
        <ele>102</ele>
        <time>2025-09-26T10:13:21Z</time>
      </trkpt>
      <trkpt lat="48.74904" lon="-3.51563">
        <ele>102.4</ele>
        <time>2025-09-26T10:13:25Z</time>
      </trkpt>
      <trkpt lat="48.74908" lon="-3.51587">
        <ele>102.8</ele>
        <time>2025-09-26T10:13:28Z</time>
      </trkpt>
      <trkpt lat="48.74921" lon="-3.5167">
        <ele>103.2</ele>
        <time>2025-09-26T10:13:38Z</time>
      </trkpt>
      <trkpt lat="48.74926" lon="-3.51712">
        <ele>103.6</ele>
        <time>2025-09-26T10:13:43Z</time>
      </trkpt>
      <trkpt lat="48.74933" lon="-3.51763">
        <ele>103.6</ele>
        <time>2025-09-26T10:13:49Z</time>
      </trkpt>
      <trkpt lat="48.74945" lon="-3.51827">
        <ele>104.2</ele>
        <time>2025-09-26T10:13:57Z</time>
      </trkpt>
      <trkpt lat="48.74956" lon="-3.51857">
        <ele>104.2</ele>
        <time>2025-09-26T10:14:01Z</time>
      </trkpt>
      <trkpt lat="48.74969" lon="-3.51894">
        <ele>104.2</ele>
        <time>2025-09-26T10:14:06Z</time>
      </trkpt>
      <trkpt lat="48.74994" lon="-3.51961">
        <ele>103.8</ele>
        <time>2025-09-26T10:14:15Z</time>
      </trkpt>
      <trkpt lat="48.75001" lon="-3.51992">
        <ele>103.8</ele>
        <time>2025-09-26T10:14:19Z</time>
      </trkpt>
      <trkpt lat="48.75002" lon="-3.52009">
        <ele>103.6</ele>
        <time>2025-09-26T10:14:21Z</time>
      </trkpt>
      <trkpt lat="48.75007" lon="-3.52085">
        <ele>103.4</ele>
        <time>2025-09-26T10:14:30Z</time>
      </trkpt>
      <trkpt lat="48.75018" lon="-3.52133">
        <ele>102.4</ele>
        <time>2025-09-26T10:14:36Z</time>
      </trkpt>
      <trkpt lat="48.75019" lon="-3.52141">
        <ele>102.2</ele>
        <time>2025-09-26T10:14:37Z</time>
      </trkpt>
      <trkpt lat="48.75028" lon="-3.52195">
        <ele>101.4</ele>
        <time>2025-09-26T10:14:43Z</time>
      </trkpt>
      <trkpt lat="48.75029" lon="-3.52204">
        <ele>101.2</ele>
        <time>2025-09-26T10:14:44Z</time>
      </trkpt>
      <trkpt lat="48.75031" lon="-3.52221">
        <ele>100.8</ele>
        <time>2025-09-26T10:14:46Z</time>
      </trkpt>
      <trkpt lat="48.75033" lon="-3.52238">
        <ele>100.8</ele>
        <time>2025-09-26T10:14:48Z</time>
      </trkpt>
      <trkpt lat="48.75034" lon="-3.52246">
        <ele>100.6</ele>
        <time>2025-09-26T10:14:49Z</time>
      </trkpt>
      <trkpt lat="48.75036" lon="-3.52253">
        <ele>100.6</ele>
        <time>2025-09-26T10:14:50Z</time>
      </trkpt>
      <trkpt lat="48.75042" lon="-3.52269">
        <ele>100.6</ele>
        <time>2025-09-26T10:14:53Z</time>
      </trkpt>
      <trkpt lat="48.75046" lon="-3.52287">
        <ele>100.6</ele>
        <time>2025-09-26T10:14:56Z</time>
      </trkpt>
      <trkpt lat="48.75043" lon="-3.523">
        <ele>100.2</ele>
        <time>2025-09-26T10:14:58Z</time>
      </trkpt>
      <trkpt lat="48.75041" lon="-3.52307">
        <ele>100</ele>
        <time>2025-09-26T10:14:59Z</time>
      </trkpt>
      <trkpt lat="48.75032" lon="-3.52336">
        <ele>99.4</ele>
        <time>2025-09-26T10:15:03Z</time>
      </trkpt>
      <trkpt lat="48.75027" lon="-3.52359">
        <ele>99</ele>
        <time>2025-09-26T10:15:06Z</time>
      </trkpt>
      <trkpt lat="48.75021" lon="-3.52389">
        <ele>98.6</ele>
        <time>2025-09-26T10:15:10Z</time>
      </trkpt>
      <trkpt lat="48.75019" lon="-3.52396">
        <ele>98.6</ele>
        <time>2025-09-26T10:15:11Z</time>
      </trkpt>
      <trkpt lat="48.75014" lon="-3.52419">
        <ele>98.2</ele>
        <time>2025-09-26T10:15:14Z</time>
      </trkpt>
      <trkpt lat="48.75012" lon="-3.52427">
        <ele>98</ele>
        <time>2025-09-26T10:15:15Z</time>
      </trkpt>
      <trkpt lat="48.7501" lon="-3.52435">
        <ele>98</ele>
        <time>2025-09-26T10:15:16Z</time>
      </trkpt>
      <trkpt lat="48.75003" lon="-3.52461">
        <ele>97.8</ele>
        <time>2025-09-26T10:15:20Z</time>
      </trkpt>
      <trkpt lat="48.75002" lon="-3.52466">
        <ele>97.8</ele>
        <time>2025-09-26T10:15:21Z</time>
      </trkpt>
      <trkpt lat="48.75001" lon="-3.52472">
        <ele>97.6</ele>
        <time>2025-09-26T10:15:22Z</time>
      </trkpt>
      <trkpt lat="48.75" lon="-3.52484">
        <ele>97.2</ele>
        <time>2025-09-26T10:15:25Z</time>
      </trkpt>
      <trkpt lat="48.75" lon="-3.52486">
        <ele>96.8</ele>
        <time>2025-09-26T10:15:26Z</time>
      </trkpt>
      <trkpt lat="48.74999" lon="-3.52487">
        <ele>96.6</ele>
        <time>2025-09-26T10:15:29Z</time>
      </trkpt>
      <trkpt lat="48.74999" lon="-3.52487">
        <ele>96.6</ele>
        <time>2025-09-26T10:15:30Z</time>
      </trkpt>
      <trkpt lat="48.74998" lon="-3.52485">
        <ele>96.6</ele>
        <time>2025-09-26T10:15:37Z</time>
      </trkpt>
      <trkpt lat="48.74999" lon="-3.52482">
        <ele>96.8</ele>
        <time>2025-09-26T10:15:39Z</time>
      </trkpt>
      <trkpt lat="48.75" lon="-3.5248">
        <ele>97</ele>
        <time>2025-09-26T10:15:40Z</time>
      </trkpt>
      <trkpt lat="48.75003" lon="-3.52466">
        <ele>97.4</ele>
        <time>2025-09-26T10:15:43Z</time>
      </trkpt>
      <trkpt lat="48.75012" lon="-3.52441">
        <ele>97.8</ele>
        <time>2025-09-26T10:15:48Z</time>
      </trkpt>
      <trkpt lat="48.75021" lon="-3.52444">
        <ele>97.6</ele>
        <time>2025-09-26T10:15:51Z</time>
      </trkpt>
      <trkpt lat="48.75031" lon="-3.52456">
        <ele>97.6</ele>
        <time>2025-09-26T10:15:54Z</time>
      </trkpt>
      <trkpt lat="48.75043" lon="-3.52468">
        <ele>97.6</ele>
        <time>2025-09-26T10:15:57Z</time>
      </trkpt>
      <trkpt lat="48.75061" lon="-3.5249">
        <ele>97.4</ele>
        <time>2025-09-26T10:16:02Z</time>
      </trkpt>
      <trkpt lat="48.75066" lon="-3.52493">
        <ele>97.2</ele>
        <time>2025-09-26T10:16:03Z</time>
      </trkpt>
      <trkpt lat="48.75071" lon="-3.52493">
        <ele>97</ele>
        <time>2025-09-26T10:16:04Z</time>
      </trkpt>
      <trkpt lat="48.7508" lon="-3.52488">
        <ele>97</ele>
        <time>2025-09-26T10:16:06Z</time>
      </trkpt>
      <trkpt lat="48.7511" lon="-3.52461">
        <ele>97.6</ele>
        <time>2025-09-26T10:16:13Z</time>
      </trkpt>
      <trkpt lat="48.75117" lon="-3.52454">
        <ele>98</ele>
        <time>2025-09-26T10:16:15Z</time>
      </trkpt>
      <trkpt lat="48.75135" lon="-3.52441">
        <ele>98.4</ele>
        <time>2025-09-26T10:16:19Z</time>
      </trkpt>
      <trkpt lat="48.75144" lon="-3.52439">
        <ele>98.8</ele>
        <time>2025-09-26T10:16:21Z</time>
      </trkpt>
      <trkpt lat="48.75155" lon="-3.5244">
        <ele>99.2</ele>
        <time>2025-09-26T10:16:23Z</time>
      </trkpt>
      <trkpt lat="48.7517" lon="-3.52449">
        <ele>99.6</ele>
        <time>2025-09-26T10:16:26Z</time>
      </trkpt>
      <trkpt lat="48.75203" lon="-3.52474">
        <ele>100.2</ele>
        <time>2025-09-26T10:16:33Z</time>
      </trkpt>
      <trkpt lat="48.75217" lon="-3.52485">
        <ele>100.4</ele>
        <time>2025-09-26T10:16:36Z</time>
      </trkpt>
      <trkpt lat="48.75265" lon="-3.52522">
        <ele>100.8</ele>
        <time>2025-09-26T10:16:46Z</time>
      </trkpt>
      <trkpt lat="48.75287" lon="-3.52539">
        <ele>101.4</ele>
        <time>2025-09-26T10:16:51Z</time>
      </trkpt>
      <trkpt lat="48.7531" lon="-3.52554">
        <ele>101.8</ele>
        <time>2025-09-26T10:16:56Z</time>
      </trkpt>
      <trkpt lat="48.75358" lon="-3.52582">
        <ele>101.8</ele>
        <time>2025-09-26T10:17:06Z</time>
      </trkpt>
      <trkpt lat="48.75409" lon="-3.5261">
        <ele>102</ele>
        <time>2025-09-26T10:17:17Z</time>
      </trkpt>
      <trkpt lat="48.75418" lon="-3.52616">
        <ele>102</ele>
        <time>2025-09-26T10:17:19Z</time>
      </trkpt>
      <trkpt lat="48.75451" lon="-3.52634">
        <ele>101.8</ele>
        <time>2025-09-26T10:17:27Z</time>
      </trkpt>
      <trkpt lat="48.75455" lon="-3.52636">
        <ele>101.6</ele>
        <time>2025-09-26T10:17:28Z</time>
      </trkpt>
      <trkpt lat="48.75461" lon="-3.52643">
        <ele>101.6</ele>
        <time>2025-09-26T10:17:30Z</time>
      </trkpt>
      <trkpt lat="48.75464" lon="-3.52648">
        <ele>101.6</ele>
        <time>2025-09-26T10:17:31Z</time>
      </trkpt>
      <trkpt lat="48.75467" lon="-3.52654">
        <ele>101.6</ele>
        <time>2025-09-26T10:17:32Z</time>
      </trkpt>
      <trkpt lat="48.75471" lon="-3.52667">
        <ele>101.8</ele>
        <time>2025-09-26T10:17:34Z</time>
      </trkpt>
      <trkpt lat="48.75472" lon="-3.52681">
        <ele>101.8</ele>
        <time>2025-09-26T10:17:36Z</time>
      </trkpt>
      <trkpt lat="48.75472" lon="-3.5274">
        <ele>101.6</ele>
        <time>2025-09-26T10:17:44Z</time>
      </trkpt>
      <trkpt lat="48.75471" lon="-3.52762">
        <ele>101.2</ele>
        <time>2025-09-26T10:17:49Z</time>
      </trkpt>
      <trkpt lat="48.75466" lon="-3.52772">
        <ele>100.8</ele>
        <time>2025-09-26T10:17:54Z</time>
      </trkpt>
      <trkpt lat="48.75466" lon="-3.52772">
        <ele>100.8</ele>
        <time>2025-09-26T10:18:01Z</time>
      </trkpt>
      <trkpt lat="48.75466" lon="-3.52772">
        <ele>100.8</ele>
        <time>2025-09-26T10:18:17Z</time>
      </trkpt>
      <trkpt lat="48.75466" lon="-3.52772">
        <ele>100.6</ele>
        <time>2025-09-26T10:18:40Z</time>
      </trkpt>
      <trkpt lat="48.75466" lon="-3.52772">
        <ele>100.6</ele>
        <time>2025-09-26T10:18:53Z</time>
      </trkpt>
      <trkpt lat="48.75466" lon="-3.52772">
        <ele>100.6</ele>
        <time>2025-09-26T10:19:00Z</time>
      </trkpt>
      <trkpt lat="48.75466" lon="-3.52772">
        <ele>100.6</ele>
        <time>2025-09-26T10:19:07Z</time>
      </trkpt>
      <trkpt lat="48.75466" lon="-3.52772">
        <ele>100.6</ele>
        <time>2025-09-26T10:19:11Z</time>
      </trkpt>
      <trkpt lat="48.75466" lon="-3.52772">
        <ele>100.6</ele>
        <time>2025-09-26T10:19:15Z</time>
      </trkpt>
      <trkpt lat="48.75467" lon="-3.52772">
        <ele>100.6</ele>
        <time>2025-09-26T10:19:20Z</time>
      </trkpt>
      <trkpt lat="48.75467" lon="-3.52772">
        <ele>100.6</ele>
        <time>2025-09-26T10:19:21Z</time>
      </trkpt>
      <trkpt lat="48.75467" lon="-3.52772">
        <ele>100.6</ele>
        <time>2025-09-26T10:19:33Z</time>
      </trkpt>
      <trkpt lat="48.75467" lon="-3.52772">
        <ele>100.6</ele>
        <time>2025-09-26T10:19:35Z</time>
      </trkpt>
      <trkpt lat="48.75467" lon="-3.52772">
        <ele>100.6</ele>
        <time>2025-09-26T10:19:38Z</time>
      </trkpt>
      <trkpt lat="48.75467" lon="-3.52772">
        <ele>100.6</ele>
        <time>2025-09-26T10:19:41Z</time>
      </trkpt>
      <trkpt lat="48.75467" lon="-3.52772">
        <ele>100.6</ele>
        <time>2025-09-26T10:19:43Z</time>
      </trkpt>
      <trkpt lat="48.75467" lon="-3.52772">
        <ele>100.6</ele>
        <time>2025-09-26T10:19:48Z</time>
      </trkpt>
      <trkpt lat="48.75467" lon="-3.52772">
        <ele>100.6</ele>
        <time>2025-09-26T10:19:51Z</time>
      </trkpt>
      <trkpt lat="48.75467" lon="-3.52772">
        <ele>100.6</ele>
        <time>2025-09-26T10:19:59Z</time>
      </trkpt>
      <trkpt lat="48.75467" lon="-3.52772">
        <ele>100.6</ele>
        <time>2025-09-26T10:20:06Z</time>
      </trkpt>
      <trkpt lat="48.75467" lon="-3.52772">
        <ele>100.6</ele>
        <time>2025-09-26T10:20:09Z</time>
      </trkpt>
      <trkpt lat="48.75467" lon="-3.52772">
        <ele>100.6</ele>
        <time>2025-09-26T10:20:17Z</time>
      </trkpt>
      <trkpt lat="48.75467" lon="-3.52772">
        <ele>100.6</ele>
        <time>2025-09-26T10:20:20Z</time>
      </trkpt>
      <trkpt lat="48.75467" lon="-3.52772">
        <ele>100.6</ele>
        <time>2025-09-26T10:20:58Z</time>
      </trkpt>
      <trkpt lat="48.75467" lon="-3.52772">
        <ele>100.6</ele>
        <time>2025-09-26T10:20:59Z</time>
      </trkpt>
      <trkpt lat="48.75467" lon="-3.52771">
        <ele>100.6</ele>
        <time>2025-09-26T10:21:05Z</time>
      </trkpt>
      <trkpt lat="48.75467" lon="-3.52771">
        <ele>100.6</ele>
        <time>2025-09-26T10:21:16Z</time>
      </trkpt>
      <trkpt lat="48.75467" lon="-3.52771">
        <ele>100.6</ele>
        <time>2025-09-26T10:21:27Z</time>
      </trkpt>
      <trkpt lat="48.75467" lon="-3.52772">
        <ele>100.6</ele>
        <time>2025-09-26T10:21:49Z</time>
      </trkpt>
      <trkpt lat="48.75468" lon="-3.52773">
        <ele>100.6</ele>
        <time>2025-09-26T10:21:50Z</time>
      </trkpt>
      <trkpt lat="48.75469" lon="-3.52781">
        <ele>101</ele>
        <time>2025-09-26T10:21:54Z</time>
      </trkpt>
      <trkpt lat="48.75468" lon="-3.52799">
        <ele>101</ele>
        <time>2025-09-26T10:22:01Z</time>
      </trkpt>
      <trkpt lat="48.75468" lon="-3.52808">
        <ele>101</ele>
        <time>2025-09-26T10:22:04Z</time>
      </trkpt>
      <trkpt lat="48.75468" lon="-3.52813">
        <ele>101</ele>
        <time>2025-09-26T10:22:06Z</time>
      </trkpt>
      <trkpt lat="48.75466" lon="-3.5283">
        <ele>100.6</ele>
        <time>2025-09-26T10:22:13Z</time>
      </trkpt>
      <trkpt lat="48.75466" lon="-3.52837">
        <ele>100.6</ele>
        <time>2025-09-26T10:22:16Z</time>
      </trkpt>
      <trkpt lat="48.75466" lon="-3.52844">
        <ele>100.4</ele>
        <time>2025-09-26T10:22:19Z</time>
      </trkpt>
      <trkpt lat="48.75466" lon="-3.52855">
        <ele>100.4</ele>
        <time>2025-09-26T10:22:23Z</time>
      </trkpt>
      <trkpt lat="48.75465" lon="-3.52858">
        <ele>100.4</ele>
        <time>2025-09-26T10:22:24Z</time>
      </trkpt>
      <trkpt lat="48.75464" lon="-3.52877">
        <ele>100.4</ele>
        <time>2025-09-26T10:22:33Z</time>
      </trkpt>
      <trkpt lat="48.75463" lon="-3.52897">
        <ele>100.4</ele>
        <time>2025-09-26T10:22:42Z</time>
      </trkpt>
      <trkpt lat="48.75463" lon="-3.52924">
        <ele>100.4</ele>
        <time>2025-09-26T10:22:53Z</time>
      </trkpt>
      <trkpt lat="48.75462" lon="-3.5293">
        <ele>100.2</ele>
        <time>2025-09-26T10:22:55Z</time>
      </trkpt>
      <trkpt lat="48.75462" lon="-3.52946">
        <ele>99.8</ele>
        <time>2025-09-26T10:23:02Z</time>
      </trkpt>
      <trkpt lat="48.75462" lon="-3.52949">
        <ele>99.8</ele>
        <time>2025-09-26T10:23:03Z</time>
      </trkpt>
      <trkpt lat="48.75462" lon="-3.52951">
        <ele>99.6</ele>
        <time>2025-09-26T10:23:04Z</time>
      </trkpt>
      <trkpt lat="48.75467" lon="-3.52963">
        <ele>99.6</ele>
        <time>2025-09-26T10:23:10Z</time>
      </trkpt>
      <trkpt lat="48.7548" lon="-3.52967">
        <ele>99.6</ele>
        <time>2025-09-26T10:23:15Z</time>
      </trkpt>
      <trkpt lat="48.75501" lon="-3.52972">
        <ele>99.6</ele>
        <time>2025-09-26T10:23:21Z</time>
      </trkpt>
      <trkpt lat="48.75519" lon="-3.52977">
        <ele>99.6</ele>
        <time>2025-09-26T10:23:26Z</time>
      </trkpt>
      <trkpt lat="48.75549" lon="-3.52987">
        <ele>99.4</ele>
        <time>2025-09-26T10:23:33Z</time>
      </trkpt>
      <trkpt lat="48.75565" lon="-3.52992">
        <ele>99.2</ele>
        <time>2025-09-26T10:23:36Z</time>
      </trkpt>
      <trkpt lat="48.75584" lon="-3.52999">
        <ele>99</ele>
        <time>2025-09-26T10:23:40Z</time>
      </trkpt>
      <trkpt lat="48.75615" lon="-3.53008">
        <ele>98</ele>
        <time>2025-09-26T10:23:46Z</time>
      </trkpt>
      <trkpt lat="48.75626" lon="-3.53011">
        <ele>97.8</ele>
        <time>2025-09-26T10:23:48Z</time>
      </trkpt>
      <trkpt lat="48.75635" lon="-3.5302">
        <ele>97.4</ele>
        <time>2025-09-26T10:23:50Z</time>
      </trkpt>
      <trkpt lat="48.75639" lon="-3.53027">
        <ele>97.4</ele>
        <time>2025-09-26T10:23:51Z</time>
      </trkpt>
      <trkpt lat="48.75646" lon="-3.53043">
        <ele>97</ele>
        <time>2025-09-26T10:23:53Z</time>
      </trkpt>
      <trkpt lat="48.75654" lon="-3.53068">
        <ele>96.4</ele>
        <time>2025-09-26T10:23:56Z</time>
      </trkpt>
      <trkpt lat="48.75662" lon="-3.53097">
        <ele>95.6</ele>
        <time>2025-09-26T10:23:59Z</time>
      </trkpt>
      <trkpt lat="48.75667" lon="-3.53104">
        <ele>95.4</ele>
        <time>2025-09-26T10:24:00Z</time>
      </trkpt>
      <trkpt lat="48.75673" lon="-3.53108">
        <ele>95.2</ele>
        <time>2025-09-26T10:24:01Z</time>
      </trkpt>
      <trkpt lat="48.75678" lon="-3.53109">
        <ele>95.2</ele>
        <time>2025-09-26T10:24:02Z</time>
      </trkpt>
      <trkpt lat="48.75683" lon="-3.53107">
        <ele>95.2</ele>
        <time>2025-09-26T10:24:03Z</time>
      </trkpt>
      <trkpt lat="48.75694" lon="-3.53101">
        <ele>95.2</ele>
        <time>2025-09-26T10:24:05Z</time>
      </trkpt>
      <trkpt lat="48.75728" lon="-3.53081">
        <ele>95.2</ele>
        <time>2025-09-26T10:24:12Z</time>
      </trkpt>
      <trkpt lat="48.75758" lon="-3.53069">
        <ele>94.6</ele>
        <time>2025-09-26T10:24:18Z</time>
      </trkpt>
      <trkpt lat="48.75761" lon="-3.53066">
        <ele>94.4</ele>
        <time>2025-09-26T10:24:19Z</time>
      </trkpt>
      <trkpt lat="48.75767" lon="-3.53066">
        <ele>94</ele>
        <time>2025-09-26T10:24:21Z</time>
      </trkpt>
      <trkpt lat="48.75769" lon="-3.53068">
        <ele>93.8</ele>
        <time>2025-09-26T10:24:22Z</time>
      </trkpt>
      <trkpt lat="48.75773" lon="-3.53083">
        <ele>93.4</ele>
        <time>2025-09-26T10:24:25Z</time>
      </trkpt>
      <trkpt lat="48.75773" lon="-3.53088">
        <ele>93.2</ele>
        <time>2025-09-26T10:24:26Z</time>
      </trkpt>
      <trkpt lat="48.75772" lon="-3.53131">
        <ele>92.8</ele>
        <time>2025-09-26T10:24:33Z</time>
      </trkpt>
      <trkpt lat="48.75773" lon="-3.53144">
        <ele>92.2</ele>
        <time>2025-09-26T10:24:35Z</time>
      </trkpt>
      <trkpt lat="48.75774" lon="-3.53171">
        <ele>91.2</ele>
        <time>2025-09-26T10:24:39Z</time>
      </trkpt>
      <trkpt lat="48.75774" lon="-3.53177">
        <ele>91</ele>
        <time>2025-09-26T10:24:40Z</time>
      </trkpt>
      <trkpt lat="48.75775" lon="-3.53196">
        <ele>90</ele>
        <time>2025-09-26T10:24:43Z</time>
      </trkpt>
      <trkpt lat="48.75776" lon="-3.53202">
        <ele>89.6</ele>
        <time>2025-09-26T10:24:44Z</time>
      </trkpt>
      <trkpt lat="48.75777" lon="-3.5322">
        <ele>88.8</ele>
        <time>2025-09-26T10:24:47Z</time>
      </trkpt>
      <trkpt lat="48.75777" lon="-3.53226">
        <ele>88</ele>
        <time>2025-09-26T10:24:48Z</time>
      </trkpt>
      <trkpt lat="48.75777" lon="-3.5323">
        <ele>87.6</ele>
        <time>2025-09-26T10:24:49Z</time>
      </trkpt>
      <trkpt lat="48.75777" lon="-3.53245">
        <ele>86.2</ele>
        <time>2025-09-26T10:24:52Z</time>
      </trkpt>
      <trkpt lat="48.75776" lon="-3.5325">
        <ele>86.2</ele>
        <time>2025-09-26T10:24:53Z</time>
      </trkpt>
      <trkpt lat="48.75764" lon="-3.53268">
        <ele>85.2</ele>
        <time>2025-09-26T10:24:57Z</time>
      </trkpt>
      <trkpt lat="48.75755" lon="-3.53278">
        <ele>84.8</ele>
        <time>2025-09-26T10:24:59Z</time>
      </trkpt>
      <trkpt lat="48.75742" lon="-3.53293">
        <ele>84.6</ele>
        <time>2025-09-26T10:25:02Z</time>
      </trkpt>
      <trkpt lat="48.75728" lon="-3.53307">
        <ele>84.2</ele>
        <time>2025-09-26T10:25:05Z</time>
      </trkpt>
      <trkpt lat="48.75724" lon="-3.53314">
        <ele>84.2</ele>
        <time>2025-09-26T10:25:06Z</time>
      </trkpt>
      <trkpt lat="48.7572" lon="-3.53322">
        <ele>84</ele>
        <time>2025-09-26T10:25:07Z</time>
      </trkpt>
      <trkpt lat="48.75711" lon="-3.53355">
        <ele>83.2</ele>
        <time>2025-09-26T10:25:11Z</time>
      </trkpt>
      <trkpt lat="48.75708" lon="-3.53366">
        <ele>83.2</ele>
        <time>2025-09-26T10:25:12Z</time>
      </trkpt>
      <trkpt lat="48.75691" lon="-3.5342">
        <ele>82.2</ele>
        <time>2025-09-26T10:25:18Z</time>
      </trkpt>
      <trkpt lat="48.75687" lon="-3.53428">
        <ele>81.8</ele>
        <time>2025-09-26T10:25:19Z</time>
      </trkpt>
      <trkpt lat="48.75672" lon="-3.53462">
        <ele>81.4</ele>
        <time>2025-09-26T10:25:23Z</time>
      </trkpt>
      <trkpt lat="48.75654" lon="-3.53497">
        <ele>80.6</ele>
        <time>2025-09-26T10:25:27Z</time>
      </trkpt>
      <trkpt lat="48.75636" lon="-3.53534">
        <ele>80</ele>
        <time>2025-09-26T10:25:31Z</time>
      </trkpt>
      <trkpt lat="48.75627" lon="-3.53553">
        <ele>79.4</ele>
        <time>2025-09-26T10:25:33Z</time>
      </trkpt>
      <trkpt lat="48.75611" lon="-3.53593">
        <ele>78.6</ele>
        <time>2025-09-26T10:25:37Z</time>
      </trkpt>
      <trkpt lat="48.75607" lon="-3.53603">
        <ele>78.2</ele>
        <time>2025-09-26T10:25:38Z</time>
      </trkpt>
      <trkpt lat="48.75599" lon="-3.53626">
        <ele>77.8</ele>
        <time>2025-09-26T10:25:40Z</time>
      </trkpt>
      <trkpt lat="48.75589" lon="-3.53656">
        <ele>77</ele>
        <time>2025-09-26T10:25:43Z</time>
      </trkpt>
      <trkpt lat="48.75578" lon="-3.53686">
        <ele>76.4</ele>
        <time>2025-09-26T10:25:46Z</time>
      </trkpt>
      <trkpt lat="48.75573" lon="-3.53695">
        <ele>76.4</ele>
        <time>2025-09-26T10:25:47Z</time>
      </trkpt>
      <trkpt lat="48.75568" lon="-3.53703">
        <ele>76</ele>
        <time>2025-09-26T10:25:48Z</time>
      </trkpt>
      <trkpt lat="48.75549" lon="-3.53725">
        <ele>75.4</ele>
        <time>2025-09-26T10:25:51Z</time>
      </trkpt>
      <trkpt lat="48.75532" lon="-3.53745">
        <ele>75.4</ele>
        <time>2025-09-26T10:25:54Z</time>
      </trkpt>
      <trkpt lat="48.75524" lon="-3.5376">
        <ele>75.6</ele>
        <time>2025-09-26T10:25:56Z</time>
      </trkpt>
      <trkpt lat="48.75509" lon="-3.53788">
        <ele>76.6</ele>
        <time>2025-09-26T10:26:00Z</time>
      </trkpt>
      <trkpt lat="48.75504" lon="-3.53794">
        <ele>77.2</ele>
        <time>2025-09-26T10:26:01Z</time>
      </trkpt>
      <trkpt lat="48.75499" lon="-3.53799">
        <ele>77.4</ele>
        <time>2025-09-26T10:26:02Z</time>
      </trkpt>
      <trkpt lat="48.75471" lon="-3.53833">
        <ele>76.6</ele>
        <time>2025-09-26T10:26:07Z</time>
      </trkpt>
      <trkpt lat="48.7546" lon="-3.53849">
        <ele>75.6</ele>
        <time>2025-09-26T10:26:09Z</time>
      </trkpt>
      <trkpt lat="48.75433" lon="-3.53889">
        <ele>74.6</ele>
        <time>2025-09-26T10:26:14Z</time>
      </trkpt>
      <trkpt lat="48.75428" lon="-3.53896">
        <ele>74.6</ele>
        <time>2025-09-26T10:26:15Z</time>
      </trkpt>
      <trkpt lat="48.75422" lon="-3.53901">
        <ele>74.6</ele>
        <time>2025-09-26T10:26:16Z</time>
      </trkpt>
      <trkpt lat="48.7541" lon="-3.5391">
        <ele>74.4</ele>
        <time>2025-09-26T10:26:18Z</time>
      </trkpt>
      <trkpt lat="48.75397" lon="-3.53919">
        <ele>74.2</ele>
        <time>2025-09-26T10:26:20Z</time>
      </trkpt>
      <trkpt lat="48.75382" lon="-3.53935">
        <ele>74</ele>
        <time>2025-09-26T10:26:23Z</time>
      </trkpt>
      <trkpt lat="48.75361" lon="-3.53967">
        <ele>75.6</ele>
        <time>2025-09-26T10:26:28Z</time>
      </trkpt>
      <trkpt lat="48.75357" lon="-3.53975">
        <ele>75.8</ele>
        <time>2025-09-26T10:26:29Z</time>
      </trkpt>
      <trkpt lat="48.75341" lon="-3.54006">
        <ele>75.8</ele>
        <time>2025-09-26T10:26:33Z</time>
      </trkpt>
      <trkpt lat="48.75333" lon="-3.54024">
        <ele>75</ele>
        <time>2025-09-26T10:26:35Z</time>
      </trkpt>
      <trkpt lat="48.75329" lon="-3.54033">
        <ele>74.8</ele>
        <time>2025-09-26T10:26:36Z</time>
      </trkpt>
      <trkpt lat="48.75322" lon="-3.54052">
        <ele>74.4</ele>
        <time>2025-09-26T10:26:38Z</time>
      </trkpt>
      <trkpt lat="48.75309" lon="-3.5408">
        <ele>73.6</ele>
        <time>2025-09-26T10:26:41Z</time>
      </trkpt>
      <trkpt lat="48.75304" lon="-3.54088">
        <ele>73.2</ele>
        <time>2025-09-26T10:26:42Z</time>
      </trkpt>
      <trkpt lat="48.75293" lon="-3.54105">
        <ele>73</ele>
        <time>2025-09-26T10:26:44Z</time>
      </trkpt>
      <trkpt lat="48.75288" lon="-3.54126">
        <ele>72.6</ele>
        <time>2025-09-26T10:26:46Z</time>
      </trkpt>
      <trkpt lat="48.75289" lon="-3.54147">
        <ele>72.8</ele>
        <time>2025-09-26T10:26:48Z</time>
      </trkpt>
      <trkpt lat="48.75291" lon="-3.54155">
        <ele>72.6</ele>
        <time>2025-09-26T10:26:49Z</time>
      </trkpt>
      <trkpt lat="48.75305" lon="-3.54191">
        <ele>73.8</ele>
        <time>2025-09-26T10:26:54Z</time>
      </trkpt>
      <trkpt lat="48.7531" lon="-3.54204">
        <ele>74.4</ele>
        <time>2025-09-26T10:26:56Z</time>
      </trkpt>
      <trkpt lat="48.75317" lon="-3.54234">
        <ele>75.8</ele>
        <time>2025-09-26T10:27:00Z</time>
      </trkpt>
      <trkpt lat="48.7533" lon="-3.54305">
        <ele>76.6</ele>
        <time>2025-09-26T10:27:09Z</time>
      </trkpt>
      <trkpt lat="48.75337" lon="-3.54328">
        <ele>77.2</ele>
        <time>2025-09-26T10:27:12Z</time>
      </trkpt>
      <trkpt lat="48.75339" lon="-3.54335">
        <ele>77.2</ele>
        <time>2025-09-26T10:27:13Z</time>
      </trkpt>
      <trkpt lat="48.75339" lon="-3.54351">
        <ele>77.6</ele>
        <time>2025-09-26T10:27:15Z</time>
      </trkpt>
      <trkpt lat="48.75333" lon="-3.5439">
        <ele>78.2</ele>
        <time>2025-09-26T10:27:20Z</time>
      </trkpt>
      <trkpt lat="48.75332" lon="-3.54396">
        <ele>78.8</ele>
        <time>2025-09-26T10:27:21Z</time>
      </trkpt>
      <trkpt lat="48.7533" lon="-3.5441">
        <ele>79.8</ele>
        <time>2025-09-26T10:27:23Z</time>
      </trkpt>
      <trkpt lat="48.7533" lon="-3.54416">
        <ele>80</ele>
        <time>2025-09-26T10:27:24Z</time>
      </trkpt>
      <trkpt lat="48.7533" lon="-3.54423">
        <ele>80.8</ele>
        <time>2025-09-26T10:27:25Z</time>
      </trkpt>
      <trkpt lat="48.7533" lon="-3.5443">
        <ele>81</ele>
        <time>2025-09-26T10:27:26Z</time>
      </trkpt>
      <trkpt lat="48.7533" lon="-3.54445">
        <ele>82.2</ele>
        <time>2025-09-26T10:27:28Z</time>
      </trkpt>
      <trkpt lat="48.75331" lon="-3.54459">
        <ele>82.8</ele>
        <time>2025-09-26T10:27:30Z</time>
      </trkpt>
      <trkpt lat="48.75333" lon="-3.54472">
        <ele>83.8</ele>
        <time>2025-09-26T10:27:32Z</time>
      </trkpt>
      <trkpt lat="48.75332" lon="-3.54485">
        <ele>84.4</ele>
        <time>2025-09-26T10:27:34Z</time>
      </trkpt>
      <trkpt lat="48.7533" lon="-3.54499">
        <ele>84.8</ele>
        <time>2025-09-26T10:27:36Z</time>
      </trkpt>
      <trkpt lat="48.75328" lon="-3.54505">
        <ele>84.8</ele>
        <time>2025-09-26T10:27:37Z</time>
      </trkpt>
      <trkpt lat="48.75318" lon="-3.54534">
        <ele>85.6</ele>
        <time>2025-09-26T10:27:42Z</time>
      </trkpt>
      <trkpt lat="48.75317" lon="-3.5454">
        <ele>86</ele>
        <time>2025-09-26T10:27:43Z</time>
      </trkpt>
      <trkpt lat="48.75316" lon="-3.54547">
        <ele>86.2</ele>
        <time>2025-09-26T10:27:44Z</time>
      </trkpt>
      <trkpt lat="48.75313" lon="-3.54566">
        <ele>87.2</ele>
        <time>2025-09-26T10:27:47Z</time>
      </trkpt>
      <trkpt lat="48.75312" lon="-3.54579">
        <ele>87.6</ele>
        <time>2025-09-26T10:27:49Z</time>
      </trkpt>
      <trkpt lat="48.75312" lon="-3.54591">
        <ele>88.2</ele>
        <time>2025-09-26T10:27:51Z</time>
      </trkpt>
      <trkpt lat="48.75312" lon="-3.54605">
        <ele>88.8</ele>
        <time>2025-09-26T10:27:53Z</time>
      </trkpt>
      <trkpt lat="48.75312" lon="-3.54619">
        <ele>89.2</ele>
        <time>2025-09-26T10:27:55Z</time>
      </trkpt>
      <trkpt lat="48.75318" lon="-3.54659">
        <ele>89.8</ele>
        <time>2025-09-26T10:28:01Z</time>
      </trkpt>
      <trkpt lat="48.75322" lon="-3.54691">
        <ele>90.4</ele>
        <time>2025-09-26T10:28:06Z</time>
      </trkpt>
      <trkpt lat="48.75325" lon="-3.54711">
        <ele>90.8</ele>
        <time>2025-09-26T10:28:09Z</time>
      </trkpt>
      <trkpt lat="48.75333" lon="-3.54774">
        <ele>91.4</ele>
        <time>2025-09-26T10:28:18Z</time>
      </trkpt>
      <trkpt lat="48.75334" lon="-3.54781">
        <ele>91.4</ele>
        <time>2025-09-26T10:28:19Z</time>
      </trkpt>
      <trkpt lat="48.75344" lon="-3.54844">
        <ele>91.8</ele>
        <time>2025-09-26T10:28:28Z</time>
      </trkpt>
      <trkpt lat="48.75349" lon="-3.54856">
        <ele>91.8</ele>
        <time>2025-09-26T10:28:30Z</time>
      </trkpt>
      <trkpt lat="48.7537" lon="-3.549">
        <ele>91.8</ele>
        <time>2025-09-26T10:28:37Z</time>
      </trkpt>
      <trkpt lat="48.75378" lon="-3.54918">
        <ele>92</ele>
        <time>2025-09-26T10:28:40Z</time>
      </trkpt>
      <trkpt lat="48.75386" lon="-3.54928">
        <ele>92</ele>
        <time>2025-09-26T10:28:42Z</time>
      </trkpt>
      <trkpt lat="48.7539" lon="-3.54931">
        <ele>92</ele>
        <time>2025-09-26T10:28:43Z</time>
      </trkpt>
      <trkpt lat="48.75394" lon="-3.54932">
        <ele>92</ele>
        <time>2025-09-26T10:28:44Z</time>
      </trkpt>
      <trkpt lat="48.75401" lon="-3.54927">
        <ele>92.2</ele>
        <time>2025-09-26T10:28:46Z</time>
      </trkpt>
      <trkpt lat="48.7541" lon="-3.54911">
        <ele>92.4</ele>
        <time>2025-09-26T10:28:49Z</time>
      </trkpt>
      <trkpt lat="48.7542" lon="-3.54893">
        <ele>92.6</ele>
        <time>2025-09-26T10:28:52Z</time>
      </trkpt>
      <trkpt lat="48.75448" lon="-3.54844">
        <ele>93.2</ele>
        <time>2025-09-26T10:29:00Z</time>
      </trkpt>
      <trkpt lat="48.7547" lon="-3.54806">
        <ele>93.4</ele>
        <time>2025-09-26T10:29:06Z</time>
      </trkpt>
      <trkpt lat="48.75473" lon="-3.54799">
        <ele>93.4</ele>
        <time>2025-09-26T10:29:07Z</time>
      </trkpt>
      <trkpt lat="48.75475" lon="-3.54792">
        <ele>93.6</ele>
        <time>2025-09-26T10:29:08Z</time>
      </trkpt>
      <trkpt lat="48.75488" lon="-3.54726">
        <ele>93.8</ele>
        <time>2025-09-26T10:29:16Z</time>
      </trkpt>
      <trkpt lat="48.75493" lon="-3.54702">
        <ele>93.8</ele>
        <time>2025-09-26T10:29:19Z</time>
      </trkpt>
      <trkpt lat="48.75501" lon="-3.54679">
        <ele>93.8</ele>
        <time>2025-09-26T10:29:22Z</time>
      </trkpt>
      <trkpt lat="48.75509" lon="-3.54666">
        <ele>94.2</ele>
        <time>2025-09-26T10:29:24Z</time>
      </trkpt>
      <trkpt lat="48.75522" lon="-3.54651">
        <ele>94.2</ele>
        <time>2025-09-26T10:29:27Z</time>
      </trkpt>
      <trkpt lat="48.75563" lon="-3.54613">
        <ele>94.2</ele>
        <time>2025-09-26T10:29:35Z</time>
      </trkpt>
      <trkpt lat="48.75597" lon="-3.54569">
        <ele>94</ele>
        <time>2025-09-26T10:29:43Z</time>
      </trkpt>
      <trkpt lat="48.75621" lon="-3.54534">
        <ele>94</ele>
        <time>2025-09-26T10:29:50Z</time>
      </trkpt>
      <trkpt lat="48.75624" lon="-3.54532">
        <ele>94</ele>
        <time>2025-09-26T10:29:51Z</time>
      </trkpt>
      <trkpt lat="48.75627" lon="-3.54532">
        <ele>94</ele>
        <time>2025-09-26T10:29:52Z</time>
      </trkpt>
      <trkpt lat="48.7563" lon="-3.54535">
        <ele>94</ele>
        <time>2025-09-26T10:29:53Z</time>
      </trkpt>
      <trkpt lat="48.7564" lon="-3.54558">
        <ele>94.2</ele>
        <time>2025-09-26T10:29:57Z</time>
      </trkpt>
      <trkpt lat="48.75644" lon="-3.54564">
        <ele>94.2</ele>
        <time>2025-09-26T10:29:58Z</time>
      </trkpt>
      <trkpt lat="48.75663" lon="-3.54592">
        <ele>94.4</ele>
        <time>2025-09-26T10:30:03Z</time>
      </trkpt>
      <trkpt lat="48.75668" lon="-3.54598">
        <ele>94.4</ele>
        <time>2025-09-26T10:30:04Z</time>
      </trkpt>
      <trkpt lat="48.75691" lon="-3.54619">
        <ele>94.4</ele>
        <time>2025-09-26T10:30:09Z</time>
      </trkpt>
      <trkpt lat="48.75702" lon="-3.54622">
        <ele>94.6</ele>
        <time>2025-09-26T10:30:11Z</time>
      </trkpt>
      <trkpt lat="48.75724" lon="-3.54625">
        <ele>94.6</ele>
        <time>2025-09-26T10:30:15Z</time>
      </trkpt>
      <trkpt lat="48.75759" lon="-3.54629">
        <ele>94.6</ele>
        <time>2025-09-26T10:30:21Z</time>
      </trkpt>
      <trkpt lat="48.75771" lon="-3.54631">
        <ele>94.6</ele>
        <time>2025-09-26T10:30:23Z</time>
      </trkpt>
      <trkpt lat="48.75819" lon="-3.54645">
        <ele>95.2</ele>
        <time>2025-09-26T10:30:31Z</time>
      </trkpt>
      <trkpt lat="48.75845" lon="-3.54665">
        <ele>95.4</ele>
        <time>2025-09-26T10:30:36Z</time>
      </trkpt>
      <trkpt lat="48.75866" lon="-3.54696">
        <ele>95.4</ele>
        <time>2025-09-26T10:30:41Z</time>
      </trkpt>
      <trkpt lat="48.75869" lon="-3.54704">
        <ele>95.4</ele>
        <time>2025-09-26T10:30:42Z</time>
      </trkpt>
      <trkpt lat="48.75873" lon="-3.54719">
        <ele>95.2</ele>
        <time>2025-09-26T10:30:44Z</time>
      </trkpt>
      <trkpt lat="48.75874" lon="-3.54728">
        <ele>95.2</ele>
        <time>2025-09-26T10:30:45Z</time>
      </trkpt>
      <trkpt lat="48.75877" lon="-3.5478">
        <ele>94.6</ele>
        <time>2025-09-26T10:30:51Z</time>
      </trkpt>
      <trkpt lat="48.75878" lon="-3.54789">
        <ele>94.6</ele>
        <time>2025-09-26T10:30:52Z</time>
      </trkpt>
      <trkpt lat="48.7588" lon="-3.54797">
        <ele>94.4</ele>
        <time>2025-09-26T10:30:53Z</time>
      </trkpt>
      <trkpt lat="48.75888" lon="-3.5485">
        <ele>93.6</ele>
        <time>2025-09-26T10:30:59Z</time>
      </trkpt>
      <trkpt lat="48.7589" lon="-3.54858">
        <ele>93.2</ele>
        <time>2025-09-26T10:31:00Z</time>
      </trkpt>
      <trkpt lat="48.75892" lon="-3.54876">
        <ele>93</ele>
        <time>2025-09-26T10:31:02Z</time>
      </trkpt>
      <trkpt lat="48.75894" lon="-3.54924">
        <ele>92.4</ele>
        <time>2025-09-26T10:31:07Z</time>
      </trkpt>
      <trkpt lat="48.75896" lon="-3.54943">
        <ele>92.2</ele>
        <time>2025-09-26T10:31:09Z</time>
      </trkpt>
      <trkpt lat="48.759" lon="-3.55007">
        <ele>92.4</ele>
        <time>2025-09-26T10:31:16Z</time>
      </trkpt>
      <trkpt lat="48.75899" lon="-3.55049">
        <ele>92.2</ele>
        <time>2025-09-26T10:31:21Z</time>
      </trkpt>
      <trkpt lat="48.75898" lon="-3.55058">
        <ele>92.2</ele>
        <time>2025-09-26T10:31:22Z</time>
      </trkpt>
      <trkpt lat="48.75898" lon="-3.55075">
        <ele>92.2</ele>
        <time>2025-09-26T10:31:24Z</time>
      </trkpt>
      <trkpt lat="48.75904" lon="-3.55088">
        <ele>92</ele>
        <time>2025-09-26T10:31:26Z</time>
      </trkpt>
      <trkpt lat="48.75915" lon="-3.55093">
        <ele>91.8</ele>
        <time>2025-09-26T10:31:28Z</time>
      </trkpt>
      <trkpt lat="48.7592" lon="-3.55093">
        <ele>91.8</ele>
        <time>2025-09-26T10:31:29Z</time>
      </trkpt>
      <trkpt lat="48.75944" lon="-3.55091">
        <ele>91.2</ele>
        <time>2025-09-26T10:31:33Z</time>
      </trkpt>
      <trkpt lat="48.75979" lon="-3.55093">
        <ele>90.6</ele>
        <time>2025-09-26T10:31:39Z</time>
      </trkpt>
      <trkpt lat="48.75996" lon="-3.551">
        <ele>89.8</ele>
        <time>2025-09-26T10:31:42Z</time>
      </trkpt>
      <trkpt lat="48.7602" lon="-3.5511">
        <ele>89.2</ele>
        <time>2025-09-26T10:31:46Z</time>
      </trkpt>
      <trkpt lat="48.76064" lon="-3.55119">
        <ele>89</ele>
        <time>2025-09-26T10:31:53Z</time>
      </trkpt>
      <trkpt lat="48.76111" lon="-3.5513">
        <ele>89.8</ele>
        <time>2025-09-26T10:32:01Z</time>
      </trkpt>
      <trkpt lat="48.76158" lon="-3.55129">
        <ele>90</ele>
        <time>2025-09-26T10:32:09Z</time>
      </trkpt>
      <trkpt lat="48.76193" lon="-3.55141">
        <ele>89.8</ele>
        <time>2025-09-26T10:32:15Z</time>
      </trkpt>
      <trkpt lat="48.76234" lon="-3.5516">
        <ele>88.8</ele>
        <time>2025-09-26T10:32:22Z</time>
      </trkpt>
      <trkpt lat="48.7624" lon="-3.55162">
        <ele>88.8</ele>
        <time>2025-09-26T10:32:23Z</time>
      </trkpt>
      <trkpt lat="48.76251" lon="-3.55166">
        <ele>88.2</ele>
        <time>2025-09-26T10:32:25Z</time>
      </trkpt>
      <trkpt lat="48.76299" lon="-3.5518">
        <ele>88</ele>
        <time>2025-09-26T10:32:34Z</time>
      </trkpt>
      <trkpt lat="48.76308" lon="-3.55185">
        <ele>87.8</ele>
        <time>2025-09-26T10:32:36Z</time>
      </trkpt>
      <trkpt lat="48.76312" lon="-3.55188">
        <ele>87.8</ele>
        <time>2025-09-26T10:32:37Z</time>
      </trkpt>
      <trkpt lat="48.76314" lon="-3.55194">
        <ele>87.8</ele>
        <time>2025-09-26T10:32:38Z</time>
      </trkpt>
      <trkpt lat="48.76329" lon="-3.55237">
        <ele>87.6</ele>
        <time>2025-09-26T10:32:44Z</time>
      </trkpt>
      <trkpt lat="48.7634" lon="-3.55263">
        <ele>88</ele>
        <time>2025-09-26T10:32:48Z</time>
      </trkpt>
      <trkpt lat="48.76344" lon="-3.55271">
        <ele>88.2</ele>
        <time>2025-09-26T10:32:50Z</time>
      </trkpt>
      <trkpt lat="48.76359" lon="-3.5529">
        <ele>88.6</ele>
        <time>2025-09-26T10:32:55Z</time>
      </trkpt>
      <trkpt lat="48.76367" lon="-3.55298">
        <ele>88.8</ele>
        <time>2025-09-26T10:32:57Z</time>
      </trkpt>
      <trkpt lat="48.76383" lon="-3.55311">
        <ele>89</ele>
        <time>2025-09-26T10:33:00Z</time>
      </trkpt>
      <trkpt lat="48.76413" lon="-3.55344">
        <ele>88.8</ele>
        <time>2025-09-26T10:33:06Z</time>
      </trkpt>
      <trkpt lat="48.76436" lon="-3.55383">
        <ele>88.4</ele>
        <time>2025-09-26T10:33:12Z</time>
      </trkpt>
      <trkpt lat="48.76442" lon="-3.55397">
        <ele>88.4</ele>
        <time>2025-09-26T10:33:14Z</time>
      </trkpt>
      <trkpt lat="48.76454" lon="-3.55428">
        <ele>88.2</ele>
        <time>2025-09-26T10:33:18Z</time>
      </trkpt>
      <trkpt lat="48.76464" lon="-3.5546">
        <ele>87.8</ele>
        <time>2025-09-26T10:33:22Z</time>
      </trkpt>
      <trkpt lat="48.76475" lon="-3.55493">
        <ele>87.2</ele>
        <time>2025-09-26T10:33:26Z</time>
      </trkpt>
      <trkpt lat="48.7648" lon="-3.5551">
        <ele>86.8</ele>
        <time>2025-09-26T10:33:28Z</time>
      </trkpt>
      <trkpt lat="48.76497" lon="-3.55551">
        <ele>86</ele>
        <time>2025-09-26T10:33:33Z</time>
      </trkpt>
      <trkpt lat="48.76501" lon="-3.55558">
        <ele>85.8</ele>
        <time>2025-09-26T10:33:34Z</time>
      </trkpt>
      <trkpt lat="48.76509" lon="-3.55572">
        <ele>85.4</ele>
        <time>2025-09-26T10:33:36Z</time>
      </trkpt>
      <trkpt lat="48.76518" lon="-3.55583">
        <ele>85</ele>
        <time>2025-09-26T10:33:38Z</time>
      </trkpt>
      <trkpt lat="48.76523" lon="-3.55588">
        <ele>84.6</ele>
        <time>2025-09-26T10:33:39Z</time>
      </trkpt>
      <trkpt lat="48.76549" lon="-3.55611">
        <ele>84.4</ele>
        <time>2025-09-26T10:33:44Z</time>
      </trkpt>
      <trkpt lat="48.76563" lon="-3.55629">
        <ele>84.2</ele>
        <time>2025-09-26T10:33:47Z</time>
      </trkpt>
      <trkpt lat="48.76581" lon="-3.55655">
        <ele>83.6</ele>
        <time>2025-09-26T10:33:51Z</time>
      </trkpt>
      <trkpt lat="48.76586" lon="-3.55663">
        <ele>83.4</ele>
        <time>2025-09-26T10:33:52Z</time>
      </trkpt>
      <trkpt lat="48.76613" lon="-3.55707">
        <ele>82.4</ele>
        <time>2025-09-26T10:33:58Z</time>
      </trkpt>
      <trkpt lat="48.76617" lon="-3.55714">
        <ele>82.2</ele>
        <time>2025-09-26T10:33:59Z</time>
      </trkpt>
      <trkpt lat="48.76634" lon="-3.55744">
        <ele>81.4</ele>
        <time>2025-09-26T10:34:03Z</time>
      </trkpt>
      <trkpt lat="48.76652" lon="-3.55783">
        <ele>80.2</ele>
        <time>2025-09-26T10:34:08Z</time>
      </trkpt>
      <trkpt lat="48.76659" lon="-3.5583">
        <ele>79.8</ele>
        <time>2025-09-26T10:34:13Z</time>
      </trkpt>
      <trkpt lat="48.76661" lon="-3.5586">
        <ele>79.2</ele>
        <time>2025-09-26T10:34:16Z</time>
      </trkpt>
      <trkpt lat="48.76665" lon="-3.55907">
        <ele>78.8</ele>
        <time>2025-09-26T10:34:21Z</time>
      </trkpt>
      <trkpt lat="48.7667" lon="-3.55923">
        <ele>78.6</ele>
        <time>2025-09-26T10:34:23Z</time>
      </trkpt>
      <trkpt lat="48.76677" lon="-3.55938">
        <ele>78.6</ele>
        <time>2025-09-26T10:34:25Z</time>
      </trkpt>
      <trkpt lat="48.76694" lon="-3.55966">
        <ele>78.4</ele>
        <time>2025-09-26T10:34:29Z</time>
      </trkpt>
      <trkpt lat="48.76703" lon="-3.5598">
        <ele>78</ele>
        <time>2025-09-26T10:34:31Z</time>
      </trkpt>
      <trkpt lat="48.76712" lon="-3.55994">
        <ele>77.6</ele>
        <time>2025-09-26T10:34:33Z</time>
      </trkpt>
      <trkpt lat="48.76734" lon="-3.56029">
        <ele>77.4</ele>
        <time>2025-09-26T10:34:38Z</time>
      </trkpt>
      <trkpt lat="48.76748" lon="-3.56048">
        <ele>77.2</ele>
        <time>2025-09-26T10:34:41Z</time>
      </trkpt>
      <trkpt lat="48.7678" lon="-3.56089">
        <ele>78.2</ele>
        <time>2025-09-26T10:34:48Z</time>
      </trkpt>
      <trkpt lat="48.76784" lon="-3.56095">
        <ele>78.6</ele>
        <time>2025-09-26T10:34:49Z</time>
      </trkpt>
      <trkpt lat="48.76794" lon="-3.56116">
        <ele>79.4</ele>
        <time>2025-09-26T10:34:52Z</time>
      </trkpt>
      <trkpt lat="48.76797" lon="-3.56125">
        <ele>79.6</ele>
        <time>2025-09-26T10:34:53Z</time>
      </trkpt>
      <trkpt lat="48.76809" lon="-3.56174">
        <ele>79.8</ele>
        <time>2025-09-26T10:34:59Z</time>
      </trkpt>
      <trkpt lat="48.76817" lon="-3.56231">
        <ele>79.6</ele>
        <time>2025-09-26T10:35:06Z</time>
      </trkpt>
      <trkpt lat="48.76829" lon="-3.56287">
        <ele>78.8</ele>
        <time>2025-09-26T10:35:13Z</time>
      </trkpt>
      <trkpt lat="48.76831" lon="-3.56293">
        <ele>78.8</ele>
        <time>2025-09-26T10:35:14Z</time>
      </trkpt>
      <trkpt lat="48.76833" lon="-3.56299">
        <ele>78.6</ele>
        <time>2025-09-26T10:35:15Z</time>
      </trkpt>
      <trkpt lat="48.76835" lon="-3.56305">
        <ele>78.6</ele>
        <time>2025-09-26T10:35:16Z</time>
      </trkpt>
      <trkpt lat="48.76837" lon="-3.56312">
        <ele>78.4</ele>
        <time>2025-09-26T10:35:17Z</time>
      </trkpt>
      <trkpt lat="48.76839" lon="-3.56318">
        <ele>78.4</ele>
        <time>2025-09-26T10:35:18Z</time>
      </trkpt>
      <trkpt lat="48.76845" lon="-3.5633">
        <ele>78.2</ele>
        <time>2025-09-26T10:35:20Z</time>
      </trkpt>
      <trkpt lat="48.7685" lon="-3.56342">
        <ele>77.6</ele>
        <time>2025-09-26T10:35:22Z</time>
      </trkpt>
      <trkpt lat="48.76854" lon="-3.56348">
        <ele>77.2</ele>
        <time>2025-09-26T10:35:23Z</time>
      </trkpt>
      <trkpt lat="48.76859" lon="-3.56352">
        <ele>77</ele>
        <time>2025-09-26T10:35:24Z</time>
      </trkpt>
      <trkpt lat="48.76863" lon="-3.56356">
        <ele>77</ele>
        <time>2025-09-26T10:35:25Z</time>
      </trkpt>
      <trkpt lat="48.76868" lon="-3.5636">
        <ele>77</ele>
        <time>2025-09-26T10:35:26Z</time>
      </trkpt>
      <trkpt lat="48.76872" lon="-3.56363">
        <ele>77</ele>
        <time>2025-09-26T10:35:27Z</time>
      </trkpt>
      <trkpt lat="48.76877" lon="-3.56366">
        <ele>77</ele>
        <time>2025-09-26T10:35:28Z</time>
      </trkpt>
      <trkpt lat="48.76884" lon="-3.5637">
        <ele>77</ele>
        <time>2025-09-26T10:35:30Z</time>
      </trkpt>
      <trkpt lat="48.76888" lon="-3.56374">
        <ele>77</ele>
        <time>2025-09-26T10:35:31Z</time>
      </trkpt>
      <trkpt lat="48.7692" lon="-3.56402">
        <ele>77.6</ele>
        <time>2025-09-26T10:35:39Z</time>
      </trkpt>
      <trkpt lat="48.76945" lon="-3.56427">
        <ele>78.2</ele>
        <time>2025-09-26T10:35:46Z</time>
      </trkpt>
      <trkpt lat="48.76956" lon="-3.56443">
        <ele>78</ele>
        <time>2025-09-26T10:35:50Z</time>
      </trkpt>
      <trkpt lat="48.7696" lon="-3.56451">
        <ele>77.6</ele>
        <time>2025-09-26T10:35:52Z</time>
      </trkpt>
      <trkpt lat="48.76963" lon="-3.56471">
        <ele>77.4</ele>
        <time>2025-09-26T10:35:56Z</time>
      </trkpt>
      <trkpt lat="48.7696" lon="-3.56485">
        <ele>77.2</ele>
        <time>2025-09-26T10:35:59Z</time>
      </trkpt>
      <trkpt lat="48.76956" lon="-3.565">
        <ele>76.8</ele>
        <time>2025-09-26T10:36:02Z</time>
      </trkpt>
      <trkpt lat="48.76953" lon="-3.56512">
        <ele>76.2</ele>
        <time>2025-09-26T10:36:06Z</time>
      </trkpt>
      <trkpt lat="48.76953" lon="-3.56515">
        <ele>76</ele>
        <time>2025-09-26T10:36:07Z</time>
      </trkpt>
      <trkpt lat="48.76949" lon="-3.56524">
        <ele>75.6</ele>
        <time>2025-09-26T10:36:12Z</time>
      </trkpt>
      <trkpt lat="48.76947" lon="-3.56524">
        <ele>75.4</ele>
        <time>2025-09-26T10:36:13Z</time>
      </trkpt>
      <trkpt lat="48.76944" lon="-3.56521">
        <ele>75.4</ele>
        <time>2025-09-26T10:36:15Z</time>
      </trkpt>
      <trkpt lat="48.76941" lon="-3.56521">
        <ele>75.4</ele>
        <time>2025-09-26T10:36:16Z</time>
      </trkpt>
      <trkpt lat="48.76939" lon="-3.5652">
        <ele>75.4</ele>
        <time>2025-09-26T10:36:17Z</time>
      </trkpt>
      <trkpt lat="48.76937" lon="-3.56521">
        <ele>75.4</ele>
        <time>2025-09-26T10:36:18Z</time>
      </trkpt>
      <trkpt lat="48.76933" lon="-3.56521">
        <ele>75.4</ele>
        <time>2025-09-26T10:36:20Z</time>
      </trkpt>
      <trkpt lat="48.76931" lon="-3.56522">
        <ele>75.2</ele>
        <time>2025-09-26T10:36:25Z</time>
      </trkpt>
      <trkpt lat="48.76931" lon="-3.56522">
        <ele>75.2</ele>
        <time>2025-09-26T10:36:30Z</time>
      </trkpt>
      <trkpt lat="48.76931" lon="-3.56522">
        <ele>75.2</ele>
        <time>2025-09-26T10:36:31Z</time>
      </trkpt>
      <trkpt lat="48.76932" lon="-3.56522">
        <ele>75.2</ele>
        <time>2025-09-26T10:36:32Z</time>
      </trkpt>
      <trkpt lat="48.76932" lon="-3.56522">
        <ele>75.2</ele>
        <time>2025-09-26T10:36:34Z</time>
      </trkpt>
      <trkpt lat="48.76935" lon="-3.56523">
        <ele>75.2</ele>
        <time>2025-09-26T10:36:37Z</time>
      </trkpt>
      <trkpt lat="48.76939" lon="-3.56523">
        <ele>75.2</ele>
        <time>2025-09-26T10:36:41Z</time>
      </trkpt>
      <trkpt lat="48.7694" lon="-3.56525">
        <ele>74.8</ele>
        <time>2025-09-26T10:36:48Z</time>
      </trkpt>
      <trkpt lat="48.76942" lon="-3.56527">
        <ele>74.6</ele>
        <time>2025-09-26T10:36:53Z</time>
      </trkpt>
      <trkpt lat="48.76942" lon="-3.56527">
        <ele>74.6</ele>
        <time>2025-09-26T10:36:56Z</time>
      </trkpt>
      <trkpt lat="48.76941" lon="-3.56528">
        <ele>74.4</ele>
        <time>2025-09-26T10:36:58Z</time>
      </trkpt>
      <trkpt lat="48.7694" lon="-3.56527">
        <ele>74.2</ele>
        <time>2025-09-26T10:36:59Z</time>
      </trkpt>
      <trkpt lat="48.76937" lon="-3.56527">
        <ele>74.8</ele>
        <time>2025-09-26T10:37:06Z</time>
      </trkpt>
      <trkpt lat="48.76936" lon="-3.56527">
        <ele>74.6</ele>
        <time>2025-09-26T10:37:12Z</time>
      </trkpt>
      <trkpt lat="48.76934" lon="-3.56525">
        <ele>74.6</ele>
        <time>2025-09-26T10:37:20Z</time>
      </trkpt>
      <trkpt lat="48.76928" lon="-3.56521">
        <ele>74.6</ele>
        <time>2025-09-26T10:37:26Z</time>
      </trkpt>
      <trkpt lat="48.76926" lon="-3.5652">
        <ele>74.6</ele>
        <time>2025-09-26T10:37:27Z</time>
      </trkpt>
      <trkpt lat="48.76925" lon="-3.56521">
        <ele>74.6</ele>
        <time>2025-09-26T10:37:29Z</time>
      </trkpt>
      <trkpt lat="48.76921" lon="-3.56522">
        <ele>74.6</ele>
        <time>2025-09-26T10:37:32Z</time>
      </trkpt>
      <trkpt lat="48.76919" lon="-3.56523">
        <ele>74.8</ele>
        <time>2025-09-26T10:37:34Z</time>
      </trkpt>
      <trkpt lat="48.76916" lon="-3.56526">
        <ele>74.8</ele>
        <time>2025-09-26T10:37:38Z</time>
      </trkpt>
      <trkpt lat="48.76914" lon="-3.56526">
        <ele>74.8</ele>
        <time>2025-09-26T10:37:41Z</time>
      </trkpt>
      <trkpt lat="48.76914" lon="-3.56528">
        <ele>74.6</ele>
        <time>2025-09-26T10:37:42Z</time>
      </trkpt>
      <trkpt lat="48.76915" lon="-3.56528">
        <ele>74.6</ele>
        <time>2025-09-26T10:37:45Z</time>
      </trkpt>
      <trkpt lat="48.76917" lon="-3.56527">
        <ele>74.6</ele>
        <time>2025-09-26T10:37:49Z</time>
      </trkpt>
      <trkpt lat="48.76919" lon="-3.56525">
        <ele>74.4</ele>
        <time>2025-09-26T10:37:51Z</time>
      </trkpt>
      <trkpt lat="48.76924" lon="-3.56521">
        <ele>74.4</ele>
        <time>2025-09-26T10:37:57Z</time>
      </trkpt>
      <trkpt lat="48.76931" lon="-3.56521">
        <ele>74.2</ele>
        <time>2025-09-26T10:38:03Z</time>
      </trkpt>
      <trkpt lat="48.76933" lon="-3.56522">
        <ele>74.4</ele>
        <time>2025-09-26T10:38:09Z</time>
      </trkpt>
      <trkpt lat="48.76932" lon="-3.56525">
        <ele>74.2</ele>
        <time>2025-09-26T10:38:16Z</time>
      </trkpt>
      <trkpt lat="48.76932" lon="-3.56525">
        <ele>74.2</ele>
        <time>2025-09-26T10:38:18Z</time>
      </trkpt>
      <trkpt lat="48.76933" lon="-3.56523">
        <ele>74</ele>
        <time>2025-09-26T10:38:22Z</time>
      </trkpt>
      <trkpt lat="48.76937" lon="-3.56521">
        <ele>74</ele>
        <time>2025-09-26T10:38:29Z</time>
      </trkpt>
      <trkpt lat="48.76937" lon="-3.56524">
        <ele>74.2</ele>
        <time>2025-09-26T10:38:34Z</time>
      </trkpt>
      <trkpt lat="48.76936" lon="-3.56523">
        <ele>74.2</ele>
        <time>2025-09-26T10:38:44Z</time>
      </trkpt>
      <trkpt lat="48.76935" lon="-3.56525">
        <ele>74.4</ele>
        <time>2025-09-26T10:38:49Z</time>
      </trkpt>
      <trkpt lat="48.76935" lon="-3.56525">
        <ele>73.8</ele>
        <time>2025-09-26T10:38:56Z</time>
      </trkpt>
      <trkpt lat="48.76936" lon="-3.56524">
        <ele>74.2</ele>
        <time>2025-09-26T10:39:00Z</time>
      </trkpt>
      <trkpt lat="48.76936" lon="-3.56523">
        <ele>74.2</ele>
        <time>2025-09-26T10:39:03Z</time>
      </trkpt>
      <trkpt lat="48.76938" lon="-3.56525">
        <ele>74.6</ele>
        <time>2025-09-26T10:39:09Z</time>
      </trkpt>
      <trkpt lat="48.76939" lon="-3.56525">
        <ele>74.4</ele>
        <time>2025-09-26T10:39:14Z</time>
      </trkpt>
      <trkpt lat="48.76937" lon="-3.56523">
        <ele>75</ele>
        <time>2025-09-26T10:39:20Z</time>
      </trkpt>
      <trkpt lat="48.76935" lon="-3.56523">
        <ele>75</ele>
        <time>2025-09-26T10:39:22Z</time>
      </trkpt>
      <trkpt lat="48.76932" lon="-3.56528">
        <ele>75</ele>
        <time>2025-09-26T10:39:27Z</time>
      </trkpt>
      <trkpt lat="48.76931" lon="-3.56528">
        <ele>74.6</ele>
        <time>2025-09-26T10:39:34Z</time>
      </trkpt>
      <trkpt lat="48.76931" lon="-3.56529">
        <ele>74.6</ele>
        <time>2025-09-26T10:39:40Z</time>
      </trkpt>
      <trkpt lat="48.76931" lon="-3.56529">
        <ele>74.6</ele>
        <time>2025-09-26T10:39:41Z</time>
      </trkpt>
      <trkpt lat="48.76931" lon="-3.56529">
        <ele>74.4</ele>
        <time>2025-09-26T10:39:45Z</time>
      </trkpt>
      <trkpt lat="48.76931" lon="-3.56529">
        <ele>74.6</ele>
        <time>2025-09-26T10:39:48Z</time>
      </trkpt>
      <trkpt lat="48.76931" lon="-3.56529">
        <ele>74.6</ele>
        <time>2025-09-26T10:39:54Z</time>
      </trkpt>
      <trkpt lat="48.76932" lon="-3.56529">
        <ele>74.6</ele>
        <time>2025-09-26T10:39:59Z</time>
      </trkpt>
      <trkpt lat="48.76932" lon="-3.56529">
        <ele>74.6</ele>
        <time>2025-09-26T10:40:04Z</time>
      </trkpt>
      <trkpt lat="48.76932" lon="-3.56529">
        <ele>74.4</ele>
        <time>2025-09-26T10:40:18Z</time>
      </trkpt>
      <trkpt lat="48.76932" lon="-3.56529">
        <ele>74.6</ele>
        <time>2025-09-26T10:40:48Z</time>
      </trkpt>
      <trkpt lat="48.76933" lon="-3.56529">
        <ele>74.6</ele>
        <time>2025-09-26T10:41:02Z</time>
      </trkpt>
      <trkpt lat="48.76933" lon="-3.5653">
        <ele>74.6</ele>
        <time>2025-09-26T10:41:12Z</time>
      </trkpt>
      <trkpt lat="48.76929" lon="-3.56531">
        <ele>74.6</ele>
        <time>2025-09-26T10:41:20Z</time>
      </trkpt>
      <trkpt lat="48.76931" lon="-3.56529">
        <ele>74.6</ele>
        <time>2025-09-26T10:41:31Z</time>
      </trkpt>
      <trkpt lat="48.76933" lon="-3.56527">
        <ele>74.6</ele>
        <time>2025-09-26T10:41:33Z</time>
      </trkpt>
      <trkpt lat="48.7694" lon="-3.56522">
        <ele>74.6</ele>
        <time>2025-09-26T10:41:39Z</time>
      </trkpt>
      <trkpt lat="48.76941" lon="-3.56523">
        <ele>74.4</ele>
        <time>2025-09-26T10:41:45Z</time>
      </trkpt>
      <trkpt lat="48.76941" lon="-3.56527">
        <ele>74.4</ele>
        <time>2025-09-26T10:41:47Z</time>
      </trkpt>
      <trkpt lat="48.7694" lon="-3.56535">
        <ele>74.4</ele>
        <time>2025-09-26T10:41:49Z</time>
      </trkpt>
      <trkpt lat="48.76936" lon="-3.56564">
        <ele>73</ele>
        <time>2025-09-26T10:41:55Z</time>
      </trkpt>
      <trkpt lat="48.76932" lon="-3.56595">
        <ele>71.6</ele>
        <time>2025-09-26T10:42:02Z</time>
      </trkpt>
      <trkpt lat="48.76932" lon="-3.566">
        <ele>71</ele>
        <time>2025-09-26T10:42:03Z</time>
      </trkpt>
      <trkpt lat="48.76931" lon="-3.56614">
        <ele>70.6</ele>
        <time>2025-09-26T10:42:06Z</time>
      </trkpt>
      <trkpt lat="48.76931" lon="-3.56632">
        <ele>70.2</ele>
        <time>2025-09-26T10:42:11Z</time>
      </trkpt>
      <trkpt lat="48.7693" lon="-3.56638">
        <ele>70</ele>
        <time>2025-09-26T10:42:16Z</time>
      </trkpt>
      <trkpt lat="48.7693" lon="-3.56638">
        <ele>70.2</ele>
        <time>2025-09-26T10:42:22Z</time>
      </trkpt>
      <trkpt lat="48.76934" lon="-3.56639">
        <ele>70</ele>
        <time>2025-09-26T10:42:34Z</time>
      </trkpt>
      <trkpt lat="48.76935" lon="-3.5664">
        <ele>69.8</ele>
        <time>2025-09-26T10:42:35Z</time>
      </trkpt>
      <trkpt lat="48.76936" lon="-3.56642">
        <ele>69.6</ele>
        <time>2025-09-26T10:42:36Z</time>
      </trkpt>
      <trkpt lat="48.76936" lon="-3.56644">
        <ele>69.4</ele>
        <time>2025-09-26T10:42:37Z</time>
      </trkpt>
      <trkpt lat="48.76937" lon="-3.56652">
        <ele>69.4</ele>
        <time>2025-09-26T10:42:39Z</time>
      </trkpt>
      <trkpt lat="48.76937" lon="-3.56655">
        <ele>69.4</ele>
        <time>2025-09-26T10:42:40Z</time>
      </trkpt>
      <trkpt lat="48.76936" lon="-3.56661">
        <ele>69.4</ele>
        <time>2025-09-26T10:42:42Z</time>
      </trkpt>
      <trkpt lat="48.76935" lon="-3.56664">
        <ele>69.4</ele>
        <time>2025-09-26T10:42:43Z</time>
      </trkpt>
      <trkpt lat="48.76933" lon="-3.56665">
        <ele>69.2</ele>
        <time>2025-09-26T10:42:44Z</time>
      </trkpt>
      <trkpt lat="48.76931" lon="-3.56665">
        <ele>69.4</ele>
        <time>2025-09-26T10:42:45Z</time>
      </trkpt>
      <trkpt lat="48.76929" lon="-3.56662">
        <ele>69.2</ele>
        <time>2025-09-26T10:42:47Z</time>
      </trkpt>
      <trkpt lat="48.76929" lon="-3.56662">
        <ele>70</ele>
        <time>2025-09-26T10:42:52Z</time>
      </trkpt>
      <trkpt lat="48.76929" lon="-3.56662">
        <ele>69.4</ele>
        <time>2025-09-26T10:43:00Z</time>
      </trkpt>
      <trkpt lat="48.76929" lon="-3.56662">
        <ele>69.4</ele>
        <time>2025-09-26T10:43:05Z</time>
      </trkpt>
      <trkpt lat="48.76929" lon="-3.56662">
        <ele>69.6</ele>
        <time>2025-09-26T10:43:06Z</time>
      </trkpt>
      <trkpt lat="48.76929" lon="-3.56662">
        <ele>69.8</ele>
        <time>2025-09-26T10:43:07Z</time>
      </trkpt>
      <trkpt lat="48.76928" lon="-3.56661">
        <ele>69.8</ele>
        <time>2025-09-26T10:43:09Z</time>
      </trkpt>
      <trkpt lat="48.76929" lon="-3.5666">
        <ele>69.4</ele>
        <time>2025-09-26T10:43:17Z</time>
      </trkpt>
      <trkpt lat="48.76929" lon="-3.56659">
        <ele>69.2</ele>
        <time>2025-09-26T10:43:23Z</time>
      </trkpt>
      <trkpt lat="48.76929" lon="-3.56659">
        <ele>69.2</ele>
        <time>2025-09-26T10:43:25Z</time>
      </trkpt>
      <trkpt lat="48.76929" lon="-3.56659">
        <ele>69.4</ele>
        <time>2025-09-26T10:43:28Z</time>
      </trkpt>
      <trkpt lat="48.76929" lon="-3.56661">
        <ele>69.6</ele>
        <time>2025-09-26T10:43:34Z</time>
      </trkpt>
      <trkpt lat="48.76929" lon="-3.56661">
        <ele>69.6</ele>
        <time>2025-09-26T10:43:36Z</time>
      </trkpt>
      <trkpt lat="48.76929" lon="-3.56661">
        <ele>69.4</ele>
        <time>2025-09-26T10:43:44Z</time>
      </trkpt>
      <trkpt lat="48.7693" lon="-3.56659">
        <ele>69.4</ele>
        <time>2025-09-26T10:43:51Z</time>
      </trkpt>
      <trkpt lat="48.7693" lon="-3.56657">
        <ele>69.4</ele>
        <time>2025-09-26T10:44:00Z</time>
      </trkpt>
      <trkpt lat="48.7693" lon="-3.56656">
        <ele>69.8</ele>
        <time>2025-09-26T10:44:04Z</time>
      </trkpt>
      <trkpt lat="48.76923" lon="-3.5666">
        <ele>69.6</ele>
        <time>2025-09-26T10:44:32Z</time>
      </trkpt>
      <trkpt lat="48.76923" lon="-3.56662">
        <ele>69.6</ele>
        <time>2025-09-26T10:44:44Z</time>
      </trkpt>
      <trkpt lat="48.76923" lon="-3.56662">
        <ele>69.6</ele>
        <time>2025-09-26T10:44:54Z</time>
      </trkpt>
      <trkpt lat="48.76923" lon="-3.56662">
        <ele>69.6</ele>
        <time>2025-09-26T10:45:05Z</time>
      </trkpt>
      <trkpt lat="48.76923" lon="-3.56662">
        <ele>69.6</ele>
        <time>2025-09-26T10:45:07Z</time>
      </trkpt>
      <trkpt lat="48.76923" lon="-3.56663">
        <ele>69.6</ele>
        <time>2025-09-26T10:45:15Z</time>
      </trkpt>
      <trkpt lat="48.76925" lon="-3.56662">
        <ele>69.6</ele>
        <time>2025-09-26T10:45:19Z</time>
      </trkpt>
      <trkpt lat="48.76925" lon="-3.56658">
        <ele>69.6</ele>
        <time>2025-09-26T10:45:23Z</time>
      </trkpt>
      <trkpt lat="48.76925" lon="-3.5666">
        <ele>69.6</ele>
        <time>2025-09-26T10:45:27Z</time>
      </trkpt>
      <trkpt lat="48.76927" lon="-3.56662">
        <ele>69.6</ele>
        <time>2025-09-26T10:45:32Z</time>
      </trkpt>
      <trkpt lat="48.76926" lon="-3.56664">
        <ele>69.6</ele>
        <time>2025-09-26T10:45:39Z</time>
      </trkpt>
      <trkpt lat="48.76926" lon="-3.56666">
        <ele>69.6</ele>
        <time>2025-09-26T10:45:41Z</time>
      </trkpt>
      <trkpt lat="48.76931" lon="-3.56668">
        <ele>69.6</ele>
        <time>2025-09-26T10:45:46Z</time>
      </trkpt>
      <trkpt lat="48.76933" lon="-3.56668">
        <ele>69.6</ele>
        <time>2025-09-26T10:45:47Z</time>
      </trkpt>
      <trkpt lat="48.76935" lon="-3.56669">
        <ele>69.6</ele>
        <time>2025-09-26T10:45:51Z</time>
      </trkpt>
      <trkpt lat="48.76938" lon="-3.56671">
        <ele>69.4</ele>
        <time>2025-09-26T10:45:56Z</time>
      </trkpt>
      <trkpt lat="48.76942" lon="-3.56679">
        <ele>69.4</ele>
        <time>2025-09-26T10:45:58Z</time>
      </trkpt>
      <trkpt lat="48.76943" lon="-3.56685">
        <ele>69.4</ele>
        <time>2025-09-26T10:45:59Z</time>
      </trkpt>
      <trkpt lat="48.76945" lon="-3.56711">
        <ele>69</ele>
        <time>2025-09-26T10:46:02Z</time>
      </trkpt>
      <trkpt lat="48.76945" lon="-3.56748">
        <ele>68.4</ele>
        <time>2025-09-26T10:46:06Z</time>
      </trkpt>
      <trkpt lat="48.76943" lon="-3.56768">
        <ele>68.2</ele>
        <time>2025-09-26T10:46:08Z</time>
      </trkpt>
      <trkpt lat="48.7694" lon="-3.56786">
        <ele>67.8</ele>
        <time>2025-09-26T10:46:10Z</time>
      </trkpt>
      <trkpt lat="48.76933" lon="-3.56813">
        <ele>67.6</ele>
        <time>2025-09-26T10:46:13Z</time>
      </trkpt>
      <trkpt lat="48.76926" lon="-3.5684">
        <ele>67.2</ele>
        <time>2025-09-26T10:46:16Z</time>
      </trkpt>
      <trkpt lat="48.76924" lon="-3.56861">
        <ele>66.4</ele>
        <time>2025-09-26T10:46:18Z</time>
      </trkpt>
      <trkpt lat="48.76926" lon="-3.5688">
        <ele>66.2</ele>
        <time>2025-09-26T10:46:20Z</time>
      </trkpt>
      <trkpt lat="48.76929" lon="-3.56891">
        <ele>66</ele>
        <time>2025-09-26T10:46:21Z</time>
      </trkpt>
      <trkpt lat="48.76945" lon="-3.56932">
        <ele>64.8</ele>
        <time>2025-09-26T10:46:26Z</time>
      </trkpt>
      <trkpt lat="48.76951" lon="-3.56943">
        <ele>64.6</ele>
        <time>2025-09-26T10:46:28Z</time>
      </trkpt>
      <trkpt lat="48.76958" lon="-3.56948">
        <ele>64.4</ele>
        <time>2025-09-26T10:46:30Z</time>
      </trkpt>
      <trkpt lat="48.76967" lon="-3.56951">
        <ele>63.6</ele>
        <time>2025-09-26T10:46:33Z</time>
      </trkpt>
      <trkpt lat="48.7697" lon="-3.56954">
        <ele>63.6</ele>
        <time>2025-09-26T10:46:34Z</time>
      </trkpt>
      <trkpt lat="48.76979" lon="-3.56965">
        <ele>63</ele>
        <time>2025-09-26T10:46:38Z</time>
      </trkpt>
      <trkpt lat="48.76981" lon="-3.56965">
        <ele>63</ele>
        <time>2025-09-26T10:46:39Z</time>
      </trkpt>
      <trkpt lat="48.76987" lon="-3.5696">
        <ele>62.8</ele>
        <time>2025-09-26T10:46:42Z</time>
      </trkpt>
      <trkpt lat="48.76989" lon="-3.56957">
        <ele>62.8</ele>
        <time>2025-09-26T10:46:43Z</time>
      </trkpt>
      <trkpt lat="48.76993" lon="-3.56952">
        <ele>62.8</ele>
        <time>2025-09-26T10:46:45Z</time>
      </trkpt>
      <trkpt lat="48.77002" lon="-3.56948">
        <ele>62.6</ele>
        <time>2025-09-26T10:46:49Z</time>
      </trkpt>
      <trkpt lat="48.77008" lon="-3.5695">
        <ele>62.6</ele>
        <time>2025-09-26T10:46:54Z</time>
      </trkpt>
      <trkpt lat="48.77008" lon="-3.5695">
        <ele>62.4</ele>
        <time>2025-09-26T10:47:01Z</time>
      </trkpt>
      <trkpt lat="48.77008" lon="-3.5695">
        <ele>62.4</ele>
        <time>2025-09-26T10:47:09Z</time>
      </trkpt>
      <trkpt lat="48.77008" lon="-3.56949">
        <ele>62.2</ele>
        <time>2025-09-26T10:47:10Z</time>
      </trkpt>
      <trkpt lat="48.77008" lon="-3.56949">
        <ele>62.2</ele>
        <time>2025-09-26T10:47:12Z</time>
      </trkpt>
      <trkpt lat="48.77008" lon="-3.5695">
        <ele>62.2</ele>
        <time>2025-09-26T10:47:19Z</time>
      </trkpt>
      <trkpt lat="48.77008" lon="-3.5695">
        <ele>61.8</ele>
        <time>2025-09-26T10:47:26Z</time>
      </trkpt>
      <trkpt lat="48.77008" lon="-3.5695">
        <ele>61.8</ele>
        <time>2025-09-26T10:47:29Z</time>
      </trkpt>
      <trkpt lat="48.77008" lon="-3.5695">
        <ele>62</ele>
        <time>2025-09-26T10:47:38Z</time>
      </trkpt>
      <trkpt lat="48.77008" lon="-3.56951">
        <ele>61.8</ele>
        <time>2025-09-26T10:47:47Z</time>
      </trkpt>
      <trkpt lat="48.77008" lon="-3.56951">
        <ele>61.8</ele>
        <time>2025-09-26T10:47:56Z</time>
      </trkpt>
      <trkpt lat="48.77008" lon="-3.56951">
        <ele>61.8</ele>
        <time>2025-09-26T10:47:59Z</time>
      </trkpt>
      <trkpt lat="48.77008" lon="-3.56951">
        <ele>62</ele>
        <time>2025-09-26T10:48:02Z</time>
      </trkpt>
      <trkpt lat="48.77008" lon="-3.56951">
        <ele>61.8</ele>
        <time>2025-09-26T10:48:12Z</time>
      </trkpt>
      <trkpt lat="48.77008" lon="-3.56951">
        <ele>61.8</ele>
        <time>2025-09-26T10:48:24Z</time>
      </trkpt>
      <trkpt lat="48.77008" lon="-3.56951">
        <ele>61.8</ele>
        <time>2025-09-26T10:48:26Z</time>
      </trkpt>
      <trkpt lat="48.77008" lon="-3.56951">
        <ele>61.8</ele>
        <time>2025-09-26T10:48:32Z</time>
      </trkpt>
      <trkpt lat="48.77008" lon="-3.56951">
        <ele>61.8</ele>
        <time>2025-09-26T10:48:34Z</time>
      </trkpt>
      <trkpt lat="48.77008" lon="-3.56951">
        <ele>61.8</ele>
        <time>2025-09-26T10:48:36Z</time>
      </trkpt>
      <trkpt lat="48.77002" lon="-3.56953">
        <ele>61.6</ele>
        <time>2025-09-26T10:48:43Z</time>
      </trkpt>
      <trkpt lat="48.77001" lon="-3.56955">
        <ele>61.6</ele>
        <time>2025-09-26T10:48:45Z</time>
      </trkpt>
      <trkpt lat="48.76999" lon="-3.56958">
        <ele>61.6</ele>
        <time>2025-09-26T10:48:47Z</time>
      </trkpt>
      <trkpt lat="48.76998" lon="-3.5696">
        <ele>61.6</ele>
        <time>2025-09-26T10:48:48Z</time>
      </trkpt>
      <trkpt lat="48.76998" lon="-3.56962">
        <ele>61.6</ele>
        <time>2025-09-26T10:48:49Z</time>
      </trkpt>
      <trkpt lat="48.76998" lon="-3.56963">
        <ele>61.6</ele>
        <time>2025-09-26T10:48:50Z</time>
      </trkpt>
      <trkpt lat="48.76997" lon="-3.56965">
        <ele>61.6</ele>
        <time>2025-09-26T10:48:51Z</time>
      </trkpt>
      <trkpt lat="48.76996" lon="-3.56969">
        <ele>61.6</ele>
        <time>2025-09-26T10:48:54Z</time>
      </trkpt>
      <trkpt lat="48.76993" lon="-3.56973">
        <ele>61.6</ele>
        <time>2025-09-26T10:48:59Z</time>
      </trkpt>
      <trkpt lat="48.76987" lon="-3.56974">
        <ele>61.8</ele>
        <time>2025-09-26T10:49:06Z</time>
      </trkpt>
      <trkpt lat="48.76986" lon="-3.56974">
        <ele>61.8</ele>
        <time>2025-09-26T10:49:11Z</time>
      </trkpt>
      <trkpt lat="48.76989" lon="-3.56977">
        <ele>61.8</ele>
        <time>2025-09-26T10:49:15Z</time>
      </trkpt>
      <trkpt lat="48.76989" lon="-3.56977">
        <ele>61.8</ele>
        <time>2025-09-26T10:49:16Z</time>
      </trkpt>
      <trkpt lat="48.76989" lon="-3.56974">
        <ele>61.8</ele>
        <time>2025-09-26T10:49:18Z</time>
      </trkpt>
      <trkpt lat="48.76989" lon="-3.56974">
        <ele>61.8</ele>
        <time>2025-09-26T10:49:27Z</time>
      </trkpt>
      <trkpt lat="48.76986" lon="-3.56973">
        <ele>61.8</ele>
        <time>2025-09-26T10:49:32Z</time>
      </trkpt>
      <trkpt lat="48.76985" lon="-3.56973">
        <ele>61.8</ele>
        <time>2025-09-26T10:49:33Z</time>
      </trkpt>
      <trkpt lat="48.76985" lon="-3.56975">
        <ele>61.8</ele>
        <time>2025-09-26T10:49:35Z</time>
      </trkpt>
      <trkpt lat="48.76983" lon="-3.56972">
        <ele>61.8</ele>
        <time>2025-09-26T10:49:38Z</time>
      </trkpt>
      <trkpt lat="48.76981" lon="-3.56963">
        <ele>61.8</ele>
        <time>2025-09-26T10:49:49Z</time>
      </trkpt>
      <trkpt lat="48.76983" lon="-3.56961">
        <ele>61.8</ele>
        <time>2025-09-26T10:49:51Z</time>
      </trkpt>
      <trkpt lat="48.76984" lon="-3.5696">
        <ele>61.8</ele>
        <time>2025-09-26T10:49:53Z</time>
      </trkpt>
      <trkpt lat="48.76985" lon="-3.56957">
        <ele>61.8</ele>
        <time>2025-09-26T10:49:56Z</time>
      </trkpt>
      <trkpt lat="48.7699" lon="-3.56954">
        <ele>61.8</ele>
        <time>2025-09-26T10:50:02Z</time>
      </trkpt>
      <trkpt lat="48.76992" lon="-3.56954">
        <ele>61.8</ele>
        <time>2025-09-26T10:50:04Z</time>
      </trkpt>
      <trkpt lat="48.76996" lon="-3.56957">
        <ele>61.8</ele>
        <time>2025-09-26T10:50:07Z</time>
      </trkpt>
      <trkpt lat="48.76999" lon="-3.56955">
        <ele>61.8</ele>
        <time>2025-09-26T10:50:10Z</time>
      </trkpt>
      <trkpt lat="48.77001" lon="-3.56951">
        <ele>61.8</ele>
        <time>2025-09-26T10:50:13Z</time>
      </trkpt>
      <trkpt lat="48.77003" lon="-3.56947">
        <ele>61.8</ele>
        <time>2025-09-26T10:50:21Z</time>
      </trkpt>
      <trkpt lat="48.77003" lon="-3.56947">
        <ele>61.8</ele>
        <time>2025-09-26T10:50:25Z</time>
      </trkpt>
      <trkpt lat="48.77003" lon="-3.56947">
        <ele>61.8</ele>
        <time>2025-09-26T10:50:28Z</time>
      </trkpt>
      <trkpt lat="48.77003" lon="-3.56947">
        <ele>61.8</ele>
        <time>2025-09-26T10:50:30Z</time>
      </trkpt>
      <trkpt lat="48.77003" lon="-3.56947">
        <ele>61.8</ele>
        <time>2025-09-26T10:50:31Z</time>
      </trkpt>
      <trkpt lat="48.77003" lon="-3.56947">
        <ele>61.8</ele>
        <time>2025-09-26T10:50:32Z</time>
      </trkpt>
      <trkpt lat="48.77003" lon="-3.56947">
        <ele>61.8</ele>
        <time>2025-09-26T10:50:34Z</time>
      </trkpt>
      <trkpt lat="48.77003" lon="-3.56947">
        <ele>61.8</ele>
        <time>2025-09-26T10:50:35Z</time>
      </trkpt>
      <trkpt lat="48.77004" lon="-3.56946">
        <ele>61.8</ele>
        <time>2025-09-26T10:50:44Z</time>
      </trkpt>
      <trkpt lat="48.77004" lon="-3.56946">
        <ele>61.8</ele>
        <time>2025-09-26T10:50:54Z</time>
      </trkpt>
      <trkpt lat="48.77004" lon="-3.56946">
        <ele>61.8</ele>
        <time>2025-09-26T10:50:55Z</time>
      </trkpt>
      <trkpt lat="48.77004" lon="-3.56946">
        <ele>61.8</ele>
        <time>2025-09-26T10:50:56Z</time>
      </trkpt>
      <trkpt lat="48.77004" lon="-3.56946">
        <ele>61.8</ele>
        <time>2025-09-26T10:50:57Z</time>
      </trkpt>
      <trkpt lat="48.77004" lon="-3.56946">
        <ele>61.8</ele>
        <time>2025-09-26T10:50:58Z</time>
      </trkpt>
      <trkpt lat="48.77004" lon="-3.56946">
        <ele>61.8</ele>
        <time>2025-09-26T10:50:59Z</time>
      </trkpt>
      <trkpt lat="48.77004" lon="-3.56946">
        <ele>61.8</ele>
        <time>2025-09-26T10:51:00Z</time>
      </trkpt>
      <trkpt lat="48.77004" lon="-3.56946">
        <ele>61.8</ele>
        <time>2025-09-26T10:51:33Z</time>
      </trkpt>
      <trkpt lat="48.77002" lon="-3.56951">
        <ele>61.8</ele>
        <time>2025-09-26T10:52:10Z</time>
      </trkpt>
      <trkpt lat="48.77002" lon="-3.56955">
        <ele>61.8</ele>
        <time>2025-09-26T10:52:13Z</time>
      </trkpt>
      <trkpt lat="48.77004" lon="-3.56961">
        <ele>61.8</ele>
        <time>2025-09-26T10:52:16Z</time>
      </trkpt>
      <trkpt lat="48.77005" lon="-3.56962">
        <ele>61.8</ele>
        <time>2025-09-26T10:52:22Z</time>
      </trkpt>
      <trkpt lat="48.77005" lon="-3.5696">
        <ele>61.8</ele>
        <time>2025-09-26T10:52:23Z</time>
      </trkpt>
      <trkpt lat="48.77003" lon="-3.56953">
        <ele>62</ele>
        <time>2025-09-26T10:52:28Z</time>
      </trkpt>
      <trkpt lat="48.77003" lon="-3.56953">
        <ele>62</ele>
        <time>2025-09-26T10:52:29Z</time>
      </trkpt>
      <trkpt lat="48.77003" lon="-3.56953">
        <ele>62</ele>
        <time>2025-09-26T10:52:37Z</time>
      </trkpt>
      <trkpt lat="48.77003" lon="-3.56952">
        <ele>62</ele>
        <time>2025-09-26T10:52:46Z</time>
      </trkpt>
      <trkpt lat="48.77003" lon="-3.56953">
        <ele>62</ele>
        <time>2025-09-26T10:52:53Z</time>
      </trkpt>
      <trkpt lat="48.77003" lon="-3.56952">
        <ele>62</ele>
        <time>2025-09-26T10:52:56Z</time>
      </trkpt>
      <trkpt lat="48.77003" lon="-3.56953">
        <ele>62</ele>
        <time>2025-09-26T10:53:03Z</time>
      </trkpt>
      <trkpt lat="48.77003" lon="-3.56953">
        <ele>62</ele>
        <time>2025-09-26T10:53:05Z</time>
      </trkpt>
      <trkpt lat="48.77003" lon="-3.56953">
        <ele>62</ele>
        <time>2025-09-26T10:53:07Z</time>
      </trkpt>
      <trkpt lat="48.77003" lon="-3.56953">
        <ele>62.2</ele>
        <time>2025-09-26T10:53:11Z</time>
      </trkpt>
      <trkpt lat="48.77003" lon="-3.56953">
        <ele>62.2</ele>
        <time>2025-09-26T10:53:12Z</time>
      </trkpt>
      <trkpt lat="48.77003" lon="-3.56954">
        <ele>62.2</ele>
        <time>2025-09-26T10:53:13Z</time>
      </trkpt>
      <trkpt lat="48.77004" lon="-3.56955">
        <ele>62.2</ele>
        <time>2025-09-26T10:53:14Z</time>
      </trkpt>
      <trkpt lat="48.77007" lon="-3.56961">
        <ele>62</ele>
        <time>2025-09-26T10:53:19Z</time>
      </trkpt>
      <trkpt lat="48.7701" lon="-3.56965">
        <ele>62</ele>
        <time>2025-09-26T10:53:22Z</time>
      </trkpt>
      <trkpt lat="48.7701" lon="-3.56965">
        <ele>62</ele>
        <time>2025-09-26T10:53:23Z</time>
      </trkpt>
      <trkpt lat="48.77011" lon="-3.56965">
        <ele>62</ele>
        <time>2025-09-26T10:53:26Z</time>
      </trkpt>
      <trkpt lat="48.7701" lon="-3.56965">
        <ele>62.2</ele>
        <time>2025-09-26T10:53:32Z</time>
      </trkpt>
      <trkpt lat="48.7701" lon="-3.56965">
        <ele>62</ele>
        <time>2025-09-26T10:53:39Z</time>
      </trkpt>
      <trkpt lat="48.7701" lon="-3.56965">
        <ele>62</ele>
        <time>2025-09-26T10:53:45Z</time>
      </trkpt>
      <trkpt lat="48.77009" lon="-3.56964">
        <ele>61.8</ele>
        <time>2025-09-26T10:53:49Z</time>
      </trkpt>
      <trkpt lat="48.7701" lon="-3.56964">
        <ele>61.8</ele>
        <time>2025-09-26T10:53:53Z</time>
      </trkpt>
      <trkpt lat="48.7701" lon="-3.56962">
        <ele>62</ele>
        <time>2025-09-26T10:53:58Z</time>
      </trkpt>
      <trkpt lat="48.77008" lon="-3.5696">
        <ele>62</ele>
        <time>2025-09-26T10:54:00Z</time>
      </trkpt>
      <trkpt lat="48.77005" lon="-3.56959">
        <ele>62</ele>
        <time>2025-09-26T10:54:03Z</time>
      </trkpt>
      <trkpt lat="48.77005" lon="-3.56957">
        <ele>62</ele>
        <time>2025-09-26T10:54:04Z</time>
      </trkpt>
      <trkpt lat="48.77005" lon="-3.56957">
        <ele>62.6</ele>
        <time>2025-09-26T10:54:12Z</time>
      </trkpt>
      <trkpt lat="48.77006" lon="-3.56958">
        <ele>62.6</ele>
        <time>2025-09-26T10:54:18Z</time>
      </trkpt>
      <trkpt lat="48.77006" lon="-3.56959">
        <ele>62.6</ele>
        <time>2025-09-26T10:54:19Z</time>
      </trkpt>
      <trkpt lat="48.77009" lon="-3.56965">
        <ele>62.8</ele>
        <time>2025-09-26T10:54:24Z</time>
      </trkpt>
      <trkpt lat="48.7701" lon="-3.56965">
        <ele>62.8</ele>
        <time>2025-09-26T10:54:25Z</time>
      </trkpt>
      <trkpt lat="48.77012" lon="-3.56966">
        <ele>62.8</ele>
        <time>2025-09-26T10:54:28Z</time>
      </trkpt>
      <trkpt lat="48.77012" lon="-3.56966">
        <ele>62.6</ele>
        <time>2025-09-26T10:54:30Z</time>
      </trkpt>
      <trkpt lat="48.77012" lon="-3.56961">
        <ele>62.6</ele>
        <time>2025-09-26T10:54:35Z</time>
      </trkpt>
      <trkpt lat="48.7701" lon="-3.56956">
        <ele>62.8</ele>
        <time>2025-09-26T10:54:38Z</time>
      </trkpt>
      <trkpt lat="48.77009" lon="-3.56955">
        <ele>62.8</ele>
        <time>2025-09-26T10:54:39Z</time>
      </trkpt>
      <trkpt lat="48.77008" lon="-3.56953">
        <ele>63.2</ele>
        <time>2025-09-26T10:54:46Z</time>
      </trkpt>
      <trkpt lat="48.77005" lon="-3.56957">
        <ele>63.4</ele>
        <time>2025-09-26T10:54:53Z</time>
      </trkpt>
      <trkpt lat="48.77011" lon="-3.56966">
        <ele>63.4</ele>
        <time>2025-09-26T10:55:00Z</time>
      </trkpt>
      <trkpt lat="48.77012" lon="-3.56965">
        <ele>63.4</ele>
        <time>2025-09-26T10:55:06Z</time>
      </trkpt>
      <trkpt lat="48.77012" lon="-3.56967">
        <ele>63.4</ele>
        <time>2025-09-26T10:55:13Z</time>
      </trkpt>
      <trkpt lat="48.77012" lon="-3.56967">
        <ele>63.4</ele>
        <time>2025-09-26T10:55:21Z</time>
      </trkpt>
      <trkpt lat="48.77007" lon="-3.56966">
        <ele>63.4</ele>
        <time>2025-09-26T10:55:28Z</time>
      </trkpt>
      <trkpt lat="48.77006" lon="-3.5696">
        <ele>63.2</ele>
        <time>2025-09-26T10:55:34Z</time>
      </trkpt>
      <trkpt lat="48.77007" lon="-3.56954">
        <ele>63.4</ele>
        <time>2025-09-26T10:55:38Z</time>
      </trkpt>
      <trkpt lat="48.77006" lon="-3.56954">
        <ele>63.6</ele>
        <time>2025-09-26T10:55:41Z</time>
      </trkpt>
      <trkpt lat="48.77005" lon="-3.56955">
        <ele>63.6</ele>
        <time>2025-09-26T10:55:42Z</time>
      </trkpt>
      <trkpt lat="48.77004" lon="-3.56958">
        <ele>64</ele>
        <time>2025-09-26T10:55:48Z</time>
      </trkpt>
      <trkpt lat="48.77004" lon="-3.56959">
        <ele>64</ele>
        <time>2025-09-26T10:55:49Z</time>
      </trkpt>
      <trkpt lat="48.77009" lon="-3.56966">
        <ele>64</ele>
        <time>2025-09-26T10:55:57Z</time>
      </trkpt>
      <trkpt lat="48.7701" lon="-3.56966">
        <ele>64</ele>
        <time>2025-09-26T10:55:58Z</time>
      </trkpt>
      <trkpt lat="48.77012" lon="-3.56966">
        <ele>64</ele>
        <time>2025-09-26T10:56:02Z</time>
      </trkpt>
      <trkpt lat="48.77012" lon="-3.56966">
        <ele>64</ele>
        <time>2025-09-26T10:56:03Z</time>
      </trkpt>
      <trkpt lat="48.77012" lon="-3.56964">
        <ele>63.8</ele>
        <time>2025-09-26T10:56:09Z</time>
      </trkpt>
      <trkpt lat="48.77012" lon="-3.56964">
        <ele>64</ele>
        <time>2025-09-26T10:56:20Z</time>
      </trkpt>
      <trkpt lat="48.77012" lon="-3.56964">
        <ele>64</ele>
        <time>2025-09-26T10:56:21Z</time>
      </trkpt>
      <trkpt lat="48.77012" lon="-3.56965">
        <ele>63.6</ele>
        <time>2025-09-26T10:56:38Z</time>
      </trkpt>
      <trkpt lat="48.77012" lon="-3.56965">
        <ele>63.8</ele>
        <time>2025-09-26T10:56:48Z</time>
      </trkpt>
      <trkpt lat="48.77012" lon="-3.56965">
        <ele>63.8</ele>
        <time>2025-09-26T10:57:00Z</time>
      </trkpt>
      <trkpt lat="48.77012" lon="-3.56966">
        <ele>63.8</ele>
        <time>2025-09-26T10:57:02Z</time>
      </trkpt>
      <trkpt lat="48.77012" lon="-3.56966">
        <ele>63.8</ele>
        <time>2025-09-26T10:57:05Z</time>
      </trkpt>
      <trkpt lat="48.77012" lon="-3.56966">
        <ele>63.8</ele>
        <time>2025-09-26T10:57:16Z</time>
      </trkpt>
      <trkpt lat="48.77011" lon="-3.56968">
        <ele>63.8</ele>
        <time>2025-09-26T10:57:27Z</time>
      </trkpt>
      <trkpt lat="48.77011" lon="-3.56968">
        <ele>63.8</ele>
        <time>2025-09-26T10:57:37Z</time>
      </trkpt>
      <trkpt lat="48.77011" lon="-3.56968">
        <ele>63.8</ele>
        <time>2025-09-26T10:57:41Z</time>
      </trkpt>
      <trkpt lat="48.77012" lon="-3.56969">
        <ele>63.8</ele>
        <time>2025-09-26T10:57:47Z</time>
      </trkpt>
      <trkpt lat="48.77012" lon="-3.56969">
        <ele>63.8</ele>
        <time>2025-09-26T10:57:50Z</time>
      </trkpt>
      <trkpt lat="48.77012" lon="-3.56969">
        <ele>63.8</ele>
        <time>2025-09-26T10:57:56Z</time>
      </trkpt>
      <trkpt lat="48.77011" lon="-3.5697">
        <ele>63.8</ele>
        <time>2025-09-26T10:58:05Z</time>
      </trkpt>
      <trkpt lat="48.77011" lon="-3.5697">
        <ele>63.8</ele>
        <time>2025-09-26T10:58:08Z</time>
      </trkpt>
      <trkpt lat="48.77011" lon="-3.5697">
        <ele>63.8</ele>
        <time>2025-09-26T10:58:13Z</time>
      </trkpt>
      <trkpt lat="48.77012" lon="-3.56969">
        <ele>63.8</ele>
        <time>2025-09-26T10:58:22Z</time>
      </trkpt>
      <trkpt lat="48.77011" lon="-3.56971">
        <ele>63.8</ele>
        <time>2025-09-26T10:58:30Z</time>
      </trkpt>
      <trkpt lat="48.77011" lon="-3.56971">
        <ele>63.8</ele>
        <time>2025-09-26T10:58:39Z</time>
      </trkpt>
      <trkpt lat="48.77011" lon="-3.56971">
        <ele>63.8</ele>
        <time>2025-09-26T10:58:44Z</time>
      </trkpt>
      <trkpt lat="48.77011" lon="-3.56971">
        <ele>63.8</ele>
        <time>2025-09-26T10:58:49Z</time>
      </trkpt>
      <trkpt lat="48.77011" lon="-3.56971">
        <ele>63.8</ele>
        <time>2025-09-26T10:58:57Z</time>
      </trkpt>
      <trkpt lat="48.77011" lon="-3.56971">
        <ele>63.8</ele>
        <time>2025-09-26T10:59:13Z</time>
      </trkpt>
      <trkpt lat="48.77011" lon="-3.56971">
        <ele>63.8</ele>
        <time>2025-09-26T10:59:34Z</time>
      </trkpt>
      <trkpt lat="48.77011" lon="-3.56971">
        <ele>63.8</ele>
        <time>2025-09-26T10:59:46Z</time>
      </trkpt>
      <trkpt lat="48.77011" lon="-3.56971">
        <ele>63.8</ele>
        <time>2025-09-26T10:59:52Z</time>
      </trkpt>
      <trkpt lat="48.77011" lon="-3.56971">
        <ele>63.8</ele>
        <time>2025-09-26T11:00:00Z</time>
      </trkpt>
      <trkpt lat="48.77011" lon="-3.56971">
        <ele>63.8</ele>
        <time>2025-09-26T11:00:04Z</time>
      </trkpt>
      <trkpt lat="48.77011" lon="-3.56971">
        <ele>63.8</ele>
        <time>2025-09-26T11:00:13Z</time>
      </trkpt>
      <trkpt lat="48.77011" lon="-3.56969">
        <ele>63.8</ele>
        <time>2025-09-26T11:00:21Z</time>
      </trkpt>
      <trkpt lat="48.77011" lon="-3.56968">
        <ele>63.8</ele>
        <time>2025-09-26T11:00:29Z</time>
      </trkpt>
      <trkpt lat="48.77011" lon="-3.56969">
        <ele>63.8</ele>
        <time>2025-09-26T11:00:34Z</time>
      </trkpt>
      <trkpt lat="48.7701" lon="-3.5697">
        <ele>64</ele>
        <time>2025-09-26T11:00:36Z</time>
      </trkpt>
      <trkpt lat="48.77009" lon="-3.56971">
        <ele>64</ele>
        <time>2025-09-26T11:00:42Z</time>
      </trkpt>
      <trkpt lat="48.77009" lon="-3.56971">
        <ele>64</ele>
        <time>2025-09-26T11:00:49Z</time>
      </trkpt>
      <trkpt lat="48.7701" lon="-3.5697">
        <ele>64.4</ele>
        <time>2025-09-26T11:00:57Z</time>
      </trkpt>
      <trkpt lat="48.7701" lon="-3.5697">
        <ele>64.6</ele>
        <time>2025-09-26T11:01:03Z</time>
      </trkpt>
      <trkpt lat="48.77009" lon="-3.56971">
        <ele>64.8</ele>
        <time>2025-09-26T11:01:05Z</time>
      </trkpt>
      <trkpt lat="48.77009" lon="-3.56971">
        <ele>64.8</ele>
        <time>2025-09-26T11:01:06Z</time>
      </trkpt>
      <trkpt lat="48.77009" lon="-3.5697">
        <ele>64.8</ele>
        <time>2025-09-26T11:01:12Z</time>
      </trkpt>
      <trkpt lat="48.7701" lon="-3.5697">
        <ele>64.8</ele>
        <time>2025-09-26T11:01:13Z</time>
      </trkpt>
      <trkpt lat="48.77011" lon="-3.5697">
        <ele>64.2</ele>
        <time>2025-09-26T11:01:18Z</time>
      </trkpt>
      <trkpt lat="48.77011" lon="-3.5697">
        <ele>64.2</ele>
        <time>2025-09-26T11:01:19Z</time>
      </trkpt>
      <trkpt lat="48.77011" lon="-3.5697">
        <ele>64.2</ele>
        <time>2025-09-26T11:01:20Z</time>
      </trkpt>
      <trkpt lat="48.77011" lon="-3.5697">
        <ele>64.6</ele>
        <time>2025-09-26T11:01:23Z</time>
      </trkpt>
      <trkpt lat="48.77011" lon="-3.5697">
        <ele>64.6</ele>
        <time>2025-09-26T11:01:25Z</time>
      </trkpt>
      <trkpt lat="48.77011" lon="-3.5697">
        <ele>64.6</ele>
        <time>2025-09-26T11:01:26Z</time>
      </trkpt>
      <trkpt lat="48.77011" lon="-3.5697">
        <ele>64.8</ele>
        <time>2025-09-26T11:01:29Z</time>
      </trkpt>
      <trkpt lat="48.7701" lon="-3.5697">
        <ele>65</ele>
        <time>2025-09-26T11:01:37Z</time>
      </trkpt>
      <trkpt lat="48.7701" lon="-3.5697">
        <ele>64.8</ele>
        <time>2025-09-26T11:01:42Z</time>
      </trkpt>
      <trkpt lat="48.7701" lon="-3.5697">
        <ele>65</ele>
        <time>2025-09-26T11:01:47Z</time>
      </trkpt>
      <trkpt lat="48.77011" lon="-3.5697">
        <ele>64.8</ele>
        <time>2025-09-26T11:01:56Z</time>
      </trkpt>
      <trkpt lat="48.77012" lon="-3.5697">
        <ele>64.8</ele>
        <time>2025-09-26T11:02:05Z</time>
      </trkpt>
      <trkpt lat="48.77012" lon="-3.5697">
        <ele>65</ele>
        <time>2025-09-26T11:02:18Z</time>
      </trkpt>
      <trkpt lat="48.77012" lon="-3.56969">
        <ele>65</ele>
        <time>2025-09-26T11:02:20Z</time>
      </trkpt>
      <trkpt lat="48.77011" lon="-3.56969">
        <ele>64.8</ele>
        <time>2025-09-26T11:02:23Z</time>
      </trkpt>
      <trkpt lat="48.77011" lon="-3.56969">
        <ele>64.4</ele>
        <time>2025-09-26T11:02:33Z</time>
      </trkpt>
      <trkpt lat="48.77011" lon="-3.56969">
        <ele>64.6</ele>
        <time>2025-09-26T11:02:36Z</time>
      </trkpt>
      <trkpt lat="48.77011" lon="-3.56968">
        <ele>64.6</ele>
        <time>2025-09-26T11:02:52Z</time>
      </trkpt>
      <trkpt lat="48.7701" lon="-3.56968">
        <ele>64.6</ele>
        <time>2025-09-26T11:02:56Z</time>
      </trkpt>
      <trkpt lat="48.77011" lon="-3.56967">
        <ele>64.6</ele>
        <time>2025-09-26T11:03:05Z</time>
      </trkpt>
      <trkpt lat="48.77012" lon="-3.56966">
        <ele>64.6</ele>
        <time>2025-09-26T11:03:11Z</time>
      </trkpt>
      <trkpt lat="48.77011" lon="-3.56966">
        <ele>64.6</ele>
        <time>2025-09-26T11:03:17Z</time>
      </trkpt>
      <trkpt lat="48.77011" lon="-3.56965">
        <ele>64.6</ele>
        <time>2025-09-26T11:03:24Z</time>
      </trkpt>
      <trkpt lat="48.77011" lon="-3.56965">
        <ele>64.6</ele>
        <time>2025-09-26T11:03:32Z</time>
      </trkpt>
      <trkpt lat="48.77011" lon="-3.56966">
        <ele>64.6</ele>
        <time>2025-09-26T11:03:41Z</time>
      </trkpt>
      <trkpt lat="48.77012" lon="-3.56965">
        <ele>64.6</ele>
        <time>2025-09-26T11:03:48Z</time>
      </trkpt>
      <trkpt lat="48.77012" lon="-3.56966">
        <ele>64.6</ele>
        <time>2025-09-26T11:03:56Z</time>
      </trkpt>
      <trkpt lat="48.77009" lon="-3.56961">
        <ele>64.6</ele>
        <time>2025-09-26T11:04:02Z</time>
      </trkpt>
      <trkpt lat="48.77005" lon="-3.56953">
        <ele>64.6</ele>
        <time>2025-09-26T11:04:08Z</time>
      </trkpt>
      <trkpt lat="48.77005" lon="-3.56952">
        <ele>64.6</ele>
        <time>2025-09-26T11:04:14Z</time>
      </trkpt>
      <trkpt lat="48.77005" lon="-3.56951">
        <ele>64.6</ele>
        <time>2025-09-26T11:04:20Z</time>
      </trkpt>
      <trkpt lat="48.77006" lon="-3.56949">
        <ele>64.6</ele>
        <time>2025-09-26T11:04:22Z</time>
      </trkpt>
      <trkpt lat="48.77005" lon="-3.56951">
        <ele>64.6</ele>
        <time>2025-09-26T11:04:25Z</time>
      </trkpt>
      <trkpt lat="48.77005" lon="-3.56951">
        <ele>64.6</ele>
        <time>2025-09-26T11:04:26Z</time>
      </trkpt>
      <trkpt lat="48.77004" lon="-3.56952">
        <ele>64.6</ele>
        <time>2025-09-26T11:04:28Z</time>
      </trkpt>
      <trkpt lat="48.77005" lon="-3.56951">
        <ele>64.6</ele>
        <time>2025-09-26T11:04:31Z</time>
      </trkpt>
      <trkpt lat="48.77005" lon="-3.5695">
        <ele>64.6</ele>
        <time>2025-09-26T11:04:35Z</time>
      </trkpt>
      <trkpt lat="48.77005" lon="-3.5695">
        <ele>64.6</ele>
        <time>2025-09-26T11:04:38Z</time>
      </trkpt>
      <trkpt lat="48.77005" lon="-3.5695">
        <ele>64.8</ele>
        <time>2025-09-26T11:04:40Z</time>
      </trkpt>
      <trkpt lat="48.77004" lon="-3.56949">
        <ele>64.6</ele>
        <time>2025-09-26T11:04:46Z</time>
      </trkpt>
      <trkpt lat="48.77004" lon="-3.56949">
        <ele>64.6</ele>
        <time>2025-09-26T11:04:51Z</time>
      </trkpt>
      <trkpt lat="48.77004" lon="-3.56947">
        <ele>64.8</ele>
        <time>2025-09-26T11:04:56Z</time>
      </trkpt>
      <trkpt lat="48.77004" lon="-3.56946">
        <ele>64.8</ele>
        <time>2025-09-26T11:04:57Z</time>
      </trkpt>
      <trkpt lat="48.77005" lon="-3.56947">
        <ele>64.8</ele>
        <time>2025-09-26T11:05:04Z</time>
      </trkpt>
      <trkpt lat="48.77005" lon="-3.56947">
        <ele>64.8</ele>
        <time>2025-09-26T11:05:13Z</time>
      </trkpt>
      <trkpt lat="48.77005" lon="-3.56947">
        <ele>64.8</ele>
        <time>2025-09-26T11:05:21Z</time>
      </trkpt>
      <trkpt lat="48.77005" lon="-3.56947">
        <ele>65</ele>
        <time>2025-09-26T11:05:28Z</time>
      </trkpt>
      <trkpt lat="48.77005" lon="-3.56947">
        <ele>65</ele>
        <time>2025-09-26T11:05:43Z</time>
      </trkpt>
      <trkpt lat="48.77005" lon="-3.56947">
        <ele>65</ele>
        <time>2025-09-26T11:05:48Z</time>
      </trkpt>
      <trkpt lat="48.77004" lon="-3.56947">
        <ele>65</ele>
        <time>2025-09-26T11:05:55Z</time>
      </trkpt>
      <trkpt lat="48.77003" lon="-3.56948">
        <ele>65</ele>
        <time>2025-09-26T11:06:00Z</time>
      </trkpt>
      <trkpt lat="48.77003" lon="-3.56948">
        <ele>65</ele>
        <time>2025-09-26T11:06:05Z</time>
      </trkpt>
      <trkpt lat="48.77003" lon="-3.56948">
        <ele>65</ele>
        <time>2025-09-26T11:06:11Z</time>
      </trkpt>
      <trkpt lat="48.77003" lon="-3.56948">
        <ele>65</ele>
        <time>2025-09-26T11:06:21Z</time>
      </trkpt>
      <trkpt lat="48.77003" lon="-3.56949">
        <ele>65</ele>
        <time>2025-09-26T11:06:28Z</time>
      </trkpt>
      <trkpt lat="48.77003" lon="-3.56949">
        <ele>65</ele>
        <time>2025-09-26T11:06:34Z</time>
      </trkpt>
      <trkpt lat="48.77003" lon="-3.56949">
        <ele>65</ele>
        <time>2025-09-26T11:06:43Z</time>
      </trkpt>
      <trkpt lat="48.77003" lon="-3.56949">
        <ele>65</ele>
        <time>2025-09-26T11:06:55Z</time>
      </trkpt>
      <trkpt lat="48.77003" lon="-3.56949">
        <ele>65</ele>
        <time>2025-09-26T11:06:59Z</time>
      </trkpt>
      <trkpt lat="48.77005" lon="-3.56948">
        <ele>65</ele>
        <time>2025-09-26T11:07:01Z</time>
      </trkpt>
      <trkpt lat="48.77005" lon="-3.56948">
        <ele>65</ele>
        <time>2025-09-26T11:07:04Z</time>
      </trkpt>
      <trkpt lat="48.77005" lon="-3.56948">
        <ele>65</ele>
        <time>2025-09-26T11:07:06Z</time>
      </trkpt>
      <trkpt lat="48.77005" lon="-3.56948">
        <ele>65</ele>
        <time>2025-09-26T11:07:18Z</time>
      </trkpt>
      <trkpt lat="48.77005" lon="-3.56948">
        <ele>65</ele>
        <time>2025-09-26T11:07:27Z</time>
      </trkpt>
      <trkpt lat="48.77005" lon="-3.56948">
        <ele>65</ele>
        <time>2025-09-26T11:07:36Z</time>
      </trkpt>
      <trkpt lat="48.77005" lon="-3.56949">
        <ele>65</ele>
        <time>2025-09-26T11:07:52Z</time>
      </trkpt>
      <trkpt lat="48.77005" lon="-3.56949">
        <ele>65</ele>
        <time>2025-09-26T11:08:02Z</time>
      </trkpt>
      <trkpt lat="48.77005" lon="-3.5695">
        <ele>65</ele>
        <time>2025-09-26T11:08:04Z</time>
      </trkpt>
      <trkpt lat="48.77005" lon="-3.5695">
        <ele>65</ele>
        <time>2025-09-26T11:08:13Z</time>
      </trkpt>
      <trkpt lat="48.77005" lon="-3.5695">
        <ele>65</ele>
        <time>2025-09-26T11:08:15Z</time>
      </trkpt>
      <trkpt lat="48.77004" lon="-3.56951">
        <ele>65</ele>
        <time>2025-09-26T11:08:22Z</time>
      </trkpt>
      <trkpt lat="48.77004" lon="-3.56952">
        <ele>65</ele>
        <time>2025-09-26T11:08:30Z</time>
      </trkpt>
      <trkpt lat="48.77004" lon="-3.56952">
        <ele>65</ele>
        <time>2025-09-26T11:08:31Z</time>
      </trkpt>
      <trkpt lat="48.77005" lon="-3.56952">
        <ele>65</ele>
        <time>2025-09-26T11:08:39Z</time>
      </trkpt>
      <trkpt lat="48.77003" lon="-3.56953">
        <ele>65</ele>
        <time>2025-09-26T11:08:47Z</time>
      </trkpt>
      <trkpt lat="48.77004" lon="-3.56952">
        <ele>65</ele>
        <time>2025-09-26T11:08:49Z</time>
      </trkpt>
      <trkpt lat="48.77006" lon="-3.56953">
        <ele>65</ele>
        <time>2025-09-26T11:08:51Z</time>
      </trkpt>
      <trkpt lat="48.77005" lon="-3.56955">
        <ele>65.2</ele>
        <time>2025-09-26T11:08:52Z</time>
      </trkpt>
      <trkpt lat="48.77005" lon="-3.56955">
        <ele>65.2</ele>
        <time>2025-09-26T11:08:57Z</time>
      </trkpt>
      <trkpt lat="48.77005" lon="-3.56955">
        <ele>65.2</ele>
        <time>2025-09-26T11:09:05Z</time>
      </trkpt>
      <trkpt lat="48.77006" lon="-3.56952">
        <ele>65.2</ele>
        <time>2025-09-26T11:09:14Z</time>
      </trkpt>
      <trkpt lat="48.77005" lon="-3.5695">
        <ele>65.2</ele>
        <time>2025-09-26T11:09:18Z</time>
      </trkpt>
      <trkpt lat="48.77006" lon="-3.56945">
        <ele>65.2</ele>
        <time>2025-09-26T11:09:23Z</time>
      </trkpt>
      <trkpt lat="48.77006" lon="-3.56945">
        <ele>65.4</ele>
        <time>2025-09-26T11:09:25Z</time>
      </trkpt>
      <trkpt lat="48.77006" lon="-3.56944">
        <ele>65.4</ele>
        <time>2025-09-26T11:09:33Z</time>
      </trkpt>
      <trkpt lat="48.77006" lon="-3.56946">
        <ele>65.6</ele>
        <time>2025-09-26T11:09:36Z</time>
      </trkpt>
      <trkpt lat="48.77006" lon="-3.56946">
        <ele>65.6</ele>
        <time>2025-09-26T11:09:39Z</time>
      </trkpt>
      <trkpt lat="48.77006" lon="-3.56947">
        <ele>65.6</ele>
        <time>2025-09-26T11:09:49Z</time>
      </trkpt>
      <trkpt lat="48.77006" lon="-3.56948">
        <ele>65.4</ele>
        <time>2025-09-26T11:09:55Z</time>
      </trkpt>
      <trkpt lat="48.77006" lon="-3.56948">
        <ele>65.4</ele>
        <time>2025-09-26T11:10:04Z</time>
      </trkpt>
      <trkpt lat="48.77006" lon="-3.56948">
        <ele>65.4</ele>
        <time>2025-09-26T11:10:17Z</time>
      </trkpt>
      <trkpt lat="48.77006" lon="-3.56948">
        <ele>65.4</ele>
        <time>2025-09-26T11:10:21Z</time>
      </trkpt>
      <trkpt lat="48.77006" lon="-3.56948">
        <ele>65.4</ele>
        <time>2025-09-26T11:10:38Z</time>
      </trkpt>
      <trkpt lat="48.77005" lon="-3.56949">
        <ele>65.4</ele>
        <time>2025-09-26T11:10:47Z</time>
      </trkpt>
      <trkpt lat="48.77005" lon="-3.56949">
        <ele>65.4</ele>
        <time>2025-09-26T11:10:49Z</time>
      </trkpt>
      <trkpt lat="48.77005" lon="-3.56949">
        <ele>65.4</ele>
        <time>2025-09-26T11:10:51Z</time>
      </trkpt>
      <trkpt lat="48.77005" lon="-3.56949">
        <ele>65.4</ele>
        <time>2025-09-26T11:10:54Z</time>
      </trkpt>
      <trkpt lat="48.77005" lon="-3.56949">
        <ele>65.4</ele>
        <time>2025-09-26T11:11:01Z</time>
      </trkpt>
      <trkpt lat="48.77006" lon="-3.56947">
        <ele>65.4</ele>
        <time>2025-09-26T11:11:08Z</time>
      </trkpt>
      <trkpt lat="48.77006" lon="-3.56947">
        <ele>65.6</ele>
        <time>2025-09-26T11:11:12Z</time>
      </trkpt>
      <trkpt lat="48.77006" lon="-3.56947">
        <ele>65.6</ele>
        <time>2025-09-26T11:11:14Z</time>
      </trkpt>
      <trkpt lat="48.77006" lon="-3.56947">
        <ele>65.6</ele>
        <time>2025-09-26T11:11:21Z</time>
      </trkpt>
      <trkpt lat="48.77006" lon="-3.56947">
        <ele>65.6</ele>
        <time>2025-09-26T11:11:27Z</time>
      </trkpt>
      <trkpt lat="48.77006" lon="-3.56947">
        <ele>65.6</ele>
        <time>2025-09-26T11:11:34Z</time>
      </trkpt>
      <trkpt lat="48.77006" lon="-3.56947">
        <ele>65.8</ele>
        <time>2025-09-26T11:11:38Z</time>
      </trkpt>
      <trkpt lat="48.77004" lon="-3.5695">
        <ele>65.8</ele>
        <time>2025-09-26T11:11:41Z</time>
      </trkpt>
      <trkpt lat="48.77004" lon="-3.5695">
        <ele>65.8</ele>
        <time>2025-09-26T11:11:44Z</time>
      </trkpt>
      <trkpt lat="48.77004" lon="-3.5695">
        <ele>65.8</ele>
        <time>2025-09-26T11:11:45Z</time>
      </trkpt>
      <trkpt lat="48.77006" lon="-3.56943">
        <ele>66</ele>
        <time>2025-09-26T11:12:01Z</time>
      </trkpt>
      <trkpt lat="48.77005" lon="-3.56943">
        <ele>65.8</ele>
        <time>2025-09-26T11:12:10Z</time>
      </trkpt>
      <trkpt lat="48.77005" lon="-3.56944">
        <ele>65.8</ele>
        <time>2025-09-26T11:12:11Z</time>
      </trkpt>
      <trkpt lat="48.77005" lon="-3.56946">
        <ele>65.8</ele>
        <time>2025-09-26T11:12:15Z</time>
      </trkpt>
      <trkpt lat="48.77005" lon="-3.56947">
        <ele>65.8</ele>
        <time>2025-09-26T11:12:21Z</time>
      </trkpt>
      <trkpt lat="48.77005" lon="-3.56947">
        <ele>65.8</ele>
        <time>2025-09-26T11:12:29Z</time>
      </trkpt>
      <trkpt lat="48.77004" lon="-3.5695">
        <ele>65.8</ele>
        <time>2025-09-26T11:12:37Z</time>
      </trkpt>
      <trkpt lat="48.77002" lon="-3.56955">
        <ele>65.8</ele>
        <time>2025-09-26T11:12:43Z</time>
      </trkpt>
      <trkpt lat="48.77001" lon="-3.56955">
        <ele>65.8</ele>
        <time>2025-09-26T11:12:48Z</time>
      </trkpt>
      <trkpt lat="48.77001" lon="-3.56956">
        <ele>65.8</ele>
        <time>2025-09-26T11:12:50Z</time>
      </trkpt>
      <trkpt lat="48.77003" lon="-3.56955">
        <ele>65.8</ele>
        <time>2025-09-26T11:12:53Z</time>
      </trkpt>
      <trkpt lat="48.77003" lon="-3.56954">
        <ele>65.6</ele>
        <time>2025-09-26T11:12:55Z</time>
      </trkpt>
      <trkpt lat="48.77003" lon="-3.56954">
        <ele>65.4</ele>
        <time>2025-09-26T11:13:09Z</time>
      </trkpt>
      <trkpt lat="48.77002" lon="-3.56955">
        <ele>65.4</ele>
        <time>2025-09-26T11:13:13Z</time>
      </trkpt>
      <trkpt lat="48.77005" lon="-3.56952">
        <ele>65.6</ele>
        <time>2025-09-26T11:13:22Z</time>
      </trkpt>
      <trkpt lat="48.77007" lon="-3.56951">
        <ele>65.6</ele>
        <time>2025-09-26T11:13:29Z</time>
      </trkpt>
      <trkpt lat="48.77006" lon="-3.56951">
        <ele>66</ele>
        <time>2025-09-26T11:13:38Z</time>
      </trkpt>
      <trkpt lat="48.77005" lon="-3.56953">
        <ele>65.8</ele>
        <time>2025-09-26T11:13:46Z</time>
      </trkpt>
      <trkpt lat="48.77005" lon="-3.56953">
        <ele>65.8</ele>
        <time>2025-09-26T11:13:50Z</time>
      </trkpt>
      <trkpt lat="48.77005" lon="-3.56953">
        <ele>65.8</ele>
        <time>2025-09-26T11:13:55Z</time>
      </trkpt>
      <trkpt lat="48.77005" lon="-3.56953">
        <ele>66</ele>
        <time>2025-09-26T11:14:05Z</time>
      </trkpt>
      <trkpt lat="48.77005" lon="-3.56953">
        <ele>66</ele>
        <time>2025-09-26T11:14:14Z</time>
      </trkpt>
      <trkpt lat="48.77005" lon="-3.56953">
        <ele>66</ele>
        <time>2025-09-26T11:14:23Z</time>
      </trkpt>
      <trkpt lat="48.77005" lon="-3.56953">
        <ele>66</ele>
        <time>2025-09-26T11:14:33Z</time>
      </trkpt>
      <trkpt lat="48.77005" lon="-3.56953">
        <ele>66</ele>
        <time>2025-09-26T11:14:47Z</time>
      </trkpt>
      <trkpt lat="48.77004" lon="-3.56954">
        <ele>66</ele>
        <time>2025-09-26T11:14:57Z</time>
      </trkpt>
      <trkpt lat="48.77005" lon="-3.56955">
        <ele>66</ele>
        <time>2025-09-26T11:15:07Z</time>
      </trkpt>
      <trkpt lat="48.77005" lon="-3.56954">
        <ele>66</ele>
        <time>2025-09-26T11:15:14Z</time>
      </trkpt>
      <trkpt lat="48.77004" lon="-3.56954">
        <ele>66</ele>
        <time>2025-09-26T11:15:23Z</time>
      </trkpt>
      <trkpt lat="48.77004" lon="-3.56954">
        <ele>66</ele>
        <time>2025-09-26T11:15:34Z</time>
      </trkpt>
      <trkpt lat="48.77004" lon="-3.56954">
        <ele>66</ele>
        <time>2025-09-26T11:15:46Z</time>
      </trkpt>
      <trkpt lat="48.77004" lon="-3.56954">
        <ele>66</ele>
        <time>2025-09-26T11:15:57Z</time>
      </trkpt>
      <trkpt lat="48.77004" lon="-3.56954">
        <ele>66</ele>
        <time>2025-09-26T11:16:07Z</time>
      </trkpt>
      <trkpt lat="48.77004" lon="-3.56954">
        <ele>66</ele>
        <time>2025-09-26T11:16:19Z</time>
      </trkpt>
      <trkpt lat="48.77004" lon="-3.56954">
        <ele>66</ele>
        <time>2025-09-26T11:16:33Z</time>
      </trkpt>
      <trkpt lat="48.77003" lon="-3.56953">
        <ele>66</ele>
        <time>2025-09-26T11:16:42Z</time>
      </trkpt>
      <trkpt lat="48.77003" lon="-3.56953">
        <ele>66</ele>
        <time>2025-09-26T11:16:52Z</time>
      </trkpt>
      <trkpt lat="48.77003" lon="-3.56953">
        <ele>66</ele>
        <time>2025-09-26T11:16:59Z</time>
      </trkpt>
      <trkpt lat="48.77003" lon="-3.56953">
        <ele>66</ele>
        <time>2025-09-26T11:17:06Z</time>
      </trkpt>
      <trkpt lat="48.77003" lon="-3.56953">
        <ele>66</ele>
        <time>2025-09-26T11:17:13Z</time>
      </trkpt>
      <trkpt lat="48.77003" lon="-3.56953">
        <ele>66</ele>
        <time>2025-09-26T11:17:19Z</time>
      </trkpt>
      <trkpt lat="48.77003" lon="-3.56953">
        <ele>66</ele>
        <time>2025-09-26T11:17:22Z</time>
      </trkpt>
      <trkpt lat="48.77003" lon="-3.56953">
        <ele>66</ele>
        <time>2025-09-26T11:17:29Z</time>
      </trkpt>
      <trkpt lat="48.77003" lon="-3.56953">
        <ele>66</ele>
        <time>2025-09-26T11:17:40Z</time>
      </trkpt>
      <trkpt lat="48.77003" lon="-3.56953">
        <ele>66</ele>
        <time>2025-09-26T11:17:45Z</time>
      </trkpt>
      <trkpt lat="48.77003" lon="-3.56953">
        <ele>66</ele>
        <time>2025-09-26T11:17:56Z</time>
      </trkpt>
      <trkpt lat="48.77007" lon="-3.56953">
        <ele>66</ele>
        <time>2025-09-26T11:18:02Z</time>
      </trkpt>
      <trkpt lat="48.77007" lon="-3.56952">
        <ele>66</ele>
        <time>2025-09-26T11:18:08Z</time>
      </trkpt>
      <trkpt lat="48.77008" lon="-3.56952">
        <ele>66</ele>
        <time>2025-09-26T11:18:09Z</time>
      </trkpt>
      <trkpt lat="48.7701" lon="-3.56955">
        <ele>66</ele>
        <time>2025-09-26T11:18:13Z</time>
      </trkpt>
      <trkpt lat="48.77011" lon="-3.56962">
        <ele>66</ele>
        <time>2025-09-26T11:18:17Z</time>
      </trkpt>
      <trkpt lat="48.77011" lon="-3.56963">
        <ele>66</ele>
        <time>2025-09-26T11:18:18Z</time>
      </trkpt>
      <trkpt lat="48.77011" lon="-3.56964">
        <ele>66.4</ele>
        <time>2025-09-26T11:18:23Z</time>
      </trkpt>
      <trkpt lat="48.77011" lon="-3.56964">
        <ele>66</ele>
        <time>2025-09-26T11:18:33Z</time>
      </trkpt>
      <trkpt lat="48.77011" lon="-3.56964">
        <ele>66.2</ele>
        <time>2025-09-26T11:18:44Z</time>
      </trkpt>
      <trkpt lat="48.7701" lon="-3.56963">
        <ele>66</ele>
        <time>2025-09-26T11:18:51Z</time>
      </trkpt>
      <trkpt lat="48.77009" lon="-3.56962">
        <ele>66</ele>
        <time>2025-09-26T11:18:52Z</time>
      </trkpt>
      <trkpt lat="48.77008" lon="-3.56962">
        <ele>66.2</ele>
        <time>2025-09-26T11:18:53Z</time>
      </trkpt>
      <trkpt lat="48.77007" lon="-3.56959">
        <ele>66.4</ele>
        <time>2025-09-26T11:18:57Z</time>
      </trkpt>
      <trkpt lat="48.77006" lon="-3.56959">
        <ele>66</ele>
        <time>2025-09-26T11:19:03Z</time>
      </trkpt>
      <trkpt lat="48.77006" lon="-3.56959">
        <ele>65.8</ele>
        <time>2025-09-26T11:19:07Z</time>
      </trkpt>
      <trkpt lat="48.77006" lon="-3.56959">
        <ele>66.2</ele>
        <time>2025-09-26T11:19:13Z</time>
      </trkpt>
      <trkpt lat="48.77006" lon="-3.5696">
        <ele>66</ele>
        <time>2025-09-26T11:19:21Z</time>
      </trkpt>
      <trkpt lat="48.77006" lon="-3.5696">
        <ele>66</ele>
        <time>2025-09-26T11:19:22Z</time>
      </trkpt>
      <trkpt lat="48.77006" lon="-3.5696">
        <ele>66</ele>
        <time>2025-09-26T11:19:26Z</time>
      </trkpt>
      <trkpt lat="48.77006" lon="-3.5696">
        <ele>66</ele>
        <time>2025-09-26T11:19:27Z</time>
      </trkpt>
      <trkpt lat="48.77006" lon="-3.5696">
        <ele>66.2</ele>
        <time>2025-09-26T11:19:28Z</time>
      </trkpt>
      <trkpt lat="48.77006" lon="-3.5696">
        <ele>66.2</ele>
        <time>2025-09-26T11:19:29Z</time>
      </trkpt>
      <trkpt lat="48.77006" lon="-3.5696">
        <ele>66.2</ele>
        <time>2025-09-26T11:19:31Z</time>
      </trkpt>
      <trkpt lat="48.77006" lon="-3.5696">
        <ele>66.2</ele>
        <time>2025-09-26T11:19:32Z</time>
      </trkpt>
      <trkpt lat="48.77006" lon="-3.56959">
        <ele>66</ele>
        <time>2025-09-26T11:19:37Z</time>
      </trkpt>
      <trkpt lat="48.77006" lon="-3.56959">
        <ele>66</ele>
        <time>2025-09-26T11:19:43Z</time>
      </trkpt>
      <trkpt lat="48.77004" lon="-3.56959">
        <ele>66.2</ele>
        <time>2025-09-26T11:19:54Z</time>
      </trkpt>
      <trkpt lat="48.77004" lon="-3.56959">
        <ele>66.2</ele>
        <time>2025-09-26T11:19:55Z</time>
      </trkpt>
      <trkpt lat="48.77004" lon="-3.56959">
        <ele>66.2</ele>
        <time>2025-09-26T11:19:57Z</time>
      </trkpt>
      <trkpt lat="48.77004" lon="-3.56959">
        <ele>66.2</ele>
        <time>2025-09-26T11:20:00Z</time>
      </trkpt>
      <trkpt lat="48.77004" lon="-3.56959">
        <ele>66.2</ele>
        <time>2025-09-26T11:20:02Z</time>
      </trkpt>
      <trkpt lat="48.77004" lon="-3.56959">
        <ele>66.2</ele>
        <time>2025-09-26T11:20:10Z</time>
      </trkpt>
      <trkpt lat="48.77004" lon="-3.56959">
        <ele>66.2</ele>
        <time>2025-09-26T11:20:12Z</time>
      </trkpt>
      <trkpt lat="48.77004" lon="-3.56959">
        <ele>66.2</ele>
        <time>2025-09-26T11:20:17Z</time>
      </trkpt>
      <trkpt lat="48.77004" lon="-3.56959">
        <ele>66.4</ele>
        <time>2025-09-26T11:20:29Z</time>
      </trkpt>
      <trkpt lat="48.77004" lon="-3.56959">
        <ele>66.4</ele>
        <time>2025-09-26T11:20:41Z</time>
      </trkpt>
      <trkpt lat="48.77004" lon="-3.56959">
        <ele>66.4</ele>
        <time>2025-09-26T11:20:46Z</time>
      </trkpt>
      <trkpt lat="48.77004" lon="-3.56959">
        <ele>66.4</ele>
        <time>2025-09-26T11:21:02Z</time>
      </trkpt>
      <trkpt lat="48.77004" lon="-3.56959">
        <ele>66.4</ele>
        <time>2025-09-26T11:21:07Z</time>
      </trkpt>
      <trkpt lat="48.77004" lon="-3.56959">
        <ele>66.4</ele>
        <time>2025-09-26T11:21:20Z</time>
      </trkpt>
      <trkpt lat="48.77004" lon="-3.56958">
        <ele>66.4</ele>
        <time>2025-09-26T11:21:34Z</time>
      </trkpt>
      <trkpt lat="48.77004" lon="-3.56958">
        <ele>66.4</ele>
        <time>2025-09-26T11:21:38Z</time>
      </trkpt>
      <trkpt lat="48.77004" lon="-3.56957">
        <ele>66.4</ele>
        <time>2025-09-26T11:21:42Z</time>
      </trkpt>
      <trkpt lat="48.77004" lon="-3.56957">
        <ele>66.4</ele>
        <time>2025-09-26T11:21:46Z</time>
      </trkpt>
      <trkpt lat="48.77004" lon="-3.56956">
        <ele>66.4</ele>
        <time>2025-09-26T11:21:47Z</time>
      </trkpt>
      <trkpt lat="48.77004" lon="-3.56955">
        <ele>66.4</ele>
        <time>2025-09-26T11:21:52Z</time>
      </trkpt>
      <trkpt lat="48.77004" lon="-3.56955">
        <ele>66.4</ele>
        <time>2025-09-26T11:21:58Z</time>
      </trkpt>
      <trkpt lat="48.77004" lon="-3.56955">
        <ele>66.4</ele>
        <time>2025-09-26T11:22:01Z</time>
      </trkpt>
      <trkpt lat="48.77004" lon="-3.56955">
        <ele>66.4</ele>
        <time>2025-09-26T11:22:08Z</time>
      </trkpt>
      <trkpt lat="48.77004" lon="-3.56955">
        <ele>66.4</ele>
        <time>2025-09-26T11:22:16Z</time>
      </trkpt>
      <trkpt lat="48.77004" lon="-3.56955">
        <ele>66.4</ele>
        <time>2025-09-26T11:22:18Z</time>
      </trkpt>
      <trkpt lat="48.77004" lon="-3.56955">
        <ele>66.4</ele>
        <time>2025-09-26T11:22:19Z</time>
      </trkpt>
      <trkpt lat="48.77004" lon="-3.56955">
        <ele>66.4</ele>
        <time>2025-09-26T11:22:27Z</time>
      </trkpt>
      <trkpt lat="48.77004" lon="-3.56955">
        <ele>66.4</ele>
        <time>2025-09-26T11:22:28Z</time>
      </trkpt>
      <trkpt lat="48.77003" lon="-3.56955">
        <ele>66.4</ele>
        <time>2025-09-26T11:22:34Z</time>
      </trkpt>
      <trkpt lat="48.77003" lon="-3.56955">
        <ele>66.4</ele>
        <time>2025-09-26T11:22:42Z</time>
      </trkpt>
      <trkpt lat="48.77003" lon="-3.56955">
        <ele>66.4</ele>
        <time>2025-09-26T11:23:09Z</time>
      </trkpt>
      <trkpt lat="48.77003" lon="-3.56955">
        <ele>66.4</ele>
        <time>2025-09-26T11:23:59Z</time>
      </trkpt>
      <trkpt lat="48.77003" lon="-3.56955">
        <ele>66.4</ele>
        <time>2025-09-26T11:24:04Z</time>
      </trkpt>
      <trkpt lat="48.77002" lon="-3.56955">
        <ele>66.4</ele>
        <time>2025-09-26T11:24:16Z</time>
      </trkpt>
      <trkpt lat="48.77002" lon="-3.56955">
        <ele>66.4</ele>
        <time>2025-09-26T11:24:24Z</time>
      </trkpt>
      <trkpt lat="48.77003" lon="-3.56955">
        <ele>66.4</ele>
        <time>2025-09-26T11:24:28Z</time>
      </trkpt>
      <trkpt lat="48.77002" lon="-3.56956">
        <ele>66.4</ele>
        <time>2025-09-26T11:24:29Z</time>
      </trkpt>
      <trkpt lat="48.77002" lon="-3.56956">
        <ele>66.4</ele>
        <time>2025-09-26T11:24:33Z</time>
      </trkpt>
      <trkpt lat="48.77002" lon="-3.56956">
        <ele>66.6</ele>
        <time>2025-09-26T11:24:44Z</time>
      </trkpt>
      <trkpt lat="48.77002" lon="-3.56956">
        <ele>66.8</ele>
        <time>2025-09-26T11:24:52Z</time>
      </trkpt>
      <trkpt lat="48.77002" lon="-3.56956">
        <ele>67</ele>
        <time>2025-09-26T11:24:56Z</time>
      </trkpt>
      <trkpt lat="48.77002" lon="-3.56956">
        <ele>67</ele>
        <time>2025-09-26T11:24:59Z</time>
      </trkpt>
      <trkpt lat="48.77002" lon="-3.56956">
        <ele>66.8</ele>
        <time>2025-09-26T11:25:06Z</time>
      </trkpt>
      <trkpt lat="48.77002" lon="-3.56956">
        <ele>67</ele>
        <time>2025-09-26T11:25:10Z</time>
      </trkpt>
      <trkpt lat="48.77002" lon="-3.56956">
        <ele>66.6</ele>
        <time>2025-09-26T11:25:13Z</time>
      </trkpt>
      <trkpt lat="48.77002" lon="-3.56956">
        <ele>66.8</ele>
        <time>2025-09-26T11:25:20Z</time>
      </trkpt>
      <trkpt lat="48.77002" lon="-3.56956">
        <ele>67</ele>
        <time>2025-09-26T11:25:37Z</time>
      </trkpt>
      <trkpt lat="48.77004" lon="-3.56959">
        <ele>67.4</ele>
        <time>2025-09-26T11:25:51Z</time>
      </trkpt>
      <trkpt lat="48.77007" lon="-3.5696">
        <ele>67.4</ele>
        <time>2025-09-26T11:25:53Z</time>
      </trkpt>
      <trkpt lat="48.77009" lon="-3.56963">
        <ele>67.4</ele>
        <time>2025-09-26T11:25:55Z</time>
      </trkpt>
      <trkpt lat="48.7701" lon="-3.56964">
        <ele>67.4</ele>
        <time>2025-09-26T11:25:56Z</time>
      </trkpt>
      <trkpt lat="48.77011" lon="-3.56966">
        <ele>67.4</ele>
        <time>2025-09-26T11:25:59Z</time>
      </trkpt>
      <trkpt lat="48.77011" lon="-3.56966">
        <ele>67.4</ele>
        <time>2025-09-26T11:26:00Z</time>
      </trkpt>
      <trkpt lat="48.77011" lon="-3.56966">
        <ele>67.8</ele>
        <time>2025-09-26T11:26:07Z</time>
      </trkpt>
      <trkpt lat="48.77011" lon="-3.56966">
        <ele>68</ele>
        <time>2025-09-26T11:26:09Z</time>
      </trkpt>
      <trkpt lat="48.77011" lon="-3.56966">
        <ele>68.2</ele>
        <time>2025-09-26T11:26:17Z</time>
      </trkpt>
      <trkpt lat="48.77011" lon="-3.56966">
        <ele>68.2</ele>
        <time>2025-09-26T11:26:30Z</time>
      </trkpt>
      <trkpt lat="48.77011" lon="-3.56966">
        <ele>68</ele>
        <time>2025-09-26T11:26:38Z</time>
      </trkpt>
      <trkpt lat="48.77012" lon="-3.56966">
        <ele>67.8</ele>
        <time>2025-09-26T11:26:43Z</time>
      </trkpt>
      <trkpt lat="48.77012" lon="-3.56966">
        <ele>67.8</ele>
        <time>2025-09-26T11:26:49Z</time>
      </trkpt>
      <trkpt lat="48.77011" lon="-3.56967">
        <ele>68</ele>
        <time>2025-09-26T11:26:54Z</time>
      </trkpt>
      <trkpt lat="48.77012" lon="-3.56965">
        <ele>67.6</ele>
        <time>2025-09-26T11:26:59Z</time>
      </trkpt>
      <trkpt lat="48.77011" lon="-3.56963">
        <ele>67.8</ele>
        <time>2025-09-26T11:27:02Z</time>
      </trkpt>
      <trkpt lat="48.77011" lon="-3.56962">
        <ele>67.8</ele>
        <time>2025-09-26T11:27:03Z</time>
      </trkpt>
      <trkpt lat="48.77009" lon="-3.56958">
        <ele>67.8</ele>
        <time>2025-09-26T11:27:10Z</time>
      </trkpt>
      <trkpt lat="48.77008" lon="-3.56958">
        <ele>67.6</ele>
        <time>2025-09-26T11:27:14Z</time>
      </trkpt>
      <trkpt lat="48.77008" lon="-3.56958">
        <ele>67.6</ele>
        <time>2025-09-26T11:27:15Z</time>
      </trkpt>
      <trkpt lat="48.77007" lon="-3.56956">
        <ele>67.8</ele>
        <time>2025-09-26T11:27:22Z</time>
      </trkpt>
      <trkpt lat="48.77008" lon="-3.56955">
        <ele>67.8</ele>
        <time>2025-09-26T11:27:29Z</time>
      </trkpt>
      <trkpt lat="48.77007" lon="-3.56954">
        <ele>68</ele>
        <time>2025-09-26T11:27:35Z</time>
      </trkpt>
      <trkpt lat="48.77008" lon="-3.56954">
        <ele>68</ele>
        <time>2025-09-26T11:27:43Z</time>
      </trkpt>
      <trkpt lat="48.77007" lon="-3.56954">
        <ele>68.4</ele>
        <time>2025-09-26T11:27:53Z</time>
      </trkpt>
      <trkpt lat="48.77007" lon="-3.56954">
        <ele>68.4</ele>
        <time>2025-09-26T11:27:54Z</time>
      </trkpt>
      <trkpt lat="48.77008" lon="-3.56953">
        <ele>68</ele>
        <time>2025-09-26T11:27:56Z</time>
      </trkpt>
      <trkpt lat="48.77008" lon="-3.5695">
        <ele>68</ele>
        <time>2025-09-26T11:27:59Z</time>
      </trkpt>
      <trkpt lat="48.77006" lon="-3.56951">
        <ele>68</ele>
        <time>2025-09-26T11:28:06Z</time>
      </trkpt>
      <trkpt lat="48.77005" lon="-3.56953">
        <ele>68</ele>
        <time>2025-09-26T11:28:14Z</time>
      </trkpt>
      <trkpt lat="48.7702" lon="-3.56923">
        <ele>68</ele>
        <time>2025-09-26T11:30:38Z</time>
      </trkpt>
      <trkpt lat="48.77012" lon="-3.56937">
        <ele>68</ele>
        <time>2025-09-26T11:30:42Z</time>
      </trkpt>
      <trkpt lat="48.77012" lon="-3.56938">
        <ele>67.8</ele>
        <time>2025-09-26T11:30:43Z</time>
      </trkpt>
      <trkpt lat="48.77011" lon="-3.56941">
        <ele>67.8</ele>
        <time>2025-09-26T11:30:47Z</time>
      </trkpt>
      <trkpt lat="48.77012" lon="-3.5695">
        <ele>67.8</ele>
        <time>2025-09-26T11:30:51Z</time>
      </trkpt>
      <trkpt lat="48.77013" lon="-3.56953">
        <ele>67.8</ele>
        <time>2025-09-26T11:30:53Z</time>
      </trkpt>
      <trkpt lat="48.77013" lon="-3.56955">
        <ele>67.8</ele>
        <time>2025-09-26T11:30:54Z</time>
      </trkpt>
      <trkpt lat="48.77012" lon="-3.5696">
        <ele>67.6</ele>
        <time>2025-09-26T11:30:58Z</time>
      </trkpt>
      <trkpt lat="48.77013" lon="-3.56963">
        <ele>67.8</ele>
        <time>2025-09-26T11:31:05Z</time>
      </trkpt>
      <trkpt lat="48.77013" lon="-3.56963">
        <ele>68</ele>
        <time>2025-09-26T11:31:15Z</time>
      </trkpt>
      <trkpt lat="48.77012" lon="-3.56964">
        <ele>67.8</ele>
        <time>2025-09-26T11:31:20Z</time>
      </trkpt>
      <trkpt lat="48.7701" lon="-3.56964">
        <ele>67.8</ele>
        <time>2025-09-26T11:31:27Z</time>
      </trkpt>
      <trkpt lat="48.7701" lon="-3.56963">
        <ele>67.8</ele>
        <time>2025-09-26T11:31:30Z</time>
      </trkpt>
      <trkpt lat="48.77009" lon="-3.5696">
        <ele>67.8</ele>
        <time>2025-09-26T11:31:32Z</time>
      </trkpt>
      <trkpt lat="48.77008" lon="-3.56959">
        <ele>67.8</ele>
        <time>2025-09-26T11:31:33Z</time>
      </trkpt>
      <trkpt lat="48.77006" lon="-3.56955">
        <ele>67.8</ele>
        <time>2025-09-26T11:31:39Z</time>
      </trkpt>
      <trkpt lat="48.77003" lon="-3.56954">
        <ele>67.8</ele>
        <time>2025-09-26T11:31:43Z</time>
      </trkpt>
      <trkpt lat="48.77003" lon="-3.56955">
        <ele>67.8</ele>
        <time>2025-09-26T11:31:49Z</time>
      </trkpt>
      <trkpt lat="48.77002" lon="-3.56957">
        <ele>67.6</ele>
        <time>2025-09-26T11:31:54Z</time>
      </trkpt>
      <trkpt lat="48.77002" lon="-3.56957">
        <ele>67.6</ele>
        <time>2025-09-26T11:31:58Z</time>
      </trkpt>
      <trkpt lat="48.77002" lon="-3.56958">
        <ele>67.6</ele>
        <time>2025-09-26T11:32:07Z</time>
      </trkpt>
      <trkpt lat="48.77001" lon="-3.56962">
        <ele>67.6</ele>
        <time>2025-09-26T11:32:13Z</time>
      </trkpt>
      <trkpt lat="48.77003" lon="-3.56959">
        <ele>68.8</ele>
        <time>2025-09-26T11:33:05Z</time>
      </trkpt>
      <trkpt lat="48.77005" lon="-3.56957">
        <ele>69.4</ele>
        <time>2025-09-26T11:33:28Z</time>
      </trkpt>
      <trkpt lat="48.77005" lon="-3.56957">
        <ele>69.4</ele>
        <time>2025-09-26T11:33:35Z</time>
      </trkpt>
      <trkpt lat="48.77003" lon="-3.56958">
        <ele>69.8</ele>
        <time>2025-09-26T11:34:03Z</time>
      </trkpt>
      <trkpt lat="48.77003" lon="-3.56958">
        <ele>70</ele>
        <time>2025-09-26T11:34:04Z</time>
      </trkpt>
      <trkpt lat="48.77004" lon="-3.56958">
        <ele>70.8</ele>
        <time>2025-09-26T11:34:49Z</time>
      </trkpt>
      <trkpt lat="48.77004" lon="-3.56959">
        <ele>71</ele>
        <time>2025-09-26T11:34:50Z</time>
      </trkpt>
      <trkpt lat="48.77004" lon="-3.56961">
        <ele>71.2</ele>
        <time>2025-09-26T11:34:53Z</time>
      </trkpt>
      <trkpt lat="48.77003" lon="-3.56967">
        <ele>71.2</ele>
        <time>2025-09-26T11:34:59Z</time>
      </trkpt>
      <trkpt lat="48.77002" lon="-3.56968">
        <ele>71.2</ele>
        <time>2025-09-26T11:35:01Z</time>
      </trkpt>
      <trkpt lat="48.77001" lon="-3.5697">
        <ele>71.2</ele>
        <time>2025-09-26T11:35:02Z</time>
      </trkpt>
      <trkpt lat="48.77" lon="-3.56971">
        <ele>71.2</ele>
        <time>2025-09-26T11:35:04Z</time>
      </trkpt>
      <trkpt lat="48.77" lon="-3.56971">
        <ele>71.2</ele>
        <time>2025-09-26T11:35:06Z</time>
      </trkpt>
      <trkpt lat="48.76998" lon="-3.5697">
        <ele>71.2</ele>
        <time>2025-09-26T11:35:08Z</time>
      </trkpt>
      <trkpt lat="48.76995" lon="-3.56966">
        <ele>71.2</ele>
        <time>2025-09-26T11:35:12Z</time>
      </trkpt>
      <trkpt lat="48.76995" lon="-3.56964">
        <ele>71.2</ele>
        <time>2025-09-26T11:35:13Z</time>
      </trkpt>
      <trkpt lat="48.76992" lon="-3.56956">
        <ele>71.4</ele>
        <time>2025-09-26T11:35:19Z</time>
      </trkpt>
      <trkpt lat="48.76984" lon="-3.56959">
        <ele>71.4</ele>
        <time>2025-09-26T11:35:27Z</time>
      </trkpt>
      <trkpt lat="48.76984" lon="-3.5696">
        <ele>71.6</ele>
        <time>2025-09-26T11:35:31Z</time>
      </trkpt>
      <trkpt lat="48.76989" lon="-3.56955">
        <ele>71.4</ele>
        <time>2025-09-26T11:35:38Z</time>
      </trkpt>
      <trkpt lat="48.76996" lon="-3.56955">
        <ele>71.4</ele>
        <time>2025-09-26T11:35:44Z</time>
      </trkpt>
      <trkpt lat="48.77004" lon="-3.56959">
        <ele>71.4</ele>
        <time>2025-09-26T11:35:52Z</time>
      </trkpt>
      <trkpt lat="48.77006" lon="-3.56961">
        <ele>71.4</ele>
        <time>2025-09-26T11:35:54Z</time>
      </trkpt>
      <trkpt lat="48.77008" lon="-3.56964">
        <ele>71.4</ele>
        <time>2025-09-26T11:35:57Z</time>
      </trkpt>
      <trkpt lat="48.7701" lon="-3.56966">
        <ele>71.4</ele>
        <time>2025-09-26T11:35:59Z</time>
      </trkpt>
      <trkpt lat="48.77011" lon="-3.56967">
        <ele>71.4</ele>
        <time>2025-09-26T11:36:01Z</time>
      </trkpt>
      <trkpt lat="48.77011" lon="-3.56966">
        <ele>71.4</ele>
        <time>2025-09-26T11:36:05Z</time>
      </trkpt>
      <trkpt lat="48.7701" lon="-3.56965">
        <ele>71.4</ele>
        <time>2025-09-26T11:36:11Z</time>
      </trkpt>
      <trkpt lat="48.77009" lon="-3.56962">
        <ele>71.6</ele>
        <time>2025-09-26T11:36:28Z</time>
      </trkpt>
      <trkpt lat="48.77007" lon="-3.56959">
        <ele>71.6</ele>
        <time>2025-09-26T11:36:32Z</time>
      </trkpt>
      <trkpt lat="48.77006" lon="-3.56958">
        <ele>72</ele>
        <time>2025-09-26T11:36:34Z</time>
      </trkpt>
      <trkpt lat="48.77006" lon="-3.56958">
        <ele>72</ele>
        <time>2025-09-26T11:36:38Z</time>
      </trkpt>
      <trkpt lat="48.77005" lon="-3.56958">
        <ele>71.6</ele>
        <time>2025-09-26T11:36:41Z</time>
      </trkpt>
      <trkpt lat="48.77005" lon="-3.56958">
        <ele>71.4</ele>
        <time>2025-09-26T11:36:58Z</time>
      </trkpt>
      <trkpt lat="48.77004" lon="-3.56958">
        <ele>71.4</ele>
        <time>2025-09-26T11:37:01Z</time>
      </trkpt>
      <trkpt lat="48.77006" lon="-3.56961">
        <ele>71.4</ele>
        <time>2025-09-26T11:37:06Z</time>
      </trkpt>
      <trkpt lat="48.77006" lon="-3.56962">
        <ele>71.4</ele>
        <time>2025-09-26T11:37:07Z</time>
      </trkpt>
      <trkpt lat="48.77006" lon="-3.56963">
        <ele>71.4</ele>
        <time>2025-09-26T11:37:08Z</time>
      </trkpt>
      <trkpt lat="48.77007" lon="-3.56966">
        <ele>71.4</ele>
        <time>2025-09-26T11:37:11Z</time>
      </trkpt>
      <trkpt lat="48.77008" lon="-3.56969">
        <ele>71.4</ele>
        <time>2025-09-26T11:37:14Z</time>
      </trkpt>
      <trkpt lat="48.7701" lon="-3.56969">
        <ele>71.4</ele>
        <time>2025-09-26T11:37:21Z</time>
      </trkpt>
      <trkpt lat="48.7701" lon="-3.56968">
        <ele>71.4</ele>
        <time>2025-09-26T11:37:29Z</time>
      </trkpt>
      <trkpt lat="48.7701" lon="-3.56969">
        <ele>71.4</ele>
        <time>2025-09-26T11:37:47Z</time>
      </trkpt>
      <trkpt lat="48.7701" lon="-3.56969">
        <ele>71.4</ele>
        <time>2025-09-26T11:37:56Z</time>
      </trkpt>
      <trkpt lat="48.7701" lon="-3.5697">
        <ele>71.4</ele>
        <time>2025-09-26T11:38:13Z</time>
      </trkpt>
      <trkpt lat="48.7701" lon="-3.5697">
        <ele>71.4</ele>
        <time>2025-09-26T11:38:17Z</time>
      </trkpt>
      <trkpt lat="48.7701" lon="-3.5697">
        <ele>71.4</ele>
        <time>2025-09-26T11:38:19Z</time>
      </trkpt>
      <trkpt lat="48.7701" lon="-3.56971">
        <ele>71.4</ele>
        <time>2025-09-26T11:38:24Z</time>
      </trkpt>
      <trkpt lat="48.77009" lon="-3.5697">
        <ele>71.4</ele>
        <time>2025-09-26T11:38:36Z</time>
      </trkpt>
      <trkpt lat="48.77008" lon="-3.56967">
        <ele>71.4</ele>
        <time>2025-09-26T11:38:39Z</time>
      </trkpt>
      <trkpt lat="48.77007" lon="-3.56966">
        <ele>71.4</ele>
        <time>2025-09-26T11:38:40Z</time>
      </trkpt>
      <trkpt lat="48.77006" lon="-3.56962">
        <ele>71.6</ele>
        <time>2025-09-26T11:38:43Z</time>
      </trkpt>
      <trkpt lat="48.77003" lon="-3.56959">
        <ele>71.6</ele>
        <time>2025-09-26T11:38:49Z</time>
      </trkpt>
      <trkpt lat="48.77003" lon="-3.5696">
        <ele>71.4</ele>
        <time>2025-09-26T11:38:52Z</time>
      </trkpt>
      <trkpt lat="48.77003" lon="-3.56959">
        <ele>71.4</ele>
        <time>2025-09-26T11:38:53Z</time>
      </trkpt>
      <trkpt lat="48.77003" lon="-3.56959">
        <ele>71.4</ele>
        <time>2025-09-26T11:38:55Z</time>
      </trkpt>
      <trkpt lat="48.77004" lon="-3.56958">
        <ele>71.4</ele>
        <time>2025-09-26T11:39:00Z</time>
      </trkpt>
      <trkpt lat="48.77004" lon="-3.56958">
        <ele>71.4</ele>
        <time>2025-09-26T11:39:11Z</time>
      </trkpt>
      <trkpt lat="48.77004" lon="-3.56958">
        <ele>71.4</ele>
        <time>2025-09-26T11:39:12Z</time>
      </trkpt>
      <trkpt lat="48.77004" lon="-3.56958">
        <ele>71.6</ele>
        <time>2025-09-26T11:39:14Z</time>
      </trkpt>
      <trkpt lat="48.77004" lon="-3.56958">
        <ele>71.6</ele>
        <time>2025-09-26T11:39:15Z</time>
      </trkpt>
      <trkpt lat="48.77004" lon="-3.56958">
        <ele>71.6</ele>
        <time>2025-09-26T11:39:16Z</time>
      </trkpt>
      <trkpt lat="48.77004" lon="-3.56953">
        <ele>71.8</ele>
        <time>2025-09-26T11:39:45Z</time>
      </trkpt>
      <trkpt lat="48.77007" lon="-3.56949">
        <ele>71.8</ele>
        <time>2025-09-26T11:42:00Z</time>
      </trkpt>
      <trkpt lat="48.77007" lon="-3.56948">
        <ele>71.8</ele>
        <time>2025-09-26T11:42:31Z</time>
      </trkpt>
      <trkpt lat="48.77007" lon="-3.56948">
        <ele>71.8</ele>
        <time>2025-09-26T11:42:46Z</time>
      </trkpt>
      <trkpt lat="48.77004" lon="-3.56951">
        <ele>71.8</ele>
        <time>2025-09-26T11:44:36Z</time>
      </trkpt>
      <trkpt lat="48.77002" lon="-3.56958">
        <ele>71.8</ele>
        <time>2025-09-26T11:46:37Z</time>
      </trkpt>
      <trkpt lat="48.77004" lon="-3.56957">
        <ele>71.8</ele>
        <time>2025-09-26T11:47:00Z</time>
      </trkpt>
      <trkpt lat="48.77004" lon="-3.56955">
        <ele>71.8</ele>
        <time>2025-09-26T11:47:24Z</time>
      </trkpt>
      <trkpt lat="48.77004" lon="-3.56954">
        <ele>71.8</ele>
        <time>2025-09-26T11:47:32Z</time>
      </trkpt>
      <trkpt lat="48.77004" lon="-3.56953">
        <ele>71.8</ele>
        <time>2025-09-26T11:47:39Z</time>
      </trkpt>
      <trkpt lat="48.77007" lon="-3.56948">
        <ele>71.8</ele>
        <time>2025-09-26T11:49:05Z</time>
      </trkpt>
      <trkpt lat="48.77005" lon="-3.56949">
        <ele>71.8</ele>
        <time>2025-09-26T11:49:35Z</time>
      </trkpt>
      <trkpt lat="48.77005" lon="-3.56949">
        <ele>71.8</ele>
        <time>2025-09-26T11:49:50Z</time>
      </trkpt>
      <trkpt lat="48.77006" lon="-3.56949">
        <ele>71.8</ele>
        <time>2025-09-26T11:52:46Z</time>
      </trkpt>
      <trkpt lat="48.77006" lon="-3.56949">
        <ele>71.8</ele>
        <time>2025-09-26T11:53:37Z</time>
      </trkpt>
      <trkpt lat="48.77006" lon="-3.56949">
        <ele>71.8</ele>
        <time>2025-09-26T11:54:37Z</time>
      </trkpt>
      <trkpt lat="48.77006" lon="-3.56949">
        <ele>71.8</ele>
        <time>2025-09-26T11:55:04Z</time>
      </trkpt>
      <trkpt lat="48.77006" lon="-3.56949">
        <ele>71.8</ele>
        <time>2025-09-26T11:57:02Z</time>
      </trkpt>
      <trkpt lat="48.77006" lon="-3.56949">
        <ele>71.8</ele>
        <time>2025-09-26T11:57:10Z</time>
      </trkpt>
      <trkpt lat="48.77006" lon="-3.56949">
        <ele>71.8</ele>
        <time>2025-09-26T11:58:22Z</time>
      </trkpt>
      <trkpt lat="48.77006" lon="-3.5695">
        <ele>71.8</ele>
        <time>2025-09-26T11:59:34Z</time>
      </trkpt>
      <trkpt lat="48.77006" lon="-3.5695">
        <ele>71.8</ele>
        <time>2025-09-26T12:00:43Z</time>
      </trkpt>
      <trkpt lat="48.77006" lon="-3.5695">
        <ele>71.8</ele>
        <time>2025-09-26T12:01:00Z</time>
      </trkpt>
      <trkpt lat="48.77006" lon="-3.5695">
        <ele>71.8</ele>
        <time>2025-09-26T12:01:01Z</time>
      </trkpt>
      <trkpt lat="48.77006" lon="-3.5695">
        <ele>71.8</ele>
        <time>2025-09-26T12:01:09Z</time>
      </trkpt>
      <trkpt lat="48.77005" lon="-3.5695">
        <ele>71.8</ele>
        <time>2025-09-26T12:01:17Z</time>
      </trkpt>
      <trkpt lat="48.77005" lon="-3.5695">
        <ele>71.8</ele>
        <time>2025-09-26T12:01:20Z</time>
      </trkpt>
      <trkpt lat="48.77005" lon="-3.5695">
        <ele>71.8</ele>
        <time>2025-09-26T12:03:20Z</time>
      </trkpt>
      <trkpt lat="48.77003" lon="-3.56954">
        <ele>71.8</ele>
        <time>2025-09-26T12:03:49Z</time>
      </trkpt>
      <trkpt lat="48.77003" lon="-3.56955">
        <ele>71.8</ele>
        <time>2025-09-26T12:04:03Z</time>
      </trkpt>
      <trkpt lat="48.77003" lon="-3.56955">
        <ele>71.8</ele>
        <time>2025-09-26T12:04:07Z</time>
      </trkpt>
      <trkpt lat="48.77002" lon="-3.56956">
        <ele>71.8</ele>
        <time>2025-09-26T12:04:17Z</time>
      </trkpt>
      <trkpt lat="48.77001" lon="-3.56957">
        <ele>71.8</ele>
        <time>2025-09-26T12:04:42Z</time>
      </trkpt>
      <trkpt lat="48.77001" lon="-3.56957">
        <ele>71.8</ele>
        <time>2025-09-26T12:04:45Z</time>
      </trkpt>
      <trkpt lat="48.77001" lon="-3.56956">
        <ele>71.8</ele>
        <time>2025-09-26T12:04:47Z</time>
      </trkpt>
      <trkpt lat="48.77001" lon="-3.56955">
        <ele>71.8</ele>
        <time>2025-09-26T12:05:02Z</time>
      </trkpt>
      <trkpt lat="48.77001" lon="-3.56954">
        <ele>71.8</ele>
        <time>2025-09-26T12:05:10Z</time>
      </trkpt>
      <trkpt lat="48.77" lon="-3.56953">
        <ele>71.8</ele>
        <time>2025-09-26T12:05:44Z</time>
      </trkpt>
      <trkpt lat="48.76999" lon="-3.56953">
        <ele>71.8</ele>
        <time>2025-09-26T12:05:57Z</time>
      </trkpt>
      <trkpt lat="48.77" lon="-3.56953">
        <ele>71.8</ele>
        <time>2025-09-26T12:06:16Z</time>
      </trkpt>
      <trkpt lat="48.77002" lon="-3.56957">
        <ele>71.8</ele>
        <time>2025-09-26T12:06:19Z</time>
      </trkpt>
      <trkpt lat="48.77004" lon="-3.5696">
        <ele>72</ele>
        <time>2025-09-26T12:06:22Z</time>
      </trkpt>
      <trkpt lat="48.77005" lon="-3.56964">
        <ele>72</ele>
        <time>2025-09-26T12:06:24Z</time>
      </trkpt>
      <trkpt lat="48.77005" lon="-3.5697">
        <ele>72</ele>
        <time>2025-09-26T12:06:29Z</time>
      </trkpt>
      <trkpt lat="48.77006" lon="-3.5697">
        <ele>72</ele>
        <time>2025-09-26T12:06:35Z</time>
      </trkpt>
      <trkpt lat="48.77008" lon="-3.56971">
        <ele>72</ele>
        <time>2025-09-26T12:06:42Z</time>
      </trkpt>
      <trkpt lat="48.77008" lon="-3.56967">
        <ele>72</ele>
        <time>2025-09-26T12:06:47Z</time>
      </trkpt>
      <trkpt lat="48.77007" lon="-3.56968">
        <ele>72</ele>
        <time>2025-09-26T12:06:53Z</time>
      </trkpt>
      <trkpt lat="48.77007" lon="-3.56968">
        <ele>72.4</ele>
        <time>2025-09-26T12:07:00Z</time>
      </trkpt>
      <trkpt lat="48.77007" lon="-3.5697">
        <ele>72.2</ele>
        <time>2025-09-26T12:07:20Z</time>
      </trkpt>
      <trkpt lat="48.77009" lon="-3.56967">
        <ele>72.4</ele>
        <time>2025-09-26T12:07:23Z</time>
      </trkpt>
      <trkpt lat="48.77007" lon="-3.56964">
        <ele>72.4</ele>
        <time>2025-09-26T12:07:27Z</time>
      </trkpt>
      <trkpt lat="48.77005" lon="-3.56962">
        <ele>72.4</ele>
        <time>2025-09-26T12:07:29Z</time>
      </trkpt>
      <trkpt lat="48.77004" lon="-3.5696">
        <ele>72.4</ele>
        <time>2025-09-26T12:07:32Z</time>
      </trkpt>
      <trkpt lat="48.77001" lon="-3.56957">
        <ele>72.6</ele>
        <time>2025-09-26T12:07:37Z</time>
      </trkpt>
      <trkpt lat="48.77001" lon="-3.56957">
        <ele>72.6</ele>
        <time>2025-09-26T12:07:43Z</time>
      </trkpt>
      <trkpt lat="48.77001" lon="-3.56957">
        <ele>72.2</ele>
        <time>2025-09-26T12:07:49Z</time>
      </trkpt>
      <trkpt lat="48.77001" lon="-3.56957">
        <ele>72.2</ele>
        <time>2025-09-26T12:07:50Z</time>
      </trkpt>
      <trkpt lat="48.77" lon="-3.56956">
        <ele>72.4</ele>
        <time>2025-09-26T12:07:58Z</time>
      </trkpt>
      <trkpt lat="48.77" lon="-3.56956">
        <ele>72.2</ele>
        <time>2025-09-26T12:08:02Z</time>
      </trkpt>
      <trkpt lat="48.77001" lon="-3.56956">
        <ele>72.2</ele>
        <time>2025-09-26T12:08:03Z</time>
      </trkpt>
      <trkpt lat="48.77001" lon="-3.56956">
        <ele>72.2</ele>
        <time>2025-09-26T12:08:04Z</time>
      </trkpt>
      <trkpt lat="48.77001" lon="-3.56956">
        <ele>72.2</ele>
        <time>2025-09-26T12:08:05Z</time>
      </trkpt>
      <trkpt lat="48.77001" lon="-3.56956">
        <ele>72.4</ele>
        <time>2025-09-26T12:08:06Z</time>
      </trkpt>
      <trkpt lat="48.77001" lon="-3.56953">
        <ele>72.4</ele>
        <time>2025-09-26T12:08:13Z</time>
      </trkpt>
      <trkpt lat="48.77002" lon="-3.56953">
        <ele>72.4</ele>
        <time>2025-09-26T12:08:14Z</time>
      </trkpt>
      <trkpt lat="48.77002" lon="-3.56952">
        <ele>72.4</ele>
        <time>2025-09-26T12:08:15Z</time>
      </trkpt>
      <trkpt lat="48.77003" lon="-3.56951">
        <ele>72.4</ele>
        <time>2025-09-26T12:08:40Z</time>
      </trkpt>
      <trkpt lat="48.77003" lon="-3.56951">
        <ele>72.6</ele>
        <time>2025-09-26T12:08:45Z</time>
      </trkpt>
      <trkpt lat="48.77003" lon="-3.56951">
        <ele>72.6</ele>
        <time>2025-09-26T12:08:54Z</time>
      </trkpt>
      <trkpt lat="48.77003" lon="-3.56952">
        <ele>72.6</ele>
        <time>2025-09-26T12:08:56Z</time>
      </trkpt>
      <trkpt lat="48.77002" lon="-3.56952">
        <ele>72.8</ele>
        <time>2025-09-26T12:09:12Z</time>
      </trkpt>
      <trkpt lat="48.77006" lon="-3.5695">
        <ele>72.6</ele>
        <time>2025-09-26T12:09:51Z</time>
      </trkpt>
      <trkpt lat="48.77007" lon="-3.5695">
        <ele>72.6</ele>
        <time>2025-09-26T12:09:57Z</time>
      </trkpt>
      <trkpt lat="48.77006" lon="-3.56951">
        <ele>72.6</ele>
        <time>2025-09-26T12:10:06Z</time>
      </trkpt>
      <trkpt lat="48.77002" lon="-3.56945">
        <ele>72.6</ele>
        <time>2025-09-26T12:11:35Z</time>
      </trkpt>
      <trkpt lat="48.77002" lon="-3.56945">
        <ele>72.6</ele>
        <time>2025-09-26T12:11:39Z</time>
      </trkpt>
      <trkpt lat="48.77005" lon="-3.56946">
        <ele>72.6</ele>
        <time>2025-09-26T12:12:20Z</time>
      </trkpt>
      <trkpt lat="48.77005" lon="-3.56946">
        <ele>72.6</ele>
        <time>2025-09-26T12:12:24Z</time>
      </trkpt>
      <trkpt lat="48.77002" lon="-3.56948">
        <ele>72.6</ele>
        <time>2025-09-26T12:12:56Z</time>
      </trkpt>
      <trkpt lat="48.77002" lon="-3.5695">
        <ele>72.6</ele>
        <time>2025-09-26T12:13:05Z</time>
      </trkpt>
      <trkpt lat="48.77002" lon="-3.5695">
        <ele>72.6</ele>
        <time>2025-09-26T12:13:09Z</time>
      </trkpt>
      <trkpt lat="48.77002" lon="-3.56951">
        <ele>72.6</ele>
        <time>2025-09-26T12:13:25Z</time>
      </trkpt>
      <trkpt lat="48.77003" lon="-3.56952">
        <ele>72.6</ele>
        <time>2025-09-26T12:13:43Z</time>
      </trkpt>
      <trkpt lat="48.77001" lon="-3.56952">
        <ele>72.6</ele>
        <time>2025-09-26T12:17:44Z</time>
      </trkpt>
      <trkpt lat="48.77001" lon="-3.56952">
        <ele>72.6</ele>
        <time>2025-09-26T12:17:57Z</time>
      </trkpt>
      <trkpt lat="48.77001" lon="-3.56952">
        <ele>72.6</ele>
        <time>2025-09-26T12:18:22Z</time>
      </trkpt>
      <trkpt lat="48.77006" lon="-3.5695">
        <ele>72.6</ele>
        <time>2025-09-26T12:19:15Z</time>
      </trkpt>
      <trkpt lat="48.7701" lon="-3.56944">
        <ele>72.6</ele>
        <time>2025-09-26T12:19:51Z</time>
      </trkpt>
      <trkpt lat="48.7701" lon="-3.56944">
        <ele>72.6</ele>
        <time>2025-09-26T12:19:54Z</time>
      </trkpt>
      <trkpt lat="48.77009" lon="-3.56945">
        <ele>72.6</ele>
        <time>2025-09-26T12:20:02Z</time>
      </trkpt>
      <trkpt lat="48.77008" lon="-3.56949">
        <ele>72.6</ele>
        <time>2025-09-26T12:20:06Z</time>
      </trkpt>
      <trkpt lat="48.77008" lon="-3.56951">
        <ele>72.6</ele>
        <time>2025-09-26T12:20:07Z</time>
      </trkpt>
      <trkpt lat="48.77009" lon="-3.56957">
        <ele>72.6</ele>
        <time>2025-09-26T12:20:11Z</time>
      </trkpt>
      <trkpt lat="48.77009" lon="-3.56959">
        <ele>72.6</ele>
        <time>2025-09-26T12:20:13Z</time>
      </trkpt>
      <trkpt lat="48.77011" lon="-3.56961">
        <ele>72.4</ele>
        <time>2025-09-26T12:20:15Z</time>
      </trkpt>
      <trkpt lat="48.77011" lon="-3.56963">
        <ele>72.4</ele>
        <time>2025-09-26T12:20:16Z</time>
      </trkpt>
      <trkpt lat="48.77011" lon="-3.56964">
        <ele>72.4</ele>
        <time>2025-09-26T12:20:17Z</time>
      </trkpt>
      <trkpt lat="48.77011" lon="-3.56965">
        <ele>72.4</ele>
        <time>2025-09-26T12:20:20Z</time>
      </trkpt>
      <trkpt lat="48.77013" lon="-3.56966">
        <ele>72.6</ele>
        <time>2025-09-26T12:20:25Z</time>
      </trkpt>
      <trkpt lat="48.77012" lon="-3.56966">
        <ele>72.6</ele>
        <time>2025-09-26T12:20:28Z</time>
      </trkpt>
      <trkpt lat="48.77012" lon="-3.56964">
        <ele>72.4</ele>
        <time>2025-09-26T12:20:35Z</time>
      </trkpt>
      <trkpt lat="48.77008" lon="-3.56972">
        <ele>72.6</ele>
        <time>2025-09-26T12:21:13Z</time>
      </trkpt>
      <trkpt lat="48.77007" lon="-3.56973">
        <ele>72.6</ele>
        <time>2025-09-26T12:21:22Z</time>
      </trkpt>
      <trkpt lat="48.77002" lon="-3.56972">
        <ele>72.6</ele>
        <time>2025-09-26T12:21:35Z</time>
      </trkpt>
      <trkpt lat="48.77001" lon="-3.56967">
        <ele>72.6</ele>
        <time>2025-09-26T12:21:44Z</time>
      </trkpt>
      <trkpt lat="48.76996" lon="-3.56968">
        <ele>72.6</ele>
        <time>2025-09-26T12:21:52Z</time>
      </trkpt>
      <trkpt lat="48.76995" lon="-3.56966">
        <ele>72.6</ele>
        <time>2025-09-26T12:22:05Z</time>
      </trkpt>
      <trkpt lat="48.76995" lon="-3.56966">
        <ele>72.6</ele>
        <time>2025-09-26T12:22:07Z</time>
      </trkpt>
      <trkpt lat="48.76996" lon="-3.56967">
        <ele>72.6</ele>
        <time>2025-09-26T12:22:25Z</time>
      </trkpt>
      <trkpt lat="48.77001" lon="-3.56969">
        <ele>72.6</ele>
        <time>2025-09-26T12:22:39Z</time>
      </trkpt>
      <trkpt lat="48.77001" lon="-3.5697">
        <ele>72.6</ele>
        <time>2025-09-26T12:22:44Z</time>
      </trkpt>
      <trkpt lat="48.77006" lon="-3.56968">
        <ele>72.6</ele>
        <time>2025-09-26T12:23:27Z</time>
      </trkpt>
      <trkpt lat="48.77004" lon="-3.56966">
        <ele>72.6</ele>
        <time>2025-09-26T12:23:46Z</time>
      </trkpt>
      <trkpt lat="48.77003" lon="-3.56967">
        <ele>75</ele>
        <time>2025-09-26T12:23:52Z</time>
      </trkpt>
      <trkpt lat="48.77003" lon="-3.56967">
        <ele>75</ele>
        <time>2025-09-26T12:23:53Z</time>
      </trkpt>
      <trkpt lat="48.77008" lon="-3.56965">
        <ele>75.2</ele>
        <time>2025-09-26T12:24:25Z</time>
      </trkpt>
      <trkpt lat="48.77012" lon="-3.56964">
        <ele>74.8</ele>
        <time>2025-09-26T12:24:47Z</time>
      </trkpt>
      <trkpt lat="48.77012" lon="-3.56963">
        <ele>75</ele>
        <time>2025-09-26T12:24:55Z</time>
      </trkpt>
      <trkpt lat="48.77012" lon="-3.56962">
        <ele>75</ele>
        <time>2025-09-26T12:24:56Z</time>
      </trkpt>
      <trkpt lat="48.77011" lon="-3.56962">
        <ele>74.8</ele>
        <time>2025-09-26T12:24:59Z</time>
      </trkpt>
      <trkpt lat="48.77011" lon="-3.56963">
        <ele>74.6</ele>
        <time>2025-09-26T12:25:01Z</time>
      </trkpt>
      <trkpt lat="48.77009" lon="-3.56962">
        <ele>74.8</ele>
        <time>2025-09-26T12:25:08Z</time>
      </trkpt>
      <trkpt lat="48.77009" lon="-3.56961">
        <ele>74.8</ele>
        <time>2025-09-26T12:25:12Z</time>
      </trkpt>
      <trkpt lat="48.77009" lon="-3.56961">
        <ele>74.8</ele>
        <time>2025-09-26T12:25:13Z</time>
      </trkpt>
      <trkpt lat="48.77009" lon="-3.56962">
        <ele>74.6</ele>
        <time>2025-09-26T12:25:21Z</time>
      </trkpt>
      <trkpt lat="48.77008" lon="-3.56962">
        <ele>74.8</ele>
        <time>2025-09-26T12:25:25Z</time>
      </trkpt>
      <trkpt lat="48.77008" lon="-3.56962">
        <ele>74.8</ele>
        <time>2025-09-26T12:25:27Z</time>
      </trkpt>
      <trkpt lat="48.77008" lon="-3.56961">
        <ele>74.8</ele>
        <time>2025-09-26T12:25:30Z</time>
      </trkpt>
      <trkpt lat="48.77006" lon="-3.56963">
        <ele>74.6</ele>
        <time>2025-09-26T12:25:37Z</time>
      </trkpt>
      <trkpt lat="48.77006" lon="-3.56963">
        <ele>74.8</ele>
        <time>2025-09-26T12:25:40Z</time>
      </trkpt>
      <trkpt lat="48.77007" lon="-3.56964">
        <ele>75</ele>
        <time>2025-09-26T12:25:53Z</time>
      </trkpt>
      <trkpt lat="48.77007" lon="-3.56964">
        <ele>75</ele>
        <time>2025-09-26T12:26:03Z</time>
      </trkpt>
      <trkpt lat="48.77007" lon="-3.56964">
        <ele>75</ele>
        <time>2025-09-26T12:26:12Z</time>
      </trkpt>
      <trkpt lat="48.77006" lon="-3.56963">
        <ele>75</ele>
        <time>2025-09-26T12:26:18Z</time>
      </trkpt>
      <trkpt lat="48.77001" lon="-3.5696">
        <ele>75</ele>
        <time>2025-09-26T12:26:43Z</time>
      </trkpt>
      <trkpt lat="48.77001" lon="-3.56963">
        <ele>75</ele>
        <time>2025-09-26T12:27:01Z</time>
      </trkpt>
      <trkpt lat="48.77001" lon="-3.56963">
        <ele>75</ele>
        <time>2025-09-26T12:27:05Z</time>
      </trkpt>
      <trkpt lat="48.77002" lon="-3.56967">
        <ele>75</ele>
        <time>2025-09-26T12:27:16Z</time>
      </trkpt>
      <trkpt lat="48.77003" lon="-3.56967">
        <ele>75</ele>
        <time>2025-09-26T12:27:18Z</time>
      </trkpt>
      <trkpt lat="48.77005" lon="-3.56967">
        <ele>75</ele>
        <time>2025-09-26T12:27:38Z</time>
      </trkpt>
      <trkpt lat="48.77008" lon="-3.56966">
        <ele>75</ele>
        <time>2025-09-26T12:27:51Z</time>
      </trkpt>
      <trkpt lat="48.77009" lon="-3.56967">
        <ele>75</ele>
        <time>2025-09-26T12:27:58Z</time>
      </trkpt>
      <trkpt lat="48.77008" lon="-3.56968">
        <ele>75</ele>
        <time>2025-09-26T12:28:03Z</time>
      </trkpt>
      <trkpt lat="48.77008" lon="-3.56969">
        <ele>75</ele>
        <time>2025-09-26T12:28:09Z</time>
      </trkpt>
      <trkpt lat="48.77008" lon="-3.56969">
        <ele>75</ele>
        <time>2025-09-26T12:28:15Z</time>
      </trkpt>
      <trkpt lat="48.77006" lon="-3.56965">
        <ele>75</ele>
        <time>2025-09-26T12:28:36Z</time>
      </trkpt>
      <trkpt lat="48.77006" lon="-3.56966">
        <ele>75</ele>
        <time>2025-09-26T12:28:47Z</time>
      </trkpt>
      <trkpt lat="48.77005" lon="-3.56967">
        <ele>75</ele>
        <time>2025-09-26T12:28:51Z</time>
      </trkpt>
      <trkpt lat="48.77003" lon="-3.56969">
        <ele>75</ele>
        <time>2025-09-26T12:28:56Z</time>
      </trkpt>
      <trkpt lat="48.77003" lon="-3.56966">
        <ele>75</ele>
        <time>2025-09-26T12:29:15Z</time>
      </trkpt>
      <trkpt lat="48.77004" lon="-3.56965">
        <ele>75</ele>
        <time>2025-09-26T12:29:24Z</time>
      </trkpt>
      <trkpt lat="48.77004" lon="-3.56965">
        <ele>75</ele>
        <time>2025-09-26T12:29:29Z</time>
      </trkpt>
      <trkpt lat="48.77005" lon="-3.56964">
        <ele>75</ele>
        <time>2025-09-26T12:29:42Z</time>
      </trkpt>
      <trkpt lat="48.77007" lon="-3.56963">
        <ele>75</ele>
        <time>2025-09-26T12:29:48Z</time>
      </trkpt>
      <trkpt lat="48.77007" lon="-3.56963">
        <ele>75</ele>
        <time>2025-09-26T12:29:53Z</time>
      </trkpt>
      <trkpt lat="48.77007" lon="-3.56963">
        <ele>75</ele>
        <time>2025-09-26T12:29:56Z</time>
      </trkpt>
      <trkpt lat="48.77007" lon="-3.56963">
        <ele>75</ele>
        <time>2025-09-26T12:29:59Z</time>
      </trkpt>
      <trkpt lat="48.77007" lon="-3.56963">
        <ele>75</ele>
        <time>2025-09-26T12:30:02Z</time>
      </trkpt>
      <trkpt lat="48.77007" lon="-3.56963">
        <ele>75</ele>
        <time>2025-09-26T12:30:05Z</time>
      </trkpt>
      <trkpt lat="48.77007" lon="-3.56963">
        <ele>75</ele>
        <time>2025-09-26T12:30:06Z</time>
      </trkpt>
      <trkpt lat="48.77007" lon="-3.56963">
        <ele>75</ele>
        <time>2025-09-26T12:30:08Z</time>
      </trkpt>
      <trkpt lat="48.77007" lon="-3.56963">
        <ele>75</ele>
        <time>2025-09-26T12:30:10Z</time>
      </trkpt>
      <trkpt lat="48.77011" lon="-3.56961">
        <ele>75</ele>
        <time>2025-09-26T12:30:28Z</time>
      </trkpt>
      <trkpt lat="48.77011" lon="-3.5696">
        <ele>75</ele>
        <time>2025-09-26T12:30:44Z</time>
      </trkpt>
      <trkpt lat="48.77011" lon="-3.5696">
        <ele>75</ele>
        <time>2025-09-26T12:30:53Z</time>
      </trkpt>
      <trkpt lat="48.7701" lon="-3.56968">
        <ele>74.8</ele>
        <time>2025-09-26T12:30:57Z</time>
      </trkpt>
      <trkpt lat="48.77009" lon="-3.56976">
        <ele>74.8</ele>
        <time>2025-09-26T12:31:00Z</time>
      </trkpt>
      <trkpt lat="48.77007" lon="-3.56982">
        <ele>74.6</ele>
        <time>2025-09-26T12:31:02Z</time>
      </trkpt>
      <trkpt lat="48.77004" lon="-3.56988">
        <ele>74.4</ele>
        <time>2025-09-26T12:31:04Z</time>
      </trkpt>
      <trkpt lat="48.76999" lon="-3.57007">
        <ele>74.2</ele>
        <time>2025-09-26T12:31:09Z</time>
      </trkpt>
      <trkpt lat="48.76998" lon="-3.5702">
        <ele>74</ele>
        <time>2025-09-26T12:31:13Z</time>
      </trkpt>
      <trkpt lat="48.76999" lon="-3.57027">
        <ele>73.8</ele>
        <time>2025-09-26T12:31:15Z</time>
      </trkpt>
      <trkpt lat="48.76998" lon="-3.57033">
        <ele>73.6</ele>
        <time>2025-09-26T12:31:17Z</time>
      </trkpt>
      <trkpt lat="48.76994" lon="-3.57036">
        <ele>73.4</ele>
        <time>2025-09-26T12:31:19Z</time>
      </trkpt>
      <trkpt lat="48.76988" lon="-3.57037">
        <ele>73.2</ele>
        <time>2025-09-26T12:31:22Z</time>
      </trkpt>
      <trkpt lat="48.76982" lon="-3.5703">
        <ele>73.2</ele>
        <time>2025-09-26T12:31:24Z</time>
      </trkpt>
      <trkpt lat="48.76971" lon="-3.57003">
        <ele>74.2</ele>
        <time>2025-09-26T12:31:31Z</time>
      </trkpt>
      <trkpt lat="48.76969" lon="-3.56999">
        <ele>74.2</ele>
        <time>2025-09-26T12:31:32Z</time>
      </trkpt>
      <trkpt lat="48.76958" lon="-3.56971">
        <ele>75</ele>
        <time>2025-09-26T12:31:39Z</time>
      </trkpt>
      <trkpt lat="48.76954" lon="-3.56964">
        <ele>75.2</ele>
        <time>2025-09-26T12:31:41Z</time>
      </trkpt>
      <trkpt lat="48.76948" lon="-3.56951">
        <ele>76</ele>
        <time>2025-09-26T12:31:46Z</time>
      </trkpt>
      <trkpt lat="48.76948" lon="-3.56947">
        <ele>76</ele>
        <time>2025-09-26T12:31:47Z</time>
      </trkpt>
      <trkpt lat="48.76938" lon="-3.5692">
        <ele>76.2</ele>
        <time>2025-09-26T12:31:53Z</time>
      </trkpt>
      <trkpt lat="48.76923" lon="-3.56881">
        <ele>77.2</ele>
        <time>2025-09-26T12:32:01Z</time>
      </trkpt>
      <trkpt lat="48.7692" lon="-3.56854">
        <ele>78</ele>
        <time>2025-09-26T12:32:06Z</time>
      </trkpt>
      <trkpt lat="48.7692" lon="-3.56843">
        <ele>78.2</ele>
        <time>2025-09-26T12:32:08Z</time>
      </trkpt>
      <trkpt lat="48.76925" lon="-3.5682">
        <ele>79</ele>
        <time>2025-09-26T12:32:12Z</time>
      </trkpt>
      <trkpt lat="48.76931" lon="-3.56799">
        <ele>79.4</ele>
        <time>2025-09-26T12:32:16Z</time>
      </trkpt>
      <trkpt lat="48.76939" lon="-3.56768">
        <ele>79.2</ele>
        <time>2025-09-26T12:32:22Z</time>
      </trkpt>
      <trkpt lat="48.76941" lon="-3.56739">
        <ele>79.6</ele>
        <time>2025-09-26T12:32:27Z</time>
      </trkpt>
      <trkpt lat="48.7694" lon="-3.56716">
        <ele>79.4</ele>
        <time>2025-09-26T12:32:31Z</time>
      </trkpt>
      <trkpt lat="48.76937" lon="-3.56669">
        <ele>80.4</ele>
        <time>2025-09-26T12:32:39Z</time>
      </trkpt>
      <trkpt lat="48.76936" lon="-3.56663">
        <ele>80.4</ele>
        <time>2025-09-26T12:32:40Z</time>
      </trkpt>
      <trkpt lat="48.76935" lon="-3.56602">
        <ele>81.2</ele>
        <time>2025-09-26T12:32:50Z</time>
      </trkpt>
      <trkpt lat="48.76935" lon="-3.56595">
        <ele>81.6</ele>
        <time>2025-09-26T12:32:51Z</time>
      </trkpt>
      <trkpt lat="48.76936" lon="-3.5657">
        <ele>82.6</ele>
        <time>2025-09-26T12:32:55Z</time>
      </trkpt>
      <trkpt lat="48.76937" lon="-3.56564">
        <ele>82.8</ele>
        <time>2025-09-26T12:32:56Z</time>
      </trkpt>
      <trkpt lat="48.7694" lon="-3.56546">
        <ele>83.6</ele>
        <time>2025-09-26T12:32:59Z</time>
      </trkpt>
      <trkpt lat="48.76941" lon="-3.5654">
        <ele>84</ele>
        <time>2025-09-26T12:33:00Z</time>
      </trkpt>
      <trkpt lat="48.76946" lon="-3.56515">
        <ele>84.8</ele>
        <time>2025-09-26T12:33:04Z</time>
      </trkpt>
      <trkpt lat="48.76952" lon="-3.56491">
        <ele>85.8</ele>
        <time>2025-09-26T12:33:08Z</time>
      </trkpt>
      <trkpt lat="48.76955" lon="-3.56476">
        <ele>87</ele>
        <time>2025-09-26T12:33:11Z</time>
      </trkpt>
      <trkpt lat="48.76959" lon="-3.56463">
        <ele>88</ele>
        <time>2025-09-26T12:33:16Z</time>
      </trkpt>
      <trkpt lat="48.76961" lon="-3.56453">
        <ele>88</ele>
        <time>2025-09-26T12:33:22Z</time>
      </trkpt>
      <trkpt lat="48.76971" lon="-3.56436">
        <ele>87.2</ele>
        <time>2025-09-26T12:33:26Z</time>
      </trkpt>
      <trkpt lat="48.76976" lon="-3.56422">
        <ele>86.6</ele>
        <time>2025-09-26T12:33:28Z</time>
      </trkpt>
      <trkpt lat="48.76978" lon="-3.56415">
        <ele>85.8</ele>
        <time>2025-09-26T12:33:29Z</time>
      </trkpt>
      <trkpt lat="48.7698" lon="-3.56406">
        <ele>85.4</ele>
        <time>2025-09-26T12:33:30Z</time>
      </trkpt>
      <trkpt lat="48.76981" lon="-3.56398">
        <ele>84.8</ele>
        <time>2025-09-26T12:33:31Z</time>
      </trkpt>
      <trkpt lat="48.76988" lon="-3.56355">
        <ele>84</ele>
        <time>2025-09-26T12:33:36Z</time>
      </trkpt>
      <trkpt lat="48.76998" lon="-3.56306">
        <ele>85</ele>
        <time>2025-09-26T12:33:42Z</time>
      </trkpt>
      <trkpt lat="48.77012" lon="-3.5626">
        <ele>83.8</ele>
        <time>2025-09-26T12:33:48Z</time>
      </trkpt>
      <trkpt lat="48.77017" lon="-3.56245">
        <ele>83.4</ele>
        <time>2025-09-26T12:33:50Z</time>
      </trkpt>
      <trkpt lat="48.77023" lon="-3.56229">
        <ele>82.6</ele>
        <time>2025-09-26T12:33:52Z</time>
      </trkpt>
      <trkpt lat="48.7704" lon="-3.56182">
        <ele>81.6</ele>
        <time>2025-09-26T12:33:58Z</time>
      </trkpt>
      <trkpt lat="48.77043" lon="-3.56174">
        <ele>81.4</ele>
        <time>2025-09-26T12:33:59Z</time>
      </trkpt>
      <trkpt lat="48.77054" lon="-3.56143">
        <ele>80.8</ele>
        <time>2025-09-26T12:34:03Z</time>
      </trkpt>
      <trkpt lat="48.77057" lon="-3.56136">
        <ele>80.6</ele>
        <time>2025-09-26T12:34:04Z</time>
      </trkpt>
      <trkpt lat="48.77068" lon="-3.56105">
        <ele>79.8</ele>
        <time>2025-09-26T12:34:08Z</time>
      </trkpt>
      <trkpt lat="48.77071" lon="-3.56097">
        <ele>79.6</ele>
        <time>2025-09-26T12:34:09Z</time>
      </trkpt>
      <trkpt lat="48.77078" lon="-3.56083">
        <ele>79.4</ele>
        <time>2025-09-26T12:34:11Z</time>
      </trkpt>
      <trkpt lat="48.77097" lon="-3.56058">
        <ele>79.2</ele>
        <time>2025-09-26T12:34:15Z</time>
      </trkpt>
      <trkpt lat="48.7712" lon="-3.56033">
        <ele>79.4</ele>
        <time>2025-09-26T12:34:20Z</time>
      </trkpt>
      <trkpt lat="48.77125" lon="-3.56029">
        <ele>79.8</ele>
        <time>2025-09-26T12:34:21Z</time>
      </trkpt>
      <trkpt lat="48.77134" lon="-3.56019">
        <ele>80.6</ele>
        <time>2025-09-26T12:34:23Z</time>
      </trkpt>
      <trkpt lat="48.77157" lon="-3.55994">
        <ele>80.4</ele>
        <time>2025-09-26T12:34:28Z</time>
      </trkpt>
      <trkpt lat="48.77183" lon="-3.55953">
        <ele>79.8</ele>
        <time>2025-09-26T12:34:35Z</time>
      </trkpt>
      <trkpt lat="48.77188" lon="-3.55939">
        <ele>79.6</ele>
        <time>2025-09-26T12:34:37Z</time>
      </trkpt>
      <trkpt lat="48.77197" lon="-3.55908">
        <ele>79.4</ele>
        <time>2025-09-26T12:34:41Z</time>
      </trkpt>
      <trkpt lat="48.77202" lon="-3.55878">
        <ele>78.8</ele>
        <time>2025-09-26T12:34:46Z</time>
      </trkpt>
      <trkpt lat="48.772" lon="-3.55868">
        <ele>79</ele>
        <time>2025-09-26T12:34:49Z</time>
      </trkpt>
      <trkpt lat="48.77201" lon="-3.55866">
        <ele>78.8</ele>
        <time>2025-09-26T12:34:50Z</time>
      </trkpt>
      <trkpt lat="48.77201" lon="-3.55866">
        <ele>79</ele>
        <time>2025-09-26T12:34:54Z</time>
      </trkpt>
      <trkpt lat="48.77202" lon="-3.55866">
        <ele>78.6</ele>
        <time>2025-09-26T12:35:01Z</time>
      </trkpt>
      <trkpt lat="48.77206" lon="-3.55872">
        <ele>78.6</ele>
        <time>2025-09-26T12:35:04Z</time>
      </trkpt>
      <trkpt lat="48.77204" lon="-3.55893">
        <ele>78.6</ele>
        <time>2025-09-26T12:35:09Z</time>
      </trkpt>
      <trkpt lat="48.77203" lon="-3.55898">
        <ele>78.6</ele>
        <time>2025-09-26T12:35:10Z</time>
      </trkpt>
      <trkpt lat="48.77205" lon="-3.55914">
        <ele>78.4</ele>
        <time>2025-09-26T12:35:14Z</time>
      </trkpt>
      <trkpt lat="48.7721" lon="-3.55919">
        <ele>78.2</ele>
        <time>2025-09-26T12:35:18Z</time>
      </trkpt>
      <trkpt lat="48.7721" lon="-3.55919">
        <ele>77.4</ele>
        <time>2025-09-26T12:35:32Z</time>
      </trkpt>
      <trkpt lat="48.7721" lon="-3.55919">
        <ele>77.4</ele>
        <time>2025-09-26T12:35:40Z</time>
      </trkpt>
      <trkpt lat="48.7721" lon="-3.55919">
        <ele>76.8</ele>
        <time>2025-09-26T12:36:06Z</time>
      </trkpt>
      <trkpt lat="48.77213" lon="-3.55918">
        <ele>76.8</ele>
        <time>2025-09-26T12:36:10Z</time>
      </trkpt>
      <trkpt lat="48.77216" lon="-3.55917">
        <ele>76.8</ele>
        <time>2025-09-26T12:36:12Z</time>
      </trkpt>
      <trkpt lat="48.77224" lon="-3.55912">
        <ele>76.4</ele>
        <time>2025-09-26T12:36:16Z</time>
      </trkpt>
      <trkpt lat="48.77226" lon="-3.5591">
        <ele>76.2</ele>
        <time>2025-09-26T12:36:17Z</time>
      </trkpt>
      <trkpt lat="48.77241" lon="-3.55899">
        <ele>76.4</ele>
        <time>2025-09-26T12:36:22Z</time>
      </trkpt>
      <trkpt lat="48.77264" lon="-3.55878">
        <ele>76.8</ele>
        <time>2025-09-26T12:36:27Z</time>
      </trkpt>
      <trkpt lat="48.77285" lon="-3.55859">
        <ele>75.2</ele>
        <time>2025-09-26T12:36:31Z</time>
      </trkpt>
      <trkpt lat="48.77302" lon="-3.55844">
        <ele>74.4</ele>
        <time>2025-09-26T12:36:34Z</time>
      </trkpt>
      <trkpt lat="48.77308" lon="-3.5584">
        <ele>74</ele>
        <time>2025-09-26T12:36:35Z</time>
      </trkpt>
      <trkpt lat="48.77327" lon="-3.55824">
        <ele>72.8</ele>
        <time>2025-09-26T12:36:38Z</time>
      </trkpt>
      <trkpt lat="48.7734" lon="-3.55814">
        <ele>72.4</ele>
        <time>2025-09-26T12:36:40Z</time>
      </trkpt>
      <trkpt lat="48.77347" lon="-3.55809">
        <ele>71.6</ele>
        <time>2025-09-26T12:36:41Z</time>
      </trkpt>
      <trkpt lat="48.77368" lon="-3.55793">
        <ele>70.4</ele>
        <time>2025-09-26T12:36:44Z</time>
      </trkpt>
      <trkpt lat="48.77382" lon="-3.55782">
        <ele>69.8</ele>
        <time>2025-09-26T12:36:46Z</time>
      </trkpt>
      <trkpt lat="48.77403" lon="-3.55763">
        <ele>70.2</ele>
        <time>2025-09-26T12:36:50Z</time>
      </trkpt>
      <trkpt lat="48.77424" lon="-3.55739">
        <ele>71.6</ele>
        <time>2025-09-26T12:36:55Z</time>
      </trkpt>
      <trkpt lat="48.77427" lon="-3.55734">
        <ele>72</ele>
        <time>2025-09-26T12:36:56Z</time>
      </trkpt>
      <trkpt lat="48.77431" lon="-3.55728">
        <ele>72.4</ele>
        <time>2025-09-26T12:36:57Z</time>
      </trkpt>
      <trkpt lat="48.77434" lon="-3.55721">
        <ele>73</ele>
        <time>2025-09-26T12:36:58Z</time>
      </trkpt>
      <trkpt lat="48.77439" lon="-3.55707">
        <ele>73.4</ele>
        <time>2025-09-26T12:37:00Z</time>
      </trkpt>
      <trkpt lat="48.77441" lon="-3.557">
        <ele>73.6</ele>
        <time>2025-09-26T12:37:01Z</time>
      </trkpt>
      <trkpt lat="48.77445" lon="-3.55686">
        <ele>74</ele>
        <time>2025-09-26T12:37:03Z</time>
      </trkpt>
      <trkpt lat="48.77447" lon="-3.55678">
        <ele>74.2</ele>
        <time>2025-09-26T12:37:04Z</time>
      </trkpt>
      <trkpt lat="48.77449" lon="-3.55671">
        <ele>74.6</ele>
        <time>2025-09-26T12:37:05Z</time>
      </trkpt>
      <trkpt lat="48.77453" lon="-3.55649">
        <ele>74.6</ele>
        <time>2025-09-26T12:37:08Z</time>
      </trkpt>
      <trkpt lat="48.77457" lon="-3.55603">
        <ele>75</ele>
        <time>2025-09-26T12:37:15Z</time>
      </trkpt>
      <trkpt lat="48.77458" lon="-3.55597">
        <ele>75</ele>
        <time>2025-09-26T12:37:16Z</time>
      </trkpt>
      <trkpt lat="48.77462" lon="-3.55564">
        <ele>74.8</ele>
        <time>2025-09-26T12:37:21Z</time>
      </trkpt>
      <trkpt lat="48.77472" lon="-3.5552">
        <ele>74.6</ele>
        <time>2025-09-26T12:37:28Z</time>
      </trkpt>
      <trkpt lat="48.77474" lon="-3.55515">
        <ele>74.4</ele>
        <time>2025-09-26T12:37:29Z</time>
      </trkpt>
      <trkpt lat="48.77488" lon="-3.55487">
        <ele>74</ele>
        <time>2025-09-26T12:37:34Z</time>
      </trkpt>
      <trkpt lat="48.77512" lon="-3.55449">
        <ele>73.6</ele>
        <time>2025-09-26T12:37:41Z</time>
      </trkpt>
      <trkpt lat="48.77526" lon="-3.55432">
        <ele>73.2</ele>
        <time>2025-09-26T12:37:45Z</time>
      </trkpt>
      <trkpt lat="48.77547" lon="-3.55406">
        <ele>72.6</ele>
        <time>2025-09-26T12:37:51Z</time>
      </trkpt>
      <trkpt lat="48.77576" lon="-3.5536">
        <ele>72.2</ele>
        <time>2025-09-26T12:38:00Z</time>
      </trkpt>
      <trkpt lat="48.77589" lon="-3.55347">
        <ele>71.8</ele>
        <time>2025-09-26T12:38:03Z</time>
      </trkpt>
      <trkpt lat="48.77599" lon="-3.55341">
        <ele>71.4</ele>
        <time>2025-09-26T12:38:05Z</time>
      </trkpt>
      <trkpt lat="48.77611" lon="-3.55336">
        <ele>71</ele>
        <time>2025-09-26T12:38:07Z</time>
      </trkpt>
      <trkpt lat="48.77616" lon="-3.55332">
        <ele>70.8</ele>
        <time>2025-09-26T12:38:08Z</time>
      </trkpt>
      <trkpt lat="48.77627" lon="-3.55322">
        <ele>70.2</ele>
        <time>2025-09-26T12:38:10Z</time>
      </trkpt>
      <trkpt lat="48.77643" lon="-3.55301">
        <ele>69.8</ele>
        <time>2025-09-26T12:38:13Z</time>
      </trkpt>
      <trkpt lat="48.77647" lon="-3.55294">
        <ele>69.6</ele>
        <time>2025-09-26T12:38:14Z</time>
      </trkpt>
      <trkpt lat="48.77651" lon="-3.55287">
        <ele>69.6</ele>
        <time>2025-09-26T12:38:15Z</time>
      </trkpt>
      <trkpt lat="48.77673" lon="-3.55258">
        <ele>68.8</ele>
        <time>2025-09-26T12:38:20Z</time>
      </trkpt>
      <trkpt lat="48.77677" lon="-3.55253">
        <ele>68.8</ele>
        <time>2025-09-26T12:38:21Z</time>
      </trkpt>
      <trkpt lat="48.77712" lon="-3.55215">
        <ele>68.4</ele>
        <time>2025-09-26T12:38:29Z</time>
      </trkpt>
      <trkpt lat="48.77752" lon="-3.55168">
        <ele>68.6</ele>
        <time>2025-09-26T12:38:38Z</time>
      </trkpt>
      <trkpt lat="48.77789" lon="-3.55121">
        <ele>69.4</ele>
        <time>2025-09-26T12:38:47Z</time>
      </trkpt>
      <trkpt lat="48.77831" lon="-3.55072">
        <ele>69.4</ele>
        <time>2025-09-26T12:38:57Z</time>
      </trkpt>
      <trkpt lat="48.77865" lon="-3.55031">
        <ele>69</ele>
        <time>2025-09-26T12:39:05Z</time>
      </trkpt>
      <trkpt lat="48.77877" lon="-3.55005">
        <ele>68.6</ele>
        <time>2025-09-26T12:39:09Z</time>
      </trkpt>
      <trkpt lat="48.77883" lon="-3.54991">
        <ele>68.6</ele>
        <time>2025-09-26T12:39:11Z</time>
      </trkpt>
      <trkpt lat="48.779" lon="-3.54951">
        <ele>68.6</ele>
        <time>2025-09-26T12:39:17Z</time>
      </trkpt>
      <trkpt lat="48.77922" lon="-3.54904">
        <ele>68.4</ele>
        <time>2025-09-26T12:39:24Z</time>
      </trkpt>
      <trkpt lat="48.77936" lon="-3.54881">
        <ele>68</ele>
        <time>2025-09-26T12:39:28Z</time>
      </trkpt>
      <trkpt lat="48.77948" lon="-3.54864">
        <ele>68</ele>
        <time>2025-09-26T12:39:31Z</time>
      </trkpt>
      <trkpt lat="48.77958" lon="-3.54848">
        <ele>67.8</ele>
        <time>2025-09-26T12:39:34Z</time>
      </trkpt>
      <trkpt lat="48.77973" lon="-3.5482">
        <ele>67.4</ele>
        <time>2025-09-26T12:39:38Z</time>
      </trkpt>
      <trkpt lat="48.77984" lon="-3.54797">
        <ele>66.8</ele>
        <time>2025-09-26T12:39:41Z</time>
      </trkpt>
      <trkpt lat="48.77991" lon="-3.54779">
        <ele>65.6</ele>
        <time>2025-09-26T12:39:43Z</time>
      </trkpt>
      <trkpt lat="48.77995" lon="-3.5477">
        <ele>65.6</ele>
        <time>2025-09-26T12:39:44Z</time>
      </trkpt>
      <trkpt lat="48.78008" lon="-3.54755">
        <ele>65</ele>
        <time>2025-09-26T12:39:46Z</time>
      </trkpt>
      <trkpt lat="48.78021" lon="-3.54744">
        <ele>64.6</ele>
        <time>2025-09-26T12:39:48Z</time>
      </trkpt>
      <trkpt lat="48.78042" lon="-3.54728">
        <ele>63</ele>
        <time>2025-09-26T12:39:51Z</time>
      </trkpt>
      <trkpt lat="48.7805" lon="-3.54722">
        <ele>62.2</ele>
        <time>2025-09-26T12:39:52Z</time>
      </trkpt>
      <trkpt lat="48.78067" lon="-3.54715">
        <ele>61.6</ele>
        <time>2025-09-26T12:39:54Z</time>
      </trkpt>
      <trkpt lat="48.78076" lon="-3.54712">
        <ele>60.8</ele>
        <time>2025-09-26T12:39:55Z</time>
      </trkpt>
      <trkpt lat="48.78085" lon="-3.54709">
        <ele>60.4</ele>
        <time>2025-09-26T12:39:56Z</time>
      </trkpt>
      <trkpt lat="48.78095" lon="-3.54705">
        <ele>58.8</ele>
        <time>2025-09-26T12:39:57Z</time>
      </trkpt>
      <trkpt lat="48.78112" lon="-3.54697">
        <ele>58</ele>
        <time>2025-09-26T12:39:59Z</time>
      </trkpt>
      <trkpt lat="48.78118" lon="-3.5469">
        <ele>57.2</ele>
        <time>2025-09-26T12:40:00Z</time>
      </trkpt>
      <trkpt lat="48.78122" lon="-3.54681">
        <ele>56.8</ele>
        <time>2025-09-26T12:40:01Z</time>
      </trkpt>
      <trkpt lat="48.78126" lon="-3.54662">
        <ele>56.6</ele>
        <time>2025-09-26T12:40:03Z</time>
      </trkpt>
      <trkpt lat="48.78127" lon="-3.54652">
        <ele>56.4</ele>
        <time>2025-09-26T12:40:04Z</time>
      </trkpt>
      <trkpt lat="48.78127" lon="-3.54632">
        <ele>56.4</ele>
        <time>2025-09-26T12:40:06Z</time>
      </trkpt>
      <trkpt lat="48.78122" lon="-3.54605">
        <ele>56.4</ele>
        <time>2025-09-26T12:40:09Z</time>
      </trkpt>
      <trkpt lat="48.78119" lon="-3.54588">
        <ele>56.6</ele>
        <time>2025-09-26T12:40:11Z</time>
      </trkpt>
      <trkpt lat="48.78114" lon="-3.54574">
        <ele>56.6</ele>
        <time>2025-09-26T12:40:13Z</time>
      </trkpt>
      <trkpt lat="48.7811" lon="-3.5456">
        <ele>56.6</ele>
        <time>2025-09-26T12:40:15Z</time>
      </trkpt>
      <trkpt lat="48.7811" lon="-3.54548">
        <ele>56</ele>
        <time>2025-09-26T12:40:17Z</time>
      </trkpt>
      <trkpt lat="48.78112" lon="-3.54542">
        <ele>55.6</ele>
        <time>2025-09-26T12:40:18Z</time>
      </trkpt>
      <trkpt lat="48.78118" lon="-3.54535">
        <ele>55.4</ele>
        <time>2025-09-26T12:40:20Z</time>
      </trkpt>
      <trkpt lat="48.78134" lon="-3.54527">
        <ele>54.8</ele>
        <time>2025-09-26T12:40:23Z</time>
      </trkpt>
      <trkpt lat="48.7814" lon="-3.54525">
        <ele>54.6</ele>
        <time>2025-09-26T12:40:24Z</time>
      </trkpt>
      <trkpt lat="48.78146" lon="-3.54524">
        <ele>54.2</ele>
        <time>2025-09-26T12:40:25Z</time>
      </trkpt>
      <trkpt lat="48.7816" lon="-3.54524">
        <ele>53.6</ele>
        <time>2025-09-26T12:40:27Z</time>
      </trkpt>
      <trkpt lat="48.78168" lon="-3.54525">
        <ele>53.4</ele>
        <time>2025-09-26T12:40:28Z</time>
      </trkpt>
      <trkpt lat="48.78176" lon="-3.54526">
        <ele>52.2</ele>
        <time>2025-09-26T12:40:29Z</time>
      </trkpt>
      <trkpt lat="48.78192" lon="-3.54528">
        <ele>51.4</ele>
        <time>2025-09-26T12:40:31Z</time>
      </trkpt>
      <trkpt lat="48.78208" lon="-3.54529">
        <ele>51</ele>
        <time>2025-09-26T12:40:33Z</time>
      </trkpt>
      <trkpt lat="48.78224" lon="-3.5453">
        <ele>50.6</ele>
        <time>2025-09-26T12:40:35Z</time>
      </trkpt>
      <trkpt lat="48.78254" lon="-3.54527">
        <ele>49.8</ele>
        <time>2025-09-26T12:40:39Z</time>
      </trkpt>
      <trkpt lat="48.78285" lon="-3.54521">
        <ele>48.6</ele>
        <time>2025-09-26T12:40:43Z</time>
      </trkpt>
      <trkpt lat="48.78311" lon="-3.54518">
        <ele>47</ele>
        <time>2025-09-26T12:40:46Z</time>
      </trkpt>
      <trkpt lat="48.78329" lon="-3.54516">
        <ele>45.4</ele>
        <time>2025-09-26T12:40:48Z</time>
      </trkpt>
      <trkpt lat="48.78337" lon="-3.54514">
        <ele>44.8</ele>
        <time>2025-09-26T12:40:49Z</time>
      </trkpt>
      <trkpt lat="48.78345" lon="-3.54512">
        <ele>44</ele>
        <time>2025-09-26T12:40:50Z</time>
      </trkpt>
      <trkpt lat="48.78367" lon="-3.54506">
        <ele>42.2</ele>
        <time>2025-09-26T12:40:53Z</time>
      </trkpt>
      <trkpt lat="48.78373" lon="-3.54505">
        <ele>41.4</ele>
        <time>2025-09-26T12:40:54Z</time>
      </trkpt>
      <trkpt lat="48.78379" lon="-3.54505">
        <ele>40.8</ele>
        <time>2025-09-26T12:40:55Z</time>
      </trkpt>
      <trkpt lat="48.7839" lon="-3.54501">
        <ele>39.8</ele>
        <time>2025-09-26T12:40:57Z</time>
      </trkpt>
      <trkpt lat="48.78394" lon="-3.54497">
        <ele>39.4</ele>
        <time>2025-09-26T12:40:58Z</time>
      </trkpt>
      <trkpt lat="48.78398" lon="-3.5449">
        <ele>38.6</ele>
        <time>2025-09-26T12:40:59Z</time>
      </trkpt>
      <trkpt lat="48.78403" lon="-3.54474">
        <ele>37.2</ele>
        <time>2025-09-26T12:41:01Z</time>
      </trkpt>
      <trkpt lat="48.78406" lon="-3.54456">
        <ele>36.6</ele>
        <time>2025-09-26T12:41:03Z</time>
      </trkpt>
      <trkpt lat="48.78406" lon="-3.54438">
        <ele>36.2</ele>
        <time>2025-09-26T12:41:05Z</time>
      </trkpt>
      <trkpt lat="48.78394" lon="-3.54386">
        <ele>36</ele>
        <time>2025-09-26T12:41:11Z</time>
      </trkpt>
      <trkpt lat="48.78386" lon="-3.54355">
        <ele>35.8</ele>
        <time>2025-09-26T12:41:15Z</time>
      </trkpt>
      <trkpt lat="48.78386" lon="-3.54335">
        <ele>35.4</ele>
        <time>2025-09-26T12:41:17Z</time>
      </trkpt>
      <trkpt lat="48.78386" lon="-3.54325">
        <ele>35.4</ele>
        <time>2025-09-26T12:41:18Z</time>
      </trkpt>
      <trkpt lat="48.78388" lon="-3.54306">
        <ele>35</ele>
        <time>2025-09-26T12:41:20Z</time>
      </trkpt>
      <trkpt lat="48.78389" lon="-3.54276">
        <ele>34.2</ele>
        <time>2025-09-26T12:41:23Z</time>
      </trkpt>
      <trkpt lat="48.78389" lon="-3.54256">
        <ele>34</ele>
        <time>2025-09-26T12:41:25Z</time>
      </trkpt>
      <trkpt lat="48.78389" lon="-3.54226">
        <ele>33.6</ele>
        <time>2025-09-26T12:41:28Z</time>
      </trkpt>
      <trkpt lat="48.7839" lon="-3.54206">
        <ele>32.8</ele>
        <time>2025-09-26T12:41:30Z</time>
      </trkpt>
      <trkpt lat="48.7839" lon="-3.54187">
        <ele>32.6</ele>
        <time>2025-09-26T12:41:32Z</time>
      </trkpt>
      <trkpt lat="48.78389" lon="-3.54117">
        <ele>33.2</ele>
        <time>2025-09-26T12:41:40Z</time>
      </trkpt>
      <trkpt lat="48.78388" lon="-3.54108">
        <ele>33.6</ele>
        <time>2025-09-26T12:41:41Z</time>
      </trkpt>
      <trkpt lat="48.78381" lon="-3.54075">
        <ele>33.6</ele>
        <time>2025-09-26T12:41:45Z</time>
      </trkpt>
      <trkpt lat="48.78364" lon="-3.54014">
        <ele>32</ele>
        <time>2025-09-26T12:41:51Z</time>
      </trkpt>
      <trkpt lat="48.78361" lon="-3.54002">
        <ele>31.2</ele>
        <time>2025-09-26T12:41:52Z</time>
      </trkpt>
      <trkpt lat="48.78358" lon="-3.5399">
        <ele>30.8</ele>
        <time>2025-09-26T12:41:53Z</time>
      </trkpt>
      <trkpt lat="48.78352" lon="-3.53952">
        <ele>30</ele>
        <time>2025-09-26T12:41:56Z</time>
      </trkpt>
      <trkpt lat="48.78349" lon="-3.53887">
        <ele>28.4</ele>
        <time>2025-09-26T12:42:01Z</time>
      </trkpt>
      <trkpt lat="48.78349" lon="-3.53874">
        <ele>28</ele>
        <time>2025-09-26T12:42:02Z</time>
      </trkpt>
      <trkpt lat="48.78348" lon="-3.53836">
        <ele>27.2</ele>
        <time>2025-09-26T12:42:05Z</time>
      </trkpt>
      <trkpt lat="48.78349" lon="-3.53822">
        <ele>27.2</ele>
        <time>2025-09-26T12:42:06Z</time>
      </trkpt>
      <trkpt lat="48.78352" lon="-3.53795">
        <ele>26.2</ele>
        <time>2025-09-26T12:42:08Z</time>
      </trkpt>
      <trkpt lat="48.7836" lon="-3.53755">
        <ele>25</ele>
        <time>2025-09-26T12:42:11Z</time>
      </trkpt>
      <trkpt lat="48.78368" lon="-3.53717">
        <ele>24.4</ele>
        <time>2025-09-26T12:42:14Z</time>
      </trkpt>
      <trkpt lat="48.78369" lon="-3.53704">
        <ele>24</ele>
        <time>2025-09-26T12:42:15Z</time>
      </trkpt>
      <trkpt lat="48.78372" lon="-3.53657">
        <ele>23.6</ele>
        <time>2025-09-26T12:42:19Z</time>
      </trkpt>
      <trkpt lat="48.78368" lon="-3.53608">
        <ele>24.2</ele>
        <time>2025-09-26T12:42:24Z</time>
      </trkpt>
      <trkpt lat="48.78366" lon="-3.53582">
        <ele>24.8</ele>
        <time>2025-09-26T12:42:27Z</time>
      </trkpt>
      <trkpt lat="48.78363" lon="-3.53565">
        <ele>25.2</ele>
        <time>2025-09-26T12:42:29Z</time>
      </trkpt>
      <trkpt lat="48.78361" lon="-3.53556">
        <ele>25.4</ele>
        <time>2025-09-26T12:42:30Z</time>
      </trkpt>
      <trkpt lat="48.78352" lon="-3.53512">
        <ele>26.4</ele>
        <time>2025-09-26T12:42:35Z</time>
      </trkpt>
      <trkpt lat="48.78346" lon="-3.53486">
        <ele>26.8</ele>
        <time>2025-09-26T12:42:38Z</time>
      </trkpt>
      <trkpt lat="48.78339" lon="-3.53442">
        <ele>27.4</ele>
        <time>2025-09-26T12:42:43Z</time>
      </trkpt>
      <trkpt lat="48.78336" lon="-3.53416">
        <ele>27.4</ele>
        <time>2025-09-26T12:42:46Z</time>
      </trkpt>
      <trkpt lat="48.78334" lon="-3.5333">
        <ele>27</ele>
        <time>2025-09-26T12:42:56Z</time>
      </trkpt>
      <trkpt lat="48.78326" lon="-3.5327">
        <ele>26.6</ele>
        <time>2025-09-26T12:43:03Z</time>
      </trkpt>
      <trkpt lat="48.7832" lon="-3.53223">
        <ele>26.6</ele>
        <time>2025-09-26T12:43:09Z</time>
      </trkpt>
      <trkpt lat="48.78319" lon="-3.53217">
        <ele>26.6</ele>
        <time>2025-09-26T12:43:10Z</time>
      </trkpt>
      <trkpt lat="48.78318" lon="-3.53211">
        <ele>26.6</ele>
        <time>2025-09-26T12:43:11Z</time>
      </trkpt>
      <trkpt lat="48.78319" lon="-3.532">
        <ele>26.8</ele>
        <time>2025-09-26T12:43:14Z</time>
      </trkpt>
      <trkpt lat="48.78319" lon="-3.53198">
        <ele>26.8</ele>
        <time>2025-09-26T12:43:15Z</time>
      </trkpt>
      <trkpt lat="48.78322" lon="-3.5319">
        <ele>27</ele>
        <time>2025-09-26T12:43:18Z</time>
      </trkpt>
      <trkpt lat="48.78327" lon="-3.53185">
        <ele>27</ele>
        <time>2025-09-26T12:43:20Z</time>
      </trkpt>
      <trkpt lat="48.78339" lon="-3.53171">
        <ele>26.6</ele>
        <time>2025-09-26T12:43:24Z</time>
      </trkpt>
      <trkpt lat="48.78342" lon="-3.53167">
        <ele>26.4</ele>
        <time>2025-09-26T12:43:25Z</time>
      </trkpt>
      <trkpt lat="48.78357" lon="-3.53147">
        <ele>25.2</ele>
        <time>2025-09-26T12:43:29Z</time>
      </trkpt>
      <trkpt lat="48.78361" lon="-3.53142">
        <ele>25.2</ele>
        <time>2025-09-26T12:43:30Z</time>
      </trkpt>
      <trkpt lat="48.78375" lon="-3.53128">
        <ele>24.6</ele>
        <time>2025-09-26T12:43:33Z</time>
      </trkpt>
      <trkpt lat="48.78388" lon="-3.53118">
        <ele>24.4</ele>
        <time>2025-09-26T12:43:36Z</time>
      </trkpt>
      <trkpt lat="48.78399" lon="-3.53115">
        <ele>24.2</ele>
        <time>2025-09-26T12:43:38Z</time>
      </trkpt>
      <trkpt lat="48.78409" lon="-3.53114">
        <ele>24.2</ele>
        <time>2025-09-26T12:43:40Z</time>
      </trkpt>
      <trkpt lat="48.78422" lon="-3.53117">
        <ele>24.2</ele>
        <time>2025-09-26T12:43:43Z</time>
      </trkpt>
      <trkpt lat="48.7843" lon="-3.53121">
        <ele>24.4</ele>
        <time>2025-09-26T12:43:45Z</time>
      </trkpt>
      <trkpt lat="48.78448" lon="-3.53141">
        <ele>25.4</ele>
        <time>2025-09-26T12:43:50Z</time>
      </trkpt>
      <trkpt lat="48.78455" lon="-3.53151">
        <ele>25.8</ele>
        <time>2025-09-26T12:43:52Z</time>
      </trkpt>
      <trkpt lat="48.78463" lon="-3.53168">
        <ele>27</ele>
        <time>2025-09-26T12:43:55Z</time>
      </trkpt>
      <trkpt lat="48.78468" lon="-3.53187">
        <ele>28</ele>
        <time>2025-09-26T12:43:58Z</time>
      </trkpt>
      <trkpt lat="48.78473" lon="-3.53206">
        <ele>29.2</ele>
        <time>2025-09-26T12:44:01Z</time>
      </trkpt>
      <trkpt lat="48.78474" lon="-3.53212">
        <ele>29.4</ele>
        <time>2025-09-26T12:44:02Z</time>
      </trkpt>
      <trkpt lat="48.78475" lon="-3.53224">
        <ele>30.2</ele>
        <time>2025-09-26T12:44:04Z</time>
      </trkpt>
      <trkpt lat="48.78476" lon="-3.5325">
        <ele>31.2</ele>
        <time>2025-09-26T12:44:08Z</time>
      </trkpt>
      <trkpt lat="48.78475" lon="-3.53256">
        <ele>31.4</ele>
        <time>2025-09-26T12:44:09Z</time>
      </trkpt>
      <trkpt lat="48.78475" lon="-3.53268">
        <ele>31.6</ele>
        <time>2025-09-26T12:44:11Z</time>
      </trkpt>
      <trkpt lat="48.78475" lon="-3.53281">
        <ele>31.4</ele>
        <time>2025-09-26T12:44:13Z</time>
      </trkpt>
      <trkpt lat="48.78476" lon="-3.53293">
        <ele>31.4</ele>
        <time>2025-09-26T12:44:15Z</time>
      </trkpt>
      <trkpt lat="48.78477" lon="-3.53306">
        <ele>31</ele>
        <time>2025-09-26T12:44:17Z</time>
      </trkpt>
      <trkpt lat="48.78484" lon="-3.5333">
        <ele>30.8</ele>
        <time>2025-09-26T12:44:21Z</time>
      </trkpt>
      <trkpt lat="48.78487" lon="-3.53337">
        <ele>30.8</ele>
        <time>2025-09-26T12:44:22Z</time>
      </trkpt>
      <trkpt lat="48.7849" lon="-3.53343">
        <ele>30.8</ele>
        <time>2025-09-26T12:44:23Z</time>
      </trkpt>
      <trkpt lat="48.78506" lon="-3.53376">
        <ele>30.8</ele>
        <time>2025-09-26T12:44:28Z</time>
      </trkpt>
      <trkpt lat="48.78521" lon="-3.53409">
        <ele>30.8</ele>
        <time>2025-09-26T12:44:33Z</time>
      </trkpt>
      <trkpt lat="48.78526" lon="-3.53426">
        <ele>30.6</ele>
        <time>2025-09-26T12:44:35Z</time>
      </trkpt>
      <trkpt lat="48.78529" lon="-3.53435">
        <ele>30.4</ele>
        <time>2025-09-26T12:44:36Z</time>
      </trkpt>
      <trkpt lat="48.78537" lon="-3.53454">
        <ele>29.6</ele>
        <time>2025-09-26T12:44:38Z</time>
      </trkpt>
      <trkpt lat="48.78541" lon="-3.53464">
        <ele>29.2</ele>
        <time>2025-09-26T12:44:39Z</time>
      </trkpt>
      <trkpt lat="48.78546" lon="-3.53475">
        <ele>28.6</ele>
        <time>2025-09-26T12:44:40Z</time>
      </trkpt>
      <trkpt lat="48.78564" lon="-3.53516">
        <ele>27.6</ele>
        <time>2025-09-26T12:44:44Z</time>
      </trkpt>
      <trkpt lat="48.78576" lon="-3.53546">
        <ele>26.8</ele>
        <time>2025-09-26T12:44:47Z</time>
      </trkpt>
      <trkpt lat="48.78594" lon="-3.53593">
        <ele>26.6</ele>
        <time>2025-09-26T12:44:52Z</time>
      </trkpt>
      <trkpt lat="48.78597" lon="-3.53602">
        <ele>26.6</ele>
        <time>2025-09-26T12:44:53Z</time>
      </trkpt>
      <trkpt lat="48.78602" lon="-3.53619">
        <ele>26.6</ele>
        <time>2025-09-26T12:44:55Z</time>
      </trkpt>
      <trkpt lat="48.78603" lon="-3.53629">
        <ele>26.8</ele>
        <time>2025-09-26T12:44:56Z</time>
      </trkpt>
      <trkpt lat="48.78607" lon="-3.53656">
        <ele>26.8</ele>
        <time>2025-09-26T12:44:59Z</time>
      </trkpt>
      <trkpt lat="48.78609" lon="-3.53665">
        <ele>27</ele>
        <time>2025-09-26T12:45:00Z</time>
      </trkpt>
      <trkpt lat="48.78612" lon="-3.53683">
        <ele>27.2</ele>
        <time>2025-09-26T12:45:02Z</time>
      </trkpt>
      <trkpt lat="48.78612" lon="-3.53691">
        <ele>27.6</ele>
        <time>2025-09-26T12:45:03Z</time>
      </trkpt>
      <trkpt lat="48.78615" lon="-3.53718">
        <ele>28.6</ele>
        <time>2025-09-26T12:45:06Z</time>
      </trkpt>
      <trkpt lat="48.78616" lon="-3.53726">
        <ele>29</ele>
        <time>2025-09-26T12:45:07Z</time>
      </trkpt>
      <trkpt lat="48.78619" lon="-3.53751">
        <ele>29.8</ele>
        <time>2025-09-26T12:45:10Z</time>
      </trkpt>
      <trkpt lat="48.78621" lon="-3.53759">
        <ele>30</ele>
        <time>2025-09-26T12:45:11Z</time>
      </trkpt>
      <trkpt lat="48.78625" lon="-3.53783">
        <ele>30.4</ele>
        <time>2025-09-26T12:45:14Z</time>
      </trkpt>
      <trkpt lat="48.78629" lon="-3.53798">
        <ele>30.8</ele>
        <time>2025-09-26T12:45:16Z</time>
      </trkpt>
      <trkpt lat="48.78632" lon="-3.53813">
        <ele>31</ele>
        <time>2025-09-26T12:45:18Z</time>
      </trkpt>
      <trkpt lat="48.78634" lon="-3.5382">
        <ele>31.4</ele>
        <time>2025-09-26T12:45:19Z</time>
      </trkpt>
      <trkpt lat="48.78637" lon="-3.53827">
        <ele>31.8</ele>
        <time>2025-09-26T12:45:20Z</time>
      </trkpt>
      <trkpt lat="48.78641" lon="-3.5384">
        <ele>32.6</ele>
        <time>2025-09-26T12:45:22Z</time>
      </trkpt>
      <trkpt lat="48.78646" lon="-3.53852">
        <ele>33</ele>
        <time>2025-09-26T12:45:24Z</time>
      </trkpt>
      <trkpt lat="48.78655" lon="-3.53879">
        <ele>34</ele>
        <time>2025-09-26T12:45:28Z</time>
      </trkpt>
      <trkpt lat="48.78662" lon="-3.53899">
        <ele>34.6</ele>
        <time>2025-09-26T12:45:31Z</time>
      </trkpt>
      <trkpt lat="48.78669" lon="-3.53918">
        <ele>35.2</ele>
        <time>2025-09-26T12:45:34Z</time>
      </trkpt>
      <trkpt lat="48.78683" lon="-3.53959">
        <ele>36.2</ele>
        <time>2025-09-26T12:45:40Z</time>
      </trkpt>
      <trkpt lat="48.78698" lon="-3.54003">
        <ele>36.8</ele>
        <time>2025-09-26T12:45:47Z</time>
      </trkpt>
      <trkpt lat="48.787" lon="-3.54008">
        <ele>37</ele>
        <time>2025-09-26T12:45:48Z</time>
      </trkpt>
      <trkpt lat="48.78706" lon="-3.54024">
        <ele>37.4</ele>
        <time>2025-09-26T12:45:51Z</time>
      </trkpt>
      <trkpt lat="48.78713" lon="-3.54032">
        <ele>37.6</ele>
        <time>2025-09-26T12:45:53Z</time>
      </trkpt>
      <trkpt lat="48.78744" lon="-3.54063">
        <ele>38.2</ele>
        <time>2025-09-26T12:46:01Z</time>
      </trkpt>
      <trkpt lat="48.7876" lon="-3.54077">
        <ele>38.2</ele>
        <time>2025-09-26T12:46:05Z</time>
      </trkpt>
      <trkpt lat="48.78768" lon="-3.54087">
        <ele>38</ele>
        <time>2025-09-26T12:46:07Z</time>
      </trkpt>
      <trkpt lat="48.78771" lon="-3.54092">
        <ele>37.8</ele>
        <time>2025-09-26T12:46:08Z</time>
      </trkpt>
      <trkpt lat="48.78789" lon="-3.54134">
        <ele>37.2</ele>
        <time>2025-09-26T12:46:14Z</time>
      </trkpt>
      <trkpt lat="48.78798" lon="-3.54158">
        <ele>37</ele>
        <time>2025-09-26T12:46:17Z</time>
      </trkpt>
      <trkpt lat="48.78808" lon="-3.5419">
        <ele>37</ele>
        <time>2025-09-26T12:46:21Z</time>
      </trkpt>
      <trkpt lat="48.78822" lon="-3.54252">
        <ele>37.2</ele>
        <time>2025-09-26T12:46:29Z</time>
      </trkpt>
      <trkpt lat="48.78833" lon="-3.543">
        <ele>36.2</ele>
        <time>2025-09-26T12:46:34Z</time>
      </trkpt>
      <trkpt lat="48.78836" lon="-3.5431">
        <ele>35.8</ele>
        <time>2025-09-26T12:46:35Z</time>
      </trkpt>
      <trkpt lat="48.78845" lon="-3.5433">
        <ele>35</ele>
        <time>2025-09-26T12:46:37Z</time>
      </trkpt>
      <trkpt lat="48.78855" lon="-3.54352">
        <ele>33.8</ele>
        <time>2025-09-26T12:46:39Z</time>
      </trkpt>
      <trkpt lat="48.78859" lon="-3.54376">
        <ele>33.4</ele>
        <time>2025-09-26T12:46:41Z</time>
      </trkpt>
      <trkpt lat="48.78859" lon="-3.54388">
        <ele>33.2</ele>
        <time>2025-09-26T12:46:42Z</time>
      </trkpt>
      <trkpt lat="48.78859" lon="-3.5442">
        <ele>33</ele>
        <time>2025-09-26T12:46:45Z</time>
      </trkpt>
      <trkpt lat="48.78861" lon="-3.54461">
        <ele>33.4</ele>
        <time>2025-09-26T12:46:50Z</time>
      </trkpt>
      <trkpt lat="48.78862" lon="-3.54467">
        <ele>33.4</ele>
        <time>2025-09-26T12:46:51Z</time>
      </trkpt>
      <trkpt lat="48.78867" lon="-3.54476">
        <ele>33.8</ele>
        <time>2025-09-26T12:46:53Z</time>
      </trkpt>
      <trkpt lat="48.78877" lon="-3.54474">
        <ele>34.8</ele>
        <time>2025-09-26T12:46:56Z</time>
      </trkpt>
      <trkpt lat="48.7888" lon="-3.54474">
        <ele>35.2</ele>
        <time>2025-09-26T12:46:57Z</time>
      </trkpt>
      <trkpt lat="48.78886" lon="-3.54481">
        <ele>36.4</ele>
        <time>2025-09-26T12:46:59Z</time>
      </trkpt>
      <trkpt lat="48.78888" lon="-3.54485">
        <ele>37.4</ele>
        <time>2025-09-26T12:47:00Z</time>
      </trkpt>
      <trkpt lat="48.78894" lon="-3.54499">
        <ele>38.4</ele>
        <time>2025-09-26T12:47:03Z</time>
      </trkpt>
      <trkpt lat="48.78895" lon="-3.54505">
        <ele>38.6</ele>
        <time>2025-09-26T12:47:04Z</time>
      </trkpt>
      <trkpt lat="48.789" lon="-3.54518">
        <ele>39.6</ele>
        <time>2025-09-26T12:47:07Z</time>
      </trkpt>
      <trkpt lat="48.78905" lon="-3.54532">
        <ele>41.2</ele>
        <time>2025-09-26T12:47:10Z</time>
      </trkpt>
      <trkpt lat="48.78907" lon="-3.54536">
        <ele>42.2</ele>
        <time>2025-09-26T12:47:11Z</time>
      </trkpt>
      <trkpt lat="48.78916" lon="-3.54553">
        <ele>43.6</ele>
        <time>2025-09-26T12:47:15Z</time>
      </trkpt>
      <trkpt lat="48.78918" lon="-3.54557">
        <ele>43.8</ele>
        <time>2025-09-26T12:47:16Z</time>
      </trkpt>
      <trkpt lat="48.78933" lon="-3.54572">
        <ele>44.6</ele>
        <time>2025-09-26T12:47:21Z</time>
      </trkpt>
      <trkpt lat="48.78936" lon="-3.54574">
        <ele>44.6</ele>
        <time>2025-09-26T12:47:22Z</time>
      </trkpt>
      <trkpt lat="48.78939" lon="-3.54577">
        <ele>44.8</ele>
        <time>2025-09-26T12:47:23Z</time>
      </trkpt>
      <trkpt lat="48.78954" lon="-3.54586">
        <ele>46</ele>
        <time>2025-09-26T12:47:28Z</time>
      </trkpt>
      <trkpt lat="48.78957" lon="-3.54588">
        <ele>46</ele>
        <time>2025-09-26T12:47:29Z</time>
      </trkpt>
      <trkpt lat="48.78967" lon="-3.54594">
        <ele>47.4</ele>
        <time>2025-09-26T12:47:32Z</time>
      </trkpt>
      <trkpt lat="48.7898" lon="-3.54603">
        <ele>48.8</ele>
        <time>2025-09-26T12:47:36Z</time>
      </trkpt>
      <trkpt lat="48.7899" lon="-3.5461">
        <ele>49.6</ele>
        <time>2025-09-26T12:47:39Z</time>
      </trkpt>
      <trkpt lat="48.78993" lon="-3.54612">
        <ele>50</ele>
        <time>2025-09-26T12:47:40Z</time>
      </trkpt>
      <trkpt lat="48.79021" lon="-3.54631">
        <ele>50.4</ele>
        <time>2025-09-26T12:47:48Z</time>
      </trkpt>
      <trkpt lat="48.79045" lon="-3.54639">
        <ele>50.2</ele>
        <time>2025-09-26T12:47:54Z</time>
      </trkpt>
      <trkpt lat="48.79071" lon="-3.54627">
        <ele>49</ele>
        <time>2025-09-26T12:48:01Z</time>
      </trkpt>
      <trkpt lat="48.79088" lon="-3.54622">
        <ele>48.8</ele>
        <time>2025-09-26T12:48:05Z</time>
      </trkpt>
      <trkpt lat="48.79098" lon="-3.54625">
        <ele>48.2</ele>
        <time>2025-09-26T12:48:07Z</time>
      </trkpt>
      <trkpt lat="48.79104" lon="-3.54629">
        <ele>47.8</ele>
        <time>2025-09-26T12:48:08Z</time>
      </trkpt>
      <trkpt lat="48.79109" lon="-3.54634">
        <ele>47.8</ele>
        <time>2025-09-26T12:48:09Z</time>
      </trkpt>
      <trkpt lat="48.79118" lon="-3.54649">
        <ele>47.2</ele>
        <time>2025-09-26T12:48:11Z</time>
      </trkpt>
      <trkpt lat="48.79123" lon="-3.54657">
        <ele>46.6</ele>
        <time>2025-09-26T12:48:12Z</time>
      </trkpt>
      <trkpt lat="48.79128" lon="-3.54667">
        <ele>45.6</ele>
        <time>2025-09-26T12:48:13Z</time>
      </trkpt>
      <trkpt lat="48.79139" lon="-3.54684">
        <ele>45</ele>
        <time>2025-09-26T12:48:15Z</time>
      </trkpt>
      <trkpt lat="48.79153" lon="-3.54698">
        <ele>44.2</ele>
        <time>2025-09-26T12:48:17Z</time>
      </trkpt>
      <trkpt lat="48.79164" lon="-3.54705">
        <ele>43.4</ele>
        <time>2025-09-26T12:48:19Z</time>
      </trkpt>
      <trkpt lat="48.79168" lon="-3.54707">
        <ele>42.8</ele>
        <time>2025-09-26T12:48:20Z</time>
      </trkpt>
      <trkpt lat="48.79174" lon="-3.54706">
        <ele>42.2</ele>
        <time>2025-09-26T12:48:22Z</time>
      </trkpt>
      <trkpt lat="48.7918" lon="-3.54696">
        <ele>41.6</ele>
        <time>2025-09-26T12:48:25Z</time>
      </trkpt>
      <trkpt lat="48.79184" lon="-3.54688">
        <ele>41.6</ele>
        <time>2025-09-26T12:48:27Z</time>
      </trkpt>
      <trkpt lat="48.79196" lon="-3.54661">
        <ele>42</ele>
        <time>2025-09-26T12:48:33Z</time>
      </trkpt>
      <trkpt lat="48.79202" lon="-3.54626">
        <ele>42.8</ele>
        <time>2025-09-26T12:48:39Z</time>
      </trkpt>
      <trkpt lat="48.79203" lon="-3.5462">
        <ele>43.2</ele>
        <time>2025-09-26T12:48:40Z</time>
      </trkpt>
      <trkpt lat="48.79205" lon="-3.54604">
        <ele>44</ele>
        <time>2025-09-26T12:48:43Z</time>
      </trkpt>
      <trkpt lat="48.79208" lon="-3.54592">
        <ele>45.6</ele>
        <time>2025-09-26T12:48:45Z</time>
      </trkpt>
      <trkpt lat="48.79214" lon="-3.54555">
        <ele>46.8</ele>
        <time>2025-09-26T12:48:51Z</time>
      </trkpt>
      <trkpt lat="48.79215" lon="-3.54543">
        <ele>47</ele>
        <time>2025-09-26T12:48:53Z</time>
      </trkpt>
      <trkpt lat="48.7922" lon="-3.54519">
        <ele>47.2</ele>
        <time>2025-09-26T12:48:57Z</time>
      </trkpt>
      <trkpt lat="48.79224" lon="-3.54502">
        <ele>47.6</ele>
        <time>2025-09-26T12:49:00Z</time>
      </trkpt>
      <trkpt lat="48.79228" lon="-3.54491">
        <ele>48</ele>
        <time>2025-09-26T12:49:02Z</time>
      </trkpt>
      <trkpt lat="48.79242" lon="-3.5446">
        <ele>49.2</ele>
        <time>2025-09-26T12:49:08Z</time>
      </trkpt>
      <trkpt lat="48.79257" lon="-3.54439">
        <ele>50.2</ele>
        <time>2025-09-26T12:49:13Z</time>
      </trkpt>
      <trkpt lat="48.79259" lon="-3.54434">
        <ele>50.2</ele>
        <time>2025-09-26T12:49:14Z</time>
      </trkpt>
      <trkpt lat="48.79261" lon="-3.54429">
        <ele>50.4</ele>
        <time>2025-09-26T12:49:15Z</time>
      </trkpt>
      <trkpt lat="48.79276" lon="-3.54389">
        <ele>49.4</ele>
        <time>2025-09-26T12:49:21Z</time>
      </trkpt>
      <trkpt lat="48.79278" lon="-3.54381">
        <ele>49</ele>
        <time>2025-09-26T12:49:22Z</time>
      </trkpt>
      <trkpt lat="48.79282" lon="-3.54364">
        <ele>47.6</ele>
        <time>2025-09-26T12:49:24Z</time>
      </trkpt>
      <trkpt lat="48.79286" lon="-3.54348">
        <ele>46.8</ele>
        <time>2025-09-26T12:49:26Z</time>
      </trkpt>
      <trkpt lat="48.79289" lon="-3.5434">
        <ele>46.4</ele>
        <time>2025-09-26T12:49:27Z</time>
      </trkpt>
      <trkpt lat="48.79292" lon="-3.54332">
        <ele>46</ele>
        <time>2025-09-26T12:49:28Z</time>
      </trkpt>
      <trkpt lat="48.79301" lon="-3.54315">
        <ele>44.6</ele>
        <time>2025-09-26T12:49:30Z</time>
      </trkpt>
      <trkpt lat="48.79311" lon="-3.54299">
        <ele>43</ele>
        <time>2025-09-26T12:49:32Z</time>
      </trkpt>
      <trkpt lat="48.79322" lon="-3.54283">
        <ele>41.2</ele>
        <time>2025-09-26T12:49:34Z</time>
      </trkpt>
      <trkpt lat="48.79326" lon="-3.54273">
        <ele>39.8</ele>
        <time>2025-09-26T12:49:35Z</time>
      </trkpt>
      <trkpt lat="48.7933" lon="-3.54263">
        <ele>38.8</ele>
        <time>2025-09-26T12:49:36Z</time>
      </trkpt>
      <trkpt lat="48.79333" lon="-3.54254">
        <ele>38.4</ele>
        <time>2025-09-26T12:49:37Z</time>
      </trkpt>
      <trkpt lat="48.79337" lon="-3.54235">
        <ele>37.8</ele>
        <time>2025-09-26T12:49:39Z</time>
      </trkpt>
      <trkpt lat="48.79343" lon="-3.5421">
        <ele>37.8</ele>
        <time>2025-09-26T12:49:42Z</time>
      </trkpt>
      <trkpt lat="48.79343" lon="-3.54178">
        <ele>38</ele>
        <time>2025-09-26T12:49:46Z</time>
      </trkpt>
      <trkpt lat="48.79341" lon="-3.54133">
        <ele>38</ele>
        <time>2025-09-26T12:49:52Z</time>
      </trkpt>
      <trkpt lat="48.79341" lon="-3.54126">
        <ele>37.8</ele>
        <time>2025-09-26T12:49:53Z</time>
      </trkpt>
      <trkpt lat="48.79341" lon="-3.54112">
        <ele>38</ele>
        <time>2025-09-26T12:49:55Z</time>
      </trkpt>
      <trkpt lat="48.79342" lon="-3.5409">
        <ele>37.8</ele>
        <time>2025-09-26T12:49:58Z</time>
      </trkpt>
      <trkpt lat="48.79344" lon="-3.54033">
        <ele>36.6</ele>
        <time>2025-09-26T12:50:05Z</time>
      </trkpt>
      <trkpt lat="48.79345" lon="-3.54017">
        <ele>36.4</ele>
        <time>2025-09-26T12:50:07Z</time>
      </trkpt>
      <trkpt lat="48.79346" lon="-3.54009">
        <ele>36.4</ele>
        <time>2025-09-26T12:50:08Z</time>
      </trkpt>
      <trkpt lat="48.79349" lon="-3.5398">
        <ele>35.8</ele>
        <time>2025-09-26T12:50:12Z</time>
      </trkpt>
      <trkpt lat="48.7935" lon="-3.53975">
        <ele>35.8</ele>
        <time>2025-09-26T12:50:13Z</time>
      </trkpt>
      <trkpt lat="48.79363" lon="-3.53963">
        <ele>35.8</ele>
        <time>2025-09-26T12:50:17Z</time>
      </trkpt>
      <trkpt lat="48.79374" lon="-3.53955">
        <ele>35.8</ele>
        <time>2025-09-26T12:50:20Z</time>
      </trkpt>
      <trkpt lat="48.79391" lon="-3.53949">
        <ele>36</ele>
        <time>2025-09-26T12:50:24Z</time>
      </trkpt>
      <trkpt lat="48.79415" lon="-3.53947">
        <ele>36.4</ele>
        <time>2025-09-26T12:50:30Z</time>
      </trkpt>
      <trkpt lat="48.79427" lon="-3.53937">
        <ele>36.4</ele>
        <time>2025-09-26T12:50:36Z</time>
      </trkpt>
      <trkpt lat="48.79437" lon="-3.53922">
        <ele>36</ele>
        <time>2025-09-26T12:50:42Z</time>
      </trkpt>
      <trkpt lat="48.79439" lon="-3.53919">
        <ele>35.8</ele>
        <time>2025-09-26T12:50:44Z</time>
      </trkpt>
      <trkpt lat="48.7944" lon="-3.5392">
        <ele>35.8</ele>
        <time>2025-09-26T12:50:46Z</time>
      </trkpt>
      <trkpt lat="48.79438" lon="-3.53924">
        <ele>35.8</ele>
        <time>2025-09-26T12:50:50Z</time>
      </trkpt>
      <trkpt lat="48.79434" lon="-3.53929">
        <ele>36.2</ele>
        <time>2025-09-26T12:50:52Z</time>
      </trkpt>
      <trkpt lat="48.79426" lon="-3.53943">
        <ele>36.2</ele>
        <time>2025-09-26T12:50:56Z</time>
      </trkpt>
      <trkpt lat="48.79433" lon="-3.53952">
        <ele>36.4</ele>
        <time>2025-09-26T12:50:59Z</time>
      </trkpt>
      <trkpt lat="48.79454" lon="-3.53964">
        <ele>36.2</ele>
        <time>2025-09-26T12:51:04Z</time>
      </trkpt>
      <trkpt lat="48.79475" lon="-3.53977">
        <ele>35.4</ele>
        <time>2025-09-26T12:51:09Z</time>
      </trkpt>
      <trkpt lat="48.79478" lon="-3.5398">
        <ele>35.4</ele>
        <time>2025-09-26T12:51:10Z</time>
      </trkpt>
      <trkpt lat="48.79481" lon="-3.53982">
        <ele>35</ele>
        <time>2025-09-26T12:51:11Z</time>
      </trkpt>
      <trkpt lat="48.79491" lon="-3.53993">
        <ele>34.4</ele>
        <time>2025-09-26T12:51:15Z</time>
      </trkpt>
      <trkpt lat="48.79494" lon="-3.53997">
        <ele>34.2</ele>
        <time>2025-09-26T12:51:17Z</time>
      </trkpt>
      <trkpt lat="48.79504" lon="-3.54011">
        <ele>33.4</ele>
        <time>2025-09-26T12:51:24Z</time>
      </trkpt>
      <trkpt lat="48.79504" lon="-3.54011">
        <ele>33</ele>
        <time>2025-09-26T12:51:25Z</time>
      </trkpt>
      <trkpt lat="48.79504" lon="-3.54011">
        <ele>32.8</ele>
        <time>2025-09-26T12:51:28Z</time>
      </trkpt>
      <trkpt lat="48.79506" lon="-3.54013">
        <ele>32.6</ele>
        <time>2025-09-26T12:51:35Z</time>
      </trkpt>
      <trkpt lat="48.79506" lon="-3.54015">
        <ele>32.6</ele>
        <time>2025-09-26T12:51:37Z</time>
      </trkpt>
      <trkpt lat="48.79504" lon="-3.54015">
        <ele>32.4</ele>
        <time>2025-09-26T12:51:39Z</time>
      </trkpt>
      <trkpt lat="48.79502" lon="-3.54008">
        <ele>32.8</ele>
        <time>2025-09-26T12:51:45Z</time>
      </trkpt>
      <trkpt lat="48.79501" lon="-3.54005">
        <ele>33.2</ele>
        <time>2025-09-26T12:51:46Z</time>
      </trkpt>
      <trkpt lat="48.79488" lon="-3.53987">
        <ele>33.6</ele>
        <time>2025-09-26T12:51:52Z</time>
      </trkpt>
      <trkpt lat="48.79481" lon="-3.53978">
        <ele>34</ele>
        <time>2025-09-26T12:51:57Z</time>
      </trkpt>
      <trkpt lat="48.7948" lon="-3.53977">
        <ele>34</ele>
        <time>2025-09-26T12:51:58Z</time>
      </trkpt>
      <trkpt lat="48.7948" lon="-3.53977">
        <ele>34.2</ele>
        <time>2025-09-26T12:52:04Z</time>
      </trkpt>
      <trkpt lat="48.7948" lon="-3.53977">
        <ele>34.4</ele>
        <time>2025-09-26T12:52:13Z</time>
      </trkpt>
      <trkpt lat="48.7948" lon="-3.53977">
        <ele>34</ele>
        <time>2025-09-26T12:52:22Z</time>
      </trkpt>
      <trkpt lat="48.7948" lon="-3.53977">
        <ele>34</ele>
        <time>2025-09-26T12:52:42Z</time>
      </trkpt>
      <trkpt lat="48.79477" lon="-3.53976">
        <ele>34</ele>
        <time>2025-09-26T12:52:49Z</time>
      </trkpt>
      <trkpt lat="48.79473" lon="-3.53977">
        <ele>34.2</ele>
        <time>2025-09-26T12:52:51Z</time>
      </trkpt>
      <trkpt lat="48.79457" lon="-3.5397">
        <ele>34.6</ele>
        <time>2025-09-26T12:52:55Z</time>
      </trkpt>
      <trkpt lat="48.7944" lon="-3.53961">
        <ele>35.2</ele>
        <time>2025-09-26T12:52:59Z</time>
      </trkpt>
      <trkpt lat="48.79433" lon="-3.53956">
        <ele>35.4</ele>
        <time>2025-09-26T12:53:01Z</time>
      </trkpt>
      <trkpt lat="48.7943" lon="-3.53953">
        <ele>35.6</ele>
        <time>2025-09-26T12:53:02Z</time>
      </trkpt>
      <trkpt lat="48.79427" lon="-3.53944">
        <ele>36</ele>
        <time>2025-09-26T12:53:04Z</time>
      </trkpt>
      <trkpt lat="48.79428" lon="-3.53939">
        <ele>36</ele>
        <time>2025-09-26T12:53:05Z</time>
      </trkpt>
      <trkpt lat="48.79441" lon="-3.53917">
        <ele>35.8</ele>
        <time>2025-09-26T12:53:09Z</time>
      </trkpt>
      <trkpt lat="48.79445" lon="-3.5391">
        <ele>35.6</ele>
        <time>2025-09-26T12:53:10Z</time>
      </trkpt>
      <trkpt lat="48.79449" lon="-3.53893">
        <ele>35.2</ele>
        <time>2025-09-26T12:53:12Z</time>
      </trkpt>
      <trkpt lat="48.7945" lon="-3.53884">
        <ele>35</ele>
        <time>2025-09-26T12:53:13Z</time>
      </trkpt>
      <trkpt lat="48.79456" lon="-3.53856">
        <ele>34.4</ele>
        <time>2025-09-26T12:53:16Z</time>
      </trkpt>
      <trkpt lat="48.79463" lon="-3.53837">
        <ele>33.8</ele>
        <time>2025-09-26T12:53:18Z</time>
      </trkpt>
      <trkpt lat="48.7948" lon="-3.53802">
        <ele>32.6</ele>
        <time>2025-09-26T12:53:22Z</time>
      </trkpt>
      <trkpt lat="48.79486" lon="-3.53784">
        <ele>32.6</ele>
        <time>2025-09-26T12:53:24Z</time>
      </trkpt>
      <trkpt lat="48.795" lon="-3.53741">
        <ele>32.2</ele>
        <time>2025-09-26T12:53:29Z</time>
      </trkpt>
      <trkpt lat="48.79508" lon="-3.53722">
        <ele>31.2</ele>
        <time>2025-09-26T12:53:32Z</time>
      </trkpt>
      <trkpt lat="48.79509" lon="-3.53718">
        <ele>31</ele>
        <time>2025-09-26T12:53:33Z</time>
      </trkpt>
      <trkpt lat="48.79512" lon="-3.53711">
        <ele>30.2</ele>
        <time>2025-09-26T12:53:37Z</time>
      </trkpt>
      <trkpt lat="48.79513" lon="-3.5371">
        <ele>30.2</ele>
        <time>2025-09-26T12:53:40Z</time>
      </trkpt>
      <trkpt lat="48.79513" lon="-3.5371">
        <ele>30.2</ele>
        <time>2025-09-26T12:53:44Z</time>
      </trkpt>
      <trkpt lat="48.79513" lon="-3.5371">
        <ele>30.2</ele>
        <time>2025-09-26T12:53:47Z</time>
      </trkpt>
      <trkpt lat="48.79517" lon="-3.53704">
        <ele>30</ele>
        <time>2025-09-26T12:53:52Z</time>
      </trkpt>
      <trkpt lat="48.79529" lon="-3.53693">
        <ele>29</ele>
        <time>2025-09-26T12:53:57Z</time>
      </trkpt>
      <trkpt lat="48.79541" lon="-3.53688">
        <ele>28.6</ele>
        <time>2025-09-26T12:54:00Z</time>
      </trkpt>
      <trkpt lat="48.79548" lon="-3.53686">
        <ele>28.2</ele>
        <time>2025-09-26T12:54:02Z</time>
      </trkpt>
      <trkpt lat="48.79579" lon="-3.53676">
        <ele>28.6</ele>
        <time>2025-09-26T12:54:10Z</time>
      </trkpt>
      <trkpt lat="48.7962" lon="-3.53659">
        <ele>29.8</ele>
        <time>2025-09-26T12:54:20Z</time>
      </trkpt>
      <trkpt lat="48.79639" lon="-3.53651">
        <ele>29.6</ele>
        <time>2025-09-26T12:54:25Z</time>
      </trkpt>
      <trkpt lat="48.79648" lon="-3.53651">
        <ele>29.2</ele>
        <time>2025-09-26T12:54:27Z</time>
      </trkpt>
      <trkpt lat="48.79676" lon="-3.53659">
        <ele>28.4</ele>
        <time>2025-09-26T12:54:33Z</time>
      </trkpt>
      <trkpt lat="48.79698" lon="-3.53661">
        <ele>28.4</ele>
        <time>2025-09-26T12:54:38Z</time>
      </trkpt>
      <trkpt lat="48.79702" lon="-3.5366">
        <ele>28.4</ele>
        <time>2025-09-26T12:54:39Z</time>
      </trkpt>
      <trkpt lat="48.79722" lon="-3.5366">
        <ele>29.8</ele>
        <time>2025-09-26T12:54:45Z</time>
      </trkpt>
      <trkpt lat="48.79731" lon="-3.53662">
        <ele>29.6</ele>
        <time>2025-09-26T12:54:51Z</time>
      </trkpt>
      <trkpt lat="48.79731" lon="-3.53662">
        <ele>29.6</ele>
        <time>2025-09-26T12:55:11Z</time>
      </trkpt>
      <trkpt lat="48.79731" lon="-3.53662">
        <ele>29.6</ele>
        <time>2025-09-26T12:55:14Z</time>
      </trkpt>
      <trkpt lat="48.79731" lon="-3.53662">
        <ele>29.6</ele>
        <time>2025-09-26T12:55:47Z</time>
      </trkpt>
      <trkpt lat="48.79731" lon="-3.53662">
        <ele>29.6</ele>
        <time>2025-09-26T12:56:14Z</time>
      </trkpt>
      <trkpt lat="48.79739" lon="-3.53662">
        <ele>29.6</ele>
        <time>2025-09-26T12:56:21Z</time>
      </trkpt>
      <trkpt lat="48.79757" lon="-3.53658">
        <ele>29.6</ele>
        <time>2025-09-26T12:56:25Z</time>
      </trkpt>
      <trkpt lat="48.79786" lon="-3.5366">
        <ele>30</ele>
        <time>2025-09-26T12:56:31Z</time>
      </trkpt>
      <trkpt lat="48.79804" lon="-3.53664">
        <ele>30</ele>
        <time>2025-09-26T12:56:35Z</time>
      </trkpt>
      <trkpt lat="48.79813" lon="-3.53669">
        <ele>29.8</ele>
        <time>2025-09-26T12:56:37Z</time>
      </trkpt>
      <trkpt lat="48.79823" lon="-3.53674">
        <ele>29.8</ele>
        <time>2025-09-26T12:56:39Z</time>
      </trkpt>
      <trkpt lat="48.79834" lon="-3.53675">
        <ele>29</ele>
        <time>2025-09-26T12:56:41Z</time>
      </trkpt>
      <trkpt lat="48.79844" lon="-3.53675">
        <ele>28.6</ele>
        <time>2025-09-26T12:56:43Z</time>
      </trkpt>
      <trkpt lat="48.79859" lon="-3.53678">
        <ele>28.4</ele>
        <time>2025-09-26T12:56:46Z</time>
      </trkpt>
      <trkpt lat="48.79875" lon="-3.53683">
        <ele>27.8</ele>
        <time>2025-09-26T12:56:49Z</time>
      </trkpt>
      <trkpt lat="48.79904" lon="-3.53691">
        <ele>26.8</ele>
        <time>2025-09-26T12:56:54Z</time>
      </trkpt>
      <trkpt lat="48.79924" lon="-3.53702">
        <ele>25.4</ele>
        <time>2025-09-26T12:56:58Z</time>
      </trkpt>
      <trkpt lat="48.79932" lon="-3.53705">
        <ele>24.6</ele>
        <time>2025-09-26T12:57:00Z</time>
      </trkpt>
      <trkpt lat="48.79935" lon="-3.53705">
        <ele>24</ele>
        <time>2025-09-26T12:57:01Z</time>
      </trkpt>
      <trkpt lat="48.79938" lon="-3.53701">
        <ele>23.2</ele>
        <time>2025-09-26T12:57:02Z</time>
      </trkpt>
      <trkpt lat="48.79941" lon="-3.53697">
        <ele>23.2</ele>
        <time>2025-09-26T12:57:03Z</time>
      </trkpt>
      <trkpt lat="48.79944" lon="-3.53685">
        <ele>23</ele>
        <time>2025-09-26T12:57:05Z</time>
      </trkpt>
      <trkpt lat="48.79945" lon="-3.5367">
        <ele>23</ele>
        <time>2025-09-26T12:57:07Z</time>
      </trkpt>
      <trkpt lat="48.79945" lon="-3.53663">
        <ele>23</ele>
        <time>2025-09-26T12:57:08Z</time>
      </trkpt>
      <trkpt lat="48.79944" lon="-3.53655">
        <ele>23</ele>
        <time>2025-09-26T12:57:09Z</time>
      </trkpt>
      <trkpt lat="48.79942" lon="-3.53648">
        <ele>23</ele>
        <time>2025-09-26T12:57:10Z</time>
      </trkpt>
      <trkpt lat="48.79939" lon="-3.53641">
        <ele>23</ele>
        <time>2025-09-26T12:57:11Z</time>
      </trkpt>
      <trkpt lat="48.79912" lon="-3.53595">
        <ele>24.2</ele>
        <time>2025-09-26T12:57:19Z</time>
      </trkpt>
      <trkpt lat="48.79898" lon="-3.53569">
        <ele>24.6</ele>
        <time>2025-09-26T12:57:23Z</time>
      </trkpt>
      <trkpt lat="48.79892" lon="-3.53555">
        <ele>24.6</ele>
        <time>2025-09-26T12:57:25Z</time>
      </trkpt>
      <trkpt lat="48.79884" lon="-3.53531">
        <ele>24.2</ele>
        <time>2025-09-26T12:57:28Z</time>
      </trkpt>
      <trkpt lat="48.79876" lon="-3.53505">
        <ele>23.8</ele>
        <time>2025-09-26T12:57:31Z</time>
      </trkpt>
      <trkpt lat="48.79869" lon="-3.53491">
        <ele>23.8</ele>
        <time>2025-09-26T12:57:33Z</time>
      </trkpt>
      <trkpt lat="48.79853" lon="-3.53453">
        <ele>23.8</ele>
        <time>2025-09-26T12:57:39Z</time>
      </trkpt>
      <trkpt lat="48.79854" lon="-3.53436">
        <ele>23.8</ele>
        <time>2025-09-26T12:57:42Z</time>
      </trkpt>
      <trkpt lat="48.79857" lon="-3.53422">
        <ele>23.6</ele>
        <time>2025-09-26T12:57:44Z</time>
      </trkpt>
      <trkpt lat="48.7986" lon="-3.53407">
        <ele>23.6</ele>
        <time>2025-09-26T12:57:46Z</time>
      </trkpt>
      <trkpt lat="48.79861" lon="-3.534">
        <ele>23.4</ele>
        <time>2025-09-26T12:57:47Z</time>
      </trkpt>
      <trkpt lat="48.79863" lon="-3.53375">
        <ele>23.2</ele>
        <time>2025-09-26T12:57:50Z</time>
      </trkpt>
      <trkpt lat="48.79863" lon="-3.53367">
        <ele>23.2</ele>
        <time>2025-09-26T12:57:51Z</time>
      </trkpt>
      <trkpt lat="48.79861" lon="-3.53351">
        <ele>23</ele>
        <time>2025-09-26T12:57:53Z</time>
      </trkpt>
      <trkpt lat="48.79858" lon="-3.53318">
        <ele>22.4</ele>
        <time>2025-09-26T12:57:57Z</time>
      </trkpt>
      <trkpt lat="48.7986" lon="-3.53302">
        <ele>22.4</ele>
        <time>2025-09-26T12:57:59Z</time>
      </trkpt>
      <trkpt lat="48.79862" lon="-3.53294">
        <ele>22.4</ele>
        <time>2025-09-26T12:58:00Z</time>
      </trkpt>
      <trkpt lat="48.79867" lon="-3.53283">
        <ele>22.4</ele>
        <time>2025-09-26T12:58:02Z</time>
      </trkpt>
      <trkpt lat="48.79871" lon="-3.53276">
        <ele>22.4</ele>
        <time>2025-09-26T12:58:03Z</time>
      </trkpt>
      <trkpt lat="48.79876" lon="-3.53273">
        <ele>22.4</ele>
        <time>2025-09-26T12:58:04Z</time>
      </trkpt>
      <trkpt lat="48.79886" lon="-3.53268">
        <ele>22</ele>
        <time>2025-09-26T12:58:06Z</time>
      </trkpt>
      <trkpt lat="48.79891" lon="-3.53267">
        <ele>22</ele>
        <time>2025-09-26T12:58:07Z</time>
      </trkpt>
      <trkpt lat="48.79926" lon="-3.53269">
        <ele>21</ele>
        <time>2025-09-26T12:58:13Z</time>
      </trkpt>
      <trkpt lat="48.79938" lon="-3.53269">
        <ele>20.6</ele>
        <time>2025-09-26T12:58:15Z</time>
      </trkpt>
      <trkpt lat="48.79944" lon="-3.53271">
        <ele>20.6</ele>
        <time>2025-09-26T12:58:16Z</time>
      </trkpt>
      <trkpt lat="48.7996" lon="-3.5328">
        <ele>20</ele>
        <time>2025-09-26T12:58:19Z</time>
      </trkpt>
      <trkpt lat="48.79965" lon="-3.53284">
        <ele>19.8</ele>
        <time>2025-09-26T12:58:20Z</time>
      </trkpt>
      <trkpt lat="48.79985" lon="-3.53302">
        <ele>19.4</ele>
        <time>2025-09-26T12:58:24Z</time>
      </trkpt>
      <trkpt lat="48.7999" lon="-3.53306">
        <ele>19.4</ele>
        <time>2025-09-26T12:58:25Z</time>
      </trkpt>
      <trkpt lat="48.80002" lon="-3.53309">
        <ele>19.2</ele>
        <time>2025-09-26T12:58:27Z</time>
      </trkpt>
      <trkpt lat="48.80009" lon="-3.53308">
        <ele>18.6</ele>
        <time>2025-09-26T12:58:28Z</time>
      </trkpt>
      <trkpt lat="48.80015" lon="-3.53304">
        <ele>18</ele>
        <time>2025-09-26T12:58:29Z</time>
      </trkpt>
      <trkpt lat="48.80025" lon="-3.53292">
        <ele>17.8</ele>
        <time>2025-09-26T12:58:31Z</time>
      </trkpt>
      <trkpt lat="48.80034" lon="-3.5328">
        <ele>17.6</ele>
        <time>2025-09-26T12:58:33Z</time>
      </trkpt>
      <trkpt lat="48.80043" lon="-3.5327">
        <ele>17.4</ele>
        <time>2025-09-26T12:58:35Z</time>
      </trkpt>
      <trkpt lat="48.80053" lon="-3.53263">
        <ele>17.4</ele>
        <time>2025-09-26T12:58:37Z</time>
      </trkpt>
      <trkpt lat="48.80071" lon="-3.53253">
        <ele>18.4</ele>
        <time>2025-09-26T12:58:41Z</time>
      </trkpt>
      <trkpt lat="48.80075" lon="-3.5325">
        <ele>18.4</ele>
        <time>2025-09-26T12:58:42Z</time>
      </trkpt>
      <trkpt lat="48.80076" lon="-3.53245">
        <ele>18.6</ele>
        <time>2025-09-26T12:58:43Z</time>
      </trkpt>
      <trkpt lat="48.80075" lon="-3.5324">
        <ele>18.6</ele>
        <time>2025-09-26T12:58:44Z</time>
      </trkpt>
      <trkpt lat="48.80064" lon="-3.5323">
        <ele>19.8</ele>
        <time>2025-09-26T12:58:47Z</time>
      </trkpt>
      <trkpt lat="48.80044" lon="-3.53219">
        <ele>20.2</ele>
        <time>2025-09-26T12:58:51Z</time>
      </trkpt>
      <trkpt lat="48.80039" lon="-3.53215">
        <ele>20.2</ele>
        <time>2025-09-26T12:58:52Z</time>
      </trkpt>
      <trkpt lat="48.80035" lon="-3.53211">
        <ele>20.2</ele>
        <time>2025-09-26T12:58:53Z</time>
      </trkpt>
      <trkpt lat="48.80028" lon="-3.53199">
        <ele>20.4</ele>
        <time>2025-09-26T12:58:55Z</time>
      </trkpt>
      <trkpt lat="48.80025" lon="-3.53192">
        <ele>20.6</ele>
        <time>2025-09-26T12:58:56Z</time>
      </trkpt>
      <trkpt lat="48.80013" lon="-3.53165">
        <ele>20.6</ele>
        <time>2025-09-26T12:59:00Z</time>
      </trkpt>
      <trkpt lat="48.80004" lon="-3.53145">
        <ele>20.6</ele>
        <time>2025-09-26T12:59:03Z</time>
      </trkpt>
      <trkpt lat="48.80001" lon="-3.53131">
        <ele>20.8</ele>
        <time>2025-09-26T12:59:05Z</time>
      </trkpt>
      <trkpt lat="48.80002" lon="-3.53125">
        <ele>21</ele>
        <time>2025-09-26T12:59:06Z</time>
      </trkpt>
      <trkpt lat="48.80003" lon="-3.53118">
        <ele>21.2</ele>
        <time>2025-09-26T12:59:07Z</time>
      </trkpt>
      <trkpt lat="48.80006" lon="-3.53112">
        <ele>21.6</ele>
        <time>2025-09-26T12:59:08Z</time>
      </trkpt>
      <trkpt lat="48.80009" lon="-3.53106">
        <ele>21.8</ele>
        <time>2025-09-26T12:59:09Z</time>
      </trkpt>
      <trkpt lat="48.80013" lon="-3.53101">
        <ele>22</ele>
        <time>2025-09-26T12:59:10Z</time>
      </trkpt>
      <trkpt lat="48.80023" lon="-3.53085">
        <ele>22.8</ele>
        <time>2025-09-26T12:59:13Z</time>
      </trkpt>
      <trkpt lat="48.80026" lon="-3.5308">
        <ele>23</ele>
        <time>2025-09-26T12:59:14Z</time>
      </trkpt>
      <trkpt lat="48.80041" lon="-3.5306">
        <ele>24</ele>
        <time>2025-09-26T12:59:18Z</time>
      </trkpt>
      <trkpt lat="48.80044" lon="-3.53055">
        <ele>24.2</ele>
        <time>2025-09-26T12:59:19Z</time>
      </trkpt>
      <trkpt lat="48.80048" lon="-3.5305">
        <ele>24.6</ele>
        <time>2025-09-26T12:59:20Z</time>
      </trkpt>
      <trkpt lat="48.80066" lon="-3.53026">
        <ele>25.2</ele>
        <time>2025-09-26T12:59:25Z</time>
      </trkpt>
      <trkpt lat="48.80083" lon="-3.53002">
        <ele>25.6</ele>
        <time>2025-09-26T12:59:30Z</time>
      </trkpt>
      <trkpt lat="48.80095" lon="-3.5298">
        <ele>25.6</ele>
        <time>2025-09-26T12:59:34Z</time>
      </trkpt>
      <trkpt lat="48.80102" lon="-3.52969">
        <ele>25.4</ele>
        <time>2025-09-26T12:59:36Z</time>
      </trkpt>
      <trkpt lat="48.80107" lon="-3.52958">
        <ele>25.4</ele>
        <time>2025-09-26T12:59:38Z</time>
      </trkpt>
      <trkpt lat="48.80132" lon="-3.52914">
        <ele>25</ele>
        <time>2025-09-26T12:59:47Z</time>
      </trkpt>
      <trkpt lat="48.80149" lon="-3.52881">
        <ele>25.4</ele>
        <time>2025-09-26T12:59:53Z</time>
      </trkpt>
      <trkpt lat="48.80166" lon="-3.52843">
        <ele>26.6</ele>
        <time>2025-09-26T12:59:59Z</time>
      </trkpt>
      <trkpt lat="48.80172" lon="-3.52825">
        <ele>26.8</ele>
        <time>2025-09-26T13:00:02Z</time>
      </trkpt>
      <trkpt lat="48.80186" lon="-3.52798">
        <ele>27.4</ele>
        <time>2025-09-26T13:00:07Z</time>
      </trkpt>
      <trkpt lat="48.80189" lon="-3.52796">
        <ele>27.4</ele>
        <time>2025-09-26T13:00:08Z</time>
      </trkpt>
      <trkpt lat="48.80193" lon="-3.52796">
        <ele>27.6</ele>
        <time>2025-09-26T13:00:09Z</time>
      </trkpt>
      <trkpt lat="48.80201" lon="-3.52801">
        <ele>27.8</ele>
        <time>2025-09-26T13:00:11Z</time>
      </trkpt>
      <trkpt lat="48.8021" lon="-3.52808">
        <ele>27.8</ele>
        <time>2025-09-26T13:00:13Z</time>
      </trkpt>
      <trkpt lat="48.8022" lon="-3.52812">
        <ele>27.8</ele>
        <time>2025-09-26T13:00:15Z</time>
      </trkpt>
      <trkpt lat="48.80226" lon="-3.52813">
        <ele>27.8</ele>
        <time>2025-09-26T13:00:16Z</time>
      </trkpt>
      <trkpt lat="48.80257" lon="-3.52806">
        <ele>27.2</ele>
        <time>2025-09-26T13:00:22Z</time>
      </trkpt>
      <trkpt lat="48.80291" lon="-3.52785">
        <ele>27.2</ele>
        <time>2025-09-26T13:00:29Z</time>
      </trkpt>
      <trkpt lat="48.80325" lon="-3.52754">
        <ele>27.4</ele>
        <time>2025-09-26T13:00:37Z</time>
      </trkpt>
      <trkpt lat="48.80337" lon="-3.52743">
        <ele>28</ele>
        <time>2025-09-26T13:00:40Z</time>
      </trkpt>
      <trkpt lat="48.80358" lon="-3.52727">
        <ele>28.6</ele>
        <time>2025-09-26T13:00:45Z</time>
      </trkpt>
      <trkpt lat="48.80363" lon="-3.52724">
        <ele>28.6</ele>
        <time>2025-09-26T13:00:46Z</time>
      </trkpt>
      <trkpt lat="48.80367" lon="-3.52722">
        <ele>28.6</ele>
        <time>2025-09-26T13:00:47Z</time>
      </trkpt>
      <trkpt lat="48.80372" lon="-3.52721">
        <ele>28.8</ele>
        <time>2025-09-26T13:00:48Z</time>
      </trkpt>
      <trkpt lat="48.80413" lon="-3.52717">
        <ele>28.8</ele>
        <time>2025-09-26T13:00:56Z</time>
      </trkpt>
      <trkpt lat="48.80463" lon="-3.5272">
        <ele>27.6</ele>
        <time>2025-09-26T13:01:05Z</time>
      </trkpt>
      <trkpt lat="48.80475" lon="-3.52722">
        <ele>27.6</ele>
        <time>2025-09-26T13:01:07Z</time>
      </trkpt>
      <trkpt lat="48.80485" lon="-3.52726">
        <ele>27.2</ele>
        <time>2025-09-26T13:01:09Z</time>
      </trkpt>
      <trkpt lat="48.80499" lon="-3.52736">
        <ele>27.2</ele>
        <time>2025-09-26T13:01:12Z</time>
      </trkpt>
      <trkpt lat="48.80504" lon="-3.52738">
        <ele>27.2</ele>
        <time>2025-09-26T13:01:13Z</time>
      </trkpt>
      <trkpt lat="48.80513" lon="-3.52739">
        <ele>27.4</ele>
        <time>2025-09-26T13:01:15Z</time>
      </trkpt>
      <trkpt lat="48.8052" lon="-3.52732">
        <ele>27.8</ele>
        <time>2025-09-26T13:01:17Z</time>
      </trkpt>
      <trkpt lat="48.80523" lon="-3.52726">
        <ele>28</ele>
        <time>2025-09-26T13:01:18Z</time>
      </trkpt>
      <trkpt lat="48.80524" lon="-3.52719">
        <ele>28.2</ele>
        <time>2025-09-26T13:01:19Z</time>
      </trkpt>
      <trkpt lat="48.80526" lon="-3.52705">
        <ele>28.6</ele>
        <time>2025-09-26T13:01:21Z</time>
      </trkpt>
      <trkpt lat="48.80531" lon="-3.52686">
        <ele>29.2</ele>
        <time>2025-09-26T13:01:24Z</time>
      </trkpt>
      <trkpt lat="48.80535" lon="-3.52675">
        <ele>29.8</ele>
        <time>2025-09-26T13:01:26Z</time>
      </trkpt>
      <trkpt lat="48.80544" lon="-3.52657">
        <ele>31</ele>
        <time>2025-09-26T13:01:30Z</time>
      </trkpt>
      <trkpt lat="48.80553" lon="-3.52642">
        <ele>32.2</ele>
        <time>2025-09-26T13:01:35Z</time>
      </trkpt>
      <trkpt lat="48.80567" lon="-3.52627">
        <ele>33</ele>
        <time>2025-09-26T13:01:40Z</time>
      </trkpt>
      <trkpt lat="48.8057" lon="-3.52623">
        <ele>33.2</ele>
        <time>2025-09-26T13:01:41Z</time>
      </trkpt>
      <trkpt lat="48.80572" lon="-3.52617">
        <ele>33.6</ele>
        <time>2025-09-26T13:01:42Z</time>
      </trkpt>
      <trkpt lat="48.80573" lon="-3.52612">
        <ele>33.8</ele>
        <time>2025-09-26T13:01:43Z</time>
      </trkpt>
      <trkpt lat="48.80575" lon="-3.52596">
        <ele>34.6</ele>
        <time>2025-09-26T13:01:46Z</time>
      </trkpt>
      <trkpt lat="48.80576" lon="-3.52581">
        <ele>35.2</ele>
        <time>2025-09-26T13:01:49Z</time>
      </trkpt>
      <trkpt lat="48.80577" lon="-3.52577">
        <ele>35.4</ele>
        <time>2025-09-26T13:01:50Z</time>
      </trkpt>
      <trkpt lat="48.80582" lon="-3.52574">
        <ele>35.6</ele>
        <time>2025-09-26T13:01:52Z</time>
      </trkpt>
      <trkpt lat="48.80596" lon="-3.52579">
        <ele>36.4</ele>
        <time>2025-09-26T13:01:57Z</time>
      </trkpt>
      <trkpt lat="48.806" lon="-3.52581">
        <ele>36.4</ele>
        <time>2025-09-26T13:01:58Z</time>
      </trkpt>
      <trkpt lat="48.80614" lon="-3.52589">
        <ele>36.8</ele>
        <time>2025-09-26T13:02:01Z</time>
      </trkpt>
      <trkpt lat="48.80619" lon="-3.52591">
        <ele>37.2</ele>
        <time>2025-09-26T13:02:02Z</time>
      </trkpt>
      <trkpt lat="48.80641" lon="-3.52602">
        <ele>37.2</ele>
        <time>2025-09-26T13:02:07Z</time>
      </trkpt>
      <trkpt lat="48.80653" lon="-3.52608">
        <ele>37.2</ele>
        <time>2025-09-26T13:02:10Z</time>
      </trkpt>
      <trkpt lat="48.80673" lon="-3.52619">
        <ele>37</ele>
        <time>2025-09-26T13:02:15Z</time>
      </trkpt>
      <trkpt lat="48.80684" lon="-3.52626">
        <ele>37</ele>
        <time>2025-09-26T13:02:18Z</time>
      </trkpt>
      <trkpt lat="48.80711" lon="-3.52643">
        <ele>35.6</ele>
        <time>2025-09-26T13:02:24Z</time>
      </trkpt>
      <trkpt lat="48.80736" lon="-3.52664">
        <ele>34.4</ele>
        <time>2025-09-26T13:02:29Z</time>
      </trkpt>
      <trkpt lat="48.80741" lon="-3.5267">
        <ele>34.2</ele>
        <time>2025-09-26T13:02:30Z</time>
      </trkpt>
      <trkpt lat="48.80754" lon="-3.52686">
        <ele>33.8</ele>
        <time>2025-09-26T13:02:33Z</time>
      </trkpt>
      <trkpt lat="48.80766" lon="-3.52702">
        <ele>34</ele>
        <time>2025-09-26T13:02:36Z</time>
      </trkpt>
      <trkpt lat="48.8077" lon="-3.52708">
        <ele>34</ele>
        <time>2025-09-26T13:02:37Z</time>
      </trkpt>
      <trkpt lat="48.80777" lon="-3.52717">
        <ele>33.4</ele>
        <time>2025-09-26T13:02:39Z</time>
      </trkpt>
      <trkpt lat="48.80785" lon="-3.52722">
        <ele>33.4</ele>
        <time>2025-09-26T13:02:41Z</time>
      </trkpt>
      <trkpt lat="48.80789" lon="-3.52723">
        <ele>33.4</ele>
        <time>2025-09-26T13:02:42Z</time>
      </trkpt>
      <trkpt lat="48.80793" lon="-3.52722">
        <ele>33.2</ele>
        <time>2025-09-26T13:02:43Z</time>
      </trkpt>
      <trkpt lat="48.80801" lon="-3.52717">
        <ele>33</ele>
        <time>2025-09-26T13:02:45Z</time>
      </trkpt>
      <trkpt lat="48.80805" lon="-3.52714">
        <ele>32.8</ele>
        <time>2025-09-26T13:02:46Z</time>
      </trkpt>
      <trkpt lat="48.80823" lon="-3.52692">
        <ele>31.8</ele>
        <time>2025-09-26T13:02:50Z</time>
      </trkpt>
      <trkpt lat="48.80833" lon="-3.52672">
        <ele>30.8</ele>
        <time>2025-09-26T13:02:52Z</time>
      </trkpt>
      <trkpt lat="48.80837" lon="-3.52661">
        <ele>30</ele>
        <time>2025-09-26T13:02:53Z</time>
      </trkpt>
      <trkpt lat="48.8084" lon="-3.52649">
        <ele>29.4</ele>
        <time>2025-09-26T13:02:54Z</time>
      </trkpt>
      <trkpt lat="48.80845" lon="-3.52627">
        <ele>27.8</ele>
        <time>2025-09-26T13:02:56Z</time>
      </trkpt>
      <trkpt lat="48.80849" lon="-3.52618">
        <ele>27.4</ele>
        <time>2025-09-26T13:02:57Z</time>
      </trkpt>
      <trkpt lat="48.80853" lon="-3.5261">
        <ele>27</ele>
        <time>2025-09-26T13:02:58Z</time>
      </trkpt>
      <trkpt lat="48.80859" lon="-3.52603">
        <ele>26.2</ele>
        <time>2025-09-26T13:02:59Z</time>
      </trkpt>
      <trkpt lat="48.80864" lon="-3.52595">
        <ele>25.2</ele>
        <time>2025-09-26T13:03:00Z</time>
      </trkpt>
      <trkpt lat="48.8087" lon="-3.52588">
        <ele>24</ele>
        <time>2025-09-26T13:03:01Z</time>
      </trkpt>
      <trkpt lat="48.80877" lon="-3.5258">
        <ele>23.4</ele>
        <time>2025-09-26T13:03:02Z</time>
      </trkpt>
      <trkpt lat="48.80885" lon="-3.52573">
        <ele>22.8</ele>
        <time>2025-09-26T13:03:03Z</time>
      </trkpt>
      <trkpt lat="48.80893" lon="-3.52567">
        <ele>22</ele>
        <time>2025-09-26T13:03:04Z</time>
      </trkpt>
      <trkpt lat="48.80902" lon="-3.52562">
        <ele>21.6</ele>
        <time>2025-09-26T13:03:05Z</time>
      </trkpt>
      <trkpt lat="48.80918" lon="-3.52552">
        <ele>20.4</ele>
        <time>2025-09-26T13:03:07Z</time>
      </trkpt>
      <trkpt lat="48.80948" lon="-3.52532">
        <ele>19.4</ele>
        <time>2025-09-26T13:03:11Z</time>
      </trkpt>
      <trkpt lat="48.80955" lon="-3.52528">
        <ele>19.2</ele>
        <time>2025-09-26T13:03:12Z</time>
      </trkpt>
      <trkpt lat="48.80969" lon="-3.52525">
        <ele>18.8</ele>
        <time>2025-09-26T13:03:14Z</time>
      </trkpt>
      <trkpt lat="48.80976" lon="-3.52525">
        <ele>18.2</ele>
        <time>2025-09-26T13:03:15Z</time>
      </trkpt>
      <trkpt lat="48.81005" lon="-3.52532">
        <ele>17</ele>
        <time>2025-09-26T13:03:19Z</time>
      </trkpt>
      <trkpt lat="48.81018" lon="-3.52533">
        <ele>16.4</ele>
        <time>2025-09-26T13:03:21Z</time>
      </trkpt>
      <trkpt lat="48.81034" lon="-3.5253">
        <ele>16.2</ele>
        <time>2025-09-26T13:03:24Z</time>
      </trkpt>
      <trkpt lat="48.81037" lon="-3.52528">
        <ele>16.4</ele>
        <time>2025-09-26T13:03:25Z</time>
      </trkpt>
      <trkpt lat="48.81045" lon="-3.52517">
        <ele>17.2</ele>
        <time>2025-09-26T13:03:28Z</time>
      </trkpt>
      <trkpt lat="48.81045" lon="-3.5249">
        <ele>18</ele>
        <time>2025-09-26T13:03:32Z</time>
      </trkpt>
      <trkpt lat="48.81045" lon="-3.52475">
        <ele>18.6</ele>
        <time>2025-09-26T13:03:34Z</time>
      </trkpt>
      <trkpt lat="48.81047" lon="-3.52447">
        <ele>19.8</ele>
        <time>2025-09-26T13:03:38Z</time>
      </trkpt>
      <trkpt lat="48.81047" lon="-3.5244">
        <ele>20.4</ele>
        <time>2025-09-26T13:03:39Z</time>
      </trkpt>
      <trkpt lat="48.81049" lon="-3.52426">
        <ele>21</ele>
        <time>2025-09-26T13:03:41Z</time>
      </trkpt>
      <trkpt lat="48.81051" lon="-3.52413">
        <ele>22</ele>
        <time>2025-09-26T13:03:43Z</time>
      </trkpt>
      <trkpt lat="48.81054" lon="-3.52385">
        <ele>23.2</ele>
        <time>2025-09-26T13:03:47Z</time>
      </trkpt>
      <trkpt lat="48.81054" lon="-3.52378">
        <ele>23.4</ele>
        <time>2025-09-26T13:03:48Z</time>
      </trkpt>
      <trkpt lat="48.81057" lon="-3.52365">
        <ele>24.2</ele>
        <time>2025-09-26T13:03:50Z</time>
      </trkpt>
      <trkpt lat="48.81067" lon="-3.52304">
        <ele>24.8</ele>
        <time>2025-09-26T13:03:59Z</time>
      </trkpt>
      <trkpt lat="48.81069" lon="-3.52283">
        <ele>25.4</ele>
        <time>2025-09-26T13:04:02Z</time>
      </trkpt>
      <trkpt lat="48.81071" lon="-3.52249">
        <ele>26.4</ele>
        <time>2025-09-26T13:04:07Z</time>
      </trkpt>
      <trkpt lat="48.81071" lon="-3.52242">
        <ele>26.6</ele>
        <time>2025-09-26T13:04:08Z</time>
      </trkpt>
      <trkpt lat="48.81073" lon="-3.52215">
        <ele>27.4</ele>
        <time>2025-09-26T13:04:12Z</time>
      </trkpt>
      <trkpt lat="48.81077" lon="-3.52168">
        <ele>28.4</ele>
        <time>2025-09-26T13:04:19Z</time>
      </trkpt>
      <trkpt lat="48.81078" lon="-3.52154">
        <ele>28.6</ele>
        <time>2025-09-26T13:04:21Z</time>
      </trkpt>
      <trkpt lat="48.81084" lon="-3.52081">
        <ele>29.4</ele>
        <time>2025-09-26T13:04:32Z</time>
      </trkpt>
      <trkpt lat="48.81086" lon="-3.52067">
        <ele>29.6</ele>
        <time>2025-09-26T13:04:34Z</time>
      </trkpt>
      <trkpt lat="48.81088" lon="-3.5203">
        <ele>30.8</ele>
        <time>2025-09-26T13:04:40Z</time>
      </trkpt>
      <trkpt lat="48.81088" lon="-3.52024">
        <ele>31</ele>
        <time>2025-09-26T13:04:41Z</time>
      </trkpt>
      <trkpt lat="48.81085" lon="-3.51987">
        <ele>31.4</ele>
        <time>2025-09-26T13:04:47Z</time>
      </trkpt>
      <trkpt lat="48.81086" lon="-3.51982">
        <ele>31.2</ele>
        <time>2025-09-26T13:04:48Z</time>
      </trkpt>
      <trkpt lat="48.81088" lon="-3.51979">
        <ele>31.2</ele>
        <time>2025-09-26T13:04:49Z</time>
      </trkpt>
      <trkpt lat="48.81095" lon="-3.51976">
        <ele>31.2</ele>
        <time>2025-09-26T13:04:51Z</time>
      </trkpt>
      <trkpt lat="48.81122" lon="-3.51973">
        <ele>29.8</ele>
        <time>2025-09-26T13:04:56Z</time>
      </trkpt>
      <trkpt lat="48.81128" lon="-3.51972">
        <ele>29.4</ele>
        <time>2025-09-26T13:04:57Z</time>
      </trkpt>
      <trkpt lat="48.81135" lon="-3.51968">
        <ele>28.4</ele>
        <time>2025-09-26T13:04:58Z</time>
      </trkpt>
      <trkpt lat="48.81143" lon="-3.51964">
        <ele>28.2</ele>
        <time>2025-09-26T13:04:59Z</time>
      </trkpt>
      <trkpt lat="48.8115" lon="-3.51959">
        <ele>27</ele>
        <time>2025-09-26T13:05:00Z</time>
      </trkpt>
      <trkpt lat="48.81167" lon="-3.51949">
        <ele>26</ele>
        <time>2025-09-26T13:05:02Z</time>
      </trkpt>
      <trkpt lat="48.81185" lon="-3.5194">
        <ele>24.6</ele>
        <time>2025-09-26T13:05:04Z</time>
      </trkpt>
      <trkpt lat="48.81212" lon="-3.51926">
        <ele>22.2</ele>
        <time>2025-09-26T13:05:07Z</time>
      </trkpt>
      <trkpt lat="48.81231" lon="-3.51918">
        <ele>21.2</ele>
        <time>2025-09-26T13:05:09Z</time>
      </trkpt>
      <trkpt lat="48.8125" lon="-3.5191">
        <ele>20.4</ele>
        <time>2025-09-26T13:05:11Z</time>
      </trkpt>
      <trkpt lat="48.81257" lon="-3.51907">
        <ele>20</ele>
        <time>2025-09-26T13:05:12Z</time>
      </trkpt>
      <trkpt lat="48.81286" lon="-3.51895">
        <ele>18.8</ele>
        <time>2025-09-26T13:05:15Z</time>
      </trkpt>
      <trkpt lat="48.81303" lon="-3.51889">
        <ele>18.4</ele>
        <time>2025-09-26T13:05:17Z</time>
      </trkpt>
      <trkpt lat="48.8132" lon="-3.51882">
        <ele>18</ele>
        <time>2025-09-26T13:05:19Z</time>
      </trkpt>
      <trkpt lat="48.81343" lon="-3.51869">
        <ele>17.2</ele>
        <time>2025-09-26T13:05:22Z</time>
      </trkpt>
      <trkpt lat="48.81365" lon="-3.51855">
        <ele>16.6</ele>
        <time>2025-09-26T13:05:25Z</time>
      </trkpt>
      <trkpt lat="48.81373" lon="-3.5185">
        <ele>15.8</ele>
        <time>2025-09-26T13:05:26Z</time>
      </trkpt>
      <trkpt lat="48.81408" lon="-3.51822">
        <ele>14.6</ele>
        <time>2025-09-26T13:05:31Z</time>
      </trkpt>
      <trkpt lat="48.81415" lon="-3.51816">
        <ele>14.4</ele>
        <time>2025-09-26T13:05:32Z</time>
      </trkpt>
      <trkpt lat="48.81443" lon="-3.5178">
        <ele>13.8</ele>
        <time>2025-09-26T13:05:37Z</time>
      </trkpt>
      <trkpt lat="48.81453" lon="-3.51765">
        <ele>13.4</ele>
        <time>2025-09-26T13:05:39Z</time>
      </trkpt>
      <trkpt lat="48.81473" lon="-3.51736">
        <ele>13</ele>
        <time>2025-09-26T13:05:43Z</time>
      </trkpt>
      <trkpt lat="48.81491" lon="-3.51708">
        <ele>12.2</ele>
        <time>2025-09-26T13:05:47Z</time>
      </trkpt>
      <trkpt lat="48.81513" lon="-3.51675">
        <ele>11.6</ele>
        <time>2025-09-26T13:05:52Z</time>
      </trkpt>
      <trkpt lat="48.81531" lon="-3.5165">
        <ele>11.2</ele>
        <time>2025-09-26T13:05:56Z</time>
      </trkpt>
      <trkpt lat="48.81544" lon="-3.5163">
        <ele>11</ele>
        <time>2025-09-26T13:05:59Z</time>
      </trkpt>
      <trkpt lat="48.81553" lon="-3.51619">
        <ele>11</ele>
        <time>2025-09-26T13:06:01Z</time>
      </trkpt>
      <trkpt lat="48.81588" lon="-3.51585">
        <ele>10.4</ele>
        <time>2025-09-26T13:06:08Z</time>
      </trkpt>
      <trkpt lat="48.81621" lon="-3.51567">
        <ele>10.4</ele>
        <time>2025-09-26T13:06:14Z</time>
      </trkpt>
      <trkpt lat="48.81651" lon="-3.51556">
        <ele>10.4</ele>
        <time>2025-09-26T13:06:19Z</time>
      </trkpt>
      <trkpt lat="48.81661" lon="-3.51549">
        <ele>10.4</ele>
        <time>2025-09-26T13:06:21Z</time>
      </trkpt>
      <trkpt lat="48.81694" lon="-3.51517">
        <ele>10.8</ele>
        <time>2025-09-26T13:06:28Z</time>
      </trkpt>
      <trkpt lat="48.81698" lon="-3.51513">
        <ele>10.8</ele>
        <time>2025-09-26T13:06:29Z</time>
      </trkpt>
      <trkpt lat="48.81726" lon="-3.51483">
        <ele>10.6</ele>
        <time>2025-09-26T13:06:36Z</time>
      </trkpt>
      <trkpt lat="48.81728" lon="-3.51478">
        <ele>10.6</ele>
        <time>2025-09-26T13:06:37Z</time>
      </trkpt>
      <trkpt lat="48.81731" lon="-3.5146">
        <ele>10.2</ele>
        <time>2025-09-26T13:06:40Z</time>
      </trkpt>
      <trkpt lat="48.81731" lon="-3.51446">
        <ele>10.2</ele>
        <time>2025-09-26T13:06:42Z</time>
      </trkpt>
      <trkpt lat="48.81731" lon="-3.51438">
        <ele>10.2</ele>
        <time>2025-09-26T13:06:43Z</time>
      </trkpt>
      <trkpt lat="48.81731" lon="-3.51431">
        <ele>10</ele>
        <time>2025-09-26T13:06:44Z</time>
      </trkpt>
      <trkpt lat="48.81733" lon="-3.51392">
        <ele>10</ele>
        <time>2025-09-26T13:06:49Z</time>
      </trkpt>
      <trkpt lat="48.81734" lon="-3.51376">
        <ele>10</ele>
        <time>2025-09-26T13:06:51Z</time>
      </trkpt>
      <trkpt lat="48.81743" lon="-3.5133">
        <ele>10</ele>
        <time>2025-09-26T13:06:57Z</time>
      </trkpt>
      <trkpt lat="48.81747" lon="-3.51274">
        <ele>10</ele>
        <time>2025-09-26T13:07:04Z</time>
      </trkpt>
      <trkpt lat="48.81742" lon="-3.51193">
        <ele>10.4</ele>
        <time>2025-09-26T13:07:14Z</time>
      </trkpt>
      <trkpt lat="48.81743" lon="-3.51154">
        <ele>10.8</ele>
        <time>2025-09-26T13:07:19Z</time>
      </trkpt>
      <trkpt lat="48.81745" lon="-3.51139">
        <ele>10.8</ele>
        <time>2025-09-26T13:07:21Z</time>
      </trkpt>
      <trkpt lat="48.81746" lon="-3.51132">
        <ele>10.8</ele>
        <time>2025-09-26T13:07:22Z</time>
      </trkpt>
      <trkpt lat="48.8175" lon="-3.51118">
        <ele>11</ele>
        <time>2025-09-26T13:07:24Z</time>
      </trkpt>
      <trkpt lat="48.81756" lon="-3.51104">
        <ele>11</ele>
        <time>2025-09-26T13:07:26Z</time>
      </trkpt>
      <trkpt lat="48.81777" lon="-3.51052">
        <ele>10.8</ele>
        <time>2025-09-26T13:07:34Z</time>
      </trkpt>
      <trkpt lat="48.81787" lon="-3.50991">
        <ele>10.6</ele>
        <time>2025-09-26T13:07:42Z</time>
      </trkpt>
      <trkpt lat="48.81795" lon="-3.50915">
        <ele>10.6</ele>
        <time>2025-09-26T13:07:51Z</time>
      </trkpt>
      <trkpt lat="48.81801" lon="-3.5085">
        <ele>10.8</ele>
        <time>2025-09-26T13:07:59Z</time>
      </trkpt>
      <trkpt lat="48.81807" lon="-3.50782">
        <ele>11</ele>
        <time>2025-09-26T13:08:08Z</time>
      </trkpt>
      <trkpt lat="48.81806" lon="-3.50766">
        <ele>11.2</ele>
        <time>2025-09-26T13:08:11Z</time>
      </trkpt>
      <trkpt lat="48.81805" lon="-3.50759">
        <ele>11.2</ele>
        <time>2025-09-26T13:08:13Z</time>
      </trkpt>
      <trkpt lat="48.81805" lon="-3.50739">
        <ele>11.4</ele>
        <time>2025-09-26T13:08:17Z</time>
      </trkpt>
      <trkpt lat="48.81816" lon="-3.50704">
        <ele>11.4</ele>
        <time>2025-09-26T13:08:23Z</time>
      </trkpt>
      <trkpt lat="48.8182" lon="-3.50665">
        <ele>11.6</ele>
        <time>2025-09-26T13:08:29Z</time>
      </trkpt>
      <trkpt lat="48.8182" lon="-3.50657">
        <ele>11.8</ele>
        <time>2025-09-26T13:08:30Z</time>
      </trkpt>
      <trkpt lat="48.81825" lon="-3.5061">
        <ele>12</ele>
        <time>2025-09-26T13:08:36Z</time>
      </trkpt>
      <trkpt lat="48.8183" lon="-3.50569">
        <ele>12</ele>
        <time>2025-09-26T13:08:42Z</time>
      </trkpt>
      <trkpt lat="48.81826" lon="-3.5055">
        <ele>12</ele>
        <time>2025-09-26T13:08:46Z</time>
      </trkpt>
      <trkpt lat="48.81807" lon="-3.50517">
        <ele>12</ele>
        <time>2025-09-26T13:08:52Z</time>
      </trkpt>
      <trkpt lat="48.81793" lon="-3.505">
        <ele>12.2</ele>
        <time>2025-09-26T13:08:56Z</time>
      </trkpt>
      <trkpt lat="48.81787" lon="-3.50492">
        <ele>12</ele>
        <time>2025-09-26T13:08:58Z</time>
      </trkpt>
      <trkpt lat="48.81783" lon="-3.50488">
        <ele>12.2</ele>
        <time>2025-09-26T13:08:59Z</time>
      </trkpt>
      <trkpt lat="48.81781" lon="-3.50483">
        <ele>12.2</ele>
        <time>2025-09-26T13:09:00Z</time>
      </trkpt>
      <trkpt lat="48.81776" lon="-3.50462">
        <ele>12.6</ele>
        <time>2025-09-26T13:09:03Z</time>
      </trkpt>
      <trkpt lat="48.81769" lon="-3.5041">
        <ele>13.2</ele>
        <time>2025-09-26T13:09:10Z</time>
      </trkpt>
      <trkpt lat="48.81768" lon="-3.50395">
        <ele>13.6</ele>
        <time>2025-09-26T13:09:12Z</time>
      </trkpt>
      <trkpt lat="48.81768" lon="-3.50335">
        <ele>14.4</ele>
        <time>2025-09-26T13:09:20Z</time>
      </trkpt>
      <trkpt lat="48.81773" lon="-3.50307">
        <ele>15</ele>
        <time>2025-09-26T13:09:24Z</time>
      </trkpt>
      <trkpt lat="48.81777" lon="-3.50294">
        <ele>15.2</ele>
        <time>2025-09-26T13:09:26Z</time>
      </trkpt>
      <trkpt lat="48.81779" lon="-3.50289">
        <ele>15.2</ele>
        <time>2025-09-26T13:09:27Z</time>
      </trkpt>
      <trkpt lat="48.81782" lon="-3.50283">
        <ele>15.4</ele>
        <time>2025-09-26T13:09:28Z</time>
      </trkpt>
      <trkpt lat="48.81796" lon="-3.50268">
        <ele>16.4</ele>
        <time>2025-09-26T13:09:32Z</time>
      </trkpt>
      <trkpt lat="48.818" lon="-3.50265">
        <ele>16.4</ele>
        <time>2025-09-26T13:09:33Z</time>
      </trkpt>
      <trkpt lat="48.8182" lon="-3.50253">
        <ele>18</ele>
        <time>2025-09-26T13:09:38Z</time>
      </trkpt>
      <trkpt lat="48.81824" lon="-3.50251">
        <ele>18.2</ele>
        <time>2025-09-26T13:09:39Z</time>
      </trkpt>
      <trkpt lat="48.81831" lon="-3.50244">
        <ele>18.6</ele>
        <time>2025-09-26T13:09:41Z</time>
      </trkpt>
      <trkpt lat="48.81834" lon="-3.5024">
        <ele>19</ele>
        <time>2025-09-26T13:09:42Z</time>
      </trkpt>
      <trkpt lat="48.81839" lon="-3.50231">
        <ele>19.6</ele>
        <time>2025-09-26T13:09:44Z</time>
      </trkpt>
      <trkpt lat="48.81842" lon="-3.50226">
        <ele>20</ele>
        <time>2025-09-26T13:09:45Z</time>
      </trkpt>
      <trkpt lat="48.81855" lon="-3.50199">
        <ele>20.2</ele>
        <time>2025-09-26T13:09:50Z</time>
      </trkpt>
      <trkpt lat="48.81862" lon="-3.50188">
        <ele>19.6</ele>
        <time>2025-09-26T13:09:52Z</time>
      </trkpt>
      <trkpt lat="48.81873" lon="-3.50174">
        <ele>18.8</ele>
        <time>2025-09-26T13:09:55Z</time>
      </trkpt>
      <trkpt lat="48.81878" lon="-3.50161">
        <ele>18</ele>
        <time>2025-09-26T13:09:57Z</time>
      </trkpt>
      <trkpt lat="48.81879" lon="-3.50154">
        <ele>17.6</ele>
        <time>2025-09-26T13:09:58Z</time>
      </trkpt>
      <trkpt lat="48.81879" lon="-3.50132">
        <ele>17</ele>
        <time>2025-09-26T13:10:01Z</time>
      </trkpt>
      <trkpt lat="48.81882" lon="-3.5011">
        <ele>16.4</ele>
        <time>2025-09-26T13:10:04Z</time>
      </trkpt>
      <trkpt lat="48.81883" lon="-3.50103">
        <ele>16.2</ele>
        <time>2025-09-26T13:10:05Z</time>
      </trkpt>
      <trkpt lat="48.81887" lon="-3.50089">
        <ele>16</ele>
        <time>2025-09-26T13:10:07Z</time>
      </trkpt>
      <trkpt lat="48.81889" lon="-3.50082">
        <ele>15.8</ele>
        <time>2025-09-26T13:10:08Z</time>
      </trkpt>
      <trkpt lat="48.81896" lon="-3.5007">
        <ele>15.6</ele>
        <time>2025-09-26T13:10:10Z</time>
      </trkpt>
      <trkpt lat="48.819" lon="-3.50064">
        <ele>15.4</ele>
        <time>2025-09-26T13:10:11Z</time>
      </trkpt>
      <trkpt lat="48.81905" lon="-3.5006">
        <ele>15.2</ele>
        <time>2025-09-26T13:10:12Z</time>
      </trkpt>
      <trkpt lat="48.81929" lon="-3.50048">
        <ele>14</ele>
        <time>2025-09-26T13:10:17Z</time>
      </trkpt>
      <trkpt lat="48.81934" lon="-3.50048">
        <ele>13.8</ele>
        <time>2025-09-26T13:10:18Z</time>
      </trkpt>
      <trkpt lat="48.81939" lon="-3.50048">
        <ele>13.6</ele>
        <time>2025-09-26T13:10:19Z</time>
      </trkpt>
      <trkpt lat="48.81961" lon="-3.50059">
        <ele>13</ele>
        <time>2025-09-26T13:10:23Z</time>
      </trkpt>
      <trkpt lat="48.81986" lon="-3.50072">
        <ele>11.8</ele>
        <time>2025-09-26T13:10:27Z</time>
      </trkpt>
      <trkpt lat="48.81992" lon="-3.50074">
        <ele>11.6</ele>
        <time>2025-09-26T13:10:28Z</time>
      </trkpt>
      <trkpt lat="48.82012" lon="-3.50081">
        <ele>10.8</ele>
        <time>2025-09-26T13:10:31Z</time>
      </trkpt>
      <trkpt lat="48.82026" lon="-3.50086">
        <ele>9.6</ele>
        <time>2025-09-26T13:10:33Z</time>
      </trkpt>
      <trkpt lat="48.82041" lon="-3.5009">
        <ele>9.2</ele>
        <time>2025-09-26T13:10:35Z</time>
      </trkpt>
      <trkpt lat="48.8207" lon="-3.50099">
        <ele>8.4</ele>
        <time>2025-09-26T13:10:39Z</time>
      </trkpt>
      <trkpt lat="48.82098" lon="-3.50105">
        <ele>7.2</ele>
        <time>2025-09-26T13:10:43Z</time>
      </trkpt>
      <trkpt lat="48.82136" lon="-3.50109">
        <ele>6</ele>
        <time>2025-09-26T13:10:49Z</time>
      </trkpt>
      <trkpt lat="48.82142" lon="-3.50109">
        <ele>6</ele>
        <time>2025-09-26T13:10:50Z</time>
      </trkpt>
      <trkpt lat="48.8217" lon="-3.50105">
        <ele>5.8</ele>
        <time>2025-09-26T13:10:55Z</time>
      </trkpt>
      <trkpt lat="48.82175" lon="-3.50103">
        <ele>5.6</ele>
        <time>2025-09-26T13:10:56Z</time>
      </trkpt>
      <trkpt lat="48.8218" lon="-3.50101">
        <ele>5.6</ele>
        <time>2025-09-26T13:10:57Z</time>
      </trkpt>
      <trkpt lat="48.82205" lon="-3.50091">
        <ele>5.4</ele>
        <time>2025-09-26T13:11:02Z</time>
      </trkpt>
      <trkpt lat="48.8221" lon="-3.50089">
        <ele>5.4</ele>
        <time>2025-09-26T13:11:03Z</time>
      </trkpt>
      <trkpt lat="48.82227" lon="-3.50084">
        <ele>5</ele>
        <time>2025-09-26T13:11:06Z</time>
      </trkpt>
      <trkpt lat="48.82258" lon="-3.5007">
        <ele>4.4</ele>
        <time>2025-09-26T13:11:12Z</time>
      </trkpt>
      <trkpt lat="48.82282" lon="-3.50061">
        <ele>4</ele>
        <time>2025-09-26T13:11:17Z</time>
      </trkpt>
      <trkpt lat="48.82301" lon="-3.50054">
        <ele>3.6</ele>
        <time>2025-09-26T13:11:21Z</time>
      </trkpt>
      <trkpt lat="48.82346" lon="-3.50035">
        <ele>3</ele>
        <time>2025-09-26T13:11:31Z</time>
      </trkpt>
      <trkpt lat="48.8235" lon="-3.50034">
        <ele>2.8</ele>
        <time>2025-09-26T13:11:32Z</time>
      </trkpt>
      <trkpt lat="48.82359" lon="-3.5003">
        <ele>2.8</ele>
        <time>2025-09-26T13:11:36Z</time>
      </trkpt>
      <trkpt lat="48.82371" lon="-3.50025">
        <ele>2.8</ele>
        <time>2025-09-26T13:11:40Z</time>
      </trkpt>
      <trkpt lat="48.8239" lon="-3.5002">
        <ele>2.8</ele>
        <time>2025-09-26T13:11:45Z</time>
      </trkpt>
      <trkpt lat="48.82406" lon="-3.50024">
        <ele>2.6</ele>
        <time>2025-09-26T13:11:49Z</time>
      </trkpt>
      <trkpt lat="48.82409" lon="-3.50027">
        <ele>2.6</ele>
        <time>2025-09-26T13:11:50Z</time>
      </trkpt>
      <trkpt lat="48.82411" lon="-3.50032">
        <ele>2.6</ele>
        <time>2025-09-26T13:11:51Z</time>
      </trkpt>
      <trkpt lat="48.82415" lon="-3.50045">
        <ele>2.4</ele>
        <time>2025-09-26T13:11:54Z</time>
      </trkpt>
      <trkpt lat="48.82425" lon="-3.50061">
        <ele>2.4</ele>
        <time>2025-09-26T13:12:00Z</time>
      </trkpt>
      <trkpt lat="48.82438" lon="-3.50067">
        <ele>2.6</ele>
        <time>2025-09-26T13:12:04Z</time>
      </trkpt>
      <trkpt lat="48.8246" lon="-3.50061">
        <ele>2.6</ele>
        <time>2025-09-26T13:12:10Z</time>
      </trkpt>
      <trkpt lat="48.8249" lon="-3.50036">
        <ele>2.8</ele>
        <time>2025-09-26T13:12:18Z</time>
      </trkpt>
      <trkpt lat="48.82495" lon="-3.50034">
        <ele>2.8</ele>
        <time>2025-09-26T13:12:19Z</time>
      </trkpt>
      <trkpt lat="48.82516" lon="-3.50028">
        <ele>2.8</ele>
        <time>2025-09-26T13:12:24Z</time>
      </trkpt>
      <trkpt lat="48.82552" lon="-3.50025">
        <ele>2.8</ele>
        <time>2025-09-26T13:12:32Z</time>
      </trkpt>
      <trkpt lat="48.8256" lon="-3.50028">
        <ele>2.6</ele>
        <time>2025-09-26T13:12:34Z</time>
      </trkpt>
      <trkpt lat="48.82573" lon="-3.50032">
        <ele>2.8</ele>
        <time>2025-09-26T13:12:37Z</time>
      </trkpt>
      <trkpt lat="48.82581" lon="-3.50037">
        <ele>2.8</ele>
        <time>2025-09-26T13:12:40Z</time>
      </trkpt>
      <trkpt lat="48.82584" lon="-3.50037">
        <ele>2.8</ele>
        <time>2025-09-26T13:12:42Z</time>
      </trkpt>
      <trkpt lat="48.82584" lon="-3.50037">
        <ele>2.8</ele>
        <time>2025-09-26T13:12:44Z</time>
      </trkpt>
      <trkpt lat="48.82584" lon="-3.50034">
        <ele>2.8</ele>
        <time>2025-09-26T13:12:46Z</time>
      </trkpt>
      <trkpt lat="48.82583" lon="-3.50019">
        <ele>3</ele>
        <time>2025-09-26T13:12:50Z</time>
      </trkpt>
      <trkpt lat="48.82588" lon="-3.49985">
        <ele>3.2</ele>
        <time>2025-09-26T13:12:55Z</time>
      </trkpt>
      <trkpt lat="48.8259" lon="-3.49971">
        <ele>3.2</ele>
        <time>2025-09-26T13:12:57Z</time>
      </trkpt>
      <trkpt lat="48.82592" lon="-3.49965">
        <ele>3</ele>
        <time>2025-09-26T13:12:58Z</time>
      </trkpt>
      <trkpt lat="48.82598" lon="-3.49945">
        <ele>2.8</ele>
        <time>2025-09-26T13:13:01Z</time>
      </trkpt>
      <trkpt lat="48.82615" lon="-3.49903">
        <ele>2.2</ele>
        <time>2025-09-26T13:13:08Z</time>
      </trkpt>
      <trkpt lat="48.82617" lon="-3.49897">
        <ele>2</ele>
        <time>2025-09-26T13:13:09Z</time>
      </trkpt>
      <trkpt lat="48.82621" lon="-3.49887">
        <ele>1.8</ele>
        <time>2025-09-26T13:13:11Z</time>
      </trkpt>
      <trkpt lat="48.82625" lon="-3.49881">
        <ele>1.8</ele>
        <time>2025-09-26T13:13:13Z</time>
      </trkpt>
      <trkpt lat="48.82628" lon="-3.4988">
        <ele>1.6</ele>
        <time>2025-09-26T13:13:14Z</time>
      </trkpt>
      <trkpt lat="48.82635" lon="-3.4988">
        <ele>1.8</ele>
        <time>2025-09-26T13:13:16Z</time>
      </trkpt>
      <trkpt lat="48.82639" lon="-3.49881">
        <ele>1.8</ele>
        <time>2025-09-26T13:13:17Z</time>
      </trkpt>
      <trkpt lat="48.82656" lon="-3.49894">
        <ele>1.8</ele>
        <time>2025-09-26T13:13:22Z</time>
      </trkpt>
      <trkpt lat="48.8266" lon="-3.49897">
        <ele>1.8</ele>
        <time>2025-09-26T13:13:23Z</time>
      </trkpt>
      <trkpt lat="48.82665" lon="-3.49898">
        <ele>1.8</ele>
        <time>2025-09-26T13:13:24Z</time>
      </trkpt>
      <trkpt lat="48.82684" lon="-3.49902">
        <ele>1.8</ele>
        <time>2025-09-26T13:13:28Z</time>
      </trkpt>
      <trkpt lat="48.82688" lon="-3.49902">
        <ele>1.8</ele>
        <time>2025-09-26T13:13:29Z</time>
      </trkpt>
      <trkpt lat="48.82706" lon="-3.49905">
        <ele>1.6</ele>
        <time>2025-09-26T13:13:33Z</time>
      </trkpt>
      <trkpt lat="48.8272" lon="-3.49906">
        <ele>1.8</ele>
        <time>2025-09-26T13:13:36Z</time>
      </trkpt>
      <trkpt lat="48.82745" lon="-3.49908">
        <ele>1.8</ele>
        <time>2025-09-26T13:13:41Z</time>
      </trkpt>
      <trkpt lat="48.82755" lon="-3.49907">
        <ele>1.6</ele>
        <time>2025-09-26T13:13:43Z</time>
      </trkpt>
      <trkpt lat="48.8279" lon="-3.49904">
        <ele>2</ele>
        <time>2025-09-26T13:13:50Z</time>
      </trkpt>
      <trkpt lat="48.82824" lon="-3.49887">
        <ele>2</ele>
        <time>2025-09-26T13:13:58Z</time>
      </trkpt>
      <trkpt lat="48.82839" lon="-3.49878">
        <ele>1.8</ele>
        <time>2025-09-26T13:14:03Z</time>
      </trkpt>
      <trkpt lat="48.82849" lon="-3.49876">
        <ele>1.8</ele>
        <time>2025-09-26T13:14:08Z</time>
      </trkpt>
      <trkpt lat="48.82869" lon="-3.49873">
        <ele>1.8</ele>
        <time>2025-09-26T13:14:13Z</time>
      </trkpt>
      <trkpt lat="48.82905" lon="-3.49868">
        <ele>2</ele>
        <time>2025-09-26T13:14:21Z</time>
      </trkpt>
      <trkpt lat="48.82926" lon="-3.49869">
        <ele>2.2</ele>
        <time>2025-09-26T13:14:27Z</time>
      </trkpt>
      <trkpt lat="48.82936" lon="-3.49863">
        <ele>2</ele>
        <time>2025-09-26T13:14:31Z</time>
      </trkpt>
      <trkpt lat="48.82938" lon="-3.49849">
        <ele>2.2</ele>
        <time>2025-09-26T13:14:35Z</time>
      </trkpt>
      <trkpt lat="48.82939" lon="-3.49826">
        <ele>2.2</ele>
        <time>2025-09-26T13:14:41Z</time>
      </trkpt>
      <trkpt lat="48.82943" lon="-3.49817">
        <ele>2.4</ele>
        <time>2025-09-26T13:14:44Z</time>
      </trkpt>
      <trkpt lat="48.82943" lon="-3.49814">
        <ele>2.6</ele>
        <time>2025-09-26T13:14:45Z</time>
      </trkpt>
      <trkpt lat="48.82947" lon="-3.49807">
        <ele>2.6</ele>
        <time>2025-09-26T13:14:49Z</time>
      </trkpt>
      <trkpt lat="48.82949" lon="-3.49806">
        <ele>2.6</ele>
        <time>2025-09-26T13:14:50Z</time>
      </trkpt>
      <trkpt lat="48.82953" lon="-3.49803">
        <ele>2.4</ele>
        <time>2025-09-26T13:14:53Z</time>
      </trkpt>
      <trkpt lat="48.82954" lon="-3.49803">
        <ele>2.2</ele>
        <time>2025-09-26T13:14:56Z</time>
      </trkpt>
      <trkpt lat="48.82954" lon="-3.49803">
        <ele>1.6</ele>
        <time>2025-09-26T13:15:05Z</time>
      </trkpt>
      <trkpt lat="48.82954" lon="-3.49803">
        <ele>1.6</ele>
        <time>2025-09-26T13:15:11Z</time>
      </trkpt>
      <trkpt lat="48.82954" lon="-3.49803">
        <ele>1.6</ele>
        <time>2025-09-26T13:15:14Z</time>
      </trkpt>
      <trkpt lat="48.82955" lon="-3.49803">
        <ele>1.6</ele>
        <time>2025-09-26T13:15:19Z</time>
      </trkpt>
      <trkpt lat="48.82955" lon="-3.49803">
        <ele>1.6</ele>
        <time>2025-09-26T13:15:24Z</time>
      </trkpt>
      <trkpt lat="48.82954" lon="-3.49803">
        <ele>1.6</ele>
        <time>2025-09-26T13:15:57Z</time>
      </trkpt>
      <trkpt lat="48.82955" lon="-3.49802">
        <ele>1.6</ele>
        <time>2025-09-26T13:16:05Z</time>
      </trkpt>
      <trkpt lat="48.82956" lon="-3.49801">
        <ele>1.6</ele>
        <time>2025-09-26T13:16:11Z</time>
      </trkpt>
      <trkpt lat="48.82956" lon="-3.49801">
        <ele>1.6</ele>
        <time>2025-09-26T13:16:14Z</time>
      </trkpt>
      <trkpt lat="48.82956" lon="-3.49801">
        <ele>1.6</ele>
        <time>2025-09-26T13:16:31Z</time>
      </trkpt>
      <trkpt lat="48.82955" lon="-3.49799">
        <ele>1.6</ele>
        <time>2025-09-26T13:16:46Z</time>
      </trkpt>
      <trkpt lat="48.82955" lon="-3.49798">
        <ele>1.6</ele>
        <time>2025-09-26T13:16:57Z</time>
      </trkpt>
      <trkpt lat="48.82953" lon="-3.49802">
        <ele>1.6</ele>
        <time>2025-09-26T13:17:04Z</time>
      </trkpt>
      <trkpt lat="48.82952" lon="-3.49804">
        <ele>1.6</ele>
        <time>2025-09-26T13:17:10Z</time>
      </trkpt>
      <trkpt lat="48.82952" lon="-3.49801">
        <ele>1.6</ele>
        <time>2025-09-26T13:17:15Z</time>
      </trkpt>
      <trkpt lat="48.82951" lon="-3.498">
        <ele>1.6</ele>
        <time>2025-09-26T13:17:23Z</time>
      </trkpt>
      <trkpt lat="48.82951" lon="-3.498">
        <ele>1.6</ele>
        <time>2025-09-26T13:17:34Z</time>
      </trkpt>
      <trkpt lat="48.82951" lon="-3.498">
        <ele>1.6</ele>
        <time>2025-09-26T13:17:35Z</time>
      </trkpt>
      <trkpt lat="48.82951" lon="-3.49802">
        <ele>1.6</ele>
        <time>2025-09-26T13:17:46Z</time>
      </trkpt>
      <trkpt lat="48.82951" lon="-3.49803">
        <ele>1.8</ele>
        <time>2025-09-26T13:17:52Z</time>
      </trkpt>
      <trkpt lat="48.82951" lon="-3.49803">
        <ele>1.6</ele>
        <time>2025-09-26T13:17:58Z</time>
      </trkpt>
      <trkpt lat="48.82951" lon="-3.49803">
        <ele>1.8</ele>
        <time>2025-09-26T13:18:07Z</time>
      </trkpt>
      <trkpt lat="48.82951" lon="-3.49804">
        <ele>1.8</ele>
        <time>2025-09-26T13:18:15Z</time>
      </trkpt>
      <trkpt lat="48.82951" lon="-3.49804">
        <ele>1.8</ele>
        <time>2025-09-26T13:18:19Z</time>
      </trkpt>
      <trkpt lat="48.82951" lon="-3.49804">
        <ele>2.2</ele>
        <time>2025-09-26T13:18:31Z</time>
      </trkpt>
      <trkpt lat="48.82951" lon="-3.49804">
        <ele>2.2</ele>
        <time>2025-09-26T13:18:34Z</time>
      </trkpt>
      <trkpt lat="48.82951" lon="-3.49804">
        <ele>2</ele>
        <time>2025-09-26T13:18:45Z</time>
      </trkpt>
      <trkpt lat="48.82952" lon="-3.49802">
        <ele>2</ele>
        <time>2025-09-26T13:18:49Z</time>
      </trkpt>
      <trkpt lat="48.82952" lon="-3.49801">
        <ele>2</ele>
        <time>2025-09-26T13:18:56Z</time>
      </trkpt>
      <trkpt lat="48.82952" lon="-3.49801">
        <ele>2</ele>
        <time>2025-09-26T13:19:08Z</time>
      </trkpt>
      <trkpt lat="48.82952" lon="-3.49801">
        <ele>2</ele>
        <time>2025-09-26T13:19:12Z</time>
      </trkpt>
      <trkpt lat="48.82952" lon="-3.49801">
        <ele>2</ele>
        <time>2025-09-26T13:19:18Z</time>
      </trkpt>
      <trkpt lat="48.82952" lon="-3.49801">
        <ele>2</ele>
        <time>2025-09-26T13:19:30Z</time>
      </trkpt>
      <trkpt lat="48.82952" lon="-3.49801">
        <ele>2</ele>
        <time>2025-09-26T13:19:42Z</time>
      </trkpt>
      <trkpt lat="48.82952" lon="-3.49801">
        <ele>2</ele>
        <time>2025-09-26T13:19:43Z</time>
      </trkpt>
      <trkpt lat="48.82952" lon="-3.49801">
        <ele>2</ele>
        <time>2025-09-26T13:19:47Z</time>
      </trkpt>
      <trkpt lat="48.82952" lon="-3.49801">
        <ele>2</ele>
        <time>2025-09-26T13:19:50Z</time>
      </trkpt>
      <trkpt lat="48.82952" lon="-3.49801">
        <ele>2</ele>
        <time>2025-09-26T13:19:54Z</time>
      </trkpt>
      <trkpt lat="48.82952" lon="-3.49801">
        <ele>2</ele>
        <time>2025-09-26T13:19:58Z</time>
      </trkpt>
      <trkpt lat="48.82953" lon="-3.49801">
        <ele>2</ele>
        <time>2025-09-26T13:20:07Z</time>
      </trkpt>
      <trkpt lat="48.82953" lon="-3.49801">
        <ele>2</ele>
        <time>2025-09-26T13:20:10Z</time>
      </trkpt>
      <trkpt lat="48.82953" lon="-3.49801">
        <ele>2</ele>
        <time>2025-09-26T13:20:12Z</time>
      </trkpt>
      <trkpt lat="48.82953" lon="-3.49801">
        <ele>2</ele>
        <time>2025-09-26T13:20:25Z</time>
      </trkpt>
      <trkpt lat="48.82953" lon="-3.49799">
        <ele>2</ele>
        <time>2025-09-26T13:20:39Z</time>
      </trkpt>
      <trkpt lat="48.82953" lon="-3.49799">
        <ele>2</ele>
        <time>2025-09-26T13:20:53Z</time>
      </trkpt>
      <trkpt lat="48.82953" lon="-3.49799">
        <ele>2</ele>
        <time>2025-09-26T13:21:02Z</time>
      </trkpt>
      <trkpt lat="48.82953" lon="-3.49799">
        <ele>2</ele>
        <time>2025-09-26T13:21:05Z</time>
      </trkpt>
      <trkpt lat="48.82953" lon="-3.49799">
        <ele>2</ele>
        <time>2025-09-26T13:21:24Z</time>
      </trkpt>
      <trkpt lat="48.82953" lon="-3.49799">
        <ele>2</ele>
        <time>2025-09-26T13:21:41Z</time>
      </trkpt>
      <trkpt lat="48.82953" lon="-3.49799">
        <ele>2</ele>
        <time>2025-09-26T13:21:44Z</time>
      </trkpt>
      <trkpt lat="48.82953" lon="-3.49799">
        <ele>2</ele>
        <time>2025-09-26T13:21:51Z</time>
      </trkpt>
      <trkpt lat="48.82953" lon="-3.49799">
        <ele>2</ele>
        <time>2025-09-26T13:22:09Z</time>
      </trkpt>
      <trkpt lat="48.82953" lon="-3.49799">
        <ele>2</ele>
        <time>2025-09-26T13:22:12Z</time>
      </trkpt>
      <trkpt lat="48.82953" lon="-3.49799">
        <ele>2</ele>
        <time>2025-09-26T13:22:15Z</time>
      </trkpt>
      <trkpt lat="48.82953" lon="-3.49801">
        <ele>2</ele>
        <time>2025-09-26T13:22:28Z</time>
      </trkpt>
      <trkpt lat="48.82953" lon="-3.49801">
        <ele>2</ele>
        <time>2025-09-26T13:22:29Z</time>
      </trkpt>
      <trkpt lat="48.82953" lon="-3.49803">
        <ele>2</ele>
        <time>2025-09-26T13:22:40Z</time>
      </trkpt>
      <trkpt lat="48.82952" lon="-3.49806">
        <ele>2</ele>
        <time>2025-09-26T13:22:48Z</time>
      </trkpt>
      <trkpt lat="48.82952" lon="-3.49806">
        <ele>2</ele>
        <time>2025-09-26T13:22:52Z</time>
      </trkpt>
      <trkpt lat="48.82952" lon="-3.49806">
        <ele>2</ele>
        <time>2025-09-26T13:22:58Z</time>
      </trkpt>
      <trkpt lat="48.82952" lon="-3.49806">
        <ele>2</ele>
        <time>2025-09-26T13:23:00Z</time>
      </trkpt>
      <trkpt lat="48.82952" lon="-3.49806">
        <ele>2</ele>
        <time>2025-09-26T13:23:07Z</time>
      </trkpt>
      <trkpt lat="48.82951" lon="-3.49803">
        <ele>2</ele>
        <time>2025-09-26T13:23:15Z</time>
      </trkpt>
      <trkpt lat="48.82951" lon="-3.49801">
        <ele>2</ele>
        <time>2025-09-26T13:23:16Z</time>
      </trkpt>
      <trkpt lat="48.82948" lon="-3.49791">
        <ele>2</ele>
        <time>2025-09-26T13:23:20Z</time>
      </trkpt>
      <trkpt lat="48.82947" lon="-3.49789">
        <ele>2</ele>
        <time>2025-09-26T13:23:21Z</time>
      </trkpt>
      <trkpt lat="48.82936" lon="-3.49779">
        <ele>2.6</ele>
        <time>2025-09-26T13:23:27Z</time>
      </trkpt>
      <trkpt lat="48.82933" lon="-3.49771">
        <ele>2.8</ele>
        <time>2025-09-26T13:23:30Z</time>
      </trkpt>
      <trkpt lat="48.82927" lon="-3.49758">
        <ele>2.8</ele>
        <time>2025-09-26T13:23:37Z</time>
      </trkpt>
      <trkpt lat="48.82925" lon="-3.49756">
        <ele>2.6</ele>
        <time>2025-09-26T13:23:42Z</time>
      </trkpt>
      <trkpt lat="48.82925" lon="-3.49756">
        <ele>2.6</ele>
        <time>2025-09-26T13:23:50Z</time>
      </trkpt>
      <trkpt lat="48.82925" lon="-3.49756">
        <ele>2.6</ele>
        <time>2025-09-26T13:24:03Z</time>
      </trkpt>
      <trkpt lat="48.82925" lon="-3.49756">
        <ele>2.6</ele>
        <time>2025-09-26T13:24:12Z</time>
      </trkpt>
      <trkpt lat="48.82923" lon="-3.49749">
        <ele>2.6</ele>
        <time>2025-09-26T13:24:21Z</time>
      </trkpt>
      <trkpt lat="48.82926" lon="-3.49734">
        <ele>2.6</ele>
        <time>2025-09-26T13:24:28Z</time>
      </trkpt>
      <trkpt lat="48.82931" lon="-3.49711">
        <ele>2.4</ele>
        <time>2025-09-26T13:24:36Z</time>
      </trkpt>
      <trkpt lat="48.82933" lon="-3.49696">
        <ele>2.2</ele>
        <time>2025-09-26T13:24:41Z</time>
      </trkpt>
      <trkpt lat="48.82935" lon="-3.49685">
        <ele>2.2</ele>
        <time>2025-09-26T13:24:44Z</time>
      </trkpt>
      <trkpt lat="48.82934" lon="-3.4967">
        <ele>2</ele>
        <time>2025-09-26T13:24:48Z</time>
      </trkpt>
      <trkpt lat="48.82933" lon="-3.49667">
        <ele>2</ele>
        <time>2025-09-26T13:24:49Z</time>
      </trkpt>
      <trkpt lat="48.82923" lon="-3.49663">
        <ele>2</ele>
        <time>2025-09-26T13:24:53Z</time>
      </trkpt>
      <trkpt lat="48.82898" lon="-3.49655">
        <ele>2.4</ele>
        <time>2025-09-26T13:25:01Z</time>
      </trkpt>
      <trkpt lat="48.82883" lon="-3.49641">
        <ele>2.4</ele>
        <time>2025-09-26T13:25:07Z</time>
      </trkpt>
      <trkpt lat="48.82869" lon="-3.49616">
        <ele>2.4</ele>
        <time>2025-09-26T13:25:14Z</time>
      </trkpt>
      <trkpt lat="48.82867" lon="-3.49611">
        <ele>2</ele>
        <time>2025-09-26T13:25:18Z</time>
      </trkpt>
      <trkpt lat="48.82867" lon="-3.49611">
        <ele>2</ele>
        <time>2025-09-26T13:25:24Z</time>
      </trkpt>
      <trkpt lat="48.82867" lon="-3.49611">
        <ele>2.8</ele>
        <time>2025-09-26T13:25:38Z</time>
      </trkpt>
      <trkpt lat="48.82867" lon="-3.49611">
        <ele>2.8</ele>
        <time>2025-09-26T13:25:41Z</time>
      </trkpt>
      <trkpt lat="48.82867" lon="-3.49611">
        <ele>2</ele>
        <time>2025-09-26T13:25:57Z</time>
      </trkpt>
      <trkpt lat="48.82865" lon="-3.4961">
        <ele>2.4</ele>
        <time>2025-09-26T13:26:00Z</time>
      </trkpt>
      <trkpt lat="48.82864" lon="-3.49609">
        <ele>2.4</ele>
        <time>2025-09-26T13:26:01Z</time>
      </trkpt>
      <trkpt lat="48.82861" lon="-3.49606">
        <ele>2.4</ele>
        <time>2025-09-26T13:26:02Z</time>
      </trkpt>
      <trkpt lat="48.8285" lon="-3.49591">
        <ele>2.4</ele>
        <time>2025-09-26T13:26:06Z</time>
      </trkpt>
      <trkpt lat="48.82837" lon="-3.4956">
        <ele>2.2</ele>
        <time>2025-09-26T13:26:13Z</time>
      </trkpt>
      <trkpt lat="48.82831" lon="-3.49547">
        <ele>2.2</ele>
        <time>2025-09-26T13:26:16Z</time>
      </trkpt>
      <trkpt lat="48.82823" lon="-3.49537">
        <ele>2</ele>
        <time>2025-09-26T13:26:19Z</time>
      </trkpt>
      <trkpt lat="48.82815" lon="-3.49531">
        <ele>1.8</ele>
        <time>2025-09-26T13:26:22Z</time>
      </trkpt>
      <trkpt lat="48.82806" lon="-3.49525">
        <ele>1.8</ele>
        <time>2025-09-26T13:26:25Z</time>
      </trkpt>
      <trkpt lat="48.82803" lon="-3.49523">
        <ele>1.6</ele>
        <time>2025-09-26T13:26:26Z</time>
      </trkpt>
      <trkpt lat="48.82775" lon="-3.4951">
        <ele>1.8</ele>
        <time>2025-09-26T13:26:33Z</time>
      </trkpt>
      <trkpt lat="48.82757" lon="-3.49502">
        <ele>1.6</ele>
        <time>2025-09-26T13:26:37Z</time>
      </trkpt>
      <trkpt lat="48.82748" lon="-3.49498">
        <ele>1.4</ele>
        <time>2025-09-26T13:26:39Z</time>
      </trkpt>
      <trkpt lat="48.82728" lon="-3.49487">
        <ele>1.4</ele>
        <time>2025-09-26T13:26:44Z</time>
      </trkpt>
      <trkpt lat="48.82716" lon="-3.49482">
        <ele>1.4</ele>
        <time>2025-09-26T13:26:47Z</time>
      </trkpt>
      <trkpt lat="48.82695" lon="-3.4947">
        <ele>1.6</ele>
        <time>2025-09-26T13:26:53Z</time>
      </trkpt>
      <trkpt lat="48.8269" lon="-3.49465">
        <ele>1.4</ele>
        <time>2025-09-26T13:26:55Z</time>
      </trkpt>
      <trkpt lat="48.82688" lon="-3.49456">
        <ele>1.6</ele>
        <time>2025-09-26T13:26:57Z</time>
      </trkpt>
      <trkpt lat="48.82688" lon="-3.49407">
        <ele>2.2</ele>
        <time>2025-09-26T13:27:06Z</time>
      </trkpt>
      <trkpt lat="48.82688" lon="-3.49391">
        <ele>3</ele>
        <time>2025-09-26T13:27:09Z</time>
      </trkpt>
      <trkpt lat="48.82692" lon="-3.49378">
        <ele>3.6</ele>
        <time>2025-09-26T13:27:12Z</time>
      </trkpt>
      <trkpt lat="48.82696" lon="-3.49372">
        <ele>4.4</ele>
        <time>2025-09-26T13:27:14Z</time>
      </trkpt>
      <trkpt lat="48.827" lon="-3.4936">
        <ele>4.6</ele>
        <time>2025-09-26T13:27:17Z</time>
      </trkpt>
      <trkpt lat="48.82713" lon="-3.49327">
        <ele>3.6</ele>
        <time>2025-09-26T13:27:23Z</time>
      </trkpt>
      <trkpt lat="48.8272" lon="-3.49303">
        <ele>3.4</ele>
        <time>2025-09-26T13:27:27Z</time>
      </trkpt>
      <trkpt lat="48.82728" lon="-3.49281">
        <ele>3.4</ele>
        <time>2025-09-26T13:27:31Z</time>
      </trkpt>
      <trkpt lat="48.8273" lon="-3.49276">
        <ele>3.2</ele>
        <time>2025-09-26T13:27:32Z</time>
      </trkpt>
      <trkpt lat="48.82731" lon="-3.49265">
        <ele>3.2</ele>
        <time>2025-09-26T13:27:34Z</time>
      </trkpt>
      <trkpt lat="48.8273" lon="-3.4926">
        <ele>3</ele>
        <time>2025-09-26T13:27:35Z</time>
      </trkpt>
      <trkpt lat="48.82727" lon="-3.49253">
        <ele>2.8</ele>
        <time>2025-09-26T13:27:37Z</time>
      </trkpt>
      <trkpt lat="48.82722" lon="-3.49248">
        <ele>2.8</ele>
        <time>2025-09-26T13:27:39Z</time>
      </trkpt>
      <trkpt lat="48.8271" lon="-3.49237">
        <ele>2.4</ele>
        <time>2025-09-26T13:27:43Z</time>
      </trkpt>
      <trkpt lat="48.82704" lon="-3.4923">
        <ele>2.2</ele>
        <time>2025-09-26T13:27:45Z</time>
      </trkpt>
      <trkpt lat="48.82685" lon="-3.4921">
        <ele>1.6</ele>
        <time>2025-09-26T13:27:51Z</time>
      </trkpt>
      <trkpt lat="48.82676" lon="-3.492">
        <ele>1.4</ele>
        <time>2025-09-26T13:27:54Z</time>
      </trkpt>
      <trkpt lat="48.82673" lon="-3.49196">
        <ele>1.2</ele>
        <time>2025-09-26T13:27:55Z</time>
      </trkpt>
      <trkpt lat="48.82651" lon="-3.49168">
        <ele>1.2</ele>
        <time>2025-09-26T13:28:02Z</time>
      </trkpt>
      <trkpt lat="48.82624" lon="-3.49142">
        <ele>1.6</ele>
        <time>2025-09-26T13:28:10Z</time>
      </trkpt>
      <trkpt lat="48.82597" lon="-3.49131">
        <ele>1.8</ele>
        <time>2025-09-26T13:28:18Z</time>
      </trkpt>
      <trkpt lat="48.82583" lon="-3.49138">
        <ele>1.8</ele>
        <time>2025-09-26T13:28:23Z</time>
      </trkpt>
      <trkpt lat="48.82575" lon="-3.49146">
        <ele>2.2</ele>
        <time>2025-09-26T13:28:27Z</time>
      </trkpt>
      <trkpt lat="48.82573" lon="-3.49149">
        <ele>2.4</ele>
        <time>2025-09-26T13:28:28Z</time>
      </trkpt>
      <trkpt lat="48.82569" lon="-3.49151">
        <ele>2.6</ele>
        <time>2025-09-26T13:28:30Z</time>
      </trkpt>
      <trkpt lat="48.82566" lon="-3.4915">
        <ele>2.8</ele>
        <time>2025-09-26T13:28:32Z</time>
      </trkpt>
      <trkpt lat="48.82563" lon="-3.49147">
        <ele>2.8</ele>
        <time>2025-09-26T13:28:34Z</time>
      </trkpt>
      <trkpt lat="48.82562" lon="-3.49141">
        <ele>2.8</ele>
        <time>2025-09-26T13:28:37Z</time>
      </trkpt>
      <trkpt lat="48.82562" lon="-3.49131">
        <ele>2.6</ele>
        <time>2025-09-26T13:28:43Z</time>
      </trkpt>
      <trkpt lat="48.82562" lon="-3.4913">
        <ele>2.6</ele>
        <time>2025-09-26T13:28:44Z</time>
      </trkpt>
      <trkpt lat="48.82561" lon="-3.49111">
        <ele>2.4</ele>
        <time>2025-09-26T13:28:50Z</time>
      </trkpt>
      <trkpt lat="48.8256" lon="-3.49081">
        <ele>2</ele>
        <time>2025-09-26T13:28:58Z</time>
      </trkpt>
      <trkpt lat="48.82557" lon="-3.49042">
        <ele>2</ele>
        <time>2025-09-26T13:29:07Z</time>
      </trkpt>
      <trkpt lat="48.8255" lon="-3.49006">
        <ele>2</ele>
        <time>2025-09-26T13:29:14Z</time>
      </trkpt>
      <trkpt lat="48.82535" lon="-3.48946">
        <ele>2.6</ele>
        <time>2025-09-26T13:29:24Z</time>
      </trkpt>
      <trkpt lat="48.82526" lon="-3.48908">
        <ele>3.4</ele>
        <time>2025-09-26T13:29:30Z</time>
      </trkpt>
      <trkpt lat="48.82525" lon="-3.48901">
        <ele>3.4</ele>
        <time>2025-09-26T13:29:31Z</time>
      </trkpt>
      <trkpt lat="48.8252" lon="-3.48881">
        <ele>4</ele>
        <time>2025-09-26T13:29:34Z</time>
      </trkpt>
      <trkpt lat="48.82516" lon="-3.48868">
        <ele>4.4</ele>
        <time>2025-09-26T13:29:36Z</time>
      </trkpt>
      <trkpt lat="48.82508" lon="-3.48842">
        <ele>5.2</ele>
        <time>2025-09-26T13:29:40Z</time>
      </trkpt>
      <trkpt lat="48.82507" lon="-3.48835">
        <ele>5.6</ele>
        <time>2025-09-26T13:29:41Z</time>
      </trkpt>
      <trkpt lat="48.825" lon="-3.4881">
        <ele>6.6</ele>
        <time>2025-09-26T13:29:45Z</time>
      </trkpt>
      <trkpt lat="48.82496" lon="-3.48798">
        <ele>6.8</ele>
        <time>2025-09-26T13:29:47Z</time>
      </trkpt>
      <trkpt lat="48.82491" lon="-3.4879">
        <ele>7.2</ele>
        <time>2025-09-26T13:29:49Z</time>
      </trkpt>
      <trkpt lat="48.82484" lon="-3.48788">
        <ele>7.8</ele>
        <time>2025-09-26T13:29:51Z</time>
      </trkpt>
      <trkpt lat="48.8248" lon="-3.48791">
        <ele>8</ele>
        <time>2025-09-26T13:29:52Z</time>
      </trkpt>
      <trkpt lat="48.82464" lon="-3.48809">
        <ele>8.8</ele>
        <time>2025-09-26T13:29:57Z</time>
      </trkpt>
      <trkpt lat="48.82458" lon="-3.48816">
        <ele>9.2</ele>
        <time>2025-09-26T13:29:59Z</time>
      </trkpt>
      <trkpt lat="48.82436" lon="-3.48842">
        <ele>10</ele>
        <time>2025-09-26T13:30:06Z</time>
      </trkpt>
      <trkpt lat="48.82409" lon="-3.48864">
        <ele>9.6</ele>
        <time>2025-09-26T13:30:13Z</time>
      </trkpt>
      <trkpt lat="48.82404" lon="-3.48866">
        <ele>9.6</ele>
        <time>2025-09-26T13:30:14Z</time>
      </trkpt>
      <trkpt lat="48.82376" lon="-3.48869">
        <ele>8.6</ele>
        <time>2025-09-26T13:30:19Z</time>
      </trkpt>
      <trkpt lat="48.82337" lon="-3.48873">
        <ele>7.6</ele>
        <time>2025-09-26T13:30:25Z</time>
      </trkpt>
      <trkpt lat="48.82308" lon="-3.48875">
        <ele>9.6</ele>
        <time>2025-09-26T13:30:31Z</time>
      </trkpt>
      <trkpt lat="48.82285" lon="-3.48875">
        <ele>10.8</ele>
        <time>2025-09-26T13:30:36Z</time>
      </trkpt>
      <trkpt lat="48.82272" lon="-3.48874">
        <ele>12</ele>
        <time>2025-09-26T13:30:39Z</time>
      </trkpt>
      <trkpt lat="48.82263" lon="-3.48873">
        <ele>12.2</ele>
        <time>2025-09-26T13:30:41Z</time>
      </trkpt>
      <trkpt lat="48.82246" lon="-3.4887">
        <ele>13.2</ele>
        <time>2025-09-26T13:30:45Z</time>
      </trkpt>
      <trkpt lat="48.82233" lon="-3.48869">
        <ele>14.2</ele>
        <time>2025-09-26T13:30:48Z</time>
      </trkpt>
      <trkpt lat="48.82225" lon="-3.4887">
        <ele>14.8</ele>
        <time>2025-09-26T13:30:50Z</time>
      </trkpt>
      <trkpt lat="48.8222" lon="-3.48872">
        <ele>15.4</ele>
        <time>2025-09-26T13:30:51Z</time>
      </trkpt>
      <trkpt lat="48.82216" lon="-3.48873">
        <ele>15.8</ele>
        <time>2025-09-26T13:30:52Z</time>
      </trkpt>
      <trkpt lat="48.82206" lon="-3.48881">
        <ele>16.4</ele>
        <time>2025-09-26T13:30:55Z</time>
      </trkpt>
      <trkpt lat="48.82204" lon="-3.48885">
        <ele>16.4</ele>
        <time>2025-09-26T13:30:56Z</time>
      </trkpt>
      <trkpt lat="48.82192" lon="-3.48907">
        <ele>17.8</ele>
        <time>2025-09-26T13:31:01Z</time>
      </trkpt>
      <trkpt lat="48.8219" lon="-3.48912">
        <ele>18</ele>
        <time>2025-09-26T13:31:02Z</time>
      </trkpt>
      <trkpt lat="48.82185" lon="-3.48921">
        <ele>19</ele>
        <time>2025-09-26T13:31:04Z</time>
      </trkpt>
      <trkpt lat="48.82171" lon="-3.48937">
        <ele>19.8</ele>
        <time>2025-09-26T13:31:08Z</time>
      </trkpt>
      <trkpt lat="48.82164" lon="-3.48942">
        <ele>20</ele>
        <time>2025-09-26T13:31:10Z</time>
      </trkpt>
      <trkpt lat="48.82159" lon="-3.48944">
        <ele>20</ele>
        <time>2025-09-26T13:31:11Z</time>
      </trkpt>
      <trkpt lat="48.82146" lon="-3.48948">
        <ele>20.2</ele>
        <time>2025-09-26T13:31:14Z</time>
      </trkpt>
      <trkpt lat="48.82142" lon="-3.48949">
        <ele>20.4</ele>
        <time>2025-09-26T13:31:15Z</time>
      </trkpt>
      <trkpt lat="48.82124" lon="-3.48949">
        <ele>21</ele>
        <time>2025-09-26T13:31:19Z</time>
      </trkpt>
      <trkpt lat="48.82111" lon="-3.4895">
        <ele>21.4</ele>
        <time>2025-09-26T13:31:22Z</time>
      </trkpt>
      <trkpt lat="48.8208" lon="-3.48952">
        <ele>22.2</ele>
        <time>2025-09-26T13:31:29Z</time>
      </trkpt>
      <trkpt lat="48.82076" lon="-3.48951">
        <ele>22.2</ele>
        <time>2025-09-26T13:31:30Z</time>
      </trkpt>
      <trkpt lat="48.82063" lon="-3.4895">
        <ele>22.8</ele>
        <time>2025-09-26T13:31:33Z</time>
      </trkpt>
      <trkpt lat="48.82051" lon="-3.48947">
        <ele>23.2</ele>
        <time>2025-09-26T13:31:36Z</time>
      </trkpt>
      <trkpt lat="48.82043" lon="-3.48944">
        <ele>24.2</ele>
        <time>2025-09-26T13:31:38Z</time>
      </trkpt>
      <trkpt lat="48.82039" lon="-3.48942">
        <ele>24.6</ele>
        <time>2025-09-26T13:31:39Z</time>
      </trkpt>
      <trkpt lat="48.82026" lon="-3.48935">
        <ele>25.8</ele>
        <time>2025-09-26T13:31:42Z</time>
      </trkpt>
      <trkpt lat="48.82021" lon="-3.48933">
        <ele>26</ele>
        <time>2025-09-26T13:31:43Z</time>
      </trkpt>
      <trkpt lat="48.82009" lon="-3.48929">
        <ele>26.8</ele>
        <time>2025-09-26T13:31:46Z</time>
      </trkpt>
      <trkpt lat="48.82004" lon="-3.48928">
        <ele>27</ele>
        <time>2025-09-26T13:31:47Z</time>
      </trkpt>
      <trkpt lat="48.81991" lon="-3.48924">
        <ele>27.8</ele>
        <time>2025-09-26T13:31:50Z</time>
      </trkpt>
      <trkpt lat="48.81973" lon="-3.48919">
        <ele>29.2</ele>
        <time>2025-09-26T13:31:54Z</time>
      </trkpt>
      <trkpt lat="48.81965" lon="-3.48915">
        <ele>29.6</ele>
        <time>2025-09-26T13:31:56Z</time>
      </trkpt>
      <trkpt lat="48.81939" lon="-3.48903">
        <ele>30.4</ele>
        <time>2025-09-26T13:32:02Z</time>
      </trkpt>
      <trkpt lat="48.81927" lon="-3.48899">
        <ele>30.8</ele>
        <time>2025-09-26T13:32:05Z</time>
      </trkpt>
      <trkpt lat="48.81915" lon="-3.48897">
        <ele>31</ele>
        <time>2025-09-26T13:32:08Z</time>
      </trkpt>
      <trkpt lat="48.81902" lon="-3.48896">
        <ele>31.4</ele>
        <time>2025-09-26T13:32:11Z</time>
      </trkpt>
      <trkpt lat="48.81898" lon="-3.48895">
        <ele>31.4</ele>
        <time>2025-09-26T13:32:12Z</time>
      </trkpt>
      <trkpt lat="48.81872" lon="-3.48893">
        <ele>32.6</ele>
        <time>2025-09-26T13:32:18Z</time>
      </trkpt>
      <trkpt lat="48.81846" lon="-3.48891">
        <ele>33.4</ele>
        <time>2025-09-26T13:32:24Z</time>
      </trkpt>
      <trkpt lat="48.81842" lon="-3.48891">
        <ele>33.6</ele>
        <time>2025-09-26T13:32:25Z</time>
      </trkpt>
      <trkpt lat="48.81828" lon="-3.48891">
        <ele>33.8</ele>
        <time>2025-09-26T13:32:28Z</time>
      </trkpt>
      <trkpt lat="48.81814" lon="-3.48893">
        <ele>34</ele>
        <time>2025-09-26T13:32:31Z</time>
      </trkpt>
      <trkpt lat="48.81792" lon="-3.48901">
        <ele>34.8</ele>
        <time>2025-09-26T13:32:36Z</time>
      </trkpt>
      <trkpt lat="48.81784" lon="-3.48905">
        <ele>35</ele>
        <time>2025-09-26T13:32:38Z</time>
      </trkpt>
      <trkpt lat="48.81765" lon="-3.4891">
        <ele>36</ele>
        <time>2025-09-26T13:32:42Z</time>
      </trkpt>
      <trkpt lat="48.81742" lon="-3.48914">
        <ele>36</ele>
        <time>2025-09-26T13:32:47Z</time>
      </trkpt>
      <trkpt lat="48.81708" lon="-3.48912">
        <ele>36.4</ele>
        <time>2025-09-26T13:32:54Z</time>
      </trkpt>
      <trkpt lat="48.81699" lon="-3.48909">
        <ele>36.4</ele>
        <time>2025-09-26T13:32:56Z</time>
      </trkpt>
      <trkpt lat="48.81672" lon="-3.48896">
        <ele>37.2</ele>
        <time>2025-09-26T13:33:02Z</time>
      </trkpt>
      <trkpt lat="48.81648" lon="-3.48889">
        <ele>38</ele>
        <time>2025-09-26T13:33:07Z</time>
      </trkpt>
      <trkpt lat="48.81643" lon="-3.48889">
        <ele>38.2</ele>
        <time>2025-09-26T13:33:08Z</time>
      </trkpt>
      <trkpt lat="48.81638" lon="-3.48889">
        <ele>38.4</ele>
        <time>2025-09-26T13:33:09Z</time>
      </trkpt>
      <trkpt lat="48.81624" lon="-3.4889">
        <ele>39.2</ele>
        <time>2025-09-26T13:33:12Z</time>
      </trkpt>
      <trkpt lat="48.81605" lon="-3.48888">
        <ele>40.2</ele>
        <time>2025-09-26T13:33:16Z</time>
      </trkpt>
      <trkpt lat="48.816" lon="-3.48888">
        <ele>40.4</ele>
        <time>2025-09-26T13:33:17Z</time>
      </trkpt>
      <trkpt lat="48.81571" lon="-3.48887">
        <ele>41.6</ele>
        <time>2025-09-26T13:33:23Z</time>
      </trkpt>
      <trkpt lat="48.81551" lon="-3.48888">
        <ele>42</ele>
        <time>2025-09-26T13:33:27Z</time>
      </trkpt>
      <trkpt lat="48.81505" lon="-3.48889">
        <ele>41.2</ele>
        <time>2025-09-26T13:33:36Z</time>
      </trkpt>
      <trkpt lat="48.815" lon="-3.48888">
        <ele>41.2</ele>
        <time>2025-09-26T13:33:37Z</time>
      </trkpt>
      <trkpt lat="48.81477" lon="-3.48883">
        <ele>41.6</ele>
        <time>2025-09-26T13:33:42Z</time>
      </trkpt>
      <trkpt lat="48.81468" lon="-3.48879">
        <ele>41.8</ele>
        <time>2025-09-26T13:33:44Z</time>
      </trkpt>
      <trkpt lat="48.81459" lon="-3.48875">
        <ele>42.2</ele>
        <time>2025-09-26T13:33:46Z</time>
      </trkpt>
      <trkpt lat="48.81447" lon="-3.48874">
        <ele>42.8</ele>
        <time>2025-09-26T13:33:49Z</time>
      </trkpt>
      <trkpt lat="48.81443" lon="-3.48874">
        <ele>43</ele>
        <time>2025-09-26T13:33:50Z</time>
      </trkpt>
      <trkpt lat="48.81426" lon="-3.48877">
        <ele>43.8</ele>
        <time>2025-09-26T13:33:54Z</time>
      </trkpt>
      <trkpt lat="48.81422" lon="-3.48877">
        <ele>44.2</ele>
        <time>2025-09-26T13:33:55Z</time>
      </trkpt>
      <trkpt lat="48.81414" lon="-3.48877">
        <ele>44.6</ele>
        <time>2025-09-26T13:33:57Z</time>
      </trkpt>
      <trkpt lat="48.81406" lon="-3.48876">
        <ele>45</ele>
        <time>2025-09-26T13:33:59Z</time>
      </trkpt>
      <trkpt lat="48.81388" lon="-3.48874">
        <ele>45.4</ele>
        <time>2025-09-26T13:34:04Z</time>
      </trkpt>
      <trkpt lat="48.81386" lon="-3.48871">
        <ele>45.6</ele>
        <time>2025-09-26T13:34:05Z</time>
      </trkpt>
      <trkpt lat="48.81383" lon="-3.48862">
        <ele>45.6</ele>
        <time>2025-09-26T13:34:07Z</time>
      </trkpt>
      <trkpt lat="48.81383" lon="-3.48835">
        <ele>45.4</ele>
        <time>2025-09-26T13:34:11Z</time>
      </trkpt>
      <trkpt lat="48.81378" lon="-3.4882">
        <ele>44.6</ele>
        <time>2025-09-26T13:34:13Z</time>
      </trkpt>
      <trkpt lat="48.81373" lon="-3.48814">
        <ele>44.2</ele>
        <time>2025-09-26T13:34:14Z</time>
      </trkpt>
      <trkpt lat="48.81368" lon="-3.4881">
        <ele>43.8</ele>
        <time>2025-09-26T13:34:15Z</time>
      </trkpt>
      <trkpt lat="48.81346" lon="-3.48793">
        <ele>42.6</ele>
        <time>2025-09-26T13:34:19Z</time>
      </trkpt>
      <trkpt lat="48.81342" lon="-3.48786">
        <ele>42.2</ele>
        <time>2025-09-26T13:34:20Z</time>
      </trkpt>
      <trkpt lat="48.8134" lon="-3.48777">
        <ele>41.8</ele>
        <time>2025-09-26T13:34:21Z</time>
      </trkpt>
      <trkpt lat="48.81339" lon="-3.48767">
        <ele>41.4</ele>
        <time>2025-09-26T13:34:22Z</time>
      </trkpt>
      <trkpt lat="48.81339" lon="-3.48756">
        <ele>41</ele>
        <time>2025-09-26T13:34:23Z</time>
      </trkpt>
      <trkpt lat="48.81341" lon="-3.48744">
        <ele>40</ele>
        <time>2025-09-26T13:34:24Z</time>
      </trkpt>
      <trkpt lat="48.81345" lon="-3.4872">
        <ele>38</ele>
        <time>2025-09-26T13:34:26Z</time>
      </trkpt>
      <trkpt lat="48.81347" lon="-3.48707">
        <ele>37.8</ele>
        <time>2025-09-26T13:34:27Z</time>
      </trkpt>
      <trkpt lat="48.81355" lon="-3.48683">
        <ele>36.8</ele>
        <time>2025-09-26T13:34:29Z</time>
      </trkpt>
      <trkpt lat="48.81364" lon="-3.48648">
        <ele>34.8</ele>
        <time>2025-09-26T13:34:32Z</time>
      </trkpt>
      <trkpt lat="48.81371" lon="-3.48624">
        <ele>33.6</ele>
        <time>2025-09-26T13:34:34Z</time>
      </trkpt>
      <trkpt lat="48.81383" lon="-3.48584">
        <ele>32</ele>
        <time>2025-09-26T13:34:37Z</time>
      </trkpt>
      <trkpt lat="48.81387" lon="-3.4857">
        <ele>31.2</ele>
        <time>2025-09-26T13:34:38Z</time>
      </trkpt>
      <trkpt lat="48.81392" lon="-3.48556">
        <ele>30.4</ele>
        <time>2025-09-26T13:34:39Z</time>
      </trkpt>
      <trkpt lat="48.81403" lon="-3.4853">
        <ele>28.4</ele>
        <time>2025-09-26T13:34:41Z</time>
      </trkpt>
      <trkpt lat="48.81414" lon="-3.48506">
        <ele>27</ele>
        <time>2025-09-26T13:34:43Z</time>
      </trkpt>
      <trkpt lat="48.81425" lon="-3.48484">
        <ele>25.6</ele>
        <time>2025-09-26T13:34:45Z</time>
      </trkpt>
      <trkpt lat="48.81436" lon="-3.48463">
        <ele>24.2</ele>
        <time>2025-09-26T13:34:47Z</time>
      </trkpt>
      <trkpt lat="48.81447" lon="-3.48442">
        <ele>22.8</ele>
        <time>2025-09-26T13:34:49Z</time>
      </trkpt>
      <trkpt lat="48.81463" lon="-3.4841">
        <ele>21.6</ele>
        <time>2025-09-26T13:34:52Z</time>
      </trkpt>
      <trkpt lat="48.81484" lon="-3.48368">
        <ele>20.4</ele>
        <time>2025-09-26T13:34:56Z</time>
      </trkpt>
      <trkpt lat="48.81489" lon="-3.48358">
        <ele>20.2</ele>
        <time>2025-09-26T13:34:57Z</time>
      </trkpt>
      <trkpt lat="48.81498" lon="-3.48336">
        <ele>18.8</ele>
        <time>2025-09-26T13:34:59Z</time>
      </trkpt>
      <trkpt lat="48.81513" lon="-3.48302">
        <ele>17.6</ele>
        <time>2025-09-26T13:35:02Z</time>
      </trkpt>
      <trkpt lat="48.81527" lon="-3.48275">
        <ele>17.6</ele>
        <time>2025-09-26T13:35:05Z</time>
      </trkpt>
      <trkpt lat="48.81542" lon="-3.4825">
        <ele>18.6</ele>
        <time>2025-09-26T13:35:09Z</time>
      </trkpt>
      <trkpt lat="48.81545" lon="-3.48245">
        <ele>19</ele>
        <time>2025-09-26T13:35:10Z</time>
      </trkpt>
      <trkpt lat="48.81554" lon="-3.48232">
        <ele>20.2</ele>
        <time>2025-09-26T13:35:13Z</time>
      </trkpt>
      <trkpt lat="48.81558" lon="-3.48228">
        <ele>20.4</ele>
        <time>2025-09-26T13:35:14Z</time>
      </trkpt>
      <trkpt lat="48.81561" lon="-3.48223">
        <ele>20.6</ele>
        <time>2025-09-26T13:35:15Z</time>
      </trkpt>
      <trkpt lat="48.81567" lon="-3.48212">
        <ele>21.2</ele>
        <time>2025-09-26T13:35:17Z</time>
      </trkpt>
      <trkpt lat="48.81576" lon="-3.48196">
        <ele>22.2</ele>
        <time>2025-09-26T13:35:20Z</time>
      </trkpt>
      <trkpt lat="48.81579" lon="-3.4819">
        <ele>22.6</ele>
        <time>2025-09-26T13:35:21Z</time>
      </trkpt>
      <trkpt lat="48.81582" lon="-3.48185">
        <ele>22.8</ele>
        <time>2025-09-26T13:35:22Z</time>
      </trkpt>
      <trkpt lat="48.81584" lon="-3.48179">
        <ele>23.2</ele>
        <time>2025-09-26T13:35:23Z</time>
      </trkpt>
      <trkpt lat="48.81587" lon="-3.48174">
        <ele>23.6</ele>
        <time>2025-09-26T13:35:24Z</time>
      </trkpt>
      <trkpt lat="48.81595" lon="-3.48159">
        <ele>25.2</ele>
        <time>2025-09-26T13:35:27Z</time>
      </trkpt>
      <trkpt lat="48.81601" lon="-3.48147">
        <ele>26.2</ele>
        <time>2025-09-26T13:35:29Z</time>
      </trkpt>
      <trkpt lat="48.81606" lon="-3.48134">
        <ele>27</ele>
        <time>2025-09-26T13:35:31Z</time>
      </trkpt>
      <trkpt lat="48.81609" lon="-3.48127">
        <ele>27.4</ele>
        <time>2025-09-26T13:35:32Z</time>
      </trkpt>
      <trkpt lat="48.81617" lon="-3.48099">
        <ele>29</ele>
        <time>2025-09-26T13:35:36Z</time>
      </trkpt>
      <trkpt lat="48.8162" lon="-3.48085">
        <ele>29.6</ele>
        <time>2025-09-26T13:35:38Z</time>
      </trkpt>
      <trkpt lat="48.81621" lon="-3.48078">
        <ele>30</ele>
        <time>2025-09-26T13:35:39Z</time>
      </trkpt>
      <trkpt lat="48.81625" lon="-3.4805">
        <ele>31.4</ele>
        <time>2025-09-26T13:35:43Z</time>
      </trkpt>
      <trkpt lat="48.81626" lon="-3.4803">
        <ele>32.6</ele>
        <time>2025-09-26T13:35:46Z</time>
      </trkpt>
      <trkpt lat="48.81626" lon="-3.48023">
        <ele>32.8</ele>
        <time>2025-09-26T13:35:47Z</time>
      </trkpt>
      <trkpt lat="48.81624" lon="-3.48003">
        <ele>33.8</ele>
        <time>2025-09-26T13:35:50Z</time>
      </trkpt>
      <trkpt lat="48.81623" lon="-3.47997">
        <ele>34.8</ele>
        <time>2025-09-26T13:35:51Z</time>
      </trkpt>
      <trkpt lat="48.81618" lon="-3.47978">
        <ele>36.4</ele>
        <time>2025-09-26T13:35:54Z</time>
      </trkpt>
      <trkpt lat="48.8161" lon="-3.47952">
        <ele>37.2</ele>
        <time>2025-09-26T13:35:58Z</time>
      </trkpt>
      <trkpt lat="48.81609" lon="-3.47946">
        <ele>37.4</ele>
        <time>2025-09-26T13:35:59Z</time>
      </trkpt>
      <trkpt lat="48.81607" lon="-3.47939">
        <ele>37.6</ele>
        <time>2025-09-26T13:36:00Z</time>
      </trkpt>
      <trkpt lat="48.81605" lon="-3.47909">
        <ele>37.4</ele>
        <time>2025-09-26T13:36:04Z</time>
      </trkpt>
      <trkpt lat="48.81605" lon="-3.47887">
        <ele>37.2</ele>
        <time>2025-09-26T13:36:07Z</time>
      </trkpt>
      <trkpt lat="48.81603" lon="-3.47851">
        <ele>37.6</ele>
        <time>2025-09-26T13:36:12Z</time>
      </trkpt>
      <trkpt lat="48.81602" lon="-3.47837">
        <ele>38</ele>
        <time>2025-09-26T13:36:14Z</time>
      </trkpt>
      <trkpt lat="48.81601" lon="-3.47815">
        <ele>38.6</ele>
        <time>2025-09-26T13:36:17Z</time>
      </trkpt>
      <trkpt lat="48.81601" lon="-3.47795">
        <ele>39</ele>
        <time>2025-09-26T13:36:20Z</time>
      </trkpt>
      <trkpt lat="48.816" lon="-3.47776">
        <ele>39.6</ele>
        <time>2025-09-26T13:36:23Z</time>
      </trkpt>
      <trkpt lat="48.816" lon="-3.4774">
        <ele>40.6</ele>
        <time>2025-09-26T13:36:29Z</time>
      </trkpt>
      <trkpt lat="48.816" lon="-3.47734">
        <ele>40.8</ele>
        <time>2025-09-26T13:36:30Z</time>
      </trkpt>
      <trkpt lat="48.81598" lon="-3.47715">
        <ele>41.6</ele>
        <time>2025-09-26T13:36:33Z</time>
      </trkpt>
      <trkpt lat="48.81598" lon="-3.47698">
        <ele>42.8</ele>
        <time>2025-09-26T13:36:36Z</time>
      </trkpt>
      <trkpt lat="48.81596" lon="-3.47681">
        <ele>44</ele>
        <time>2025-09-26T13:36:39Z</time>
      </trkpt>
      <trkpt lat="48.81595" lon="-3.47676">
        <ele>44.4</ele>
        <time>2025-09-26T13:36:40Z</time>
      </trkpt>
      <trkpt lat="48.81594" lon="-3.4766">
        <ele>45.4</ele>
        <time>2025-09-26T13:36:43Z</time>
      </trkpt>
      <trkpt lat="48.81592" lon="-3.47645">
        <ele>46.4</ele>
        <time>2025-09-26T13:36:46Z</time>
      </trkpt>
      <trkpt lat="48.81591" lon="-3.47635">
        <ele>47.2</ele>
        <time>2025-09-26T13:36:48Z</time>
      </trkpt>
      <trkpt lat="48.8159" lon="-3.47624">
        <ele>47.6</ele>
        <time>2025-09-26T13:36:50Z</time>
      </trkpt>
      <trkpt lat="48.81588" lon="-3.47608">
        <ele>48.6</ele>
        <time>2025-09-26T13:36:53Z</time>
      </trkpt>
      <trkpt lat="48.81586" lon="-3.47604">
        <ele>49.8</ele>
        <time>2025-09-26T13:36:54Z</time>
      </trkpt>
      <trkpt lat="48.81585" lon="-3.47599">
        <ele>50.2</ele>
        <time>2025-09-26T13:36:55Z</time>
      </trkpt>
      <trkpt lat="48.81581" lon="-3.47585">
        <ele>51</ele>
        <time>2025-09-26T13:36:58Z</time>
      </trkpt>
      <trkpt lat="48.81575" lon="-3.47571">
        <ele>52</ele>
        <time>2025-09-26T13:37:01Z</time>
      </trkpt>
      <trkpt lat="48.81573" lon="-3.47567">
        <ele>52.4</ele>
        <time>2025-09-26T13:37:02Z</time>
      </trkpt>
      <trkpt lat="48.81568" lon="-3.47556">
        <ele>53.6</ele>
        <time>2025-09-26T13:37:05Z</time>
      </trkpt>
      <trkpt lat="48.81564" lon="-3.47545">
        <ele>54.6</ele>
        <time>2025-09-26T13:37:08Z</time>
      </trkpt>
      <trkpt lat="48.81562" lon="-3.47541">
        <ele>55</ele>
        <time>2025-09-26T13:37:09Z</time>
      </trkpt>
      <trkpt lat="48.81563" lon="-3.47534">
        <ele>55.4</ele>
        <time>2025-09-26T13:37:11Z</time>
      </trkpt>
      <trkpt lat="48.81569" lon="-3.47534">
        <ele>56</ele>
        <time>2025-09-26T13:37:13Z</time>
      </trkpt>
      <trkpt lat="48.81576" lon="-3.47537">
        <ele>56.4</ele>
        <time>2025-09-26T13:37:15Z</time>
      </trkpt>
      <trkpt lat="48.81603" lon="-3.47554">
        <ele>55.4</ele>
        <time>2025-09-26T13:37:21Z</time>
      </trkpt>
      <trkpt lat="48.81609" lon="-3.47557">
        <ele>54.8</ele>
        <time>2025-09-26T13:37:22Z</time>
      </trkpt>
      <trkpt lat="48.8162" lon="-3.47563">
        <ele>54.2</ele>
        <time>2025-09-26T13:37:24Z</time>
      </trkpt>
      <trkpt lat="48.81624" lon="-3.47563">
        <ele>53.8</ele>
        <time>2025-09-26T13:37:25Z</time>
      </trkpt>
      <trkpt lat="48.81628" lon="-3.47562">
        <ele>53.2</ele>
        <time>2025-09-26T13:37:26Z</time>
      </trkpt>
      <trkpt lat="48.8163" lon="-3.47558">
        <ele>52.6</ele>
        <time>2025-09-26T13:37:27Z</time>
      </trkpt>
      <trkpt lat="48.81631" lon="-3.47554">
        <ele>52.6</ele>
        <time>2025-09-26T13:37:28Z</time>
      </trkpt>
      <trkpt lat="48.8163" lon="-3.47549">
        <ele>52.6</ele>
        <time>2025-09-26T13:37:29Z</time>
      </trkpt>
      <trkpt lat="48.81628" lon="-3.47526">
        <ele>54.4</ele>
        <time>2025-09-26T13:37:33Z</time>
      </trkpt>
      <trkpt lat="48.81628" lon="-3.47515">
        <ele>55.4</ele>
        <time>2025-09-26T13:37:35Z</time>
      </trkpt>
      <trkpt lat="48.81627" lon="-3.47509">
        <ele>55.6</ele>
        <time>2025-09-26T13:37:36Z</time>
      </trkpt>
      <trkpt lat="48.81627" lon="-3.47498">
        <ele>56.6</ele>
        <time>2025-09-26T13:37:38Z</time>
      </trkpt>
      <trkpt lat="48.81627" lon="-3.4747">
        <ele>57.8</ele>
        <time>2025-09-26T13:37:43Z</time>
      </trkpt>
      <trkpt lat="48.81627" lon="-3.47459">
        <ele>58.4</ele>
        <time>2025-09-26T13:37:45Z</time>
      </trkpt>
      <trkpt lat="48.81628" lon="-3.47443">
        <ele>58.8</ele>
        <time>2025-09-26T13:37:48Z</time>
      </trkpt>
      <trkpt lat="48.81631" lon="-3.47414">
        <ele>59.4</ele>
        <time>2025-09-26T13:37:53Z</time>
      </trkpt>
      <trkpt lat="48.81633" lon="-3.4739">
        <ele>60</ele>
        <time>2025-09-26T13:37:57Z</time>
      </trkpt>
      <trkpt lat="48.81638" lon="-3.47363">
        <ele>61.2</ele>
        <time>2025-09-26T13:38:02Z</time>
      </trkpt>
      <trkpt lat="48.81649" lon="-3.47328">
        <ele>62.2</ele>
        <time>2025-09-26T13:38:09Z</time>
      </trkpt>
      <trkpt lat="48.81653" lon="-3.47319">
        <ele>62.6</ele>
        <time>2025-09-26T13:38:11Z</time>
      </trkpt>
      <trkpt lat="48.81663" lon="-3.47296">
        <ele>63.4</ele>
        <time>2025-09-26T13:38:17Z</time>
      </trkpt>
      <trkpt lat="48.81664" lon="-3.47292">
        <ele>63.4</ele>
        <time>2025-09-26T13:38:18Z</time>
      </trkpt>
      <trkpt lat="48.81667" lon="-3.47276">
        <ele>63</ele>
        <time>2025-09-26T13:38:23Z</time>
      </trkpt>
      <trkpt lat="48.81669" lon="-3.47256">
        <ele>63.4</ele>
        <time>2025-09-26T13:38:27Z</time>
      </trkpt>
      <trkpt lat="48.81669" lon="-3.47235">
        <ele>63.8</ele>
        <time>2025-09-26T13:38:31Z</time>
      </trkpt>
      <trkpt lat="48.81668" lon="-3.4723">
        <ele>64</ele>
        <time>2025-09-26T13:38:32Z</time>
      </trkpt>
      <trkpt lat="48.81658" lon="-3.47214">
        <ele>64.2</ele>
        <time>2025-09-26T13:38:36Z</time>
      </trkpt>
      <trkpt lat="48.8163" lon="-3.47198">
        <ele>64.2</ele>
        <time>2025-09-26T13:38:43Z</time>
      </trkpt>
      <trkpt lat="48.81604" lon="-3.47177">
        <ele>63.8</ele>
        <time>2025-09-26T13:38:49Z</time>
      </trkpt>
      <trkpt lat="48.81561" lon="-3.47138">
        <ele>64.2</ele>
        <time>2025-09-26T13:38:59Z</time>
      </trkpt>
      <trkpt lat="48.81543" lon="-3.47112">
        <ele>64.4</ele>
        <time>2025-09-26T13:39:04Z</time>
      </trkpt>
      <trkpt lat="48.81541" lon="-3.47106">
        <ele>64.4</ele>
        <time>2025-09-26T13:39:05Z</time>
      </trkpt>
      <trkpt lat="48.81526" lon="-3.47067">
        <ele>63.8</ele>
        <time>2025-09-26T13:39:11Z</time>
      </trkpt>
      <trkpt lat="48.81521" lon="-3.47053">
        <ele>63.4</ele>
        <time>2025-09-26T13:39:13Z</time>
      </trkpt>
      <trkpt lat="48.81519" lon="-3.47047">
        <ele>63.2</ele>
        <time>2025-09-26T13:39:14Z</time>
      </trkpt>
      <trkpt lat="48.81495" lon="-3.46985">
        <ele>62.2</ele>
        <time>2025-09-26T13:39:23Z</time>
      </trkpt>
      <trkpt lat="48.81492" lon="-3.46978">
        <ele>62.2</ele>
        <time>2025-09-26T13:39:24Z</time>
      </trkpt>
      <trkpt lat="48.81489" lon="-3.46971">
        <ele>62</ele>
        <time>2025-09-26T13:39:25Z</time>
      </trkpt>
      <trkpt lat="48.81478" lon="-3.46943">
        <ele>61.8</ele>
        <time>2025-09-26T13:39:29Z</time>
      </trkpt>
      <trkpt lat="48.81461" lon="-3.46899">
        <ele>61.2</ele>
        <time>2025-09-26T13:39:35Z</time>
      </trkpt>
      <trkpt lat="48.81457" lon="-3.46893">
        <ele>61.2</ele>
        <time>2025-09-26T13:39:36Z</time>
      </trkpt>
      <trkpt lat="48.81453" lon="-3.46887">
        <ele>61.2</ele>
        <time>2025-09-26T13:39:37Z</time>
      </trkpt>
      <trkpt lat="48.81448" lon="-3.46882">
        <ele>61.2</ele>
        <time>2025-09-26T13:39:38Z</time>
      </trkpt>
      <trkpt lat="48.81438" lon="-3.46876">
        <ele>61</ele>
        <time>2025-09-26T13:39:40Z</time>
      </trkpt>
      <trkpt lat="48.81433" lon="-3.46875">
        <ele>60.8</ele>
        <time>2025-09-26T13:39:41Z</time>
      </trkpt>
      <trkpt lat="48.81419" lon="-3.46871">
        <ele>59.8</ele>
        <time>2025-09-26T13:39:45Z</time>
      </trkpt>
      <trkpt lat="48.81407" lon="-3.46871">
        <ele>59.4</ele>
        <time>2025-09-26T13:39:50Z</time>
      </trkpt>
      <trkpt lat="48.81395" lon="-3.46872">
        <ele>59</ele>
        <time>2025-09-26T13:39:53Z</time>
      </trkpt>
      <trkpt lat="48.81389" lon="-3.46873">
        <ele>58.8</ele>
        <time>2025-09-26T13:39:54Z</time>
      </trkpt>
      <trkpt lat="48.81384" lon="-3.46874">
        <ele>58.4</ele>
        <time>2025-09-26T13:39:55Z</time>
      </trkpt>
      <trkpt lat="48.81373" lon="-3.46875">
        <ele>57.6</ele>
        <time>2025-09-26T13:39:57Z</time>
      </trkpt>
      <trkpt lat="48.81361" lon="-3.46874">
        <ele>57.4</ele>
        <time>2025-09-26T13:39:59Z</time>
      </trkpt>
      <trkpt lat="48.81355" lon="-3.46874">
        <ele>57.2</ele>
        <time>2025-09-26T13:40:00Z</time>
      </trkpt>
      <trkpt lat="48.81344" lon="-3.46878">
        <ele>57.2</ele>
        <time>2025-09-26T13:40:02Z</time>
      </trkpt>
      <trkpt lat="48.8134" lon="-3.46883">
        <ele>57.2</ele>
        <time>2025-09-26T13:40:03Z</time>
      </trkpt>
      <trkpt lat="48.81331" lon="-3.46898">
        <ele>57.4</ele>
        <time>2025-09-26T13:40:06Z</time>
      </trkpt>
      <trkpt lat="48.81324" lon="-3.46907">
        <ele>58</ele>
        <time>2025-09-26T13:40:08Z</time>
      </trkpt>
      <trkpt lat="48.8131" lon="-3.46925">
        <ele>58.6</ele>
        <time>2025-09-26T13:40:12Z</time>
      </trkpt>
      <trkpt lat="48.813" lon="-3.46937">
        <ele>59.8</ele>
        <time>2025-09-26T13:40:15Z</time>
      </trkpt>
      <trkpt lat="48.81296" lon="-3.46941">
        <ele>60.2</ele>
        <time>2025-09-26T13:40:16Z</time>
      </trkpt>
      <trkpt lat="48.81289" lon="-3.46949">
        <ele>61</ele>
        <time>2025-09-26T13:40:18Z</time>
      </trkpt>
      <trkpt lat="48.81276" lon="-3.46966">
        <ele>62</ele>
        <time>2025-09-26T13:40:22Z</time>
      </trkpt>
      <trkpt lat="48.81269" lon="-3.46975">
        <ele>63.2</ele>
        <time>2025-09-26T13:40:24Z</time>
      </trkpt>
      <trkpt lat="48.81246" lon="-3.47002">
        <ele>64.2</ele>
        <time>2025-09-26T13:40:30Z</time>
      </trkpt>
      <trkpt lat="48.81236" lon="-3.47014">
        <ele>64.6</ele>
        <time>2025-09-26T13:40:33Z</time>
      </trkpt>
      <trkpt lat="48.81221" lon="-3.47029">
        <ele>65.2</ele>
        <time>2025-09-26T13:40:37Z</time>
      </trkpt>
      <trkpt lat="48.81213" lon="-3.47031">
        <ele>65.4</ele>
        <time>2025-09-26T13:40:39Z</time>
      </trkpt>
      <trkpt lat="48.81202" lon="-3.47031">
        <ele>66.4</ele>
        <time>2025-09-26T13:40:42Z</time>
      </trkpt>
      <trkpt lat="48.81191" lon="-3.47027">
        <ele>67</ele>
        <time>2025-09-26T13:40:45Z</time>
      </trkpt>
      <trkpt lat="48.81188" lon="-3.47025">
        <ele>67.4</ele>
        <time>2025-09-26T13:40:46Z</time>
      </trkpt>
      <trkpt lat="48.81176" lon="-3.47012">
        <ele>68.8</ele>
        <time>2025-09-26T13:40:50Z</time>
      </trkpt>
      <trkpt lat="48.81165" lon="-3.47">
        <ele>70</ele>
        <time>2025-09-26T13:40:54Z</time>
      </trkpt>
      <trkpt lat="48.81156" lon="-3.46992">
        <ele>70.4</ele>
        <time>2025-09-26T13:40:57Z</time>
      </trkpt>
      <trkpt lat="48.81153" lon="-3.46992">
        <ele>70.6</ele>
        <time>2025-09-26T13:40:58Z</time>
      </trkpt>
      <trkpt lat="48.81147" lon="-3.46995">
        <ele>71</ele>
        <time>2025-09-26T13:41:00Z</time>
      </trkpt>
      <trkpt lat="48.81139" lon="-3.47004">
        <ele>71.4</ele>
        <time>2025-09-26T13:41:03Z</time>
      </trkpt>
      <trkpt lat="48.81127" lon="-3.4702">
        <ele>72</ele>
        <time>2025-09-26T13:41:08Z</time>
      </trkpt>
      <trkpt lat="48.81123" lon="-3.47027">
        <ele>72</ele>
        <time>2025-09-26T13:41:10Z</time>
      </trkpt>
      <trkpt lat="48.81113" lon="-3.47044">
        <ele>71.8</ele>
        <time>2025-09-26T13:41:16Z</time>
      </trkpt>
      <trkpt lat="48.81107" lon="-3.47052">
        <ele>71</ele>
        <time>2025-09-26T13:41:19Z</time>
      </trkpt>
      <trkpt lat="48.81104" lon="-3.47053">
        <ele>70.8</ele>
        <time>2025-09-26T13:41:20Z</time>
      </trkpt>
      <trkpt lat="48.81089" lon="-3.47043">
        <ele>70</ele>
        <time>2025-09-26T13:41:26Z</time>
      </trkpt>
      <trkpt lat="48.8108" lon="-3.47036">
        <ele>70</ele>
        <time>2025-09-26T13:41:30Z</time>
      </trkpt>
      <trkpt lat="48.81078" lon="-3.47035">
        <ele>70</ele>
        <time>2025-09-26T13:41:31Z</time>
      </trkpt>
      <trkpt lat="48.81075" lon="-3.47036">
        <ele>70</ele>
        <time>2025-09-26T13:41:32Z</time>
      </trkpt>
      <trkpt lat="48.81072" lon="-3.47036">
        <ele>69.8</ele>
        <time>2025-09-26T13:41:33Z</time>
      </trkpt>
      <trkpt lat="48.81065" lon="-3.47036">
        <ele>69.6</ele>
        <time>2025-09-26T13:41:35Z</time>
      </trkpt>
      <trkpt lat="48.81062" lon="-3.47035">
        <ele>69.4</ele>
        <time>2025-09-26T13:41:36Z</time>
      </trkpt>
      <trkpt lat="48.81056" lon="-3.47037">
        <ele>69.4</ele>
        <time>2025-09-26T13:41:38Z</time>
      </trkpt>
      <trkpt lat="48.81051" lon="-3.47044">
        <ele>69.4</ele>
        <time>2025-09-26T13:41:40Z</time>
      </trkpt>
      <trkpt lat="48.81048" lon="-3.47072">
        <ele>68.8</ele>
        <time>2025-09-26T13:41:45Z</time>
      </trkpt>
      <trkpt lat="48.81039" lon="-3.47092">
        <ele>68.6</ele>
        <time>2025-09-26T13:41:49Z</time>
      </trkpt>
      <trkpt lat="48.81019" lon="-3.47099">
        <ele>68.8</ele>
        <time>2025-09-26T13:41:54Z</time>
      </trkpt>
      <trkpt lat="48.80991" lon="-3.47101">
        <ele>69</ele>
        <time>2025-09-26T13:42:01Z</time>
      </trkpt>
      <trkpt lat="48.80959" lon="-3.47101">
        <ele>69.6</ele>
        <time>2025-09-26T13:42:09Z</time>
      </trkpt>
      <trkpt lat="48.80938" lon="-3.47098">
        <ele>69.8</ele>
        <time>2025-09-26T13:42:15Z</time>
      </trkpt>
      <trkpt lat="48.80931" lon="-3.47097">
        <ele>69.8</ele>
        <time>2025-09-26T13:42:17Z</time>
      </trkpt>
      <trkpt lat="48.80912" lon="-3.47087">
        <ele>70.2</ele>
        <time>2025-09-26T13:42:23Z</time>
      </trkpt>
      <trkpt lat="48.8089" lon="-3.47072">
        <ele>70.8</ele>
        <time>2025-09-26T13:42:30Z</time>
      </trkpt>
      <trkpt lat="48.80885" lon="-3.47073">
        <ele>70.8</ele>
        <time>2025-09-26T13:42:32Z</time>
      </trkpt>
      <trkpt lat="48.80884" lon="-3.47075">
        <ele>70.8</ele>
        <time>2025-09-26T13:42:33Z</time>
      </trkpt>
      <trkpt lat="48.80883" lon="-3.47078">
        <ele>70.6</ele>
        <time>2025-09-26T13:42:37Z</time>
      </trkpt>
      <trkpt lat="48.80883" lon="-3.47078">
        <ele>70.8</ele>
        <time>2025-09-26T13:42:42Z</time>
      </trkpt>
      <trkpt lat="48.80883" lon="-3.47077">
        <ele>70.8</ele>
        <time>2025-09-26T13:42:47Z</time>
      </trkpt>
      <trkpt lat="48.80883" lon="-3.47078">
        <ele>70.4</ele>
        <time>2025-09-26T13:43:00Z</time>
      </trkpt>
      <trkpt lat="48.80883" lon="-3.47078">
        <ele>70.4</ele>
        <time>2025-09-26T13:43:02Z</time>
      </trkpt>
      <trkpt lat="48.80883" lon="-3.47078">
        <ele>70.6</ele>
        <time>2025-09-26T13:43:08Z</time>
      </trkpt>
      <trkpt lat="48.80883" lon="-3.47078">
        <ele>70.6</ele>
        <time>2025-09-26T13:43:11Z</time>
      </trkpt>
      <trkpt lat="48.80883" lon="-3.47078">
        <ele>70.6</ele>
        <time>2025-09-26T13:43:14Z</time>
      </trkpt>
      <trkpt lat="48.80883" lon="-3.47079">
        <ele>70.6</ele>
        <time>2025-09-26T13:43:15Z</time>
      </trkpt>
      <trkpt lat="48.80883" lon="-3.4708">
        <ele>70.8</ele>
        <time>2025-09-26T13:43:17Z</time>
      </trkpt>
      <trkpt lat="48.80883" lon="-3.4708">
        <ele>70.6</ele>
        <time>2025-09-26T13:43:19Z</time>
      </trkpt>
      <trkpt lat="48.80883" lon="-3.4708">
        <ele>70.6</ele>
        <time>2025-09-26T13:43:21Z</time>
      </trkpt>
      <trkpt lat="48.80883" lon="-3.4708">
        <ele>70.2</ele>
        <time>2025-09-26T13:43:30Z</time>
      </trkpt>
      <trkpt lat="48.80883" lon="-3.4708">
        <ele>70.2</ele>
        <time>2025-09-26T13:43:31Z</time>
      </trkpt>
      <trkpt lat="48.80883" lon="-3.4708">
        <ele>69.8</ele>
        <time>2025-09-26T13:43:33Z</time>
      </trkpt>
      <trkpt lat="48.80883" lon="-3.4708">
        <ele>69.8</ele>
        <time>2025-09-26T13:43:37Z</time>
      </trkpt>
      <trkpt lat="48.80883" lon="-3.4708">
        <ele>69.8</ele>
        <time>2025-09-26T13:43:38Z</time>
      </trkpt>
      <trkpt lat="48.80883" lon="-3.4708">
        <ele>69.8</ele>
        <time>2025-09-26T13:43:42Z</time>
      </trkpt>
      <trkpt lat="48.80883" lon="-3.47081">
        <ele>70.2</ele>
        <time>2025-09-26T13:43:43Z</time>
      </trkpt>
      <trkpt lat="48.80883" lon="-3.47081">
        <ele>70.6</ele>
        <time>2025-09-26T13:43:49Z</time>
      </trkpt>
      <trkpt lat="48.80883" lon="-3.47081">
        <ele>70.6</ele>
        <time>2025-09-26T13:43:52Z</time>
      </trkpt>
      <trkpt lat="48.80883" lon="-3.47081">
        <ele>70.6</ele>
        <time>2025-09-26T13:43:53Z</time>
      </trkpt>
      <trkpt lat="48.80883" lon="-3.47086">
        <ele>70.4</ele>
        <time>2025-09-26T13:43:57Z</time>
      </trkpt>
      <trkpt lat="48.80882" lon="-3.47092">
        <ele>70.4</ele>
        <time>2025-09-26T13:44:00Z</time>
      </trkpt>
      <trkpt lat="48.80881" lon="-3.47108">
        <ele>70.4</ele>
        <time>2025-09-26T13:44:08Z</time>
      </trkpt>
      <trkpt lat="48.8088" lon="-3.47115">
        <ele>70.4</ele>
        <time>2025-09-26T13:44:14Z</time>
      </trkpt>
      <trkpt lat="48.8088" lon="-3.47115">
        <ele>70.4</ele>
        <time>2025-09-26T13:44:20Z</time>
      </trkpt>
      <trkpt lat="48.8088" lon="-3.47117">
        <ele>70.6</ele>
        <time>2025-09-26T13:44:21Z</time>
      </trkpt>
      <trkpt lat="48.80882" lon="-3.47124">
        <ele>70.6</ele>
        <time>2025-09-26T13:44:25Z</time>
      </trkpt>
      <trkpt lat="48.80882" lon="-3.47125">
        <ele>70.6</ele>
        <time>2025-09-26T13:44:26Z</time>
      </trkpt>
      <trkpt lat="48.80882" lon="-3.47125">
        <ele>70.4</ele>
        <time>2025-09-26T13:44:32Z</time>
      </trkpt>
      <trkpt lat="48.80882" lon="-3.47125">
        <ele>70</ele>
        <time>2025-09-26T13:44:43Z</time>
      </trkpt>
      <trkpt lat="48.80882" lon="-3.47126">
        <ele>70</ele>
        <time>2025-09-26T13:44:57Z</time>
      </trkpt>
      <trkpt lat="48.80882" lon="-3.47125">
        <ele>70</ele>
        <time>2025-09-26T13:45:07Z</time>
      </trkpt>
      <trkpt lat="48.80882" lon="-3.47125">
        <ele>70</ele>
        <time>2025-09-26T13:45:15Z</time>
      </trkpt>
      <trkpt lat="48.80882" lon="-3.47125">
        <ele>70</ele>
        <time>2025-09-26T13:45:23Z</time>
      </trkpt>
      <trkpt lat="48.80882" lon="-3.47125">
        <ele>70</ele>
        <time>2025-09-26T13:45:33Z</time>
      </trkpt>
      <trkpt lat="48.80882" lon="-3.47125">
        <ele>70</ele>
        <time>2025-09-26T13:45:49Z</time>
      </trkpt>
      <trkpt lat="48.80882" lon="-3.47125">
        <ele>70</ele>
        <time>2025-09-26T13:45:52Z</time>
      </trkpt>
      <trkpt lat="48.80882" lon="-3.47125">
        <ele>70</ele>
        <time>2025-09-26T13:46:01Z</time>
      </trkpt>
      <trkpt lat="48.80882" lon="-3.47125">
        <ele>70</ele>
        <time>2025-09-26T13:46:06Z</time>
      </trkpt>
      <trkpt lat="48.80882" lon="-3.47125">
        <ele>70</ele>
        <time>2025-09-26T13:46:20Z</time>
      </trkpt>
      <trkpt lat="48.80882" lon="-3.47125">
        <ele>70</ele>
        <time>2025-09-26T13:46:29Z</time>
      </trkpt>
      <trkpt lat="48.80882" lon="-3.47125">
        <ele>70</ele>
        <time>2025-09-26T13:46:31Z</time>
      </trkpt>
      <trkpt lat="48.80882" lon="-3.47125">
        <ele>70</ele>
        <time>2025-09-26T13:46:32Z</time>
      </trkpt>
      <trkpt lat="48.80882" lon="-3.47125">
        <ele>70</ele>
        <time>2025-09-26T13:46:35Z</time>
      </trkpt>
      <trkpt lat="48.80882" lon="-3.47125">
        <ele>70</ele>
        <time>2025-09-26T13:46:46Z</time>
      </trkpt>
      <trkpt lat="48.80882" lon="-3.47125">
        <ele>70</ele>
        <time>2025-09-26T13:46:47Z</time>
      </trkpt>
      <trkpt lat="48.80882" lon="-3.47125">
        <ele>70</ele>
        <time>2025-09-26T13:46:48Z</time>
      </trkpt>
      <trkpt lat="48.80882" lon="-3.47125">
        <ele>70</ele>
        <time>2025-09-26T13:46:49Z</time>
      </trkpt>
      <trkpt lat="48.80882" lon="-3.47125">
        <ele>70</ele>
        <time>2025-09-26T13:46:53Z</time>
      </trkpt>
      <trkpt lat="48.80882" lon="-3.47125">
        <ele>70</ele>
        <time>2025-09-26T13:46:54Z</time>
      </trkpt>
      <trkpt lat="48.80882" lon="-3.47125">
        <ele>70</ele>
        <time>2025-09-26T13:46:56Z</time>
      </trkpt>
      <trkpt lat="48.80882" lon="-3.47125">
        <ele>70</ele>
        <time>2025-09-26T13:47:05Z</time>
      </trkpt>
      <trkpt lat="48.80882" lon="-3.47125">
        <ele>70</ele>
        <time>2025-09-26T13:47:07Z</time>
      </trkpt>
      <trkpt lat="48.80882" lon="-3.47125">
        <ele>70</ele>
        <time>2025-09-26T13:47:12Z</time>
      </trkpt>
      <trkpt lat="48.80882" lon="-3.47125">
        <ele>70</ele>
        <time>2025-09-26T13:47:14Z</time>
      </trkpt>
      <trkpt lat="48.80882" lon="-3.47125">
        <ele>70</ele>
        <time>2025-09-26T13:47:23Z</time>
      </trkpt>
      <trkpt lat="48.80882" lon="-3.47124">
        <ele>70</ele>
        <time>2025-09-26T13:47:26Z</time>
      </trkpt>
      <trkpt lat="48.80882" lon="-3.47124">
        <ele>70</ele>
        <time>2025-09-26T13:47:29Z</time>
      </trkpt>
      <trkpt lat="48.80882" lon="-3.47124">
        <ele>70</ele>
        <time>2025-09-26T13:47:34Z</time>
      </trkpt>
      <trkpt lat="48.80882" lon="-3.47124">
        <ele>70</ele>
        <time>2025-09-26T13:47:37Z</time>
      </trkpt>
      <trkpt lat="48.80882" lon="-3.47124">
        <ele>70</ele>
        <time>2025-09-26T13:47:43Z</time>
      </trkpt>
      <trkpt lat="48.80882" lon="-3.47124">
        <ele>70</ele>
        <time>2025-09-26T13:47:48Z</time>
      </trkpt>
      <trkpt lat="48.80882" lon="-3.47124">
        <ele>70</ele>
        <time>2025-09-26T13:47:50Z</time>
      </trkpt>
      <trkpt lat="48.80881" lon="-3.47124">
        <ele>70</ele>
        <time>2025-09-26T13:47:53Z</time>
      </trkpt>
      <trkpt lat="48.80881" lon="-3.47124">
        <ele>70</ele>
        <time>2025-09-26T13:48:03Z</time>
      </trkpt>
      <trkpt lat="48.80881" lon="-3.47124">
        <ele>70</ele>
        <time>2025-09-26T13:48:12Z</time>
      </trkpt>
      <trkpt lat="48.80881" lon="-3.47124">
        <ele>70</ele>
        <time>2025-09-26T13:48:18Z</time>
      </trkpt>
      <trkpt lat="48.80881" lon="-3.47124">
        <ele>70</ele>
        <time>2025-09-26T13:48:24Z</time>
      </trkpt>
      <trkpt lat="48.80881" lon="-3.47124">
        <ele>70</ele>
        <time>2025-09-26T13:48:36Z</time>
      </trkpt>
      <trkpt lat="48.80881" lon="-3.47124">
        <ele>70</ele>
        <time>2025-09-26T13:48:49Z</time>
      </trkpt>
      <trkpt lat="48.80881" lon="-3.47124">
        <ele>70</ele>
        <time>2025-09-26T13:48:58Z</time>
      </trkpt>
      <trkpt lat="48.80881" lon="-3.47124">
        <ele>70</ele>
        <time>2025-09-26T13:49:07Z</time>
      </trkpt>
      <trkpt lat="48.80881" lon="-3.47124">
        <ele>70</ele>
        <time>2025-09-26T13:49:18Z</time>
      </trkpt>
      <trkpt lat="48.80881" lon="-3.47123">
        <ele>70</ele>
        <time>2025-09-26T13:49:29Z</time>
      </trkpt>
      <trkpt lat="48.80881" lon="-3.47123">
        <ele>70</ele>
        <time>2025-09-26T13:49:32Z</time>
      </trkpt>
      <trkpt lat="48.80882" lon="-3.47123">
        <ele>70</ele>
        <time>2025-09-26T13:49:39Z</time>
      </trkpt>
      <trkpt lat="48.80882" lon="-3.47123">
        <ele>70</ele>
        <time>2025-09-26T13:49:46Z</time>
      </trkpt>
      <trkpt lat="48.80882" lon="-3.47123">
        <ele>70</ele>
        <time>2025-09-26T13:49:52Z</time>
      </trkpt>
      <trkpt lat="48.80882" lon="-3.47123">
        <ele>70</ele>
        <time>2025-09-26T13:49:55Z</time>
      </trkpt>
      <trkpt lat="48.80882" lon="-3.47123">
        <ele>70</ele>
        <time>2025-09-26T13:49:58Z</time>
      </trkpt>
      <trkpt lat="48.80882" lon="-3.47123">
        <ele>70</ele>
        <time>2025-09-26T13:50:06Z</time>
      </trkpt>
      <trkpt lat="48.80882" lon="-3.47123">
        <ele>70</ele>
        <time>2025-09-26T13:50:10Z</time>
      </trkpt>
      <trkpt lat="48.80882" lon="-3.47123">
        <ele>70</ele>
        <time>2025-09-26T13:50:15Z</time>
      </trkpt>
      <trkpt lat="48.80882" lon="-3.47123">
        <ele>70</ele>
        <time>2025-09-26T13:50:17Z</time>
      </trkpt>
      <trkpt lat="48.80882" lon="-3.47123">
        <ele>70</ele>
        <time>2025-09-26T13:50:30Z</time>
      </trkpt>
      <trkpt lat="48.80882" lon="-3.47122">
        <ele>70</ele>
        <time>2025-09-26T13:50:52Z</time>
      </trkpt>
      <trkpt lat="48.80882" lon="-3.47124">
        <ele>70</ele>
        <time>2025-09-26T13:50:56Z</time>
      </trkpt>
      <trkpt lat="48.80882" lon="-3.47124">
        <ele>70</ele>
        <time>2025-09-26T13:51:08Z</time>
      </trkpt>
      <trkpt lat="48.80882" lon="-3.47124">
        <ele>70</ele>
        <time>2025-09-26T13:51:11Z</time>
      </trkpt>
      <trkpt lat="48.80882" lon="-3.47124">
        <ele>70</ele>
        <time>2025-09-26T13:51:30Z</time>
      </trkpt>
      <trkpt lat="48.80882" lon="-3.47123">
        <ele>70</ele>
        <time>2025-09-26T13:51:41Z</time>
      </trkpt>
      <trkpt lat="48.80882" lon="-3.47123">
        <ele>70</ele>
        <time>2025-09-26T13:51:51Z</time>
      </trkpt>
      <trkpt lat="48.80882" lon="-3.47124">
        <ele>70</ele>
        <time>2025-09-26T13:51:52Z</time>
      </trkpt>
      <trkpt lat="48.80882" lon="-3.47123">
        <ele>70</ele>
        <time>2025-09-26T13:51:53Z</time>
      </trkpt>
      <trkpt lat="48.80881" lon="-3.47124">
        <ele>70</ele>
        <time>2025-09-26T13:51:54Z</time>
      </trkpt>
      <trkpt lat="48.80881" lon="-3.47124">
        <ele>70</ele>
        <time>2025-09-26T13:51:58Z</time>
      </trkpt>
      <trkpt lat="48.80881" lon="-3.47124">
        <ele>70</ele>
        <time>2025-09-26T13:52:06Z</time>
      </trkpt>
      <trkpt lat="48.80881" lon="-3.47124">
        <ele>70</ele>
        <time>2025-09-26T13:52:08Z</time>
      </trkpt>
      <trkpt lat="48.80881" lon="-3.47124">
        <ele>70</ele>
        <time>2025-09-26T13:52:10Z</time>
      </trkpt>
      <trkpt lat="48.80881" lon="-3.47125">
        <ele>70</ele>
        <time>2025-09-26T13:52:16Z</time>
      </trkpt>
      <trkpt lat="48.80881" lon="-3.47125">
        <ele>70</ele>
        <time>2025-09-26T13:52:28Z</time>
      </trkpt>
      <trkpt lat="48.80881" lon="-3.47125">
        <ele>70</ele>
        <time>2025-09-26T13:52:31Z</time>
      </trkpt>
      <trkpt lat="48.80881" lon="-3.47125">
        <ele>70</ele>
        <time>2025-09-26T13:52:41Z</time>
      </trkpt>
      <trkpt lat="48.80881" lon="-3.47125">
        <ele>70</ele>
        <time>2025-09-26T13:52:42Z</time>
      </trkpt>
      <trkpt lat="48.80881" lon="-3.47124">
        <ele>70</ele>
        <time>2025-09-26T13:52:44Z</time>
      </trkpt>
      <trkpt lat="48.80881" lon="-3.47124">
        <ele>70</ele>
        <time>2025-09-26T13:52:45Z</time>
      </trkpt>
      <trkpt lat="48.80881" lon="-3.47124">
        <ele>70</ele>
        <time>2025-09-26T13:52:50Z</time>
      </trkpt>
      <trkpt lat="48.80881" lon="-3.47124">
        <ele>70</ele>
        <time>2025-09-26T13:52:55Z</time>
      </trkpt>
      <trkpt lat="48.80881" lon="-3.47124">
        <ele>70</ele>
        <time>2025-09-26T13:52:59Z</time>
      </trkpt>
      <trkpt lat="48.80885" lon="-3.47127">
        <ele>70</ele>
        <time>2025-09-26T13:53:06Z</time>
      </trkpt>
      <trkpt lat="48.80885" lon="-3.47127">
        <ele>70</ele>
        <time>2025-09-26T13:53:13Z</time>
      </trkpt>
      <trkpt lat="48.80885" lon="-3.47127">
        <ele>70</ele>
        <time>2025-09-26T13:53:30Z</time>
      </trkpt>
      <trkpt lat="48.80882" lon="-3.47125">
        <ele>70</ele>
        <time>2025-09-26T13:53:38Z</time>
      </trkpt>
      <trkpt lat="48.80881" lon="-3.47125">
        <ele>70</ele>
        <time>2025-09-26T13:53:43Z</time>
      </trkpt>
      <trkpt lat="48.80881" lon="-3.47125">
        <ele>70</ele>
        <time>2025-09-26T13:53:50Z</time>
      </trkpt>
      <trkpt lat="48.80881" lon="-3.47125">
        <ele>70</ele>
        <time>2025-09-26T13:53:56Z</time>
      </trkpt>
      <trkpt lat="48.8088" lon="-3.47125">
        <ele>70</ele>
        <time>2025-09-26T13:54:03Z</time>
      </trkpt>
      <trkpt lat="48.80881" lon="-3.47125">
        <ele>70</ele>
        <time>2025-09-26T13:54:13Z</time>
      </trkpt>
      <trkpt lat="48.8088" lon="-3.47125">
        <ele>70</ele>
        <time>2025-09-26T13:54:20Z</time>
      </trkpt>
      <trkpt lat="48.80879" lon="-3.47129">
        <ele>70</ele>
        <time>2025-09-26T13:54:28Z</time>
      </trkpt>
      <trkpt lat="48.80878" lon="-3.47132">
        <ele>70</ele>
        <time>2025-09-26T13:54:30Z</time>
      </trkpt>
      <trkpt lat="48.80875" lon="-3.47139">
        <ele>70.2</ele>
        <time>2025-09-26T13:54:35Z</time>
      </trkpt>
      <trkpt lat="48.80874" lon="-3.47141">
        <ele>70.2</ele>
        <time>2025-09-26T13:54:36Z</time>
      </trkpt>
      <trkpt lat="48.80873" lon="-3.47143">
        <ele>70.2</ele>
        <time>2025-09-26T13:54:37Z</time>
      </trkpt>
      <trkpt lat="48.80864" lon="-3.47148">
        <ele>70.4</ele>
        <time>2025-09-26T13:54:41Z</time>
      </trkpt>
      <trkpt lat="48.80848" lon="-3.47147">
        <ele>70.6</ele>
        <time>2025-09-26T13:54:48Z</time>
      </trkpt>
      <trkpt lat="48.80838" lon="-3.47145">
        <ele>71</ele>
        <time>2025-09-26T13:54:52Z</time>
      </trkpt>
      <trkpt lat="48.80829" lon="-3.47142">
        <ele>71.6</ele>
        <time>2025-09-26T13:54:55Z</time>
      </trkpt>
      <trkpt lat="48.80811" lon="-3.47135">
        <ele>72.2</ele>
        <time>2025-09-26T13:55:01Z</time>
      </trkpt>
      <trkpt lat="48.80807" lon="-3.47133">
        <ele>72.4</ele>
        <time>2025-09-26T13:55:02Z</time>
      </trkpt>
      <trkpt lat="48.80789" lon="-3.4713">
        <ele>73.2</ele>
        <time>2025-09-26T13:55:08Z</time>
      </trkpt>
      <trkpt lat="48.80786" lon="-3.4713">
        <ele>73.2</ele>
        <time>2025-09-26T13:55:09Z</time>
      </trkpt>
      <trkpt lat="48.80776" lon="-3.47139">
        <ele>73.8</ele>
        <time>2025-09-26T13:55:13Z</time>
      </trkpt>
      <trkpt lat="48.80771" lon="-3.47153">
        <ele>74.2</ele>
        <time>2025-09-26T13:55:16Z</time>
      </trkpt>
      <trkpt lat="48.80764" lon="-3.47179">
        <ele>75</ele>
        <time>2025-09-26T13:55:21Z</time>
      </trkpt>
      <trkpt lat="48.80759" lon="-3.47192">
        <ele>75.4</ele>
        <time>2025-09-26T13:55:24Z</time>
      </trkpt>
      <trkpt lat="48.80752" lon="-3.47202">
        <ele>75.8</ele>
        <time>2025-09-26T13:55:27Z</time>
      </trkpt>
      <trkpt lat="48.80734" lon="-3.47214">
        <ele>76.6</ele>
        <time>2025-09-26T13:55:33Z</time>
      </trkpt>
      <trkpt lat="48.80731" lon="-3.47215">
        <ele>77</ele>
        <time>2025-09-26T13:55:34Z</time>
      </trkpt>
      <trkpt lat="48.80716" lon="-3.47228">
        <ele>77.8</ele>
        <time>2025-09-26T13:55:39Z</time>
      </trkpt>
      <trkpt lat="48.80701" lon="-3.47241">
        <ele>78.2</ele>
        <time>2025-09-26T13:55:44Z</time>
      </trkpt>
      <trkpt lat="48.80674" lon="-3.47255">
        <ele>78.4</ele>
        <time>2025-09-26T13:55:52Z</time>
      </trkpt>
      <trkpt lat="48.80672" lon="-3.4726">
        <ele>78.4</ele>
        <time>2025-09-26T13:55:53Z</time>
      </trkpt>
      <trkpt lat="48.80665" lon="-3.47289">
        <ele>78.4</ele>
        <time>2025-09-26T13:55:58Z</time>
      </trkpt>
      <trkpt lat="48.80657" lon="-3.47347">
        <ele>77.4</ele>
        <time>2025-09-26T13:56:07Z</time>
      </trkpt>
      <trkpt lat="48.80653" lon="-3.47378">
        <ele>76.6</ele>
        <time>2025-09-26T13:56:11Z</time>
      </trkpt>
      <trkpt lat="48.80652" lon="-3.47387">
        <ele>76.4</ele>
        <time>2025-09-26T13:56:12Z</time>
      </trkpt>
      <trkpt lat="48.80649" lon="-3.47405">
        <ele>75.8</ele>
        <time>2025-09-26T13:56:14Z</time>
      </trkpt>
      <trkpt lat="48.80649" lon="-3.47413">
        <ele>75.6</ele>
        <time>2025-09-26T13:56:15Z</time>
      </trkpt>
      <trkpt lat="48.80646" lon="-3.47428">
        <ele>75.4</ele>
        <time>2025-09-26T13:56:17Z</time>
      </trkpt>
      <trkpt lat="48.80645" lon="-3.47434">
        <ele>75.4</ele>
        <time>2025-09-26T13:56:18Z</time>
      </trkpt>
      <trkpt lat="48.80641" lon="-3.47443">
        <ele>75.4</ele>
        <time>2025-09-26T13:56:20Z</time>
      </trkpt>
      <trkpt lat="48.80637" lon="-3.47445">
        <ele>75.4</ele>
        <time>2025-09-26T13:56:21Z</time>
      </trkpt>
      <trkpt lat="48.80628" lon="-3.47445">
        <ele>75.6</ele>
        <time>2025-09-26T13:56:23Z</time>
      </trkpt>
      <trkpt lat="48.80619" lon="-3.47443">
        <ele>75.6</ele>
        <time>2025-09-26T13:56:25Z</time>
      </trkpt>
      <trkpt lat="48.80614" lon="-3.4744">
        <ele>75.8</ele>
        <time>2025-09-26T13:56:26Z</time>
      </trkpt>
      <trkpt lat="48.80605" lon="-3.47435">
        <ele>76</ele>
        <time>2025-09-26T13:56:28Z</time>
      </trkpt>
      <trkpt lat="48.80588" lon="-3.47418">
        <ele>76.2</ele>
        <time>2025-09-26T13:56:32Z</time>
      </trkpt>
      <trkpt lat="48.80565" lon="-3.47389">
        <ele>76.8</ele>
        <time>2025-09-26T13:56:38Z</time>
      </trkpt>
      <trkpt lat="48.80554" lon="-3.47376">
        <ele>76.8</ele>
        <time>2025-09-26T13:56:41Z</time>
      </trkpt>
      <trkpt lat="48.80527" lon="-3.47359">
        <ele>77.2</ele>
        <time>2025-09-26T13:56:47Z</time>
      </trkpt>
      <trkpt lat="48.80523" lon="-3.47357">
        <ele>77.2</ele>
        <time>2025-09-26T13:56:48Z</time>
      </trkpt>
      <trkpt lat="48.80481" lon="-3.47335">
        <ele>77.6</ele>
        <time>2025-09-26T13:56:57Z</time>
      </trkpt>
      <trkpt lat="48.80472" lon="-3.4733">
        <ele>77.8</ele>
        <time>2025-09-26T13:56:59Z</time>
      </trkpt>
      <trkpt lat="48.80442" lon="-3.47304">
        <ele>78.2</ele>
        <time>2025-09-26T13:57:06Z</time>
      </trkpt>
      <trkpt lat="48.80413" lon="-3.47262">
        <ele>78.6</ele>
        <time>2025-09-26T13:57:14Z</time>
      </trkpt>
      <trkpt lat="48.80384" lon="-3.47219">
        <ele>78.6</ele>
        <time>2025-09-26T13:57:22Z</time>
      </trkpt>
      <trkpt lat="48.80377" lon="-3.47212">
        <ele>78.8</ele>
        <time>2025-09-26T13:57:24Z</time>
      </trkpt>
      <trkpt lat="48.80351" lon="-3.47186">
        <ele>79</ele>
        <time>2025-09-26T13:57:30Z</time>
      </trkpt>
      <trkpt lat="48.80322" lon="-3.47161">
        <ele>78.8</ele>
        <time>2025-09-26T13:57:37Z</time>
      </trkpt>
      <trkpt lat="48.80284" lon="-3.47131">
        <ele>78.2</ele>
        <time>2025-09-26T13:57:45Z</time>
      </trkpt>
      <trkpt lat="48.80265" lon="-3.47099">
        <ele>77.8</ele>
        <time>2025-09-26T13:57:50Z</time>
      </trkpt>
      <trkpt lat="48.8026" lon="-3.47084">
        <ele>77.4</ele>
        <time>2025-09-26T13:57:52Z</time>
      </trkpt>
      <trkpt lat="48.80256" lon="-3.47059">
        <ele>77.2</ele>
        <time>2025-09-26T13:57:55Z</time>
      </trkpt>
      <trkpt lat="48.80251" lon="-3.47028">
        <ele>76.8</ele>
        <time>2025-09-26T13:57:59Z</time>
      </trkpt>
      <trkpt lat="48.80249" lon="-3.47021">
        <ele>76.6</ele>
        <time>2025-09-26T13:58:01Z</time>
      </trkpt>
      <trkpt lat="48.80246" lon="-3.47007">
        <ele>76.4</ele>
        <time>2025-09-26T13:58:05Z</time>
      </trkpt>
      <trkpt lat="48.80245" lon="-3.46995">
        <ele>76.2</ele>
        <time>2025-09-26T13:58:07Z</time>
      </trkpt>
      <trkpt lat="48.80245" lon="-3.46988">
        <ele>76</ele>
        <time>2025-09-26T13:58:08Z</time>
      </trkpt>
      <trkpt lat="48.80242" lon="-3.46975">
        <ele>75.8</ele>
        <time>2025-09-26T13:58:10Z</time>
      </trkpt>
      <trkpt lat="48.80233" lon="-3.46947">
        <ele>74.8</ele>
        <time>2025-09-26T13:58:14Z</time>
      </trkpt>
      <trkpt lat="48.80228" lon="-3.46934">
        <ele>74.2</ele>
        <time>2025-09-26T13:58:16Z</time>
      </trkpt>
      <trkpt lat="48.80225" lon="-3.46929">
        <ele>74.2</ele>
        <time>2025-09-26T13:58:17Z</time>
      </trkpt>
      <trkpt lat="48.80221" lon="-3.46924">
        <ele>73.8</ele>
        <time>2025-09-26T13:58:18Z</time>
      </trkpt>
      <trkpt lat="48.80216" lon="-3.46921">
        <ele>73.4</ele>
        <time>2025-09-26T13:58:19Z</time>
      </trkpt>
      <trkpt lat="48.80212" lon="-3.46917">
        <ele>73.2</ele>
        <time>2025-09-26T13:58:20Z</time>
      </trkpt>
      <trkpt lat="48.80204" lon="-3.46906">
        <ele>72.6</ele>
        <time>2025-09-26T13:58:22Z</time>
      </trkpt>
      <trkpt lat="48.80201" lon="-3.46899">
        <ele>72.4</ele>
        <time>2025-09-26T13:58:23Z</time>
      </trkpt>
      <trkpt lat="48.80199" lon="-3.46892">
        <ele>72.2</ele>
        <time>2025-09-26T13:58:24Z</time>
      </trkpt>
      <trkpt lat="48.80192" lon="-3.46871">
        <ele>72</ele>
        <time>2025-09-26T13:58:27Z</time>
      </trkpt>
      <trkpt lat="48.80181" lon="-3.46836">
        <ele>71.6</ele>
        <time>2025-09-26T13:58:32Z</time>
      </trkpt>
      <trkpt lat="48.80177" lon="-3.46823">
        <ele>71.6</ele>
        <time>2025-09-26T13:58:34Z</time>
      </trkpt>
      <trkpt lat="48.80169" lon="-3.46802">
        <ele>71.2</ele>
        <time>2025-09-26T13:58:37Z</time>
      </trkpt>
      <trkpt lat="48.80168" lon="-3.46795">
        <ele>71</ele>
        <time>2025-09-26T13:58:38Z</time>
      </trkpt>
      <trkpt lat="48.80166" lon="-3.4678">
        <ele>70.8</ele>
        <time>2025-09-26T13:58:40Z</time>
      </trkpt>
      <trkpt lat="48.80166" lon="-3.46736">
        <ele>70.6</ele>
        <time>2025-09-26T13:58:46Z</time>
      </trkpt>
      <trkpt lat="48.80164" lon="-3.46716">
        <ele>70.6</ele>
        <time>2025-09-26T13:58:49Z</time>
      </trkpt>
      <trkpt lat="48.80162" lon="-3.46703">
        <ele>70.6</ele>
        <time>2025-09-26T13:58:51Z</time>
      </trkpt>
      <trkpt lat="48.80159" lon="-3.46689">
        <ele>70.4</ele>
        <time>2025-09-26T13:58:53Z</time>
      </trkpt>
      <trkpt lat="48.80151" lon="-3.46661">
        <ele>70.2</ele>
        <time>2025-09-26T13:58:57Z</time>
      </trkpt>
      <trkpt lat="48.80147" lon="-3.46649">
        <ele>70.2</ele>
        <time>2025-09-26T13:58:59Z</time>
      </trkpt>
      <trkpt lat="48.80144" lon="-3.46643">
        <ele>70</ele>
        <time>2025-09-26T13:59:00Z</time>
      </trkpt>
      <trkpt lat="48.80137" lon="-3.46625">
        <ele>70.2</ele>
        <time>2025-09-26T13:59:04Z</time>
      </trkpt>
      <trkpt lat="48.80123" lon="-3.46595">
        <ele>70.4</ele>
        <time>2025-09-26T13:59:11Z</time>
      </trkpt>
      <trkpt lat="48.80111" lon="-3.46561">
        <ele>69.8</ele>
        <time>2025-09-26T13:59:17Z</time>
      </trkpt>
      <trkpt lat="48.80103" lon="-3.46533">
        <ele>70</ele>
        <time>2025-09-26T13:59:23Z</time>
      </trkpt>
      <trkpt lat="48.80099" lon="-3.46522">
        <ele>70.2</ele>
        <time>2025-09-26T13:59:25Z</time>
      </trkpt>
      <trkpt lat="48.8009" lon="-3.46501">
        <ele>69.8</ele>
        <time>2025-09-26T13:59:29Z</time>
      </trkpt>
      <trkpt lat="48.80079" lon="-3.46478">
        <ele>70</ele>
        <time>2025-09-26T13:59:34Z</time>
      </trkpt>
      <trkpt lat="48.80057" lon="-3.4644">
        <ele>69.8</ele>
        <time>2025-09-26T13:59:41Z</time>
      </trkpt>
      <trkpt lat="48.80041" lon="-3.464">
        <ele>69.6</ele>
        <time>2025-09-26T13:59:48Z</time>
      </trkpt>
      <trkpt lat="48.8004" lon="-3.46395">
        <ele>69.6</ele>
        <time>2025-09-26T13:59:49Z</time>
      </trkpt>
      <trkpt lat="48.8004" lon="-3.46383">
        <ele>69.6</ele>
        <time>2025-09-26T13:59:51Z</time>
      </trkpt>
      <trkpt lat="48.80034" lon="-3.46356">
        <ele>70</ele>
        <time>2025-09-26T13:59:56Z</time>
      </trkpt>
      <trkpt lat="48.80028" lon="-3.46329">
        <ele>70.8</ele>
        <time>2025-09-26T14:00:02Z</time>
      </trkpt>
      <trkpt lat="48.80012" lon="-3.4632">
        <ele>70.8</ele>
        <time>2025-09-26T14:00:07Z</time>
      </trkpt>
      <trkpt lat="48.79996" lon="-3.46322">
        <ele>70.2</ele>
        <time>2025-09-26T14:00:10Z</time>
      </trkpt>
      <trkpt lat="48.79987" lon="-3.46322">
        <ele>69.6</ele>
        <time>2025-09-26T14:00:12Z</time>
      </trkpt>
      <trkpt lat="48.79983" lon="-3.4632">
        <ele>69.6</ele>
        <time>2025-09-26T14:00:13Z</time>
      </trkpt>
      <trkpt lat="48.7998" lon="-3.46316">
        <ele>69.4</ele>
        <time>2025-09-26T14:00:14Z</time>
      </trkpt>
      <trkpt lat="48.79977" lon="-3.46305">
        <ele>69.2</ele>
        <time>2025-09-26T14:00:16Z</time>
      </trkpt>
      <trkpt lat="48.79971" lon="-3.46271">
        <ele>69.4</ele>
        <time>2025-09-26T14:00:22Z</time>
      </trkpt>
      <trkpt lat="48.79968" lon="-3.46243">
        <ele>69.6</ele>
        <time>2025-09-26T14:00:27Z</time>
      </trkpt>
      <trkpt lat="48.79961" lon="-3.46205">
        <ele>69.8</ele>
        <time>2025-09-26T14:00:34Z</time>
      </trkpt>
      <trkpt lat="48.79954" lon="-3.46164">
        <ele>70</ele>
        <time>2025-09-26T14:00:41Z</time>
      </trkpt>
      <trkpt lat="48.79949" lon="-3.46151">
        <ele>70.2</ele>
        <time>2025-09-26T14:00:44Z</time>
      </trkpt>
      <trkpt lat="48.79945" lon="-3.46149">
        <ele>70.2</ele>
        <time>2025-09-26T14:00:45Z</time>
      </trkpt>
      <trkpt lat="48.79925" lon="-3.46144">
        <ele>70.2</ele>
        <time>2025-09-26T14:00:50Z</time>
      </trkpt>
      <trkpt lat="48.79902" lon="-3.46138">
        <ele>69.4</ele>
        <time>2025-09-26T14:00:55Z</time>
      </trkpt>
      <trkpt lat="48.79896" lon="-3.46131">
        <ele>69.2</ele>
        <time>2025-09-26T14:00:57Z</time>
      </trkpt>
      <trkpt lat="48.79895" lon="-3.46118">
        <ele>69</ele>
        <time>2025-09-26T14:00:59Z</time>
      </trkpt>
      <trkpt lat="48.79896" lon="-3.46111">
        <ele>69</ele>
        <time>2025-09-26T14:01:00Z</time>
      </trkpt>
      <trkpt lat="48.79912" lon="-3.46053">
        <ele>68.8</ele>
        <time>2025-09-26T14:01:08Z</time>
      </trkpt>
      <trkpt lat="48.79921" lon="-3.46011">
        <ele>68.4</ele>
        <time>2025-09-26T14:01:13Z</time>
      </trkpt>
      <trkpt lat="48.79921" lon="-3.46002">
        <ele>68.2</ele>
        <time>2025-09-26T14:01:14Z</time>
      </trkpt>
      <trkpt lat="48.79921" lon="-3.45992">
        <ele>67.8</ele>
        <time>2025-09-26T14:01:15Z</time>
      </trkpt>
      <trkpt lat="48.79918" lon="-3.45962">
        <ele>67.2</ele>
        <time>2025-09-26T14:01:18Z</time>
      </trkpt>
      <trkpt lat="48.79917" lon="-3.4595">
        <ele>66.4</ele>
        <time>2025-09-26T14:01:19Z</time>
      </trkpt>
      <trkpt lat="48.79915" lon="-3.45927">
        <ele>65.4</ele>
        <time>2025-09-26T14:01:21Z</time>
      </trkpt>
      <trkpt lat="48.79914" lon="-3.45917">
        <ele>64.6</ele>
        <time>2025-09-26T14:01:22Z</time>
      </trkpt>
      <trkpt lat="48.7991" lon="-3.45908">
        <ele>64.2</ele>
        <time>2025-09-26T14:01:23Z</time>
      </trkpt>
      <trkpt lat="48.79905" lon="-3.459">
        <ele>63.8</ele>
        <time>2025-09-26T14:01:24Z</time>
      </trkpt>
      <trkpt lat="48.79887" lon="-3.45877">
        <ele>63</ele>
        <time>2025-09-26T14:01:27Z</time>
      </trkpt>
      <trkpt lat="48.79867" lon="-3.45853">
        <ele>61.8</ele>
        <time>2025-09-26T14:01:30Z</time>
      </trkpt>
      <trkpt lat="48.79852" lon="-3.45834">
        <ele>59.8</ele>
        <time>2025-09-26T14:01:32Z</time>
      </trkpt>
      <trkpt lat="48.79838" lon="-3.45811">
        <ele>58.2</ele>
        <time>2025-09-26T14:01:34Z</time>
      </trkpt>
      <trkpt lat="48.79831" lon="-3.45797">
        <ele>56.4</ele>
        <time>2025-09-26T14:01:35Z</time>
      </trkpt>
      <trkpt lat="48.79824" lon="-3.45783">
        <ele>55.6</ele>
        <time>2025-09-26T14:01:36Z</time>
      </trkpt>
      <trkpt lat="48.79817" lon="-3.45769">
        <ele>54.8</ele>
        <time>2025-09-26T14:01:37Z</time>
      </trkpt>
      <trkpt lat="48.79806" lon="-3.4574">
        <ele>53.2</ele>
        <time>2025-09-26T14:01:39Z</time>
      </trkpt>
      <trkpt lat="48.79797" lon="-3.45715">
        <ele>52.4</ele>
        <time>2025-09-26T14:01:41Z</time>
      </trkpt>
      <trkpt lat="48.79788" lon="-3.45698">
        <ele>52.2</ele>
        <time>2025-09-26T14:01:43Z</time>
      </trkpt>
      <trkpt lat="48.79783" lon="-3.45691">
        <ele>52.2</ele>
        <time>2025-09-26T14:01:44Z</time>
      </trkpt>
      <trkpt lat="48.79779" lon="-3.45687">
        <ele>52.4</ele>
        <time>2025-09-26T14:01:45Z</time>
      </trkpt>
      <trkpt lat="48.79773" lon="-3.45686">
        <ele>53.2</ele>
        <time>2025-09-26T14:01:47Z</time>
      </trkpt>
      <trkpt lat="48.79772" lon="-3.45686">
        <ele>53.8</ele>
        <time>2025-09-26T14:01:50Z</time>
      </trkpt>
      <trkpt lat="48.79771" lon="-3.45687">
        <ele>54</ele>
        <time>2025-09-26T14:01:53Z</time>
      </trkpt>
      <trkpt lat="48.7977" lon="-3.45687">
        <ele>54.4</ele>
        <time>2025-09-26T14:01:54Z</time>
      </trkpt>
      <trkpt lat="48.79767" lon="-3.45689">
        <ele>54.6</ele>
        <time>2025-09-26T14:01:56Z</time>
      </trkpt>
      <trkpt lat="48.79764" lon="-3.45688">
        <ele>54.6</ele>
        <time>2025-09-26T14:01:58Z</time>
      </trkpt>
      <trkpt lat="48.7976" lon="-3.45681">
        <ele>54.6</ele>
        <time>2025-09-26T14:02:00Z</time>
      </trkpt>
      <trkpt lat="48.79754" lon="-3.4565">
        <ele>55</ele>
        <time>2025-09-26T14:02:04Z</time>
      </trkpt>
      <trkpt lat="48.7975" lon="-3.45634">
        <ele>55.2</ele>
        <time>2025-09-26T14:02:06Z</time>
      </trkpt>
      <trkpt lat="48.79743" lon="-3.45603">
        <ele>55.4</ele>
        <time>2025-09-26T14:02:10Z</time>
      </trkpt>
      <trkpt lat="48.79742" lon="-3.45596">
        <ele>55.6</ele>
        <time>2025-09-26T14:02:11Z</time>
      </trkpt>
      <trkpt lat="48.79736" lon="-3.45566">
        <ele>56.2</ele>
        <time>2025-09-26T14:02:17Z</time>
      </trkpt>
      <trkpt lat="48.79735" lon="-3.45552">
        <ele>56</ele>
        <time>2025-09-26T14:02:22Z</time>
      </trkpt>
      <trkpt lat="48.79736" lon="-3.45549">
        <ele>55.8</ele>
        <time>2025-09-26T14:02:23Z</time>
      </trkpt>
      <trkpt lat="48.79742" lon="-3.45546">
        <ele>56</ele>
        <time>2025-09-26T14:02:26Z</time>
      </trkpt>
      <trkpt lat="48.79754" lon="-3.45539">
        <ele>56.6</ele>
        <time>2025-09-26T14:02:30Z</time>
      </trkpt>
      <trkpt lat="48.79757" lon="-3.45537">
        <ele>56.6</ele>
        <time>2025-09-26T14:02:31Z</time>
      </trkpt>
      <trkpt lat="48.79763" lon="-3.45534">
        <ele>57</ele>
        <time>2025-09-26T14:02:33Z</time>
      </trkpt>
      <trkpt lat="48.79769" lon="-3.4553">
        <ele>57</ele>
        <time>2025-09-26T14:02:35Z</time>
      </trkpt>
      <trkpt lat="48.79775" lon="-3.45524">
        <ele>56.8</ele>
        <time>2025-09-26T14:02:37Z</time>
      </trkpt>
      <trkpt lat="48.79776" lon="-3.45519">
        <ele>56.8</ele>
        <time>2025-09-26T14:02:38Z</time>
      </trkpt>
      <trkpt lat="48.79777" lon="-3.45508">
        <ele>56.8</ele>
        <time>2025-09-26T14:02:40Z</time>
      </trkpt>
      <trkpt lat="48.79778" lon="-3.45499">
        <ele>56.8</ele>
        <time>2025-09-26T14:02:42Z</time>
      </trkpt>
      <trkpt lat="48.7978" lon="-3.45496">
        <ele>56.8</ele>
        <time>2025-09-26T14:02:43Z</time>
      </trkpt>
      <trkpt lat="48.79799" lon="-3.45482">
        <ele>56.8</ele>
        <time>2025-09-26T14:02:48Z</time>
      </trkpt>
      <trkpt lat="48.79809" lon="-3.4546">
        <ele>56.8</ele>
        <time>2025-09-26T14:02:52Z</time>
      </trkpt>
      <trkpt lat="48.79811" lon="-3.45448">
        <ele>57</ele>
        <time>2025-09-26T14:02:54Z</time>
      </trkpt>
      <trkpt lat="48.7981" lon="-3.45436">
        <ele>57.2</ele>
        <time>2025-09-26T14:02:56Z</time>
      </trkpt>
      <trkpt lat="48.79806" lon="-3.45425">
        <ele>57.2</ele>
        <time>2025-09-26T14:02:58Z</time>
      </trkpt>
      <trkpt lat="48.79795" lon="-3.45397">
        <ele>57</ele>
        <time>2025-09-26T14:03:03Z</time>
      </trkpt>
      <trkpt lat="48.79789" lon="-3.4539">
        <ele>56.8</ele>
        <time>2025-09-26T14:03:05Z</time>
      </trkpt>
      <trkpt lat="48.79783" lon="-3.45388">
        <ele>56.2</ele>
        <time>2025-09-26T14:03:07Z</time>
      </trkpt>
      <trkpt lat="48.79778" lon="-3.4539">
        <ele>55.8</ele>
        <time>2025-09-26T14:03:10Z</time>
      </trkpt>
      <trkpt lat="48.79778" lon="-3.4539">
        <ele>55.4</ele>
        <time>2025-09-26T14:03:14Z</time>
      </trkpt>
      <trkpt lat="48.79778" lon="-3.4539">
        <ele>55.2</ele>
        <time>2025-09-26T14:03:15Z</time>
      </trkpt>
      <trkpt lat="48.79779" lon="-3.45388">
        <ele>55.2</ele>
        <time>2025-09-26T14:03:20Z</time>
      </trkpt>
      <trkpt lat="48.7978" lon="-3.45387">
        <ele>55.6</ele>
        <time>2025-09-26T14:03:21Z</time>
      </trkpt>
      <trkpt lat="48.79781" lon="-3.45385">
        <ele>55.6</ele>
        <time>2025-09-26T14:03:22Z</time>
      </trkpt>
      <trkpt lat="48.79784" lon="-3.45371">
        <ele>55.6</ele>
        <time>2025-09-26T14:03:26Z</time>
      </trkpt>
      <trkpt lat="48.79781" lon="-3.45364">
        <ele>55.2</ele>
        <time>2025-09-26T14:03:30Z</time>
      </trkpt>
      <trkpt lat="48.79783" lon="-3.45364">
        <ele>54.6</ele>
        <time>2025-09-26T14:03:38Z</time>
      </trkpt>
      <trkpt lat="48.79783" lon="-3.45366">
        <ele>54.6</ele>
        <time>2025-09-26T14:03:40Z</time>
      </trkpt>
      <trkpt lat="48.79784" lon="-3.45376">
        <ele>55.4</ele>
        <time>2025-09-26T14:03:43Z</time>
      </trkpt>
      <trkpt lat="48.79782" lon="-3.45385">
        <ele>55.4</ele>
        <time>2025-09-26T14:03:45Z</time>
      </trkpt>
      <trkpt lat="48.79775" lon="-3.45393">
        <ele>55.2</ele>
        <time>2025-09-26T14:03:47Z</time>
      </trkpt>
      <trkpt lat="48.7975" lon="-3.45412">
        <ele>54.6</ele>
        <time>2025-09-26T14:03:53Z</time>
      </trkpt>
      <trkpt lat="48.79746" lon="-3.45415">
        <ele>54.2</ele>
        <time>2025-09-26T14:03:54Z</time>
      </trkpt>
      <trkpt lat="48.79731" lon="-3.45428">
        <ele>53.8</ele>
        <time>2025-09-26T14:03:58Z</time>
      </trkpt>
      <trkpt lat="48.79728" lon="-3.45437">
        <ele>53.8</ele>
        <time>2025-09-26T14:04:00Z</time>
      </trkpt>
      <trkpt lat="48.79728" lon="-3.45443">
        <ele>53.8</ele>
        <time>2025-09-26T14:04:01Z</time>
      </trkpt>
      <trkpt lat="48.79731" lon="-3.45453">
        <ele>54.2</ele>
        <time>2025-09-26T14:04:03Z</time>
      </trkpt>
      <trkpt lat="48.79732" lon="-3.45462">
        <ele>54.6</ele>
        <time>2025-09-26T14:04:05Z</time>
      </trkpt>
      <trkpt lat="48.7973" lon="-3.45466">
        <ele>54.6</ele>
        <time>2025-09-26T14:04:06Z</time>
      </trkpt>
      <trkpt lat="48.79719" lon="-3.45476">
        <ele>54.6</ele>
        <time>2025-09-26T14:04:11Z</time>
      </trkpt>
      <trkpt lat="48.79717" lon="-3.45476">
        <ele>54.4</ele>
        <time>2025-09-26T14:04:12Z</time>
      </trkpt>
      <trkpt lat="48.79712" lon="-3.4547">
        <ele>53.8</ele>
        <time>2025-09-26T14:04:15Z</time>
      </trkpt>
      <trkpt lat="48.79706" lon="-3.45455">
        <ele>53.2</ele>
        <time>2025-09-26T14:04:19Z</time>
      </trkpt>
      <trkpt lat="48.79703" lon="-3.45445">
        <ele>52.8</ele>
        <time>2025-09-26T14:04:21Z</time>
      </trkpt>
      <trkpt lat="48.79701" lon="-3.45427">
        <ele>52.2</ele>
        <time>2025-09-26T14:04:24Z</time>
      </trkpt>
      <trkpt lat="48.79703" lon="-3.45421">
        <ele>52.2</ele>
        <time>2025-09-26T14:04:25Z</time>
      </trkpt>
      <trkpt lat="48.79713" lon="-3.45399">
        <ele>51.2</ele>
        <time>2025-09-26T14:04:29Z</time>
      </trkpt>
      <trkpt lat="48.79722" lon="-3.45383">
        <ele>50.8</ele>
        <time>2025-09-26T14:04:32Z</time>
      </trkpt>
      <trkpt lat="48.79731" lon="-3.45367">
        <ele>50.6</ele>
        <time>2025-09-26T14:04:35Z</time>
      </trkpt>
      <trkpt lat="48.79737" lon="-3.45355">
        <ele>50.2</ele>
        <time>2025-09-26T14:04:37Z</time>
      </trkpt>
      <trkpt lat="48.79746" lon="-3.45335">
        <ele>49.6</ele>
        <time>2025-09-26T14:04:40Z</time>
      </trkpt>
      <trkpt lat="48.79755" lon="-3.45315">
        <ele>49.2</ele>
        <time>2025-09-26T14:04:43Z</time>
      </trkpt>
      <trkpt lat="48.79768" lon="-3.45284">
        <ele>49</ele>
        <time>2025-09-26T14:04:48Z</time>
      </trkpt>
      <trkpt lat="48.79789" lon="-3.45239">
        <ele>48.4</ele>
        <time>2025-09-26T14:04:55Z</time>
      </trkpt>
      <trkpt lat="48.79792" lon="-3.45233">
        <ele>48.2</ele>
        <time>2025-09-26T14:04:56Z</time>
      </trkpt>
      <trkpt lat="48.79811" lon="-3.45194">
        <ele>47.2</ele>
        <time>2025-09-26T14:05:02Z</time>
      </trkpt>
      <trkpt lat="48.79814" lon="-3.45188">
        <ele>47</ele>
        <time>2025-09-26T14:05:03Z</time>
      </trkpt>
      <trkpt lat="48.79824" lon="-3.4516">
        <ele>46.6</ele>
        <time>2025-09-26T14:05:07Z</time>
      </trkpt>
      <trkpt lat="48.79829" lon="-3.45146">
        <ele>46.6</ele>
        <time>2025-09-26T14:05:09Z</time>
      </trkpt>
      <trkpt lat="48.79838" lon="-3.45118">
        <ele>46</ele>
        <time>2025-09-26T14:05:13Z</time>
      </trkpt>
      <trkpt lat="48.79844" lon="-3.45096">
        <ele>45.8</ele>
        <time>2025-09-26T14:05:16Z</time>
      </trkpt>
      <trkpt lat="48.79856" lon="-3.45058">
        <ele>45</ele>
        <time>2025-09-26T14:05:21Z</time>
      </trkpt>
      <trkpt lat="48.79858" lon="-3.4505">
        <ele>45</ele>
        <time>2025-09-26T14:05:22Z</time>
      </trkpt>
      <trkpt lat="48.79861" lon="-3.45041">
        <ele>44.4</ele>
        <time>2025-09-26T14:05:23Z</time>
      </trkpt>
      <trkpt lat="48.79866" lon="-3.45023">
        <ele>43.8</ele>
        <time>2025-09-26T14:05:25Z</time>
      </trkpt>
      <trkpt lat="48.79873" lon="-3.44994">
        <ele>42.4</ele>
        <time>2025-09-26T14:05:28Z</time>
      </trkpt>
      <trkpt lat="48.79875" lon="-3.44985">
        <ele>41.4</ele>
        <time>2025-09-26T14:05:29Z</time>
      </trkpt>
      <trkpt lat="48.79877" lon="-3.44975">
        <ele>41.2</ele>
        <time>2025-09-26T14:05:30Z</time>
      </trkpt>
      <trkpt lat="48.79886" lon="-3.44937">
        <ele>39.2</ele>
        <time>2025-09-26T14:05:34Z</time>
      </trkpt>
      <trkpt lat="48.79896" lon="-3.44906">
        <ele>37.8</ele>
        <time>2025-09-26T14:05:37Z</time>
      </trkpt>
      <trkpt lat="48.799" lon="-3.44895">
        <ele>36.6</ele>
        <time>2025-09-26T14:05:38Z</time>
      </trkpt>
      <trkpt lat="48.79912" lon="-3.44855">
        <ele>35.2</ele>
        <time>2025-09-26T14:05:42Z</time>
      </trkpt>
      <trkpt lat="48.79917" lon="-3.44837">
        <ele>34.6</ele>
        <time>2025-09-26T14:05:44Z</time>
      </trkpt>
      <trkpt lat="48.79923" lon="-3.4482">
        <ele>34.2</ele>
        <time>2025-09-26T14:05:46Z</time>
      </trkpt>
      <trkpt lat="48.79932" lon="-3.44779">
        <ele>32.8</ele>
        <time>2025-09-26T14:05:51Z</time>
      </trkpt>
      <trkpt lat="48.79935" lon="-3.44758">
        <ele>31.6</ele>
        <time>2025-09-26T14:05:54Z</time>
      </trkpt>
      <trkpt lat="48.79938" lon="-3.44745">
        <ele>31.4</ele>
        <time>2025-09-26T14:05:56Z</time>
      </trkpt>
      <trkpt lat="48.79946" lon="-3.44725">
        <ele>30.4</ele>
        <time>2025-09-26T14:05:59Z</time>
      </trkpt>
      <trkpt lat="48.79954" lon="-3.44714">
        <ele>30</ele>
        <time>2025-09-26T14:06:01Z</time>
      </trkpt>
      <trkpt lat="48.79958" lon="-3.4471">
        <ele>29.4</ele>
        <time>2025-09-26T14:06:02Z</time>
      </trkpt>
      <trkpt lat="48.79969" lon="-3.44703">
        <ele>27</ele>
        <time>2025-09-26T14:06:04Z</time>
      </trkpt>
      <trkpt lat="48.79978" lon="-3.44699">
        <ele>24.6</ele>
        <time>2025-09-26T14:06:06Z</time>
      </trkpt>
      <trkpt lat="48.79989" lon="-3.44695">
        <ele>23.6</ele>
        <time>2025-09-26T14:06:08Z</time>
      </trkpt>
      <trkpt lat="48.79996" lon="-3.44692">
        <ele>22</ele>
        <time>2025-09-26T14:06:10Z</time>
      </trkpt>
      <trkpt lat="48.79999" lon="-3.44692">
        <ele>21.2</ele>
        <time>2025-09-26T14:06:11Z</time>
      </trkpt>
      <trkpt lat="48.80001" lon="-3.44692">
        <ele>20.8</ele>
        <time>2025-09-26T14:06:12Z</time>
      </trkpt>
      <trkpt lat="48.80002" lon="-3.44693">
        <ele>20.4</ele>
        <time>2025-09-26T14:06:14Z</time>
      </trkpt>
      <trkpt lat="48.80002" lon="-3.44693">
        <ele>20.4</ele>
        <time>2025-09-26T14:06:21Z</time>
      </trkpt>
      <trkpt lat="48.80007" lon="-3.44697">
        <ele>20.2</ele>
        <time>2025-09-26T14:06:25Z</time>
      </trkpt>
      <trkpt lat="48.80008" lon="-3.44701">
        <ele>20.2</ele>
        <time>2025-09-26T14:06:26Z</time>
      </trkpt>
      <trkpt lat="48.80011" lon="-3.4472">
        <ele>20.4</ele>
        <time>2025-09-26T14:06:29Z</time>
      </trkpt>
      <trkpt lat="48.80012" lon="-3.44724">
        <ele>20.4</ele>
        <time>2025-09-26T14:06:30Z</time>
      </trkpt>
      <trkpt lat="48.8002" lon="-3.44732">
        <ele>21</ele>
        <time>2025-09-26T14:06:34Z</time>
      </trkpt>
      <trkpt lat="48.80021" lon="-3.44732">
        <ele>21</ele>
        <time>2025-09-26T14:06:37Z</time>
      </trkpt>
      <trkpt lat="48.80021" lon="-3.44732">
        <ele>21</ele>
        <time>2025-09-26T14:06:38Z</time>
      </trkpt>
      <trkpt lat="48.80023" lon="-3.44731">
        <ele>21</ele>
        <time>2025-09-26T14:06:42Z</time>
      </trkpt>
      <trkpt lat="48.80028" lon="-3.44727">
        <ele>21</ele>
        <time>2025-09-26T14:06:44Z</time>
      </trkpt>
      <trkpt lat="48.80043" lon="-3.44702">
        <ele>19.8</ele>
        <time>2025-09-26T14:06:49Z</time>
      </trkpt>
      <trkpt lat="48.80047" lon="-3.44696">
        <ele>19.4</ele>
        <time>2025-09-26T14:06:50Z</time>
      </trkpt>
      <trkpt lat="48.80066" lon="-3.44669">
        <ele>18.2</ele>
        <time>2025-09-26T14:06:54Z</time>
      </trkpt>
      <trkpt lat="48.80071" lon="-3.44662">
        <ele>17.6</ele>
        <time>2025-09-26T14:06:55Z</time>
      </trkpt>
      <trkpt lat="48.80076" lon="-3.44655">
        <ele>17.2</ele>
        <time>2025-09-26T14:06:56Z</time>
      </trkpt>
      <trkpt lat="48.80085" lon="-3.4464">
        <ele>15.8</ele>
        <time>2025-09-26T14:06:58Z</time>
      </trkpt>
      <trkpt lat="48.801" lon="-3.44619">
        <ele>14.6</ele>
        <time>2025-09-26T14:07:01Z</time>
      </trkpt>
      <trkpt lat="48.80108" lon="-3.44607">
        <ele>14</ele>
        <time>2025-09-26T14:07:03Z</time>
      </trkpt>
      <trkpt lat="48.80117" lon="-3.44598">
        <ele>13.2</ele>
        <time>2025-09-26T14:07:05Z</time>
      </trkpt>
      <trkpt lat="48.80126" lon="-3.44594">
        <ele>12.6</ele>
        <time>2025-09-26T14:07:07Z</time>
      </trkpt>
      <trkpt lat="48.80136" lon="-3.44597">
        <ele>12.2</ele>
        <time>2025-09-26T14:07:09Z</time>
      </trkpt>
      <trkpt lat="48.80145" lon="-3.44599">
        <ele>12</ele>
        <time>2025-09-26T14:07:11Z</time>
      </trkpt>
      <trkpt lat="48.80165" lon="-3.446">
        <ele>12.6</ele>
        <time>2025-09-26T14:07:15Z</time>
      </trkpt>
      <trkpt lat="48.80176" lon="-3.44597">
        <ele>12.8</ele>
        <time>2025-09-26T14:07:17Z</time>
      </trkpt>
      <trkpt lat="48.80191" lon="-3.4459">
        <ele>13.2</ele>
        <time>2025-09-26T14:07:20Z</time>
      </trkpt>
      <trkpt lat="48.80213" lon="-3.44579">
        <ele>13</ele>
        <time>2025-09-26T14:07:25Z</time>
      </trkpt>
      <trkpt lat="48.8022" lon="-3.44574">
        <ele>12.8</ele>
        <time>2025-09-26T14:07:27Z</time>
      </trkpt>
      <trkpt lat="48.80237" lon="-3.44564">
        <ele>12.8</ele>
        <time>2025-09-26T14:07:31Z</time>
      </trkpt>
      <trkpt lat="48.80251" lon="-3.44558">
        <ele>12.6</ele>
        <time>2025-09-26T14:07:34Z</time>
      </trkpt>
      <trkpt lat="48.80272" lon="-3.44545">
        <ele>12.6</ele>
        <time>2025-09-26T14:07:39Z</time>
      </trkpt>
      <trkpt lat="48.80303" lon="-3.44526">
        <ele>12.4</ele>
        <time>2025-09-26T14:07:46Z</time>
      </trkpt>
      <trkpt lat="48.80307" lon="-3.44523">
        <ele>12.2</ele>
        <time>2025-09-26T14:07:47Z</time>
      </trkpt>
      <trkpt lat="48.80311" lon="-3.4452">
        <ele>12.2</ele>
        <time>2025-09-26T14:07:48Z</time>
      </trkpt>
      <trkpt lat="48.80314" lon="-3.44507">
        <ele>12</ele>
        <time>2025-09-26T14:07:50Z</time>
      </trkpt>
      <trkpt lat="48.80308" lon="-3.44473">
        <ele>10.8</ele>
        <time>2025-09-26T14:07:54Z</time>
      </trkpt>
      <trkpt lat="48.80307" lon="-3.44465">
        <ele>10.4</ele>
        <time>2025-09-26T14:07:55Z</time>
      </trkpt>
      <trkpt lat="48.80306" lon="-3.44456">
        <ele>9.8</ele>
        <time>2025-09-26T14:07:56Z</time>
      </trkpt>
      <trkpt lat="48.80303" lon="-3.44442">
        <ele>8.6</ele>
        <time>2025-09-26T14:07:58Z</time>
      </trkpt>
      <trkpt lat="48.80301" lon="-3.44428">
        <ele>8</ele>
        <time>2025-09-26T14:08:00Z</time>
      </trkpt>
      <trkpt lat="48.803" lon="-3.44421">
        <ele>7.8</ele>
        <time>2025-09-26T14:08:01Z</time>
      </trkpt>
      <trkpt lat="48.80297" lon="-3.44404">
        <ele>7.4</ele>
        <time>2025-09-26T14:08:03Z</time>
      </trkpt>
      <trkpt lat="48.8029" lon="-3.44362">
        <ele>6.2</ele>
        <time>2025-09-26T14:08:08Z</time>
      </trkpt>
      <trkpt lat="48.80288" lon="-3.44347">
        <ele>6</ele>
        <time>2025-09-26T14:08:10Z</time>
      </trkpt>
      <trkpt lat="48.80286" lon="-3.44331">
        <ele>6</ele>
        <time>2025-09-26T14:08:14Z</time>
      </trkpt>
      <trkpt lat="48.80286" lon="-3.4433">
        <ele>6.4</ele>
        <time>2025-09-26T14:08:18Z</time>
      </trkpt>
      <trkpt lat="48.80283" lon="-3.44317">
        <ele>6.4</ele>
        <time>2025-09-26T14:08:21Z</time>
      </trkpt>
      <trkpt lat="48.80282" lon="-3.44293">
        <ele>5.8</ele>
        <time>2025-09-26T14:08:26Z</time>
      </trkpt>
      <trkpt lat="48.80272" lon="-3.44284">
        <ele>5.8</ele>
        <time>2025-09-26T14:08:30Z</time>
      </trkpt>
      <trkpt lat="48.80269" lon="-3.44283">
        <ele>6</ele>
        <time>2025-09-26T14:08:31Z</time>
      </trkpt>
      <trkpt lat="48.80266" lon="-3.44278">
        <ele>5.8</ele>
        <time>2025-09-26T14:08:34Z</time>
      </trkpt>
      <trkpt lat="48.80266" lon="-3.44277">
        <ele>5.8</ele>
        <time>2025-09-26T14:08:35Z</time>
      </trkpt>
      <trkpt lat="48.80264" lon="-3.44275">
        <ele>6</ele>
        <time>2025-09-26T14:08:39Z</time>
      </trkpt>
      <trkpt lat="48.80264" lon="-3.44275">
        <ele>6</ele>
        <time>2025-09-26T14:08:44Z</time>
      </trkpt>
      <trkpt lat="48.80264" lon="-3.44275">
        <ele>6</ele>
        <time>2025-09-26T14:08:55Z</time>
      </trkpt>
      <trkpt lat="48.80264" lon="-3.44275">
        <ele>6</ele>
        <time>2025-09-26T14:09:03Z</time>
      </trkpt>
      <trkpt lat="48.80262" lon="-3.44275">
        <ele>5.8</ele>
        <time>2025-09-26T14:09:12Z</time>
      </trkpt>
      <trkpt lat="48.80255" lon="-3.44276">
        <ele>5.8</ele>
        <time>2025-09-26T14:09:15Z</time>
      </trkpt>
      <trkpt lat="48.80235" lon="-3.44265">
        <ele>5.8</ele>
        <time>2025-09-26T14:09:22Z</time>
      </trkpt>
      <trkpt lat="48.80221" lon="-3.44253">
        <ele>5.2</ele>
        <time>2025-09-26T14:09:27Z</time>
      </trkpt>
      <trkpt lat="48.80211" lon="-3.44254">
        <ele>5.6</ele>
        <time>2025-09-26T14:09:31Z</time>
      </trkpt>
      <trkpt lat="48.80195" lon="-3.44255">
        <ele>5.6</ele>
        <time>2025-09-26T14:09:37Z</time>
      </trkpt>
      <trkpt lat="48.80178" lon="-3.44246">
        <ele>5.4</ele>
        <time>2025-09-26T14:09:42Z</time>
      </trkpt>
      <trkpt lat="48.80145" lon="-3.44228">
        <ele>5.6</ele>
        <time>2025-09-26T14:09:51Z</time>
      </trkpt>
      <trkpt lat="48.8012" lon="-3.44213">
        <ele>5.4</ele>
        <time>2025-09-26T14:09:58Z</time>
      </trkpt>
      <trkpt lat="48.8009" lon="-3.44195">
        <ele>5.2</ele>
        <time>2025-09-26T14:10:07Z</time>
      </trkpt>
      <trkpt lat="48.80061" lon="-3.44178">
        <ele>5.2</ele>
        <time>2025-09-26T14:10:16Z</time>
      </trkpt>
      <trkpt lat="48.80035" lon="-3.4416">
        <ele>5.2</ele>
        <time>2025-09-26T14:10:24Z</time>
      </trkpt>
      <trkpt lat="48.80031" lon="-3.44158">
        <ele>5.4</ele>
        <time>2025-09-26T14:10:25Z</time>
      </trkpt>
      <trkpt lat="48.80018" lon="-3.4415">
        <ele>5.2</ele>
        <time>2025-09-26T14:10:29Z</time>
      </trkpt>
      <trkpt lat="48.80012" lon="-3.44146">
        <ele>5.2</ele>
        <time>2025-09-26T14:10:31Z</time>
      </trkpt>
      <trkpt lat="48.80009" lon="-3.44144">
        <ele>5.2</ele>
        <time>2025-09-26T14:10:32Z</time>
      </trkpt>
      <trkpt lat="48.79995" lon="-3.44136">
        <ele>5.2</ele>
        <time>2025-09-26T14:10:38Z</time>
      </trkpt>
      <trkpt lat="48.79994" lon="-3.44135">
        <ele>5.2</ele>
        <time>2025-09-26T14:10:40Z</time>
      </trkpt>
      <trkpt lat="48.79994" lon="-3.44135">
        <ele>5.2</ele>
        <time>2025-09-26T14:10:42Z</time>
      </trkpt>
      <trkpt lat="48.79994" lon="-3.44135">
        <ele>4.8</ele>
        <time>2025-09-26T14:10:49Z</time>
      </trkpt>
      <trkpt lat="48.79994" lon="-3.44135">
        <ele>4.8</ele>
        <time>2025-09-26T14:10:52Z</time>
      </trkpt>
      <trkpt lat="48.79994" lon="-3.44135">
        <ele>5.2</ele>
        <time>2025-09-26T14:10:59Z</time>
      </trkpt>
      <trkpt lat="48.79994" lon="-3.44135">
        <ele>5.4</ele>
        <time>2025-09-26T14:11:10Z</time>
      </trkpt>
      <trkpt lat="48.79994" lon="-3.44135">
        <ele>5</ele>
        <time>2025-09-26T14:11:28Z</time>
      </trkpt>
      <trkpt lat="48.79994" lon="-3.44135">
        <ele>5</ele>
        <time>2025-09-26T14:11:33Z</time>
      </trkpt>
      <trkpt lat="48.79994" lon="-3.44135">
        <ele>5</ele>
        <time>2025-09-26T14:11:35Z</time>
      </trkpt>
      <trkpt lat="48.79995" lon="-3.44136">
        <ele>4.8</ele>
        <time>2025-09-26T14:11:38Z</time>
      </trkpt>
      <trkpt lat="48.79995" lon="-3.44136">
        <ele>4.6</ele>
        <time>2025-09-26T14:11:52Z</time>
      </trkpt>
      <trkpt lat="48.79995" lon="-3.44136">
        <ele>4.6</ele>
        <time>2025-09-26T14:11:56Z</time>
      </trkpt>
      <trkpt lat="48.79995" lon="-3.44136">
        <ele>4.6</ele>
        <time>2025-09-26T14:11:59Z</time>
      </trkpt>
      <trkpt lat="48.79993" lon="-3.44136">
        <ele>4.8</ele>
        <time>2025-09-26T14:12:02Z</time>
      </trkpt>
      <trkpt lat="48.79989" lon="-3.44136">
        <ele>4.8</ele>
        <time>2025-09-26T14:12:04Z</time>
      </trkpt>
      <trkpt lat="48.79979" lon="-3.44132">
        <ele>4.8</ele>
        <time>2025-09-26T14:12:08Z</time>
      </trkpt>
      <trkpt lat="48.79976" lon="-3.4413">
        <ele>4.8</ele>
        <time>2025-09-26T14:12:10Z</time>
      </trkpt>
      <trkpt lat="48.79974" lon="-3.44129">
        <ele>4.6</ele>
        <time>2025-09-26T14:12:11Z</time>
      </trkpt>
      <trkpt lat="48.7997" lon="-3.44126">
        <ele>4.6</ele>
        <time>2025-09-26T14:12:17Z</time>
      </trkpt>
      <trkpt lat="48.7997" lon="-3.44126">
        <ele>4.8</ele>
        <time>2025-09-26T14:12:20Z</time>
      </trkpt>
      <trkpt lat="48.7997" lon="-3.44126">
        <ele>4.8</ele>
        <time>2025-09-26T14:12:26Z</time>
      </trkpt>
      <trkpt lat="48.7997" lon="-3.44126">
        <ele>4.8</ele>
        <time>2025-09-26T14:12:28Z</time>
      </trkpt>
      <trkpt lat="48.7997" lon="-3.44126">
        <ele>4.6</ele>
        <time>2025-09-26T14:12:30Z</time>
      </trkpt>
      <trkpt lat="48.7997" lon="-3.44126">
        <ele>4.6</ele>
        <time>2025-09-26T14:12:32Z</time>
      </trkpt>
      <trkpt lat="48.79968" lon="-3.44125">
        <ele>4.6</ele>
        <time>2025-09-26T14:12:35Z</time>
      </trkpt>
      <trkpt lat="48.79963" lon="-3.44123">
        <ele>4.8</ele>
        <time>2025-09-26T14:12:38Z</time>
      </trkpt>
      <trkpt lat="48.7996" lon="-3.44122">
        <ele>4.6</ele>
        <time>2025-09-26T14:12:41Z</time>
      </trkpt>
      <trkpt lat="48.7996" lon="-3.44122">
        <ele>4.6</ele>
        <time>2025-09-26T14:12:43Z</time>
      </trkpt>
      <trkpt lat="48.7996" lon="-3.44122">
        <ele>4.4</ele>
        <time>2025-09-26T14:12:47Z</time>
      </trkpt>
      <trkpt lat="48.7996" lon="-3.44122">
        <ele>4.6</ele>
        <time>2025-09-26T14:12:49Z</time>
      </trkpt>
      <trkpt lat="48.7996" lon="-3.44122">
        <ele>4.6</ele>
        <time>2025-09-26T14:12:51Z</time>
      </trkpt>
      <trkpt lat="48.7996" lon="-3.44122">
        <ele>4.6</ele>
        <time>2025-09-26T14:13:13Z</time>
      </trkpt>
      <trkpt lat="48.79953" lon="-3.44117">
        <ele>4.8</ele>
        <time>2025-09-26T14:13:26Z</time>
      </trkpt>
      <trkpt lat="48.79937" lon="-3.44106">
        <ele>4.6</ele>
        <time>2025-09-26T14:13:31Z</time>
      </trkpt>
      <trkpt lat="48.7991" lon="-3.4409">
        <ele>4.6</ele>
        <time>2025-09-26T14:13:39Z</time>
      </trkpt>
      <trkpt lat="48.79884" lon="-3.44077">
        <ele>4.6</ele>
        <time>2025-09-26T14:13:47Z</time>
      </trkpt>
      <trkpt lat="48.79863" lon="-3.44069">
        <ele>4.6</ele>
        <time>2025-09-26T14:13:54Z</time>
      </trkpt>
      <trkpt lat="48.79855" lon="-3.44069">
        <ele>4.6</ele>
        <time>2025-09-26T14:13:57Z</time>
      </trkpt>
      <trkpt lat="48.79846" lon="-3.44068">
        <ele>4.4</ele>
        <time>2025-09-26T14:14:00Z</time>
      </trkpt>
      <trkpt lat="48.7984" lon="-3.44068">
        <ele>4.4</ele>
        <time>2025-09-26T14:14:02Z</time>
      </trkpt>
      <trkpt lat="48.79825" lon="-3.44069">
        <ele>4.6</ele>
        <time>2025-09-26T14:14:08Z</time>
      </trkpt>
      <trkpt lat="48.79822" lon="-3.44068">
        <ele>4.6</ele>
        <time>2025-09-26T14:14:12Z</time>
      </trkpt>
      <trkpt lat="48.79817" lon="-3.44062">
        <ele>4.6</ele>
        <time>2025-09-26T14:14:24Z</time>
      </trkpt>
      <trkpt lat="48.7981" lon="-3.44044">
        <ele>4.8</ele>
        <time>2025-09-26T14:14:30Z</time>
      </trkpt>
      <trkpt lat="48.79805" lon="-3.44014">
        <ele>5</ele>
        <time>2025-09-26T14:14:36Z</time>
      </trkpt>
      <trkpt lat="48.79802" lon="-3.43983">
        <ele>4.8</ele>
        <time>2025-09-26T14:14:42Z</time>
      </trkpt>
      <trkpt lat="48.79798" lon="-3.4397">
        <ele>5</ele>
        <time>2025-09-26T14:14:45Z</time>
      </trkpt>
      <trkpt lat="48.79797" lon="-3.43954">
        <ele>5</ele>
        <time>2025-09-26T14:14:48Z</time>
      </trkpt>
      <trkpt lat="48.79796" lon="-3.43903">
        <ele>4.8</ele>
        <time>2025-09-26T14:14:57Z</time>
      </trkpt>
      <trkpt lat="48.79796" lon="-3.43835">
        <ele>4.8</ele>
        <time>2025-09-26T14:15:08Z</time>
      </trkpt>
      <trkpt lat="48.79796" lon="-3.43804">
        <ele>4.8</ele>
        <time>2025-09-26T14:15:13Z</time>
      </trkpt>
      <trkpt lat="48.79797" lon="-3.4378">
        <ele>4.8</ele>
        <time>2025-09-26T14:15:17Z</time>
      </trkpt>
      <trkpt lat="48.79795" lon="-3.43726">
        <ele>5.2</ele>
        <time>2025-09-26T14:15:26Z</time>
      </trkpt>
      <trkpt lat="48.79784" lon="-3.43671">
        <ele>5.2</ele>
        <time>2025-09-26T14:15:35Z</time>
      </trkpt>
      <trkpt lat="48.79768" lon="-3.43612">
        <ele>5</ele>
        <time>2025-09-26T14:15:44Z</time>
      </trkpt>
      <trkpt lat="48.79751" lon="-3.43549">
        <ele>4.8</ele>
        <time>2025-09-26T14:15:53Z</time>
      </trkpt>
      <trkpt lat="48.79742" lon="-3.43505">
        <ele>4.2</ele>
        <time>2025-09-26T14:15:59Z</time>
      </trkpt>
      <trkpt lat="48.79737" lon="-3.43475">
        <ele>4.4</ele>
        <time>2025-09-26T14:16:03Z</time>
      </trkpt>
      <trkpt lat="48.79731" lon="-3.434">
        <ele>4.4</ele>
        <time>2025-09-26T14:16:13Z</time>
      </trkpt>
      <trkpt lat="48.7973" lon="-3.43357">
        <ele>4.6</ele>
        <time>2025-09-26T14:16:19Z</time>
      </trkpt>
      <trkpt lat="48.79732" lon="-3.43342">
        <ele>4.6</ele>
        <time>2025-09-26T14:16:21Z</time>
      </trkpt>
      <trkpt lat="48.79734" lon="-3.4332">
        <ele>4.4</ele>
        <time>2025-09-26T14:16:24Z</time>
      </trkpt>
      <trkpt lat="48.79735" lon="-3.4329">
        <ele>4.6</ele>
        <time>2025-09-26T14:16:28Z</time>
      </trkpt>
      <trkpt lat="48.79734" lon="-3.43276">
        <ele>4.8</ele>
        <time>2025-09-26T14:16:30Z</time>
      </trkpt>
      <trkpt lat="48.79733" lon="-3.43261">
        <ele>4.8</ele>
        <time>2025-09-26T14:16:32Z</time>
      </trkpt>
      <trkpt lat="48.79734" lon="-3.43239">
        <ele>4.8</ele>
        <time>2025-09-26T14:16:35Z</time>
      </trkpt>
      <trkpt lat="48.79732" lon="-3.43186">
        <ele>4.8</ele>
        <time>2025-09-26T14:16:42Z</time>
      </trkpt>
      <trkpt lat="48.79732" lon="-3.43178">
        <ele>4.8</ele>
        <time>2025-09-26T14:16:43Z</time>
      </trkpt>
      <trkpt lat="48.79729" lon="-3.43127">
        <ele>5</ele>
        <time>2025-09-26T14:16:50Z</time>
      </trkpt>
      <trkpt lat="48.79722" lon="-3.43078">
        <ele>5.2</ele>
        <time>2025-09-26T14:16:57Z</time>
      </trkpt>
      <trkpt lat="48.79721" lon="-3.43072">
        <ele>5.2</ele>
        <time>2025-09-26T14:16:58Z</time>
      </trkpt>
      <trkpt lat="48.79718" lon="-3.4306">
        <ele>5.4</ele>
        <time>2025-09-26T14:17:00Z</time>
      </trkpt>
      <trkpt lat="48.79712" lon="-3.43042">
        <ele>5.8</ele>
        <time>2025-09-26T14:17:03Z</time>
      </trkpt>
      <trkpt lat="48.79709" lon="-3.43029">
        <ele>6</ele>
        <time>2025-09-26T14:17:05Z</time>
      </trkpt>
      <trkpt lat="48.79703" lon="-3.42993">
        <ele>6.2</ele>
        <time>2025-09-26T14:17:10Z</time>
      </trkpt>
      <trkpt lat="48.79702" lon="-3.42985">
        <ele>6.2</ele>
        <time>2025-09-26T14:17:11Z</time>
      </trkpt>
      <trkpt lat="48.7969" lon="-3.42917">
        <ele>6.6</ele>
        <time>2025-09-26T14:17:20Z</time>
      </trkpt>
      <trkpt lat="48.79676" lon="-3.42842">
        <ele>6.8</ele>
        <time>2025-09-26T14:17:30Z</time>
      </trkpt>
      <trkpt lat="48.79664" lon="-3.42767">
        <ele>7.2</ele>
        <time>2025-09-26T14:17:40Z</time>
      </trkpt>
      <trkpt lat="48.7966" lon="-3.42739">
        <ele>7</ele>
        <time>2025-09-26T14:17:44Z</time>
      </trkpt>
      <trkpt lat="48.79659" lon="-3.42735">
        <ele>7.2</ele>
        <time>2025-09-26T14:17:45Z</time>
      </trkpt>
      <trkpt lat="48.79658" lon="-3.42732">
        <ele>7.4</ele>
        <time>2025-09-26T14:17:47Z</time>
      </trkpt>
      <trkpt lat="48.79657" lon="-3.42729">
        <ele>7.6</ele>
        <time>2025-09-26T14:17:53Z</time>
      </trkpt>
      <trkpt lat="48.79654" lon="-3.4273">
        <ele>7.8</ele>
        <time>2025-09-26T14:17:58Z</time>
      </trkpt>
      <trkpt lat="48.79652" lon="-3.4273">
        <ele>8</ele>
        <time>2025-09-26T14:17:59Z</time>
      </trkpt>
      <trkpt lat="48.79649" lon="-3.42729">
        <ele>8</ele>
        <time>2025-09-26T14:18:00Z</time>
      </trkpt>
      <trkpt lat="48.79647" lon="-3.42722">
        <ele>8</ele>
        <time>2025-09-26T14:18:02Z</time>
      </trkpt>
      <trkpt lat="48.79646" lon="-3.42716">
        <ele>8</ele>
        <time>2025-09-26T14:18:03Z</time>
      </trkpt>
      <trkpt lat="48.79642" lon="-3.42699">
        <ele>7.6</ele>
        <time>2025-09-26T14:18:06Z</time>
      </trkpt>
      <trkpt lat="48.79629" lon="-3.4265">
        <ele>7.8</ele>
        <time>2025-09-26T14:18:13Z</time>
      </trkpt>
      <trkpt lat="48.79628" lon="-3.42643">
        <ele>7.8</ele>
        <time>2025-09-26T14:18:14Z</time>
      </trkpt>
      <trkpt lat="48.79626" lon="-3.42636">
        <ele>7.8</ele>
        <time>2025-09-26T14:18:15Z</time>
      </trkpt>
      <trkpt lat="48.79614" lon="-3.4257">
        <ele>8.4</ele>
        <time>2025-09-26T14:18:24Z</time>
      </trkpt>
      <trkpt lat="48.79613" lon="-3.42563">
        <ele>8.4</ele>
        <time>2025-09-26T14:18:25Z</time>
      </trkpt>
      <trkpt lat="48.79608" lon="-3.42502">
        <ele>8</ele>
        <time>2025-09-26T14:18:33Z</time>
      </trkpt>
      <trkpt lat="48.79602" lon="-3.42443">
        <ele>8</ele>
        <time>2025-09-26T14:18:41Z</time>
      </trkpt>
      <trkpt lat="48.79596" lon="-3.42373">
        <ele>9.2</ele>
        <time>2025-09-26T14:18:51Z</time>
      </trkpt>
      <trkpt lat="48.79597" lon="-3.42362">
        <ele>9.6</ele>
        <time>2025-09-26T14:18:53Z</time>
      </trkpt>
      <trkpt lat="48.79596" lon="-3.42344">
        <ele>10</ele>
        <time>2025-09-26T14:18:56Z</time>
      </trkpt>
      <trkpt lat="48.79595" lon="-3.42324">
        <ele>10.8</ele>
        <time>2025-09-26T14:18:59Z</time>
      </trkpt>
      <trkpt lat="48.79594" lon="-3.42297">
        <ele>11.8</ele>
        <time>2025-09-26T14:19:03Z</time>
      </trkpt>
      <trkpt lat="48.79592" lon="-3.42284">
        <ele>12.4</ele>
        <time>2025-09-26T14:19:05Z</time>
      </trkpt>
      <trkpt lat="48.79592" lon="-3.42277">
        <ele>12.6</ele>
        <time>2025-09-26T14:19:06Z</time>
      </trkpt>
      <trkpt lat="48.7959" lon="-3.42271">
        <ele>12.8</ele>
        <time>2025-09-26T14:19:07Z</time>
      </trkpt>
      <trkpt lat="48.79589" lon="-3.42265">
        <ele>13.2</ele>
        <time>2025-09-26T14:19:08Z</time>
      </trkpt>
      <trkpt lat="48.79588" lon="-3.42245">
        <ele>13.8</ele>
        <time>2025-09-26T14:19:11Z</time>
      </trkpt>
      <trkpt lat="48.79586" lon="-3.42213">
        <ele>15</ele>
        <time>2025-09-26T14:19:16Z</time>
      </trkpt>
      <trkpt lat="48.79584" lon="-3.42194">
        <ele>15.6</ele>
        <time>2025-09-26T14:19:19Z</time>
      </trkpt>
      <trkpt lat="48.79584" lon="-3.42181">
        <ele>16</ele>
        <time>2025-09-26T14:19:21Z</time>
      </trkpt>
      <trkpt lat="48.7958" lon="-3.42143">
        <ele>17.2</ele>
        <time>2025-09-26T14:19:27Z</time>
      </trkpt>
      <trkpt lat="48.79579" lon="-3.42131">
        <ele>17.6</ele>
        <time>2025-09-26T14:19:29Z</time>
      </trkpt>
      <trkpt lat="48.79577" lon="-3.42118">
        <ele>18.2</ele>
        <time>2025-09-26T14:19:31Z</time>
      </trkpt>
      <trkpt lat="48.79576" lon="-3.42112">
        <ele>18.4</ele>
        <time>2025-09-26T14:19:32Z</time>
      </trkpt>
      <trkpt lat="48.79574" lon="-3.42086">
        <ele>19.4</ele>
        <time>2025-09-26T14:19:36Z</time>
      </trkpt>
      <trkpt lat="48.79571" lon="-3.42067">
        <ele>20.2</ele>
        <time>2025-09-26T14:19:39Z</time>
      </trkpt>
      <trkpt lat="48.79569" lon="-3.42054">
        <ele>20.6</ele>
        <time>2025-09-26T14:19:41Z</time>
      </trkpt>
      <trkpt lat="48.79568" lon="-3.42047">
        <ele>20.8</ele>
        <time>2025-09-26T14:19:42Z</time>
      </trkpt>
      <trkpt lat="48.79565" lon="-3.42035">
        <ele>21</ele>
        <time>2025-09-26T14:19:44Z</time>
      </trkpt>
      <trkpt lat="48.79561" lon="-3.42022">
        <ele>21.8</ele>
        <time>2025-09-26T14:19:46Z</time>
      </trkpt>
      <trkpt lat="48.79554" lon="-3.41991">
        <ele>23</ele>
        <time>2025-09-26T14:19:51Z</time>
      </trkpt>
      <trkpt lat="48.79549" lon="-3.41979">
        <ele>23.6</ele>
        <time>2025-09-26T14:19:53Z</time>
      </trkpt>
      <trkpt lat="48.79546" lon="-3.41968">
        <ele>24.4</ele>
        <time>2025-09-26T14:19:55Z</time>
      </trkpt>
      <trkpt lat="48.79542" lon="-3.41956">
        <ele>24.6</ele>
        <time>2025-09-26T14:19:57Z</time>
      </trkpt>
      <trkpt lat="48.79538" lon="-3.41945">
        <ele>25.2</ele>
        <time>2025-09-26T14:19:59Z</time>
      </trkpt>
      <trkpt lat="48.79536" lon="-3.41939">
        <ele>25.4</ele>
        <time>2025-09-26T14:20:00Z</time>
      </trkpt>
      <trkpt lat="48.79532" lon="-3.41922">
        <ele>25.8</ele>
        <time>2025-09-26T14:20:03Z</time>
      </trkpt>
      <trkpt lat="48.7953" lon="-3.41916">
        <ele>26</ele>
        <time>2025-09-26T14:20:04Z</time>
      </trkpt>
      <trkpt lat="48.79524" lon="-3.41899">
        <ele>27</ele>
        <time>2025-09-26T14:20:07Z</time>
      </trkpt>
      <trkpt lat="48.79513" lon="-3.4187">
        <ele>28.2</ele>
        <time>2025-09-26T14:20:12Z</time>
      </trkpt>
      <trkpt lat="48.79504" lon="-3.41841">
        <ele>29.2</ele>
        <time>2025-09-26T14:20:17Z</time>
      </trkpt>
      <trkpt lat="48.79495" lon="-3.41818">
        <ele>30.4</ele>
        <time>2025-09-26T14:20:21Z</time>
      </trkpt>
      <trkpt lat="48.79488" lon="-3.41794">
        <ele>31.6</ele>
        <time>2025-09-26T14:20:25Z</time>
      </trkpt>
      <trkpt lat="48.79484" lon="-3.41782">
        <ele>32</ele>
        <time>2025-09-26T14:20:27Z</time>
      </trkpt>
      <trkpt lat="48.79481" lon="-3.41769">
        <ele>32.6</ele>
        <time>2025-09-26T14:20:29Z</time>
      </trkpt>
      <trkpt lat="48.79475" lon="-3.41737">
        <ele>34</ele>
        <time>2025-09-26T14:20:34Z</time>
      </trkpt>
      <trkpt lat="48.79473" lon="-3.41725">
        <ele>34.4</ele>
        <time>2025-09-26T14:20:36Z</time>
      </trkpt>
      <trkpt lat="48.79471" lon="-3.41712">
        <ele>35</ele>
        <time>2025-09-26T14:20:38Z</time>
      </trkpt>
      <trkpt lat="48.79469" lon="-3.41686">
        <ele>36.2</ele>
        <time>2025-09-26T14:20:42Z</time>
      </trkpt>
      <trkpt lat="48.79468" lon="-3.4168">
        <ele>36.4</ele>
        <time>2025-09-26T14:20:43Z</time>
      </trkpt>
      <trkpt lat="48.79467" lon="-3.41666">
        <ele>37</ele>
        <time>2025-09-26T14:20:45Z</time>
      </trkpt>
      <trkpt lat="48.79467" lon="-3.41653">
        <ele>37.4</ele>
        <time>2025-09-26T14:20:47Z</time>
      </trkpt>
      <trkpt lat="48.79467" lon="-3.41639">
        <ele>37.8</ele>
        <time>2025-09-26T14:20:49Z</time>
      </trkpt>
      <trkpt lat="48.79468" lon="-3.41619">
        <ele>38.4</ele>
        <time>2025-09-26T14:20:52Z</time>
      </trkpt>
      <trkpt lat="48.79468" lon="-3.41612">
        <ele>38.8</ele>
        <time>2025-09-26T14:20:53Z</time>
      </trkpt>
      <trkpt lat="48.7947" lon="-3.41593">
        <ele>39.6</ele>
        <time>2025-09-26T14:20:56Z</time>
      </trkpt>
      <trkpt lat="48.79471" lon="-3.41586">
        <ele>39.8</ele>
        <time>2025-09-26T14:20:57Z</time>
      </trkpt>
      <trkpt lat="48.79472" lon="-3.4158">
        <ele>40</ele>
        <time>2025-09-26T14:20:58Z</time>
      </trkpt>
      <trkpt lat="48.79476" lon="-3.41555">
        <ele>40.8</ele>
        <time>2025-09-26T14:21:02Z</time>
      </trkpt>
      <trkpt lat="48.79477" lon="-3.41549">
        <ele>41.2</ele>
        <time>2025-09-26T14:21:03Z</time>
      </trkpt>
      <trkpt lat="48.79482" lon="-3.41517">
        <ele>42.4</ele>
        <time>2025-09-26T14:21:08Z</time>
      </trkpt>
      <trkpt lat="48.79484" lon="-3.41505">
        <ele>42.8</ele>
        <time>2025-09-26T14:21:10Z</time>
      </trkpt>
      <trkpt lat="48.79486" lon="-3.41492">
        <ele>43</ele>
        <time>2025-09-26T14:21:12Z</time>
      </trkpt>
      <trkpt lat="48.79488" lon="-3.41461">
        <ele>43.8</ele>
        <time>2025-09-26T14:21:17Z</time>
      </trkpt>
      <trkpt lat="48.79489" lon="-3.41454">
        <ele>43.8</ele>
        <time>2025-09-26T14:21:18Z</time>
      </trkpt>
      <trkpt lat="48.79489" lon="-3.41431">
        <ele>44.4</ele>
        <time>2025-09-26T14:21:22Z</time>
      </trkpt>
      <trkpt lat="48.79488" lon="-3.41419">
        <ele>44.6</ele>
        <time>2025-09-26T14:21:24Z</time>
      </trkpt>
      <trkpt lat="48.79487" lon="-3.41413">
        <ele>44.8</ele>
        <time>2025-09-26T14:21:25Z</time>
      </trkpt>
      <trkpt lat="48.79485" lon="-3.41407">
        <ele>45</ele>
        <time>2025-09-26T14:21:26Z</time>
      </trkpt>
      <trkpt lat="48.79486" lon="-3.41389">
        <ele>45.2</ele>
        <time>2025-09-26T14:21:29Z</time>
      </trkpt>
      <trkpt lat="48.79487" lon="-3.41376">
        <ele>45.2</ele>
        <time>2025-09-26T14:21:31Z</time>
      </trkpt>
      <trkpt lat="48.79486" lon="-3.41364">
        <ele>45.4</ele>
        <time>2025-09-26T14:21:33Z</time>
      </trkpt>
      <trkpt lat="48.79484" lon="-3.41357">
        <ele>45.6</ele>
        <time>2025-09-26T14:21:34Z</time>
      </trkpt>
      <trkpt lat="48.7948" lon="-3.41338">
        <ele>46</ele>
        <time>2025-09-26T14:21:37Z</time>
      </trkpt>
      <trkpt lat="48.79473" lon="-3.41306">
        <ele>47</ele>
        <time>2025-09-26T14:21:42Z</time>
      </trkpt>
      <trkpt lat="48.79472" lon="-3.413">
        <ele>47.2</ele>
        <time>2025-09-26T14:21:43Z</time>
      </trkpt>
      <trkpt lat="48.79464" lon="-3.41262">
        <ele>48.4</ele>
        <time>2025-09-26T14:21:49Z</time>
      </trkpt>
      <trkpt lat="48.79462" lon="-3.4125">
        <ele>48.8</ele>
        <time>2025-09-26T14:21:51Z</time>
      </trkpt>
      <trkpt lat="48.79459" lon="-3.41237">
        <ele>49.6</ele>
        <time>2025-09-26T14:21:53Z</time>
      </trkpt>
      <trkpt lat="48.79454" lon="-3.41214">
        <ele>50.8</ele>
        <time>2025-09-26T14:21:57Z</time>
      </trkpt>
      <trkpt lat="48.7945" lon="-3.41189">
        <ele>52.2</ele>
        <time>2025-09-26T14:22:01Z</time>
      </trkpt>
      <trkpt lat="48.79447" lon="-3.41177">
        <ele>53.2</ele>
        <time>2025-09-26T14:22:03Z</time>
      </trkpt>
      <trkpt lat="48.79441" lon="-3.41155">
        <ele>54.6</ele>
        <time>2025-09-26T14:22:07Z</time>
      </trkpt>
      <trkpt lat="48.79437" lon="-3.41146">
        <ele>55</ele>
        <time>2025-09-26T14:22:09Z</time>
      </trkpt>
      <trkpt lat="48.79427" lon="-3.41129">
        <ele>55.6</ele>
        <time>2025-09-26T14:22:13Z</time>
      </trkpt>
      <trkpt lat="48.79419" lon="-3.41118">
        <ele>56</ele>
        <time>2025-09-26T14:22:16Z</time>
      </trkpt>
      <trkpt lat="48.79405" lon="-3.41083">
        <ele>56</ele>
        <time>2025-09-26T14:22:23Z</time>
      </trkpt>
      <trkpt lat="48.79393" lon="-3.41028">
        <ele>55.8</ele>
        <time>2025-09-26T14:22:32Z</time>
      </trkpt>
      <trkpt lat="48.79392" lon="-3.41022">
        <ele>55.8</ele>
        <time>2025-09-26T14:22:33Z</time>
      </trkpt>
      <trkpt lat="48.79385" lon="-3.40991">
        <ele>56.2</ele>
        <time>2025-09-26T14:22:38Z</time>
      </trkpt>
      <trkpt lat="48.79381" lon="-3.40967">
        <ele>56.4</ele>
        <time>2025-09-26T14:22:42Z</time>
      </trkpt>
      <trkpt lat="48.79372" lon="-3.40924">
        <ele>56.8</ele>
        <time>2025-09-26T14:22:49Z</time>
      </trkpt>
      <trkpt lat="48.79367" lon="-3.409">
        <ele>57.2</ele>
        <time>2025-09-26T14:22:53Z</time>
      </trkpt>
      <trkpt lat="48.79361" lon="-3.40867">
        <ele>57.4</ele>
        <time>2025-09-26T14:22:58Z</time>
      </trkpt>
      <trkpt lat="48.79361" lon="-3.40854">
        <ele>57.6</ele>
        <time>2025-09-26T14:23:00Z</time>
      </trkpt>
      <trkpt lat="48.79363" lon="-3.40848">
        <ele>57.6</ele>
        <time>2025-09-26T14:23:01Z</time>
      </trkpt>
      <trkpt lat="48.79366" lon="-3.40836">
        <ele>57.8</ele>
        <time>2025-09-26T14:23:03Z</time>
      </trkpt>
      <trkpt lat="48.79367" lon="-3.4083">
        <ele>58</ele>
        <time>2025-09-26T14:23:04Z</time>
      </trkpt>
      <trkpt lat="48.7937" lon="-3.40805">
        <ele>58</ele>
        <time>2025-09-26T14:23:08Z</time>
      </trkpt>
      <trkpt lat="48.79376" lon="-3.40768">
        <ele>58.6</ele>
        <time>2025-09-26T14:23:14Z</time>
      </trkpt>
      <trkpt lat="48.79376" lon="-3.40762">
        <ele>58.6</ele>
        <time>2025-09-26T14:23:15Z</time>
      </trkpt>
      <trkpt lat="48.79376" lon="-3.40749">
        <ele>58.8</ele>
        <time>2025-09-26T14:23:17Z</time>
      </trkpt>
      <trkpt lat="48.79376" lon="-3.40743">
        <ele>59</ele>
        <time>2025-09-26T14:23:18Z</time>
      </trkpt>
      <trkpt lat="48.79378" lon="-3.40724">
        <ele>59.8</ele>
        <time>2025-09-26T14:23:21Z</time>
      </trkpt>
      <trkpt lat="48.79379" lon="-3.40692">
        <ele>61</ele>
        <time>2025-09-26T14:23:26Z</time>
      </trkpt>
      <trkpt lat="48.7938" lon="-3.40665">
        <ele>61.6</ele>
        <time>2025-09-26T14:23:30Z</time>
      </trkpt>
      <trkpt lat="48.79381" lon="-3.40651">
        <ele>62</ele>
        <time>2025-09-26T14:23:32Z</time>
      </trkpt>
      <trkpt lat="48.79383" lon="-3.40626">
        <ele>62.4</ele>
        <time>2025-09-26T14:23:36Z</time>
      </trkpt>
      <trkpt lat="48.79384" lon="-3.40607">
        <ele>63.4</ele>
        <time>2025-09-26T14:23:39Z</time>
      </trkpt>
      <trkpt lat="48.79387" lon="-3.40556">
        <ele>64.4</ele>
        <time>2025-09-26T14:23:48Z</time>
      </trkpt>
      <trkpt lat="48.79383" lon="-3.40525">
        <ele>64.2</ele>
        <time>2025-09-26T14:23:53Z</time>
      </trkpt>
      <trkpt lat="48.79374" lon="-3.40459">
        <ele>63.6</ele>
        <time>2025-09-26T14:24:02Z</time>
      </trkpt>
      <trkpt lat="48.79366" lon="-3.40398">
        <ele>62.6</ele>
        <time>2025-09-26T14:24:10Z</time>
      </trkpt>
      <trkpt lat="48.79364" lon="-3.40377">
        <ele>62.4</ele>
        <time>2025-09-26T14:24:13Z</time>
      </trkpt>
      <trkpt lat="48.7936" lon="-3.40343">
        <ele>62.4</ele>
        <time>2025-09-26T14:24:18Z</time>
      </trkpt>
      <trkpt lat="48.79356" lon="-3.40308">
        <ele>62.6</ele>
        <time>2025-09-26T14:24:23Z</time>
      </trkpt>
      <trkpt lat="48.79354" lon="-3.40295">
        <ele>62.8</ele>
        <time>2025-09-26T14:24:25Z</time>
      </trkpt>
      <trkpt lat="48.79353" lon="-3.40282">
        <ele>63</ele>
        <time>2025-09-26T14:24:27Z</time>
      </trkpt>
      <trkpt lat="48.79352" lon="-3.40264">
        <ele>63.2</ele>
        <time>2025-09-26T14:24:30Z</time>
      </trkpt>
      <trkpt lat="48.79351" lon="-3.40251">
        <ele>63.2</ele>
        <time>2025-09-26T14:24:32Z</time>
      </trkpt>
      <trkpt lat="48.79348" lon="-3.40232">
        <ele>63</ele>
        <time>2025-09-26T14:24:35Z</time>
      </trkpt>
      <trkpt lat="48.79346" lon="-3.40221">
        <ele>63</ele>
        <time>2025-09-26T14:24:37Z</time>
      </trkpt>
      <trkpt lat="48.79345" lon="-3.40216">
        <ele>63</ele>
        <time>2025-09-26T14:24:38Z</time>
      </trkpt>
      <trkpt lat="48.79344" lon="-3.40196">
        <ele>63.2</ele>
        <time>2025-09-26T14:24:43Z</time>
      </trkpt>
      <trkpt lat="48.79344" lon="-3.40195">
        <ele>63.2</ele>
        <time>2025-09-26T14:24:45Z</time>
      </trkpt>
      <trkpt lat="48.79344" lon="-3.40195">
        <ele>63.2</ele>
        <time>2025-09-26T14:24:47Z</time>
      </trkpt>
      <trkpt lat="48.79344" lon="-3.40195">
        <ele>63.4</ele>
        <time>2025-09-26T14:24:51Z</time>
      </trkpt>
      <trkpt lat="48.79344" lon="-3.40195">
        <ele>63.6</ele>
        <time>2025-09-26T14:24:55Z</time>
      </trkpt>
      <trkpt lat="48.79343" lon="-3.40195">
        <ele>63</ele>
        <time>2025-09-26T14:25:09Z</time>
      </trkpt>
      <trkpt lat="48.79343" lon="-3.40195">
        <ele>62.8</ele>
        <time>2025-09-26T14:25:21Z</time>
      </trkpt>
      <trkpt lat="48.79343" lon="-3.40195">
        <ele>63</ele>
        <time>2025-09-26T14:25:22Z</time>
      </trkpt>
      <trkpt lat="48.79343" lon="-3.40195">
        <ele>62.8</ele>
        <time>2025-09-26T14:25:28Z</time>
      </trkpt>
      <trkpt lat="48.79343" lon="-3.40195">
        <ele>62.8</ele>
        <time>2025-09-26T14:25:31Z</time>
      </trkpt>
      <trkpt lat="48.79343" lon="-3.40195">
        <ele>62.8</ele>
        <time>2025-09-26T14:25:34Z</time>
      </trkpt>
      <trkpt lat="48.79343" lon="-3.40195">
        <ele>62.8</ele>
        <time>2025-09-26T14:25:35Z</time>
      </trkpt>
      <trkpt lat="48.79343" lon="-3.40195">
        <ele>62.4</ele>
        <time>2025-09-26T14:25:49Z</time>
      </trkpt>
      <trkpt lat="48.79343" lon="-3.40194">
        <ele>62.4</ele>
        <time>2025-09-26T14:26:01Z</time>
      </trkpt>
      <trkpt lat="48.79343" lon="-3.40194">
        <ele>62.4</ele>
        <time>2025-09-26T14:26:04Z</time>
      </trkpt>
      <trkpt lat="48.79343" lon="-3.40194">
        <ele>62.4</ele>
        <time>2025-09-26T14:26:05Z</time>
      </trkpt>
      <trkpt lat="48.79343" lon="-3.40194">
        <ele>62.6</ele>
        <time>2025-09-26T14:26:07Z</time>
      </trkpt>
      <trkpt lat="48.79343" lon="-3.40194">
        <ele>62.6</ele>
        <time>2025-09-26T14:26:08Z</time>
      </trkpt>
      <trkpt lat="48.79344" lon="-3.40191">
        <ele>62.4</ele>
        <time>2025-09-26T14:26:24Z</time>
      </trkpt>
      <trkpt lat="48.79344" lon="-3.40186">
        <ele>62.6</ele>
        <time>2025-09-26T14:26:26Z</time>
      </trkpt>
      <trkpt lat="48.79344" lon="-3.4018">
        <ele>62.4</ele>
        <time>2025-09-26T14:26:28Z</time>
      </trkpt>
      <trkpt lat="48.79344" lon="-3.40173">
        <ele>62.4</ele>
        <time>2025-09-26T14:26:30Z</time>
      </trkpt>
      <trkpt lat="48.79344" lon="-3.40164">
        <ele>62.4</ele>
        <time>2025-09-26T14:26:32Z</time>
      </trkpt>
      <trkpt lat="48.79344" lon="-3.40128">
        <ele>62.4</ele>
        <time>2025-09-26T14:26:39Z</time>
      </trkpt>
      <trkpt lat="48.79343" lon="-3.40092">
        <ele>62.6</ele>
        <time>2025-09-26T14:26:44Z</time>
      </trkpt>
      <trkpt lat="48.79342" lon="-3.40078">
        <ele>62.6</ele>
        <time>2025-09-26T14:26:46Z</time>
      </trkpt>
      <trkpt lat="48.79337" lon="-3.4001">
        <ele>63.2</ele>
        <time>2025-09-26T14:26:56Z</time>
      </trkpt>
      <trkpt lat="48.79335" lon="-3.39996">
        <ele>63.4</ele>
        <time>2025-09-26T14:26:58Z</time>
      </trkpt>
      <trkpt lat="48.79334" lon="-3.3999">
        <ele>63.4</ele>
        <time>2025-09-26T14:26:59Z</time>
      </trkpt>
      <trkpt lat="48.79332" lon="-3.3997">
        <ele>64</ele>
        <time>2025-09-26T14:27:02Z</time>
      </trkpt>
      <trkpt lat="48.79329" lon="-3.39951">
        <ele>64.4</ele>
        <time>2025-09-26T14:27:05Z</time>
      </trkpt>
      <trkpt lat="48.79327" lon="-3.39925">
        <ele>65.2</ele>
        <time>2025-09-26T14:27:09Z</time>
      </trkpt>
      <trkpt lat="48.79327" lon="-3.39918">
        <ele>65.6</ele>
        <time>2025-09-26T14:27:10Z</time>
      </trkpt>
      <trkpt lat="48.79324" lon="-3.39892">
        <ele>66.8</ele>
        <time>2025-09-26T14:27:14Z</time>
      </trkpt>
      <trkpt lat="48.79321" lon="-3.39872">
        <ele>68</ele>
        <time>2025-09-26T14:27:17Z</time>
      </trkpt>
      <trkpt lat="48.79321" lon="-3.39865">
        <ele>68.2</ele>
        <time>2025-09-26T14:27:18Z</time>
      </trkpt>
      <trkpt lat="48.79317" lon="-3.39833">
        <ele>69</ele>
        <time>2025-09-26T14:27:23Z</time>
      </trkpt>
      <trkpt lat="48.79314" lon="-3.39806">
        <ele>69.6</ele>
        <time>2025-09-26T14:27:27Z</time>
      </trkpt>
      <trkpt lat="48.79311" lon="-3.39786">
        <ele>70</ele>
        <time>2025-09-26T14:27:30Z</time>
      </trkpt>
      <trkpt lat="48.7931" lon="-3.39779">
        <ele>70.2</ele>
        <time>2025-09-26T14:27:31Z</time>
      </trkpt>
      <trkpt lat="48.79309" lon="-3.39766">
        <ele>70.4</ele>
        <time>2025-09-26T14:27:33Z</time>
      </trkpt>
      <trkpt lat="48.79304" lon="-3.39747">
        <ele>71</ele>
        <time>2025-09-26T14:27:36Z</time>
      </trkpt>
      <trkpt lat="48.79288" lon="-3.39691">
        <ele>70.8</ele>
        <time>2025-09-26T14:27:45Z</time>
      </trkpt>
      <trkpt lat="48.79274" lon="-3.39635">
        <ele>71</ele>
        <time>2025-09-26T14:27:54Z</time>
      </trkpt>
      <trkpt lat="48.79257" lon="-3.39579">
        <ele>71</ele>
        <time>2025-09-26T14:28:03Z</time>
      </trkpt>
      <trkpt lat="48.79247" lon="-3.39534">
        <ele>71</ele>
        <time>2025-09-26T14:28:10Z</time>
      </trkpt>
      <trkpt lat="48.79247" lon="-3.39527">
        <ele>71</ele>
        <time>2025-09-26T14:28:11Z</time>
      </trkpt>
      <trkpt lat="48.79246" lon="-3.39506">
        <ele>71.2</ele>
        <time>2025-09-26T14:28:14Z</time>
      </trkpt>
      <trkpt lat="48.79246" lon="-3.39476">
        <ele>71</ele>
        <time>2025-09-26T14:28:18Z</time>
      </trkpt>
      <trkpt lat="48.79241" lon="-3.39417">
        <ele>71.4</ele>
        <time>2025-09-26T14:28:26Z</time>
      </trkpt>
      <trkpt lat="48.79238" lon="-3.39403">
        <ele>71.6</ele>
        <time>2025-09-26T14:28:28Z</time>
      </trkpt>
      <trkpt lat="48.79232" lon="-3.39376">
        <ele>72.4</ele>
        <time>2025-09-26T14:28:32Z</time>
      </trkpt>
      <trkpt lat="48.79231" lon="-3.39368">
        <ele>72.8</ele>
        <time>2025-09-26T14:28:33Z</time>
      </trkpt>
      <trkpt lat="48.79224" lon="-3.39332">
        <ele>73.4</ele>
        <time>2025-09-26T14:28:38Z</time>
      </trkpt>
      <trkpt lat="48.79221" lon="-3.39317">
        <ele>73.8</ele>
        <time>2025-09-26T14:28:40Z</time>
      </trkpt>
      <trkpt lat="48.79215" lon="-3.39272">
        <ele>73.8</ele>
        <time>2025-09-26T14:28:46Z</time>
      </trkpt>
      <trkpt lat="48.79213" lon="-3.39256">
        <ele>73.8</ele>
        <time>2025-09-26T14:28:48Z</time>
      </trkpt>
      <trkpt lat="48.79209" lon="-3.39211">
        <ele>74.4</ele>
        <time>2025-09-26T14:28:54Z</time>
      </trkpt>
      <trkpt lat="48.79208" lon="-3.39203">
        <ele>74.6</ele>
        <time>2025-09-26T14:28:55Z</time>
      </trkpt>
      <trkpt lat="48.79207" lon="-3.39196">
        <ele>74.6</ele>
        <time>2025-09-26T14:28:56Z</time>
      </trkpt>
      <trkpt lat="48.79204" lon="-3.39174">
        <ele>74.8</ele>
        <time>2025-09-26T14:28:59Z</time>
      </trkpt>
      <trkpt lat="48.79196" lon="-3.39145">
        <ele>75</ele>
        <time>2025-09-26T14:29:03Z</time>
      </trkpt>
      <trkpt lat="48.79191" lon="-3.39132">
        <ele>75</ele>
        <time>2025-09-26T14:29:05Z</time>
      </trkpt>
      <trkpt lat="48.79174" lon="-3.39102">
        <ele>75.6</ele>
        <time>2025-09-26T14:29:10Z</time>
      </trkpt>
      <trkpt lat="48.79171" lon="-3.39096">
        <ele>75.6</ele>
        <time>2025-09-26T14:29:11Z</time>
      </trkpt>
      <trkpt lat="48.79146" lon="-3.39049">
        <ele>76.2</ele>
        <time>2025-09-26T14:29:19Z</time>
      </trkpt>
      <trkpt lat="48.79117" lon="-3.39003">
        <ele>76.6</ele>
        <time>2025-09-26T14:29:27Z</time>
      </trkpt>
      <trkpt lat="48.79113" lon="-3.38997">
        <ele>76.8</ele>
        <time>2025-09-26T14:29:28Z</time>
      </trkpt>
      <trkpt lat="48.79099" lon="-3.38975">
        <ele>77</ele>
        <time>2025-09-26T14:29:32Z</time>
      </trkpt>
      <trkpt lat="48.7909" lon="-3.38965">
        <ele>77</ele>
        <time>2025-09-26T14:29:34Z</time>
      </trkpt>
      <trkpt lat="48.79081" lon="-3.38957">
        <ele>77.2</ele>
        <time>2025-09-26T14:29:36Z</time>
      </trkpt>
      <trkpt lat="48.79077" lon="-3.38952">
        <ele>77.2</ele>
        <time>2025-09-26T14:29:37Z</time>
      </trkpt>
      <trkpt lat="48.79071" lon="-3.3894">
        <ele>77.4</ele>
        <time>2025-09-26T14:29:39Z</time>
      </trkpt>
      <trkpt lat="48.79069" lon="-3.38934">
        <ele>77.4</ele>
        <time>2025-09-26T14:29:40Z</time>
      </trkpt>
      <trkpt lat="48.79067" lon="-3.38927">
        <ele>77.6</ele>
        <time>2025-09-26T14:29:41Z</time>
      </trkpt>
      <trkpt lat="48.79065" lon="-3.38911">
        <ele>77.8</ele>
        <time>2025-09-26T14:29:44Z</time>
      </trkpt>
      <trkpt lat="48.7906" lon="-3.3889">
        <ele>78</ele>
        <time>2025-09-26T14:29:48Z</time>
      </trkpt>
      <trkpt lat="48.79051" lon="-3.38847">
        <ele>77.8</ele>
        <time>2025-09-26T14:29:54Z</time>
      </trkpt>
      <trkpt lat="48.79043" lon="-3.38789">
        <ele>77.2</ele>
        <time>2025-09-26T14:30:01Z</time>
      </trkpt>
      <trkpt lat="48.79041" lon="-3.38745">
        <ele>76.6</ele>
        <time>2025-09-26T14:30:06Z</time>
      </trkpt>
      <trkpt lat="48.79041" lon="-3.38724">
        <ele>75.6</ele>
        <time>2025-09-26T14:30:08Z</time>
      </trkpt>
      <trkpt lat="48.79041" lon="-3.38714">
        <ele>75.6</ele>
        <time>2025-09-26T14:30:09Z</time>
      </trkpt>
      <trkpt lat="48.79037" lon="-3.38651">
        <ele>74.6</ele>
        <time>2025-09-26T14:30:15Z</time>
      </trkpt>
      <trkpt lat="48.79036" lon="-3.3864">
        <ele>74.2</ele>
        <time>2025-09-26T14:30:16Z</time>
      </trkpt>
      <trkpt lat="48.79026" lon="-3.38581">
        <ele>73.4</ele>
        <time>2025-09-26T14:30:22Z</time>
      </trkpt>
      <trkpt lat="48.79019" lon="-3.38555">
        <ele>73.2</ele>
        <time>2025-09-26T14:30:25Z</time>
      </trkpt>
      <trkpt lat="48.79014" lon="-3.3854">
        <ele>73.2</ele>
        <time>2025-09-26T14:30:27Z</time>
      </trkpt>
      <trkpt lat="48.79009" lon="-3.38521">
        <ele>72.8</ele>
        <time>2025-09-26T14:30:31Z</time>
      </trkpt>
      <trkpt lat="48.79008" lon="-3.385">
        <ele>72.4</ele>
        <time>2025-09-26T14:30:34Z</time>
      </trkpt>
      <trkpt lat="48.79009" lon="-3.38491">
        <ele>72.2</ele>
        <time>2025-09-26T14:30:35Z</time>
      </trkpt>
      <trkpt lat="48.79012" lon="-3.38465">
        <ele>71.6</ele>
        <time>2025-09-26T14:30:38Z</time>
      </trkpt>
      <trkpt lat="48.79014" lon="-3.38447">
        <ele>71.2</ele>
        <time>2025-09-26T14:30:40Z</time>
      </trkpt>
      <trkpt lat="48.79014" lon="-3.38428">
        <ele>71</ele>
        <time>2025-09-26T14:30:42Z</time>
      </trkpt>
      <trkpt lat="48.79015" lon="-3.38377">
        <ele>70</ele>
        <time>2025-09-26T14:30:47Z</time>
      </trkpt>
      <trkpt lat="48.79015" lon="-3.38367">
        <ele>69.6</ele>
        <time>2025-09-26T14:30:48Z</time>
      </trkpt>
      <trkpt lat="48.79015" lon="-3.38333">
        <ele>68.8</ele>
        <time>2025-09-26T14:30:51Z</time>
      </trkpt>
      <trkpt lat="48.79016" lon="-3.38286">
        <ele>67.6</ele>
        <time>2025-09-26T14:30:55Z</time>
      </trkpt>
      <trkpt lat="48.79016" lon="-3.38274">
        <ele>67.2</ele>
        <time>2025-09-26T14:30:56Z</time>
      </trkpt>
      <trkpt lat="48.79016" lon="-3.3825">
        <ele>66.4</ele>
        <time>2025-09-26T14:30:58Z</time>
      </trkpt>
      <trkpt lat="48.79017" lon="-3.38229">
        <ele>65.6</ele>
        <time>2025-09-26T14:31:00Z</time>
      </trkpt>
      <trkpt lat="48.79015" lon="-3.3822">
        <ele>65.2</ele>
        <time>2025-09-26T14:31:01Z</time>
      </trkpt>
      <trkpt lat="48.79009" lon="-3.38192">
        <ele>64.6</ele>
        <time>2025-09-26T14:31:04Z</time>
      </trkpt>
      <trkpt lat="48.79007" lon="-3.38175">
        <ele>64.6</ele>
        <time>2025-09-26T14:31:06Z</time>
      </trkpt>
      <trkpt lat="48.79005" lon="-3.38166">
        <ele>64.6</ele>
        <time>2025-09-26T14:31:07Z</time>
      </trkpt>
      <trkpt lat="48.78996" lon="-3.38142">
        <ele>64.8</ele>
        <time>2025-09-26T14:31:10Z</time>
      </trkpt>
      <trkpt lat="48.78968" lon="-3.38095">
        <ele>66.4</ele>
        <time>2025-09-26T14:31:17Z</time>
      </trkpt>
      <trkpt lat="48.78958" lon="-3.38085">
        <ele>66.6</ele>
        <time>2025-09-26T14:31:19Z</time>
      </trkpt>
      <trkpt lat="48.78941" lon="-3.38075">
        <ele>67.4</ele>
        <time>2025-09-26T14:31:22Z</time>
      </trkpt>
      <trkpt lat="48.78935" lon="-3.38073">
        <ele>67.8</ele>
        <time>2025-09-26T14:31:23Z</time>
      </trkpt>
      <trkpt lat="48.78918" lon="-3.38068">
        <ele>68.8</ele>
        <time>2025-09-26T14:31:26Z</time>
      </trkpt>
      <trkpt lat="48.78906" lon="-3.38066">
        <ele>69.8</ele>
        <time>2025-09-26T14:31:28Z</time>
      </trkpt>
      <trkpt lat="48.789" lon="-3.38064">
        <ele>70</ele>
        <time>2025-09-26T14:31:29Z</time>
      </trkpt>
      <trkpt lat="48.78859" lon="-3.38052">
        <ele>70.4</ele>
        <time>2025-09-26T14:31:36Z</time>
      </trkpt>
      <trkpt lat="48.78842" lon="-3.38047">
        <ele>70.4</ele>
        <time>2025-09-26T14:31:39Z</time>
      </trkpt>
      <trkpt lat="48.78821" lon="-3.38039">
        <ele>70.2</ele>
        <time>2025-09-26T14:31:43Z</time>
      </trkpt>
      <trkpt lat="48.78796" lon="-3.38028">
        <ele>70.6</ele>
        <time>2025-09-26T14:31:48Z</time>
      </trkpt>
      <trkpt lat="48.78771" lon="-3.38019">
        <ele>70.8</ele>
        <time>2025-09-26T14:31:53Z</time>
      </trkpt>
      <trkpt lat="48.7876" lon="-3.38017">
        <ele>70.8</ele>
        <time>2025-09-26T14:31:55Z</time>
      </trkpt>
      <trkpt lat="48.78718" lon="-3.38002">
        <ele>69.8</ele>
        <time>2025-09-26T14:32:03Z</time>
      </trkpt>
      <trkpt lat="48.78687" lon="-3.37976">
        <ele>69</ele>
        <time>2025-09-26T14:32:09Z</time>
      </trkpt>
      <trkpt lat="48.78668" lon="-3.37956">
        <ele>68.6</ele>
        <time>2025-09-26T14:32:13Z</time>
      </trkpt>
      <trkpt lat="48.78652" lon="-3.37944">
        <ele>68.2</ele>
        <time>2025-09-26T14:32:16Z</time>
      </trkpt>
      <trkpt lat="48.78639" lon="-3.37937">
        <ele>67.4</ele>
        <time>2025-09-26T14:32:18Z</time>
      </trkpt>
      <trkpt lat="48.78616" lon="-3.37927">
        <ele>66.2</ele>
        <time>2025-09-26T14:32:21Z</time>
      </trkpt>
      <trkpt lat="48.78591" lon="-3.37924">
        <ele>64.8</ele>
        <time>2025-09-26T14:32:24Z</time>
      </trkpt>
      <trkpt lat="48.78583" lon="-3.37924">
        <ele>64.8</ele>
        <time>2025-09-26T14:32:25Z</time>
      </trkpt>
      <trkpt lat="48.78561" lon="-3.37926">
        <ele>64.2</ele>
        <time>2025-09-26T14:32:28Z</time>
      </trkpt>
      <trkpt lat="48.78555" lon="-3.37924">
        <ele>64.2</ele>
        <time>2025-09-26T14:32:29Z</time>
      </trkpt>
      <trkpt lat="48.78549" lon="-3.37922">
        <ele>64.2</ele>
        <time>2025-09-26T14:32:30Z</time>
      </trkpt>
      <trkpt lat="48.78544" lon="-3.37917">
        <ele>65</ele>
        <time>2025-09-26T14:32:32Z</time>
      </trkpt>
      <trkpt lat="48.78543" lon="-3.37917">
        <ele>66.2</ele>
        <time>2025-09-26T14:32:35Z</time>
      </trkpt>
      <trkpt lat="48.78543" lon="-3.37917">
        <ele>66.2</ele>
        <time>2025-09-26T14:32:50Z</time>
      </trkpt>
      <trkpt lat="48.78543" lon="-3.37917">
        <ele>66</ele>
        <time>2025-09-26T14:32:53Z</time>
      </trkpt>
      <trkpt lat="48.78543" lon="-3.37917">
        <ele>66</ele>
        <time>2025-09-26T14:32:55Z</time>
      </trkpt>
      <trkpt lat="48.78544" lon="-3.37918">
        <ele>65.8</ele>
        <time>2025-09-26T14:32:58Z</time>
      </trkpt>
      <trkpt lat="48.78547" lon="-3.37921">
        <ele>65.4</ele>
        <time>2025-09-26T14:33:02Z</time>
      </trkpt>
      <trkpt lat="48.78548" lon="-3.37922">
        <ele>65.2</ele>
        <time>2025-09-26T14:33:03Z</time>
      </trkpt>
      <trkpt lat="48.78551" lon="-3.37924">
        <ele>65.2</ele>
        <time>2025-09-26T14:33:05Z</time>
      </trkpt>
      <trkpt lat="48.78555" lon="-3.37928">
        <ele>64.8</ele>
        <time>2025-09-26T14:33:09Z</time>
      </trkpt>
      <trkpt lat="48.78558" lon="-3.37929">
        <ele>64.8</ele>
        <time>2025-09-26T14:33:17Z</time>
      </trkpt>
      <trkpt lat="48.78558" lon="-3.37928">
        <ele>64.6</ele>
        <time>2025-09-26T14:33:30Z</time>
      </trkpt>
      <trkpt lat="48.78558" lon="-3.37928">
        <ele>64.6</ele>
        <time>2025-09-26T14:33:49Z</time>
      </trkpt>
      <trkpt lat="48.78556" lon="-3.37927">
        <ele>64.6</ele>
        <time>2025-09-26T14:34:01Z</time>
      </trkpt>
      <trkpt lat="48.78554" lon="-3.37925">
        <ele>64.6</ele>
        <time>2025-09-26T14:34:02Z</time>
      </trkpt>
      <trkpt lat="48.78551" lon="-3.37921">
        <ele>64.8</ele>
        <time>2025-09-26T14:34:07Z</time>
      </trkpt>
      <trkpt lat="48.78548" lon="-3.3792">
        <ele>65</ele>
        <time>2025-09-26T14:34:13Z</time>
      </trkpt>
      <trkpt lat="48.78548" lon="-3.3792">
        <ele>65.4</ele>
        <time>2025-09-26T14:34:19Z</time>
      </trkpt>
      <trkpt lat="48.78548" lon="-3.3792">
        <ele>65.4</ele>
        <time>2025-09-26T14:34:31Z</time>
      </trkpt>
      <trkpt lat="48.78548" lon="-3.3792">
        <ele>65.4</ele>
        <time>2025-09-26T14:34:42Z</time>
      </trkpt>
      <trkpt lat="48.78549" lon="-3.37919">
        <ele>65.4</ele>
        <time>2025-09-26T14:34:48Z</time>
      </trkpt>
      <trkpt lat="48.78549" lon="-3.37919">
        <ele>65.4</ele>
        <time>2025-09-26T14:34:58Z</time>
      </trkpt>
      <trkpt lat="48.78548" lon="-3.37918">
        <ele>65.6</ele>
        <time>2025-09-26T14:35:05Z</time>
      </trkpt>
      <trkpt lat="48.78548" lon="-3.37917">
        <ele>65.8</ele>
        <time>2025-09-26T14:35:13Z</time>
      </trkpt>
      <trkpt lat="48.78548" lon="-3.37917">
        <ele>65.8</ele>
        <time>2025-09-26T14:35:20Z</time>
      </trkpt>
      <trkpt lat="48.78548" lon="-3.37916">
        <ele>66</ele>
        <time>2025-09-26T14:35:23Z</time>
      </trkpt>
      <trkpt lat="48.78548" lon="-3.37914">
        <ele>66</ele>
        <time>2025-09-26T14:35:24Z</time>
      </trkpt>
      <trkpt lat="48.78547" lon="-3.37912">
        <ele>66.2</ele>
        <time>2025-09-26T14:35:25Z</time>
      </trkpt>
      <trkpt lat="48.78545" lon="-3.37908">
        <ele>66.6</ele>
        <time>2025-09-26T14:35:27Z</time>
      </trkpt>
      <trkpt lat="48.7853" lon="-3.37891">
        <ele>67.4</ele>
        <time>2025-09-26T14:35:34Z</time>
      </trkpt>
      <trkpt lat="48.78519" lon="-3.37879">
        <ele>69</ele>
        <time>2025-09-26T14:35:38Z</time>
      </trkpt>
      <trkpt lat="48.7851" lon="-3.37867">
        <ele>70</ele>
        <time>2025-09-26T14:35:41Z</time>
      </trkpt>
      <trkpt lat="48.78497" lon="-3.37849">
        <ele>71.2</ele>
        <time>2025-09-26T14:35:46Z</time>
      </trkpt>
      <trkpt lat="48.78491" lon="-3.37842">
        <ele>71.8</ele>
        <time>2025-09-26T14:35:48Z</time>
      </trkpt>
      <trkpt lat="48.78477" lon="-3.37825">
        <ele>72.4</ele>
        <time>2025-09-26T14:35:53Z</time>
      </trkpt>
      <trkpt lat="48.78464" lon="-3.37811">
        <ele>73.2</ele>
        <time>2025-09-26T14:35:58Z</time>
      </trkpt>
      <trkpt lat="48.78456" lon="-3.37804">
        <ele>73.6</ele>
        <time>2025-09-26T14:36:02Z</time>
      </trkpt>
      <trkpt lat="48.78453" lon="-3.37801">
        <ele>73.6</ele>
        <time>2025-09-26T14:36:04Z</time>
      </trkpt>
      <trkpt lat="48.7845" lon="-3.37797">
        <ele>73.8</ele>
        <time>2025-09-26T14:36:09Z</time>
      </trkpt>
      <trkpt lat="48.7845" lon="-3.37797">
        <ele>73.8</ele>
        <time>2025-09-26T14:36:15Z</time>
      </trkpt>
      <trkpt lat="48.7845" lon="-3.37797">
        <ele>73.8</ele>
        <time>2025-09-26T14:36:18Z</time>
      </trkpt>
      <trkpt lat="48.7845" lon="-3.37797">
        <ele>73.6</ele>
        <time>2025-09-26T14:36:29Z</time>
      </trkpt>
      <trkpt lat="48.7845" lon="-3.37797">
        <ele>73.6</ele>
        <time>2025-09-26T14:36:31Z</time>
      </trkpt>
      <trkpt lat="48.7845" lon="-3.37797">
        <ele>73.6</ele>
        <time>2025-09-26T14:36:56Z</time>
      </trkpt>
      <trkpt lat="48.7845" lon="-3.37797">
        <ele>73.4</ele>
        <time>2025-09-26T14:37:05Z</time>
      </trkpt>
      <trkpt lat="48.7845" lon="-3.37797">
        <ele>73.4</ele>
        <time>2025-09-26T14:37:15Z</time>
      </trkpt>
      <trkpt lat="48.78449" lon="-3.37796">
        <ele>73.4</ele>
        <time>2025-09-26T14:37:19Z</time>
      </trkpt>
      <trkpt lat="48.78444" lon="-3.3779">
        <ele>73.4</ele>
        <time>2025-09-26T14:37:22Z</time>
      </trkpt>
      <trkpt lat="48.78429" lon="-3.37774">
        <ele>73.6</ele>
        <time>2025-09-26T14:37:27Z</time>
      </trkpt>
      <trkpt lat="48.78403" lon="-3.37743">
        <ele>73.4</ele>
        <time>2025-09-26T14:37:35Z</time>
      </trkpt>
      <trkpt lat="48.78381" lon="-3.37718">
        <ele>73.4</ele>
        <time>2025-09-26T14:37:42Z</time>
      </trkpt>
      <trkpt lat="48.78365" lon="-3.37715">
        <ele>73</ele>
        <time>2025-09-26T14:37:46Z</time>
      </trkpt>
      <trkpt lat="48.78355" lon="-3.3773">
        <ele>73</ele>
        <time>2025-09-26T14:37:50Z</time>
      </trkpt>
      <trkpt lat="48.78343" lon="-3.37749">
        <ele>72.8</ele>
        <time>2025-09-26T14:37:56Z</time>
      </trkpt>
      <trkpt lat="48.78338" lon="-3.37747">
        <ele>72.8</ele>
        <time>2025-09-26T14:37:59Z</time>
      </trkpt>
      <trkpt lat="48.78336" lon="-3.37745">
        <ele>72.8</ele>
        <time>2025-09-26T14:38:00Z</time>
      </trkpt>
      <trkpt lat="48.78319" lon="-3.3772">
        <ele>72.6</ele>
        <time>2025-09-26T14:38:06Z</time>
      </trkpt>
      <trkpt lat="48.78308" lon="-3.37705">
        <ele>72</ele>
        <time>2025-09-26T14:38:09Z</time>
      </trkpt>
      <trkpt lat="48.78304" lon="-3.37691">
        <ele>71.4</ele>
        <time>2025-09-26T14:38:11Z</time>
      </trkpt>
      <trkpt lat="48.78305" lon="-3.37672">
        <ele>70.6</ele>
        <time>2025-09-26T14:38:13Z</time>
      </trkpt>
      <trkpt lat="48.78307" lon="-3.37662">
        <ele>70</ele>
        <time>2025-09-26T14:38:14Z</time>
      </trkpt>
      <trkpt lat="48.78309" lon="-3.37652">
        <ele>69.4</ele>
        <time>2025-09-26T14:38:15Z</time>
      </trkpt>
      <trkpt lat="48.78313" lon="-3.37631">
        <ele>68.6</ele>
        <time>2025-09-26T14:38:17Z</time>
      </trkpt>
      <trkpt lat="48.78317" lon="-3.37613">
        <ele>67.4</ele>
        <time>2025-09-26T14:38:19Z</time>
      </trkpt>
      <trkpt lat="48.7832" lon="-3.37599">
        <ele>66.2</ele>
        <time>2025-09-26T14:38:21Z</time>
      </trkpt>
      <trkpt lat="48.78325" lon="-3.37588">
        <ele>66</ele>
        <time>2025-09-26T14:38:23Z</time>
      </trkpt>
      <trkpt lat="48.78332" lon="-3.37576">
        <ele>65.8</ele>
        <time>2025-09-26T14:38:25Z</time>
      </trkpt>
      <trkpt lat="48.78344" lon="-3.37557">
        <ele>65.2</ele>
        <time>2025-09-26T14:38:28Z</time>
      </trkpt>
      <trkpt lat="48.78358" lon="-3.37542">
        <ele>65.2</ele>
        <time>2025-09-26T14:38:31Z</time>
      </trkpt>
      <trkpt lat="48.78389" lon="-3.37517">
        <ele>65.4</ele>
        <time>2025-09-26T14:38:37Z</time>
      </trkpt>
      <trkpt lat="48.78395" lon="-3.37515">
        <ele>65.4</ele>
        <time>2025-09-26T14:38:38Z</time>
      </trkpt>
      <trkpt lat="48.78419" lon="-3.37512">
        <ele>65.4</ele>
        <time>2025-09-26T14:38:42Z</time>
      </trkpt>
      <trkpt lat="48.78465" lon="-3.37515">
        <ele>65.8</ele>
        <time>2025-09-26T14:38:50Z</time>
      </trkpt>
      <trkpt lat="48.78482" lon="-3.37517">
        <ele>66.2</ele>
        <time>2025-09-26T14:38:53Z</time>
      </trkpt>
      <trkpt lat="48.78505" lon="-3.37518">
        <ele>65.8</ele>
        <time>2025-09-26T14:38:57Z</time>
      </trkpt>
      <trkpt lat="48.78516" lon="-3.37511">
        <ele>65.6</ele>
        <time>2025-09-26T14:38:59Z</time>
      </trkpt>
      <trkpt lat="48.78519" lon="-3.37503">
        <ele>65.4</ele>
        <time>2025-09-26T14:39:00Z</time>
      </trkpt>
      <trkpt lat="48.7852" lon="-3.37494">
        <ele>65</ele>
        <time>2025-09-26T14:39:01Z</time>
      </trkpt>
      <trkpt lat="48.78519" lon="-3.37469">
        <ele>65</ele>
        <time>2025-09-26T14:39:04Z</time>
      </trkpt>
      <trkpt lat="48.78519" lon="-3.37454">
        <ele>65.2</ele>
        <time>2025-09-26T14:39:06Z</time>
      </trkpt>
      <trkpt lat="48.7852" lon="-3.37447">
        <ele>66</ele>
        <time>2025-09-26T14:39:07Z</time>
      </trkpt>
      <trkpt lat="48.78522" lon="-3.37442">
        <ele>66.2</ele>
        <time>2025-09-26T14:39:08Z</time>
      </trkpt>
      <trkpt lat="48.7853" lon="-3.37438">
        <ele>66.4</ele>
        <time>2025-09-26T14:39:10Z</time>
      </trkpt>
      <trkpt lat="48.78536" lon="-3.37438">
        <ele>66.4</ele>
        <time>2025-09-26T14:39:11Z</time>
      </trkpt>
      <trkpt lat="48.78561" lon="-3.37441">
        <ele>65.6</ele>
        <time>2025-09-26T14:39:15Z</time>
      </trkpt>
      <trkpt lat="48.78601" lon="-3.37448">
        <ele>67</ele>
        <time>2025-09-26T14:39:22Z</time>
      </trkpt>
      <trkpt lat="48.78606" lon="-3.37449">
        <ele>67.4</ele>
        <time>2025-09-26T14:39:23Z</time>
      </trkpt>
      <trkpt lat="48.78629" lon="-3.37453">
        <ele>68.8</ele>
        <time>2025-09-26T14:39:27Z</time>
      </trkpt>
      <trkpt lat="48.78635" lon="-3.37454">
        <ele>69</ele>
        <time>2025-09-26T14:39:28Z</time>
      </trkpt>
      <trkpt lat="48.78669" lon="-3.3746">
        <ele>69.8</ele>
        <time>2025-09-26T14:39:34Z</time>
      </trkpt>
      <trkpt lat="48.78695" lon="-3.37464">
        <ele>70.4</ele>
        <time>2025-09-26T14:39:39Z</time>
      </trkpt>
      <trkpt lat="48.78715" lon="-3.37463">
        <ele>71</ele>
        <time>2025-09-26T14:39:43Z</time>
      </trkpt>
      <trkpt lat="48.7873" lon="-3.37461">
        <ele>71.8</ele>
        <time>2025-09-26T14:39:46Z</time>
      </trkpt>
      <trkpt lat="48.78734" lon="-3.3746">
        <ele>72</ele>
        <time>2025-09-26T14:39:47Z</time>
      </trkpt>
      <trkpt lat="48.78762" lon="-3.37451">
        <ele>73</ele>
        <time>2025-09-26T14:39:53Z</time>
      </trkpt>
      <trkpt lat="48.78772" lon="-3.37448">
        <ele>73.2</ele>
        <time>2025-09-26T14:39:55Z</time>
      </trkpt>
      <trkpt lat="48.78818" lon="-3.37433">
        <ele>72.8</ele>
        <time>2025-09-26T14:40:04Z</time>
      </trkpt>
      <trkpt lat="48.78867" lon="-3.37414">
        <ele>72.4</ele>
        <time>2025-09-26T14:40:13Z</time>
      </trkpt>
      <trkpt lat="48.78903" lon="-3.37404">
        <ele>71.8</ele>
        <time>2025-09-26T14:40:19Z</time>
      </trkpt>
      <trkpt lat="48.78909" lon="-3.37402">
        <ele>71.8</ele>
        <time>2025-09-26T14:40:20Z</time>
      </trkpt>
      <trkpt lat="48.78926" lon="-3.37399">
        <ele>71.6</ele>
        <time>2025-09-26T14:40:23Z</time>
      </trkpt>
      <trkpt lat="48.78961" lon="-3.37392">
        <ele>70.8</ele>
        <time>2025-09-26T14:40:29Z</time>
      </trkpt>
      <trkpt lat="48.79004" lon="-3.3738">
        <ele>69.6</ele>
        <time>2025-09-26T14:40:36Z</time>
      </trkpt>
      <trkpt lat="48.79017" lon="-3.37372">
        <ele>69.2</ele>
        <time>2025-09-26T14:40:38Z</time>
      </trkpt>
      <trkpt lat="48.79034" lon="-3.37354">
        <ele>68.2</ele>
        <time>2025-09-26T14:40:41Z</time>
      </trkpt>
      <trkpt lat="48.79067" lon="-3.3731">
        <ele>68.6</ele>
        <time>2025-09-26T14:40:48Z</time>
      </trkpt>
      <trkpt lat="48.79075" lon="-3.37299">
        <ele>69.8</ele>
        <time>2025-09-26T14:40:50Z</time>
      </trkpt>
      <trkpt lat="48.79088" lon="-3.37282">
        <ele>71</ele>
        <time>2025-09-26T14:40:53Z</time>
      </trkpt>
      <trkpt lat="48.79096" lon="-3.37271">
        <ele>71.8</ele>
        <time>2025-09-26T14:40:55Z</time>
      </trkpt>
      <trkpt lat="48.791" lon="-3.37266">
        <ele>72.2</ele>
        <time>2025-09-26T14:40:56Z</time>
      </trkpt>
      <trkpt lat="48.79116" lon="-3.37243">
        <ele>73.2</ele>
        <time>2025-09-26T14:41:00Z</time>
      </trkpt>
      <trkpt lat="48.79123" lon="-3.37231">
        <ele>74</ele>
        <time>2025-09-26T14:41:02Z</time>
      </trkpt>
      <trkpt lat="48.79127" lon="-3.37224">
        <ele>74.4</ele>
        <time>2025-09-26T14:41:03Z</time>
      </trkpt>
      <trkpt lat="48.79145" lon="-3.37192">
        <ele>75.4</ele>
        <time>2025-09-26T14:41:08Z</time>
      </trkpt>
      <trkpt lat="48.79148" lon="-3.37185">
        <ele>75.6</ele>
        <time>2025-09-26T14:41:09Z</time>
      </trkpt>
      <trkpt lat="48.79173" lon="-3.37137">
        <ele>76.2</ele>
        <time>2025-09-26T14:41:17Z</time>
      </trkpt>
      <trkpt lat="48.79178" lon="-3.37125">
        <ele>76.4</ele>
        <time>2025-09-26T14:41:19Z</time>
      </trkpt>
      <trkpt lat="48.79187" lon="-3.37103">
        <ele>76.6</ele>
        <time>2025-09-26T14:41:23Z</time>
      </trkpt>
      <trkpt lat="48.79204" lon="-3.37051">
        <ele>76.8</ele>
        <time>2025-09-26T14:41:31Z</time>
      </trkpt>
      <trkpt lat="48.7922" lon="-3.37013">
        <ele>76.6</ele>
        <time>2025-09-26T14:41:37Z</time>
      </trkpt>
      <trkpt lat="48.79223" lon="-3.37008">
        <ele>76.6</ele>
        <time>2025-09-26T14:41:38Z</time>
      </trkpt>
      <trkpt lat="48.79244" lon="-3.36969">
        <ele>76.8</ele>
        <time>2025-09-26T14:41:45Z</time>
      </trkpt>
      <trkpt lat="48.79258" lon="-3.36947">
        <ele>76.6</ele>
        <time>2025-09-26T14:41:49Z</time>
      </trkpt>
      <trkpt lat="48.79271" lon="-3.36924">
        <ele>76.6</ele>
        <time>2025-09-26T14:41:53Z</time>
      </trkpt>
      <trkpt lat="48.79278" lon="-3.36912">
        <ele>76.6</ele>
        <time>2025-09-26T14:41:55Z</time>
      </trkpt>
      <trkpt lat="48.79293" lon="-3.36891">
        <ele>76.8</ele>
        <time>2025-09-26T14:41:59Z</time>
      </trkpt>
      <trkpt lat="48.79301" lon="-3.36883">
        <ele>76.8</ele>
        <time>2025-09-26T14:42:01Z</time>
      </trkpt>
      <trkpt lat="48.79318" lon="-3.36872">
        <ele>77</ele>
        <time>2025-09-26T14:42:05Z</time>
      </trkpt>
      <trkpt lat="48.7933" lon="-3.36868">
        <ele>77.2</ele>
        <time>2025-09-26T14:42:07Z</time>
      </trkpt>
      <trkpt lat="48.79344" lon="-3.36859">
        <ele>77.2</ele>
        <time>2025-09-26T14:42:10Z</time>
      </trkpt>
      <trkpt lat="48.79352" lon="-3.36851">
        <ele>77.4</ele>
        <time>2025-09-26T14:42:12Z</time>
      </trkpt>
      <trkpt lat="48.79358" lon="-3.36841">
        <ele>77.6</ele>
        <time>2025-09-26T14:42:14Z</time>
      </trkpt>
      <trkpt lat="48.79363" lon="-3.36829">
        <ele>77.8</ele>
        <time>2025-09-26T14:42:16Z</time>
      </trkpt>
      <trkpt lat="48.79375" lon="-3.36796">
        <ele>78.6</ele>
        <time>2025-09-26T14:42:21Z</time>
      </trkpt>
      <trkpt lat="48.79378" lon="-3.3679">
        <ele>78.6</ele>
        <time>2025-09-26T14:42:22Z</time>
      </trkpt>
      <trkpt lat="48.79383" lon="-3.36777">
        <ele>79</ele>
        <time>2025-09-26T14:42:24Z</time>
      </trkpt>
      <trkpt lat="48.7941" lon="-3.36727">
        <ele>79.6</ele>
        <time>2025-09-26T14:42:32Z</time>
      </trkpt>
      <trkpt lat="48.7943" lon="-3.36699">
        <ele>79.8</ele>
        <time>2025-09-26T14:42:37Z</time>
      </trkpt>
      <trkpt lat="48.79443" lon="-3.36675">
        <ele>80.2</ele>
        <time>2025-09-26T14:42:41Z</time>
      </trkpt>
      <trkpt lat="48.79456" lon="-3.36647">
        <ele>80.8</ele>
        <time>2025-09-26T14:42:45Z</time>
      </trkpt>
      <trkpt lat="48.79469" lon="-3.36611">
        <ele>81.4</ele>
        <time>2025-09-26T14:42:50Z</time>
      </trkpt>
      <trkpt lat="48.79476" lon="-3.3659">
        <ele>81.8</ele>
        <time>2025-09-26T14:42:53Z</time>
      </trkpt>
      <trkpt lat="48.79495" lon="-3.36539">
        <ele>82.4</ele>
        <time>2025-09-26T14:43:00Z</time>
      </trkpt>
      <trkpt lat="48.7952" lon="-3.36466">
        <ele>82.8</ele>
        <time>2025-09-26T14:43:10Z</time>
      </trkpt>
      <trkpt lat="48.79523" lon="-3.36459">
        <ele>82.8</ele>
        <time>2025-09-26T14:43:11Z</time>
      </trkpt>
      <trkpt lat="48.79525" lon="-3.36452">
        <ele>82.8</ele>
        <time>2025-09-26T14:43:12Z</time>
      </trkpt>
      <trkpt lat="48.79549" lon="-3.36388">
        <ele>83.2</ele>
        <time>2025-09-26T14:43:21Z</time>
      </trkpt>
      <trkpt lat="48.79562" lon="-3.36345">
        <ele>83</ele>
        <time>2025-09-26T14:43:27Z</time>
      </trkpt>
      <trkpt lat="48.79563" lon="-3.36338">
        <ele>83</ele>
        <time>2025-09-26T14:43:28Z</time>
      </trkpt>
      <trkpt lat="48.79561" lon="-3.36329">
        <ele>83.2</ele>
        <time>2025-09-26T14:43:30Z</time>
      </trkpt>
      <trkpt lat="48.79558" lon="-3.36326">
        <ele>83.2</ele>
        <time>2025-09-26T14:43:31Z</time>
      </trkpt>
      <trkpt lat="48.7955" lon="-3.36321">
        <ele>83.2</ele>
        <time>2025-09-26T14:43:33Z</time>
      </trkpt>
      <trkpt lat="48.79545" lon="-3.3632">
        <ele>83.4</ele>
        <time>2025-09-26T14:43:34Z</time>
      </trkpt>
      <trkpt lat="48.79509" lon="-3.36315">
        <ele>83.4</ele>
        <time>2025-09-26T14:43:41Z</time>
      </trkpt>
      <trkpt lat="48.79487" lon="-3.36315">
        <ele>83.2</ele>
        <time>2025-09-26T14:43:45Z</time>
      </trkpt>
      <trkpt lat="48.79468" lon="-3.36316">
        <ele>83.2</ele>
        <time>2025-09-26T14:43:48Z</time>
      </trkpt>
      <trkpt lat="48.79417" lon="-3.3633">
        <ele>82.8</ele>
        <time>2025-09-26T14:43:57Z</time>
      </trkpt>
      <trkpt lat="48.7938" lon="-3.36346">
        <ele>82.8</ele>
        <time>2025-09-26T14:44:04Z</time>
      </trkpt>
      <trkpt lat="48.7937" lon="-3.36349">
        <ele>82.8</ele>
        <time>2025-09-26T14:44:06Z</time>
      </trkpt>
      <trkpt lat="48.79361" lon="-3.36347">
        <ele>82.8</ele>
        <time>2025-09-26T14:44:08Z</time>
      </trkpt>
      <trkpt lat="48.79353" lon="-3.36338">
        <ele>82.8</ele>
        <time>2025-09-26T14:44:10Z</time>
      </trkpt>
      <trkpt lat="48.79347" lon="-3.36326">
        <ele>82.8</ele>
        <time>2025-09-26T14:44:12Z</time>
      </trkpt>
      <trkpt lat="48.79329" lon="-3.36298">
        <ele>82.4</ele>
        <time>2025-09-26T14:44:17Z</time>
      </trkpt>
      <trkpt lat="48.79326" lon="-3.36291">
        <ele>82.4</ele>
        <time>2025-09-26T14:44:18Z</time>
      </trkpt>
      <trkpt lat="48.79319" lon="-3.3627">
        <ele>82.4</ele>
        <time>2025-09-26T14:44:21Z</time>
      </trkpt>
      <trkpt lat="48.7931" lon="-3.36241">
        <ele>82.4</ele>
        <time>2025-09-26T14:44:25Z</time>
      </trkpt>
      <trkpt lat="48.79289" lon="-3.3618">
        <ele>83</ele>
        <time>2025-09-26T14:44:34Z</time>
      </trkpt>
      <trkpt lat="48.79266" lon="-3.3615">
        <ele>83.4</ele>
        <time>2025-09-26T14:44:40Z</time>
      </trkpt>
      <trkpt lat="48.79248" lon="-3.36131">
        <ele>84</ele>
        <time>2025-09-26T14:44:44Z</time>
      </trkpt>
      <trkpt lat="48.7922" lon="-3.36094">
        <ele>83.8</ele>
        <time>2025-09-26T14:44:51Z</time>
      </trkpt>
      <trkpt lat="48.79177" lon="-3.36039">
        <ele>84.2</ele>
        <time>2025-09-26T14:45:01Z</time>
      </trkpt>
      <trkpt lat="48.79138" lon="-3.3599">
        <ele>83.8</ele>
        <time>2025-09-26T14:45:09Z</time>
      </trkpt>
      <trkpt lat="48.79095" lon="-3.35948">
        <ele>83.2</ele>
        <time>2025-09-26T14:45:17Z</time>
      </trkpt>
      <trkpt lat="48.79054" lon="-3.35917">
        <ele>82.6</ele>
        <time>2025-09-26T14:45:24Z</time>
      </trkpt>
      <trkpt lat="48.79013" lon="-3.35886">
        <ele>82.2</ele>
        <time>2025-09-26T14:45:31Z</time>
      </trkpt>
      <trkpt lat="48.78967" lon="-3.35859">
        <ele>82.6</ele>
        <time>2025-09-26T14:45:39Z</time>
      </trkpt>
      <trkpt lat="48.7892" lon="-3.35817">
        <ele>83.2</ele>
        <time>2025-09-26T14:45:48Z</time>
      </trkpt>
      <trkpt lat="48.78874" lon="-3.3577">
        <ele>83</ele>
        <time>2025-09-26T14:45:57Z</time>
      </trkpt>
      <trkpt lat="48.78869" lon="-3.35765">
        <ele>83</ele>
        <time>2025-09-26T14:45:58Z</time>
      </trkpt>
      <trkpt lat="48.78821" lon="-3.35721">
        <ele>82.2</ele>
        <time>2025-09-26T14:46:07Z</time>
      </trkpt>
      <trkpt lat="48.78774" lon="-3.35693">
        <ele>82.6</ele>
        <time>2025-09-26T14:46:15Z</time>
      </trkpt>
      <trkpt lat="48.78757" lon="-3.35681">
        <ele>82.6</ele>
        <time>2025-09-26T14:46:18Z</time>
      </trkpt>
      <trkpt lat="48.78749" lon="-3.35669">
        <ele>83</ele>
        <time>2025-09-26T14:46:20Z</time>
      </trkpt>
      <trkpt lat="48.78736" lon="-3.35628">
        <ele>83.4</ele>
        <time>2025-09-26T14:46:25Z</time>
      </trkpt>
      <trkpt lat="48.78728" lon="-3.35594">
        <ele>83.8</ele>
        <time>2025-09-26T14:46:29Z</time>
      </trkpt>
      <trkpt lat="48.78716" lon="-3.35544">
        <ele>84</ele>
        <time>2025-09-26T14:46:35Z</time>
      </trkpt>
      <trkpt lat="48.787" lon="-3.35495">
        <ele>84.8</ele>
        <time>2025-09-26T14:46:41Z</time>
      </trkpt>
      <trkpt lat="48.78697" lon="-3.35487">
        <ele>85</ele>
        <time>2025-09-26T14:46:42Z</time>
      </trkpt>
      <trkpt lat="48.78674" lon="-3.35414">
        <ele>85.8</ele>
        <time>2025-09-26T14:46:51Z</time>
      </trkpt>
      <trkpt lat="48.78667" lon="-3.35389">
        <ele>86</ele>
        <time>2025-09-26T14:46:54Z</time>
      </trkpt>
      <trkpt lat="48.78653" lon="-3.35337">
        <ele>86</ele>
        <time>2025-09-26T14:47:00Z</time>
      </trkpt>
      <trkpt lat="48.78638" lon="-3.35281">
        <ele>85.4</ele>
        <time>2025-09-26T14:47:07Z</time>
      </trkpt>
      <trkpt lat="48.7862" lon="-3.35224">
        <ele>85.6</ele>
        <time>2025-09-26T14:47:14Z</time>
      </trkpt>
      <trkpt lat="48.78614" lon="-3.35208">
        <ele>86.2</ele>
        <time>2025-09-26T14:47:16Z</time>
      </trkpt>
      <trkpt lat="48.78597" lon="-3.3515">
        <ele>87.2</ele>
        <time>2025-09-26T14:47:23Z</time>
      </trkpt>
      <trkpt lat="48.78592" lon="-3.35133">
        <ele>87.4</ele>
        <time>2025-09-26T14:47:25Z</time>
      </trkpt>
      <trkpt lat="48.78571" lon="-3.35053">
        <ele>87.8</ele>
        <time>2025-09-26T14:47:35Z</time>
      </trkpt>
      <trkpt lat="48.78561" lon="-3.34981">
        <ele>87.6</ele>
        <time>2025-09-26T14:47:43Z</time>
      </trkpt>
      <trkpt lat="48.78564" lon="-3.34917">
        <ele>87.6</ele>
        <time>2025-09-26T14:47:50Z</time>
      </trkpt>
      <trkpt lat="48.78574" lon="-3.34849">
        <ele>88</ele>
        <time>2025-09-26T14:47:58Z</time>
      </trkpt>
      <trkpt lat="48.78576" lon="-3.3484">
        <ele>88.2</ele>
        <time>2025-09-26T14:47:59Z</time>
      </trkpt>
      <trkpt lat="48.78587" lon="-3.34791">
        <ele>89.2</ele>
        <time>2025-09-26T14:48:05Z</time>
      </trkpt>
      <trkpt lat="48.7859" lon="-3.34782">
        <ele>89.2</ele>
        <time>2025-09-26T14:48:06Z</time>
      </trkpt>
      <trkpt lat="48.78602" lon="-3.3473">
        <ele>90.4</ele>
        <time>2025-09-26T14:48:12Z</time>
      </trkpt>
      <trkpt lat="48.78606" lon="-3.34713">
        <ele>90.6</ele>
        <time>2025-09-26T14:48:14Z</time>
      </trkpt>
      <trkpt lat="48.78618" lon="-3.34672">
        <ele>91.6</ele>
        <time>2025-09-26T14:48:19Z</time>
      </trkpt>
      <trkpt lat="48.78625" lon="-3.34639">
        <ele>92.4</ele>
        <time>2025-09-26T14:48:23Z</time>
      </trkpt>
      <trkpt lat="48.78628" lon="-3.34623">
        <ele>92.8</ele>
        <time>2025-09-26T14:48:25Z</time>
      </trkpt>
      <trkpt lat="48.78633" lon="-3.34598">
        <ele>94</ele>
        <time>2025-09-26T14:48:28Z</time>
      </trkpt>
      <trkpt lat="48.78634" lon="-3.34581">
        <ele>94.2</ele>
        <time>2025-09-26T14:48:30Z</time>
      </trkpt>
      <trkpt lat="48.78636" lon="-3.34546">
        <ele>95.2</ele>
        <time>2025-09-26T14:48:34Z</time>
      </trkpt>
      <trkpt lat="48.78636" lon="-3.34505">
        <ele>96</ele>
        <time>2025-09-26T14:48:39Z</time>
      </trkpt>
      <trkpt lat="48.78636" lon="-3.34472">
        <ele>95.8</ele>
        <time>2025-09-26T14:48:43Z</time>
      </trkpt>
      <trkpt lat="48.78635" lon="-3.34436">
        <ele>95.4</ele>
        <time>2025-09-26T14:48:47Z</time>
      </trkpt>
      <trkpt lat="48.78632" lon="-3.34389">
        <ele>95</ele>
        <time>2025-09-26T14:48:53Z</time>
      </trkpt>
      <trkpt lat="48.78633" lon="-3.34346">
        <ele>94.6</ele>
        <time>2025-09-26T14:48:58Z</time>
      </trkpt>
      <trkpt lat="48.78634" lon="-3.34329">
        <ele>94.4</ele>
        <time>2025-09-26T14:49:00Z</time>
      </trkpt>
      <trkpt lat="48.78634" lon="-3.34321">
        <ele>94.2</ele>
        <time>2025-09-26T14:49:01Z</time>
      </trkpt>
      <trkpt lat="48.78637" lon="-3.34259">
        <ele>93.6</ele>
        <time>2025-09-26T14:49:09Z</time>
      </trkpt>
      <trkpt lat="48.78637" lon="-3.34243">
        <ele>93.6</ele>
        <time>2025-09-26T14:49:11Z</time>
      </trkpt>
      <trkpt lat="48.78638" lon="-3.34227">
        <ele>93.4</ele>
        <time>2025-09-26T14:49:13Z</time>
      </trkpt>
      <trkpt lat="48.78642" lon="-3.34174">
        <ele>93.8</ele>
        <time>2025-09-26T14:49:20Z</time>
      </trkpt>
      <trkpt lat="48.78647" lon="-3.3411">
        <ele>94.4</ele>
        <time>2025-09-26T14:49:28Z</time>
      </trkpt>
      <trkpt lat="48.78646" lon="-3.34046">
        <ele>94.8</ele>
        <time>2025-09-26T14:49:36Z</time>
      </trkpt>
      <trkpt lat="48.78644" lon="-3.34023">
        <ele>95.2</ele>
        <time>2025-09-26T14:49:39Z</time>
      </trkpt>
      <trkpt lat="48.78641" lon="-3.33935">
        <ele>95.2</ele>
        <time>2025-09-26T14:49:50Z</time>
      </trkpt>
      <trkpt lat="48.78648" lon="-3.33871">
        <ele>95.6</ele>
        <time>2025-09-26T14:49:58Z</time>
      </trkpt>
      <trkpt lat="48.78651" lon="-3.33789">
        <ele>95.8</ele>
        <time>2025-09-26T14:50:08Z</time>
      </trkpt>
      <trkpt lat="48.7865" lon="-3.33706">
        <ele>96</ele>
        <time>2025-09-26T14:50:18Z</time>
      </trkpt>
      <trkpt lat="48.78646" lon="-3.33618">
        <ele>95.8</ele>
        <time>2025-09-26T14:50:28Z</time>
      </trkpt>
      <trkpt lat="48.78643" lon="-3.33583">
        <ele>96</ele>
        <time>2025-09-26T14:50:32Z</time>
      </trkpt>
      <trkpt lat="48.78641" lon="-3.33556">
        <ele>95.8</ele>
        <time>2025-09-26T14:50:35Z</time>
      </trkpt>
      <trkpt lat="48.78645" lon="-3.33494">
        <ele>95.6</ele>
        <time>2025-09-26T14:50:42Z</time>
      </trkpt>
      <trkpt lat="48.7865" lon="-3.33406">
        <ele>94.6</ele>
        <time>2025-09-26T14:50:52Z</time>
      </trkpt>
      <trkpt lat="48.7865" lon="-3.3339">
        <ele>94.6</ele>
        <time>2025-09-26T14:50:54Z</time>
      </trkpt>
      <trkpt lat="48.78649" lon="-3.3333">
        <ele>94.8</ele>
        <time>2025-09-26T14:51:02Z</time>
      </trkpt>
      <trkpt lat="48.7865" lon="-3.33306">
        <ele>94.4</ele>
        <time>2025-09-26T14:51:05Z</time>
      </trkpt>
      <trkpt lat="48.78651" lon="-3.33298">
        <ele>94</ele>
        <time>2025-09-26T14:51:06Z</time>
      </trkpt>
      <trkpt lat="48.78655" lon="-3.33282">
        <ele>93.8</ele>
        <time>2025-09-26T14:51:08Z</time>
      </trkpt>
      <trkpt lat="48.7866" lon="-3.33253">
        <ele>93.8</ele>
        <time>2025-09-26T14:51:12Z</time>
      </trkpt>
      <trkpt lat="48.78662" lon="-3.33249">
        <ele>93.8</ele>
        <time>2025-09-26T14:51:13Z</time>
      </trkpt>
      <trkpt lat="48.78666" lon="-3.33244">
        <ele>94</ele>
        <time>2025-09-26T14:51:15Z</time>
      </trkpt>
      <trkpt lat="48.78669" lon="-3.33244">
        <ele>94</ele>
        <time>2025-09-26T14:51:16Z</time>
      </trkpt>
      <trkpt lat="48.78677" lon="-3.33249">
        <ele>94</ele>
        <time>2025-09-26T14:51:18Z</time>
      </trkpt>
      <trkpt lat="48.78686" lon="-3.33255">
        <ele>93.8</ele>
        <time>2025-09-26T14:51:20Z</time>
      </trkpt>
      <trkpt lat="48.7871" lon="-3.33271">
        <ele>93</ele>
        <time>2025-09-26T14:51:26Z</time>
      </trkpt>
      <trkpt lat="48.78717" lon="-3.33276">
        <ele>92.4</ele>
        <time>2025-09-26T14:51:28Z</time>
      </trkpt>
      <trkpt lat="48.78723" lon="-3.3328">
        <ele>92.2</ele>
        <time>2025-09-26T14:51:30Z</time>
      </trkpt>
      <trkpt lat="48.78726" lon="-3.33282">
        <ele>92.2</ele>
        <time>2025-09-26T14:51:31Z</time>
      </trkpt>
      <trkpt lat="48.78736" lon="-3.33292">
        <ele>92</ele>
        <time>2025-09-26T14:51:35Z</time>
      </trkpt>
      <trkpt lat="48.78759" lon="-3.33316">
        <ele>91.8</ele>
        <time>2025-09-26T14:51:42Z</time>
      </trkpt>
      <trkpt lat="48.78788" lon="-3.33354">
        <ele>91.6</ele>
        <time>2025-09-26T14:51:50Z</time>
      </trkpt>
      <trkpt lat="48.78818" lon="-3.33408">
        <ele>92.2</ele>
        <time>2025-09-26T14:52:00Z</time>
      </trkpt>
      <trkpt lat="48.78842" lon="-3.33457">
        <ele>92</ele>
        <time>2025-09-26T14:52:08Z</time>
      </trkpt>
      <trkpt lat="48.78848" lon="-3.33469">
        <ele>92</ele>
        <time>2025-09-26T14:52:10Z</time>
      </trkpt>
      <trkpt lat="48.78873" lon="-3.33535">
        <ele>91.4</ele>
        <time>2025-09-26T14:52:20Z</time>
      </trkpt>
      <trkpt lat="48.78886" lon="-3.3357">
        <ele>90.8</ele>
        <time>2025-09-26T14:52:25Z</time>
      </trkpt>
      <trkpt lat="48.78901" lon="-3.33616">
        <ele>90.2</ele>
        <time>2025-09-26T14:52:31Z</time>
      </trkpt>
      <trkpt lat="48.78909" lon="-3.33638">
        <ele>89.8</ele>
        <time>2025-09-26T14:52:34Z</time>
      </trkpt>
      <trkpt lat="48.78924" lon="-3.33692">
        <ele>89.2</ele>
        <time>2025-09-26T14:52:41Z</time>
      </trkpt>
      <trkpt lat="48.78932" lon="-3.33736">
        <ele>88.6</ele>
        <time>2025-09-26T14:52:46Z</time>
      </trkpt>
      <trkpt lat="48.78933" lon="-3.33755">
        <ele>88</ele>
        <time>2025-09-26T14:52:48Z</time>
      </trkpt>
      <trkpt lat="48.78934" lon="-3.33764">
        <ele>87.4</ele>
        <time>2025-09-26T14:52:49Z</time>
      </trkpt>
      <trkpt lat="48.78935" lon="-3.33783">
        <ele>86.8</ele>
        <time>2025-09-26T14:52:51Z</time>
      </trkpt>
      <trkpt lat="48.78935" lon="-3.33791">
        <ele>86.4</ele>
        <time>2025-09-26T14:52:52Z</time>
      </trkpt>
      <trkpt lat="48.78936" lon="-3.33814">
        <ele>85.4</ele>
        <time>2025-09-26T14:52:55Z</time>
      </trkpt>
      <trkpt lat="48.78941" lon="-3.33822">
        <ele>84.8</ele>
        <time>2025-09-26T14:52:57Z</time>
      </trkpt>
      <trkpt lat="48.78944" lon="-3.3382">
        <ele>84.6</ele>
        <time>2025-09-26T14:52:58Z</time>
      </trkpt>
      <trkpt lat="48.7895" lon="-3.33809">
        <ele>84.4</ele>
        <time>2025-09-26T14:53:00Z</time>
      </trkpt>
      <trkpt lat="48.78956" lon="-3.33796">
        <ele>84.4</ele>
        <time>2025-09-26T14:53:02Z</time>
      </trkpt>
      <trkpt lat="48.78981" lon="-3.33737">
        <ele>84.4</ele>
        <time>2025-09-26T14:53:11Z</time>
      </trkpt>
      <trkpt lat="48.78995" lon="-3.33705">
        <ele>84.6</ele>
        <time>2025-09-26T14:53:16Z</time>
      </trkpt>
      <trkpt lat="48.79001" lon="-3.33693">
        <ele>84.4</ele>
        <time>2025-09-26T14:53:18Z</time>
      </trkpt>
      <trkpt lat="48.79032" lon="-3.33621">
        <ele>84.6</ele>
        <time>2025-09-26T14:53:29Z</time>
      </trkpt>
      <trkpt lat="48.79038" lon="-3.33607">
        <ele>84.2</ele>
        <time>2025-09-26T14:53:31Z</time>
      </trkpt>
      <trkpt lat="48.79053" lon="-3.33571">
        <ele>83.2</ele>
        <time>2025-09-26T14:53:37Z</time>
      </trkpt>
      <trkpt lat="48.79056" lon="-3.33566">
        <ele>83.2</ele>
        <time>2025-09-26T14:53:38Z</time>
      </trkpt>
      <trkpt lat="48.79065" lon="-3.33565">
        <ele>83</ele>
        <time>2025-09-26T14:53:41Z</time>
      </trkpt>
      <trkpt lat="48.79087" lon="-3.33578">
        <ele>82.2</ele>
        <time>2025-09-26T14:53:48Z</time>
      </trkpt>
      <trkpt lat="48.79099" lon="-3.33583">
        <ele>81.8</ele>
        <time>2025-09-26T14:53:51Z</time>
      </trkpt>
      <trkpt lat="48.79108" lon="-3.33586">
        <ele>81.4</ele>
        <time>2025-09-26T14:53:53Z</time>
      </trkpt>
      <trkpt lat="48.79124" lon="-3.33591">
        <ele>81.2</ele>
        <time>2025-09-26T14:53:56Z</time>
      </trkpt>
      <trkpt lat="48.79145" lon="-3.33598">
        <ele>80.8</ele>
        <time>2025-09-26T14:54:00Z</time>
      </trkpt>
      <trkpt lat="48.7916" lon="-3.33608">
        <ele>80.2</ele>
        <time>2025-09-26T14:54:03Z</time>
      </trkpt>
      <trkpt lat="48.79165" lon="-3.33612">
        <ele>80</ele>
        <time>2025-09-26T14:54:04Z</time>
      </trkpt>
      <trkpt lat="48.79176" lon="-3.33619">
        <ele>79.8</ele>
        <time>2025-09-26T14:54:06Z</time>
      </trkpt>
      <trkpt lat="48.79198" lon="-3.33637">
        <ele>79</ele>
        <time>2025-09-26T14:54:10Z</time>
      </trkpt>
      <trkpt lat="48.79215" lon="-3.33652">
        <ele>78</ele>
        <time>2025-09-26T14:54:13Z</time>
      </trkpt>
      <trkpt lat="48.79221" lon="-3.33658">
        <ele>78</ele>
        <time>2025-09-26T14:54:14Z</time>
      </trkpt>
      <trkpt lat="48.79234" lon="-3.33669">
        <ele>77.4</ele>
        <time>2025-09-26T14:54:16Z</time>
      </trkpt>
      <trkpt lat="48.79248" lon="-3.33676">
        <ele>76.6</ele>
        <time>2025-09-26T14:54:18Z</time>
      </trkpt>
      <trkpt lat="48.79263" lon="-3.33677">
        <ele>75.8</ele>
        <time>2025-09-26T14:54:20Z</time>
      </trkpt>
      <trkpt lat="48.79271" lon="-3.33674">
        <ele>75.4</ele>
        <time>2025-09-26T14:54:21Z</time>
      </trkpt>
      <trkpt lat="48.79277" lon="-3.33668">
        <ele>75.4</ele>
        <time>2025-09-26T14:54:22Z</time>
      </trkpt>
      <trkpt lat="48.7929" lon="-3.33654">
        <ele>75</ele>
        <time>2025-09-26T14:54:24Z</time>
      </trkpt>
      <trkpt lat="48.79303" lon="-3.3364">
        <ele>74.2</ele>
        <time>2025-09-26T14:54:26Z</time>
      </trkpt>
      <trkpt lat="48.79317" lon="-3.33634">
        <ele>73.8</ele>
        <time>2025-09-26T14:54:28Z</time>
      </trkpt>
      <trkpt lat="48.79332" lon="-3.33636">
        <ele>73.4</ele>
        <time>2025-09-26T14:54:30Z</time>
      </trkpt>
      <trkpt lat="48.79338" lon="-3.33642">
        <ele>73.6</ele>
        <time>2025-09-26T14:54:31Z</time>
      </trkpt>
      <trkpt lat="48.79367" lon="-3.33675">
        <ele>74.2</ele>
        <time>2025-09-26T14:54:37Z</time>
      </trkpt>
      <trkpt lat="48.79387" lon="-3.33704">
        <ele>75.2</ele>
        <time>2025-09-26T14:54:42Z</time>
      </trkpt>
      <trkpt lat="48.79392" lon="-3.33709">
        <ele>75.4</ele>
        <time>2025-09-26T14:54:43Z</time>
      </trkpt>
      <trkpt lat="48.79396" lon="-3.33714">
        <ele>75.8</ele>
        <time>2025-09-26T14:54:44Z</time>
      </trkpt>
      <trkpt lat="48.79405" lon="-3.33721">
        <ele>76.4</ele>
        <time>2025-09-26T14:54:46Z</time>
      </trkpt>
      <trkpt lat="48.7941" lon="-3.33725">
        <ele>76.6</ele>
        <time>2025-09-26T14:54:47Z</time>
      </trkpt>
      <trkpt lat="48.79414" lon="-3.3373">
        <ele>77.2</ele>
        <time>2025-09-26T14:54:48Z</time>
      </trkpt>
      <trkpt lat="48.79418" lon="-3.33735">
        <ele>77.6</ele>
        <time>2025-09-26T14:54:49Z</time>
      </trkpt>
      <trkpt lat="48.79435" lon="-3.33758">
        <ele>78.8</ele>
        <time>2025-09-26T14:54:53Z</time>
      </trkpt>
      <trkpt lat="48.7944" lon="-3.33764">
        <ele>79</ele>
        <time>2025-09-26T14:54:54Z</time>
      </trkpt>
      <trkpt lat="48.79461" lon="-3.3379">
        <ele>80</ele>
        <time>2025-09-26T14:54:59Z</time>
      </trkpt>
      <trkpt lat="48.7948" lon="-3.33811">
        <ele>80.4</ele>
        <time>2025-09-26T14:55:03Z</time>
      </trkpt>
      <trkpt lat="48.79494" lon="-3.33827">
        <ele>81.2</ele>
        <time>2025-09-26T14:55:06Z</time>
      </trkpt>
      <trkpt lat="48.7952" lon="-3.33859">
        <ele>82.2</ele>
        <time>2025-09-26T14:55:12Z</time>
      </trkpt>
      <trkpt lat="48.79524" lon="-3.33864">
        <ele>82.4</ele>
        <time>2025-09-26T14:55:13Z</time>
      </trkpt>
      <trkpt lat="48.79538" lon="-3.33881">
        <ele>83</ele>
        <time>2025-09-26T14:55:17Z</time>
      </trkpt>
      <trkpt lat="48.79541" lon="-3.33885">
        <ele>83.2</ele>
        <time>2025-09-26T14:55:18Z</time>
      </trkpt>
      <trkpt lat="48.79543" lon="-3.33888">
        <ele>83.2</ele>
        <time>2025-09-26T14:55:19Z</time>
      </trkpt>
      <trkpt lat="48.79546" lon="-3.33892">
        <ele>83.2</ele>
        <time>2025-09-26T14:55:20Z</time>
      </trkpt>
      <trkpt lat="48.79549" lon="-3.33894">
        <ele>83.2</ele>
        <time>2025-09-26T14:55:21Z</time>
      </trkpt>
      <trkpt lat="48.79556" lon="-3.33899">
        <ele>83.4</ele>
        <time>2025-09-26T14:55:23Z</time>
      </trkpt>
      <trkpt lat="48.79561" lon="-3.33903">
        <ele>83.4</ele>
        <time>2025-09-26T14:55:24Z</time>
      </trkpt>
      <trkpt lat="48.7959" lon="-3.33925">
        <ele>83.8</ele>
        <time>2025-09-26T14:55:30Z</time>
      </trkpt>
      <trkpt lat="48.79609" lon="-3.33938">
        <ele>84.2</ele>
        <time>2025-09-26T14:55:34Z</time>
      </trkpt>
      <trkpt lat="48.79627" lon="-3.33951">
        <ele>84.6</ele>
        <time>2025-09-26T14:55:38Z</time>
      </trkpt>
      <trkpt lat="48.79655" lon="-3.3397">
        <ele>85.2</ele>
        <time>2025-09-26T14:55:44Z</time>
      </trkpt>
      <trkpt lat="48.7966" lon="-3.33971">
        <ele>85.4</ele>
        <time>2025-09-26T14:55:45Z</time>
      </trkpt>
      <trkpt lat="48.79665" lon="-3.33972">
        <ele>85.4</ele>
        <time>2025-09-26T14:55:46Z</time>
      </trkpt>
      <trkpt lat="48.79697" lon="-3.33968">
        <ele>85.4</ele>
        <time>2025-09-26T14:55:52Z</time>
      </trkpt>
      <trkpt lat="48.79716" lon="-3.33956">
        <ele>85.8</ele>
        <time>2025-09-26T14:55:56Z</time>
      </trkpt>
      <trkpt lat="48.79726" lon="-3.33949">
        <ele>85.6</ele>
        <time>2025-09-26T14:55:58Z</time>
      </trkpt>
      <trkpt lat="48.79745" lon="-3.33942">
        <ele>85.6</ele>
        <time>2025-09-26T14:56:02Z</time>
      </trkpt>
      <trkpt lat="48.79755" lon="-3.33943">
        <ele>85.6</ele>
        <time>2025-09-26T14:56:04Z</time>
      </trkpt>
      <trkpt lat="48.79781" lon="-3.33953">
        <ele>85.4</ele>
        <time>2025-09-26T14:56:10Z</time>
      </trkpt>
      <trkpt lat="48.79789" lon="-3.33956">
        <ele>85.2</ele>
        <time>2025-09-26T14:56:12Z</time>
      </trkpt>
      <trkpt lat="48.79794" lon="-3.33957">
        <ele>85.2</ele>
        <time>2025-09-26T14:56:13Z</time>
      </trkpt>
      <trkpt lat="48.79798" lon="-3.33959">
        <ele>85</ele>
        <time>2025-09-26T14:56:14Z</time>
      </trkpt>
      <trkpt lat="48.7981" lon="-3.33963">
        <ele>84.2</ele>
        <time>2025-09-26T14:56:17Z</time>
      </trkpt>
      <trkpt lat="48.79817" lon="-3.33964">
        <ele>83.8</ele>
        <time>2025-09-26T14:56:19Z</time>
      </trkpt>
      <trkpt lat="48.79828" lon="-3.33964">
        <ele>83.4</ele>
        <time>2025-09-26T14:56:22Z</time>
      </trkpt>
      <trkpt lat="48.79832" lon="-3.33963">
        <ele>83</ele>
        <time>2025-09-26T14:56:23Z</time>
      </trkpt>
      <trkpt lat="48.79837" lon="-3.33962">
        <ele>82.8</ele>
        <time>2025-09-26T14:56:24Z</time>
      </trkpt>
      <trkpt lat="48.79853" lon="-3.33959">
        <ele>82.2</ele>
        <time>2025-09-26T14:56:27Z</time>
      </trkpt>
      <trkpt lat="48.79859" lon="-3.33958">
        <ele>81.8</ele>
        <time>2025-09-26T14:56:28Z</time>
      </trkpt>
      <trkpt lat="48.7987" lon="-3.33958">
        <ele>81.2</ele>
        <time>2025-09-26T14:56:30Z</time>
      </trkpt>
      <trkpt lat="48.79883" lon="-3.33958">
        <ele>80.6</ele>
        <time>2025-09-26T14:56:32Z</time>
      </trkpt>
      <trkpt lat="48.79903" lon="-3.33958">
        <ele>79.6</ele>
        <time>2025-09-26T14:56:35Z</time>
      </trkpt>
      <trkpt lat="48.79928" lon="-3.33974">
        <ele>78.4</ele>
        <time>2025-09-26T14:56:39Z</time>
      </trkpt>
      <trkpt lat="48.79945" lon="-3.33989">
        <ele>77.8</ele>
        <time>2025-09-26T14:56:42Z</time>
      </trkpt>
      <trkpt lat="48.7995" lon="-3.33994">
        <ele>77.8</ele>
        <time>2025-09-26T14:56:43Z</time>
      </trkpt>
      <trkpt lat="48.79955" lon="-3.33997">
        <ele>77.8</ele>
        <time>2025-09-26T14:56:44Z</time>
      </trkpt>
      <trkpt lat="48.7996" lon="-3.34">
        <ele>77.8</ele>
        <time>2025-09-26T14:56:45Z</time>
      </trkpt>
      <trkpt lat="48.79971" lon="-3.33998">
        <ele>77.4</ele>
        <time>2025-09-26T14:56:47Z</time>
      </trkpt>
      <trkpt lat="48.79977" lon="-3.33994">
        <ele>77.2</ele>
        <time>2025-09-26T14:56:48Z</time>
      </trkpt>
      <trkpt lat="48.79987" lon="-3.33982">
        <ele>76.8</ele>
        <time>2025-09-26T14:56:50Z</time>
      </trkpt>
      <trkpt lat="48.79992" lon="-3.33977">
        <ele>76.4</ele>
        <time>2025-09-26T14:56:51Z</time>
      </trkpt>
      <trkpt lat="48.79998" lon="-3.33974">
        <ele>76</ele>
        <time>2025-09-26T14:56:52Z</time>
      </trkpt>
      <trkpt lat="48.80003" lon="-3.33972">
        <ele>75.4</ele>
        <time>2025-09-26T14:56:53Z</time>
      </trkpt>
      <trkpt lat="48.80019" lon="-3.33972">
        <ele>75</ele>
        <time>2025-09-26T14:56:56Z</time>
      </trkpt>
      <trkpt lat="48.80025" lon="-3.33973">
        <ele>74.6</ele>
        <time>2025-09-26T14:56:57Z</time>
      </trkpt>
      <trkpt lat="48.80055" lon="-3.33976">
        <ele>73.4</ele>
        <time>2025-09-26T14:57:02Z</time>
      </trkpt>
      <trkpt lat="48.80067" lon="-3.33982">
        <ele>73</ele>
        <time>2025-09-26T14:57:04Z</time>
      </trkpt>
      <trkpt lat="48.80077" lon="-3.33992">
        <ele>72.2</ele>
        <time>2025-09-26T14:57:06Z</time>
      </trkpt>
      <trkpt lat="48.80103" lon="-3.34022">
        <ele>71.2</ele>
        <time>2025-09-26T14:57:11Z</time>
      </trkpt>
      <trkpt lat="48.80123" lon="-3.34044">
        <ele>70.4</ele>
        <time>2025-09-26T14:57:15Z</time>
      </trkpt>
      <trkpt lat="48.80142" lon="-3.34057">
        <ele>70</ele>
        <time>2025-09-26T14:57:18Z</time>
      </trkpt>
      <trkpt lat="48.80148" lon="-3.34061">
        <ele>69.6</ele>
        <time>2025-09-26T14:57:19Z</time>
      </trkpt>
      <trkpt lat="48.80159" lon="-3.34071">
        <ele>68.4</ele>
        <time>2025-09-26T14:57:21Z</time>
      </trkpt>
      <trkpt lat="48.80167" lon="-3.34091">
        <ele>67</ele>
        <time>2025-09-26T14:57:24Z</time>
      </trkpt>
      <trkpt lat="48.80174" lon="-3.34097">
        <ele>66.6</ele>
        <time>2025-09-26T14:57:26Z</time>
      </trkpt>
      <trkpt lat="48.80178" lon="-3.34095">
        <ele>66.4</ele>
        <time>2025-09-26T14:57:27Z</time>
      </trkpt>
      <trkpt lat="48.80182" lon="-3.34091">
        <ele>66</ele>
        <time>2025-09-26T14:57:28Z</time>
      </trkpt>
      <trkpt lat="48.80187" lon="-3.34086">
        <ele>66</ele>
        <time>2025-09-26T14:57:29Z</time>
      </trkpt>
      <trkpt lat="48.80196" lon="-3.34074">
        <ele>65</ele>
        <time>2025-09-26T14:57:31Z</time>
      </trkpt>
      <trkpt lat="48.80201" lon="-3.34067">
        <ele>64.4</ele>
        <time>2025-09-26T14:57:32Z</time>
      </trkpt>
      <trkpt lat="48.80215" lon="-3.34046">
        <ele>62.4</ele>
        <time>2025-09-26T14:57:35Z</time>
      </trkpt>
      <trkpt lat="48.80219" lon="-3.34036">
        <ele>61.8</ele>
        <time>2025-09-26T14:57:36Z</time>
      </trkpt>
      <trkpt lat="48.80224" lon="-3.34013">
        <ele>61.4</ele>
        <time>2025-09-26T14:57:38Z</time>
      </trkpt>
      <trkpt lat="48.80228" lon="-3.33985">
        <ele>59.6</ele>
        <time>2025-09-26T14:57:40Z</time>
      </trkpt>
      <trkpt lat="48.80231" lon="-3.33956">
        <ele>58.2</ele>
        <time>2025-09-26T14:57:42Z</time>
      </trkpt>
      <trkpt lat="48.80233" lon="-3.33941">
        <ele>57.2</ele>
        <time>2025-09-26T14:57:43Z</time>
      </trkpt>
      <trkpt lat="48.80237" lon="-3.33927">
        <ele>56.8</ele>
        <time>2025-09-26T14:57:44Z</time>
      </trkpt>
      <trkpt lat="48.80241" lon="-3.33913">
        <ele>56.2</ele>
        <time>2025-09-26T14:57:45Z</time>
      </trkpt>
      <trkpt lat="48.80245" lon="-3.33899">
        <ele>55</ele>
        <time>2025-09-26T14:57:46Z</time>
      </trkpt>
      <trkpt lat="48.8025" lon="-3.33885">
        <ele>53.8</ele>
        <time>2025-09-26T14:57:47Z</time>
      </trkpt>
      <trkpt lat="48.80261" lon="-3.33858">
        <ele>52.2</ele>
        <time>2025-09-26T14:57:49Z</time>
      </trkpt>
      <trkpt lat="48.80265" lon="-3.33845">
        <ele>51.2</ele>
        <time>2025-09-26T14:57:50Z</time>
      </trkpt>
      <trkpt lat="48.80274" lon="-3.33819">
        <ele>49</ele>
        <time>2025-09-26T14:57:52Z</time>
      </trkpt>
      <trkpt lat="48.80283" lon="-3.33796">
        <ele>46.8</ele>
        <time>2025-09-26T14:57:54Z</time>
      </trkpt>
      <trkpt lat="48.80291" lon="-3.33774">
        <ele>45.4</ele>
        <time>2025-09-26T14:57:56Z</time>
      </trkpt>
      <trkpt lat="48.803" lon="-3.33753">
        <ele>44.4</ele>
        <time>2025-09-26T14:57:58Z</time>
      </trkpt>
      <trkpt lat="48.80305" lon="-3.33744">
        <ele>44</ele>
        <time>2025-09-26T14:57:59Z</time>
      </trkpt>
      <trkpt lat="48.80325" lon="-3.337">
        <ele>43.8</ele>
        <time>2025-09-26T14:58:04Z</time>
      </trkpt>
      <trkpt lat="48.80341" lon="-3.33672">
        <ele>45</ele>
        <time>2025-09-26T14:58:09Z</time>
      </trkpt>
      <trkpt lat="48.80345" lon="-3.33662">
        <ele>46</ele>
        <time>2025-09-26T14:58:11Z</time>
      </trkpt>
      <trkpt lat="48.8035" lon="-3.33654">
        <ele>47.2</ele>
        <time>2025-09-26T14:58:13Z</time>
      </trkpt>
      <trkpt lat="48.80354" lon="-3.33649">
        <ele>48.6</ele>
        <time>2025-09-26T14:58:15Z</time>
      </trkpt>
      <trkpt lat="48.80354" lon="-3.33647">
        <ele>48.8</ele>
        <time>2025-09-26T14:58:16Z</time>
      </trkpt>
      <trkpt lat="48.80355" lon="-3.33646">
        <ele>49.6</ele>
        <time>2025-09-26T14:58:19Z</time>
      </trkpt>
      <trkpt lat="48.80355" lon="-3.33646">
        <ele>49.8</ele>
        <time>2025-09-26T14:58:20Z</time>
      </trkpt>
      <trkpt lat="48.80355" lon="-3.33646">
        <ele>49.6</ele>
        <time>2025-09-26T14:58:24Z</time>
      </trkpt>
      <trkpt lat="48.80354" lon="-3.33646">
        <ele>49.8</ele>
        <time>2025-09-26T14:58:26Z</time>
      </trkpt>
      <trkpt lat="48.80355" lon="-3.33645">
        <ele>49.6</ele>
        <time>2025-09-26T14:58:27Z</time>
      </trkpt>
      <trkpt lat="48.80354" lon="-3.33645">
        <ele>49.6</ele>
        <time>2025-09-26T14:58:30Z</time>
      </trkpt>
      <trkpt lat="48.80354" lon="-3.33645">
        <ele>49.6</ele>
        <time>2025-09-26T14:58:32Z</time>
      </trkpt>
      <trkpt lat="48.80353" lon="-3.33647">
        <ele>49.6</ele>
        <time>2025-09-26T14:58:33Z</time>
      </trkpt>
      <trkpt lat="48.80349" lon="-3.33654">
        <ele>49</ele>
        <time>2025-09-26T14:58:35Z</time>
      </trkpt>
      <trkpt lat="48.80345" lon="-3.33661">
        <ele>48.4</ele>
        <time>2025-09-26T14:58:37Z</time>
      </trkpt>
      <trkpt lat="48.8034" lon="-3.33671">
        <ele>47.2</ele>
        <time>2025-09-26T14:58:39Z</time>
      </trkpt>
      <trkpt lat="48.80334" lon="-3.33681">
        <ele>45.6</ele>
        <time>2025-09-26T14:58:41Z</time>
      </trkpt>
      <trkpt lat="48.8033" lon="-3.33686">
        <ele>44.6</ele>
        <time>2025-09-26T14:58:43Z</time>
      </trkpt>
      <trkpt lat="48.80329" lon="-3.33686">
        <ele>44.6</ele>
        <time>2025-09-26T14:58:44Z</time>
      </trkpt>
      <trkpt lat="48.80325" lon="-3.33686">
        <ele>44.4</ele>
        <time>2025-09-26T14:58:47Z</time>
      </trkpt>
      <trkpt lat="48.8031" lon="-3.33675">
        <ele>44.6</ele>
        <time>2025-09-26T14:58:52Z</time>
      </trkpt>
      <trkpt lat="48.80303" lon="-3.33666">
        <ele>45</ele>
        <time>2025-09-26T14:58:57Z</time>
      </trkpt>
      <trkpt lat="48.80303" lon="-3.33666">
        <ele>45</ele>
        <time>2025-09-26T14:59:03Z</time>
      </trkpt>
      <trkpt lat="48.80304" lon="-3.33668">
        <ele>45.4</ele>
        <time>2025-09-26T14:59:07Z</time>
      </trkpt>
      <trkpt lat="48.80307" lon="-3.3367">
        <ele>45.4</ele>
        <time>2025-09-26T14:59:13Z</time>
      </trkpt>
      <trkpt lat="48.8031" lon="-3.33672">
        <ele>44.8</ele>
        <time>2025-09-26T14:59:18Z</time>
      </trkpt>
      <trkpt lat="48.80311" lon="-3.33673">
        <ele>45</ele>
        <time>2025-09-26T14:59:19Z</time>
      </trkpt>
      <trkpt lat="48.80312" lon="-3.33674">
        <ele>44.8</ele>
        <time>2025-09-26T14:59:20Z</time>
      </trkpt>
      <trkpt lat="48.80314" lon="-3.33682">
        <ele>44.6</ele>
        <time>2025-09-26T14:59:27Z</time>
      </trkpt>
      <trkpt lat="48.80322" lon="-3.33689">
        <ele>44.6</ele>
        <time>2025-09-26T14:59:32Z</time>
      </trkpt>
      <trkpt lat="48.80325" lon="-3.3369">
        <ele>44.6</ele>
        <time>2025-09-26T14:59:37Z</time>
      </trkpt>
      <trkpt lat="48.80327" lon="-3.33691">
        <ele>44.4</ele>
        <time>2025-09-26T14:59:47Z</time>
      </trkpt>
      <trkpt lat="48.80325" lon="-3.33693">
        <ele>44.6</ele>
        <time>2025-09-26T14:59:52Z</time>
      </trkpt>
      <trkpt lat="48.80321" lon="-3.337">
        <ele>44.6</ele>
        <time>2025-09-26T14:59:54Z</time>
      </trkpt>
      <trkpt lat="48.80311" lon="-3.33725">
        <ele>43.6</ele>
        <time>2025-09-26T14:59:59Z</time>
      </trkpt>
      <trkpt lat="48.80306" lon="-3.33733">
        <ele>43.4</ele>
        <time>2025-09-26T15:00:01Z</time>
      </trkpt>
      <trkpt lat="48.80305" lon="-3.33739">
        <ele>43.4</ele>
        <time>2025-09-26T15:00:03Z</time>
      </trkpt>
      <trkpt lat="48.80306" lon="-3.3374">
        <ele>43.6</ele>
        <time>2025-09-26T15:00:07Z</time>
      </trkpt>
      <trkpt lat="48.80306" lon="-3.3374">
        <ele>43.8</ele>
        <time>2025-09-26T15:00:17Z</time>
      </trkpt>
      <trkpt lat="48.80306" lon="-3.3374">
        <ele>43.8</ele>
        <time>2025-09-26T15:00:24Z</time>
      </trkpt>
      <trkpt lat="48.80306" lon="-3.3374">
        <ele>43.8</ele>
        <time>2025-09-26T15:00:27Z</time>
      </trkpt>
      <trkpt lat="48.80306" lon="-3.3374">
        <ele>43.8</ele>
        <time>2025-09-26T15:00:28Z</time>
      </trkpt>
      <trkpt lat="48.80306" lon="-3.3374">
        <ele>43.8</ele>
        <time>2025-09-26T15:00:29Z</time>
      </trkpt>
      <trkpt lat="48.80306" lon="-3.3374">
        <ele>43.8</ele>
        <time>2025-09-26T15:00:31Z</time>
      </trkpt>
      <trkpt lat="48.80306" lon="-3.3374">
        <ele>43.8</ele>
        <time>2025-09-26T15:00:41Z</time>
      </trkpt>
      <trkpt lat="48.80306" lon="-3.33741">
        <ele>44</ele>
        <time>2025-09-26T15:00:45Z</time>
      </trkpt>
      <trkpt lat="48.80305" lon="-3.33743">
        <ele>44</ele>
        <time>2025-09-26T15:00:46Z</time>
      </trkpt>
      <trkpt lat="48.80304" lon="-3.33749">
        <ele>44</ele>
        <time>2025-09-26T15:00:49Z</time>
      </trkpt>
      <trkpt lat="48.80302" lon="-3.33748">
        <ele>43.8</ele>
        <time>2025-09-26T15:00:51Z</time>
      </trkpt>
      <trkpt lat="48.80302" lon="-3.33743">
        <ele>43.6</ele>
        <time>2025-09-26T15:00:53Z</time>
      </trkpt>
      <trkpt lat="48.80304" lon="-3.33738">
        <ele>43.8</ele>
        <time>2025-09-26T15:00:55Z</time>
      </trkpt>
      <trkpt lat="48.80315" lon="-3.33715">
        <ele>43.8</ele>
        <time>2025-09-26T15:01:01Z</time>
      </trkpt>
      <trkpt lat="48.80332" lon="-3.33684">
        <ele>44.2</ele>
        <time>2025-09-26T15:01:08Z</time>
      </trkpt>
      <trkpt lat="48.80337" lon="-3.33671">
        <ele>44.8</ele>
        <time>2025-09-26T15:01:11Z</time>
      </trkpt>
      <trkpt lat="48.80341" lon="-3.33664">
        <ele>46</ele>
        <time>2025-09-26T15:01:13Z</time>
      </trkpt>
      <trkpt lat="48.80343" lon="-3.3366">
        <ele>46.4</ele>
        <time>2025-09-26T15:01:14Z</time>
      </trkpt>
      <trkpt lat="48.80345" lon="-3.33656">
        <ele>47</ele>
        <time>2025-09-26T15:01:15Z</time>
      </trkpt>
      <trkpt lat="48.80348" lon="-3.33649">
        <ele>48.6</ele>
        <time>2025-09-26T15:01:17Z</time>
      </trkpt>
      <trkpt lat="48.80353" lon="-3.33641">
        <ele>49.6</ele>
        <time>2025-09-26T15:01:19Z</time>
      </trkpt>
      <trkpt lat="48.80355" lon="-3.33634">
        <ele>50.8</ele>
        <time>2025-09-26T15:01:21Z</time>
      </trkpt>
      <trkpt lat="48.8036" lon="-3.33625">
        <ele>52.2</ele>
        <time>2025-09-26T15:01:24Z</time>
      </trkpt>
      <trkpt lat="48.80364" lon="-3.33617">
        <ele>53.4</ele>
        <time>2025-09-26T15:01:26Z</time>
      </trkpt>
      <trkpt lat="48.8037" lon="-3.33606">
        <ele>54.6</ele>
        <time>2025-09-26T15:01:29Z</time>
      </trkpt>
      <trkpt lat="48.80375" lon="-3.33594">
        <ele>56.2</ele>
        <time>2025-09-26T15:01:32Z</time>
      </trkpt>
      <trkpt lat="48.80379" lon="-3.33582">
        <ele>57.6</ele>
        <time>2025-09-26T15:01:35Z</time>
      </trkpt>
      <trkpt lat="48.80385" lon="-3.33567">
        <ele>58.6</ele>
        <time>2025-09-26T15:01:38Z</time>
      </trkpt>
      <trkpt lat="48.80392" lon="-3.33552">
        <ele>59.8</ele>
        <time>2025-09-26T15:01:42Z</time>
      </trkpt>
      <trkpt lat="48.80397" lon="-3.33542">
        <ele>60.6</ele>
        <time>2025-09-26T15:01:45Z</time>
      </trkpt>
      <trkpt lat="48.80399" lon="-3.33539">
        <ele>61</ele>
        <time>2025-09-26T15:01:46Z</time>
      </trkpt>
      <trkpt lat="48.80406" lon="-3.33523">
        <ele>61.8</ele>
        <time>2025-09-26T15:01:50Z</time>
      </trkpt>
      <trkpt lat="48.80407" lon="-3.3352">
        <ele>62</ele>
        <time>2025-09-26T15:01:51Z</time>
      </trkpt>
      <trkpt lat="48.80415" lon="-3.33502">
        <ele>63.2</ele>
        <time>2025-09-26T15:01:56Z</time>
      </trkpt>
      <trkpt lat="48.80418" lon="-3.33495">
        <ele>63.8</ele>
        <time>2025-09-26T15:01:58Z</time>
      </trkpt>
      <trkpt lat="48.80422" lon="-3.33485">
        <ele>64.4</ele>
        <time>2025-09-26T15:02:01Z</time>
      </trkpt>
      <trkpt lat="48.80431" lon="-3.33466">
        <ele>65.4</ele>
        <time>2025-09-26T15:02:07Z</time>
      </trkpt>
      <trkpt lat="48.80438" lon="-3.3345">
        <ele>66.6</ele>
        <time>2025-09-26T15:02:12Z</time>
      </trkpt>
      <trkpt lat="48.80444" lon="-3.33441">
        <ele>67.2</ele>
        <time>2025-09-26T15:02:15Z</time>
      </trkpt>
      <trkpt lat="48.80445" lon="-3.33438">
        <ele>67.6</ele>
        <time>2025-09-26T15:02:16Z</time>
      </trkpt>
      <trkpt lat="48.80456" lon="-3.33416">
        <ele>68.6</ele>
        <time>2025-09-26T15:02:22Z</time>
      </trkpt>
      <trkpt lat="48.80458" lon="-3.33409">
        <ele>68.8</ele>
        <time>2025-09-26T15:02:24Z</time>
      </trkpt>
      <trkpt lat="48.80465" lon="-3.33393">
        <ele>69.2</ele>
        <time>2025-09-26T15:02:29Z</time>
      </trkpt>
      <trkpt lat="48.80471" lon="-3.33379">
        <ele>69.8</ele>
        <time>2025-09-26T15:02:33Z</time>
      </trkpt>
      <trkpt lat="48.80476" lon="-3.33362">
        <ele>70.4</ele>
        <time>2025-09-26T15:02:37Z</time>
      </trkpt>
      <trkpt lat="48.8048" lon="-3.33339">
        <ele>71</ele>
        <time>2025-09-26T15:02:42Z</time>
      </trkpt>
      <trkpt lat="48.80481" lon="-3.33335">
        <ele>71</ele>
        <time>2025-09-26T15:02:43Z</time>
      </trkpt>
      <trkpt lat="48.80484" lon="-3.33309">
        <ele>71.4</ele>
        <time>2025-09-26T15:02:48Z</time>
      </trkpt>
      <trkpt lat="48.80486" lon="-3.33293">
        <ele>71.6</ele>
        <time>2025-09-26T15:02:51Z</time>
      </trkpt>
      <trkpt lat="48.80488" lon="-3.33245">
        <ele>71.8</ele>
        <time>2025-09-26T15:03:00Z</time>
      </trkpt>
      <trkpt lat="48.80489" lon="-3.33216">
        <ele>71.6</ele>
        <time>2025-09-26T15:03:05Z</time>
      </trkpt>
      <trkpt lat="48.80489" lon="-3.33199">
        <ele>71.4</ele>
        <time>2025-09-26T15:03:08Z</time>
      </trkpt>
      <trkpt lat="48.80489" lon="-3.33192">
        <ele>71.4</ele>
        <time>2025-09-26T15:03:09Z</time>
      </trkpt>
      <trkpt lat="48.80489" lon="-3.3318">
        <ele>71.4</ele>
        <time>2025-09-26T15:03:11Z</time>
      </trkpt>
      <trkpt lat="48.80486" lon="-3.33129">
        <ele>70.4</ele>
        <time>2025-09-26T15:03:18Z</time>
      </trkpt>
      <trkpt lat="48.80482" lon="-3.33078">
        <ele>70</ele>
        <time>2025-09-26T15:03:25Z</time>
      </trkpt>
      <trkpt lat="48.8048" lon="-3.33065">
        <ele>69.6</ele>
        <time>2025-09-26T15:03:27Z</time>
      </trkpt>
      <trkpt lat="48.80479" lon="-3.33036">
        <ele>69.2</ele>
        <time>2025-09-26T15:03:32Z</time>
      </trkpt>
      <trkpt lat="48.8048" lon="-3.33024">
        <ele>69</ele>
        <time>2025-09-26T15:03:34Z</time>
      </trkpt>
      <trkpt lat="48.8048" lon="-3.33017">
        <ele>68.8</ele>
        <time>2025-09-26T15:03:35Z</time>
      </trkpt>
      <trkpt lat="48.80484" lon="-3.32971">
        <ele>68.4</ele>
        <time>2025-09-26T15:03:41Z</time>
      </trkpt>
      <trkpt lat="48.80484" lon="-3.32955">
        <ele>68.4</ele>
        <time>2025-09-26T15:03:43Z</time>
      </trkpt>
      <trkpt lat="48.80481" lon="-3.32939">
        <ele>68.2</ele>
        <time>2025-09-26T15:03:45Z</time>
      </trkpt>
      <trkpt lat="48.80479" lon="-3.32932">
        <ele>68.2</ele>
        <time>2025-09-26T15:03:46Z</time>
      </trkpt>
      <trkpt lat="48.8046" lon="-3.32875">
        <ele>68.8</ele>
        <time>2025-09-26T15:03:54Z</time>
      </trkpt>
      <trkpt lat="48.80452" lon="-3.3285">
        <ele>69.6</ele>
        <time>2025-09-26T15:03:59Z</time>
      </trkpt>
      <trkpt lat="48.80451" lon="-3.32843">
        <ele>69.8</ele>
        <time>2025-09-26T15:04:01Z</time>
      </trkpt>
      <trkpt lat="48.80452" lon="-3.32834">
        <ele>70</ele>
        <time>2025-09-26T15:04:03Z</time>
      </trkpt>
      <trkpt lat="48.80456" lon="-3.32799">
        <ele>70</ele>
        <time>2025-09-26T15:04:09Z</time>
      </trkpt>
      <trkpt lat="48.80462" lon="-3.32748">
        <ele>70.6</ele>
        <time>2025-09-26T15:04:16Z</time>
      </trkpt>
      <trkpt lat="48.80463" lon="-3.32708">
        <ele>71</ele>
        <time>2025-09-26T15:04:21Z</time>
      </trkpt>
      <trkpt lat="48.80462" lon="-3.32692">
        <ele>71</ele>
        <time>2025-09-26T15:04:23Z</time>
      </trkpt>
      <trkpt lat="48.80455" lon="-3.32653">
        <ele>72</ele>
        <time>2025-09-26T15:04:28Z</time>
      </trkpt>
      <trkpt lat="48.80454" lon="-3.32644">
        <ele>72.2</ele>
        <time>2025-09-26T15:04:29Z</time>
      </trkpt>
      <trkpt lat="48.80454" lon="-3.32602">
        <ele>73.2</ele>
        <time>2025-09-26T15:04:34Z</time>
      </trkpt>
      <trkpt lat="48.80455" lon="-3.32585">
        <ele>73.8</ele>
        <time>2025-09-26T15:04:36Z</time>
      </trkpt>
      <trkpt lat="48.80457" lon="-3.32569">
        <ele>74.2</ele>
        <time>2025-09-26T15:04:38Z</time>
      </trkpt>
      <trkpt lat="48.8046" lon="-3.32543">
        <ele>74.6</ele>
        <time>2025-09-26T15:04:41Z</time>
      </trkpt>
      <trkpt lat="48.80461" lon="-3.32527">
        <ele>74.8</ele>
        <time>2025-09-26T15:04:43Z</time>
      </trkpt>
      <trkpt lat="48.80471" lon="-3.32455">
        <ele>75.2</ele>
        <time>2025-09-26T15:04:52Z</time>
      </trkpt>
      <trkpt lat="48.80475" lon="-3.32439">
        <ele>75.2</ele>
        <time>2025-09-26T15:04:54Z</time>
      </trkpt>
      <trkpt lat="48.80481" lon="-3.3241">
        <ele>75.4</ele>
        <time>2025-09-26T15:04:58Z</time>
      </trkpt>
      <trkpt lat="48.80486" lon="-3.32397">
        <ele>75.4</ele>
        <time>2025-09-26T15:05:00Z</time>
      </trkpt>
      <trkpt lat="48.80497" lon="-3.32361">
        <ele>75</ele>
        <time>2025-09-26T15:05:06Z</time>
      </trkpt>
      <trkpt lat="48.80497" lon="-3.32355">
        <ele>75</ele>
        <time>2025-09-26T15:05:07Z</time>
      </trkpt>
      <trkpt lat="48.80499" lon="-3.32347">
        <ele>74.8</ele>
        <time>2025-09-26T15:05:09Z</time>
      </trkpt>
      <trkpt lat="48.80503" lon="-3.32343">
        <ele>74.8</ele>
        <time>2025-09-26T15:05:11Z</time>
      </trkpt>
      <trkpt lat="48.80514" lon="-3.32347">
        <ele>74.6</ele>
        <time>2025-09-26T15:05:14Z</time>
      </trkpt>
      <trkpt lat="48.80522" lon="-3.32353">
        <ele>74.6</ele>
        <time>2025-09-26T15:05:16Z</time>
      </trkpt>
      <trkpt lat="48.80535" lon="-3.32361">
        <ele>74.4</ele>
        <time>2025-09-26T15:05:19Z</time>
      </trkpt>
      <trkpt lat="48.80539" lon="-3.32363">
        <ele>74.2</ele>
        <time>2025-09-26T15:05:20Z</time>
      </trkpt>
      <trkpt lat="48.80564" lon="-3.32381">
        <ele>73.8</ele>
        <time>2025-09-26T15:05:26Z</time>
      </trkpt>
      <trkpt lat="48.80568" lon="-3.32385">
        <ele>73.6</ele>
        <time>2025-09-26T15:05:27Z</time>
      </trkpt>
      <trkpt lat="48.80589" lon="-3.32411">
        <ele>73.2</ele>
        <time>2025-09-26T15:05:32Z</time>
      </trkpt>
      <trkpt lat="48.80597" lon="-3.32424">
        <ele>72.8</ele>
        <time>2025-09-26T15:05:34Z</time>
      </trkpt>
      <trkpt lat="48.8061" lon="-3.32453">
        <ele>72.4</ele>
        <time>2025-09-26T15:05:38Z</time>
      </trkpt>
      <trkpt lat="48.80617" lon="-3.32469">
        <ele>72.4</ele>
        <time>2025-09-26T15:05:40Z</time>
      </trkpt>
      <trkpt lat="48.8062" lon="-3.32477">
        <ele>72.2</ele>
        <time>2025-09-26T15:05:41Z</time>
      </trkpt>
      <trkpt lat="48.80628" lon="-3.32501">
        <ele>72</ele>
        <time>2025-09-26T15:05:44Z</time>
      </trkpt>
      <trkpt lat="48.8065" lon="-3.32563">
        <ele>71.6</ele>
        <time>2025-09-26T15:05:52Z</time>
      </trkpt>
      <trkpt lat="48.80663" lon="-3.32602">
        <ele>71.4</ele>
        <time>2025-09-26T15:05:57Z</time>
      </trkpt>
      <trkpt lat="48.80677" lon="-3.32643">
        <ele>71</ele>
        <time>2025-09-26T15:06:02Z</time>
      </trkpt>
      <trkpt lat="48.80679" lon="-3.32652">
        <ele>70.8</ele>
        <time>2025-09-26T15:06:03Z</time>
      </trkpt>
      <trkpt lat="48.80697" lon="-3.32714">
        <ele>70.2</ele>
        <time>2025-09-26T15:06:10Z</time>
      </trkpt>
      <trkpt lat="48.80706" lon="-3.3274">
        <ele>69.8</ele>
        <time>2025-09-26T15:06:13Z</time>
      </trkpt>
      <trkpt lat="48.80717" lon="-3.32765">
        <ele>69.4</ele>
        <time>2025-09-26T15:06:16Z</time>
      </trkpt>
      <trkpt lat="48.80729" lon="-3.32788">
        <ele>68.8</ele>
        <time>2025-09-26T15:06:19Z</time>
      </trkpt>
      <trkpt lat="48.80758" lon="-3.32843">
        <ele>67.6</ele>
        <time>2025-09-26T15:06:26Z</time>
      </trkpt>
      <trkpt lat="48.80782" lon="-3.32869">
        <ele>67.4</ele>
        <time>2025-09-26T15:06:31Z</time>
      </trkpt>
      <trkpt lat="48.808" lon="-3.3288">
        <ele>67.6</ele>
        <time>2025-09-26T15:06:34Z</time>
      </trkpt>
      <trkpt lat="48.80811" lon="-3.32884">
        <ele>68.8</ele>
        <time>2025-09-26T15:06:36Z</time>
      </trkpt>
      <trkpt lat="48.80841" lon="-3.32891">
        <ele>70</ele>
        <time>2025-09-26T15:06:41Z</time>
      </trkpt>
      <trkpt lat="48.80864" lon="-3.32899">
        <ele>70.4</ele>
        <time>2025-09-26T15:06:45Z</time>
      </trkpt>
      <trkpt lat="48.8087" lon="-3.32902">
        <ele>70.4</ele>
        <time>2025-09-26T15:06:46Z</time>
      </trkpt>
      <trkpt lat="48.80896" lon="-3.32922">
        <ele>70.6</ele>
        <time>2025-09-26T15:06:51Z</time>
      </trkpt>
      <trkpt lat="48.80919" lon="-3.32951">
        <ele>71</ele>
        <time>2025-09-26T15:06:56Z</time>
      </trkpt>
      <trkpt lat="48.80924" lon="-3.32957">
        <ele>71</ele>
        <time>2025-09-26T15:06:57Z</time>
      </trkpt>
      <trkpt lat="48.80964" lon="-3.33023">
        <ele>70.2</ele>
        <time>2025-09-26T15:07:07Z</time>
      </trkpt>
      <trkpt lat="48.80976" lon="-3.33042">
        <ele>70</ele>
        <time>2025-09-26T15:07:10Z</time>
      </trkpt>
      <trkpt lat="48.80996" lon="-3.33073">
        <ele>70</ele>
        <time>2025-09-26T15:07:15Z</time>
      </trkpt>
      <trkpt lat="48.81037" lon="-3.33121">
        <ele>70</ele>
        <time>2025-09-26T15:07:24Z</time>
      </trkpt>
      <trkpt lat="48.81087" lon="-3.33161">
        <ele>70.4</ele>
        <time>2025-09-26T15:07:34Z</time>
      </trkpt>
      <trkpt lat="48.8111" lon="-3.33192">
        <ele>71</ele>
        <time>2025-09-26T15:07:40Z</time>
      </trkpt>
      <trkpt lat="48.81119" lon="-3.33209">
        <ele>71</ele>
        <time>2025-09-26T15:07:43Z</time>
      </trkpt>
      <trkpt lat="48.81138" lon="-3.33242">
        <ele>71</ele>
        <time>2025-09-26T15:07:49Z</time>
      </trkpt>
      <trkpt lat="48.8117" lon="-3.33302">
        <ele>70.4</ele>
        <time>2025-09-26T15:07:59Z</time>
      </trkpt>
      <trkpt lat="48.81183" lon="-3.33326">
        <ele>70.2</ele>
        <time>2025-09-26T15:08:03Z</time>
      </trkpt>
      <trkpt lat="48.81194" lon="-3.33345">
        <ele>70</ele>
        <time>2025-09-26T15:08:06Z</time>
      </trkpt>
      <trkpt lat="48.81201" lon="-3.33358">
        <ele>69.8</ele>
        <time>2025-09-26T15:08:08Z</time>
      </trkpt>
      <trkpt lat="48.81205" lon="-3.33365">
        <ele>69.8</ele>
        <time>2025-09-26T15:08:09Z</time>
      </trkpt>
      <trkpt lat="48.81217" lon="-3.33384">
        <ele>69.4</ele>
        <time>2025-09-26T15:08:12Z</time>
      </trkpt>
      <trkpt lat="48.81228" lon="-3.33404">
        <ele>69</ele>
        <time>2025-09-26T15:08:15Z</time>
      </trkpt>
      <trkpt lat="48.81245" lon="-3.33431">
        <ele>68.4</ele>
        <time>2025-09-26T15:08:19Z</time>
      </trkpt>
      <trkpt lat="48.81258" lon="-3.33452">
        <ele>67.8</ele>
        <time>2025-09-26T15:08:22Z</time>
      </trkpt>
      <trkpt lat="48.81274" lon="-3.33479">
        <ele>66.6</ele>
        <time>2025-09-26T15:08:26Z</time>
      </trkpt>
      <trkpt lat="48.8128" lon="-3.3349">
        <ele>65.8</ele>
        <time>2025-09-26T15:08:28Z</time>
      </trkpt>
      <trkpt lat="48.81283" lon="-3.33497">
        <ele>65.4</ele>
        <time>2025-09-26T15:08:30Z</time>
      </trkpt>
      <trkpt lat="48.81292" lon="-3.33509">
        <ele>65</ele>
        <time>2025-09-26T15:08:33Z</time>
      </trkpt>
      <trkpt lat="48.81299" lon="-3.3352">
        <ele>64.4</ele>
        <time>2025-09-26T15:08:35Z</time>
      </trkpt>
      <trkpt lat="48.81311" lon="-3.33538">
        <ele>62.4</ele>
        <time>2025-09-26T15:08:38Z</time>
      </trkpt>
      <trkpt lat="48.81323" lon="-3.33555">
        <ele>61.2</ele>
        <time>2025-09-26T15:08:41Z</time>
      </trkpt>
      <trkpt lat="48.8133" lon="-3.33561">
        <ele>60.2</ele>
        <time>2025-09-26T15:08:43Z</time>
      </trkpt>
      <trkpt lat="48.81333" lon="-3.33566">
        <ele>59.8</ele>
        <time>2025-09-26T15:08:47Z</time>
      </trkpt>
      <trkpt lat="48.81333" lon="-3.33566">
        <ele>60</ele>
        <time>2025-09-26T15:08:53Z</time>
      </trkpt>
      <trkpt lat="48.81333" lon="-3.33566">
        <ele>60</ele>
        <time>2025-09-26T15:08:57Z</time>
      </trkpt>
      <trkpt lat="48.81333" lon="-3.33566">
        <ele>60</ele>
        <time>2025-09-26T15:08:58Z</time>
      </trkpt>
      <trkpt lat="48.81333" lon="-3.33566">
        <ele>60</ele>
        <time>2025-09-26T15:08:59Z</time>
      </trkpt>
      <trkpt lat="48.81333" lon="-3.33566">
        <ele>60</ele>
        <time>2025-09-26T15:09:01Z</time>
      </trkpt>
      <trkpt lat="48.81333" lon="-3.33566">
        <ele>60</ele>
        <time>2025-09-26T15:09:04Z</time>
      </trkpt>
      <trkpt lat="48.81333" lon="-3.33566">
        <ele>59.6</ele>
        <time>2025-09-26T15:09:06Z</time>
      </trkpt>
      <trkpt lat="48.81333" lon="-3.33566">
        <ele>60</ele>
        <time>2025-09-26T15:09:21Z</time>
      </trkpt>
      <trkpt lat="48.81333" lon="-3.33566">
        <ele>60</ele>
        <time>2025-09-26T15:09:53Z</time>
      </trkpt>
      <trkpt lat="48.81333" lon="-3.33566">
        <ele>60</ele>
        <time>2025-09-26T15:10:04Z</time>
      </trkpt>
      <trkpt lat="48.81333" lon="-3.33565">
        <ele>60</ele>
        <time>2025-09-26T15:10:11Z</time>
      </trkpt>
      <trkpt lat="48.81332" lon="-3.33568">
        <ele>60</ele>
        <time>2025-09-26T15:10:23Z</time>
      </trkpt>
      <trkpt lat="48.81331" lon="-3.33569">
        <ele>60</ele>
        <time>2025-09-26T15:10:24Z</time>
      </trkpt>
      <trkpt lat="48.8132" lon="-3.33558">
        <ele>60.2</ele>
        <time>2025-09-26T15:10:28Z</time>
      </trkpt>
      <trkpt lat="48.81306" lon="-3.33536">
        <ele>61.4</ele>
        <time>2025-09-26T15:10:33Z</time>
      </trkpt>
      <trkpt lat="48.81303" lon="-3.33532">
        <ele>61.6</ele>
        <time>2025-09-26T15:10:34Z</time>
      </trkpt>
      <trkpt lat="48.81292" lon="-3.33515">
        <ele>62.8</ele>
        <time>2025-09-26T15:10:38Z</time>
      </trkpt>
      <trkpt lat="48.81285" lon="-3.33506">
        <ele>63.8</ele>
        <time>2025-09-26T15:10:41Z</time>
      </trkpt>
      <trkpt lat="48.81282" lon="-3.33506">
        <ele>64.2</ele>
        <time>2025-09-26T15:10:42Z</time>
      </trkpt>
      <trkpt lat="48.81279" lon="-3.33511">
        <ele>64.8</ele>
        <time>2025-09-26T15:10:44Z</time>
      </trkpt>
      <trkpt lat="48.81278" lon="-3.33515">
        <ele>64.8</ele>
        <time>2025-09-26T15:10:45Z</time>
      </trkpt>
      <trkpt lat="48.81269" lon="-3.33536">
        <ele>65</ele>
        <time>2025-09-26T15:10:50Z</time>
      </trkpt>
      <trkpt lat="48.81259" lon="-3.33548">
        <ele>64.8</ele>
        <time>2025-09-26T15:10:53Z</time>
      </trkpt>
      <trkpt lat="48.81252" lon="-3.33552">
        <ele>64.6</ele>
        <time>2025-09-26T15:10:55Z</time>
      </trkpt>
      <trkpt lat="48.81227" lon="-3.33558">
        <ele>65</ele>
        <time>2025-09-26T15:11:02Z</time>
      </trkpt>
      <trkpt lat="48.81192" lon="-3.33564">
        <ele>65.6</ele>
        <time>2025-09-26T15:11:11Z</time>
      </trkpt>
      <trkpt lat="48.81151" lon="-3.33571">
        <ele>65.8</ele>
        <time>2025-09-26T15:11:21Z</time>
      </trkpt>
      <trkpt lat="48.81123" lon="-3.33588">
        <ele>65.8</ele>
        <time>2025-09-26T15:11:28Z</time>
      </trkpt>
      <trkpt lat="48.81095" lon="-3.33618">
        <ele>65.4</ele>
        <time>2025-09-26T15:11:36Z</time>
      </trkpt>
      <trkpt lat="48.81086" lon="-3.33627">
        <ele>65.4</ele>
        <time>2025-09-26T15:11:40Z</time>
      </trkpt>
      <trkpt lat="48.8107" lon="-3.33636">
        <ele>65.8</ele>
        <time>2025-09-26T15:11:46Z</time>
      </trkpt>
      <trkpt lat="48.8106" lon="-3.33637">
        <ele>65.6</ele>
        <time>2025-09-26T15:11:52Z</time>
      </trkpt>
      <trkpt lat="48.8106" lon="-3.33634">
        <ele>65.2</ele>
        <time>2025-09-26T15:11:55Z</time>
      </trkpt>
      <trkpt lat="48.8106" lon="-3.33634">
        <ele>65</ele>
        <time>2025-09-26T15:11:56Z</time>
      </trkpt>
      <trkpt lat="48.81062" lon="-3.33634">
        <ele>65.6</ele>
        <time>2025-09-26T15:12:04Z</time>
      </trkpt>
      <trkpt lat="48.81063" lon="-3.33634">
        <ele>65.4</ele>
        <time>2025-09-26T15:12:14Z</time>
      </trkpt>
      <trkpt lat="48.81061" lon="-3.33636">
        <ele>65.2</ele>
        <time>2025-09-26T15:12:18Z</time>
      </trkpt>
      <trkpt lat="48.8106" lon="-3.33636">
        <ele>65.2</ele>
        <time>2025-09-26T15:12:19Z</time>
      </trkpt>
      <trkpt lat="48.81044" lon="-3.33639">
        <ele>65.2</ele>
        <time>2025-09-26T15:12:24Z</time>
      </trkpt>
      <trkpt lat="48.81038" lon="-3.33642">
        <ele>65.2</ele>
        <time>2025-09-26T15:12:26Z</time>
      </trkpt>
      <trkpt lat="48.81034" lon="-3.33643">
        <ele>65</ele>
        <time>2025-09-26T15:12:27Z</time>
      </trkpt>
      <trkpt lat="48.81024" lon="-3.33647">
        <ele>64.8</ele>
        <time>2025-09-26T15:12:30Z</time>
      </trkpt>
      <trkpt lat="48.81014" lon="-3.33651">
        <ele>64.8</ele>
        <time>2025-09-26T15:12:33Z</time>
      </trkpt>
      <trkpt lat="48.80989" lon="-3.33662">
        <ele>64.4</ele>
        <time>2025-09-26T15:12:41Z</time>
      </trkpt>
      <trkpt lat="48.80983" lon="-3.33665">
        <ele>64.2</ele>
        <time>2025-09-26T15:12:43Z</time>
      </trkpt>
      <trkpt lat="48.80962" lon="-3.33676">
        <ele>63.8</ele>
        <time>2025-09-26T15:12:50Z</time>
      </trkpt>
      <trkpt lat="48.80959" lon="-3.33678">
        <ele>63.8</ele>
        <time>2025-09-26T15:12:51Z</time>
      </trkpt>
      <trkpt lat="48.80953" lon="-3.33681">
        <ele>63.8</ele>
        <time>2025-09-26T15:12:53Z</time>
      </trkpt>
      <trkpt lat="48.80945" lon="-3.33684">
        <ele>63.6</ele>
        <time>2025-09-26T15:12:56Z</time>
      </trkpt>
      <trkpt lat="48.80942" lon="-3.33685">
        <ele>63.2</ele>
        <time>2025-09-26T15:12:59Z</time>
      </trkpt>
      <trkpt lat="48.80942" lon="-3.33685">
        <ele>63.2</ele>
        <time>2025-09-26T15:13:10Z</time>
      </trkpt>
      <trkpt lat="48.80942" lon="-3.33685">
        <ele>63</ele>
        <time>2025-09-26T15:13:19Z</time>
      </trkpt>
      <trkpt lat="48.80942" lon="-3.33685">
        <ele>63</ele>
        <time>2025-09-26T15:13:31Z</time>
      </trkpt>
      <trkpt lat="48.80943" lon="-3.33685">
        <ele>63</ele>
        <time>2025-09-26T15:13:42Z</time>
      </trkpt>
      <trkpt lat="48.80943" lon="-3.33685">
        <ele>62.8</ele>
        <time>2025-09-26T15:13:52Z</time>
      </trkpt>
      <trkpt lat="48.80943" lon="-3.33685">
        <ele>63.4</ele>
        <time>2025-09-26T15:14:04Z</time>
      </trkpt>
      <trkpt lat="48.80943" lon="-3.33686">
        <ele>63.4</ele>
        <time>2025-09-26T15:14:07Z</time>
      </trkpt>
      <trkpt lat="48.80943" lon="-3.33685">
        <ele>62.6</ele>
        <time>2025-09-26T15:14:13Z</time>
      </trkpt>
      <trkpt lat="48.80943" lon="-3.33684">
        <ele>63</ele>
        <time>2025-09-26T15:14:19Z</time>
      </trkpt>
      <trkpt lat="48.80944" lon="-3.33684">
        <ele>63.2</ele>
        <time>2025-09-26T15:14:22Z</time>
      </trkpt>
      <trkpt lat="48.80944" lon="-3.33684">
        <ele>63.2</ele>
        <time>2025-09-26T15:14:23Z</time>
      </trkpt>
      <trkpt lat="48.80945" lon="-3.33683">
        <ele>63.4</ele>
        <time>2025-09-26T15:14:25Z</time>
      </trkpt>
      <trkpt lat="48.80947" lon="-3.33682">
        <ele>63.4</ele>
        <time>2025-09-26T15:14:26Z</time>
      </trkpt>
      <trkpt lat="48.80955" lon="-3.33677">
        <ele>63</ele>
        <time>2025-09-26T15:14:29Z</time>
      </trkpt>
      <trkpt lat="48.80967" lon="-3.33672">
        <ele>63</ele>
        <time>2025-09-26T15:14:32Z</time>
      </trkpt>
      <trkpt lat="48.80976" lon="-3.33669">
        <ele>63.2</ele>
        <time>2025-09-26T15:14:34Z</time>
      </trkpt>
      <trkpt lat="48.80983" lon="-3.33666">
        <ele>63.6</ele>
        <time>2025-09-26T15:14:36Z</time>
      </trkpt>
      <trkpt lat="48.80994" lon="-3.3366">
        <ele>63.6</ele>
        <time>2025-09-26T15:14:39Z</time>
      </trkpt>
      <trkpt lat="48.81002" lon="-3.33656">
        <ele>63.8</ele>
        <time>2025-09-26T15:14:41Z</time>
      </trkpt>
      <trkpt lat="48.81018" lon="-3.3365">
        <ele>64.6</ele>
        <time>2025-09-26T15:14:45Z</time>
      </trkpt>
      <trkpt lat="48.81026" lon="-3.33647">
        <ele>64.6</ele>
        <time>2025-09-26T15:14:47Z</time>
      </trkpt>
      <trkpt lat="48.81038" lon="-3.33643">
        <ele>64.6</ele>
        <time>2025-09-26T15:14:50Z</time>
      </trkpt>
      <trkpt lat="48.81042" lon="-3.33643">
        <ele>64.6</ele>
        <time>2025-09-26T15:14:51Z</time>
      </trkpt>
      <trkpt lat="48.81045" lon="-3.33642">
        <ele>64.8</ele>
        <time>2025-09-26T15:14:52Z</time>
      </trkpt>
      <trkpt lat="48.81048" lon="-3.33641">
        <ele>64.8</ele>
        <time>2025-09-26T15:14:53Z</time>
      </trkpt>
      <trkpt lat="48.81076" lon="-3.33634">
        <ele>64.8</ele>
        <time>2025-09-26T15:15:00Z</time>
      </trkpt>
      <trkpt lat="48.81084" lon="-3.3363">
        <ele>64.8</ele>
        <time>2025-09-26T15:15:03Z</time>
      </trkpt>
      <trkpt lat="48.81088" lon="-3.33627">
        <ele>65</ele>
        <time>2025-09-26T15:15:05Z</time>
      </trkpt>
      <trkpt lat="48.81088" lon="-3.33625">
        <ele>65.2</ele>
        <time>2025-09-26T15:15:06Z</time>
      </trkpt>
      <trkpt lat="48.81088" lon="-3.33623">
        <ele>65.2</ele>
        <time>2025-09-26T15:15:08Z</time>
      </trkpt>
      <trkpt lat="48.81087" lon="-3.3362">
        <ele>65.6</ele>
        <time>2025-09-26T15:15:10Z</time>
      </trkpt>
      <trkpt lat="48.81087" lon="-3.33618">
        <ele>65.4</ele>
        <time>2025-09-26T15:15:13Z</time>
      </trkpt>
      <trkpt lat="48.81087" lon="-3.33618">
        <ele>65.8</ele>
        <time>2025-09-26T15:15:15Z</time>
      </trkpt>
      <trkpt lat="48.81086" lon="-3.33616">
        <ele>65.8</ele>
        <time>2025-09-26T15:15:16Z</time>
      </trkpt>
      <trkpt lat="48.81087" lon="-3.33611">
        <ele>65.8</ele>
        <time>2025-09-26T15:15:18Z</time>
      </trkpt>
      <trkpt lat="48.81096" lon="-3.33594">
        <ele>65.8</ele>
        <time>2025-09-26T15:15:23Z</time>
      </trkpt>
      <trkpt lat="48.81102" lon="-3.3357">
        <ele>66.4</ele>
        <time>2025-09-26T15:15:29Z</time>
      </trkpt>
      <trkpt lat="48.81103" lon="-3.33562">
        <ele>66.6</ele>
        <time>2025-09-26T15:15:31Z</time>
      </trkpt>
      <trkpt lat="48.81101" lon="-3.33554">
        <ele>66.8</ele>
        <time>2025-09-26T15:15:33Z</time>
      </trkpt>
      <trkpt lat="48.81098" lon="-3.33546">
        <ele>67</ele>
        <time>2025-09-26T15:15:35Z</time>
      </trkpt>
      <trkpt lat="48.81086" lon="-3.33514">
        <ele>67.4</ele>
        <time>2025-09-26T15:15:44Z</time>
      </trkpt>
      <trkpt lat="48.81084" lon="-3.33507">
        <ele>67.6</ele>
        <time>2025-09-26T15:15:49Z</time>
      </trkpt>
      <trkpt lat="48.81085" lon="-3.33507">
        <ele>67.8</ele>
        <time>2025-09-26T15:15:54Z</time>
      </trkpt>
      <trkpt lat="48.81085" lon="-3.33507">
        <ele>67.8</ele>
        <time>2025-09-26T15:15:55Z</time>
      </trkpt>
      <trkpt lat="48.81085" lon="-3.33507">
        <ele>67.8</ele>
        <time>2025-09-26T15:15:58Z</time>
      </trkpt>
      <trkpt lat="48.81085" lon="-3.33507">
        <ele>68</ele>
        <time>2025-09-26T15:15:59Z</time>
      </trkpt>
      <trkpt lat="48.81085" lon="-3.33508">
        <ele>68</ele>
        <time>2025-09-26T15:16:01Z</time>
      </trkpt>
      <trkpt lat="48.81085" lon="-3.33508">
        <ele>68</ele>
        <time>2025-09-26T15:16:04Z</time>
      </trkpt>
      <trkpt lat="48.81083" lon="-3.33506">
        <ele>67.8</ele>
        <time>2025-09-26T15:16:08Z</time>
      </trkpt>
      <trkpt lat="48.81082" lon="-3.33505">
        <ele>67.8</ele>
        <time>2025-09-26T15:16:12Z</time>
      </trkpt>
      <trkpt lat="48.81082" lon="-3.33505">
        <ele>67.8</ele>
        <time>2025-09-26T15:16:13Z</time>
      </trkpt>
      <trkpt lat="48.81082" lon="-3.33505">
        <ele>68</ele>
        <time>2025-09-26T15:16:15Z</time>
      </trkpt>
      <trkpt lat="48.81082" lon="-3.33505">
        <ele>68.2</ele>
        <time>2025-09-26T15:16:19Z</time>
      </trkpt>
      <trkpt lat="48.81083" lon="-3.33506">
        <ele>68.2</ele>
        <time>2025-09-26T15:16:22Z</time>
      </trkpt>
      <trkpt lat="48.81083" lon="-3.33504">
        <ele>68.2</ele>
        <time>2025-09-26T15:16:30Z</time>
      </trkpt>
      <trkpt lat="48.81084" lon="-3.33504">
        <ele>68</ele>
        <time>2025-09-26T15:16:35Z</time>
      </trkpt>
      <trkpt lat="48.81084" lon="-3.33503">
        <ele>68</ele>
        <time>2025-09-26T15:16:36Z</time>
      </trkpt>
      <trkpt lat="48.81084" lon="-3.33502">
        <ele>68</ele>
        <time>2025-09-26T15:16:38Z</time>
      </trkpt>
      <trkpt lat="48.81084" lon="-3.33502">
        <ele>68</ele>
        <time>2025-09-26T15:16:42Z</time>
      </trkpt>
      <trkpt lat="48.81084" lon="-3.33502">
        <ele>68</ele>
        <time>2025-09-26T15:16:44Z</time>
      </trkpt>
      <trkpt lat="48.81084" lon="-3.33502">
        <ele>68</ele>
        <time>2025-09-26T15:16:46Z</time>
      </trkpt>
      <trkpt lat="48.81083" lon="-3.33505">
        <ele>68</ele>
        <time>2025-09-26T15:16:52Z</time>
      </trkpt>
      <trkpt lat="48.81084" lon="-3.33506">
        <ele>67.8</ele>
        <time>2025-09-26T15:16:57Z</time>
      </trkpt>
      <trkpt lat="48.81084" lon="-3.33506">
        <ele>68</ele>
        <time>2025-09-26T15:16:58Z</time>
      </trkpt>
      <trkpt lat="48.81084" lon="-3.33506">
        <ele>67.6</ele>
        <time>2025-09-26T15:17:03Z</time>
      </trkpt>
      <trkpt lat="48.81085" lon="-3.33506">
        <ele>67.4</ele>
        <time>2025-09-26T15:17:04Z</time>
      </trkpt>
      <trkpt lat="48.81085" lon="-3.33509">
        <ele>67.2</ele>
        <time>2025-09-26T15:17:09Z</time>
      </trkpt>
      <trkpt lat="48.81085" lon="-3.33509">
        <ele>67.2</ele>
        <time>2025-09-26T15:17:10Z</time>
      </trkpt>
      <trkpt lat="48.81085" lon="-3.33509">
        <ele>67.2</ele>
        <time>2025-09-26T15:17:11Z</time>
      </trkpt>
      <trkpt lat="48.81085" lon="-3.33509">
        <ele>67</ele>
        <time>2025-09-26T15:17:13Z</time>
      </trkpt>
      <trkpt lat="48.81085" lon="-3.33509">
        <ele>67</ele>
        <time>2025-09-26T15:17:25Z</time>
      </trkpt>
      <trkpt lat="48.81085" lon="-3.33509">
        <ele>67</ele>
        <time>2025-09-26T15:17:29Z</time>
      </trkpt>
      <trkpt lat="48.81085" lon="-3.33509">
        <ele>67</ele>
        <time>2025-09-26T15:17:30Z</time>
      </trkpt>
      <trkpt lat="48.81085" lon="-3.33509">
        <ele>67.2</ele>
        <time>2025-09-26T15:17:46Z</time>
      </trkpt>
      <trkpt lat="48.81085" lon="-3.33509">
        <ele>67.2</ele>
        <time>2025-09-26T15:17:56Z</time>
      </trkpt>
      <trkpt lat="48.81086" lon="-3.33508">
        <ele>67</ele>
        <time>2025-09-26T15:18:00Z</time>
      </trkpt>
      <trkpt lat="48.81086" lon="-3.33508">
        <ele>67</ele>
        <time>2025-09-26T15:18:02Z</time>
      </trkpt>
      <trkpt lat="48.81086" lon="-3.33508">
        <ele>66.8</ele>
        <time>2025-09-26T15:18:03Z</time>
      </trkpt>
      <trkpt lat="48.81086" lon="-3.33508">
        <ele>67.4</ele>
        <time>2025-09-26T15:18:16Z</time>
      </trkpt>
      <trkpt lat="48.81086" lon="-3.33508">
        <ele>67.4</ele>
        <time>2025-09-26T15:18:20Z</time>
      </trkpt>
      <trkpt lat="48.81086" lon="-3.33508">
        <ele>67.4</ele>
        <time>2025-09-26T15:18:22Z</time>
      </trkpt>
      <trkpt lat="48.81086" lon="-3.33508">
        <ele>67.4</ele>
        <time>2025-09-26T15:18:24Z</time>
      </trkpt>
      <trkpt lat="48.81086" lon="-3.33508">
        <ele>67.4</ele>
        <time>2025-09-26T15:18:27Z</time>
      </trkpt>
      <trkpt lat="48.81086" lon="-3.33508">
        <ele>67.4</ele>
        <time>2025-09-26T15:18:33Z</time>
      </trkpt>
      <trkpt lat="48.81086" lon="-3.33508">
        <ele>67.4</ele>
        <time>2025-09-26T15:18:34Z</time>
      </trkpt>
      <trkpt lat="48.81086" lon="-3.33508">
        <ele>67.4</ele>
        <time>2025-09-26T15:18:36Z</time>
      </trkpt>
      <trkpt lat="48.81086" lon="-3.33508">
        <ele>67.4</ele>
        <time>2025-09-26T15:18:37Z</time>
      </trkpt>
      <trkpt lat="48.81085" lon="-3.33508">
        <ele>67.4</ele>
        <time>2025-09-26T15:18:43Z</time>
      </trkpt>
      <trkpt lat="48.81085" lon="-3.33507">
        <ele>67.4</ele>
        <time>2025-09-26T15:18:49Z</time>
      </trkpt>
      <trkpt lat="48.81085" lon="-3.33503">
        <ele>67.4</ele>
        <time>2025-09-26T15:18:56Z</time>
      </trkpt>
      <trkpt lat="48.81086" lon="-3.33502">
        <ele>67.4</ele>
        <time>2025-09-26T15:19:03Z</time>
      </trkpt>
      <trkpt lat="48.81086" lon="-3.33502">
        <ele>67.4</ele>
        <time>2025-09-26T15:19:05Z</time>
      </trkpt>
      <trkpt lat="48.81086" lon="-3.33502">
        <ele>67.4</ele>
        <time>2025-09-26T15:19:07Z</time>
      </trkpt>
      <trkpt lat="48.81086" lon="-3.33502">
        <ele>67.4</ele>
        <time>2025-09-26T15:19:09Z</time>
      </trkpt>
      <trkpt lat="48.81086" lon="-3.33502">
        <ele>67.4</ele>
        <time>2025-09-26T15:19:10Z</time>
      </trkpt>
      <trkpt lat="48.81085" lon="-3.33503">
        <ele>67.4</ele>
        <time>2025-09-26T15:19:15Z</time>
      </trkpt>
      <trkpt lat="48.81086" lon="-3.33506">
        <ele>67.4</ele>
        <time>2025-09-26T15:19:21Z</time>
      </trkpt>
      <trkpt lat="48.81087" lon="-3.33507">
        <ele>67.4</ele>
        <time>2025-09-26T15:19:27Z</time>
      </trkpt>
      <trkpt lat="48.81087" lon="-3.33507">
        <ele>67.4</ele>
        <time>2025-09-26T15:19:32Z</time>
      </trkpt>
      <trkpt lat="48.81087" lon="-3.33507">
        <ele>67.4</ele>
        <time>2025-09-26T15:19:35Z</time>
      </trkpt>
      <trkpt lat="48.81087" lon="-3.33507">
        <ele>67.4</ele>
        <time>2025-09-26T15:19:36Z</time>
      </trkpt>
      <trkpt lat="48.81087" lon="-3.33507">
        <ele>67.4</ele>
        <time>2025-09-26T15:19:37Z</time>
      </trkpt>
      <trkpt lat="48.81087" lon="-3.33506">
        <ele>67.4</ele>
        <time>2025-09-26T15:19:38Z</time>
      </trkpt>
      <trkpt lat="48.81087" lon="-3.33506">
        <ele>67.4</ele>
        <time>2025-09-26T15:19:41Z</time>
      </trkpt>
      <trkpt lat="48.81086" lon="-3.33503">
        <ele>67.4</ele>
        <time>2025-09-26T15:19:51Z</time>
      </trkpt>
      <trkpt lat="48.81086" lon="-3.33503">
        <ele>67.4</ele>
        <time>2025-09-26T15:19:57Z</time>
      </trkpt>
      <trkpt lat="48.81086" lon="-3.33503">
        <ele>67.4</ele>
        <time>2025-09-26T15:20:05Z</time>
      </trkpt>
      <trkpt lat="48.81085" lon="-3.33502">
        <ele>67.4</ele>
        <time>2025-09-26T15:20:11Z</time>
      </trkpt>
      <trkpt lat="48.81085" lon="-3.33502">
        <ele>67.4</ele>
        <time>2025-09-26T15:20:14Z</time>
      </trkpt>
      <trkpt lat="48.81085" lon="-3.33506">
        <ele>67.4</ele>
        <time>2025-09-26T15:20:19Z</time>
      </trkpt>
      <trkpt lat="48.81086" lon="-3.33506">
        <ele>67.4</ele>
        <time>2025-09-26T15:20:26Z</time>
      </trkpt>
      <trkpt lat="48.81086" lon="-3.33505">
        <ele>67.4</ele>
        <time>2025-09-26T15:20:29Z</time>
      </trkpt>
      <trkpt lat="48.81087" lon="-3.33505">
        <ele>67.4</ele>
        <time>2025-09-26T15:20:31Z</time>
      </trkpt>
      <trkpt lat="48.81086" lon="-3.33504">
        <ele>67.4</ele>
        <time>2025-09-26T15:20:34Z</time>
      </trkpt>
      <trkpt lat="48.81086" lon="-3.33505">
        <ele>67.4</ele>
        <time>2025-09-26T15:20:39Z</time>
      </trkpt>
      <trkpt lat="48.81086" lon="-3.33505">
        <ele>67.4</ele>
        <time>2025-09-26T15:20:41Z</time>
      </trkpt>
      <trkpt lat="48.81086" lon="-3.33505">
        <ele>67.4</ele>
        <time>2025-09-26T15:20:52Z</time>
      </trkpt>
      <trkpt lat="48.81086" lon="-3.33505">
        <ele>67.4</ele>
        <time>2025-09-26T15:20:57Z</time>
      </trkpt>
      <trkpt lat="48.81086" lon="-3.33505">
        <ele>67.4</ele>
        <time>2025-09-26T15:21:02Z</time>
      </trkpt>
      <trkpt lat="48.81086" lon="-3.33505">
        <ele>67.4</ele>
        <time>2025-09-26T15:21:04Z</time>
      </trkpt>
      <trkpt lat="48.81086" lon="-3.33505">
        <ele>67.4</ele>
        <time>2025-09-26T15:21:05Z</time>
      </trkpt>
      <trkpt lat="48.81086" lon="-3.33505">
        <ele>67.4</ele>
        <time>2025-09-26T15:21:06Z</time>
      </trkpt>
      <trkpt lat="48.81086" lon="-3.33505">
        <ele>67.4</ele>
        <time>2025-09-26T15:21:13Z</time>
      </trkpt>
      <trkpt lat="48.81086" lon="-3.33505">
        <ele>67.4</ele>
        <time>2025-09-26T15:21:15Z</time>
      </trkpt>
      <trkpt lat="48.81085" lon="-3.33504">
        <ele>67.4</ele>
        <time>2025-09-26T15:21:18Z</time>
      </trkpt>
      <trkpt lat="48.81085" lon="-3.33504">
        <ele>67.4</ele>
        <time>2025-09-26T15:21:21Z</time>
      </trkpt>
      <trkpt lat="48.81085" lon="-3.33502">
        <ele>67.4</ele>
        <time>2025-09-26T15:21:30Z</time>
      </trkpt>
      <trkpt lat="48.81085" lon="-3.33502">
        <ele>67.4</ele>
        <time>2025-09-26T15:21:42Z</time>
      </trkpt>
      <trkpt lat="48.81085" lon="-3.33501">
        <ele>67.4</ele>
        <time>2025-09-26T15:21:44Z</time>
      </trkpt>
      <trkpt lat="48.81085" lon="-3.335">
        <ele>67.4</ele>
        <time>2025-09-26T15:21:47Z</time>
      </trkpt>
      <trkpt lat="48.81085" lon="-3.335">
        <ele>67.4</ele>
        <time>2025-09-26T15:21:53Z</time>
      </trkpt>
      <trkpt lat="48.81085" lon="-3.33501">
        <ele>67.4</ele>
        <time>2025-09-26T15:21:55Z</time>
      </trkpt>
      <trkpt lat="48.81085" lon="-3.33501">
        <ele>67.4</ele>
        <time>2025-09-26T15:21:57Z</time>
      </trkpt>
      <trkpt lat="48.81085" lon="-3.33501">
        <ele>67.4</ele>
        <time>2025-09-26T15:21:59Z</time>
      </trkpt>
      <trkpt lat="48.81085" lon="-3.33501">
        <ele>67.4</ele>
        <time>2025-09-26T15:22:06Z</time>
      </trkpt>
      <trkpt lat="48.81085" lon="-3.33501">
        <ele>67.4</ele>
        <time>2025-09-26T15:22:10Z</time>
      </trkpt>
      <trkpt lat="48.81085" lon="-3.33501">
        <ele>67.4</ele>
        <time>2025-09-26T15:22:12Z</time>
      </trkpt>
      <trkpt lat="48.81085" lon="-3.33501">
        <ele>67.4</ele>
        <time>2025-09-26T15:22:15Z</time>
      </trkpt>
      <trkpt lat="48.81086" lon="-3.33501">
        <ele>67.4</ele>
        <time>2025-09-26T15:22:26Z</time>
      </trkpt>
      <trkpt lat="48.81086" lon="-3.335">
        <ele>67.4</ele>
        <time>2025-09-26T15:22:34Z</time>
      </trkpt>
      <trkpt lat="48.81086" lon="-3.335">
        <ele>67.4</ele>
        <time>2025-09-26T15:22:39Z</time>
      </trkpt>
      <trkpt lat="48.81086" lon="-3.335">
        <ele>67.4</ele>
        <time>2025-09-26T15:22:43Z</time>
      </trkpt>
      <trkpt lat="48.81086" lon="-3.335">
        <ele>67.4</ele>
        <time>2025-09-26T15:22:51Z</time>
      </trkpt>
      <trkpt lat="48.81085" lon="-3.33499">
        <ele>67.4</ele>
        <time>2025-09-26T15:22:56Z</time>
      </trkpt>
      <trkpt lat="48.81085" lon="-3.33499">
        <ele>67.4</ele>
        <time>2025-09-26T15:23:12Z</time>
      </trkpt>
      <trkpt lat="48.81085" lon="-3.33499">
        <ele>67.4</ele>
        <time>2025-09-26T15:23:13Z</time>
      </trkpt>
      <trkpt lat="48.81085" lon="-3.33499">
        <ele>67.4</ele>
        <time>2025-09-26T15:23:14Z</time>
      </trkpt>
      <trkpt lat="48.81085" lon="-3.33499">
        <ele>67.4</ele>
        <time>2025-09-26T15:24:31Z</time>
      </trkpt>
      <trkpt lat="48.81085" lon="-3.33499">
        <ele>67.4</ele>
        <time>2025-09-26T15:26:46Z</time>
      </trkpt>
      <trkpt lat="48.81085" lon="-3.33499">
        <ele>67.4</ele>
        <time>2025-09-26T15:27:28Z</time>
      </trkpt>
      <trkpt lat="48.81085" lon="-3.33499">
        <ele>67.4</ele>
        <time>2025-09-26T15:27:43Z</time>
      </trkpt>
      <trkpt lat="48.81085" lon="-3.33499">
        <ele>67.4</ele>
        <time>2025-09-26T15:28:11Z</time>
      </trkpt>
      <trkpt lat="48.81085" lon="-3.33499">
        <ele>67.4</ele>
        <time>2025-09-26T15:28:59Z</time>
      </trkpt>
      <trkpt lat="48.81085" lon="-3.33499">
        <ele>67.4</ele>
        <time>2025-09-26T15:29:04Z</time>
      </trkpt>
      <trkpt lat="48.81085" lon="-3.33499">
        <ele>67.4</ele>
        <time>2025-09-26T15:29:14Z</time>
      </trkpt>
      <trkpt lat="48.81085" lon="-3.33499">
        <ele>67.4</ele>
        <time>2025-09-26T15:29:26Z</time>
      </trkpt>
      <trkpt lat="48.81085" lon="-3.33499">
        <ele>67.4</ele>
        <time>2025-09-26T15:29:41Z</time>
      </trkpt>
      <trkpt lat="48.81085" lon="-3.33499">
        <ele>67.4</ele>
        <time>2025-09-26T15:30:13Z</time>
      </trkpt>
      <trkpt lat="48.81085" lon="-3.33499">
        <ele>67.4</ele>
        <time>2025-09-26T15:30:27Z</time>
      </trkpt>
      <trkpt lat="48.81085" lon="-3.33499">
        <ele>67.4</ele>
        <time>2025-09-26T15:30:48Z</time>
      </trkpt>
      <trkpt lat="48.81085" lon="-3.33499">
        <ele>67.4</ele>
        <time>2025-09-26T15:31:30Z</time>
      </trkpt>
      <trkpt lat="48.81084" lon="-3.33499">
        <ele>67.4</ele>
        <time>2025-09-26T15:31:36Z</time>
      </trkpt>
      <trkpt lat="48.81084" lon="-3.33499">
        <ele>67.4</ele>
        <time>2025-09-26T15:31:42Z</time>
      </trkpt>
      <trkpt lat="48.81084" lon="-3.33499">
        <ele>67.4</ele>
        <time>2025-09-26T15:31:44Z</time>
      </trkpt>
      <trkpt lat="48.81084" lon="-3.33499">
        <ele>67.4</ele>
        <time>2025-09-26T15:31:50Z</time>
      </trkpt>
      <trkpt lat="48.81084" lon="-3.33499">
        <ele>67.4</ele>
        <time>2025-09-26T15:31:56Z</time>
      </trkpt>
      <trkpt lat="48.81083" lon="-3.33498">
        <ele>67.4</ele>
        <time>2025-09-26T15:32:02Z</time>
      </trkpt>
      <trkpt lat="48.81083" lon="-3.33498">
        <ele>67.4</ele>
        <time>2025-09-26T15:32:03Z</time>
      </trkpt>
      <trkpt lat="48.81083" lon="-3.33498">
        <ele>67.4</ele>
        <time>2025-09-26T15:32:10Z</time>
      </trkpt>
      <trkpt lat="48.81083" lon="-3.33498">
        <ele>67.4</ele>
        <time>2025-09-26T15:32:20Z</time>
      </trkpt>
      <trkpt lat="48.81083" lon="-3.33498">
        <ele>67.4</ele>
        <time>2025-09-26T15:32:23Z</time>
      </trkpt>
      <trkpt lat="48.81083" lon="-3.33498">
        <ele>67.4</ele>
        <time>2025-09-26T15:32:34Z</time>
      </trkpt>
      <trkpt lat="48.81084" lon="-3.33499">
        <ele>67.4</ele>
        <time>2025-09-26T15:32:42Z</time>
      </trkpt>
      <trkpt lat="48.81084" lon="-3.335">
        <ele>67.4</ele>
        <time>2025-09-26T15:32:49Z</time>
      </trkpt>
      <trkpt lat="48.81084" lon="-3.33499">
        <ele>67.4</ele>
        <time>2025-09-26T15:32:55Z</time>
      </trkpt>
      <trkpt lat="48.81083" lon="-3.33499">
        <ele>67.4</ele>
        <time>2025-09-26T15:33:03Z</time>
      </trkpt>
      <trkpt lat="48.81083" lon="-3.33499">
        <ele>67.4</ele>
        <time>2025-09-26T15:33:11Z</time>
      </trkpt>
      <trkpt lat="48.81084" lon="-3.335">
        <ele>67.4</ele>
        <time>2025-09-26T15:33:19Z</time>
      </trkpt>
      <trkpt lat="48.81084" lon="-3.335">
        <ele>67.4</ele>
        <time>2025-09-26T15:33:25Z</time>
      </trkpt>
      <trkpt lat="48.81084" lon="-3.335">
        <ele>67.4</ele>
        <time>2025-09-26T15:33:27Z</time>
      </trkpt>
      <trkpt lat="48.81084" lon="-3.335">
        <ele>67.4</ele>
        <time>2025-09-26T15:33:31Z</time>
      </trkpt>
      <trkpt lat="48.81083" lon="-3.335">
        <ele>67.4</ele>
        <time>2025-09-26T15:33:33Z</time>
      </trkpt>
      <trkpt lat="48.81082" lon="-3.33499">
        <ele>67.4</ele>
        <time>2025-09-26T15:33:36Z</time>
      </trkpt>
      <trkpt lat="48.81081" lon="-3.335">
        <ele>67.4</ele>
        <time>2025-09-26T15:33:43Z</time>
      </trkpt>
      <trkpt lat="48.81081" lon="-3.335">
        <ele>67.4</ele>
        <time>2025-09-26T15:33:47Z</time>
      </trkpt>
      <trkpt lat="48.81081" lon="-3.33502">
        <ele>67.4</ele>
        <time>2025-09-26T15:33:53Z</time>
      </trkpt>
      <trkpt lat="48.81083" lon="-3.33503">
        <ele>67.4</ele>
        <time>2025-09-26T15:33:59Z</time>
      </trkpt>
      <trkpt lat="48.81083" lon="-3.33503">
        <ele>67.4</ele>
        <time>2025-09-26T15:34:06Z</time>
      </trkpt>
      <trkpt lat="48.81083" lon="-3.33503">
        <ele>67.4</ele>
        <time>2025-09-26T15:34:08Z</time>
      </trkpt>
      <trkpt lat="48.81083" lon="-3.33503">
        <ele>67.4</ele>
        <time>2025-09-26T15:34:09Z</time>
      </trkpt>
      <trkpt lat="48.81083" lon="-3.33503">
        <ele>67.4</ele>
        <time>2025-09-26T15:34:10Z</time>
      </trkpt>
      <trkpt lat="48.81083" lon="-3.33503">
        <ele>67.4</ele>
        <time>2025-09-26T15:34:15Z</time>
      </trkpt>
      <trkpt lat="48.81083" lon="-3.33503">
        <ele>67.4</ele>
        <time>2025-09-26T15:34:20Z</time>
      </trkpt>
      <trkpt lat="48.81083" lon="-3.33503">
        <ele>67.4</ele>
        <time>2025-09-26T15:34:37Z</time>
      </trkpt>
      <trkpt lat="48.81082" lon="-3.335">
        <ele>67.4</ele>
        <time>2025-09-26T15:34:43Z</time>
      </trkpt>
      <trkpt lat="48.81082" lon="-3.335">
        <ele>67.4</ele>
        <time>2025-09-26T15:34:52Z</time>
      </trkpt>
      <trkpt lat="48.81082" lon="-3.335">
        <ele>67.4</ele>
        <time>2025-09-26T15:34:56Z</time>
      </trkpt>
      <trkpt lat="48.81083" lon="-3.335">
        <ele>67.4</ele>
        <time>2025-09-26T15:35:03Z</time>
      </trkpt>
      <trkpt lat="48.81083" lon="-3.335">
        <ele>67.4</ele>
        <time>2025-09-26T15:35:04Z</time>
      </trkpt>
      <trkpt lat="48.81083" lon="-3.335">
        <ele>67.4</ele>
        <time>2025-09-26T15:35:05Z</time>
      </trkpt>
      <trkpt lat="48.81083" lon="-3.335">
        <ele>67.4</ele>
        <time>2025-09-26T15:35:08Z</time>
      </trkpt>
      <trkpt lat="48.81082" lon="-3.335">
        <ele>67.4</ele>
        <time>2025-09-26T15:35:12Z</time>
      </trkpt>
      <trkpt lat="48.81082" lon="-3.33501">
        <ele>67.4</ele>
        <time>2025-09-26T15:35:13Z</time>
      </trkpt>
      <trkpt lat="48.81082" lon="-3.33501">
        <ele>67.4</ele>
        <time>2025-09-26T15:35:14Z</time>
      </trkpt>
      <trkpt lat="48.81082" lon="-3.33501">
        <ele>67.4</ele>
        <time>2025-09-26T15:35:22Z</time>
      </trkpt>
      <trkpt lat="48.81082" lon="-3.33501">
        <ele>67.4</ele>
        <time>2025-09-26T15:35:33Z</time>
      </trkpt>
      <trkpt lat="48.81082" lon="-3.33501">
        <ele>67.4</ele>
        <time>2025-09-26T15:35:41Z</time>
      </trkpt>
      <trkpt lat="48.81082" lon="-3.33501">
        <ele>67.4</ele>
        <time>2025-09-26T15:35:46Z</time>
      </trkpt>
      <trkpt lat="48.81082" lon="-3.33501">
        <ele>67.4</ele>
        <time>2025-09-26T15:35:50Z</time>
      </trkpt>
      <trkpt lat="48.81082" lon="-3.33501">
        <ele>67.4</ele>
        <time>2025-09-26T15:36:01Z</time>
      </trkpt>
      <trkpt lat="48.81082" lon="-3.33501">
        <ele>67.4</ele>
        <time>2025-09-26T15:36:09Z</time>
      </trkpt>
      <trkpt lat="48.81082" lon="-3.33501">
        <ele>67.4</ele>
        <time>2025-09-26T15:36:11Z</time>
      </trkpt>
      <trkpt lat="48.81082" lon="-3.33501">
        <ele>67.4</ele>
        <time>2025-09-26T15:36:14Z</time>
      </trkpt>
      <trkpt lat="48.81082" lon="-3.33501">
        <ele>67.4</ele>
        <time>2025-09-26T15:36:21Z</time>
      </trkpt>
      <trkpt lat="48.81082" lon="-3.33502">
        <ele>67.4</ele>
        <time>2025-09-26T15:36:32Z</time>
      </trkpt>
      <trkpt lat="48.81082" lon="-3.33502">
        <ele>67.4</ele>
        <time>2025-09-26T15:36:38Z</time>
      </trkpt>
      <trkpt lat="48.81082" lon="-3.33502">
        <ele>67.4</ele>
        <time>2025-09-26T15:36:42Z</time>
      </trkpt>
      <trkpt lat="48.81082" lon="-3.33504">
        <ele>67.4</ele>
        <time>2025-09-26T15:36:50Z</time>
      </trkpt>
      <trkpt lat="48.81082" lon="-3.33504">
        <ele>67.4</ele>
        <time>2025-09-26T15:36:53Z</time>
      </trkpt>
      <trkpt lat="48.81082" lon="-3.33504">
        <ele>67.4</ele>
        <time>2025-09-26T15:36:54Z</time>
      </trkpt>
      <trkpt lat="48.81082" lon="-3.33504">
        <ele>67.4</ele>
        <time>2025-09-26T15:37:00Z</time>
      </trkpt>
      <trkpt lat="48.81083" lon="-3.33504">
        <ele>67.4</ele>
        <time>2025-09-26T15:37:12Z</time>
      </trkpt>
      <trkpt lat="48.81083" lon="-3.33504">
        <ele>67.4</ele>
        <time>2025-09-26T15:37:16Z</time>
      </trkpt>
      <trkpt lat="48.81083" lon="-3.33504">
        <ele>67.4</ele>
        <time>2025-09-26T15:37:22Z</time>
      </trkpt>
      <trkpt lat="48.81083" lon="-3.33504">
        <ele>67.4</ele>
        <time>2025-09-26T15:37:33Z</time>
      </trkpt>
      <trkpt lat="48.81083" lon="-3.33504">
        <ele>67.4</ele>
        <time>2025-09-26T15:37:46Z</time>
      </trkpt>
      <trkpt lat="48.81083" lon="-3.33504">
        <ele>67.4</ele>
        <time>2025-09-26T15:37:55Z</time>
      </trkpt>
      <trkpt lat="48.81082" lon="-3.33504">
        <ele>67.4</ele>
        <time>2025-09-26T15:38:00Z</time>
      </trkpt>
      <trkpt lat="48.81082" lon="-3.33504">
        <ele>67.4</ele>
        <time>2025-09-26T15:38:01Z</time>
      </trkpt>
      <trkpt lat="48.81082" lon="-3.33506">
        <ele>67.4</ele>
        <time>2025-09-26T15:38:05Z</time>
      </trkpt>
      <trkpt lat="48.81082" lon="-3.33506">
        <ele>67.4</ele>
        <time>2025-09-26T15:38:07Z</time>
      </trkpt>
      <trkpt lat="48.81082" lon="-3.33507">
        <ele>67.4</ele>
        <time>2025-09-26T15:38:08Z</time>
      </trkpt>
      <trkpt lat="48.81082" lon="-3.33507">
        <ele>67.4</ele>
        <time>2025-09-26T15:38:10Z</time>
      </trkpt>
      <trkpt lat="48.81083" lon="-3.33507">
        <ele>67.4</ele>
        <time>2025-09-26T15:38:12Z</time>
      </trkpt>
      <trkpt lat="48.81083" lon="-3.33507">
        <ele>67.4</ele>
        <time>2025-09-26T15:38:18Z</time>
      </trkpt>
      <trkpt lat="48.81084" lon="-3.33506">
        <ele>67.4</ele>
        <time>2025-09-26T15:38:22Z</time>
      </trkpt>
      <trkpt lat="48.81084" lon="-3.33506">
        <ele>67.4</ele>
        <time>2025-09-26T15:38:24Z</time>
      </trkpt>
      <trkpt lat="48.81084" lon="-3.33506">
        <ele>67.4</ele>
        <time>2025-09-26T15:38:31Z</time>
      </trkpt>
      <trkpt lat="48.81086" lon="-3.3351">
        <ele>67.4</ele>
        <time>2025-09-26T15:38:41Z</time>
      </trkpt>
      <trkpt lat="48.81086" lon="-3.3351">
        <ele>67.4</ele>
        <time>2025-09-26T15:38:47Z</time>
      </trkpt>
      <trkpt lat="48.81086" lon="-3.3351">
        <ele>67.4</ele>
        <time>2025-09-26T15:39:02Z</time>
      </trkpt>
      <trkpt lat="48.81086" lon="-3.3351">
        <ele>67.4</ele>
        <time>2025-09-26T15:39:04Z</time>
      </trkpt>
      <trkpt lat="48.81085" lon="-3.3351">
        <ele>67.4</ele>
        <time>2025-09-26T15:39:05Z</time>
      </trkpt>
      <trkpt lat="48.81086" lon="-3.3351">
        <ele>67.4</ele>
        <time>2025-09-26T15:39:09Z</time>
      </trkpt>
      <trkpt lat="48.81086" lon="-3.3351">
        <ele>67.4</ele>
        <time>2025-09-26T15:39:13Z</time>
      </trkpt>
      <trkpt lat="48.81087" lon="-3.33511">
        <ele>67.4</ele>
        <time>2025-09-26T15:39:17Z</time>
      </trkpt>
      <trkpt lat="48.81087" lon="-3.33512">
        <ele>67.4</ele>
        <time>2025-09-26T15:39:26Z</time>
      </trkpt>
      <trkpt lat="48.81087" lon="-3.33514">
        <ele>67.4</ele>
        <time>2025-09-26T15:39:37Z</time>
      </trkpt>
      <trkpt lat="48.81087" lon="-3.33517">
        <ele>67.4</ele>
        <time>2025-09-26T15:39:43Z</time>
      </trkpt>
      <trkpt lat="48.81088" lon="-3.33523">
        <ele>67.8</ele>
        <time>2025-09-26T15:39:45Z</time>
      </trkpt>
      <trkpt lat="48.8109" lon="-3.33535">
        <ele>67.8</ele>
        <time>2025-09-26T15:39:50Z</time>
      </trkpt>
      <trkpt lat="48.81091" lon="-3.33536">
        <ele>67.8</ele>
        <time>2025-09-26T15:39:51Z</time>
      </trkpt>
      <trkpt lat="48.81093" lon="-3.33538">
        <ele>67.8</ele>
        <time>2025-09-26T15:39:53Z</time>
      </trkpt>
      <trkpt lat="48.81093" lon="-3.33539">
        <ele>67.8</ele>
        <time>2025-09-26T15:39:54Z</time>
      </trkpt>
      <trkpt lat="48.81094" lon="-3.33539">
        <ele>67.6</ele>
        <time>2025-09-26T15:39:58Z</time>
      </trkpt>
      <trkpt lat="48.81094" lon="-3.33539">
        <ele>67.8</ele>
        <time>2025-09-26T15:40:00Z</time>
      </trkpt>
      <trkpt lat="48.81094" lon="-3.33539">
        <ele>67.8</ele>
        <time>2025-09-26T15:40:01Z</time>
      </trkpt>
      <trkpt lat="48.81094" lon="-3.33539">
        <ele>67.8</ele>
        <time>2025-09-26T15:40:03Z</time>
      </trkpt>
      <trkpt lat="48.81094" lon="-3.33539">
        <ele>67.8</ele>
        <time>2025-09-26T15:40:04Z</time>
      </trkpt>
      <trkpt lat="48.81094" lon="-3.33539">
        <ele>67.8</ele>
        <time>2025-09-26T15:40:06Z</time>
      </trkpt>
      <trkpt lat="48.81094" lon="-3.33539">
        <ele>67.8</ele>
        <time>2025-09-26T15:40:07Z</time>
      </trkpt>
      <trkpt lat="48.81094" lon="-3.33539">
        <ele>67.8</ele>
        <time>2025-09-26T15:40:13Z</time>
      </trkpt>
      <trkpt lat="48.81094" lon="-3.3354">
        <ele>68</ele>
        <time>2025-09-26T15:40:28Z</time>
      </trkpt>
      <trkpt lat="48.81096" lon="-3.33549">
        <ele>67.8</ele>
        <time>2025-09-26T15:40:32Z</time>
      </trkpt>
      <trkpt lat="48.811" lon="-3.33569">
        <ele>67</ele>
        <time>2025-09-26T15:40:38Z</time>
      </trkpt>
      <trkpt lat="48.81094" lon="-3.33593">
        <ele>67.2</ele>
        <time>2025-09-26T15:40:44Z</time>
      </trkpt>
      <trkpt lat="48.81085" lon="-3.33614">
        <ele>66.6</ele>
        <time>2025-09-26T15:40:49Z</time>
      </trkpt>
      <trkpt lat="48.81085" lon="-3.33618">
        <ele>66.4</ele>
        <time>2025-09-26T15:40:50Z</time>
      </trkpt>
      <trkpt lat="48.81088" lon="-3.33623">
        <ele>66.2</ele>
        <time>2025-09-26T15:40:52Z</time>
      </trkpt>
      <trkpt lat="48.81096" lon="-3.33618">
        <ele>66.4</ele>
        <time>2025-09-26T15:40:55Z</time>
      </trkpt>
      <trkpt lat="48.81112" lon="-3.33598">
        <ele>66.4</ele>
        <time>2025-09-26T15:41:00Z</time>
      </trkpt>
      <trkpt lat="48.81136" lon="-3.33578">
        <ele>66.8</ele>
        <time>2025-09-26T15:41:06Z</time>
      </trkpt>
      <trkpt lat="48.8114" lon="-3.33575">
        <ele>66.8</ele>
        <time>2025-09-26T15:41:07Z</time>
      </trkpt>
      <trkpt lat="48.81154" lon="-3.33569">
        <ele>67</ele>
        <time>2025-09-26T15:41:10Z</time>
      </trkpt>
      <trkpt lat="48.81174" lon="-3.33565">
        <ele>67</ele>
        <time>2025-09-26T15:41:14Z</time>
      </trkpt>
      <trkpt lat="48.81225" lon="-3.33555">
        <ele>66.6</ele>
        <time>2025-09-26T15:41:25Z</time>
      </trkpt>
      <trkpt lat="48.81254" lon="-3.33548">
        <ele>66.2</ele>
        <time>2025-09-26T15:41:31Z</time>
      </trkpt>
      <trkpt lat="48.81263" lon="-3.33541">
        <ele>66</ele>
        <time>2025-09-26T15:41:33Z</time>
      </trkpt>
      <trkpt lat="48.81267" lon="-3.33536">
        <ele>65.8</ele>
        <time>2025-09-26T15:41:34Z</time>
      </trkpt>
      <trkpt lat="48.8127" lon="-3.33531">
        <ele>65.8</ele>
        <time>2025-09-26T15:41:35Z</time>
      </trkpt>
      <trkpt lat="48.81274" lon="-3.33521">
        <ele>65.8</ele>
        <time>2025-09-26T15:41:37Z</time>
      </trkpt>
      <trkpt lat="48.8128" lon="-3.33505">
        <ele>65.8</ele>
        <time>2025-09-26T15:41:41Z</time>
      </trkpt>
      <trkpt lat="48.81281" lon="-3.33503">
        <ele>65.8</ele>
        <time>2025-09-26T15:41:42Z</time>
      </trkpt>
      <trkpt lat="48.81282" lon="-3.33502">
        <ele>65.8</ele>
        <time>2025-09-26T15:41:43Z</time>
      </trkpt>
      <trkpt lat="48.81289" lon="-3.33481">
        <ele>66.4</ele>
        <time>2025-09-26T15:41:48Z</time>
      </trkpt>
      <trkpt lat="48.81291" lon="-3.33475">
        <ele>66.4</ele>
        <time>2025-09-26T15:41:49Z</time>
      </trkpt>
      <trkpt lat="48.81292" lon="-3.33462">
        <ele>67.2</ele>
        <time>2025-09-26T15:41:51Z</time>
      </trkpt>
      <trkpt lat="48.81294" lon="-3.33442">
        <ele>68.2</ele>
        <time>2025-09-26T15:41:54Z</time>
      </trkpt>
      <trkpt lat="48.81294" lon="-3.33435">
        <ele>68.8</ele>
        <time>2025-09-26T15:41:55Z</time>
      </trkpt>
      <trkpt lat="48.81294" lon="-3.3342">
        <ele>69.4</ele>
        <time>2025-09-26T15:41:57Z</time>
      </trkpt>
      <trkpt lat="48.81293" lon="-3.3339">
        <ele>69.8</ele>
        <time>2025-09-26T15:42:01Z</time>
      </trkpt>
      <trkpt lat="48.81293" lon="-3.33382">
        <ele>70</ele>
        <time>2025-09-26T15:42:02Z</time>
      </trkpt>
      <trkpt lat="48.81289" lon="-3.33361">
        <ele>70.2</ele>
        <time>2025-09-26T15:42:05Z</time>
      </trkpt>
      <trkpt lat="48.81287" lon="-3.33355">
        <ele>70.4</ele>
        <time>2025-09-26T15:42:06Z</time>
      </trkpt>
      <trkpt lat="48.81284" lon="-3.3335">
        <ele>70.6</ele>
        <time>2025-09-26T15:42:07Z</time>
      </trkpt>
      <trkpt lat="48.81274" lon="-3.33338">
        <ele>71.6</ele>
        <time>2025-09-26T15:42:10Z</time>
      </trkpt>
      <trkpt lat="48.81268" lon="-3.33327">
        <ele>72</ele>
        <time>2025-09-26T15:42:12Z</time>
      </trkpt>
      <trkpt lat="48.81267" lon="-3.33299">
        <ele>72.4</ele>
        <time>2025-09-26T15:42:16Z</time>
      </trkpt>
      <trkpt lat="48.81267" lon="-3.33236">
        <ele>72.6</ele>
        <time>2025-09-26T15:42:24Z</time>
      </trkpt>
      <trkpt lat="48.81265" lon="-3.33205">
        <ele>72.6</ele>
        <time>2025-09-26T15:42:28Z</time>
      </trkpt>
      <trkpt lat="48.81261" lon="-3.33165">
        <ele>72.6</ele>
        <time>2025-09-26T15:42:33Z</time>
      </trkpt>
      <trkpt lat="48.81263" lon="-3.33116">
        <ele>72.6</ele>
        <time>2025-09-26T15:42:39Z</time>
      </trkpt>
      <trkpt lat="48.81263" lon="-3.33108">
        <ele>72.6</ele>
        <time>2025-09-26T15:42:40Z</time>
      </trkpt>
      <trkpt lat="48.81265" lon="-3.33091">
        <ele>72.6</ele>
        <time>2025-09-26T15:42:42Z</time>
      </trkpt>
      <trkpt lat="48.81265" lon="-3.33082">
        <ele>72.6</ele>
        <time>2025-09-26T15:42:43Z</time>
      </trkpt>
      <trkpt lat="48.81268" lon="-3.33057">
        <ele>72.8</ele>
        <time>2025-09-26T15:42:46Z</time>
      </trkpt>
      <trkpt lat="48.81271" lon="-3.33023">
        <ele>72.6</ele>
        <time>2025-09-26T15:42:50Z</time>
      </trkpt>
      <trkpt lat="48.8128" lon="-3.32935">
        <ele>71.8</ele>
        <time>2025-09-26T15:43:00Z</time>
      </trkpt>
      <trkpt lat="48.81279" lon="-3.32918">
        <ele>71.8</ele>
        <time>2025-09-26T15:43:02Z</time>
      </trkpt>
      <trkpt lat="48.81278" lon="-3.32909">
        <ele>71.6</ele>
        <time>2025-09-26T15:43:03Z</time>
      </trkpt>
      <trkpt lat="48.81277" lon="-3.329">
        <ele>71.4</ele>
        <time>2025-09-26T15:43:04Z</time>
      </trkpt>
      <trkpt lat="48.81275" lon="-3.32891">
        <ele>71.6</ele>
        <time>2025-09-26T15:43:05Z</time>
      </trkpt>
      <trkpt lat="48.81267" lon="-3.3283">
        <ele>71.6</ele>
        <time>2025-09-26T15:43:12Z</time>
      </trkpt>
      <trkpt lat="48.81272" lon="-3.3277">
        <ele>72</ele>
        <time>2025-09-26T15:43:19Z</time>
      </trkpt>
      <trkpt lat="48.81282" lon="-3.3272">
        <ele>72.4</ele>
        <time>2025-09-26T15:43:25Z</time>
      </trkpt>
      <trkpt lat="48.81286" lon="-3.32703">
        <ele>72.4</ele>
        <time>2025-09-26T15:43:27Z</time>
      </trkpt>
      <trkpt lat="48.8129" lon="-3.32687">
        <ele>72.4</ele>
        <time>2025-09-26T15:43:29Z</time>
      </trkpt>
      <trkpt lat="48.81291" lon="-3.32678">
        <ele>72.6</ele>
        <time>2025-09-26T15:43:30Z</time>
      </trkpt>
      <trkpt lat="48.81292" lon="-3.32661">
        <ele>72.4</ele>
        <time>2025-09-26T15:43:32Z</time>
      </trkpt>
      <trkpt lat="48.81293" lon="-3.32636">
        <ele>72.6</ele>
        <time>2025-09-26T15:43:35Z</time>
      </trkpt>
      <trkpt lat="48.81291" lon="-3.32577">
        <ele>73</ele>
        <time>2025-09-26T15:43:42Z</time>
      </trkpt>
      <trkpt lat="48.81283" lon="-3.32496">
        <ele>73</ele>
        <time>2025-09-26T15:43:52Z</time>
      </trkpt>
      <trkpt lat="48.81276" lon="-3.32444">
        <ele>73.4</ele>
        <time>2025-09-26T15:43:59Z</time>
      </trkpt>
      <trkpt lat="48.81272" lon="-3.32413">
        <ele>73.4</ele>
        <time>2025-09-26T15:44:03Z</time>
      </trkpt>
      <trkpt lat="48.81267" lon="-3.32368">
        <ele>73.6</ele>
        <time>2025-09-26T15:44:09Z</time>
      </trkpt>
      <trkpt lat="48.81264" lon="-3.32338">
        <ele>73.6</ele>
        <time>2025-09-26T15:44:13Z</time>
      </trkpt>
      <trkpt lat="48.81255" lon="-3.32256">
        <ele>73.4</ele>
        <time>2025-09-26T15:44:23Z</time>
      </trkpt>
      <trkpt lat="48.81244" lon="-3.32173">
        <ele>72.8</ele>
        <time>2025-09-26T15:44:33Z</time>
      </trkpt>
      <trkpt lat="48.81242" lon="-3.32155">
        <ele>72.6</ele>
        <time>2025-09-26T15:44:35Z</time>
      </trkpt>
      <trkpt lat="48.81236" lon="-3.3211">
        <ele>72.2</ele>
        <time>2025-09-26T15:44:40Z</time>
      </trkpt>
      <trkpt lat="48.81232" lon="-3.32092">
        <ele>72.2</ele>
        <time>2025-09-26T15:44:42Z</time>
      </trkpt>
      <trkpt lat="48.81224" lon="-3.32077">
        <ele>72</ele>
        <time>2025-09-26T15:44:44Z</time>
      </trkpt>
      <trkpt lat="48.81215" lon="-3.32064">
        <ele>72</ele>
        <time>2025-09-26T15:44:46Z</time>
      </trkpt>
      <trkpt lat="48.81206" lon="-3.32054">
        <ele>72</ele>
        <time>2025-09-26T15:44:48Z</time>
      </trkpt>
      <trkpt lat="48.81195" lon="-3.32048">
        <ele>72.2</ele>
        <time>2025-09-26T15:44:50Z</time>
      </trkpt>
      <trkpt lat="48.81179" lon="-3.32043">
        <ele>72.4</ele>
        <time>2025-09-26T15:44:53Z</time>
      </trkpt>
      <trkpt lat="48.81162" lon="-3.32039">
        <ele>72.6</ele>
        <time>2025-09-26T15:44:56Z</time>
      </trkpt>
      <trkpt lat="48.81133" lon="-3.32031">
        <ele>73.2</ele>
        <time>2025-09-26T15:45:01Z</time>
      </trkpt>
      <trkpt lat="48.81122" lon="-3.32024">
        <ele>73.6</ele>
        <time>2025-09-26T15:45:03Z</time>
      </trkpt>
      <trkpt lat="48.81116" lon="-3.3202">
        <ele>73.6</ele>
        <time>2025-09-26T15:45:04Z</time>
      </trkpt>
      <trkpt lat="48.81111" lon="-3.32016">
        <ele>73.8</ele>
        <time>2025-09-26T15:45:05Z</time>
      </trkpt>
      <trkpt lat="48.81097" lon="-3.31999">
        <ele>74</ele>
        <time>2025-09-26T15:45:08Z</time>
      </trkpt>
      <trkpt lat="48.81083" lon="-3.31973">
        <ele>74.8</ele>
        <time>2025-09-26T15:45:12Z</time>
      </trkpt>
      <trkpt lat="48.81077" lon="-3.31959">
        <ele>75.2</ele>
        <time>2025-09-26T15:45:14Z</time>
      </trkpt>
      <trkpt lat="48.8107" lon="-3.31937">
        <ele>75.8</ele>
        <time>2025-09-26T15:45:17Z</time>
      </trkpt>
      <trkpt lat="48.81068" lon="-3.31929">
        <ele>76.2</ele>
        <time>2025-09-26T15:45:18Z</time>
      </trkpt>
      <trkpt lat="48.81064" lon="-3.31913">
        <ele>76.4</ele>
        <time>2025-09-26T15:45:20Z</time>
      </trkpt>
      <trkpt lat="48.81053" lon="-3.31865">
        <ele>76.6</ele>
        <time>2025-09-26T15:45:26Z</time>
      </trkpt>
      <trkpt lat="48.81046" lon="-3.31824">
        <ele>75.6</ele>
        <time>2025-09-26T15:45:31Z</time>
      </trkpt>
      <trkpt lat="48.81037" lon="-3.31752">
        <ele>75</ele>
        <time>2025-09-26T15:45:39Z</time>
      </trkpt>
      <trkpt lat="48.81034" lon="-3.31743">
        <ele>74.8</ele>
        <time>2025-09-26T15:45:40Z</time>
      </trkpt>
      <trkpt lat="48.8103" lon="-3.31736">
        <ele>74.6</ele>
        <time>2025-09-26T15:45:41Z</time>
      </trkpt>
      <trkpt lat="48.81019" lon="-3.31727">
        <ele>73.8</ele>
        <time>2025-09-26T15:45:43Z</time>
      </trkpt>
      <trkpt lat="48.81007" lon="-3.31722">
        <ele>73.6</ele>
        <time>2025-09-26T15:45:45Z</time>
      </trkpt>
      <trkpt lat="48.80977" lon="-3.3171">
        <ele>73</ele>
        <time>2025-09-26T15:45:50Z</time>
      </trkpt>
      <trkpt lat="48.80953" lon="-3.31701">
        <ele>72.6</ele>
        <time>2025-09-26T15:45:54Z</time>
      </trkpt>
      <trkpt lat="48.80947" lon="-3.31699">
        <ele>72.6</ele>
        <time>2025-09-26T15:45:55Z</time>
      </trkpt>
      <trkpt lat="48.80931" lon="-3.31692">
        <ele>72</ele>
        <time>2025-09-26T15:45:58Z</time>
      </trkpt>
      <trkpt lat="48.80921" lon="-3.31687">
        <ele>72</ele>
        <time>2025-09-26T15:46:00Z</time>
      </trkpt>
      <trkpt lat="48.80879" lon="-3.31658">
        <ele>72.4</ele>
        <time>2025-09-26T15:46:08Z</time>
      </trkpt>
      <trkpt lat="48.80838" lon="-3.3162">
        <ele>73.4</ele>
        <time>2025-09-26T15:46:16Z</time>
      </trkpt>
      <trkpt lat="48.80833" lon="-3.31614">
        <ele>73.6</ele>
        <time>2025-09-26T15:46:17Z</time>
      </trkpt>
      <trkpt lat="48.80828" lon="-3.31608">
        <ele>73.8</ele>
        <time>2025-09-26T15:46:18Z</time>
      </trkpt>
      <trkpt lat="48.8082" lon="-3.31593">
        <ele>74.4</ele>
        <time>2025-09-26T15:46:20Z</time>
      </trkpt>
      <trkpt lat="48.80817" lon="-3.31586">
        <ele>74.4</ele>
        <time>2025-09-26T15:46:21Z</time>
      </trkpt>
      <trkpt lat="48.80813" lon="-3.31578">
        <ele>74.6</ele>
        <time>2025-09-26T15:46:22Z</time>
      </trkpt>
      <trkpt lat="48.80804" lon="-3.31554">
        <ele>74.8</ele>
        <time>2025-09-26T15:46:25Z</time>
      </trkpt>
      <trkpt lat="48.80801" lon="-3.31546">
        <ele>75</ele>
        <time>2025-09-26T15:46:26Z</time>
      </trkpt>
      <trkpt lat="48.80796" lon="-3.31529">
        <ele>75.2</ele>
        <time>2025-09-26T15:46:28Z</time>
      </trkpt>
      <trkpt lat="48.80788" lon="-3.31487">
        <ele>76</ele>
        <time>2025-09-26T15:46:33Z</time>
      </trkpt>
      <trkpt lat="48.80787" lon="-3.31478">
        <ele>76.2</ele>
        <time>2025-09-26T15:46:34Z</time>
      </trkpt>
      <trkpt lat="48.80773" lon="-3.31391">
        <ele>76.8</ele>
        <time>2025-09-26T15:46:44Z</time>
      </trkpt>
      <trkpt lat="48.80765" lon="-3.31355">
        <ele>76.6</ele>
        <time>2025-09-26T15:46:48Z</time>
      </trkpt>
      <trkpt lat="48.80764" lon="-3.31346">
        <ele>76.8</ele>
        <time>2025-09-26T15:46:49Z</time>
      </trkpt>
      <trkpt lat="48.80762" lon="-3.31337">
        <ele>76.6</ele>
        <time>2025-09-26T15:46:50Z</time>
      </trkpt>
      <trkpt lat="48.80758" lon="-3.31319">
        <ele>76.6</ele>
        <time>2025-09-26T15:46:52Z</time>
      </trkpt>
      <trkpt lat="48.80756" lon="-3.31301">
        <ele>76.4</ele>
        <time>2025-09-26T15:46:54Z</time>
      </trkpt>
      <trkpt lat="48.80749" lon="-3.31258">
        <ele>75.8</ele>
        <time>2025-09-26T15:46:59Z</time>
      </trkpt>
      <trkpt lat="48.80742" lon="-3.31244">
        <ele>75.8</ele>
        <time>2025-09-26T15:47:01Z</time>
      </trkpt>
      <trkpt lat="48.80734" lon="-3.31233">
        <ele>76</ele>
        <time>2025-09-26T15:47:03Z</time>
      </trkpt>
      <trkpt lat="48.80723" lon="-3.31226">
        <ele>76</ele>
        <time>2025-09-26T15:47:05Z</time>
      </trkpt>
      <trkpt lat="48.80702" lon="-3.31217">
        <ele>77.2</ele>
        <time>2025-09-26T15:47:09Z</time>
      </trkpt>
      <trkpt lat="48.80686" lon="-3.31211">
        <ele>77.8</ele>
        <time>2025-09-26T15:47:12Z</time>
      </trkpt>
      <trkpt lat="48.80665" lon="-3.31202">
        <ele>78</ele>
        <time>2025-09-26T15:47:17Z</time>
      </trkpt>
      <trkpt lat="48.80657" lon="-3.31202">
        <ele>78</ele>
        <time>2025-09-26T15:47:18Z</time>
      </trkpt>
      <trkpt lat="48.80653" lon="-3.31206">
        <ele>78.2</ele>
        <time>2025-09-26T15:47:20Z</time>
      </trkpt>
      <trkpt lat="48.80647" lon="-3.31221">
        <ele>78.2</ele>
        <time>2025-09-26T15:47:23Z</time>
      </trkpt>
      <trkpt lat="48.80645" lon="-3.31225">
        <ele>78.2</ele>
        <time>2025-09-26T15:47:24Z</time>
      </trkpt>
      <trkpt lat="48.80642" lon="-3.31228">
        <ele>78.4</ele>
        <time>2025-09-26T15:47:25Z</time>
      </trkpt>
      <trkpt lat="48.80633" lon="-3.31225">
        <ele>78.8</ele>
        <time>2025-09-26T15:47:27Z</time>
      </trkpt>
      <trkpt lat="48.80613" lon="-3.31215">
        <ele>79.2</ele>
        <time>2025-09-26T15:47:31Z</time>
      </trkpt>
      <trkpt lat="48.80608" lon="-3.31213">
        <ele>79.4</ele>
        <time>2025-09-26T15:47:32Z</time>
      </trkpt>
      <trkpt lat="48.80603" lon="-3.31209">
        <ele>79.6</ele>
        <time>2025-09-26T15:47:33Z</time>
      </trkpt>
      <trkpt lat="48.80596" lon="-3.31199">
        <ele>79.8</ele>
        <time>2025-09-26T15:47:35Z</time>
      </trkpt>
      <trkpt lat="48.80592" lon="-3.31183">
        <ele>80.6</ele>
        <time>2025-09-26T15:47:37Z</time>
      </trkpt>
      <trkpt lat="48.80589" lon="-3.31167">
        <ele>81.2</ele>
        <time>2025-09-26T15:47:39Z</time>
      </trkpt>
      <trkpt lat="48.80583" lon="-3.31123">
        <ele>81.8</ele>
        <time>2025-09-26T15:47:44Z</time>
      </trkpt>
      <trkpt lat="48.80581" lon="-3.31095">
        <ele>81.8</ele>
        <time>2025-09-26T15:47:47Z</time>
      </trkpt>
      <trkpt lat="48.80579" lon="-3.31039">
        <ele>80.6</ele>
        <time>2025-09-26T15:47:53Z</time>
      </trkpt>
      <trkpt lat="48.80578" lon="-3.3103">
        <ele>80.6</ele>
        <time>2025-09-26T15:47:54Z</time>
      </trkpt>
      <trkpt lat="48.80572" lon="-3.30947">
        <ele>79.8</ele>
        <time>2025-09-26T15:48:03Z</time>
      </trkpt>
      <trkpt lat="48.80568" lon="-3.30901">
        <ele>79.6</ele>
        <time>2025-09-26T15:48:08Z</time>
      </trkpt>
      <trkpt lat="48.80564" lon="-3.30885">
        <ele>79.2</ele>
        <time>2025-09-26T15:48:10Z</time>
      </trkpt>
      <trkpt lat="48.80558" lon="-3.3086">
        <ele>79</ele>
        <time>2025-09-26T15:48:13Z</time>
      </trkpt>
      <trkpt lat="48.80552" lon="-3.30835">
        <ele>78.8</ele>
        <time>2025-09-26T15:48:16Z</time>
      </trkpt>
      <trkpt lat="48.80548" lon="-3.30817">
        <ele>78.8</ele>
        <time>2025-09-26T15:48:18Z</time>
      </trkpt>
      <trkpt lat="48.80539" lon="-3.30775">
        <ele>78.2</ele>
        <time>2025-09-26T15:48:24Z</time>
      </trkpt>
      <trkpt lat="48.80537" lon="-3.30767">
        <ele>78</ele>
        <time>2025-09-26T15:48:27Z</time>
      </trkpt>
      <trkpt lat="48.80533" lon="-3.30748">
        <ele>78</ele>
        <time>2025-09-26T15:48:30Z</time>
      </trkpt>
      <trkpt lat="48.80532" lon="-3.3074">
        <ele>78</ele>
        <time>2025-09-26T15:48:31Z</time>
      </trkpt>
      <trkpt lat="48.8052" lon="-3.30704">
        <ele>77.4</ele>
        <time>2025-09-26T15:48:35Z</time>
      </trkpt>
      <trkpt lat="48.8052" lon="-3.30704">
        <ele>77.2</ele>
        <time>2025-09-26T15:48:36Z</time>
      </trkpt>
      <trkpt lat="48.80518" lon="-3.30697">
        <ele>77.2</ele>
        <time>2025-09-26T15:48:37Z</time>
      </trkpt>
      <trkpt lat="48.80516" lon="-3.30691">
        <ele>77</ele>
        <time>2025-09-26T15:48:38Z</time>
      </trkpt>
      <trkpt lat="48.80516" lon="-3.30678">
        <ele>77</ele>
        <time>2025-09-26T15:48:40Z</time>
      </trkpt>
      <trkpt lat="48.80523" lon="-3.3067">
        <ele>77.2</ele>
        <time>2025-09-26T15:48:42Z</time>
      </trkpt>
      <trkpt lat="48.80527" lon="-3.30667">
        <ele>77.4</ele>
        <time>2025-09-26T15:48:43Z</time>
      </trkpt>
      <trkpt lat="48.80554" lon="-3.3065">
        <ele>77.8</ele>
        <time>2025-09-26T15:48:48Z</time>
      </trkpt>
      <trkpt lat="48.80559" lon="-3.30646">
        <ele>77.8</ele>
        <time>2025-09-26T15:48:49Z</time>
      </trkpt>
      <trkpt lat="48.80577" lon="-3.30622">
        <ele>77.6</ele>
        <time>2025-09-26T15:48:53Z</time>
      </trkpt>
      <trkpt lat="48.80611" lon="-3.30575">
        <ele>77</ele>
        <time>2025-09-26T15:49:01Z</time>
      </trkpt>
      <trkpt lat="48.80633" lon="-3.3054">
        <ele>76.2</ele>
        <time>2025-09-26T15:49:08Z</time>
      </trkpt>
      <trkpt lat="48.80635" lon="-3.30537">
        <ele>76.2</ele>
        <time>2025-09-26T15:49:09Z</time>
      </trkpt>
      <trkpt lat="48.80638" lon="-3.30531">
        <ele>75.8</ele>
        <time>2025-09-26T15:49:13Z</time>
      </trkpt>
      <trkpt lat="48.80638" lon="-3.30529">
        <ele>75.8</ele>
        <time>2025-09-26T15:49:18Z</time>
      </trkpt>
      <trkpt lat="48.80637" lon="-3.30525">
        <ele>75.8</ele>
        <time>2025-09-26T15:49:19Z</time>
      </trkpt>
      <trkpt lat="48.80635" lon="-3.30523">
        <ele>76</ele>
        <time>2025-09-26T15:49:21Z</time>
      </trkpt>
      <trkpt lat="48.80632" lon="-3.30522">
        <ele>76</ele>
        <time>2025-09-26T15:49:22Z</time>
      </trkpt>
      <trkpt lat="48.80623" lon="-3.30513">
        <ele>76</ele>
        <time>2025-09-26T15:49:28Z</time>
      </trkpt>
      <trkpt lat="48.80624" lon="-3.30511">
        <ele>75.8</ele>
        <time>2025-09-26T15:49:30Z</time>
      </trkpt>
      <trkpt lat="48.80625" lon="-3.30511">
        <ele>75.8</ele>
        <time>2025-09-26T15:49:32Z</time>
      </trkpt>
      <trkpt lat="48.80626" lon="-3.30512">
        <ele>76</ele>
        <time>2025-09-26T15:49:41Z</time>
      </trkpt>
      <trkpt lat="48.80626" lon="-3.30512">
        <ele>75.8</ele>
        <time>2025-09-26T15:49:58Z</time>
      </trkpt>
      <trkpt lat="48.80623" lon="-3.30515">
        <ele>75.8</ele>
        <time>2025-09-26T15:50:03Z</time>
      </trkpt>
      <trkpt lat="48.80622" lon="-3.30513">
        <ele>75.8</ele>
        <time>2025-09-26T15:50:05Z</time>
      </trkpt>
      <trkpt lat="48.8062" lon="-3.30511">
        <ele>75.8</ele>
        <time>2025-09-26T15:50:12Z</time>
      </trkpt>
      <trkpt lat="48.8062" lon="-3.30511">
        <ele>75.8</ele>
        <time>2025-09-26T15:50:18Z</time>
      </trkpt>
      <trkpt lat="48.8062" lon="-3.3051">
        <ele>75.8</ele>
        <time>2025-09-26T15:50:25Z</time>
      </trkpt>
      <trkpt lat="48.8062" lon="-3.3051">
        <ele>75.8</ele>
        <time>2025-09-26T15:50:32Z</time>
      </trkpt>
      <trkpt lat="48.80618" lon="-3.3051">
        <ele>75.8</ele>
        <time>2025-09-26T15:50:43Z</time>
      </trkpt>
      <trkpt lat="48.80618" lon="-3.30509">
        <ele>75.8</ele>
        <time>2025-09-26T15:50:49Z</time>
      </trkpt>
      <trkpt lat="48.80619" lon="-3.30507">
        <ele>75.8</ele>
        <time>2025-09-26T15:51:03Z</time>
      </trkpt>
      <trkpt lat="48.80619" lon="-3.30507">
        <ele>75.8</ele>
        <time>2025-09-26T15:51:04Z</time>
      </trkpt>
      <trkpt lat="48.80619" lon="-3.30507">
        <ele>75.8</ele>
        <time>2025-09-26T15:51:09Z</time>
      </trkpt>
      <trkpt lat="48.80619" lon="-3.30507">
        <ele>75.8</ele>
        <time>2025-09-26T15:51:12Z</time>
      </trkpt>
      <trkpt lat="48.80619" lon="-3.30506">
        <ele>75.8</ele>
        <time>2025-09-26T15:51:17Z</time>
      </trkpt>
      <trkpt lat="48.80619" lon="-3.30506">
        <ele>75.8</ele>
        <time>2025-09-26T15:51:20Z</time>
      </trkpt>
      <trkpt lat="48.80619" lon="-3.30506">
        <ele>75.8</ele>
        <time>2025-09-26T15:51:29Z</time>
      </trkpt>
      <trkpt lat="48.80617" lon="-3.30508">
        <ele>75.8</ele>
        <time>2025-09-26T15:51:37Z</time>
      </trkpt>
      <trkpt lat="48.80617" lon="-3.30508">
        <ele>75.8</ele>
        <time>2025-09-26T15:51:40Z</time>
      </trkpt>
      <trkpt lat="48.80616" lon="-3.30508">
        <ele>75.8</ele>
        <time>2025-09-26T15:51:49Z</time>
      </trkpt>
      <trkpt lat="48.80617" lon="-3.30508">
        <ele>75.8</ele>
        <time>2025-09-26T15:51:58Z</time>
      </trkpt>
      <trkpt lat="48.80617" lon="-3.30508">
        <ele>75.8</ele>
        <time>2025-09-26T15:52:07Z</time>
      </trkpt>
      <trkpt lat="48.80617" lon="-3.30508">
        <ele>75.8</ele>
        <time>2025-09-26T15:52:14Z</time>
      </trkpt>
      <trkpt lat="48.80617" lon="-3.30508">
        <ele>75.8</ele>
        <time>2025-09-26T15:52:16Z</time>
      </trkpt>
      <trkpt lat="48.80617" lon="-3.30508">
        <ele>75.8</ele>
        <time>2025-09-26T15:52:32Z</time>
      </trkpt>
      <trkpt lat="48.80617" lon="-3.30508">
        <ele>75.8</ele>
        <time>2025-09-26T15:52:40Z</time>
      </trkpt>
      <trkpt lat="48.80617" lon="-3.30508">
        <ele>75.8</ele>
        <time>2025-09-26T15:52:49Z</time>
      </trkpt>
      <trkpt lat="48.80617" lon="-3.30508">
        <ele>75.8</ele>
        <time>2025-09-26T15:52:58Z</time>
      </trkpt>
      <trkpt lat="48.80617" lon="-3.30508">
        <ele>75.8</ele>
        <time>2025-09-26T15:53:02Z</time>
      </trkpt>
      <trkpt lat="48.80618" lon="-3.30508">
        <ele>75.8</ele>
        <time>2025-09-26T15:53:12Z</time>
      </trkpt>
      <trkpt lat="48.80617" lon="-3.30508">
        <ele>75.8</ele>
        <time>2025-09-26T15:53:18Z</time>
      </trkpt>
      <trkpt lat="48.80617" lon="-3.30508">
        <ele>75.8</ele>
        <time>2025-09-26T15:53:26Z</time>
      </trkpt>
      <trkpt lat="48.80617" lon="-3.30508">
        <ele>75.8</ele>
        <time>2025-09-26T15:53:29Z</time>
      </trkpt>
      <trkpt lat="48.80617" lon="-3.30508">
        <ele>75.8</ele>
        <time>2025-09-26T15:53:30Z</time>
      </trkpt>
      <trkpt lat="48.80617" lon="-3.30508">
        <ele>75.8</ele>
        <time>2025-09-26T15:53:43Z</time>
      </trkpt>
      <trkpt lat="48.80617" lon="-3.30508">
        <ele>75.8</ele>
        <time>2025-09-26T15:53:53Z</time>
      </trkpt>
      <trkpt lat="48.80617" lon="-3.30508">
        <ele>75.8</ele>
        <time>2025-09-26T15:54:00Z</time>
      </trkpt>
      <trkpt lat="48.80618" lon="-3.30507">
        <ele>75.8</ele>
        <time>2025-09-26T15:54:04Z</time>
      </trkpt>
      <trkpt lat="48.80619" lon="-3.30507">
        <ele>75.8</ele>
        <time>2025-09-26T15:54:20Z</time>
      </trkpt>
      <trkpt lat="48.80622" lon="-3.30508">
        <ele>75.8</ele>
        <time>2025-09-26T15:54:31Z</time>
      </trkpt>
      <trkpt lat="48.80624" lon="-3.3051">
        <ele>75.8</ele>
        <time>2025-09-26T15:54:37Z</time>
      </trkpt>
      <trkpt lat="48.80624" lon="-3.30509">
        <ele>75.8</ele>
        <time>2025-09-26T15:54:44Z</time>
      </trkpt>
      <trkpt lat="48.80624" lon="-3.30509">
        <ele>75.8</ele>
        <time>2025-09-26T15:54:51Z</time>
      </trkpt>
      <trkpt lat="48.80624" lon="-3.30509">
        <ele>75.8</ele>
        <time>2025-09-26T15:54:53Z</time>
      </trkpt>
      <trkpt lat="48.80624" lon="-3.30509">
        <ele>75.8</ele>
        <time>2025-09-26T15:54:59Z</time>
      </trkpt>
      <trkpt lat="48.80624" lon="-3.30509">
        <ele>75.8</ele>
        <time>2025-09-26T15:55:04Z</time>
      </trkpt>
      <trkpt lat="48.80624" lon="-3.30509">
        <ele>75.8</ele>
        <time>2025-09-26T15:55:16Z</time>
      </trkpt>
      <trkpt lat="48.80624" lon="-3.30509">
        <ele>75.8</ele>
        <time>2025-09-26T15:55:18Z</time>
      </trkpt>
      <trkpt lat="48.80624" lon="-3.30509">
        <ele>75.8</ele>
        <time>2025-09-26T15:55:31Z</time>
      </trkpt>
      <trkpt lat="48.80624" lon="-3.30509">
        <ele>75.8</ele>
        <time>2025-09-26T15:55:40Z</time>
      </trkpt>
      <trkpt lat="48.80624" lon="-3.30509">
        <ele>75.8</ele>
        <time>2025-09-26T15:55:41Z</time>
      </trkpt>
      <trkpt lat="48.80624" lon="-3.30509">
        <ele>75.8</ele>
        <time>2025-09-26T15:55:42Z</time>
      </trkpt>
      <trkpt lat="48.80624" lon="-3.30511">
        <ele>75.8</ele>
        <time>2025-09-26T15:55:47Z</time>
      </trkpt>
      <trkpt lat="48.80624" lon="-3.30511">
        <ele>75.8</ele>
        <time>2025-09-26T15:55:55Z</time>
      </trkpt>
      <trkpt lat="48.80624" lon="-3.30511">
        <ele>75.8</ele>
        <time>2025-09-26T15:56:01Z</time>
      </trkpt>
      <trkpt lat="48.80624" lon="-3.30511">
        <ele>75.8</ele>
        <time>2025-09-26T15:56:03Z</time>
      </trkpt>
      <trkpt lat="48.80624" lon="-3.30511">
        <ele>75.8</ele>
        <time>2025-09-26T15:56:17Z</time>
      </trkpt>
      <trkpt lat="48.80624" lon="-3.30511">
        <ele>75.8</ele>
        <time>2025-09-26T15:56:21Z</time>
      </trkpt>
      <trkpt lat="48.80624" lon="-3.30511">
        <ele>75.8</ele>
        <time>2025-09-26T15:56:25Z</time>
      </trkpt>
      <trkpt lat="48.80624" lon="-3.30511">
        <ele>75.8</ele>
        <time>2025-09-26T15:56:35Z</time>
      </trkpt>
      <trkpt lat="48.80626" lon="-3.30516">
        <ele>75.8</ele>
        <time>2025-09-26T15:56:58Z</time>
      </trkpt>
      <trkpt lat="48.80634" lon="-3.30528">
        <ele>75.8</ele>
        <time>2025-09-26T15:57:02Z</time>
      </trkpt>
      <trkpt lat="48.80635" lon="-3.30533">
        <ele>75.6</ele>
        <time>2025-09-26T15:57:04Z</time>
      </trkpt>
      <trkpt lat="48.80633" lon="-3.30541">
        <ele>75.6</ele>
        <time>2025-09-26T15:57:06Z</time>
      </trkpt>
      <trkpt lat="48.80621" lon="-3.30565">
        <ele>75.8</ele>
        <time>2025-09-26T15:57:11Z</time>
      </trkpt>
      <trkpt lat="48.80601" lon="-3.30593">
        <ele>76.2</ele>
        <time>2025-09-26T15:57:17Z</time>
      </trkpt>
      <trkpt lat="48.80576" lon="-3.3063">
        <ele>76.4</ele>
        <time>2025-09-26T15:57:24Z</time>
      </trkpt>
      <trkpt lat="48.80549" lon="-3.30659">
        <ele>76.8</ele>
        <time>2025-09-26T15:57:31Z</time>
      </trkpt>
      <trkpt lat="48.80524" lon="-3.30676">
        <ele>77</ele>
        <time>2025-09-26T15:57:37Z</time>
      </trkpt>
      <trkpt lat="48.80517" lon="-3.30683">
        <ele>77</ele>
        <time>2025-09-26T15:57:39Z</time>
      </trkpt>
      <trkpt lat="48.80515" lon="-3.30694">
        <ele>77</ele>
        <time>2025-09-26T15:57:41Z</time>
      </trkpt>
      <trkpt lat="48.80518" lon="-3.30705">
        <ele>77</ele>
        <time>2025-09-26T15:57:43Z</time>
      </trkpt>
      <trkpt lat="48.80524" lon="-3.30717">
        <ele>77.2</ele>
        <time>2025-09-26T15:57:45Z</time>
      </trkpt>
      <trkpt lat="48.80538" lon="-3.30755">
        <ele>77.6</ele>
        <time>2025-09-26T15:57:53Z</time>
      </trkpt>
      <trkpt lat="48.80539" lon="-3.30756">
        <ele>77.8</ele>
        <time>2025-09-26T15:57:57Z</time>
      </trkpt>
      <trkpt lat="48.8054" lon="-3.30762">
        <ele>78.2</ele>
        <time>2025-09-26T15:57:59Z</time>
      </trkpt>
      <trkpt lat="48.80541" lon="-3.30771">
        <ele>78.2</ele>
        <time>2025-09-26T15:58:01Z</time>
      </trkpt>
      <trkpt lat="48.80545" lon="-3.30803">
        <ele>78.2</ele>
        <time>2025-09-26T15:58:08Z</time>
      </trkpt>
      <trkpt lat="48.80553" lon="-3.30836">
        <ele>78.6</ele>
        <time>2025-09-26T15:58:14Z</time>
      </trkpt>
      <trkpt lat="48.80566" lon="-3.30892">
        <ele>79.2</ele>
        <time>2025-09-26T15:58:22Z</time>
      </trkpt>
      <trkpt lat="48.8057" lon="-3.3091">
        <ele>79.2</ele>
        <time>2025-09-26T15:58:25Z</time>
      </trkpt>
      <trkpt lat="48.8057" lon="-3.30918">
        <ele>79.2</ele>
        <time>2025-09-26T15:58:27Z</time>
      </trkpt>
      <trkpt lat="48.80571" lon="-3.30925">
        <ele>79.2</ele>
        <time>2025-09-26T15:58:31Z</time>
      </trkpt>
      <trkpt lat="48.80571" lon="-3.30925">
        <ele>79.4</ele>
        <time>2025-09-26T15:58:37Z</time>
      </trkpt>
      <trkpt lat="48.80572" lon="-3.3094">
        <ele>79.8</ele>
        <time>2025-09-26T15:58:59Z</time>
      </trkpt>
      <trkpt lat="48.80573" lon="-3.30962">
        <ele>80</ele>
        <time>2025-09-26T15:59:02Z</time>
      </trkpt>
      <trkpt lat="48.80574" lon="-3.3097">
        <ele>80</ele>
        <time>2025-09-26T15:59:03Z</time>
      </trkpt>
      <trkpt lat="48.80575" lon="-3.30987">
        <ele>80.2</ele>
        <time>2025-09-26T15:59:05Z</time>
      </trkpt>
      <trkpt lat="48.80577" lon="-3.31019">
        <ele>80.6</ele>
        <time>2025-09-26T15:59:09Z</time>
      </trkpt>
      <trkpt lat="48.80578" lon="-3.31027">
        <ele>80.6</ele>
        <time>2025-09-26T15:59:10Z</time>
      </trkpt>
      <trkpt lat="48.80582" lon="-3.31084">
        <ele>81.2</ele>
        <time>2025-09-26T15:59:17Z</time>
      </trkpt>
      <trkpt lat="48.80582" lon="-3.31092">
        <ele>81.4</ele>
        <time>2025-09-26T15:59:18Z</time>
      </trkpt>
      <trkpt lat="48.80583" lon="-3.31108">
        <ele>81.8</ele>
        <time>2025-09-26T15:59:20Z</time>
      </trkpt>
      <trkpt lat="48.80585" lon="-3.31133">
        <ele>82</ele>
        <time>2025-09-26T15:59:23Z</time>
      </trkpt>
      <trkpt lat="48.80588" lon="-3.31149">
        <ele>82.2</ele>
        <time>2025-09-26T15:59:25Z</time>
      </trkpt>
      <trkpt lat="48.80597" lon="-3.31199">
        <ele>82.2</ele>
        <time>2025-09-26T15:59:31Z</time>
      </trkpt>
      <trkpt lat="48.80601" lon="-3.31206">
        <ele>81.8</ele>
        <time>2025-09-26T15:59:32Z</time>
      </trkpt>
      <trkpt lat="48.80605" lon="-3.31212">
        <ele>81.6</ele>
        <time>2025-09-26T15:59:33Z</time>
      </trkpt>
      <trkpt lat="48.80617" lon="-3.31218">
        <ele>81.4</ele>
        <time>2025-09-26T15:59:35Z</time>
      </trkpt>
      <trkpt lat="48.80634" lon="-3.31226">
        <ele>80.4</ele>
        <time>2025-09-26T15:59:38Z</time>
      </trkpt>
      <trkpt lat="48.80638" lon="-3.31228">
        <ele>80.2</ele>
        <time>2025-09-26T15:59:39Z</time>
      </trkpt>
      <trkpt lat="48.80642" lon="-3.31229">
        <ele>80</ele>
        <time>2025-09-26T15:59:40Z</time>
      </trkpt>
      <trkpt lat="48.80645" lon="-3.31228">
        <ele>79.8</ele>
        <time>2025-09-26T15:59:41Z</time>
      </trkpt>
      <trkpt lat="48.80649" lon="-3.3122">
        <ele>79.8</ele>
        <time>2025-09-26T15:59:43Z</time>
      </trkpt>
      <trkpt lat="48.80651" lon="-3.31214">
        <ele>79.6</ele>
        <time>2025-09-26T15:59:44Z</time>
      </trkpt>
      <trkpt lat="48.80657" lon="-3.31204">
        <ele>79.6</ele>
        <time>2025-09-26T15:59:46Z</time>
      </trkpt>
      <trkpt lat="48.80666" lon="-3.31203">
        <ele>79.2</ele>
        <time>2025-09-26T15:59:48Z</time>
      </trkpt>
      <trkpt lat="48.80671" lon="-3.31205">
        <ele>79.2</ele>
        <time>2025-09-26T15:59:49Z</time>
      </trkpt>
      <trkpt lat="48.80702" lon="-3.31218">
        <ele>79</ele>
        <time>2025-09-26T15:59:55Z</time>
      </trkpt>
      <trkpt lat="48.80731" lon="-3.31231">
        <ele>78</ele>
        <time>2025-09-26T16:00:00Z</time>
      </trkpt>
      <trkpt lat="48.80737" lon="-3.31235">
        <ele>77.8</ele>
        <time>2025-09-26T16:00:01Z</time>
      </trkpt>
      <trkpt lat="48.80742" lon="-3.31241">
        <ele>77.6</ele>
        <time>2025-09-26T16:00:02Z</time>
      </trkpt>
      <trkpt lat="48.8075" lon="-3.31256">
        <ele>77.4</ele>
        <time>2025-09-26T16:00:04Z</time>
      </trkpt>
      <trkpt lat="48.80752" lon="-3.31264">
        <ele>77</ele>
        <time>2025-09-26T16:00:05Z</time>
      </trkpt>
      <trkpt lat="48.80755" lon="-3.31273">
        <ele>76.8</ele>
        <time>2025-09-26T16:00:06Z</time>
      </trkpt>
      <trkpt lat="48.8076" lon="-3.31311">
        <ele>76.4</ele>
        <time>2025-09-26T16:00:10Z</time>
      </trkpt>
      <trkpt lat="48.80761" lon="-3.3132">
        <ele>76.4</ele>
        <time>2025-09-26T16:00:11Z</time>
      </trkpt>
      <trkpt lat="48.80772" lon="-3.31375">
        <ele>76.8</ele>
        <time>2025-09-26T16:00:17Z</time>
      </trkpt>
      <trkpt lat="48.80775" lon="-3.31393">
        <ele>77</ele>
        <time>2025-09-26T16:00:19Z</time>
      </trkpt>
      <trkpt lat="48.80782" lon="-3.31421">
        <ele>77</ele>
        <time>2025-09-26T16:00:22Z</time>
      </trkpt>
      <trkpt lat="48.80788" lon="-3.31458">
        <ele>76.8</ele>
        <time>2025-09-26T16:00:26Z</time>
      </trkpt>
      <trkpt lat="48.8079" lon="-3.31478">
        <ele>76.8</ele>
        <time>2025-09-26T16:00:28Z</time>
      </trkpt>
      <trkpt lat="48.80801" lon="-3.31537">
        <ele>76.2</ele>
        <time>2025-09-26T16:00:34Z</time>
      </trkpt>
      <trkpt lat="48.80807" lon="-3.31555">
        <ele>76</ele>
        <time>2025-09-26T16:00:36Z</time>
      </trkpt>
      <trkpt lat="48.80824" lon="-3.31597">
        <ele>75.2</ele>
        <time>2025-09-26T16:00:41Z</time>
      </trkpt>
      <trkpt lat="48.80832" lon="-3.31611">
        <ele>75</ele>
        <time>2025-09-26T16:00:43Z</time>
      </trkpt>
      <trkpt lat="48.80847" lon="-3.31629">
        <ele>74.8</ele>
        <time>2025-09-26T16:00:46Z</time>
      </trkpt>
      <trkpt lat="48.80859" lon="-3.3164">
        <ele>74.4</ele>
        <time>2025-09-26T16:00:48Z</time>
      </trkpt>
      <trkpt lat="48.80864" lon="-3.31645">
        <ele>74.2</ele>
        <time>2025-09-26T16:00:49Z</time>
      </trkpt>
      <trkpt lat="48.80888" lon="-3.31664">
        <ele>73.8</ele>
        <time>2025-09-26T16:00:53Z</time>
      </trkpt>
      <trkpt lat="48.80893" lon="-3.31668">
        <ele>73.6</ele>
        <time>2025-09-26T16:00:54Z</time>
      </trkpt>
      <trkpt lat="48.80947" lon="-3.31698">
        <ele>73.2</ele>
        <time>2025-09-26T16:01:03Z</time>
      </trkpt>
      <trkpt lat="48.80976" lon="-3.31709">
        <ele>73.2</ele>
        <time>2025-09-26T16:01:08Z</time>
      </trkpt>
      <trkpt lat="48.80988" lon="-3.31714">
        <ele>73.4</ele>
        <time>2025-09-26T16:01:10Z</time>
      </trkpt>
      <trkpt lat="48.81028" lon="-3.31731">
        <ele>74.4</ele>
        <time>2025-09-26T16:01:17Z</time>
      </trkpt>
      <trkpt lat="48.81039" lon="-3.31748">
        <ele>74.8</ele>
        <time>2025-09-26T16:01:19Z</time>
      </trkpt>
      <trkpt lat="48.81039" lon="-3.31748">
        <ele>75</ele>
        <time>2025-09-26T16:01:20Z</time>
      </trkpt>
      <trkpt lat="48.81041" lon="-3.31756">
        <ele>75</ele>
        <time>2025-09-26T16:01:21Z</time>
      </trkpt>
      <trkpt lat="48.81045" lon="-3.31772">
        <ele>75.4</ele>
        <time>2025-09-26T16:01:23Z</time>
      </trkpt>
      <trkpt lat="48.81047" lon="-3.3179">
        <ele>75.6</ele>
        <time>2025-09-26T16:01:25Z</time>
      </trkpt>
      <trkpt lat="48.81052" lon="-3.31836">
        <ele>76</ele>
        <time>2025-09-26T16:01:30Z</time>
      </trkpt>
      <trkpt lat="48.81057" lon="-3.31864">
        <ele>77.2</ele>
        <time>2025-09-26T16:01:33Z</time>
      </trkpt>
      <trkpt lat="48.81076" lon="-3.31946">
        <ele>77.4</ele>
        <time>2025-09-26T16:01:42Z</time>
      </trkpt>
      <trkpt lat="48.81086" lon="-3.31974">
        <ele>76.8</ele>
        <time>2025-09-26T16:01:45Z</time>
      </trkpt>
      <trkpt lat="48.811" lon="-3.31999">
        <ele>76.2</ele>
        <time>2025-09-26T16:01:48Z</time>
      </trkpt>
      <trkpt lat="48.81105" lon="-3.32007">
        <ele>76</ele>
        <time>2025-09-26T16:01:49Z</time>
      </trkpt>
      <trkpt lat="48.81123" lon="-3.32025">
        <ele>75.4</ele>
        <time>2025-09-26T16:01:52Z</time>
      </trkpt>
      <trkpt lat="48.81129" lon="-3.32029">
        <ele>75.2</ele>
        <time>2025-09-26T16:01:53Z</time>
      </trkpt>
      <trkpt lat="48.81136" lon="-3.32033">
        <ele>75</ele>
        <time>2025-09-26T16:01:54Z</time>
      </trkpt>
      <trkpt lat="48.81161" lon="-3.32039">
        <ele>74.8</ele>
        <time>2025-09-26T16:01:58Z</time>
      </trkpt>
      <trkpt lat="48.81205" lon="-3.32053">
        <ele>74</ele>
        <time>2025-09-26T16:02:05Z</time>
      </trkpt>
      <trkpt lat="48.81211" lon="-3.32058">
        <ele>74</ele>
        <time>2025-09-26T16:02:06Z</time>
      </trkpt>
      <trkpt lat="48.81216" lon="-3.32063">
        <ele>73.6</ele>
        <time>2025-09-26T16:02:07Z</time>
      </trkpt>
      <trkpt lat="48.81225" lon="-3.32076">
        <ele>73.2</ele>
        <time>2025-09-26T16:02:09Z</time>
      </trkpt>
      <trkpt lat="48.8123" lon="-3.32083">
        <ele>73</ele>
        <time>2025-09-26T16:02:10Z</time>
      </trkpt>
      <trkpt lat="48.81236" lon="-3.321">
        <ele>73</ele>
        <time>2025-09-26T16:02:12Z</time>
      </trkpt>
      <trkpt lat="48.81239" lon="-3.32108">
        <ele>73</ele>
        <time>2025-09-26T16:02:13Z</time>
      </trkpt>
      <trkpt lat="48.81247" lon="-3.32175">
        <ele>73.6</ele>
        <time>2025-09-26T16:02:20Z</time>
      </trkpt>
      <trkpt lat="48.81255" lon="-3.32252">
        <ele>74.2</ele>
        <time>2025-09-26T16:02:28Z</time>
      </trkpt>
      <trkpt lat="48.81257" lon="-3.32271">
        <ele>74.6</ele>
        <time>2025-09-26T16:02:30Z</time>
      </trkpt>
      <trkpt lat="48.81266" lon="-3.32345">
        <ele>75</ele>
        <time>2025-09-26T16:02:38Z</time>
      </trkpt>
      <trkpt lat="48.81269" lon="-3.32366">
        <ele>75</ele>
        <time>2025-09-26T16:02:40Z</time>
      </trkpt>
      <trkpt lat="48.81279" lon="-3.32453">
        <ele>74.8</ele>
        <time>2025-09-26T16:02:49Z</time>
      </trkpt>
      <trkpt lat="48.81282" lon="-3.32482">
        <ele>74.4</ele>
        <time>2025-09-26T16:02:52Z</time>
      </trkpt>
      <trkpt lat="48.81291" lon="-3.32568">
        <ele>74.2</ele>
        <time>2025-09-26T16:03:01Z</time>
      </trkpt>
      <trkpt lat="48.81292" lon="-3.32588">
        <ele>74.2</ele>
        <time>2025-09-26T16:03:03Z</time>
      </trkpt>
      <trkpt lat="48.81293" lon="-3.32645">
        <ele>74</ele>
        <time>2025-09-26T16:03:09Z</time>
      </trkpt>
      <trkpt lat="48.81293" lon="-3.32655">
        <ele>73.8</ele>
        <time>2025-09-26T16:03:10Z</time>
      </trkpt>
      <trkpt lat="48.8129" lon="-3.32694">
        <ele>73.6</ele>
        <time>2025-09-26T16:03:14Z</time>
      </trkpt>
      <trkpt lat="48.81288" lon="-3.32704">
        <ele>73.4</ele>
        <time>2025-09-26T16:03:15Z</time>
      </trkpt>
      <trkpt lat="48.81286" lon="-3.32713">
        <ele>73.4</ele>
        <time>2025-09-26T16:03:16Z</time>
      </trkpt>
      <trkpt lat="48.81273" lon="-3.32779">
        <ele>73</ele>
        <time>2025-09-26T16:03:23Z</time>
      </trkpt>
      <trkpt lat="48.81271" lon="-3.32788">
        <ele>73</ele>
        <time>2025-09-26T16:03:24Z</time>
      </trkpt>
      <trkpt lat="48.81269" lon="-3.32818">
        <ele>72.8</ele>
        <time>2025-09-26T16:03:27Z</time>
      </trkpt>
      <trkpt lat="48.81269" lon="-3.32847">
        <ele>72.8</ele>
        <time>2025-09-26T16:03:30Z</time>
      </trkpt>
      <trkpt lat="48.81277" lon="-3.32904">
        <ele>72.6</ele>
        <time>2025-09-26T16:03:36Z</time>
      </trkpt>
      <trkpt lat="48.81281" lon="-3.32932">
        <ele>72.8</ele>
        <time>2025-09-26T16:03:39Z</time>
      </trkpt>
      <trkpt lat="48.81281" lon="-3.32951">
        <ele>72.8</ele>
        <time>2025-09-26T16:03:41Z</time>
      </trkpt>
      <trkpt lat="48.81273" lon="-3.33016">
        <ele>73.2</ele>
        <time>2025-09-26T16:03:48Z</time>
      </trkpt>
      <trkpt lat="48.81267" lon="-3.33082">
        <ele>74</ele>
        <time>2025-09-26T16:03:55Z</time>
      </trkpt>
      <trkpt lat="48.81266" lon="-3.33092">
        <ele>74</ele>
        <time>2025-09-26T16:03:56Z</time>
      </trkpt>
      <trkpt lat="48.81262" lon="-3.33167">
        <ele>74</ele>
        <time>2025-09-26T16:04:04Z</time>
      </trkpt>
      <trkpt lat="48.81263" lon="-3.33186">
        <ele>74</ele>
        <time>2025-09-26T16:04:06Z</time>
      </trkpt>
      <trkpt lat="48.81266" lon="-3.33213">
        <ele>74</ele>
        <time>2025-09-26T16:04:09Z</time>
      </trkpt>
      <trkpt lat="48.81269" lon="-3.33289">
        <ele>73.8</ele>
        <time>2025-09-26T16:04:17Z</time>
      </trkpt>
      <trkpt lat="48.81272" lon="-3.33334">
        <ele>73.4</ele>
        <time>2025-09-26T16:04:22Z</time>
      </trkpt>
      <trkpt lat="48.81276" lon="-3.33342">
        <ele>73.4</ele>
        <time>2025-09-26T16:04:23Z</time>
      </trkpt>
      <trkpt lat="48.8128" lon="-3.33347">
        <ele>73.2</ele>
        <time>2025-09-26T16:04:24Z</time>
      </trkpt>
      <trkpt lat="48.8129" lon="-3.33359">
        <ele>73</ele>
        <time>2025-09-26T16:04:26Z</time>
      </trkpt>
      <trkpt lat="48.81293" lon="-3.33367">
        <ele>73</ele>
        <time>2025-09-26T16:04:27Z</time>
      </trkpt>
      <trkpt lat="48.81295" lon="-3.33376">
        <ele>72.6</ele>
        <time>2025-09-26T16:04:28Z</time>
      </trkpt>
      <trkpt lat="48.81295" lon="-3.33396">
        <ele>71.8</ele>
        <time>2025-09-26T16:04:30Z</time>
      </trkpt>
      <trkpt lat="48.81295" lon="-3.33437">
        <ele>70.8</ele>
        <time>2025-09-26T16:04:34Z</time>
      </trkpt>
      <trkpt lat="48.81294" lon="-3.33457">
        <ele>70.4</ele>
        <time>2025-09-26T16:04:36Z</time>
      </trkpt>
      <trkpt lat="48.81292" lon="-3.33475">
        <ele>69.2</ele>
        <time>2025-09-26T16:04:38Z</time>
      </trkpt>
      <trkpt lat="48.81291" lon="-3.33482">
        <ele>68.8</ele>
        <time>2025-09-26T16:04:39Z</time>
      </trkpt>
      <trkpt lat="48.8129" lon="-3.33488">
        <ele>68.2</ele>
        <time>2025-09-26T16:04:40Z</time>
      </trkpt>
      <trkpt lat="48.81285" lon="-3.33506">
        <ele>67.2</ele>
        <time>2025-09-26T16:04:44Z</time>
      </trkpt>
      <trkpt lat="48.81269" lon="-3.33539">
        <ele>67</ele>
        <time>2025-09-26T16:04:50Z</time>
      </trkpt>
      <trkpt lat="48.81266" lon="-3.33544">
        <ele>67</ele>
        <time>2025-09-26T16:04:51Z</time>
      </trkpt>
      <trkpt lat="48.81261" lon="-3.33548">
        <ele>67</ele>
        <time>2025-09-26T16:04:52Z</time>
      </trkpt>
      <trkpt lat="48.81246" lon="-3.33553">
        <ele>67</ele>
        <time>2025-09-26T16:04:55Z</time>
      </trkpt>
      <trkpt lat="48.81198" lon="-3.33563">
        <ele>67.8</ele>
        <time>2025-09-26T16:05:04Z</time>
      </trkpt>
      <trkpt lat="48.81171" lon="-3.33568">
        <ele>68.2</ele>
        <time>2025-09-26T16:05:09Z</time>
      </trkpt>
      <trkpt lat="48.8116" lon="-3.33569">
        <ele>68.2</ele>
        <time>2025-09-26T16:05:11Z</time>
      </trkpt>
      <trkpt lat="48.81155" lon="-3.3357">
        <ele>68.2</ele>
        <time>2025-09-26T16:05:12Z</time>
      </trkpt>
      <trkpt lat="48.81151" lon="-3.33571">
        <ele>68.2</ele>
        <time>2025-09-26T16:05:13Z</time>
      </trkpt>
      <trkpt lat="48.81141" lon="-3.33575">
        <ele>68</ele>
        <time>2025-09-26T16:05:15Z</time>
      </trkpt>
      <trkpt lat="48.81127" lon="-3.33585">
        <ele>68</ele>
        <time>2025-09-26T16:05:18Z</time>
      </trkpt>
      <trkpt lat="48.81122" lon="-3.33589">
        <ele>68</ele>
        <time>2025-09-26T16:05:19Z</time>
      </trkpt>
      <trkpt lat="48.811" lon="-3.33611">
        <ele>68</ele>
        <time>2025-09-26T16:05:24Z</time>
      </trkpt>
      <trkpt lat="48.81088" lon="-3.33623">
        <ele>67.6</ele>
        <time>2025-09-26T16:05:28Z</time>
      </trkpt>
      <trkpt lat="48.81082" lon="-3.33617">
        <ele>67.6</ele>
        <time>2025-09-26T16:05:31Z</time>
      </trkpt>
      <trkpt lat="48.81083" lon="-3.33608">
        <ele>67.6</ele>
        <time>2025-09-26T16:05:32Z</time>
      </trkpt>
      <trkpt lat="48.81085" lon="-3.33603">
        <ele>67.8</ele>
        <time>2025-09-26T16:05:34Z</time>
      </trkpt>
      <trkpt lat="48.81096" lon="-3.33577">
        <ele>69</ele>
        <time>2025-09-26T16:05:39Z</time>
      </trkpt>
      <trkpt lat="48.81095" lon="-3.33549">
        <ele>69.2</ele>
        <time>2025-09-26T16:05:44Z</time>
      </trkpt>
      <trkpt lat="48.81094" lon="-3.33544">
        <ele>69.4</ele>
        <time>2025-09-26T16:05:45Z</time>
      </trkpt>
      <trkpt lat="48.81087" lon="-3.33528">
        <ele>69.4</ele>
        <time>2025-09-26T16:05:49Z</time>
      </trkpt>
      <trkpt lat="48.81082" lon="-3.33507">
        <ele>69.6</ele>
        <time>2025-09-26T16:05:55Z</time>
      </trkpt>
      <trkpt lat="48.81082" lon="-3.33506">
        <ele>69.4</ele>
        <time>2025-09-26T16:05:59Z</time>
      </trkpt>
      <trkpt lat="48.81082" lon="-3.33506">
        <ele>69.4</ele>
        <time>2025-09-26T16:06:10Z</time>
      </trkpt>
      <trkpt lat="48.81082" lon="-3.33506">
        <ele>69.6</ele>
        <time>2025-09-26T16:06:15Z</time>
      </trkpt>
      <trkpt lat="48.81082" lon="-3.33506">
        <ele>69.6</ele>
        <time>2025-09-26T16:06:17Z</time>
      </trkpt>
      <trkpt lat="48.81082" lon="-3.33506">
        <ele>69.4</ele>
        <time>2025-09-26T16:06:20Z</time>
      </trkpt>
      <trkpt lat="48.81083" lon="-3.33506">
        <ele>69.4</ele>
        <time>2025-09-26T16:06:22Z</time>
      </trkpt>
      <trkpt lat="48.81083" lon="-3.33506">
        <ele>69.4</ele>
        <time>2025-09-26T16:06:26Z</time>
      </trkpt>
      <trkpt lat="48.81083" lon="-3.33506">
        <ele>69.4</ele>
        <time>2025-09-26T16:06:29Z</time>
      </trkpt>
      <trkpt lat="48.81083" lon="-3.33506">
        <ele>69.8</ele>
        <time>2025-09-26T16:06:32Z</time>
      </trkpt>
      <trkpt lat="48.81083" lon="-3.33506">
        <ele>69.4</ele>
        <time>2025-09-26T16:06:47Z</time>
      </trkpt>
      <trkpt lat="48.81083" lon="-3.33506">
        <ele>69.2</ele>
        <time>2025-09-26T16:06:51Z</time>
      </trkpt>
      <trkpt lat="48.81083" lon="-3.33506">
        <ele>69.2</ele>
        <time>2025-09-26T16:06:57Z</time>
      </trkpt>
      <trkpt lat="48.81085" lon="-3.33506">
        <ele>69.4</ele>
        <time>2025-09-26T16:07:09Z</time>
      </trkpt>
    </trkseg>
  </trk>
</gpx>